<?xml version='1.0' encoding='UTF-8'?><gpx version="1.1" creator="JPX - https://github.com/jenetics/jpx" xmlns="http://www.topografix.com/GPX/1/1"><trk><trkseg><trkpt lat="37.8391939" lon="15.1447383"><ele>535.0</ele><time>2026-04-26T10:06:07.072Z</time></trkpt><trkpt lat="37.8392625" lon="15.1447351"><ele>535.0</ele><time>2026-04-26T10:06:09.081Z</time></trkpt><trkpt lat="37.839392" lon="15.1446937"><ele>535.0</ele><time>2026-04-26T10:06:11.079Z</time></trkpt><trkpt lat="37.8394598" lon="15.1446807"><ele>535.0</ele><time>2026-04-26T10:06:12.082Z</time></trkpt><trkpt lat="37.8395325" lon="15.1446746"><ele>535.0</ele><time>2026-04-26T10:06:13.078Z</time></trkpt><trkpt lat="37.839599" lon="15.1446633"><ele>535.0</ele><time>2026-04-26T10:06:14.098Z</time></trkpt><trkpt lat="37.8396689" lon="15.1446507"><ele>535.3333333333334</ele><time>2026-04-26T10:06:15.099Z</time></trkpt><trkpt lat="37.8397383" lon="15.1446391"><ele>535.6666666666667</ele><time>2026-04-26T10:06:16.099Z</time></trkpt><trkpt lat="37.8398064" lon="15.1446261"><ele>536.0</ele><time>2026-04-26T10:06:17.097Z</time></trkpt><trkpt lat="37.8398755" lon="15.1446124"><ele>536.3333333333334</ele><time>2026-04-26T10:06:18.108Z</time></trkpt><trkpt lat="37.8399385" lon="15.1446057"><ele>536.6666666666666</ele><time>2026-04-26T10:06:19.1Z</time></trkpt><trkpt lat="37.8400538" lon="15.1445988"><ele>537.0</ele><time>2026-04-26T10:06:21.098Z</time></trkpt><trkpt lat="37.8401628" lon="15.1445853"><ele>537.2</ele><time>2026-04-26T10:06:23.115Z</time></trkpt><trkpt lat="37.8402586" lon="15.1445626"><ele>537.4000000000001</ele><time>2026-04-26T10:06:25.113Z</time></trkpt><trkpt lat="37.8403552" lon="15.1445399"><ele>537.5999999999999</ele><time>2026-04-26T10:06:27.098Z</time></trkpt><trkpt lat="37.8404461" lon="15.144518"><ele>537.8</ele><time>2026-04-26T10:06:29.089Z</time></trkpt><trkpt lat="37.8405305" lon="15.1444867"><ele>538.0</ele><time>2026-04-26T10:06:31.079Z</time></trkpt><trkpt lat="37.8406098" lon="15.1444388"><ele>538.0</ele><time>2026-04-26T10:06:33.1Z</time></trkpt><trkpt lat="37.8406755" lon="15.1443702"><ele>538.0</ele><time>2026-04-26T10:06:35.1Z</time></trkpt><trkpt lat="37.8407336" lon="15.1442915"><ele>538.0</ele><time>2026-04-26T10:06:37.097Z</time></trkpt><trkpt lat="37.8408037" lon="15.1442249"><ele>538.0</ele><time>2026-04-26T10:06:39.085Z</time></trkpt><trkpt lat="37.8408802" lon="15.1441453"><ele>538.0</ele><time>2026-04-26T10:06:41.102Z</time></trkpt><trkpt lat="37.840947" lon="15.1440574"><ele>538.4</ele><time>2026-04-26T10:06:43.096Z</time></trkpt><trkpt lat="37.8410007" lon="15.1439734"><ele>538.8</ele><time>2026-04-26T10:06:45.111Z</time></trkpt><trkpt lat="37.841056" lon="15.1439019"><ele>539.2</ele><time>2026-04-26T10:06:47.1Z</time></trkpt><trkpt lat="37.8410665" lon="15.1438108"><ele>539.6</ele><time>2026-04-26T10:06:49.108Z</time></trkpt><trkpt lat="37.8411714" lon="15.1437248"><ele>540.0</ele><time>2026-04-26T10:06:51.085Z</time></trkpt><trkpt lat="37.8412408" lon="15.1436235"><ele>540.0</ele><time>2026-04-26T10:06:53.116Z</time></trkpt><trkpt lat="37.8412905" lon="15.1435515"><ele>540.0</ele><time>2026-04-26T10:06:55.076Z</time></trkpt><trkpt lat="37.8413936" lon="15.1433423"><ele>540.0</ele><time>2026-04-26T10:07:01.098Z</time></trkpt><trkpt lat="37.8414549" lon="15.1432696"><ele>540.0</ele><time>2026-04-26T10:07:03.071Z</time></trkpt><trkpt lat="37.8415053" lon="15.1432082"><ele>540.0</ele><time>2026-04-26T10:07:04.736Z</time></trkpt><trkpt lat="37.8415502" lon="15.143115"><ele>540.5</ele><time>2026-04-26T10:07:07.108Z</time></trkpt><trkpt lat="37.8415951" lon="15.1430203"><ele>541.0</ele><time>2026-04-26T10:07:09.088Z</time></trkpt><trkpt lat="37.8416432" lon="15.1429382"><ele>541.5</ele><time>2026-04-26T10:07:11.016Z</time></trkpt><trkpt lat="37.8417025" lon="15.1428663"><ele>542.0</ele><time>2026-04-26T10:07:13.064Z</time></trkpt><trkpt lat="37.8417623" lon="15.1428115"><ele>542.5</ele><time>2026-04-26T10:07:15.097Z</time></trkpt><trkpt lat="37.8418223" lon="15.1427601"><ele>543.0</ele><time>2026-04-26T10:07:17.079Z</time></trkpt><trkpt lat="37.8418732" lon="15.142713"><ele>543.0</ele><time>2026-04-26T10:07:19.072Z</time></trkpt><trkpt lat="37.8419304" lon="15.1426556"><ele>543.0</ele><time>2026-04-26T10:07:22.096Z</time></trkpt><trkpt lat="37.841978" lon="15.1425994"><ele>543.0</ele><time>2026-04-26T10:07:25.097Z</time></trkpt><trkpt lat="37.842051" lon="15.1425638"><ele>543.0</ele><time>2026-04-26T10:07:37.076Z</time></trkpt><trkpt lat="37.8421505" lon="15.1425378"><ele>543.0</ele><time>2026-04-26T10:07:49.087Z</time></trkpt><trkpt lat="37.8422165" lon="15.1425429"><ele>543.0</ele><time>2026-04-26T10:07:51.075Z</time></trkpt><trkpt lat="37.8422768" lon="15.1424607"><ele>543.1428571428571</ele><time>2026-04-26T10:07:55.07Z</time></trkpt><trkpt lat="37.8423001" lon="15.1423677"><ele>543.2857142857142</ele><time>2026-04-26T10:07:57.064Z</time></trkpt><trkpt lat="37.8423542" lon="15.1423149"><ele>543.4285714285713</ele><time>2026-04-26T10:07:59.084Z</time></trkpt><trkpt lat="37.8424137" lon="15.1422594"><ele>543.5714285714286</ele><time>2026-04-26T10:08:01.075Z</time></trkpt><trkpt lat="37.842474" lon="15.1422111"><ele>543.7142857142857</ele><time>2026-04-26T10:08:03.017Z</time></trkpt><trkpt lat="37.8425307" lon="15.1421347"><ele>543.8571428571428</ele><time>2026-04-26T10:08:06.063Z</time></trkpt><trkpt lat="37.8425824" lon="15.1420866"><ele>544.0</ele><time>2026-04-26T10:08:10.062Z</time></trkpt><trkpt lat="37.8426158" lon="15.1420056"><ele>543.8</ele><time>2026-04-26T10:08:13.089Z</time></trkpt><trkpt lat="37.8426895" lon="15.1419432"><ele>543.5999999999999</ele><time>2026-04-26T10:08:25.097Z</time></trkpt><trkpt lat="37.842823" lon="15.1418562"><ele>543.4</ele><time>2026-04-26T10:08:28.075Z</time></trkpt><trkpt lat="37.8429179" lon="15.141822"><ele>543.1999999999999</ele><time>2026-04-26T10:08:30.096Z</time></trkpt><trkpt lat="37.8430112" lon="15.1417875"><ele>543.0</ele><time>2026-04-26T10:08:34.101Z</time></trkpt><trkpt lat="37.8430719" lon="15.1417259"><ele>543.0</ele><time>2026-04-26T10:08:36.082Z</time></trkpt><trkpt lat="37.8431267" lon="15.1416784"><ele>543.0</ele><time>2026-04-26T10:08:38.099Z</time></trkpt><trkpt lat="37.8432017" lon="15.1416294"><ele>543.0</ele><time>2026-04-26T10:08:40.976Z</time></trkpt><trkpt lat="37.8432725" lon="15.1416145"><ele>543.0</ele><time>2026-04-26T10:08:44.074Z</time></trkpt><trkpt lat="37.8433339" lon="15.1415942"><ele>543.0</ele><time>2026-04-26T10:08:47.08Z</time></trkpt><trkpt lat="37.8434128" lon="15.1415638"><ele>543.0</ele><time>2026-04-26T10:08:50.064Z</time></trkpt><trkpt lat="37.8434919" lon="15.1415248"><ele>542.6666666666666</ele><time>2026-04-26T10:08:52.107Z</time></trkpt><trkpt lat="37.8435709" lon="15.1414706"><ele>542.3333333333334</ele><time>2026-04-26T10:08:54.069Z</time></trkpt><trkpt lat="37.843641" lon="15.1414747"><ele>542.0</ele><time>2026-04-26T10:08:56.026Z</time></trkpt><trkpt lat="37.8436168" lon="15.1415574"><ele>541.6666666666667</ele><time>2026-04-26T10:08:58.077Z</time></trkpt><trkpt lat="37.8436803" lon="15.1415132"><ele>541.3333333333334</ele><time>2026-04-26T10:08:59.07Z</time></trkpt><trkpt lat="37.8437451" lon="15.141489"><ele>541.0</ele><time>2026-04-26T10:09:01.075Z</time></trkpt><trkpt lat="37.8438221" lon="15.1414273"><ele>541.0</ele><time>2026-04-26T10:09:03.101Z</time></trkpt><trkpt lat="37.8439118" lon="15.1413659"><ele>541.0</ele><time>2026-04-26T10:09:05.065Z</time></trkpt><trkpt lat="37.8439875" lon="15.1413257"><ele>541.0</ele><time>2026-04-26T10:09:07.026Z</time></trkpt><trkpt lat="37.8440826" lon="15.1412205"><ele>541.0</ele><time>2026-04-26T10:09:08.099Z</time></trkpt><trkpt lat="37.844137" lon="15.141168"><ele>541.0</ele><time>2026-04-26T10:09:09.101Z</time></trkpt><trkpt lat="37.8441864" lon="15.1411093"><ele>541.0</ele><time>2026-04-26T10:09:10.1Z</time></trkpt><trkpt lat="37.8442302" lon="15.141044"><ele>541.0</ele><time>2026-04-26T10:09:11.105Z</time></trkpt><trkpt lat="37.8442695" lon="15.1409719"><ele>541.0</ele><time>2026-04-26T10:09:12.102Z</time></trkpt><trkpt lat="37.8443067" lon="15.1408984"><ele>541.0</ele><time>2026-04-26T10:09:13.078Z</time></trkpt><trkpt lat="37.844343" lon="15.1408293"><ele>541.0</ele><time>2026-04-26T10:09:14.098Z</time></trkpt><trkpt lat="37.8443915" lon="15.1406945"><ele>541.0</ele><time>2026-04-26T10:09:16.079Z</time></trkpt><trkpt lat="37.8444268" lon="15.1405526"><ele>541.0</ele><time>2026-04-26T10:09:18.098Z</time></trkpt><trkpt lat="37.8444505" lon="15.1404093"><ele>541.2</ele><time>2026-04-26T10:09:20.099Z</time></trkpt><trkpt lat="37.8444762" lon="15.1402617"><ele>541.4000000000001</ele><time>2026-04-26T10:09:22.1Z</time></trkpt><trkpt lat="37.8444892" lon="15.1401818"><ele>541.6</ele><time>2026-04-26T10:09:23.097Z</time></trkpt><trkpt lat="37.8445214" lon="15.1400463"><ele>541.8000000000001</ele><time>2026-04-26T10:09:25.097Z</time></trkpt><trkpt lat="37.8445535" lon="15.1399274"><ele>542.0</ele><time>2026-04-26T10:09:27.097Z</time></trkpt><trkpt lat="37.8445893" lon="15.1397971"><ele>542.0</ele><time>2026-04-26T10:09:29.084Z</time></trkpt><trkpt lat="37.8446246" lon="15.1396536"><ele>542.0</ele><time>2026-04-26T10:09:31.107Z</time></trkpt><trkpt lat="37.8446735" lon="15.1395114"><ele>542.0</ele><time>2026-04-26T10:09:33.116Z</time></trkpt><trkpt lat="37.8447088" lon="15.1393866"><ele>542.0</ele><time>2026-04-26T10:09:35.081Z</time></trkpt><trkpt lat="37.8447357" lon="15.1392572"><ele>542.0</ele><time>2026-04-26T10:09:37.1Z</time></trkpt><trkpt lat="37.8447679" lon="15.1391215"><ele>542.0</ele><time>2026-04-26T10:09:39.079Z</time></trkpt><trkpt lat="37.8448027" lon="15.1389841"><ele>542.0</ele><time>2026-04-26T10:09:41.078Z</time></trkpt><trkpt lat="37.8448465" lon="15.138837"><ele>542.0</ele><time>2026-04-26T10:09:43.08Z</time></trkpt><trkpt lat="37.8448715" lon="15.138759"><ele>542.0</ele><time>2026-04-26T10:09:44.113Z</time></trkpt><trkpt lat="37.8448947" lon="15.1386792"><ele>542.4285714285714</ele><time>2026-04-26T10:09:45.097Z</time></trkpt><trkpt lat="37.8449187" lon="15.1385978"><ele>542.8571428571429</ele><time>2026-04-26T10:09:46.097Z</time></trkpt><trkpt lat="37.8449428" lon="15.1385131"><ele>543.2857142857143</ele><time>2026-04-26T10:09:47.099Z</time></trkpt><trkpt lat="37.8449694" lon="15.1384285"><ele>543.7142857142858</ele><time>2026-04-26T10:09:48.104Z</time></trkpt><trkpt lat="37.8449976" lon="15.1383438"><ele>544.1428571428572</ele><time>2026-04-26T10:09:49.099Z</time></trkpt><trkpt lat="37.845023" lon="15.1382622"><ele>544.5714285714286</ele><time>2026-04-26T10:09:50.113Z</time></trkpt><trkpt lat="37.8450447" lon="15.1381856"><ele>545.0</ele><time>2026-04-26T10:09:51.084Z</time></trkpt><trkpt lat="37.8450676" lon="15.1381061"><ele>545.5</ele><time>2026-04-26T10:09:52.099Z</time></trkpt><trkpt lat="37.8450941" lon="15.1380265"><ele>546.0</ele><time>2026-04-26T10:09:53.098Z</time></trkpt><trkpt lat="37.84512" lon="15.1379472"><ele>546.5</ele><time>2026-04-26T10:09:54.097Z</time></trkpt><trkpt lat="37.8451447" lon="15.1378691"><ele>547.0</ele><time>2026-04-26T10:09:55.099Z</time></trkpt><trkpt lat="37.8451727" lon="15.1377824"><ele>547.5</ele><time>2026-04-26T10:09:56.109Z</time></trkpt><trkpt lat="37.8452027" lon="15.1376807"><ele>548.0</ele><time>2026-04-26T10:09:57.099Z</time></trkpt><trkpt lat="37.8452333" lon="15.1375618"><ele>548.4</ele><time>2026-04-26T10:09:58.097Z</time></trkpt><trkpt lat="37.8452679" lon="15.1374363"><ele>548.8</ele><time>2026-04-26T10:09:59.096Z</time></trkpt><trkpt lat="37.8453065" lon="15.1373013"><ele>549.2</ele><time>2026-04-26T10:10:00.086Z</time></trkpt><trkpt lat="37.8453514" lon="15.1371679"><ele>549.6</ele><time>2026-04-26T10:10:01.085Z</time></trkpt><trkpt lat="37.8453987" lon="15.1370377"><ele>550.0</ele><time>2026-04-26T10:10:02.09Z</time></trkpt><trkpt lat="37.8454448" lon="15.1369123"><ele>551.0</ele><time>2026-04-26T10:10:03.113Z</time></trkpt><trkpt lat="37.8454852" lon="15.1367943"><ele>552.0</ele><time>2026-04-26T10:10:04.083Z</time></trkpt><trkpt lat="37.8455205" lon="15.1366816"><ele>553.0</ele><time>2026-04-26T10:10:05.108Z</time></trkpt><trkpt lat="37.8455466" lon="15.1365879"><ele>554.0</ele><time>2026-04-26T10:10:06.085Z</time></trkpt><trkpt lat="37.8455683" lon="15.1365047"><ele>555.0</ele><time>2026-04-26T10:10:07.093Z</time></trkpt><trkpt lat="37.845605" lon="15.1363795"><ele>555.2</ele><time>2026-04-26T10:10:09.09Z</time></trkpt><trkpt lat="37.8456377" lon="15.1362556"><ele>555.4</ele><time>2026-04-26T10:10:11.084Z</time></trkpt><trkpt lat="37.8456741" lon="15.1361324"><ele>555.6</ele><time>2026-04-26T10:10:13.097Z</time></trkpt><trkpt lat="37.8456961" lon="15.1360454"><ele>555.8</ele><time>2026-04-26T10:10:15.125Z</time></trkpt><trkpt lat="37.8457223" lon="15.1359141"><ele>556.0</ele><time>2026-04-26T10:10:18.1Z</time></trkpt><trkpt lat="37.8457452" lon="15.1358251"><ele>556.8</ele><time>2026-04-26T10:10:19.105Z</time></trkpt><trkpt lat="37.8457761" lon="15.135711"><ele>557.6</ele><time>2026-04-26T10:10:20.097Z</time></trkpt><trkpt lat="37.8458137" lon="15.1355767"><ele>558.4</ele><time>2026-04-26T10:10:21.101Z</time></trkpt><trkpt lat="37.8458582" lon="15.1354471"><ele>559.2</ele><time>2026-04-26T10:10:22.1Z</time></trkpt><trkpt lat="37.8459051" lon="15.1353144"><ele>560.0</ele><time>2026-04-26T10:10:23.1Z</time></trkpt><trkpt lat="37.845949" lon="15.1351817"><ele>560.0</ele><time>2026-04-26T10:10:24.109Z</time></trkpt><trkpt lat="37.8459888" lon="15.1350609"><ele>560.0</ele><time>2026-04-26T10:10:25.083Z</time></trkpt><trkpt lat="37.8460247" lon="15.1349508"><ele>560.0</ele><time>2026-04-26T10:10:26.1Z</time></trkpt><trkpt lat="37.8460516" lon="15.1348379"><ele>560.0</ele><time>2026-04-26T10:10:27.105Z</time></trkpt><trkpt lat="37.846077" lon="15.1347291"><ele>560.0</ele><time>2026-04-26T10:10:28.1Z</time></trkpt><trkpt lat="37.8461008" lon="15.1346215"><ele>560.4</ele><time>2026-04-26T10:10:29.104Z</time></trkpt><trkpt lat="37.8461232" lon="15.1345103"><ele>560.8</ele><time>2026-04-26T10:10:30.118Z</time></trkpt><trkpt lat="37.8461454" lon="15.1344008"><ele>561.2</ele><time>2026-04-26T10:10:31.11Z</time></trkpt><trkpt lat="37.8461669" lon="15.1342852"><ele>561.6</ele><time>2026-04-26T10:10:32.099Z</time></trkpt><trkpt lat="37.8461881" lon="15.1341703"><ele>562.0</ele><time>2026-04-26T10:10:33.101Z</time></trkpt><trkpt lat="37.8462107" lon="15.1340571"><ele>562.6</ele><time>2026-04-26T10:10:34.096Z</time></trkpt><trkpt lat="37.8462316" lon="15.1339406"><ele>563.2</ele><time>2026-04-26T10:10:35.096Z</time></trkpt><trkpt lat="37.8462471" lon="15.1338219"><ele>563.8</ele><time>2026-04-26T10:10:36.084Z</time></trkpt><trkpt lat="37.8462653" lon="15.1337031"><ele>564.4</ele><time>2026-04-26T10:10:37.087Z</time></trkpt><trkpt lat="37.8462882" lon="15.1335801"><ele>565.0</ele><time>2026-04-26T10:10:38.109Z</time></trkpt><trkpt lat="37.8463123" lon="15.1334627"><ele>565.0</ele><time>2026-04-26T10:10:39.082Z</time></trkpt><trkpt lat="37.8463371" lon="15.1333456"><ele>565.0</ele><time>2026-04-26T10:10:40.092Z</time></trkpt><trkpt lat="37.8463652" lon="15.1332276"><ele>565.0</ele><time>2026-04-26T10:10:41.086Z</time></trkpt><trkpt lat="37.8463916" lon="15.1331096"><ele>565.0</ele><time>2026-04-26T10:10:42.089Z</time></trkpt><trkpt lat="37.846419" lon="15.1329892"><ele>565.0</ele><time>2026-04-26T10:10:43.111Z</time></trkpt><trkpt lat="37.8464421" lon="15.132868"><ele>565.1666666666667</ele><time>2026-04-26T10:10:44.095Z</time></trkpt><trkpt lat="37.8464635" lon="15.1327532"><ele>565.3333333333334</ele><time>2026-04-26T10:10:45.11Z</time></trkpt><trkpt lat="37.8464848" lon="15.13265"><ele>565.5</ele><time>2026-04-26T10:10:46.084Z</time></trkpt><trkpt lat="37.8465019" lon="15.1325599"><ele>565.6666666666666</ele><time>2026-04-26T10:10:47.104Z</time></trkpt><trkpt lat="37.8465436" lon="15.1324589"><ele>565.8333333333333</ele><time>2026-04-26T10:10:49.083Z</time></trkpt><trkpt lat="37.8466389" lon="15.1324595"><ele>566.0</ele><time>2026-04-26T10:10:52.097Z</time></trkpt><trkpt lat="37.8467831" lon="15.132508"><ele>565.8</ele><time>2026-04-26T10:10:54.08Z</time></trkpt><trkpt lat="37.8468708" lon="15.1325357"><ele>565.6</ele><time>2026-04-26T10:10:55.105Z</time></trkpt><trkpt lat="37.8469726" lon="15.1325611"><ele>565.4</ele><time>2026-04-26T10:10:56.1Z</time></trkpt><trkpt lat="37.847068" lon="15.1325709"><ele>565.2</ele><time>2026-04-26T10:10:57.1Z</time></trkpt><trkpt lat="37.8471669" lon="15.1325872"><ele>565.0</ele><time>2026-04-26T10:10:58.077Z</time></trkpt><trkpt lat="37.8472659" lon="15.1326052"><ele>565.0</ele><time>2026-04-26T10:10:59.1Z</time></trkpt><trkpt lat="37.8473744" lon="15.1326278"><ele>565.0</ele><time>2026-04-26T10:11:00.089Z</time></trkpt><trkpt lat="37.8474855" lon="15.1326485"><ele>565.0</ele><time>2026-04-26T10:11:01.1Z</time></trkpt><trkpt lat="37.8475984" lon="15.1326694"><ele>565.0</ele><time>2026-04-26T10:11:02.098Z</time></trkpt><trkpt lat="37.8477116" lon="15.1326924"><ele>564.5</ele><time>2026-04-26T10:11:03.114Z</time></trkpt><trkpt lat="37.8478223" lon="15.1327097"><ele>564.0</ele><time>2026-04-26T10:11:04.099Z</time></trkpt><trkpt lat="37.8479344" lon="15.1327285"><ele>563.5</ele><time>2026-04-26T10:11:05.113Z</time></trkpt><trkpt lat="37.848048" lon="15.1327486"><ele>563.0</ele><time>2026-04-26T10:11:06.1Z</time></trkpt><trkpt lat="37.8481645" lon="15.1327668"><ele>563.0</ele><time>2026-04-26T10:11:07.079Z</time></trkpt><trkpt lat="37.8482833" lon="15.1327922"><ele>563.0</ele><time>2026-04-26T10:11:08.1Z</time></trkpt><trkpt lat="37.8484058" lon="15.1328191"><ele>563.0</ele><time>2026-04-26T10:11:09.085Z</time></trkpt><trkpt lat="37.8485307" lon="15.1328433"><ele>563.0</ele><time>2026-04-26T10:11:10.083Z</time></trkpt><trkpt lat="37.8486558" lon="15.1328661"><ele>561.75</ele><time>2026-04-26T10:11:11.097Z</time></trkpt><trkpt lat="37.8487794" lon="15.1328867"><ele>560.5</ele><time>2026-04-26T10:11:12.097Z</time></trkpt><trkpt lat="37.848899" lon="15.1329087"><ele>559.25</ele><time>2026-04-26T10:11:13.108Z</time></trkpt><trkpt lat="37.8490131" lon="15.1329282"><ele>558.0</ele><time>2026-04-26T10:11:14.102Z</time></trkpt><trkpt lat="37.8491204" lon="15.1329476"><ele>558.0</ele><time>2026-04-26T10:11:15.117Z</time></trkpt><trkpt lat="37.8492248" lon="15.1329697"><ele>558.0</ele><time>2026-04-26T10:11:16.096Z</time></trkpt><trkpt lat="37.8493277" lon="15.1329935"><ele>558.0</ele><time>2026-04-26T10:11:17.097Z</time></trkpt><trkpt lat="37.8494295" lon="15.1330124"><ele>558.0</ele><time>2026-04-26T10:11:18.101Z</time></trkpt><trkpt lat="37.8495356" lon="15.1330283"><ele>558.0</ele><time>2026-04-26T10:11:19.1Z</time></trkpt><trkpt lat="37.8496437" lon="15.1330478"><ele>558.1999999999999</ele><time>2026-04-26T10:11:20.103Z</time></trkpt><trkpt lat="37.849753" lon="15.133068"><ele>558.4</ele><time>2026-04-26T10:11:21.118Z</time></trkpt><trkpt lat="37.8498632" lon="15.1330896"><ele>558.5999999999999</ele><time>2026-04-26T10:11:22.103Z</time></trkpt><trkpt lat="37.8499738" lon="15.1331084"><ele>558.8</ele><time>2026-04-26T10:11:23.099Z</time></trkpt><trkpt lat="37.8500832" lon="15.1331224"><ele>559.0</ele><time>2026-04-26T10:11:24.102Z</time></trkpt><trkpt lat="37.8501901" lon="15.1331391"><ele>558.8</ele><time>2026-04-26T10:11:25.116Z</time></trkpt><trkpt lat="37.8502966" lon="15.1331635"><ele>558.5999999999999</ele><time>2026-04-26T10:11:26.085Z</time></trkpt><trkpt lat="37.8504002" lon="15.1331849"><ele>558.4</ele><time>2026-04-26T10:11:27.12Z</time></trkpt><trkpt lat="37.8505034" lon="15.1332064"><ele>558.1999999999999</ele><time>2026-04-26T10:11:28.106Z</time></trkpt><trkpt lat="37.8506115" lon="15.1332279"><ele>558.0</ele><time>2026-04-26T10:11:29.101Z</time></trkpt><trkpt lat="37.8507222" lon="15.1332488"><ele>558.0</ele><time>2026-04-26T10:11:30.102Z</time></trkpt><trkpt lat="37.8508303" lon="15.1332629"><ele>558.0</ele><time>2026-04-26T10:11:31.1Z</time></trkpt><trkpt lat="37.8509442" lon="15.1332805"><ele>558.0</ele><time>2026-04-26T10:11:32.103Z</time></trkpt><trkpt lat="37.8510596" lon="15.1333006"><ele>558.0</ele><time>2026-04-26T10:11:33.116Z</time></trkpt><trkpt lat="37.8511727" lon="15.1333227"><ele>558.1999999999999</ele><time>2026-04-26T10:11:34.078Z</time></trkpt><trkpt lat="37.8512791" lon="15.1333382"><ele>558.4</ele><time>2026-04-26T10:11:35.087Z</time></trkpt><trkpt lat="37.8513792" lon="15.1333551"><ele>558.5999999999999</ele><time>2026-04-26T10:11:36.098Z</time></trkpt><trkpt lat="37.8514751" lon="15.1333683"><ele>558.8</ele><time>2026-04-26T10:11:37.115Z</time></trkpt><trkpt lat="37.8515695" lon="15.1333816"><ele>559.0</ele><time>2026-04-26T10:11:38.096Z</time></trkpt><trkpt lat="37.8516634" lon="15.133397"><ele>559.0</ele><time>2026-04-26T10:11:39.112Z</time></trkpt><trkpt lat="37.8517571" lon="15.1334121"><ele>559.0</ele><time>2026-04-26T10:11:40.097Z</time></trkpt><trkpt lat="37.8518475" lon="15.1334324"><ele>559.0</ele><time>2026-04-26T10:11:41.107Z</time></trkpt><trkpt lat="37.8519309" lon="15.1334517"><ele>559.0</ele><time>2026-04-26T10:11:42.097Z</time></trkpt><trkpt lat="37.8520088" lon="15.1334808"><ele>559.0</ele><time>2026-04-26T10:11:43.099Z</time></trkpt><trkpt lat="37.8520831" lon="15.1335192"><ele>559.0</ele><time>2026-04-26T10:11:44.101Z</time></trkpt><trkpt lat="37.8521514" lon="15.133563"><ele>560.1666666666667</ele><time>2026-04-26T10:11:45.105Z</time></trkpt><trkpt lat="37.8522162" lon="15.1336122"><ele>561.3333333333334</ele><time>2026-04-26T10:11:46.101Z</time></trkpt><trkpt lat="37.8522726" lon="15.1336639"><ele>562.5</ele><time>2026-04-26T10:11:47.108Z</time></trkpt><trkpt lat="37.8523348" lon="15.1337252"><ele>563.6666666666666</ele><time>2026-04-26T10:11:48.101Z</time></trkpt><trkpt lat="37.8523943" lon="15.1338012"><ele>564.8333333333333</ele><time>2026-04-26T10:11:49.094Z</time></trkpt><trkpt lat="37.8524468" lon="15.1338897"><ele>566.0</ele><time>2026-04-26T10:11:50.08Z</time></trkpt><trkpt lat="37.8525032" lon="15.1339901"><ele>565.8</ele><time>2026-04-26T10:11:51.097Z</time></trkpt><trkpt lat="37.8525621" lon="15.134097"><ele>565.6</ele><time>2026-04-26T10:11:52.098Z</time></trkpt><trkpt lat="37.852624" lon="15.1342029"><ele>565.4</ele><time>2026-04-26T10:11:53.115Z</time></trkpt><trkpt lat="37.8526867" lon="15.1343136"><ele>565.2</ele><time>2026-04-26T10:11:54.114Z</time></trkpt><trkpt lat="37.8527532" lon="15.1344245"><ele>565.0</ele><time>2026-04-26T10:11:55.101Z</time></trkpt><trkpt lat="37.8528145" lon="15.1345343"><ele>567.0</ele><time>2026-04-26T10:11:56.113Z</time></trkpt><trkpt lat="37.8528753" lon="15.1346426"><ele>569.0</ele><time>2026-04-26T10:11:57.103Z</time></trkpt><trkpt lat="37.8529324" lon="15.134747"><ele>571.0</ele><time>2026-04-26T10:11:58.104Z</time></trkpt><trkpt lat="37.852988" lon="15.1348483"><ele>573.0</ele><time>2026-04-26T10:11:59.118Z</time></trkpt><trkpt lat="37.8530437" lon="15.1349443"><ele>575.0</ele><time>2026-04-26T10:12:00.088Z</time></trkpt><trkpt lat="37.8531005" lon="15.1350338"><ele>575.0</ele><time>2026-04-26T10:12:01.099Z</time></trkpt><trkpt lat="37.8531591" lon="15.1351079"><ele>575.0</ele><time>2026-04-26T10:12:02.104Z</time></trkpt><trkpt lat="37.8532224" lon="15.1351735"><ele>575.0</ele><time>2026-04-26T10:12:03.123Z</time></trkpt><trkpt lat="37.8532851" lon="15.1352232"><ele>575.0</ele><time>2026-04-26T10:12:04.119Z</time></trkpt><trkpt lat="37.853348" lon="15.1352608"><ele>575.0</ele><time>2026-04-26T10:12:05.097Z</time></trkpt><trkpt lat="37.8534165" lon="15.1352928"><ele>575.0</ele><time>2026-04-26T10:12:06.1Z</time></trkpt><trkpt lat="37.8534879" lon="15.1353175"><ele>576.2857142857142</ele><time>2026-04-26T10:12:07.117Z</time></trkpt><trkpt lat="37.853555" lon="15.1353322"><ele>577.5714285714286</ele><time>2026-04-26T10:12:08.112Z</time></trkpt><trkpt lat="37.8536226" lon="15.1353352"><ele>578.8571428571429</ele><time>2026-04-26T10:12:09.114Z</time></trkpt><trkpt lat="37.8536864" lon="15.1353313"><ele>580.1428571428571</ele><time>2026-04-26T10:12:10.099Z</time></trkpt><trkpt lat="37.8537517" lon="15.1353228"><ele>581.4285714285714</ele><time>2026-04-26T10:12:11.096Z</time></trkpt><trkpt lat="37.853823" lon="15.135314"><ele>582.7142857142857</ele><time>2026-04-26T10:12:12.097Z</time></trkpt><trkpt lat="37.8538973" lon="15.1352933"><ele>584.0</ele><time>2026-04-26T10:12:13.097Z</time></trkpt><trkpt lat="37.8539744" lon="15.13527"><ele>584.0</ele><time>2026-04-26T10:12:14.1Z</time></trkpt><trkpt lat="37.8540578" lon="15.1352432"><ele>584.0</ele><time>2026-04-26T10:12:15.117Z</time></trkpt><trkpt lat="37.8541461" lon="15.1352145"><ele>584.0</ele><time>2026-04-26T10:12:16.1Z</time></trkpt><trkpt lat="37.854238" lon="15.1351816"><ele>584.0</ele><time>2026-04-26T10:12:17.101Z</time></trkpt><trkpt lat="37.85433" lon="15.1351464"><ele>584.0</ele><time>2026-04-26T10:12:18.096Z</time></trkpt><trkpt lat="37.8544239" lon="15.1351146"><ele>583.2</ele><time>2026-04-26T10:12:19.099Z</time></trkpt><trkpt lat="37.8545207" lon="15.1350911"><ele>582.4</ele><time>2026-04-26T10:12:20.108Z</time></trkpt><trkpt lat="37.8546164" lon="15.1350715"><ele>581.6</ele><time>2026-04-26T10:12:21.088Z</time></trkpt><trkpt lat="37.8547119" lon="15.1350567"><ele>580.8</ele><time>2026-04-26T10:12:22.094Z</time></trkpt><trkpt lat="37.8548072" lon="15.135055"><ele>580.0</ele><time>2026-04-26T10:12:23.106Z</time></trkpt><trkpt lat="37.8549037" lon="15.1350612"><ele>580.0</ele><time>2026-04-26T10:12:24.1Z</time></trkpt><trkpt lat="37.8550059" lon="15.1350681"><ele>580.0</ele><time>2026-04-26T10:12:25.094Z</time></trkpt><trkpt lat="37.8551093" lon="15.1350748"><ele>580.0</ele><time>2026-04-26T10:12:26.097Z</time></trkpt><trkpt lat="37.8552048" lon="15.1350745"><ele>580.0</ele><time>2026-04-26T10:12:27.089Z</time></trkpt><trkpt lat="37.8552945" lon="15.1350698"><ele>580.0</ele><time>2026-04-26T10:12:28.105Z</time></trkpt><trkpt lat="37.855378" lon="15.1350464"><ele>579.6</ele><time>2026-04-26T10:12:29.088Z</time></trkpt><trkpt lat="37.855466" lon="15.1350051"><ele>579.2</ele><time>2026-04-26T10:12:30.1Z</time></trkpt><trkpt lat="37.8555448" lon="15.1349483"><ele>578.8</ele><time>2026-04-26T10:12:31.107Z</time></trkpt><trkpt lat="37.855626" lon="15.134884"><ele>578.4</ele><time>2026-04-26T10:12:32.1Z</time></trkpt><trkpt lat="37.8557222" lon="15.134831"><ele>578.0</ele><time>2026-04-26T10:12:33.115Z</time></trkpt><trkpt lat="37.8558263" lon="15.1347908"><ele>583.0</ele><time>2026-04-26T10:12:34.095Z</time></trkpt><trkpt lat="37.8559356" lon="15.1347607"><ele>588.0</ele><time>2026-04-26T10:12:35.1Z</time></trkpt><trkpt lat="37.8560496" lon="15.134742"><ele>593.0</ele><time>2026-04-26T10:12:36.096Z</time></trkpt><trkpt lat="37.8561643" lon="15.13472"><ele>598.0</ele><time>2026-04-26T10:12:37.1Z</time></trkpt><trkpt lat="37.8562702" lon="15.1346905"><ele>598.0</ele><time>2026-04-26T10:12:38.075Z</time></trkpt><trkpt lat="37.8563718" lon="15.1346582"><ele>598.0</ele><time>2026-04-26T10:12:39.115Z</time></trkpt><trkpt lat="37.8564707" lon="15.1346273"><ele>598.0</ele><time>2026-04-26T10:12:40.097Z</time></trkpt><trkpt lat="37.8565701" lon="15.1345957"><ele>598.0</ele><time>2026-04-26T10:12:41.096Z</time></trkpt><trkpt lat="37.8566663" lon="15.1345649"><ele>598.0</ele><time>2026-04-26T10:12:42.065Z</time></trkpt><trkpt lat="37.8567572" lon="15.1345388"><ele>598.0</ele><time>2026-04-26T10:12:43.068Z</time></trkpt><trkpt lat="37.8568437" lon="15.134526"><ele>598.0</ele><time>2026-04-26T10:12:44.1Z</time></trkpt><trkpt lat="37.8569284" lon="15.1345323"><ele>598.0</ele><time>2026-04-26T10:12:45.103Z</time></trkpt><trkpt lat="37.8570184" lon="15.1345506"><ele>598.0</ele><time>2026-04-26T10:12:46.1Z</time></trkpt><trkpt lat="37.8571197" lon="15.1345829"><ele>598.0</ele><time>2026-04-26T10:12:47.074Z</time></trkpt><trkpt lat="37.8572219" lon="15.134621"><ele>598.0</ele><time>2026-04-26T10:12:48.07Z</time></trkpt><trkpt lat="37.8573198" lon="15.1346535"><ele>598.0</ele><time>2026-04-26T10:12:49.065Z</time></trkpt><trkpt lat="37.8574115" lon="15.1346813"><ele>598.0</ele><time>2026-04-26T10:12:50.099Z</time></trkpt><trkpt lat="37.8574971" lon="15.1347034"><ele>598.0</ele><time>2026-04-26T10:12:51.063Z</time></trkpt><trkpt lat="37.857589" lon="15.1347203"><ele>598.0</ele><time>2026-04-26T10:12:52.1Z</time></trkpt><trkpt lat="37.8576849" lon="15.1347311"><ele>599.75</ele><time>2026-04-26T10:12:53.078Z</time></trkpt><trkpt lat="37.8577924" lon="15.1347474"><ele>601.5</ele><time>2026-04-26T10:12:54.099Z</time></trkpt><trkpt lat="37.8579091" lon="15.1347689"><ele>603.25</ele><time>2026-04-26T10:12:55.064Z</time></trkpt><trkpt lat="37.8580231" lon="15.1347943"><ele>605.0</ele><time>2026-04-26T10:12:56.099Z</time></trkpt><trkpt lat="37.8581313" lon="15.1348196"><ele>605.0</ele><time>2026-04-26T10:12:57.062Z</time></trkpt><trkpt lat="37.8582428" lon="15.1348458"><ele>605.0</ele><time>2026-04-26T10:12:58.084Z</time></trkpt><trkpt lat="37.8583487" lon="15.1348697"><ele>605.0</ele><time>2026-04-26T10:12:59.101Z</time></trkpt><trkpt lat="37.8584527" lon="15.1348872"><ele>605.0</ele><time>2026-04-26T10:13:00.083Z</time></trkpt><trkpt lat="37.8585539" lon="15.134895"><ele>605.0</ele><time>2026-04-26T10:13:01.062Z</time></trkpt><trkpt lat="37.8586567" lon="15.1348921"><ele>606.6</ele><time>2026-04-26T10:13:02.091Z</time></trkpt><trkpt lat="37.8587579" lon="15.1348815"><ele>608.2</ele><time>2026-04-26T10:13:03.087Z</time></trkpt><trkpt lat="37.8588579" lon="15.1348634"><ele>609.8</ele><time>2026-04-26T10:13:04.094Z</time></trkpt><trkpt lat="37.8589615" lon="15.1348404"><ele>611.4</ele><time>2026-04-26T10:13:05.062Z</time></trkpt><trkpt lat="37.8590764" lon="15.1348149"><ele>613.0</ele><time>2026-04-26T10:13:06.097Z</time></trkpt><trkpt lat="37.8591944" lon="15.1347874"><ele>612.25</ele><time>2026-04-26T10:13:07.062Z</time></trkpt><trkpt lat="37.8593192" lon="15.1347523"><ele>611.5</ele><time>2026-04-26T10:13:08.065Z</time></trkpt><trkpt lat="37.8594341" lon="15.1347146"><ele>610.75</ele><time>2026-04-26T10:13:09.085Z</time></trkpt><trkpt lat="37.8595397" lon="15.134674"><ele>610.0</ele><time>2026-04-26T10:13:10.095Z</time></trkpt><trkpt lat="37.8596402" lon="15.1346329"><ele>610.0</ele><time>2026-04-26T10:13:11.064Z</time></trkpt><trkpt lat="37.8597443" lon="15.1345952"><ele>610.0</ele><time>2026-04-26T10:13:12.062Z</time></trkpt><trkpt lat="37.8598497" lon="15.1345643"><ele>610.0</ele><time>2026-04-26T10:13:13.069Z</time></trkpt><trkpt lat="37.8599572" lon="15.1345411"><ele>610.0</ele><time>2026-04-26T10:13:14.105Z</time></trkpt><trkpt lat="37.8600574" lon="15.1345256"><ele>610.0</ele><time>2026-04-26T10:13:15.099Z</time></trkpt><trkpt lat="37.8601519" lon="15.1345164"><ele>610.6666666666667</ele><time>2026-04-26T10:13:16.116Z</time></trkpt><trkpt lat="37.8602361" lon="15.1345122"><ele>611.3333333333334</ele><time>2026-04-26T10:13:17.063Z</time></trkpt><trkpt lat="37.8603176" lon="15.1345166"><ele>612.0</ele><time>2026-04-26T10:13:18.102Z</time></trkpt><trkpt lat="37.8603942" lon="15.134535"><ele>612.6666666666666</ele><time>2026-04-26T10:13:19.062Z</time></trkpt><trkpt lat="37.8604706" lon="15.134562"><ele>613.3333333333333</ele><time>2026-04-26T10:13:20.096Z</time></trkpt><trkpt lat="37.8605448" lon="15.1346006"><ele>614.0</ele><time>2026-04-26T10:13:21.094Z</time></trkpt><trkpt lat="37.8606182" lon="15.1346469"><ele>614.0</ele><time>2026-04-26T10:13:22.098Z</time></trkpt><trkpt lat="37.860687" lon="15.1346966"><ele>614.0</ele><time>2026-04-26T10:13:23.099Z</time></trkpt><trkpt lat="37.8607523" lon="15.1347558"><ele>614.0</ele><time>2026-04-26T10:13:24.099Z</time></trkpt><trkpt lat="37.8608138" lon="15.1348267"><ele>614.0</ele><time>2026-04-26T10:13:25.097Z</time></trkpt><trkpt lat="37.8608671" lon="15.134904"><ele>614.0</ele><time>2026-04-26T10:13:26.08Z</time></trkpt><trkpt lat="37.8609163" lon="15.1349894"><ele>614.0</ele><time>2026-04-26T10:13:27.096Z</time></trkpt><trkpt lat="37.8609577" lon="15.1350751"><ele>614.1666666666666</ele><time>2026-04-26T10:13:28.085Z</time></trkpt><trkpt lat="37.8609909" lon="15.1351677"><ele>614.3333333333333</ele><time>2026-04-26T10:13:29.108Z</time></trkpt><trkpt lat="37.8610143" lon="15.1352552"><ele>614.5</ele><time>2026-04-26T10:13:30.078Z</time></trkpt><trkpt lat="37.8610302" lon="15.1353481"><ele>614.6666666666666</ele><time>2026-04-26T10:13:31.096Z</time></trkpt><trkpt lat="37.8610411" lon="15.1354496"><ele>614.8333333333334</ele><time>2026-04-26T10:13:32.108Z</time></trkpt><trkpt lat="37.8610499" lon="15.1355568"><ele>615.0</ele><time>2026-04-26T10:13:33.091Z</time></trkpt><trkpt lat="37.8610556" lon="15.1356635"><ele>614.3333333333334</ele><time>2026-04-26T10:13:34.102Z</time></trkpt><trkpt lat="37.8610584" lon="15.1357642"><ele>613.6666666666666</ele><time>2026-04-26T10:13:35.091Z</time></trkpt><trkpt lat="37.8610591" lon="15.1358616"><ele>613.0</ele><time>2026-04-26T10:13:36.099Z</time></trkpt><trkpt lat="37.8610541" lon="15.1359449"><ele>612.3333333333333</ele><time>2026-04-26T10:13:37.106Z</time></trkpt><trkpt lat="37.8610173" lon="15.1360842"><ele>611.6666666666666</ele><time>2026-04-26T10:13:39.104Z</time></trkpt><trkpt lat="37.8609856" lon="15.1361574"><ele>611.0</ele><time>2026-04-26T10:13:40.098Z</time></trkpt><trkpt lat="37.8609415" lon="15.1362416"><ele>611.3333333333333</ele><time>2026-04-26T10:13:41.092Z</time></trkpt><trkpt lat="37.8608941" lon="15.1363364"><ele>611.6666666666666</ele><time>2026-04-26T10:13:42.098Z</time></trkpt><trkpt lat="37.8608452" lon="15.1364206"><ele>612.0</ele><time>2026-04-26T10:13:43.098Z</time></trkpt><trkpt lat="37.8607934" lon="15.1364909"><ele>612.3333333333334</ele><time>2026-04-26T10:13:44.101Z</time></trkpt><trkpt lat="37.8607355" lon="15.1365528"><ele>612.6666666666667</ele><time>2026-04-26T10:13:45.099Z</time></trkpt><trkpt lat="37.8606696" lon="15.1366041"><ele>613.0</ele><time>2026-04-26T10:13:46.104Z</time></trkpt><trkpt lat="37.8606035" lon="15.1366406"><ele>613.0</ele><time>2026-04-26T10:13:47.101Z</time></trkpt><trkpt lat="37.8605363" lon="15.1366732"><ele>613.0</ele><time>2026-04-26T10:13:48.087Z</time></trkpt><trkpt lat="37.860465" lon="15.1367058"><ele>613.0</ele><time>2026-04-26T10:13:49.102Z</time></trkpt><trkpt lat="37.8603924" lon="15.1367326"><ele>613.0</ele><time>2026-04-26T10:13:50.099Z</time></trkpt><trkpt lat="37.8603156" lon="15.1367584"><ele>613.0</ele><time>2026-04-26T10:13:51.099Z</time></trkpt><trkpt lat="37.8602351" lon="15.1367795"><ele>613.0</ele><time>2026-04-26T10:13:52.098Z</time></trkpt><trkpt lat="37.8601546" lon="15.136797"><ele>611.6666666666667</ele><time>2026-04-26T10:13:53.109Z</time></trkpt><trkpt lat="37.8600736" lon="15.1368138"><ele>610.3333333333334</ele><time>2026-04-26T10:13:54.098Z</time></trkpt><trkpt lat="37.8599895" lon="15.1368257"><ele>609.0</ele><time>2026-04-26T10:13:55.081Z</time></trkpt><trkpt lat="37.8599001" lon="15.1368319"><ele>607.6666666666666</ele><time>2026-04-26T10:13:56.112Z</time></trkpt><trkpt lat="37.8598081" lon="15.1368351"><ele>606.3333333333333</ele><time>2026-04-26T10:13:57.099Z</time></trkpt><trkpt lat="37.8597199" lon="15.1368426"><ele>605.0</ele><time>2026-04-26T10:13:58.087Z</time></trkpt><trkpt lat="37.8596386" lon="15.136857"><ele>605.0</ele><time>2026-04-26T10:13:59.098Z</time></trkpt><trkpt lat="37.859569" lon="15.1368798"><ele>605.0</ele><time>2026-04-26T10:14:00.082Z</time></trkpt><trkpt lat="37.8594991" lon="15.1369144"><ele>605.0</ele><time>2026-04-26T10:14:01.083Z</time></trkpt><trkpt lat="37.8594225" lon="15.1369532"><ele>605.0</ele><time>2026-04-26T10:14:02.096Z</time></trkpt><trkpt lat="37.8593457" lon="15.1369935"><ele>605.0</ele><time>2026-04-26T10:14:03.098Z</time></trkpt><trkpt lat="37.8592779" lon="15.1370393"><ele>605.0</ele><time>2026-04-26T10:14:04.097Z</time></trkpt><trkpt lat="37.8592216" lon="15.1370834"><ele>604.2</ele><time>2026-04-26T10:14:05.1Z</time></trkpt><trkpt lat="37.8591238" lon="15.1371985"><ele>603.4</ele><time>2026-04-26T10:14:07.095Z</time></trkpt><trkpt lat="37.8590758" lon="15.1372768"><ele>602.6</ele><time>2026-04-26T10:14:08.092Z</time></trkpt><trkpt lat="37.8590286" lon="15.1373551"><ele>601.8</ele><time>2026-04-26T10:14:09.065Z</time></trkpt><trkpt lat="37.858979" lon="15.1374436"><ele>601.0</ele><time>2026-04-26T10:14:10.113Z</time></trkpt><trkpt lat="37.8589309" lon="15.1375479"><ele>603.8333333333334</ele><time>2026-04-26T10:14:11.085Z</time></trkpt><trkpt lat="37.8588837" lon="15.1376475"><ele>606.6666666666667</ele><time>2026-04-26T10:14:12.101Z</time></trkpt><trkpt lat="37.8588403" lon="15.1377379"><ele>609.5</ele><time>2026-04-26T10:14:13.099Z</time></trkpt><trkpt lat="37.8587994" lon="15.1378173"><ele>612.3333333333334</ele><time>2026-04-26T10:14:14.098Z</time></trkpt><trkpt lat="37.8587589" lon="15.1378946"><ele>615.1666666666666</ele><time>2026-04-26T10:14:15.07Z</time></trkpt><trkpt lat="37.8587192" lon="15.1379742"><ele>618.0</ele><time>2026-04-26T10:14:16.099Z</time></trkpt><trkpt lat="37.8586777" lon="15.1380573"><ele>618.0</ele><time>2026-04-26T10:14:17.068Z</time></trkpt><trkpt lat="37.8586362" lon="15.1381475"><ele>618.0</ele><time>2026-04-26T10:14:18.1Z</time></trkpt><trkpt lat="37.8585916" lon="15.1382355"><ele>618.0</ele><time>2026-04-26T10:14:19.103Z</time></trkpt><trkpt lat="37.8585447" lon="15.1383148"><ele>618.0</ele><time>2026-04-26T10:14:20.102Z</time></trkpt><trkpt lat="37.8584991" lon="15.1383843"><ele>618.0</ele><time>2026-04-26T10:14:21.116Z</time></trkpt><trkpt lat="37.8584576" lon="15.1384464"><ele>618.0</ele><time>2026-04-26T10:14:22.1Z</time></trkpt><trkpt lat="37.8583918" lon="15.1385519"><ele>617.6</ele><time>2026-04-26T10:14:24.101Z</time></trkpt><trkpt lat="37.8583483" lon="15.1386737"><ele>617.1999999999999</ele><time>2026-04-26T10:14:26.063Z</time></trkpt><trkpt lat="37.8582951" lon="15.1388182"><ele>616.8</ele><time>2026-04-26T10:14:28.062Z</time></trkpt><trkpt lat="37.8582343" lon="15.138935"><ele>616.4</ele><time>2026-04-26T10:14:30.09Z</time></trkpt><trkpt lat="37.8581812" lon="15.1390517"><ele>616.0</ele><time>2026-04-26T10:14:33.061Z</time></trkpt><trkpt lat="37.858132" lon="15.139191"><ele>619.0</ele><time>2026-04-26T10:14:35.086Z</time></trkpt><trkpt lat="37.8581066" lon="15.1392875"><ele>622.0</ele><time>2026-04-26T10:14:36.094Z</time></trkpt><trkpt lat="37.8580852" lon="15.1393891"><ele>625.0</ele><time>2026-04-26T10:14:37.063Z</time></trkpt><trkpt lat="37.8580539" lon="15.1395316"><ele>628.0</ele><time>2026-04-26T10:14:38.066Z</time></trkpt><trkpt lat="37.8580405" lon="15.139645"><ele>631.0</ele><time>2026-04-26T10:14:39.088Z</time></trkpt><trkpt lat="37.8580344" lon="15.1397475"><ele>631.0</ele><time>2026-04-26T10:14:40.088Z</time></trkpt><trkpt lat="37.8580399" lon="15.1398412"><ele>631.0</ele><time>2026-04-26T10:14:41.1Z</time></trkpt><trkpt lat="37.8580508" lon="15.1399313"><ele>631.0</ele><time>2026-04-26T10:14:42.062Z</time></trkpt><trkpt lat="37.8580693" lon="15.1400217"><ele>631.0</ele><time>2026-04-26T10:14:43.087Z</time></trkpt><trkpt lat="37.8580868" lon="15.1401044"><ele>631.0</ele><time>2026-04-26T10:14:44.066Z</time></trkpt><trkpt lat="37.8581167" lon="15.1402316"><ele>631.0</ele><time>2026-04-26T10:14:46.096Z</time></trkpt><trkpt lat="37.858172" lon="15.1403312"><ele>630.0</ele><time>2026-04-26T10:14:48.102Z</time></trkpt><trkpt lat="37.8582489" lon="15.1404432"><ele>629.0</ele><time>2026-04-26T10:14:50.076Z</time></trkpt><trkpt lat="37.8582961" lon="15.1404974"><ele>628.0</ele><time>2026-04-26T10:14:51.084Z</time></trkpt><trkpt lat="37.8583912" lon="15.1405649"><ele>627.0</ele><time>2026-04-26T10:14:53.108Z</time></trkpt><trkpt lat="37.8585074" lon="15.1406134"><ele>626.0</ele><time>2026-04-26T10:14:55.064Z</time></trkpt><trkpt lat="37.8585776" lon="15.1406395"><ele>627.0</ele><time>2026-04-26T10:14:56.117Z</time></trkpt><trkpt lat="37.8586432" lon="15.1406689"><ele>628.0</ele><time>2026-04-26T10:14:57.074Z</time></trkpt><trkpt lat="37.8587123" lon="15.1406929"><ele>629.0</ele><time>2026-04-26T10:14:58.1Z</time></trkpt><trkpt lat="37.8587797" lon="15.1407177"><ele>630.0</ele><time>2026-04-26T10:14:59.064Z</time></trkpt><trkpt lat="37.8588425" lon="15.1407495"><ele>631.0</ele><time>2026-04-26T10:15:00.064Z</time></trkpt><trkpt lat="37.8589025" lon="15.1407942"><ele>632.0</ele><time>2026-04-26T10:15:01.102Z</time></trkpt><trkpt lat="37.8589624" lon="15.1408537"><ele>633.0</ele><time>2026-04-26T10:15:02.084Z</time></trkpt><trkpt lat="37.8590264" lon="15.1409231"><ele>633.0</ele><time>2026-04-26T10:15:03.089Z</time></trkpt><trkpt lat="37.8590971" lon="15.1410047"><ele>633.0</ele><time>2026-04-26T10:15:04.097Z</time></trkpt><trkpt lat="37.8591685" lon="15.1410843"><ele>633.0</ele><time>2026-04-26T10:15:05.063Z</time></trkpt><trkpt lat="37.8592418" lon="15.1411635"><ele>633.0</ele><time>2026-04-26T10:15:06.064Z</time></trkpt><trkpt lat="37.8593152" lon="15.1412331"><ele>633.0</ele><time>2026-04-26T10:15:07.085Z</time></trkpt><trkpt lat="37.8593894" lon="15.1412968"><ele>636.8333333333334</ele><time>2026-04-26T10:15:08.097Z</time></trkpt><trkpt lat="37.8594624" lon="15.1413576"><ele>640.6666666666666</ele><time>2026-04-26T10:15:09.096Z</time></trkpt><trkpt lat="37.8595334" lon="15.1414101"><ele>644.5</ele><time>2026-04-26T10:15:10.064Z</time></trkpt><trkpt lat="37.8596031" lon="15.1414544"><ele>648.3333333333333</ele><time>2026-04-26T10:15:11.062Z</time></trkpt><trkpt lat="37.8596788" lon="15.1414901"><ele>652.1666666666666</ele><time>2026-04-26T10:15:12.098Z</time></trkpt><trkpt lat="37.8597557" lon="15.1415211"><ele>656.0</ele><time>2026-04-26T10:15:13.063Z</time></trkpt><trkpt lat="37.8598387" lon="15.1415485"><ele>652.4</ele><time>2026-04-26T10:15:14.079Z</time></trkpt><trkpt lat="37.8599307" lon="15.1415772"><ele>648.8</ele><time>2026-04-26T10:15:15.098Z</time></trkpt><trkpt lat="37.8600267" lon="15.1416018"><ele>645.1999999999999</ele><time>2026-04-26T10:15:16.099Z</time></trkpt><trkpt lat="37.8601283" lon="15.1416222"><ele>641.5999999999999</ele><time>2026-04-26T10:15:17.062Z</time></trkpt><trkpt lat="37.8602359" lon="15.141646"><ele>638.0</ele><time>2026-04-26T10:15:18.111Z</time></trkpt><trkpt lat="37.8603441" lon="15.1416706"><ele>638.0</ele><time>2026-04-26T10:15:19.1Z</time></trkpt><trkpt lat="37.8604409" lon="15.1417002"><ele>638.0</ele><time>2026-04-26T10:15:20.094Z</time></trkpt><trkpt lat="37.8605229" lon="15.1417357"><ele>638.0</ele><time>2026-04-26T10:15:21.096Z</time></trkpt><trkpt lat="37.8606" lon="15.1417822"><ele>638.0</ele><time>2026-04-26T10:15:22.095Z</time></trkpt><trkpt lat="37.8606737" lon="15.1418429"><ele>638.0</ele><time>2026-04-26T10:15:23.089Z</time></trkpt><trkpt lat="37.8607572" lon="15.1419043"><ele>638.0</ele><time>2026-04-26T10:15:24.095Z</time></trkpt><trkpt lat="37.8608472" lon="15.1419691"><ele>638.0</ele><time>2026-04-26T10:15:25.103Z</time></trkpt><trkpt lat="37.8609316" lon="15.142028"><ele>638.0</ele><time>2026-04-26T10:15:26.095Z</time></trkpt><trkpt lat="37.8610103" lon="15.1420771"><ele>638.0</ele><time>2026-04-26T10:15:27.089Z</time></trkpt><trkpt lat="37.8610851" lon="15.142117"><ele>638.0</ele><time>2026-04-26T10:15:28.102Z</time></trkpt><trkpt lat="37.8611542" lon="15.1421515"><ele>638.0</ele><time>2026-04-26T10:15:29.11Z</time></trkpt><trkpt lat="37.8612212" lon="15.1421747"><ele>640.5999999999999</ele><time>2026-04-26T10:15:30.094Z</time></trkpt><trkpt lat="37.8613449" lon="15.1421924"><ele>643.1999999999999</ele><time>2026-04-26T10:15:32.095Z</time></trkpt><trkpt lat="37.8614086" lon="15.1422009"><ele>645.8</ele><time>2026-04-26T10:15:33.105Z</time></trkpt><trkpt lat="37.861526" lon="15.1422076"><ele>648.4</ele><time>2026-04-26T10:15:35.081Z</time></trkpt><trkpt lat="37.8616288" lon="15.142209"><ele>651.0</ele><time>2026-04-26T10:15:37.086Z</time></trkpt><trkpt lat="37.8617292" lon="15.1422139"><ele>568.0</ele><time>2026-04-26T10:15:39.097Z</time></trkpt><trkpt lat="37.8464564" lon="15.132355"><ele>724.0</ele><time>2026-04-26T10:17:18.089Z</time></trkpt><trkpt lat="37.8633995" lon="15.1408452"><ele>724.0</ele><time>2026-04-26T10:18:55.047Z</time></trkpt><trkpt lat="37.8636077" lon="15.1415399"><ele>723.0</ele><time>2026-04-26T10:19:05.067Z</time></trkpt><trkpt lat="37.8640307" lon="15.1417156"><ele>722.0</ele><time>2026-04-26T10:19:12.053Z</time></trkpt><trkpt lat="37.8640843" lon="15.1417834"><ele>722.0</ele><time>2026-04-26T10:19:13.075Z</time></trkpt><trkpt lat="37.8641598" lon="15.1418413"><ele>722.0</ele><time>2026-04-26T10:19:14.056Z</time></trkpt><trkpt lat="37.8642109" lon="15.1419214"><ele>722.0</ele><time>2026-04-26T10:19:15.074Z</time></trkpt><trkpt lat="37.8642653" lon="15.1420557"><ele>722.0</ele><time>2026-04-26T10:19:16.055Z</time></trkpt><trkpt lat="37.8644316" lon="15.1421225"><ele>721.7142857142858</ele><time>2026-04-26T10:19:19.062Z</time></trkpt><trkpt lat="37.8644319" lon="15.1420185"><ele>721.4285714285713</ele><time>2026-04-26T10:19:23.072Z</time></trkpt><trkpt lat="37.8644726" lon="15.142081"><ele>721.1428571428571</ele><time>2026-04-26T10:19:24.061Z</time></trkpt><trkpt lat="37.8645137" lon="15.1421528"><ele>720.8571428571429</ele><time>2026-04-26T10:19:34.079Z</time></trkpt><trkpt lat="37.8645528" lon="15.1422351"><ele>720.5714285714287</ele><time>2026-04-26T10:19:37.062Z</time></trkpt><trkpt lat="37.8645522" lon="15.142326"><ele>720.2857142857142</ele><time>2026-04-26T10:19:40.062Z</time></trkpt><trkpt lat="37.8645667" lon="15.1424112"><ele>720.0</ele><time>2026-04-26T10:19:41.074Z</time></trkpt><trkpt lat="37.864598" lon="15.142541"><ele>713.4285714285714</ele><time>2026-04-26T10:19:43.079Z</time></trkpt><trkpt lat="37.8646073" lon="15.142634"><ele>706.8571428571429</ele><time>2026-04-26T10:19:45.081Z</time></trkpt><trkpt lat="37.8645654" lon="15.1425607"><ele>700.2857142857143</ele><time>2026-04-26T10:19:52.078Z</time></trkpt><trkpt lat="37.8646137" lon="15.1426183"><ele>693.7142857142858</ele><time>2026-04-26T10:20:07.077Z</time></trkpt><trkpt lat="37.8646741" lon="15.1426614"><ele>687.1428571428571</ele><time>2026-04-26T10:20:13.068Z</time></trkpt><trkpt lat="37.8647401" lon="15.1426962"><ele>680.5714285714287</ele><time>2026-04-26T10:20:32.08Z</time></trkpt><trkpt lat="37.864758" lon="15.1427811"><ele>674.0</ele><time>2026-04-26T10:20:38.076Z</time></trkpt><trkpt lat="37.8648291" lon="15.1428207"><ele>674.0</ele><time>2026-04-26T10:24:31.084Z</time></trkpt><trkpt lat="37.8648874" lon="15.1428666"><ele>674.0</ele><time>2026-04-26T10:24:33.1Z</time></trkpt><trkpt lat="37.8649634" lon="15.1429143"><ele>674.0</ele><time>2026-04-26T10:24:35.082Z</time></trkpt><trkpt lat="37.8650381" lon="15.1429549"><ele>674.0</ele><time>2026-04-26T10:24:37.094Z</time></trkpt><trkpt lat="37.8651157" lon="15.1429847"><ele>674.0</ele><time>2026-04-26T10:24:39.096Z</time></trkpt><trkpt lat="37.8651944" lon="15.1429884"><ele>674.0</ele><time>2026-04-26T10:24:41.098Z</time></trkpt><trkpt lat="37.8652764" lon="15.1429894"><ele>673.3333333333333</ele><time>2026-04-26T10:24:43.079Z</time></trkpt><trkpt lat="37.8653479" lon="15.1429893"><ele>672.6666666666666</ele><time>2026-04-26T10:24:45.103Z</time></trkpt><trkpt lat="37.8654116" lon="15.1429961"><ele>672.0</ele><time>2026-04-26T10:24:47.097Z</time></trkpt><trkpt lat="37.8654801" lon="15.143003"><ele>671.3333333333334</ele><time>2026-04-26T10:24:49.098Z</time></trkpt><trkpt lat="37.8655511" lon="15.1429881"><ele>670.6666666666667</ele><time>2026-04-26T10:24:51.092Z</time></trkpt><trkpt lat="37.8656354" lon="15.1429794"><ele>670.0</ele><time>2026-04-26T10:24:53.104Z</time></trkpt><trkpt lat="37.8657254" lon="15.1429616"><ele>670.0</ele><time>2026-04-26T10:24:55.101Z</time></trkpt><trkpt lat="37.8658079" lon="15.1429366"><ele>670.0</ele><time>2026-04-26T10:24:57.101Z</time></trkpt><trkpt lat="37.8658906" lon="15.1429192"><ele>670.0</ele><time>2026-04-26T10:24:59.017Z</time></trkpt><trkpt lat="37.8659752" lon="15.142914"><ele>670.0</ele><time>2026-04-26T10:25:02.098Z</time></trkpt><trkpt lat="37.8660458" lon="15.1429131"><ele>670.0</ele><time>2026-04-26T10:25:07.077Z</time></trkpt><trkpt lat="37.8661199" lon="15.1428926"><ele>670.0</ele><time>2026-04-26T10:25:13.077Z</time></trkpt><trkpt lat="37.8661894" lon="15.1428709"><ele>672.5</ele><time>2026-04-26T10:25:17.997Z</time></trkpt><trkpt lat="37.8662561" lon="15.1428465"><ele>675.0</ele><time>2026-04-26T10:25:23.038Z</time></trkpt><trkpt lat="37.866689" lon="15.1426635"><ele>657.5</ele><time>2026-04-26T10:25:39.079Z</time></trkpt><trkpt lat="37.8669123" lon="15.1425553"><ele>640.0</ele><time>2026-04-26T10:25:40.097Z</time></trkpt><trkpt lat="37.8671215" lon="15.1424631"><ele>640.0</ele><time>2026-04-26T10:25:41.064Z</time></trkpt><trkpt lat="37.8672394" lon="15.1424317"><ele>640.0</ele><time>2026-04-26T10:25:42.091Z</time></trkpt><trkpt lat="37.8673367" lon="15.1423725"><ele>640.0</ele><time>2026-04-26T10:25:44.097Z</time></trkpt><trkpt lat="37.8674268" lon="15.1423168"><ele>640.0</ele><time>2026-04-26T10:25:46.047Z</time></trkpt><trkpt lat="37.867511" lon="15.1423548"><ele>640.0</ele><time>2026-04-26T10:25:48.098Z</time></trkpt><trkpt lat="37.8676041" lon="15.1422928"><ele>643.8333333333334</ele><time>2026-04-26T10:25:51.07Z</time></trkpt><trkpt lat="37.8676823" lon="15.1422051"><ele>647.6666666666667</ele><time>2026-04-26T10:25:53.093Z</time></trkpt><trkpt lat="37.8677669" lon="15.142156"><ele>651.5</ele><time>2026-04-26T10:25:55.098Z</time></trkpt><trkpt lat="37.8678466" lon="15.1420938"><ele>655.3333333333334</ele><time>2026-04-26T10:26:34.105Z</time></trkpt><trkpt lat="37.8679041" lon="15.1420463"><ele>659.1666666666666</ele><time>2026-04-26T10:26:47.096Z</time></trkpt><trkpt lat="37.8679777" lon="15.1420201"><ele>663.0</ele><time>2026-04-26T10:26:53.068Z</time></trkpt><trkpt lat="37.868053" lon="15.141979"><ele>663.0</ele><time>2026-04-26T10:26:56.097Z</time></trkpt><trkpt lat="37.868135" lon="15.1419368"><ele>663.0</ele><time>2026-04-26T10:26:59.107Z</time></trkpt><trkpt lat="37.8682122" lon="15.1418969"><ele>663.0</ele><time>2026-04-26T10:27:02.093Z</time></trkpt><trkpt lat="37.8682715" lon="15.1418569"><ele>663.0</ele><time>2026-04-26T10:27:06.094Z</time></trkpt><trkpt lat="37.8683554" lon="15.141812"><ele>663.0</ele><time>2026-04-26T10:27:13.226Z</time></trkpt><trkpt lat="37.8684253" lon="15.1417678"><ele>663.0</ele><time>2026-04-26T10:27:18.126Z</time></trkpt><trkpt lat="37.8701815" lon="15.1407417"><ele>661.5</ele><time>2026-04-26T10:27:52.104Z</time></trkpt><trkpt lat="37.8701923" lon="15.1406372"><ele>660.0</ele><time>2026-04-26T10:27:56.096Z</time></trkpt><trkpt lat="37.8702003" lon="15.1405463"><ele>658.5</ele><time>2026-04-26T10:27:58.107Z</time></trkpt><trkpt lat="37.8702809" lon="15.1404344"><ele>657.0</ele><time>2026-04-26T10:28:11.065Z</time></trkpt><trkpt lat="37.8703422" lon="15.1404122"><ele>655.5</ele><time>2026-04-26T10:28:24.097Z</time></trkpt><trkpt lat="37.8704112" lon="15.1404246"><ele>654.0</ele><time>2026-04-26T10:28:37.102Z</time></trkpt><trkpt lat="37.8704916" lon="15.140435"><ele>654.0</ele><time>2026-04-26T10:28:42.096Z</time></trkpt><trkpt lat="37.8705616" lon="15.1404058"><ele>654.0</ele><time>2026-04-26T10:28:45.098Z</time></trkpt><trkpt lat="37.8706265" lon="15.1403743"><ele>654.0</ele><time>2026-04-26T10:28:55.095Z</time></trkpt><trkpt lat="37.8706964" lon="15.1404184"><ele>654.0</ele><time>2026-04-26T10:28:59.069Z</time></trkpt><trkpt lat="37.8707739" lon="15.1403997"><ele>654.0</ele><time>2026-04-26T10:29:18.099Z</time></trkpt><trkpt lat="37.870878" lon="15.1403434"><ele>654.0</ele><time>2026-04-26T10:29:20.099Z</time></trkpt><trkpt lat="37.8709449" lon="15.1403088"><ele>648.3333333333334</ele><time>2026-04-26T10:29:21.095Z</time></trkpt><trkpt lat="37.8710176" lon="15.1402761"><ele>642.6666666666666</ele><time>2026-04-26T10:29:22.068Z</time></trkpt><trkpt lat="37.8710848" lon="15.1402398"><ele>637.0</ele><time>2026-04-26T10:29:23.098Z</time></trkpt><trkpt lat="37.8711422" lon="15.1402024"><ele>631.3333333333333</ele><time>2026-04-26T10:29:24.096Z</time></trkpt><trkpt lat="37.8711992" lon="15.1401625"><ele>625.6666666666666</ele><time>2026-04-26T10:29:25.098Z</time></trkpt><trkpt lat="37.8713038" lon="15.1400811"><ele>620.0</ele><time>2026-04-26T10:29:27.089Z</time></trkpt><trkpt lat="37.8714065" lon="15.1399925"><ele>620.0</ele><time>2026-04-26T10:29:29.099Z</time></trkpt><trkpt lat="37.8715009" lon="15.1398975"><ele>620.0</ele><time>2026-04-26T10:29:31.104Z</time></trkpt><trkpt lat="37.8715825" lon="15.1397951"><ele>620.0</ele><time>2026-04-26T10:29:33.089Z</time></trkpt><trkpt lat="37.8716283" lon="15.1396729"><ele>620.0</ele><time>2026-04-26T10:29:35.098Z</time></trkpt><trkpt lat="37.8716792" lon="15.1395281"><ele>619.1666666666666</ele><time>2026-04-26T10:29:37.102Z</time></trkpt><trkpt lat="37.8717134" lon="15.1394483"><ele>618.3333333333333</ele><time>2026-04-26T10:29:38.102Z</time></trkpt><trkpt lat="37.8717509" lon="15.1393545"><ele>617.5</ele><time>2026-04-26T10:29:39.085Z</time></trkpt><trkpt lat="37.8717924" lon="15.1392487"><ele>616.6666666666666</ele><time>2026-04-26T10:29:40.064Z</time></trkpt><trkpt lat="37.8718322" lon="15.1391396"><ele>615.8333333333334</ele><time>2026-04-26T10:29:41.063Z</time></trkpt><trkpt lat="37.8718677" lon="15.139033"><ele>615.0</ele><time>2026-04-26T10:29:42.1Z</time></trkpt><trkpt lat="37.8718996" lon="15.1389403"><ele>617.5</ele><time>2026-04-26T10:29:43.102Z</time></trkpt><trkpt lat="37.871929" lon="15.1388549"><ele>620.0</ele><time>2026-04-26T10:29:44.098Z</time></trkpt><trkpt lat="37.8719558" lon="15.1387723"><ele>622.5</ele><time>2026-04-26T10:29:45.108Z</time></trkpt><trkpt lat="37.8719805" lon="15.1386979"><ele>625.0</ele><time>2026-04-26T10:29:46.063Z</time></trkpt><trkpt lat="37.8720316" lon="15.1385737"><ele>627.5</ele><time>2026-04-26T10:29:48.073Z</time></trkpt><trkpt lat="37.8720804" lon="15.1384587"><ele>630.0</ele><time>2026-04-26T10:29:50.064Z</time></trkpt><trkpt lat="37.8721304" lon="15.1383558"><ele>630.0</ele><time>2026-04-26T10:29:52.1Z</time></trkpt><trkpt lat="37.8721694" lon="15.1382777"><ele>630.0</ele><time>2026-04-26T10:29:54.055Z</time></trkpt><trkpt lat="37.8722105" lon="15.1382043"><ele>630.0</ele><time>2026-04-26T10:29:56.099Z</time></trkpt><trkpt lat="37.872257" lon="15.1381404"><ele>630.0</ele><time>2026-04-26T10:29:58.068Z</time></trkpt><trkpt lat="37.8723105" lon="15.1380801"><ele>630.0</ele><time>2026-04-26T10:30:00.103Z</time></trkpt><trkpt lat="37.8723688" lon="15.1380208"><ele>630.0</ele><time>2026-04-26T10:30:02.094Z</time></trkpt><trkpt lat="37.8724259" lon="15.1379708"><ele>630.0</ele><time>2026-04-26T10:30:04.096Z</time></trkpt><trkpt lat="37.872488" lon="15.1379437"><ele>633.8571428571429</ele><time>2026-04-26T10:30:06.093Z</time></trkpt><trkpt lat="37.8725557" lon="15.137918"><ele>637.7142857142858</ele><time>2026-04-26T10:30:08.091Z</time></trkpt><trkpt lat="37.8726185" lon="15.137895"><ele>641.5714285714286</ele><time>2026-04-26T10:30:10.079Z</time></trkpt><trkpt lat="37.8726773" lon="15.1378636"><ele>645.4285714285714</ele><time>2026-04-26T10:30:12.091Z</time></trkpt><trkpt lat="37.8727428" lon="15.1378281"><ele>649.2857142857143</ele><time>2026-04-26T10:30:14.117Z</time></trkpt><trkpt lat="37.8728212" lon="15.1377989"><ele>653.1428571428571</ele><time>2026-04-26T10:30:16.557Z</time></trkpt><trkpt lat="37.872759" lon="15.1378222"><ele>657.0</ele><time>2026-04-26T10:30:19.417Z</time></trkpt><trkpt lat="37.8726973" lon="15.137868"><ele>636.0</ele><time>2026-04-26T10:30:21.758Z</time></trkpt><trkpt lat="37.8735169" lon="15.1375836"><ele>636.0</ele><time>2026-04-26T10:30:37.058Z</time></trkpt><trkpt lat="37.8740434" lon="15.137555"><ele>636.0</ele><time>2026-04-26T10:30:38.061Z</time></trkpt><trkpt lat="37.87425" lon="15.137486"><ele>636.0</ele><time>2026-04-26T10:30:39.075Z</time></trkpt><trkpt lat="37.8743124" lon="15.1374714"><ele>636.0</ele><time>2026-04-26T10:30:40.06Z</time></trkpt><trkpt lat="37.8743749" lon="15.1374552"><ele>636.0</ele><time>2026-04-26T10:30:41.094Z</time></trkpt><trkpt lat="37.8744836" lon="15.1374327"><ele>636.8</ele><time>2026-04-26T10:30:43.065Z</time></trkpt><trkpt lat="37.8745845" lon="15.1373959"><ele>637.6</ele><time>2026-04-26T10:30:45.103Z</time></trkpt><trkpt lat="37.8746901" lon="15.1373617"><ele>638.4</ele><time>2026-04-26T10:30:47.064Z</time></trkpt><trkpt lat="37.8747965" lon="15.1373318"><ele>639.2</ele><time>2026-04-26T10:30:49.063Z</time></trkpt><trkpt lat="37.8748921" lon="15.1373133"><ele>640.0</ele><time>2026-04-26T10:30:51.061Z</time></trkpt><trkpt lat="37.8749716" lon="15.1372891"><ele>643.0</ele><time>2026-04-26T10:30:53.058Z</time></trkpt><trkpt lat="37.8750549" lon="15.1372724"><ele>646.0</ele><time>2026-04-26T10:30:55.09Z</time></trkpt><trkpt lat="37.8751403" lon="15.1372613"><ele>649.0</ele><time>2026-04-26T10:30:57.062Z</time></trkpt><trkpt lat="37.8754138" lon="15.1371979"><ele>652.0</ele><time>2026-04-26T10:31:04.206Z</time></trkpt><trkpt lat="37.8754952" lon="15.1367201"><ele>648.0</ele><time>2026-04-26T10:31:19.057Z</time></trkpt><trkpt lat="37.8757129" lon="15.1364833"><ele>644.0</ele><time>2026-04-26T10:31:20.057Z</time></trkpt><trkpt lat="37.8759074" lon="15.1361692"><ele>633.75</ele><time>2026-04-26T10:31:21.061Z</time></trkpt><trkpt lat="37.8760241" lon="15.1359788"><ele>623.5</ele><time>2026-04-26T10:31:22.06Z</time></trkpt><trkpt lat="37.8760605" lon="15.1358768"><ele>613.25</ele><time>2026-04-26T10:31:23.07Z</time></trkpt><trkpt lat="37.8761012" lon="15.1357573"><ele>603.0</ele><time>2026-04-26T10:31:24.1Z</time></trkpt><trkpt lat="37.8761355" lon="15.1356329"><ele>602.6666666666666</ele><time>2026-04-26T10:31:25.085Z</time></trkpt><trkpt lat="37.876159" lon="15.1355125"><ele>602.3333333333334</ele><time>2026-04-26T10:31:26.097Z</time></trkpt><trkpt lat="37.8761745" lon="15.135399"><ele>602.0</ele><time>2026-04-26T10:31:27.061Z</time></trkpt><trkpt lat="37.876185" lon="15.1352873"><ele>601.6666666666667</ele><time>2026-04-26T10:31:28.064Z</time></trkpt><trkpt lat="37.876192" lon="15.1351815"><ele>601.3333333333334</ele><time>2026-04-26T10:31:29.102Z</time></trkpt><trkpt lat="37.8761993" lon="15.1350775"><ele>601.0</ele><time>2026-04-26T10:31:30.11Z</time></trkpt><trkpt lat="37.8762056" lon="15.1349762"><ele>602.3333333333334</ele><time>2026-04-26T10:31:31.064Z</time></trkpt><trkpt lat="37.8762116" lon="15.1348764"><ele>603.6666666666667</ele><time>2026-04-26T10:31:32.095Z</time></trkpt><trkpt lat="37.8762215" lon="15.1347852"><ele>605.0</ele><time>2026-04-26T10:31:33.092Z</time></trkpt><trkpt lat="37.8762377" lon="15.1346394"><ele>606.3333333333334</ele><time>2026-04-26T10:31:35.068Z</time></trkpt><trkpt lat="37.8762432" lon="15.1345599"><ele>607.6666666666666</ele><time>2026-04-26T10:31:36.095Z</time></trkpt><trkpt lat="37.8762513" lon="15.1344167"><ele>609.0</ele><time>2026-04-26T10:31:38.092Z</time></trkpt><trkpt lat="37.8762504" lon="15.1342567"><ele>609.0</ele><time>2026-04-26T10:31:40.096Z</time></trkpt><trkpt lat="37.8762327" lon="15.134101"><ele>609.0</ele><time>2026-04-26T10:31:42.097Z</time></trkpt><trkpt lat="37.8762144" lon="15.1340236"><ele>609.0</ele><time>2026-04-26T10:31:43.097Z</time></trkpt><trkpt lat="37.8761871" lon="15.1339412"><ele>609.0</ele><time>2026-04-26T10:31:44.101Z</time></trkpt><trkpt lat="37.8761546" lon="15.1338614"><ele>609.0</ele><time>2026-04-26T10:31:45.068Z</time></trkpt><trkpt lat="37.8761159" lon="15.1337819"><ele>609.0</ele><time>2026-04-26T10:31:46.096Z</time></trkpt><trkpt lat="37.8760738" lon="15.1337082"><ele>610.3333333333334</ele><time>2026-04-26T10:31:47.063Z</time></trkpt><trkpt lat="37.8760269" lon="15.1336353"><ele>611.6666666666666</ele><time>2026-04-26T10:31:48.064Z</time></trkpt><trkpt lat="37.8759749" lon="15.1335647"><ele>613.0</ele><time>2026-04-26T10:31:49.098Z</time></trkpt><trkpt lat="37.875918" lon="15.1334952"><ele>614.3333333333333</ele><time>2026-04-26T10:31:50.113Z</time></trkpt><trkpt lat="37.8758539" lon="15.133416"><ele>615.6666666666666</ele><time>2026-04-26T10:31:51.103Z</time></trkpt><trkpt lat="37.8757894" lon="15.1333263"><ele>617.0</ele><time>2026-04-26T10:31:52.107Z</time></trkpt><trkpt lat="37.8757254" lon="15.1332338"><ele>612.4</ele><time>2026-04-26T10:31:53.102Z</time></trkpt><trkpt lat="37.8756585" lon="15.1331382"><ele>607.8000000000001</ele><time>2026-04-26T10:31:54.101Z</time></trkpt><trkpt lat="37.8755921" lon="15.1330484"><ele>603.2</ele><time>2026-04-26T10:31:55.106Z</time></trkpt><trkpt lat="37.875522" lon="15.1329719"><ele>598.6</ele><time>2026-04-26T10:31:56.097Z</time></trkpt><trkpt lat="37.8754636" lon="15.1328894"><ele>594.0</ele><time>2026-04-26T10:31:57.102Z</time></trkpt><trkpt lat="37.875416" lon="15.1328041"><ele>594.0</ele><time>2026-04-26T10:31:58.11Z</time></trkpt><trkpt lat="37.875375" lon="15.1327166"><ele>594.0</ele><time>2026-04-26T10:31:59.116Z</time></trkpt><trkpt lat="37.8753446" lon="15.132638"><ele>594.0</ele><time>2026-04-26T10:32:00.084Z</time></trkpt><trkpt lat="37.8753179" lon="15.132534"><ele>594.0</ele><time>2026-04-26T10:32:02.098Z</time></trkpt><trkpt lat="37.8752874" lon="15.1324265"><ele>594.0</ele><time>2026-04-26T10:32:18.095Z</time></trkpt><trkpt lat="37.8752569" lon="15.1323531"><ele>594.0</ele><time>2026-04-26T10:32:19.096Z</time></trkpt><trkpt lat="37.8752268" lon="15.1322654"><ele>593.2</ele><time>2026-04-26T10:32:20.102Z</time></trkpt><trkpt lat="37.8752052" lon="15.1321881"><ele>592.4</ele><time>2026-04-26T10:32:21.069Z</time></trkpt><trkpt lat="37.8751865" lon="15.1320386"><ele>591.6</ele><time>2026-04-26T10:32:23.102Z</time></trkpt><trkpt lat="37.875176" lon="15.1318869"><ele>590.8</ele><time>2026-04-26T10:32:25.083Z</time></trkpt><trkpt lat="37.8751774" lon="15.1317387"><ele>590.0</ele><time>2026-04-26T10:32:27.089Z</time></trkpt><trkpt lat="37.8751932" lon="15.1316061"><ele>591.4</ele><time>2026-04-26T10:32:29.083Z</time></trkpt><trkpt lat="37.8752114" lon="15.1315129"><ele>592.8</ele><time>2026-04-26T10:32:31.101Z</time></trkpt><trkpt lat="37.8752448" lon="15.1314344"><ele>594.2</ele><time>2026-04-26T10:32:33.097Z</time></trkpt><trkpt lat="37.8753016" lon="15.1313119"><ele>595.6</ele><time>2026-04-26T10:32:35.097Z</time></trkpt><trkpt lat="37.8753563" lon="15.1311968"><ele>597.0</ele><time>2026-04-26T10:32:37.096Z</time></trkpt><trkpt lat="37.8753847" lon="15.1310755"><ele>597.0</ele><time>2026-04-26T10:32:39.084Z</time></trkpt><trkpt lat="37.8753908" lon="15.1309952"><ele>597.0</ele><time>2026-04-26T10:32:40.098Z</time></trkpt><trkpt lat="37.8753934" lon="15.1309052"><ele>597.0</ele><time>2026-04-26T10:32:41.098Z</time></trkpt><trkpt lat="37.8753938" lon="15.1308252"><ele>597.0</ele><time>2026-04-26T10:32:42.103Z</time></trkpt><trkpt lat="37.8753838" lon="15.1306974"><ele>597.0</ele><time>2026-04-26T10:32:44.099Z</time></trkpt><trkpt lat="37.8753499" lon="15.1305783"><ele>597.0</ele><time>2026-04-26T10:32:46.099Z</time></trkpt><trkpt lat="37.8753297" lon="15.1304703"><ele>600.5</ele><time>2026-04-26T10:32:48.068Z</time></trkpt><trkpt lat="37.8753479" lon="15.1303814"><ele>604.0</ele><time>2026-04-26T10:32:50.096Z</time></trkpt><trkpt lat="37.8753863" lon="15.1302972"><ele>607.5</ele><time>2026-04-26T10:32:52.071Z</time></trkpt><trkpt lat="37.8754437" lon="15.1301827"><ele>611.0</ele><time>2026-04-26T10:32:54.097Z</time></trkpt><trkpt lat="37.8755344" lon="15.1300754"><ele>614.5</ele><time>2026-04-26T10:32:56.1Z</time></trkpt><trkpt lat="37.8755861" lon="15.1300291"><ele>618.0</ele><time>2026-04-26T10:32:57.061Z</time></trkpt><trkpt lat="37.8756407" lon="15.1299826"><ele>618.0</ele><time>2026-04-26T10:32:58.061Z</time></trkpt><trkpt lat="37.8757466" lon="15.1299138"><ele>618.0</ele><time>2026-04-26T10:33:00.083Z</time></trkpt><trkpt lat="37.8758447" lon="15.1298526"><ele>618.0</ele><time>2026-04-26T10:33:02.067Z</time></trkpt><trkpt lat="37.8759623" lon="15.1298016"><ele>618.0</ele><time>2026-04-26T10:33:04.098Z</time></trkpt><trkpt lat="37.8760313" lon="15.1297931"><ele>618.0</ele><time>2026-04-26T10:33:05.096Z</time></trkpt><trkpt lat="37.8761067" lon="15.1297878"><ele>621.6666666666666</ele><time>2026-04-26T10:33:06.094Z</time></trkpt><trkpt lat="37.876184" lon="15.1297705"><ele>625.3333333333334</ele><time>2026-04-26T10:33:07.06Z</time></trkpt><trkpt lat="37.8762621" lon="15.1297411"><ele>629.0</ele><time>2026-04-26T10:33:08.097Z</time></trkpt><trkpt lat="37.8763371" lon="15.1296954"><ele>632.6666666666667</ele><time>2026-04-26T10:33:09.096Z</time></trkpt><trkpt lat="37.8764137" lon="15.1296402"><ele>636.3333333333334</ele><time>2026-04-26T10:33:10.102Z</time></trkpt><trkpt lat="37.8764924" lon="15.1295927"><ele>640.0</ele><time>2026-04-26T10:33:11.062Z</time></trkpt><trkpt lat="37.8765718" lon="15.1295555"><ele>640.0</ele><time>2026-04-26T10:33:12.098Z</time></trkpt><trkpt lat="37.8766437" lon="15.129531"><ele>640.0</ele><time>2026-04-26T10:33:13.102Z</time></trkpt><trkpt lat="37.8767131" lon="15.1295156"><ele>640.0</ele><time>2026-04-26T10:33:14.096Z</time></trkpt><trkpt lat="37.8767778" lon="15.1295102"><ele>640.0</ele><time>2026-04-26T10:33:15.099Z</time></trkpt><trkpt lat="37.876844" lon="15.1295083"><ele>640.0</ele><time>2026-04-26T10:33:16.096Z</time></trkpt><trkpt lat="37.8769178" lon="15.1295082"><ele>640.0</ele><time>2026-04-26T10:33:17.095Z</time></trkpt><trkpt lat="37.8770094" lon="15.1295095"><ele>640.0</ele><time>2026-04-26T10:33:18.095Z</time></trkpt><trkpt lat="37.8771167" lon="15.1295087"><ele>638.8</ele><time>2026-04-26T10:33:19.083Z</time></trkpt><trkpt lat="37.8772273" lon="15.1295072"><ele>637.6</ele><time>2026-04-26T10:33:20.072Z</time></trkpt><trkpt lat="37.8773345" lon="15.1295046"><ele>636.4</ele><time>2026-04-26T10:33:21.097Z</time></trkpt><trkpt lat="37.877436" lon="15.1295032"><ele>635.2</ele><time>2026-04-26T10:33:22.101Z</time></trkpt><trkpt lat="37.8775316" lon="15.1295048"><ele>634.0</ele><time>2026-04-26T10:33:23.096Z</time></trkpt><trkpt lat="37.877616" lon="15.1295108"><ele>630.0</ele><time>2026-04-26T10:33:24.069Z</time></trkpt><trkpt lat="37.8776942" lon="15.1295135"><ele>626.0</ele><time>2026-04-26T10:33:25.063Z</time></trkpt><trkpt lat="37.8777699" lon="15.1295029"><ele>622.0</ele><time>2026-04-26T10:33:26.098Z</time></trkpt><trkpt lat="37.8778398" lon="15.1294821"><ele>618.0</ele><time>2026-04-26T10:33:27.099Z</time></trkpt><trkpt lat="37.8779526" lon="15.1294398"><ele>614.0</ele><time>2026-04-26T10:33:29.058Z</time></trkpt><trkpt lat="37.8780128" lon="15.1294155"><ele>610.0</ele><time>2026-04-26T10:33:30.087Z</time></trkpt><trkpt lat="37.8780791" lon="15.1293763"><ele>610.0</ele><time>2026-04-26T10:33:31.09Z</time></trkpt><trkpt lat="37.8781463" lon="15.1293199"><ele>610.0</ele><time>2026-04-26T10:33:32.056Z</time></trkpt><trkpt lat="37.8782193" lon="15.129244"><ele>610.0</ele><time>2026-04-26T10:33:33.076Z</time></trkpt><trkpt lat="37.8782885" lon="15.1291566"><ele>610.0</ele><time>2026-04-26T10:33:34.079Z</time></trkpt><trkpt lat="37.8783484" lon="15.1290577"><ele>610.0</ele><time>2026-04-26T10:33:35.088Z</time></trkpt><trkpt lat="37.8783917" lon="15.128945"><ele>612.0</ele><time>2026-04-26T10:33:36.091Z</time></trkpt><trkpt lat="37.8784019" lon="15.128849"><ele>614.0</ele><time>2026-04-26T10:33:37.094Z</time></trkpt><trkpt lat="37.8783994" lon="15.1286847"><ele>616.0</ele><time>2026-04-26T10:33:39.097Z</time></trkpt><trkpt lat="37.8783961" lon="15.1285847"><ele>618.0</ele><time>2026-04-26T10:33:40.094Z</time></trkpt><trkpt lat="37.8784231" lon="15.128455"><ele>620.0</ele><time>2026-04-26T10:33:41.1Z</time></trkpt><trkpt lat="37.8784562" lon="15.1283253"><ele>614.0</ele><time>2026-04-26T10:33:42.096Z</time></trkpt><trkpt lat="37.8784928" lon="15.1281947"><ele>608.0</ele><time>2026-04-26T10:33:43.11Z</time></trkpt><trkpt lat="37.8785326" lon="15.1280678"><ele>602.0</ele><time>2026-04-26T10:33:44.069Z</time></trkpt><trkpt lat="37.8785757" lon="15.1279451"><ele>596.0</ele><time>2026-04-26T10:33:45.113Z</time></trkpt><trkpt lat="37.8786167" lon="15.1278332"><ele>590.0</ele><time>2026-04-26T10:33:46.106Z</time></trkpt><trkpt lat="37.878654" lon="15.1277222"><ele>590.0</ele><time>2026-04-26T10:33:47.083Z</time></trkpt><trkpt lat="37.8786852" lon="15.1276107"><ele>590.0</ele><time>2026-04-26T10:33:48.099Z</time></trkpt><trkpt lat="37.8787074" lon="15.1275072"><ele>590.0</ele><time>2026-04-26T10:33:49.1Z</time></trkpt><trkpt lat="37.8787171" lon="15.1274058"><ele>590.0</ele><time>2026-04-26T10:33:50.101Z</time></trkpt><trkpt lat="37.8787204" lon="15.1273071"><ele>590.0</ele><time>2026-04-26T10:33:51.099Z</time></trkpt><trkpt lat="37.8787166" lon="15.1272097"><ele>590.0</ele><time>2026-04-26T10:33:52.11Z</time></trkpt><trkpt lat="37.8787038" lon="15.1271114"><ele>590.1666666666666</ele><time>2026-04-26T10:33:53.063Z</time></trkpt><trkpt lat="37.8786827" lon="15.1270143"><ele>590.3333333333333</ele><time>2026-04-26T10:33:54.1Z</time></trkpt><trkpt lat="37.878653" lon="15.1269262"><ele>590.5</ele><time>2026-04-26T10:33:55.096Z</time></trkpt><trkpt lat="37.8786192" lon="15.1268437"><ele>590.6666666666666</ele><time>2026-04-26T10:33:56.105Z</time></trkpt><trkpt lat="37.8785836" lon="15.1267687"><ele>590.8333333333334</ele><time>2026-04-26T10:33:57.097Z</time></trkpt><trkpt lat="37.8785462" lon="15.1267045"><ele>591.0</ele><time>2026-04-26T10:33:58.095Z</time></trkpt><trkpt lat="37.8784732" lon="15.1266179"><ele>591.1666666666666</ele><time>2026-04-26T10:34:00.099Z</time></trkpt><trkpt lat="37.8784072" lon="15.1265627"><ele>591.3333333333334</ele><time>2026-04-26T10:34:02.083Z</time></trkpt><trkpt lat="37.8783372" lon="15.1265048"><ele>591.5</ele><time>2026-04-26T10:34:04.076Z</time></trkpt><trkpt lat="37.8782471" lon="15.1264331"><ele>591.6666666666667</ele><time>2026-04-26T10:34:06.091Z</time></trkpt><trkpt lat="37.8781935" lon="15.1263872"><ele>591.8333333333334</ele><time>2026-04-26T10:34:07.093Z</time></trkpt><trkpt lat="37.8781448" lon="15.1263315"><ele>592.0</ele><time>2026-04-26T10:34:08.095Z</time></trkpt><trkpt lat="37.8780929" lon="15.1262654"><ele>592.0</ele><time>2026-04-26T10:34:09.089Z</time></trkpt><trkpt lat="37.8780423" lon="15.1261937"><ele>592.0</ele><time>2026-04-26T10:34:10.103Z</time></trkpt><trkpt lat="37.8779959" lon="15.1261187"><ele>592.0</ele><time>2026-04-26T10:34:11.072Z</time></trkpt><trkpt lat="37.8779555" lon="15.1260403"><ele>592.0</ele><time>2026-04-26T10:34:12.095Z</time></trkpt><trkpt lat="37.8779216" lon="15.1259668"><ele>592.0</ele><time>2026-04-26T10:34:13.101Z</time></trkpt><trkpt lat="37.8778688" lon="15.1258305"><ele>592.0</ele><time>2026-04-26T10:34:15.103Z</time></trkpt><trkpt lat="37.8778308" lon="15.1256947"><ele>591.0</ele><time>2026-04-26T10:34:17.099Z</time></trkpt><trkpt lat="37.8777876" lon="15.1255423"><ele>590.0</ele><time>2026-04-26T10:34:19.068Z</time></trkpt><trkpt lat="37.8777461" lon="15.1254024"><ele>589.0</ele><time>2026-04-26T10:34:21.107Z</time></trkpt><trkpt lat="37.8777092" lon="15.1252941"><ele>588.0</ele><time>2026-04-26T10:34:23.097Z</time></trkpt><trkpt lat="37.8776752" lon="15.1251897"><ele>587.0</ele><time>2026-04-26T10:34:25.109Z</time></trkpt><trkpt lat="37.8776409" lon="15.1250702"><ele>591.4</ele><time>2026-04-26T10:34:27.105Z</time></trkpt><trkpt lat="37.8775801" lon="15.1248454"><ele>595.8000000000001</ele><time>2026-04-26T10:34:30.07Z</time></trkpt><trkpt lat="37.877557" lon="15.124768"><ele>600.2</ele><time>2026-04-26T10:34:31.069Z</time></trkpt><trkpt lat="37.8775333" lon="15.1246941"><ele>604.6</ele><time>2026-04-26T10:34:32.077Z</time></trkpt><trkpt lat="37.877488" lon="15.1245494"><ele>609.0</ele><time>2026-04-26T10:34:34.083Z</time></trkpt><trkpt lat="37.8774509" lon="15.1244179"><ele>609.0</ele><time>2026-04-26T10:34:36.093Z</time></trkpt><trkpt lat="37.8774328" lon="15.1243352"><ele>609.0</ele><time>2026-04-26T10:34:39.082Z</time></trkpt><trkpt lat="37.87744" lon="15.1242531"><ele>609.0</ele><time>2026-04-26T10:35:10.079Z</time></trkpt><trkpt lat="37.8774999" lon="15.124195"><ele>609.0</ele><time>2026-04-26T10:35:15.072Z</time></trkpt><trkpt lat="37.8775795" lon="15.1241388"><ele>609.0</ele><time>2026-04-26T10:35:18.086Z</time></trkpt><trkpt lat="37.8776371" lon="15.1240757"><ele>609.0</ele><time>2026-04-26T10:35:21.071Z</time></trkpt><trkpt lat="37.8776466" lon="15.1239594"><ele>607.6666666666666</ele><time>2026-04-26T10:35:24.084Z</time></trkpt><trkpt lat="37.8776204" lon="15.1238508"><ele>606.3333333333334</ele><time>2026-04-26T10:35:26.089Z</time></trkpt><trkpt lat="37.8775857" lon="15.1237133"><ele>605.0</ele><time>2026-04-26T10:35:28.102Z</time></trkpt><trkpt lat="37.8775697" lon="15.1236297"><ele>603.6666666666667</ele><time>2026-04-26T10:35:29.077Z</time></trkpt><trkpt lat="37.8775538" lon="15.1235383"><ele>602.3333333333334</ele><time>2026-04-26T10:35:30.101Z</time></trkpt><trkpt lat="37.8775338" lon="15.1234479"><ele>601.0</ele><time>2026-04-26T10:35:31.112Z</time></trkpt><trkpt lat="37.8775119" lon="15.123355"><ele>601.0</ele><time>2026-04-26T10:35:32.098Z</time></trkpt><trkpt lat="37.8774865" lon="15.1232625"><ele>601.0</ele><time>2026-04-26T10:35:33.097Z</time></trkpt><trkpt lat="37.8774623" lon="15.1231744"><ele>601.0</ele><time>2026-04-26T10:35:34.096Z</time></trkpt><trkpt lat="37.8774403" lon="15.1230903"><ele>601.0</ele><time>2026-04-26T10:35:35.087Z</time></trkpt><trkpt lat="37.8774134" lon="15.123005"><ele>601.0</ele><time>2026-04-26T10:35:36.097Z</time></trkpt><trkpt lat="37.8773907" lon="15.1229269"><ele>601.0</ele><time>2026-04-26T10:35:37.069Z</time></trkpt><trkpt lat="37.8773842" lon="15.1227961"><ele>599.3333333333334</ele><time>2026-04-26T10:35:39.1Z</time></trkpt><trkpt lat="37.8774386" lon="15.1227003"><ele>597.6666666666667</ele><time>2026-04-26T10:35:41.068Z</time></trkpt><trkpt lat="37.877524" lon="15.1226735"><ele>596.0</ele><time>2026-04-26T10:35:43.064Z</time></trkpt><trkpt lat="37.8776092" lon="15.1227398"><ele>594.3333333333334</ele><time>2026-04-26T10:35:45.068Z</time></trkpt><trkpt lat="37.8776475" lon="15.1228145"><ele>592.6666666666666</ele><time>2026-04-26T10:35:46.096Z</time></trkpt><trkpt lat="37.8776825" lon="15.1229103"><ele>591.0</ele><time>2026-04-26T10:35:47.101Z</time></trkpt><trkpt lat="37.8777183" lon="15.1230243"><ele>589.1666666666666</ele><time>2026-04-26T10:35:48.089Z</time></trkpt><trkpt lat="37.8777492" lon="15.1231496"><ele>587.3333333333334</ele><time>2026-04-26T10:35:49.088Z</time></trkpt><trkpt lat="37.8777764" lon="15.1232686"><ele>585.5</ele><time>2026-04-26T10:35:50.098Z</time></trkpt><trkpt lat="37.8778027" lon="15.1233724"><ele>583.6666666666667</ele><time>2026-04-26T10:35:51.085Z</time></trkpt><trkpt lat="37.8778373" lon="15.1234573"><ele>581.8333333333334</ele><time>2026-04-26T10:35:52.093Z</time></trkpt><trkpt lat="37.8778854" lon="15.1235113"><ele>580.0</ele><time>2026-04-26T10:35:53.086Z</time></trkpt><trkpt lat="37.8779448" lon="15.123564"><ele>580.0</ele><time>2026-04-26T10:35:54.085Z</time></trkpt><trkpt lat="37.8780118" lon="15.1236139"><ele>580.0</ele><time>2026-04-26T10:35:55.074Z</time></trkpt><trkpt lat="37.8780863" lon="15.1236692"><ele>580.0</ele><time>2026-04-26T10:35:56.099Z</time></trkpt><trkpt lat="37.8781682" lon="15.1237246"><ele>580.0</ele><time>2026-04-26T10:35:57.085Z</time></trkpt><trkpt lat="37.8782512" lon="15.123771"><ele>580.0</ele><time>2026-04-26T10:35:58.087Z</time></trkpt><trkpt lat="37.878328" lon="15.1238247"><ele>580.0</ele><time>2026-04-26T10:35:59.089Z</time></trkpt><trkpt lat="37.8783943" lon="15.1238837"><ele>576.6666666666667</ele><time>2026-04-26T10:36:00.066Z</time></trkpt><trkpt lat="37.8784435" lon="15.123954"><ele>573.3333333333334</ele><time>2026-04-26T10:36:01.07Z</time></trkpt><trkpt lat="37.8784775" lon="15.1240219"><ele>570.0</ele><time>2026-04-26T10:36:02.063Z</time></trkpt><trkpt lat="37.8785425" lon="15.124129"><ele>566.6666666666666</ele><time>2026-04-26T10:36:04.097Z</time></trkpt><trkpt lat="37.8786171" lon="15.1241738"><ele>563.3333333333333</ele><time>2026-04-26T10:36:06.103Z</time></trkpt><trkpt lat="37.878677" lon="15.124131"><ele>560.0</ele><time>2026-04-26T10:36:08.084Z</time></trkpt><trkpt lat="37.878669" lon="15.1240301"><ele>559.75</ele><time>2026-04-26T10:36:10.1Z</time></trkpt><trkpt lat="37.8786025" lon="15.1238772"><ele>559.5</ele><time>2026-04-26T10:36:12.102Z</time></trkpt><trkpt lat="37.8785486" lon="15.1237624"><ele>559.25</ele><time>2026-04-26T10:36:13.071Z</time></trkpt><trkpt lat="37.8784882" lon="15.1236157"><ele>559.0</ele><time>2026-04-26T10:36:14.103Z</time></trkpt><trkpt lat="37.8784303" lon="15.1234673"><ele>561.2</ele><time>2026-04-26T10:36:15.115Z</time></trkpt><trkpt lat="37.8783698" lon="15.1233249"><ele>563.4</ele><time>2026-04-26T10:36:16.08Z</time></trkpt><trkpt lat="37.8783126" lon="15.1231943"><ele>565.6</ele><time>2026-04-26T10:36:17.087Z</time></trkpt><trkpt lat="37.8782622" lon="15.1230796"><ele>567.8</ele><time>2026-04-26T10:36:18.086Z</time></trkpt><trkpt lat="37.8782212" lon="15.122979"><ele>570.0</ele><time>2026-04-26T10:36:19.096Z</time></trkpt><trkpt lat="37.8781981" lon="15.1228855"><ele>570.0</ele><time>2026-04-26T10:36:20.099Z</time></trkpt><trkpt lat="37.8781904" lon="15.1228012"><ele>570.0</ele><time>2026-04-26T10:36:21.088Z</time></trkpt><trkpt lat="37.8782355" lon="15.1226959"><ele>570.0</ele><time>2026-04-26T10:36:23.109Z</time></trkpt><trkpt lat="37.8783249" lon="15.1226662"><ele>570.0</ele><time>2026-04-26T10:36:25.104Z</time></trkpt><trkpt lat="37.8784261" lon="15.1227352"><ele>570.0</ele><time>2026-04-26T10:36:27.099Z</time></trkpt><trkpt lat="37.8784686" lon="15.122806"><ele>570.0</ele><time>2026-04-26T10:36:28.092Z</time></trkpt><trkpt lat="37.8785051" lon="15.1228913"><ele>568.1666666666666</ele><time>2026-04-26T10:36:29.098Z</time></trkpt><trkpt lat="37.8785472" lon="15.1229863"><ele>566.3333333333334</ele><time>2026-04-26T10:36:30.099Z</time></trkpt><trkpt lat="37.878591" lon="15.1230723"><ele>564.5</ele><time>2026-04-26T10:36:31.1Z</time></trkpt><trkpt lat="37.8786297" lon="15.1231547"><ele>562.6666666666667</ele><time>2026-04-26T10:36:32.096Z</time></trkpt><trkpt lat="37.878673" lon="15.1232282"><ele>560.8333333333334</ele><time>2026-04-26T10:36:33.07Z</time></trkpt><trkpt lat="37.8787295" lon="15.1232873"><ele>559.0</ele><time>2026-04-26T10:36:34.094Z</time></trkpt><trkpt lat="37.8787881" lon="15.1233522"><ele>559.0</ele><time>2026-04-26T10:36:35.083Z</time></trkpt><trkpt lat="37.8788399" lon="15.1234158"><ele>559.0</ele><time>2026-04-26T10:36:36.095Z</time></trkpt><trkpt lat="37.878915" lon="15.1235337"><ele>559.0</ele><time>2026-04-26T10:36:38.101Z</time></trkpt><trkpt lat="37.878968" lon="15.1236504"><ele>559.0</ele><time>2026-04-26T10:36:40.097Z</time></trkpt><trkpt lat="37.8789985" lon="15.1237226"><ele>559.0</ele><time>2026-04-26T10:36:41.083Z</time></trkpt><trkpt lat="37.879025" lon="15.1237997"><ele>559.0</ele><time>2026-04-26T10:36:42.103Z</time></trkpt><trkpt lat="37.8790394" lon="15.1238778"><ele>559.0</ele><time>2026-04-26T10:36:43.099Z</time></trkpt><trkpt lat="37.8790256" lon="15.1240307"><ele>559.0</ele><time>2026-04-26T10:36:45.12Z</time></trkpt><trkpt lat="37.8790002" lon="15.1241074"><ele>559.0</ele><time>2026-04-26T10:36:46.097Z</time></trkpt><trkpt lat="37.8789769" lon="15.1241825"><ele>559.0</ele><time>2026-04-26T10:36:47.097Z</time></trkpt><trkpt lat="37.878968" lon="15.1242713"><ele>559.0</ele><time>2026-04-26T10:36:48.101Z</time></trkpt><trkpt lat="37.8789737" lon="15.1243512"><ele>559.0</ele><time>2026-04-26T10:36:49.092Z</time></trkpt><trkpt lat="37.8790527" lon="15.1244687"><ele>559.1666666666667</ele><time>2026-04-26T10:36:51.088Z</time></trkpt><trkpt lat="37.8791147" lon="15.1245173"><ele>559.3333333333334</ele><time>2026-04-26T10:36:52.085Z</time></trkpt><trkpt lat="37.8791874" lon="15.1245717"><ele>559.5</ele><time>2026-04-26T10:36:53.069Z</time></trkpt><trkpt lat="37.8792627" lon="15.1246071"><ele>559.6666666666666</ele><time>2026-04-26T10:36:54.087Z</time></trkpt><trkpt lat="37.8793471" lon="15.1246101"><ele>559.8333333333333</ele><time>2026-04-26T10:36:55.085Z</time></trkpt><trkpt lat="37.8794345" lon="15.1246047"><ele>560.0</ele><time>2026-04-26T10:36:56.084Z</time></trkpt><trkpt lat="37.879521" lon="15.1246139"><ele>560.1666666666666</ele><time>2026-04-26T10:36:57.068Z</time></trkpt><trkpt lat="37.8795962" lon="15.1246387"><ele>560.3333333333333</ele><time>2026-04-26T10:36:58.094Z</time></trkpt><trkpt lat="37.8796571" lon="15.1246763"><ele>560.5</ele><time>2026-04-26T10:36:59.089Z</time></trkpt><trkpt lat="37.8797149" lon="15.124728"><ele>560.6666666666666</ele><time>2026-04-26T10:37:00.081Z</time></trkpt><trkpt lat="37.8797773" lon="15.1247889"><ele>560.8333333333334</ele><time>2026-04-26T10:37:01.084Z</time></trkpt><trkpt lat="37.8798728" lon="15.1248618"><ele>561.0</ele><time>2026-04-26T10:37:03.086Z</time></trkpt><trkpt lat="37.8799711" lon="15.124933"><ele>561.0</ele><time>2026-04-26T10:37:05.084Z</time></trkpt><trkpt lat="37.8800731" lon="15.1250038"><ele>561.0</ele><time>2026-04-26T10:37:07.079Z</time></trkpt><trkpt lat="37.8801586" lon="15.1250472"><ele>561.0</ele><time>2026-04-26T10:37:09.063Z</time></trkpt><trkpt lat="37.8802221" lon="15.1250981"><ele>561.0</ele><time>2026-04-26T10:37:11.089Z</time></trkpt><trkpt lat="37.8802788" lon="15.1251565"><ele>561.0</ele><time>2026-04-26T10:37:13.067Z</time></trkpt><trkpt lat="37.8803415" lon="15.1252099"><ele>561.0</ele><time>2026-04-26T10:37:15.086Z</time></trkpt><trkpt lat="37.8803981" lon="15.1252533"><ele>561.3333333333334</ele><time>2026-04-26T10:37:17.083Z</time></trkpt><trkpt lat="37.880468" lon="15.1252634"><ele>561.6666666666666</ele><time>2026-04-26T10:37:20.087Z</time></trkpt><trkpt lat="37.880531" lon="15.1251661"><ele>562.0</ele><time>2026-04-26T10:37:23.097Z</time></trkpt><trkpt lat="37.8805749" lon="15.1250542"><ele>562.3333333333333</ele><time>2026-04-26T10:37:25.086Z</time></trkpt><trkpt lat="37.8806139" lon="15.1249606"><ele>562.6666666666666</ele><time>2026-04-26T10:37:27.098Z</time></trkpt><trkpt lat="37.8806544" lon="15.1248587"><ele>563.0</ele><time>2026-04-26T10:37:29.084Z</time></trkpt><trkpt lat="37.8807021" lon="15.1247426"><ele>563.0</ele><time>2026-04-26T10:37:31.086Z</time></trkpt><trkpt lat="37.8807458" lon="15.1246401"><ele>563.0</ele><time>2026-04-26T10:37:33.079Z</time></trkpt><trkpt lat="37.880775" lon="15.1245527"><ele>563.0</ele><time>2026-04-26T10:37:35.083Z</time></trkpt><trkpt lat="37.8808023" lon="15.1244512"><ele>563.0</ele><time>2026-04-26T10:37:38.08Z</time></trkpt><trkpt lat="37.8808109" lon="15.1243686"><ele>563.0</ele><time>2026-04-26T10:37:41.097Z</time></trkpt><trkpt lat="37.8808288" lon="15.1242724"><ele>563.0</ele><time>2026-04-26T10:37:46.083Z</time></trkpt><trkpt lat="37.8808538" lon="15.1241775"><ele>563.0</ele><time>2026-04-26T10:37:49.096Z</time></trkpt><trkpt lat="37.8808674" lon="15.1240972"><ele>563.0</ele><time>2026-04-26T10:37:51.07Z</time></trkpt><trkpt lat="37.8808883" lon="15.1240092"><ele>563.0</ele><time>2026-04-26T10:37:53.039Z</time></trkpt><trkpt lat="37.8809414" lon="15.123909"><ele>563.0</ele><time>2026-04-26T10:37:55.099Z</time></trkpt><trkpt lat="37.8810076" lon="15.1238349"><ele>563.0</ele><time>2026-04-26T10:37:57.095Z</time></trkpt><trkpt lat="37.8810734" lon="15.1237872"><ele>563.0</ele><time>2026-04-26T10:37:59.08Z</time></trkpt><trkpt lat="37.881132" lon="15.1237487"><ele>564.1666666666666</ele><time>2026-04-26T10:38:02.02Z</time></trkpt><trkpt lat="37.8811708" lon="15.123651"><ele>565.3333333333333</ele><time>2026-04-26T10:38:19.095Z</time></trkpt><trkpt lat="37.8811945" lon="15.123553"><ele>566.5</ele><time>2026-04-26T10:38:20.095Z</time></trkpt><trkpt lat="37.8812168" lon="15.1234729"><ele>567.6666666666666</ele><time>2026-04-26T10:38:21.067Z</time></trkpt><trkpt lat="37.8812345" lon="15.123378"><ele>568.8333333333334</ele><time>2026-04-26T10:38:22.069Z</time></trkpt><trkpt lat="37.8812575" lon="15.1232863"><ele>570.0</ele><time>2026-04-26T10:38:23.083Z</time></trkpt><trkpt lat="37.8812866" lon="15.1231984"><ele>570.0</ele><time>2026-04-26T10:38:24.097Z</time></trkpt><trkpt lat="37.8813187" lon="15.1231118"><ele>570.0</ele><time>2026-04-26T10:38:25.095Z</time></trkpt><trkpt lat="37.8813493" lon="15.1230288"><ele>570.0</ele><time>2026-04-26T10:38:26.08Z</time></trkpt><trkpt lat="37.8813749" lon="15.1229475"><ele>570.0</ele><time>2026-04-26T10:38:27.104Z</time></trkpt><trkpt lat="37.8814343" lon="15.1227912"><ele>570.0</ele><time>2026-04-26T10:38:29.08Z</time></trkpt><trkpt lat="37.8814558" lon="15.1226836"><ele>570.0</ele><time>2026-04-26T10:38:30.097Z</time></trkpt><trkpt lat="37.8814712" lon="15.1225835"><ele>570.0</ele><time>2026-04-26T10:38:31.065Z</time></trkpt><trkpt lat="37.8814769" lon="15.1224914"><ele>570.0</ele><time>2026-04-26T10:38:32.096Z</time></trkpt><trkpt lat="37.8814748" lon="15.1224106"><ele>570.0</ele><time>2026-04-26T10:38:33.09Z</time></trkpt><trkpt lat="37.8814783" lon="15.1223225"><ele>570.0</ele><time>2026-04-26T10:38:34.081Z</time></trkpt><trkpt lat="37.8814817" lon="15.1222358"><ele>570.0</ele><time>2026-04-26T10:38:35.065Z</time></trkpt><trkpt lat="37.8815002" lon="15.1221465"><ele>570.0</ele><time>2026-04-26T10:38:36.081Z</time></trkpt><trkpt lat="37.8815375" lon="15.122048"><ele>570.0</ele><time>2026-04-26T10:38:37.086Z</time></trkpt><trkpt lat="37.8815686" lon="15.1219468"><ele>568.2</ele><time>2026-04-26T10:38:38.079Z</time></trkpt><trkpt lat="37.8815923" lon="15.1218304"><ele>566.4</ele><time>2026-04-26T10:38:39.094Z</time></trkpt><trkpt lat="37.8816044" lon="15.1217036"><ele>564.6</ele><time>2026-04-26T10:38:40.078Z</time></trkpt><trkpt lat="37.881609" lon="15.1215758"><ele>562.8</ele><time>2026-04-26T10:38:41.082Z</time></trkpt><trkpt lat="37.8815977" lon="15.1214116"><ele>561.0</ele><time>2026-04-26T10:38:42.078Z</time></trkpt><trkpt lat="37.8815998" lon="15.1212576"><ele>560.2</ele><time>2026-04-26T10:38:43.079Z</time></trkpt><trkpt lat="37.8815978" lon="15.1211081"><ele>559.4000000000001</ele><time>2026-04-26T10:38:44.099Z</time></trkpt><trkpt lat="37.8815901" lon="15.1209698"><ele>558.6</ele><time>2026-04-26T10:38:45.079Z</time></trkpt><trkpt lat="37.8815818" lon="15.1208334"><ele>557.8000000000001</ele><time>2026-04-26T10:38:46.077Z</time></trkpt><trkpt lat="37.8815724" lon="15.1206938"><ele>557.0</ele><time>2026-04-26T10:38:47.081Z</time></trkpt><trkpt lat="37.8815618" lon="15.120559"><ele>554.2</ele><time>2026-04-26T10:38:48.081Z</time></trkpt><trkpt lat="37.8815641" lon="15.120428"><ele>551.4000000000001</ele><time>2026-04-26T10:38:49.09Z</time></trkpt><trkpt lat="37.8815833" lon="15.1203027"><ele>548.5999999999999</ele><time>2026-04-26T10:38:50.08Z</time></trkpt><trkpt lat="37.8816115" lon="15.1201779"><ele>545.8</ele><time>2026-04-26T10:38:51.082Z</time></trkpt><trkpt lat="37.881643" lon="15.1200742"><ele>543.0</ele><time>2026-04-26T10:38:52.096Z</time></trkpt><trkpt lat="37.8816765" lon="15.1199742"><ele>543.5</ele><time>2026-04-26T10:38:53.105Z</time></trkpt><trkpt lat="37.8817001" lon="15.1198575"><ele>544.0</ele><time>2026-04-26T10:38:54.096Z</time></trkpt><trkpt lat="37.8817217" lon="15.1197453"><ele>544.5</ele><time>2026-04-26T10:38:55.08Z</time></trkpt><trkpt lat="37.8817437" lon="15.1196378"><ele>545.0</ele><time>2026-04-26T10:38:56.081Z</time></trkpt><trkpt lat="37.8817628" lon="15.1195297"><ele>545.5</ele><time>2026-04-26T10:38:57.06Z</time></trkpt><trkpt lat="37.881783" lon="15.1194272"><ele>546.0</ele><time>2026-04-26T10:38:58.076Z</time></trkpt><trkpt lat="37.8818005" lon="15.1193215"><ele>546.0</ele><time>2026-04-26T10:38:59.077Z</time></trkpt><trkpt lat="37.8818178" lon="15.1192221"><ele>546.0</ele><time>2026-04-26T10:39:00.081Z</time></trkpt><trkpt lat="37.8818377" lon="15.1191353"><ele>546.0</ele><time>2026-04-26T10:39:01.078Z</time></trkpt><trkpt lat="37.8818522" lon="15.1190541"><ele>546.0</ele><time>2026-04-26T10:39:02.081Z</time></trkpt><trkpt lat="37.881854" lon="15.1189088"><ele>546.0</ele><time>2026-04-26T10:39:04.081Z</time></trkpt><trkpt lat="37.8818202" lon="15.1188273"><ele>546.0</ele><time>2026-04-26T10:39:06.082Z</time></trkpt><trkpt lat="37.8818434" lon="15.1187527"><ele>542.5</ele><time>2026-04-26T10:39:10.095Z</time></trkpt><trkpt lat="37.8819072" lon="15.1186799"><ele>539.0</ele><time>2026-04-26T10:44:19.101Z</time></trkpt><trkpt lat="37.881922" lon="15.1185791"><ele>535.5</ele><time>2026-04-26T10:44:21.085Z</time></trkpt><trkpt lat="37.8819359" lon="15.1184723"><ele>532.0</ele><time>2026-04-26T10:44:23.098Z</time></trkpt><trkpt lat="37.8819636" lon="15.1183893"><ele>528.5</ele><time>2026-04-26T10:44:25.099Z</time></trkpt><trkpt lat="37.8820227" lon="15.1183266"><ele>525.0</ele><time>2026-04-26T10:44:27.08Z</time></trkpt><trkpt lat="37.8820961" lon="15.1182985"><ele>525.0</ele><time>2026-04-26T10:44:29.096Z</time></trkpt><trkpt lat="37.8821761" lon="15.1183021"><ele>525.0</ele><time>2026-04-26T10:44:31.099Z</time></trkpt><trkpt lat="37.8822628" lon="15.1183401"><ele>525.0</ele><time>2026-04-26T10:44:33.069Z</time></trkpt><trkpt lat="37.8823615" lon="15.1184328"><ele>525.0</ele><time>2026-04-26T10:44:35.102Z</time></trkpt><trkpt lat="37.8824165" lon="15.1184769"><ele>525.0</ele><time>2026-04-26T10:44:36.089Z</time></trkpt><trkpt lat="37.8824749" lon="15.1185137"><ele>525.0</ele><time>2026-04-26T10:44:37.103Z</time></trkpt><trkpt lat="37.8825349" lon="15.1185509"><ele>525.0</ele><time>2026-04-26T10:44:38.07Z</time></trkpt><trkpt lat="37.8825936" lon="15.1185859"><ele>525.0</ele><time>2026-04-26T10:44:39.081Z</time></trkpt><trkpt lat="37.8827009" lon="15.1186582"><ele>525.0</ele><time>2026-04-26T10:44:41.095Z</time></trkpt><trkpt lat="37.882803" lon="15.1187229"><ele>525.0</ele><time>2026-04-26T10:44:43.09Z</time></trkpt><trkpt lat="37.8829093" lon="15.1187757"><ele>525.0</ele><time>2026-04-26T10:44:45.108Z</time></trkpt><trkpt lat="37.8830155" lon="15.1187907"><ele>523.5</ele><time>2026-04-26T10:44:47.104Z</time></trkpt><trkpt lat="37.8831214" lon="15.1187773"><ele>522.0</ele><time>2026-04-26T10:44:49.082Z</time></trkpt><trkpt lat="37.8832278" lon="15.1187469"><ele>520.5</ele><time>2026-04-26T10:44:51.094Z</time></trkpt><trkpt lat="37.8833177" lon="15.1186631"><ele>519.0</ele><time>2026-04-26T10:44:53.092Z</time></trkpt><trkpt lat="37.8833821" lon="15.1185298"><ele>519.0</ele><time>2026-04-26T10:44:55.06Z</time></trkpt><trkpt lat="37.8834156" lon="15.1184575"><ele>519.0</ele><time>2026-04-26T10:44:56.06Z</time></trkpt><trkpt lat="37.8834524" lon="15.1183904"><ele>519.0</ele><time>2026-04-26T10:44:57.095Z</time></trkpt><trkpt lat="37.8834849" lon="15.1183159"><ele>519.0</ele><time>2026-04-26T10:44:58.093Z</time></trkpt><trkpt lat="37.8835162" lon="15.1182347"><ele>519.0</ele><time>2026-04-26T10:44:59.083Z</time></trkpt><trkpt lat="37.8835493" lon="15.1181557"><ele>519.0</ele><time>2026-04-26T10:45:00.056Z</time></trkpt><trkpt lat="37.8835851" lon="15.1180841"><ele>519.0</ele><time>2026-04-26T10:45:01.096Z</time></trkpt><trkpt lat="37.8836192" lon="15.1180079"><ele>516.7142857142857</ele><time>2026-04-26T10:45:02.066Z</time></trkpt><trkpt lat="37.8836614" lon="15.1179344"><ele>514.4285714285713</ele><time>2026-04-26T10:45:03.093Z</time></trkpt><trkpt lat="37.8837097" lon="15.1178684"><ele>512.1428571428571</ele><time>2026-04-26T10:45:04.095Z</time></trkpt><trkpt lat="37.8837645" lon="15.117822"><ele>509.8571428571429</ele><time>2026-04-26T10:45:05.094Z</time></trkpt><trkpt lat="37.8838264" lon="15.1177845"><ele>507.5714285714286</ele><time>2026-04-26T10:45:06.089Z</time></trkpt><trkpt lat="37.8839012" lon="15.1177722"><ele>505.28571428571433</ele><time>2026-04-26T10:45:07.066Z</time></trkpt><trkpt lat="37.8839806" lon="15.1177732"><ele>503.0</ele><time>2026-04-26T10:45:08.06Z</time></trkpt><trkpt lat="37.8840622" lon="15.1177771"><ele>502.99999999999994</ele><time>2026-04-26T10:45:09.06Z</time></trkpt><trkpt lat="37.8841571" lon="15.1177828"><ele>503.0</ele><time>2026-04-26T10:45:10.067Z</time></trkpt><trkpt lat="37.8842512" lon="15.1177863"><ele>503.0</ele><time>2026-04-26T10:45:11.081Z</time></trkpt><trkpt lat="37.8843378" lon="15.1177885"><ele>503.0</ele><time>2026-04-26T10:45:12.089Z</time></trkpt><trkpt lat="37.8844216" lon="15.117791"><ele>502.99999999999994</ele><time>2026-04-26T10:45:13.071Z</time></trkpt><trkpt lat="37.8845028" lon="15.1177881"><ele>503.0</ele><time>2026-04-26T10:45:14.062Z</time></trkpt><trkpt lat="37.8845802" lon="15.1177811"><ele>501.3333333333333</ele><time>2026-04-26T10:45:15.068Z</time></trkpt><trkpt lat="37.8846501" lon="15.1177724"><ele>499.66666666666663</ele><time>2026-04-26T10:45:16.088Z</time></trkpt><trkpt lat="37.8847107" lon="15.1177446"><ele>498.0</ele><time>2026-04-26T10:45:17.061Z</time></trkpt><trkpt lat="37.8847847" lon="15.1176311"><ele>496.33333333333337</ele><time>2026-04-26T10:45:19.098Z</time></trkpt><trkpt lat="37.8847638" lon="15.117501"><ele>494.6666666666667</ele><time>2026-04-26T10:45:21.078Z</time></trkpt><trkpt lat="37.8846827" lon="15.1174412"><ele>493.0</ele><time>2026-04-26T10:45:23.067Z</time></trkpt><trkpt lat="37.8845636" lon="15.1174465"><ele>493.00000000000006</ele><time>2026-04-26T10:45:25.113Z</time></trkpt><trkpt lat="37.8844827" lon="15.1174675"><ele>493.0</ele><time>2026-04-26T10:45:26.1Z</time></trkpt><trkpt lat="37.8843961" lon="15.1174938"><ele>493.0</ele><time>2026-04-26T10:45:27.099Z</time></trkpt><trkpt lat="37.8843104" lon="15.1175043"><ele>493.0</ele><time>2026-04-26T10:45:28.062Z</time></trkpt><trkpt lat="37.8842348" lon="15.1174881"><ele>493.00000000000006</ele><time>2026-04-26T10:45:29.097Z</time></trkpt><trkpt lat="37.884172" lon="15.1174428"><ele>493.0</ele><time>2026-04-26T10:45:30.098Z</time></trkpt><trkpt lat="37.884118" lon="15.1173646"><ele>491.1666666666667</ele><time>2026-04-26T10:45:31.096Z</time></trkpt><trkpt lat="37.8840828" lon="15.1172773"><ele>489.33333333333337</ele><time>2026-04-26T10:45:32.066Z</time></trkpt><trkpt lat="37.8840598" lon="15.1171941"><ele>487.5</ele><time>2026-04-26T10:45:33.067Z</time></trkpt><trkpt lat="37.8840352" lon="15.1171126"><ele>485.66666666666663</ele><time>2026-04-26T10:45:34.095Z</time></trkpt><trkpt lat="37.8840014" lon="15.117045"><ele>483.8333333333333</ele><time>2026-04-26T10:45:35.08Z</time></trkpt><trkpt lat="37.883891" lon="15.1170088"><ele>482.0</ele><time>2026-04-26T10:45:37.069Z</time></trkpt><trkpt lat="37.8838195" lon="15.117037"><ele>482.0</ele><time>2026-04-26T10:45:38.081Z</time></trkpt><trkpt lat="37.8837273" lon="15.117085"><ele>482.0</ele><time>2026-04-26T10:45:39.065Z</time></trkpt><trkpt lat="37.8836103" lon="15.1171382"><ele>482.0</ele><time>2026-04-26T10:45:40.097Z</time></trkpt><trkpt lat="37.8834786" lon="15.117206"><ele>482.0</ele><time>2026-04-26T10:45:41.096Z</time></trkpt><trkpt lat="37.8833557" lon="15.1172751"><ele>481.0</ele><time>2026-04-26T10:45:42.098Z</time></trkpt><trkpt lat="37.8832304" lon="15.1173321"><ele>480.0</ele><time>2026-04-26T10:45:43.07Z</time></trkpt><trkpt lat="37.8831114" lon="15.1173796"><ele>479.0</ele><time>2026-04-26T10:45:44.096Z</time></trkpt><trkpt lat="37.8830075" lon="15.1174146"><ele>478.0</ele><time>2026-04-26T10:45:45.107Z</time></trkpt><trkpt lat="37.8829216" lon="15.1174243"><ele>478.00000000000006</ele><time>2026-04-26T10:45:46.097Z</time></trkpt><trkpt lat="37.8828564" lon="15.1174222"><ele>478.0</ele><time>2026-04-26T10:45:47.09Z</time></trkpt><trkpt lat="37.8827944" lon="15.117373"><ele>478.0</ele><time>2026-04-26T10:45:48.07Z</time></trkpt><trkpt lat="37.8827489" lon="15.1172926"><ele>478.0</ele><time>2026-04-26T10:45:49.092Z</time></trkpt><trkpt lat="37.8827054" lon="15.1171894"><ele>478.00000000000006</ele><time>2026-04-26T10:45:50.084Z</time></trkpt><trkpt lat="37.8826572" lon="15.1170511"><ele>478.0</ele><time>2026-04-26T10:45:51.09Z</time></trkpt><trkpt lat="37.8826037" lon="15.1168818"><ele>476.6666666666667</ele><time>2026-04-26T10:45:52.097Z</time></trkpt><trkpt lat="37.8825605" lon="15.1166853"><ele>475.33333333333337</ele><time>2026-04-26T10:45:53.084Z</time></trkpt><trkpt lat="37.8825288" lon="15.1165025"><ele>474.0</ele><time>2026-04-26T10:45:54.093Z</time></trkpt><trkpt lat="37.8824884" lon="15.1163223"><ele>474.0</ele><time>2026-04-26T10:45:55.085Z</time></trkpt><trkpt lat="37.8824374" lon="15.1161476"><ele>474.0</ele><time>2026-04-26T10:45:56.081Z</time></trkpt><trkpt lat="37.8823753" lon="15.115979"><ele>474.0</ele><time>2026-04-26T10:45:57.098Z</time></trkpt><trkpt lat="37.8823132" lon="15.1158256"><ele>474.0</ele><time>2026-04-26T10:45:58.086Z</time></trkpt><trkpt lat="37.8822786" lon="15.1156739"><ele>472.0</ele><time>2026-04-26T10:45:59.087Z</time></trkpt><trkpt lat="37.8822634" lon="15.1155263"><ele>470.0</ele><time>2026-04-26T10:46:00.098Z</time></trkpt><trkpt lat="37.882259" lon="15.1153811"><ele>468.0</ele><time>2026-04-26T10:46:01.099Z</time></trkpt><trkpt lat="37.882266" lon="15.1152385"><ele>466.0</ele><time>2026-04-26T10:46:02.087Z</time></trkpt><trkpt lat="37.8822714" lon="15.1151136"><ele>464.0</ele><time>2026-04-26T10:46:03.083Z</time></trkpt><trkpt lat="37.8822619" lon="15.1150001"><ele>463.99999999999994</ele><time>2026-04-26T10:46:04.09Z</time></trkpt><trkpt lat="37.8822322" lon="15.1149071"><ele>464.0</ele><time>2026-04-26T10:46:05.081Z</time></trkpt><trkpt lat="37.8821877" lon="15.1148227"><ele>464.0</ele><time>2026-04-26T10:46:06.095Z</time></trkpt><trkpt lat="37.8821147" lon="15.1147504"><ele>464.0</ele><time>2026-04-26T10:46:07.092Z</time></trkpt><trkpt lat="37.8820387" lon="15.1146812"><ele>463.99999999999994</ele><time>2026-04-26T10:46:08.101Z</time></trkpt><trkpt lat="37.8819536" lon="15.1146186"><ele>464.0</ele><time>2026-04-26T10:46:09.1Z</time></trkpt><trkpt lat="37.8818527" lon="15.1145311"><ele>463.75</ele><time>2026-04-26T10:46:10.102Z</time></trkpt><trkpt lat="37.8817461" lon="15.1144392"><ele>463.5</ele><time>2026-04-26T10:46:11.084Z</time></trkpt><trkpt lat="37.8816401" lon="15.1143518"><ele>463.25</ele><time>2026-04-26T10:46:12.098Z</time></trkpt><trkpt lat="37.8815416" lon="15.1142723"><ele>463.0</ele><time>2026-04-26T10:46:13.086Z</time></trkpt><trkpt lat="37.8814588" lon="15.1142057"><ele>463.0</ele><time>2026-04-26T10:46:14.07Z</time></trkpt><trkpt lat="37.881388" lon="15.1141501"><ele>462.99999999999994</ele><time>2026-04-26T10:46:15.101Z</time></trkpt><trkpt lat="37.8813325" lon="15.1140993"><ele>462.99999999999994</ele><time>2026-04-26T10:46:16.087Z</time></trkpt><trkpt lat="37.8812427" lon="15.1140235"><ele>463.0</ele><time>2026-04-26T10:46:18.079Z</time></trkpt><trkpt lat="37.8812758" lon="15.1139033"><ele>463.0</ele><time>2026-04-26T10:46:21.095Z</time></trkpt><trkpt lat="37.8813757" lon="15.1139004"><ele>463.0</ele><time>2026-04-26T10:46:23.087Z</time></trkpt><trkpt lat="37.8814516" lon="15.1139571"><ele>462.99999999999994</ele><time>2026-04-26T10:46:24.098Z</time></trkpt><trkpt lat="37.8815426" lon="15.1140348"><ele>462.99999999999994</ele><time>2026-04-26T10:46:25.073Z</time></trkpt><trkpt lat="37.8816507" lon="15.1141032"><ele>463.0</ele><time>2026-04-26T10:46:26.081Z</time></trkpt><trkpt lat="37.8817661" lon="15.1141504"><ele>463.0</ele><time>2026-04-26T10:46:27.086Z</time></trkpt><trkpt lat="37.8818867" lon="15.1141751"><ele>461.0</ele><time>2026-04-26T10:46:28.085Z</time></trkpt><trkpt lat="37.8820018" lon="15.1141847"><ele>458.99999999999994</ele><time>2026-04-26T10:46:29.087Z</time></trkpt><trkpt lat="37.8821136" lon="15.1141726"><ele>456.99999999999994</ele><time>2026-04-26T10:46:30.095Z</time></trkpt><trkpt lat="37.8822177" lon="15.1141373"><ele>455.0</ele><time>2026-04-26T10:46:31.068Z</time></trkpt><trkpt lat="37.8823194" lon="15.114116"><ele>453.0</ele><time>2026-04-26T10:46:32.097Z</time></trkpt><trkpt lat="37.8824116" lon="15.1141181"><ele>453.0</ele><time>2026-04-26T10:46:33.085Z</time></trkpt><trkpt lat="37.882491" lon="15.1141385"><ele>453.0</ele><time>2026-04-26T10:46:34.08Z</time></trkpt><trkpt lat="37.8825711" lon="15.1141796"><ele>453.0</ele><time>2026-04-26T10:46:35.066Z</time></trkpt><trkpt lat="37.8826439" lon="15.1142197"><ele>453.0</ele><time>2026-04-26T10:46:36.066Z</time></trkpt><trkpt lat="37.8827055" lon="15.1142587"><ele>453.0</ele><time>2026-04-26T10:46:37.089Z</time></trkpt><trkpt lat="37.8828144" lon="15.1143073"><ele>453.0</ele><time>2026-04-26T10:46:39.079Z</time></trkpt><trkpt lat="37.8829098" lon="15.1142745"><ele>451.59999999999997</ele><time>2026-04-26T10:46:41.062Z</time></trkpt><trkpt lat="37.8829664" lon="15.1141386"><ele>450.19999999999993</ele><time>2026-04-26T10:46:43.106Z</time></trkpt><trkpt lat="37.8829764" lon="15.1140348"><ele>448.8</ele><time>2026-04-26T10:46:44.101Z</time></trkpt><trkpt lat="37.8829729" lon="15.1139259"><ele>447.4</ele><time>2026-04-26T10:46:45.069Z</time></trkpt><trkpt lat="37.8829524" lon="15.1138118"><ele>446.0</ele><time>2026-04-26T10:46:46.062Z</time></trkpt><trkpt lat="37.8829143" lon="15.1137177"><ele>446.0</ele><time>2026-04-26T10:46:47.061Z</time></trkpt><trkpt lat="37.8828582" lon="15.1136277"><ele>446.0</ele><time>2026-04-26T10:46:48.099Z</time></trkpt><trkpt lat="37.8827961" lon="15.113536"><ele>446.0</ele><time>2026-04-26T10:46:49.098Z</time></trkpt><trkpt lat="37.8827372" lon="15.1134227"><ele>446.0</ele><time>2026-04-26T10:46:50.103Z</time></trkpt><trkpt lat="37.882679" lon="15.1132624"><ele>446.0</ele><time>2026-04-26T10:46:51.103Z</time></trkpt><trkpt lat="37.8826287" lon="15.1131142"><ele>443.75</ele><time>2026-04-26T10:46:52.084Z</time></trkpt><trkpt lat="37.8825919" lon="15.1129519"><ele>441.5</ele><time>2026-04-26T10:46:53.088Z</time></trkpt><trkpt lat="37.8825681" lon="15.1127783"><ele>439.25</ele><time>2026-04-26T10:46:54.099Z</time></trkpt><trkpt lat="37.8825605" lon="15.1126023"><ele>437.0</ele><time>2026-04-26T10:46:55.1Z</time></trkpt><trkpt lat="37.882554" lon="15.1124163"><ele>435.66666666666663</ele><time>2026-04-26T10:46:56.089Z</time></trkpt><trkpt lat="37.8825473" lon="15.1122182"><ele>434.33333333333337</ele><time>2026-04-26T10:46:57.082Z</time></trkpt><trkpt lat="37.8825349" lon="15.1120101"><ele>433.0</ele><time>2026-04-26T10:46:58.07Z</time></trkpt><trkpt lat="37.8825245" lon="15.1117994"><ele>433.0</ele><time>2026-04-26T10:46:59.1Z</time></trkpt><trkpt lat="37.8825157" lon="15.1115823"><ele>433.0</ele><time>2026-04-26T10:47:00.089Z</time></trkpt><trkpt lat="37.8825206" lon="15.1113441"><ele>433.0</ele><time>2026-04-26T10:47:01.085Z</time></trkpt><trkpt lat="37.8825076" lon="15.1111231"><ele>432.6666666666667</ele><time>2026-04-26T10:47:02.084Z</time></trkpt><trkpt lat="37.8824893" lon="15.1109091"><ele>432.33333333333337</ele><time>2026-04-26T10:47:03.079Z</time></trkpt><trkpt lat="37.8824671" lon="15.1107021"><ele>432.0</ele><time>2026-04-26T10:47:04.095Z</time></trkpt><trkpt lat="37.8824443" lon="15.1105029"><ele>432.0</ele><time>2026-04-26T10:47:05.068Z</time></trkpt><trkpt lat="37.8824248" lon="15.1103102"><ele>432.0</ele><time>2026-04-26T10:47:06.097Z</time></trkpt><trkpt lat="37.8824187" lon="15.1101148"><ele>432.0</ele><time>2026-04-26T10:47:07.095Z</time></trkpt><trkpt lat="37.8824269" lon="15.1099143"><ele>432.66666666666663</ele><time>2026-04-26T10:47:08.098Z</time></trkpt><trkpt lat="37.8824454" lon="15.1096966"><ele>433.3333333333333</ele><time>2026-04-26T10:47:09.067Z</time></trkpt><trkpt lat="37.8824773" lon="15.1094582"><ele>434.0</ele><time>2026-04-26T10:47:10.103Z</time></trkpt><trkpt lat="37.8825257" lon="15.1092052"><ele>432.0</ele><time>2026-04-26T10:47:11.113Z</time></trkpt><trkpt lat="37.8825992" lon="15.1089439"><ele>430.0</ele><time>2026-04-26T10:47:12.081Z</time></trkpt><trkpt lat="37.8826581" lon="15.1086699"><ele>428.0</ele><time>2026-04-26T10:47:13.09Z</time></trkpt><trkpt lat="37.8827141" lon="15.108393"><ele>426.5</ele><time>2026-04-26T10:47:14.082Z</time></trkpt><trkpt lat="37.8827698" lon="15.1081161"><ele>425.0</ele><time>2026-04-26T10:47:15.097Z</time></trkpt><trkpt lat="37.8828296" lon="15.1078408"><ele>425.0</ele><time>2026-04-26T10:47:16.081Z</time></trkpt><trkpt lat="37.8828928" lon="15.1075663"><ele>425.0</ele><time>2026-04-26T10:47:17.08Z</time></trkpt><trkpt lat="37.882953" lon="15.1072897"><ele>425.0</ele><time>2026-04-26T10:47:18.089Z</time></trkpt><trkpt lat="37.8830195" lon="15.1070135"><ele>425.0</ele><time>2026-04-26T10:47:19.089Z</time></trkpt><trkpt lat="37.8830898" lon="15.1067423"><ele>425.0</ele><time>2026-04-26T10:47:20.084Z</time></trkpt><trkpt lat="37.8831633" lon="15.10648"><ele>425.0</ele><time>2026-04-26T10:47:21.085Z</time></trkpt><trkpt lat="37.8832361" lon="15.1062277"><ele>425.0</ele><time>2026-04-26T10:47:22.082Z</time></trkpt><trkpt lat="37.8833082" lon="15.1059857"><ele>425.0</ele><time>2026-04-26T10:47:23.092Z</time></trkpt><trkpt lat="37.8833804" lon="15.1057473"><ele>425.0</ele><time>2026-04-26T10:47:24.088Z</time></trkpt><trkpt lat="37.8834479" lon="15.1055256"><ele>425.0</ele><time>2026-04-26T10:47:25.079Z</time></trkpt><trkpt lat="37.8835154" lon="15.1053147"><ele>424.66666666666663</ele><time>2026-04-26T10:47:26.083Z</time></trkpt><trkpt lat="37.8835825" lon="15.105112"><ele>424.33333333333337</ele><time>2026-04-26T10:47:27.082Z</time></trkpt><trkpt lat="37.8836467" lon="15.1049086"><ele>424.0</ele><time>2026-04-26T10:47:28.082Z</time></trkpt><trkpt lat="37.8837099" lon="15.1047061"><ele>425.33333333333337</ele><time>2026-04-26T10:47:29.092Z</time></trkpt><trkpt lat="37.8837706" lon="15.1045051"><ele>426.66666666666663</ele><time>2026-04-26T10:47:30.082Z</time></trkpt><trkpt lat="37.8838318" lon="15.1043052"><ele>428.0</ele><time>2026-04-26T10:47:31.065Z</time></trkpt><trkpt lat="37.8838937" lon="15.1041073"><ele>429.0</ele><time>2026-04-26T10:47:32.08Z</time></trkpt><trkpt lat="37.8839558" lon="15.1039126"><ele>430.0</ele><time>2026-04-26T10:47:33.087Z</time></trkpt><trkpt lat="37.8840199" lon="15.1037191"><ele>431.0</ele><time>2026-04-26T10:47:34.081Z</time></trkpt><trkpt lat="37.8840895" lon="15.1035292"><ele>431.0</ele><time>2026-04-26T10:47:35.087Z</time></trkpt><trkpt lat="37.8841666" lon="15.1033487"><ele>431.0</ele><time>2026-04-26T10:47:36.086Z</time></trkpt><trkpt lat="37.8842521" lon="15.1031736"><ele>431.0</ele><time>2026-04-26T10:47:37.083Z</time></trkpt><trkpt lat="37.8843466" lon="15.1030052"><ele>430.66666666666663</ele><time>2026-04-26T10:47:38.085Z</time></trkpt><trkpt lat="37.884443" lon="15.1028419"><ele>430.33333333333337</ele><time>2026-04-26T10:47:39.088Z</time></trkpt><trkpt lat="37.8845383" lon="15.1026802"><ele>430.0</ele><time>2026-04-26T10:47:40.066Z</time></trkpt><trkpt lat="37.8846338" lon="15.1025164"><ele>431.33333333333337</ele><time>2026-04-26T10:47:41.083Z</time></trkpt><trkpt lat="37.8847295" lon="15.1023549"><ele>432.66666666666663</ele><time>2026-04-26T10:47:42.079Z</time></trkpt><trkpt lat="37.8848261" lon="15.102197"><ele>434.0</ele><time>2026-04-26T10:47:43.085Z</time></trkpt><trkpt lat="37.8849197" lon="15.102041"><ele>434.0</ele><time>2026-04-26T10:47:44.086Z</time></trkpt><trkpt lat="37.8850084" lon="15.1018835"><ele>434.0</ele><time>2026-04-26T10:47:45.084Z</time></trkpt><trkpt lat="37.8850918" lon="15.1017256"><ele>434.0</ele><time>2026-04-26T10:47:46.078Z</time></trkpt><trkpt lat="37.8851678" lon="15.1015688"><ele>434.0</ele><time>2026-04-26T10:47:47.087Z</time></trkpt><trkpt lat="37.8852333" lon="15.1014138"><ele>434.5</ele><time>2026-04-26T10:47:48.09Z</time></trkpt><trkpt lat="37.8852877" lon="15.1012608"><ele>435.0</ele><time>2026-04-26T10:47:49.084Z</time></trkpt><trkpt lat="37.8853291" lon="15.1011025"><ele>435.5</ele><time>2026-04-26T10:47:50.083Z</time></trkpt><trkpt lat="37.8853555" lon="15.1009374"><ele>436.0</ele><time>2026-04-26T10:47:51.082Z</time></trkpt><trkpt lat="37.8853679" lon="15.1007697"><ele>436.5</ele><time>2026-04-26T10:47:52.085Z</time></trkpt><trkpt lat="37.8853674" lon="15.1006003"><ele>437.0</ele><time>2026-04-26T10:47:53.088Z</time></trkpt><trkpt lat="37.8853556" lon="15.1004302"><ele>437.5</ele><time>2026-04-26T10:47:54.086Z</time></trkpt><trkpt lat="37.8853328" lon="15.1002605"><ele>438.0</ele><time>2026-04-26T10:47:55.088Z</time></trkpt><trkpt lat="37.8853049" lon="15.1000871"><ele>438.66666666666663</ele><time>2026-04-26T10:47:56.083Z</time></trkpt><trkpt lat="37.8852674" lon="15.0999064"><ele>439.3333333333333</ele><time>2026-04-26T10:47:57.087Z</time></trkpt><trkpt lat="37.8852215" lon="15.0997236"><ele>440.0</ele><time>2026-04-26T10:47:58.066Z</time></trkpt><trkpt lat="37.8851707" lon="15.0995375"><ele>440.0</ele><time>2026-04-26T10:47:59.083Z</time></trkpt><trkpt lat="37.8851216" lon="15.0993489"><ele>440.0</ele><time>2026-04-26T10:48:00.078Z</time></trkpt><trkpt lat="37.8850781" lon="15.0991566"><ele>440.0</ele><time>2026-04-26T10:48:01.08Z</time></trkpt><trkpt lat="37.8850357" lon="15.0989602"><ele>441.0</ele><time>2026-04-26T10:48:02.082Z</time></trkpt><trkpt lat="37.8849955" lon="15.0987609"><ele>442.0</ele><time>2026-04-26T10:48:03.083Z</time></trkpt><trkpt lat="37.8849559" lon="15.0985577"><ele>443.0</ele><time>2026-04-26T10:48:04.061Z</time></trkpt><trkpt lat="37.8849159" lon="15.0983401"><ele>443.3333333333333</ele><time>2026-04-26T10:48:05.065Z</time></trkpt><trkpt lat="37.8848734" lon="15.0981036"><ele>443.66666666666663</ele><time>2026-04-26T10:48:06.081Z</time></trkpt><trkpt lat="37.8848235" lon="15.0978541"><ele>444.0</ele><time>2026-04-26T10:48:07.081Z</time></trkpt><trkpt lat="37.8847756" lon="15.0975962"><ele>445.33333333333337</ele><time>2026-04-26T10:48:08.064Z</time></trkpt><trkpt lat="37.8847386" lon="15.0973373"><ele>446.6666666666667</ele><time>2026-04-26T10:48:09.087Z</time></trkpt><trkpt lat="37.8847092" lon="15.0970983"><ele>448.0</ele><time>2026-04-26T10:48:10.085Z</time></trkpt><trkpt lat="37.8846778" lon="15.0968755"><ele>448.0</ele><time>2026-04-26T10:48:11.087Z</time></trkpt><trkpt lat="37.8846419" lon="15.0966615"><ele>448.0</ele><time>2026-04-26T10:48:12.078Z</time></trkpt><trkpt lat="37.8845973" lon="15.0964522"><ele>448.0</ele><time>2026-04-26T10:48:13.084Z</time></trkpt><trkpt lat="37.8845398" lon="15.0962456"><ele>448.6666666666667</ele><time>2026-04-26T10:48:14.085Z</time></trkpt><trkpt lat="37.8844687" lon="15.0960395"><ele>449.33333333333337</ele><time>2026-04-26T10:48:15.091Z</time></trkpt><trkpt lat="37.8843883" lon="15.0958377"><ele>450.0</ele><time>2026-04-26T10:48:16.081Z</time></trkpt><trkpt lat="37.8843071" lon="15.0956429"><ele>450.66666666666663</ele><time>2026-04-26T10:48:17.086Z</time></trkpt><trkpt lat="37.8842338" lon="15.0954567"><ele>451.3333333333333</ele><time>2026-04-26T10:48:18.092Z</time></trkpt><trkpt lat="37.8841741" lon="15.0952813"><ele>452.0</ele><time>2026-04-26T10:48:19.085Z</time></trkpt><trkpt lat="37.8841267" lon="15.0951021"><ele>454.0</ele><time>2026-04-26T10:48:20.087Z</time></trkpt><trkpt lat="37.8840848" lon="15.0949182"><ele>456.0</ele><time>2026-04-26T10:48:21.084Z</time></trkpt><trkpt lat="37.8840405" lon="15.0947353"><ele>458.0</ele><time>2026-04-26T10:48:22.069Z</time></trkpt><trkpt lat="37.8839834" lon="15.0945487"><ele>458.0</ele><time>2026-04-26T10:48:23.085Z</time></trkpt><trkpt lat="37.8839136" lon="15.094359"><ele>458.0</ele><time>2026-04-26T10:48:24.087Z</time></trkpt><trkpt lat="37.8838342" lon="15.0941685"><ele>458.0</ele><time>2026-04-26T10:48:25.089Z</time></trkpt><trkpt lat="37.8837482" lon="15.0939705"><ele>459.66666666666663</ele><time>2026-04-26T10:48:26.063Z</time></trkpt><trkpt lat="37.883664" lon="15.0937599"><ele>461.33333333333337</ele><time>2026-04-26T10:48:27.082Z</time></trkpt><trkpt lat="37.883595" lon="15.093543"><ele>463.0</ele><time>2026-04-26T10:48:28.083Z</time></trkpt><trkpt lat="37.8835381" lon="15.0933202"><ele>464.0</ele><time>2026-04-26T10:48:29.089Z</time></trkpt><trkpt lat="37.8834888" lon="15.0931059"><ele>465.0</ele><time>2026-04-26T10:48:30.082Z</time></trkpt><trkpt lat="37.8834307" lon="15.0929062"><ele>466.0</ele><time>2026-04-26T10:48:31.06Z</time></trkpt><trkpt lat="37.8833522" lon="15.0927149"><ele>467.33333333333337</ele><time>2026-04-26T10:48:32.083Z</time></trkpt><trkpt lat="37.8832592" lon="15.0925364"><ele>468.66666666666663</ele><time>2026-04-26T10:48:33.084Z</time></trkpt><trkpt lat="37.8831599" lon="15.0923602"><ele>470.0</ele><time>2026-04-26T10:48:34.081Z</time></trkpt><trkpt lat="37.8830634" lon="15.0921759"><ele>471.0</ele><time>2026-04-26T10:48:35.083Z</time></trkpt><trkpt lat="37.8829738" lon="15.0919795"><ele>472.0</ele><time>2026-04-26T10:48:36.084Z</time></trkpt><trkpt lat="37.8828936" lon="15.0917677"><ele>473.0</ele><time>2026-04-26T10:48:37.084Z</time></trkpt><trkpt lat="37.8828303" lon="15.0915489"><ele>475.66666666666663</ele><time>2026-04-26T10:48:38.08Z</time></trkpt><trkpt lat="37.8827784" lon="15.0913231"><ele>478.33333333333337</ele><time>2026-04-26T10:48:39.08Z</time></trkpt><trkpt lat="37.8827363" lon="15.0911001"><ele>481.0</ele><time>2026-04-26T10:48:40.084Z</time></trkpt><trkpt lat="37.8827023" lon="15.0908735"><ele>484.0</ele><time>2026-04-26T10:48:41.081Z</time></trkpt><trkpt lat="37.8826717" lon="15.0906391"><ele>487.0</ele><time>2026-04-26T10:48:42.09Z</time></trkpt><trkpt lat="37.8826447" lon="15.0904133"><ele>490.0</ele><time>2026-04-26T10:48:43.074Z</time></trkpt><trkpt lat="37.882623" lon="15.0902107"><ele>490.0</ele><time>2026-04-26T10:48:44.085Z</time></trkpt><trkpt lat="37.8826105" lon="15.0900243"><ele>490.0</ele><time>2026-04-26T10:48:45.095Z</time></trkpt><trkpt lat="37.8826064" lon="15.089858"><ele>490.0</ele><time>2026-04-26T10:48:46.083Z</time></trkpt><trkpt lat="37.8826188" lon="15.0897064"><ele>490.0</ele><time>2026-04-26T10:48:47.089Z</time></trkpt><trkpt lat="37.8826485" lon="15.0895689"><ele>491.25</ele><time>2026-04-26T10:48:48.086Z</time></trkpt><trkpt lat="37.8826945" lon="15.0894313"><ele>492.5</ele><time>2026-04-26T10:48:49.081Z</time></trkpt><trkpt lat="37.8827564" lon="15.0892951"><ele>493.75</ele><time>2026-04-26T10:48:50.087Z</time></trkpt><trkpt lat="37.8828368" lon="15.0891659"><ele>495.0</ele><time>2026-04-26T10:48:51.087Z</time></trkpt><trkpt lat="37.8829346" lon="15.0890385"><ele>496.66666666666663</ele><time>2026-04-26T10:48:52.085Z</time></trkpt><trkpt lat="37.8830407" lon="15.0889015"><ele>498.3333333333333</ele><time>2026-04-26T10:48:53.08Z</time></trkpt><trkpt lat="37.8831447" lon="15.0887436"><ele>500.0</ele><time>2026-04-26T10:48:54.085Z</time></trkpt><trkpt lat="37.883243" lon="15.0885682"><ele>500.0</ele><time>2026-04-26T10:48:55.088Z</time></trkpt><trkpt lat="37.8833329" lon="15.0883775"><ele>500.0</ele><time>2026-04-26T10:48:56.066Z</time></trkpt><trkpt lat="37.8834148" lon="15.0881724"><ele>500.0</ele><time>2026-04-26T10:48:57.089Z</time></trkpt><trkpt lat="37.8834899" lon="15.0879665"><ele>500.0</ele><time>2026-04-26T10:48:58.093Z</time></trkpt><trkpt lat="37.8835652" lon="15.0877581"><ele>500.0</ele><time>2026-04-26T10:48:59.09Z</time></trkpt><trkpt lat="37.8836416" lon="15.0875469"><ele>500.0</ele><time>2026-04-26T10:49:00.075Z</time></trkpt><trkpt lat="37.8837174" lon="15.0873363"><ele>502.66666666666663</ele><time>2026-04-26T10:49:01.089Z</time></trkpt><trkpt lat="37.8837883" lon="15.0871366"><ele>505.33333333333337</ele><time>2026-04-26T10:49:02.083Z</time></trkpt><trkpt lat="37.8838592" lon="15.0869452"><ele>508.0</ele><time>2026-04-26T10:49:03.085Z</time></trkpt><trkpt lat="37.8839357" lon="15.0867577"><ele>511.0</ele><time>2026-04-26T10:49:04.085Z</time></trkpt><trkpt lat="37.8840209" lon="15.0865769"><ele>514.0</ele><time>2026-04-26T10:49:05.088Z</time></trkpt><trkpt lat="37.8841143" lon="15.0864077"><ele>517.0</ele><time>2026-04-26T10:49:06.084Z</time></trkpt><trkpt lat="37.8842178" lon="15.0862557"><ele>516.3333333333334</ele><time>2026-04-26T10:49:07.085Z</time></trkpt><trkpt lat="37.8843301" lon="15.0861121"><ele>515.6666666666666</ele><time>2026-04-26T10:49:08.082Z</time></trkpt><trkpt lat="37.884447" lon="15.0859735"><ele>515.0</ele><time>2026-04-26T10:49:09.084Z</time></trkpt><trkpt lat="37.8845626" lon="15.085829"><ele>516.3333333333333</ele><time>2026-04-26T10:49:10.086Z</time></trkpt><trkpt lat="37.8846767" lon="15.0856671"><ele>517.6666666666666</ele><time>2026-04-26T10:49:11.086Z</time></trkpt><trkpt lat="37.8847874" lon="15.0855002"><ele>519.0</ele><time>2026-04-26T10:49:12.065Z</time></trkpt><trkpt lat="37.8848894" lon="15.0853331"><ele>519.0</ele><time>2026-04-26T10:49:13.067Z</time></trkpt><trkpt lat="37.8849781" lon="15.0851674"><ele>519.0</ele><time>2026-04-26T10:49:14.083Z</time></trkpt><trkpt lat="37.8850528" lon="15.0849988"><ele>519.0</ele><time>2026-04-26T10:49:15.112Z</time></trkpt><trkpt lat="37.8851139" lon="15.0848276"><ele>517.6666666666666</ele><time>2026-04-26T10:49:16.083Z</time></trkpt><trkpt lat="37.8851682" lon="15.0846395"><ele>516.3333333333333</ele><time>2026-04-26T10:49:17.088Z</time></trkpt><trkpt lat="37.8852145" lon="15.0844352"><ele>515.0</ele><time>2026-04-26T10:49:18.088Z</time></trkpt><trkpt lat="37.885254" lon="15.0842091"><ele>514.3333333333333</ele><time>2026-04-26T10:49:19.086Z</time></trkpt><trkpt lat="37.8852845" lon="15.0839755"><ele>513.6666666666666</ele><time>2026-04-26T10:49:20.088Z</time></trkpt><trkpt lat="37.8853045" lon="15.0837431"><ele>513.0</ele><time>2026-04-26T10:49:21.083Z</time></trkpt><trkpt lat="37.8853104" lon="15.083512"><ele>513.0</ele><time>2026-04-26T10:49:22.087Z</time></trkpt><trkpt lat="37.8853027" lon="15.0832953"><ele>513.0</ele><time>2026-04-26T10:49:23.083Z</time></trkpt><trkpt lat="37.8852815" lon="15.0830798"><ele>513.0</ele><time>2026-04-26T10:49:24.081Z</time></trkpt><trkpt lat="37.8852544" lon="15.0828575"><ele>513.6666666666666</ele><time>2026-04-26T10:49:25.089Z</time></trkpt><trkpt lat="37.8852351" lon="15.0826331"><ele>514.3333333333333</ele><time>2026-04-26T10:49:26.084Z</time></trkpt><trkpt lat="37.8852306" lon="15.0824076"><ele>515.0</ele><time>2026-04-26T10:49:27.085Z</time></trkpt><trkpt lat="37.8852455" lon="15.0821871"><ele>515.3333333333333</ele><time>2026-04-26T10:49:28.089Z</time></trkpt><trkpt lat="37.885278" lon="15.0819633"><ele>515.6666666666666</ele><time>2026-04-26T10:49:29.087Z</time></trkpt><trkpt lat="37.8853228" lon="15.0817381"><ele>516.0</ele><time>2026-04-26T10:49:30.083Z</time></trkpt><trkpt lat="37.8853709" lon="15.0815188"><ele>516.3333333333334</ele><time>2026-04-26T10:49:31.066Z</time></trkpt><trkpt lat="37.8854163" lon="15.0813078"><ele>516.6666666666667</ele><time>2026-04-26T10:49:32.083Z</time></trkpt><trkpt lat="37.8854543" lon="15.0811104"><ele>517.0</ele><time>2026-04-26T10:49:33.092Z</time></trkpt><trkpt lat="37.8854805" lon="15.0809228"><ele>517.25</ele><time>2026-04-26T10:49:34.07Z</time></trkpt><trkpt lat="37.8854915" lon="15.0807365"><ele>517.5</ele><time>2026-04-26T10:49:35.083Z</time></trkpt><trkpt lat="37.8854843" lon="15.080558"><ele>517.75</ele><time>2026-04-26T10:49:36.089Z</time></trkpt><trkpt lat="37.8854586" lon="15.080392"><ele>518.0</ele><time>2026-04-26T10:49:37.084Z</time></trkpt><trkpt lat="37.8854121" lon="15.0802311"><ele>518.0</ele><time>2026-04-26T10:49:38.081Z</time></trkpt><trkpt lat="37.8853459" lon="15.0800726"><ele>518.0</ele><time>2026-04-26T10:49:39.085Z</time></trkpt><trkpt lat="37.8852659" lon="15.0799135"><ele>518.0</ele><time>2026-04-26T10:49:40.085Z</time></trkpt><trkpt lat="37.8851836" lon="15.0797523"><ele>518.0</ele><time>2026-04-26T10:49:41.088Z</time></trkpt><trkpt lat="37.8851177" lon="15.0795887"><ele>520.5</ele><time>2026-04-26T10:49:42.086Z</time></trkpt><trkpt lat="37.8850751" lon="15.0794293"><ele>523.0</ele><time>2026-04-26T10:49:43.083Z</time></trkpt><trkpt lat="37.8850541" lon="15.0792714"><ele>525.5</ele><time>2026-04-26T10:49:44.082Z</time></trkpt><trkpt lat="37.8850492" lon="15.0790987"><ele>528.0</ele><time>2026-04-26T10:49:45.095Z</time></trkpt><trkpt lat="37.8850589" lon="15.0789132"><ele>528.75</ele><time>2026-04-26T10:49:46.083Z</time></trkpt><trkpt lat="37.8850771" lon="15.078738"><ele>529.5</ele><time>2026-04-26T10:49:47.095Z</time></trkpt><trkpt lat="37.8850835" lon="15.0785777"><ele>530.25</ele><time>2026-04-26T10:49:48.066Z</time></trkpt><trkpt lat="37.885059" lon="15.0784054"><ele>531.0</ele><time>2026-04-26T10:49:49.082Z</time></trkpt><trkpt lat="37.8850063" lon="15.0782362"><ele>533.3333333333334</ele><time>2026-04-26T10:49:50.085Z</time></trkpt><trkpt lat="37.8849332" lon="15.0780758"><ele>535.6666666666667</ele><time>2026-04-26T10:49:51.081Z</time></trkpt><trkpt lat="37.8848443" lon="15.0779179"><ele>538.0</ele><time>2026-04-26T10:49:52.088Z</time></trkpt><trkpt lat="37.884754" lon="15.0777536"><ele>538.0</ele><time>2026-04-26T10:49:53.087Z</time></trkpt><trkpt lat="37.8846772" lon="15.0775713"><ele>538.0</ele><time>2026-04-26T10:49:54.071Z</time></trkpt><trkpt lat="37.8846198" lon="15.0773717"><ele>538.0</ele><time>2026-04-26T10:49:55.086Z</time></trkpt><trkpt lat="37.8845832" lon="15.0771648"><ele>540.0</ele><time>2026-04-26T10:49:56.085Z</time></trkpt><trkpt lat="37.8845686" lon="15.0769573"><ele>542.0</ele><time>2026-04-26T10:49:57.086Z</time></trkpt><trkpt lat="37.8845678" lon="15.0767451"><ele>544.0</ele><time>2026-04-26T10:49:58.082Z</time></trkpt><trkpt lat="37.8845664" lon="15.0765334"><ele>544.0</ele><time>2026-04-26T10:49:59.078Z</time></trkpt><trkpt lat="37.8845547" lon="15.0763338"><ele>544.0</ele><time>2026-04-26T10:50:00.068Z</time></trkpt><trkpt lat="37.884529" lon="15.076154"><ele>544.0</ele><time>2026-04-26T10:50:01.087Z</time></trkpt><trkpt lat="37.8844903" lon="15.0760029"><ele>544.0</ele><time>2026-04-26T10:50:02.087Z</time></trkpt><trkpt lat="37.8844381" lon="15.07587"><ele>544.0</ele><time>2026-04-26T10:50:03.085Z</time></trkpt><trkpt lat="37.8843688" lon="15.0757544"><ele>544.0</ele><time>2026-04-26T10:50:04.078Z</time></trkpt><trkpt lat="37.8842867" lon="15.0756484"><ele>544.0</ele><time>2026-04-26T10:50:05.088Z</time></trkpt><trkpt lat="37.8841949" lon="15.075544"><ele>544.0</ele><time>2026-04-26T10:50:06.081Z</time></trkpt><trkpt lat="37.8840914" lon="15.0754494"><ele>544.0</ele><time>2026-04-26T10:50:07.083Z</time></trkpt><trkpt lat="37.8839807" lon="15.0753629"><ele>544.0</ele><time>2026-04-26T10:50:08.065Z</time></trkpt><trkpt lat="37.8838735" lon="15.0752667"><ele>544.0</ele><time>2026-04-26T10:50:09.083Z</time></trkpt><trkpt lat="37.8837758" lon="15.0751727"><ele>544.0</ele><time>2026-04-26T10:50:10.082Z</time></trkpt><trkpt lat="37.8836679" lon="15.0750935"><ele>544.0</ele><time>2026-04-26T10:50:11.084Z</time></trkpt><trkpt lat="37.883543" lon="15.0750312"><ele>544.0</ele><time>2026-04-26T10:50:12.085Z</time></trkpt><trkpt lat="37.8834179" lon="15.0749796"><ele>544.0</ele><time>2026-04-26T10:50:13.093Z</time></trkpt><trkpt lat="37.8833155" lon="15.0749334"><ele>544.0</ele><time>2026-04-26T10:50:14.066Z</time></trkpt><trkpt lat="37.8832376" lon="15.0748791"><ele>545.1666666666667</ele><time>2026-04-26T10:50:15.086Z</time></trkpt><trkpt lat="37.8831946" lon="15.0748145"><ele>546.3333333333334</ele><time>2026-04-26T10:50:16.064Z</time></trkpt><trkpt lat="37.8831728" lon="15.0747335"><ele>547.5</ele><time>2026-04-26T10:50:17.067Z</time></trkpt><trkpt lat="37.8831684" lon="15.0746234"><ele>548.6666666666666</ele><time>2026-04-26T10:50:18.084Z</time></trkpt><trkpt lat="37.8831655" lon="15.074489"><ele>549.8333333333333</ele><time>2026-04-26T10:50:19.09Z</time></trkpt><trkpt lat="37.8831559" lon="15.0743394"><ele>551.0</ele><time>2026-04-26T10:50:20.085Z</time></trkpt><trkpt lat="37.883149" lon="15.0741843"><ele>551.5</ele><time>2026-04-26T10:50:21.083Z</time></trkpt><trkpt lat="37.8831489" lon="15.0740345"><ele>552.0</ele><time>2026-04-26T10:50:22.085Z</time></trkpt><trkpt lat="37.8831553" lon="15.0738887"><ele>552.5</ele><time>2026-04-26T10:50:23.086Z</time></trkpt><trkpt lat="37.8831692" lon="15.0737444"><ele>553.0</ele><time>2026-04-26T10:50:24.084Z</time></trkpt><trkpt lat="37.8831904" lon="15.0736027"><ele>553.0</ele><time>2026-04-26T10:50:25.09Z</time></trkpt><trkpt lat="37.8832145" lon="15.0734639"><ele>553.0</ele><time>2026-04-26T10:50:26.066Z</time></trkpt><trkpt lat="37.8832356" lon="15.0733311"><ele>553.0</ele><time>2026-04-26T10:50:27.066Z</time></trkpt><trkpt lat="37.8832492" lon="15.0732057"><ele>553.0</ele><time>2026-04-26T10:50:28.085Z</time></trkpt><trkpt lat="37.8832526" lon="15.0730931"><ele>553.0</ele><time>2026-04-26T10:50:29.089Z</time></trkpt><trkpt lat="37.8832383" lon="15.0729878"><ele>552.6</ele><time>2026-04-26T10:50:30.085Z</time></trkpt><trkpt lat="37.8831976" lon="15.0728915"><ele>552.1999999999999</ele><time>2026-04-26T10:50:31.084Z</time></trkpt><trkpt lat="37.8831372" lon="15.0728033"><ele>551.8</ele><time>2026-04-26T10:50:32.082Z</time></trkpt><trkpt lat="37.8830645" lon="15.0727074"><ele>551.4</ele><time>2026-04-26T10:50:33.077Z</time></trkpt><trkpt lat="37.8829885" lon="15.0725865"><ele>551.0</ele><time>2026-04-26T10:50:34.062Z</time></trkpt><trkpt lat="37.8829138" lon="15.0724444"><ele>550.25</ele><time>2026-04-26T10:50:35.063Z</time></trkpt><trkpt lat="37.8828441" lon="15.0722894"><ele>549.5</ele><time>2026-04-26T10:50:36.086Z</time></trkpt><trkpt lat="37.8827858" lon="15.0721333"><ele>548.75</ele><time>2026-04-26T10:50:37.085Z</time></trkpt><trkpt lat="37.8827361" lon="15.0719844"><ele>548.0</ele><time>2026-04-26T10:50:38.086Z</time></trkpt><trkpt lat="37.8826938" lon="15.0718488"><ele>548.0</ele><time>2026-04-26T10:50:39.087Z</time></trkpt><trkpt lat="37.8826571" lon="15.071727"><ele>548.0</ele><time>2026-04-26T10:50:40.082Z</time></trkpt><trkpt lat="37.8826256" lon="15.0716119"><ele>548.0</ele><time>2026-04-26T10:50:41.082Z</time></trkpt><trkpt lat="37.8826019" lon="15.0715037"><ele>548.0</ele><time>2026-04-26T10:50:42.081Z</time></trkpt><trkpt lat="37.8825902" lon="15.0713971"><ele>548.0</ele><time>2026-04-26T10:50:43.087Z</time></trkpt><trkpt lat="37.8825922" lon="15.0712919"><ele>548.3333333333333</ele><time>2026-04-26T10:50:44.082Z</time></trkpt><trkpt lat="37.8826071" lon="15.0711941"><ele>548.6666666666666</ele><time>2026-04-26T10:50:45.089Z</time></trkpt><trkpt lat="37.8826371" lon="15.0711079"><ele>549.0</ele><time>2026-04-26T10:50:46.082Z</time></trkpt><trkpt lat="37.8826822" lon="15.0710259"><ele>549.3333333333334</ele><time>2026-04-26T10:50:47.068Z</time></trkpt><trkpt lat="37.8827441" lon="15.0709432"><ele>549.6666666666667</ele><time>2026-04-26T10:50:48.064Z</time></trkpt><trkpt lat="37.8828172" lon="15.0708558"><ele>550.0</ele><time>2026-04-26T10:50:49.084Z</time></trkpt><trkpt lat="37.8828925" lon="15.0707683"><ele>550.2</ele><time>2026-04-26T10:50:50.061Z</time></trkpt><trkpt lat="37.8829655" lon="15.070669"><ele>550.4</ele><time>2026-04-26T10:50:51.079Z</time></trkpt><trkpt lat="37.8830259" lon="15.070557"><ele>550.6</ele><time>2026-04-26T10:50:52.085Z</time></trkpt><trkpt lat="37.8830682" lon="15.0704429"><ele>550.8</ele><time>2026-04-26T10:50:53.086Z</time></trkpt><trkpt lat="37.8830941" lon="15.0703354"><ele>551.0</ele><time>2026-04-26T10:50:54.065Z</time></trkpt><trkpt lat="37.883106" lon="15.0702269"><ele>551.0</ele><time>2026-04-26T10:50:55.063Z</time></trkpt><trkpt lat="37.8831236" lon="15.0701165"><ele>551.0</ele><time>2026-04-26T10:50:56.075Z</time></trkpt><trkpt lat="37.8831573" lon="15.0700091"><ele>551.0</ele><time>2026-04-26T10:50:57.081Z</time></trkpt><trkpt lat="37.8832022" lon="15.0698954"><ele>551.0</ele><time>2026-04-26T10:50:58.086Z</time></trkpt><trkpt lat="37.8832483" lon="15.0697677"><ele>551.0</ele><time>2026-04-26T10:50:59.064Z</time></trkpt><trkpt lat="37.8832855" lon="15.0696304"><ele>552.0</ele><time>2026-04-26T10:51:00.075Z</time></trkpt><trkpt lat="37.8833078" lon="15.0694876"><ele>553.0</ele><time>2026-04-26T10:51:01.063Z</time></trkpt><trkpt lat="37.8833203" lon="15.0693294"><ele>554.0</ele><time>2026-04-26T10:51:02.082Z</time></trkpt><trkpt lat="37.8833255" lon="15.0691661"><ele>555.0</ele><time>2026-04-26T10:51:03.084Z</time></trkpt><trkpt lat="37.8833305" lon="15.0690152"><ele>555.25</ele><time>2026-04-26T10:51:04.079Z</time></trkpt><trkpt lat="37.8833351" lon="15.0688728"><ele>555.5</ele><time>2026-04-26T10:51:05.08Z</time></trkpt><trkpt lat="37.8833398" lon="15.0687267"><ele>555.75</ele><time>2026-04-26T10:51:06.087Z</time></trkpt><trkpt lat="37.8833421" lon="15.0685758"><ele>556.0</ele><time>2026-04-26T10:51:07.089Z</time></trkpt><trkpt lat="37.8833428" lon="15.0684179"><ele>555.75</ele><time>2026-04-26T10:51:08.087Z</time></trkpt><trkpt lat="37.8833397" lon="15.0682496"><ele>555.5</ele><time>2026-04-26T10:51:09.086Z</time></trkpt><trkpt lat="37.8833292" lon="15.0680739"><ele>555.25</ele><time>2026-04-26T10:51:10.067Z</time></trkpt><trkpt lat="37.8833155" lon="15.0678877"><ele>555.0</ele><time>2026-04-26T10:51:11.085Z</time></trkpt><trkpt lat="37.883299" lon="15.0677016"><ele>555.0</ele><time>2026-04-26T10:51:12.085Z</time></trkpt><trkpt lat="37.8832832" lon="15.0675336"><ele>555.0</ele><time>2026-04-26T10:51:13.087Z</time></trkpt><trkpt lat="37.8832781" lon="15.0673961"><ele>555.0</ele><time>2026-04-26T10:51:14.082Z</time></trkpt><trkpt lat="37.8832901" lon="15.0672661"><ele>555.0</ele><time>2026-04-26T10:51:15.086Z</time></trkpt><trkpt lat="37.8833195" lon="15.0671436"><ele>555.0</ele><time>2026-04-26T10:51:16.086Z</time></trkpt><trkpt lat="37.8833586" lon="15.0670183"><ele>555.25</ele><time>2026-04-26T10:51:17.088Z</time></trkpt><trkpt lat="37.883406" lon="15.0668846"><ele>555.5</ele><time>2026-04-26T10:51:18.086Z</time></trkpt><trkpt lat="37.8834596" lon="15.0667448"><ele>555.75</ele><time>2026-04-26T10:51:19.088Z</time></trkpt><trkpt lat="37.8835134" lon="15.0666187"><ele>556.0</ele><time>2026-04-26T10:51:20.084Z</time></trkpt><trkpt lat="37.8835705" lon="15.0665165"><ele>556.1666666666667</ele><time>2026-04-26T10:51:21.084Z</time></trkpt><trkpt lat="37.8836334" lon="15.0664345"><ele>556.3333333333334</ele><time>2026-04-26T10:51:22.084Z</time></trkpt><trkpt lat="37.8836975" lon="15.0663623"><ele>556.5</ele><time>2026-04-26T10:51:23.084Z</time></trkpt><trkpt lat="37.8837513" lon="15.0662871"><ele>556.6666666666666</ele><time>2026-04-26T10:51:24.084Z</time></trkpt><trkpt lat="37.8837858" lon="15.0662053"><ele>556.8333333333333</ele><time>2026-04-26T10:51:25.062Z</time></trkpt><trkpt lat="37.8837996" lon="15.0661154"><ele>557.0</ele><time>2026-04-26T10:51:26.079Z</time></trkpt><trkpt lat="37.8837952" lon="15.0660187"><ele>557.0</ele><time>2026-04-26T10:51:27.085Z</time></trkpt><trkpt lat="37.8837794" lon="15.0659222"><ele>557.0</ele><time>2026-04-26T10:51:28.084Z</time></trkpt><trkpt lat="37.883752" lon="15.06581"><ele>557.0</ele><time>2026-04-26T10:51:29.083Z</time></trkpt><trkpt lat="37.8837148" lon="15.065685"><ele>557.0</ele><time>2026-04-26T10:51:30.066Z</time></trkpt><trkpt lat="37.8836763" lon="15.0655512"><ele>557.0</ele><time>2026-04-26T10:51:31.084Z</time></trkpt><trkpt lat="37.8836497" lon="15.0654217"><ele>557.1666666666666</ele><time>2026-04-26T10:51:32.085Z</time></trkpt><trkpt lat="37.883643" lon="15.0653164"><ele>557.3333333333333</ele><time>2026-04-26T10:51:33.083Z</time></trkpt><trkpt lat="37.8836553" lon="15.0652376"><ele>557.5</ele><time>2026-04-26T10:51:34.082Z</time></trkpt><trkpt lat="37.8836866" lon="15.0651623"><ele>557.6666666666666</ele><time>2026-04-26T10:51:35.083Z</time></trkpt><trkpt lat="37.8837322" lon="15.0650692"><ele>557.8333333333334</ele><time>2026-04-26T10:51:36.081Z</time></trkpt><trkpt lat="37.88377" lon="15.0649633"><ele>558.0</ele><time>2026-04-26T10:51:37.069Z</time></trkpt><trkpt lat="37.8837844" lon="15.0648567"><ele>558.1666666666666</ele><time>2026-04-26T10:51:38.084Z</time></trkpt><trkpt lat="37.8837748" lon="15.064756"><ele>558.3333333333334</ele><time>2026-04-26T10:51:39.088Z</time></trkpt><trkpt lat="37.8837409" lon="15.0646647"><ele>558.5</ele><time>2026-04-26T10:51:40.083Z</time></trkpt><trkpt lat="37.883696" lon="15.0645734"><ele>558.6666666666667</ele><time>2026-04-26T10:51:41.065Z</time></trkpt><trkpt lat="37.8836582" lon="15.0644812"><ele>558.8333333333334</ele><time>2026-04-26T10:51:42.076Z</time></trkpt><trkpt lat="37.8836355" lon="15.0643779"><ele>559.0</ele><time>2026-04-26T10:51:43.084Z</time></trkpt><trkpt lat="37.8836303" lon="15.0642658"><ele>559.0</ele><time>2026-04-26T10:51:44.084Z</time></trkpt><trkpt lat="37.8836461" lon="15.0641442"><ele>559.0</ele><time>2026-04-26T10:51:45.102Z</time></trkpt><trkpt lat="37.8836792" lon="15.0640047"><ele>559.0</ele><time>2026-04-26T10:51:46.065Z</time></trkpt><trkpt lat="37.8837195" lon="15.0638437"><ele>559.0</ele><time>2026-04-26T10:51:47.081Z</time></trkpt><trkpt lat="37.8837563" lon="15.0636839"><ele>560.0</ele><time>2026-04-26T10:51:48.079Z</time></trkpt><trkpt lat="37.8837931" lon="15.0635318"><ele>561.0</ele><time>2026-04-26T10:51:49.087Z</time></trkpt><trkpt lat="37.8838294" lon="15.0633933"><ele>562.0</ele><time>2026-04-26T10:51:50.085Z</time></trkpt><trkpt lat="37.883861" lon="15.0632633"><ele>563.0</ele><time>2026-04-26T10:51:51.087Z</time></trkpt><trkpt lat="37.8838881" lon="15.0631392"><ele>563.0</ele><time>2026-04-26T10:51:52.083Z</time></trkpt><trkpt lat="37.8839114" lon="15.0630196"><ele>563.0</ele><time>2026-04-26T10:51:53.082Z</time></trkpt><trkpt lat="37.8839359" lon="15.0629101"><ele>563.0</ele><time>2026-04-26T10:51:54.083Z</time></trkpt><trkpt lat="37.8839568" lon="15.0628172"><ele>563.0</ele><time>2026-04-26T10:51:55.07Z</time></trkpt><trkpt lat="37.8839651" lon="15.0627352"><ele>563.0</ele><time>2026-04-26T10:51:56.087Z</time></trkpt><trkpt lat="37.8839183" lon="15.0625981"><ele>563.0</ele><time>2026-04-26T10:51:58.079Z</time></trkpt><trkpt lat="37.8838495" lon="15.0625269"><ele>563.0</ele><time>2026-04-26T10:51:59.065Z</time></trkpt><trkpt lat="37.8837614" lon="15.0624387"><ele>563.0</ele><time>2026-04-26T10:52:00.069Z</time></trkpt><trkpt lat="37.8836917" lon="15.0623406"><ele>563.0</ele><time>2026-04-26T10:52:01.088Z</time></trkpt><trkpt lat="37.883637" lon="15.0622409"><ele>563.0</ele><time>2026-04-26T10:52:02.08Z</time></trkpt><trkpt lat="37.8836008" lon="15.062141"><ele>563.0</ele><time>2026-04-26T10:52:03.063Z</time></trkpt><trkpt lat="37.8835792" lon="15.062032"><ele>563.0</ele><time>2026-04-26T10:52:04.081Z</time></trkpt><trkpt lat="37.8835709" lon="15.0619094"><ele>563.0</ele><time>2026-04-26T10:52:05.086Z</time></trkpt><trkpt lat="37.8835691" lon="15.061768"><ele>563.0</ele><time>2026-04-26T10:52:06.067Z</time></trkpt><trkpt lat="37.8835649" lon="15.0616233"><ele>563.0</ele><time>2026-04-26T10:52:07.064Z</time></trkpt><trkpt lat="37.8835521" lon="15.0614886"><ele>563.0</ele><time>2026-04-26T10:52:08.08Z</time></trkpt><trkpt lat="37.8835366" lon="15.0613609"><ele>563.0</ele><time>2026-04-26T10:52:09.083Z</time></trkpt><trkpt lat="37.8835313" lon="15.0612323"><ele>563.0</ele><time>2026-04-26T10:52:10.064Z</time></trkpt><trkpt lat="37.8835264" lon="15.0610948"><ele>563.0</ele><time>2026-04-26T10:52:11.064Z</time></trkpt><trkpt lat="37.883526" lon="15.0609489"><ele>563.0</ele><time>2026-04-26T10:52:12.081Z</time></trkpt><trkpt lat="37.8835334" lon="15.060797"><ele>563.0</ele><time>2026-04-26T10:52:13.079Z</time></trkpt><trkpt lat="37.8835479" lon="15.0606377"><ele>563.5</ele><time>2026-04-26T10:52:14.066Z</time></trkpt><trkpt lat="37.8835684" lon="15.0604738"><ele>564.0</ele><time>2026-04-26T10:52:15.095Z</time></trkpt><trkpt lat="37.8835933" lon="15.0603108"><ele>564.5</ele><time>2026-04-26T10:52:16.068Z</time></trkpt><trkpt lat="37.8836194" lon="15.0601505"><ele>565.0</ele><time>2026-04-26T10:52:17.084Z</time></trkpt><trkpt lat="37.8836465" lon="15.0600064"><ele>565.8</ele><time>2026-04-26T10:52:18.077Z</time></trkpt><trkpt lat="37.883681" lon="15.0598731"><ele>566.6</ele><time>2026-04-26T10:52:19.09Z</time></trkpt><trkpt lat="37.8837245" lon="15.0597477"><ele>567.4</ele><time>2026-04-26T10:52:20.083Z</time></trkpt><trkpt lat="37.8837691" lon="15.0596268"><ele>568.2</ele><time>2026-04-26T10:52:21.08Z</time></trkpt><trkpt lat="37.8838126" lon="15.0595132"><ele>569.0</ele><time>2026-04-26T10:52:22.083Z</time></trkpt><trkpt lat="37.8838678" lon="15.0594049"><ele>569.0</ele><time>2026-04-26T10:52:23.079Z</time></trkpt><trkpt lat="37.8839379" lon="15.0593007"><ele>569.0</ele><time>2026-04-26T10:52:24.084Z</time></trkpt><trkpt lat="37.8840132" lon="15.0592031"><ele>569.0</ele><time>2026-04-26T10:52:25.091Z</time></trkpt><trkpt lat="37.8840827" lon="15.0591093"><ele>569.0</ele><time>2026-04-26T10:52:26.085Z</time></trkpt><trkpt lat="37.8841487" lon="15.0590248"><ele>569.0</ele><time>2026-04-26T10:52:27.092Z</time></trkpt><trkpt lat="37.8842182" lon="15.0589702"><ele>568.6</ele><time>2026-04-26T10:52:28.085Z</time></trkpt><trkpt lat="37.8842964" lon="15.0589475"><ele>568.2</ele><time>2026-04-26T10:52:29.083Z</time></trkpt><trkpt lat="37.8843813" lon="15.0589292"><ele>567.8000000000001</ele><time>2026-04-26T10:52:30.076Z</time></trkpt><trkpt lat="37.884472" lon="15.0588952"><ele>567.4</ele><time>2026-04-26T10:52:31.084Z</time></trkpt><trkpt lat="37.8845677" lon="15.0588345"><ele>567.0</ele><time>2026-04-26T10:52:32.084Z</time></trkpt><trkpt lat="37.8846632" lon="15.0587447"><ele>567.0</ele><time>2026-04-26T10:52:33.09Z</time></trkpt><trkpt lat="37.8847547" lon="15.0586515"><ele>567.0</ele><time>2026-04-26T10:52:34.086Z</time></trkpt><trkpt lat="37.8848326" lon="15.0585622"><ele>567.0</ele><time>2026-04-26T10:52:35.093Z</time></trkpt><trkpt lat="37.884883" lon="15.058473"><ele>567.0</ele><time>2026-04-26T10:52:36.084Z</time></trkpt><trkpt lat="37.8849033" lon="15.0583788"><ele>567.0</ele><time>2026-04-26T10:52:37.065Z</time></trkpt><trkpt lat="37.8849039" lon="15.058258"><ele>566.75</ele><time>2026-04-26T10:52:38.084Z</time></trkpt><trkpt lat="37.8848929" lon="15.0580993"><ele>566.5</ele><time>2026-04-26T10:52:39.083Z</time></trkpt><trkpt lat="37.8848804" lon="15.0579292"><ele>566.25</ele><time>2026-04-26T10:52:40.064Z</time></trkpt><trkpt lat="37.8848666" lon="15.0577762"><ele>566.0</ele><time>2026-04-26T10:52:41.062Z</time></trkpt><trkpt lat="37.8848575" lon="15.0576439"><ele>566.0</ele><time>2026-04-26T10:52:42.079Z</time></trkpt><trkpt lat="37.8848576" lon="15.0575201"><ele>566.0</ele><time>2026-04-26T10:52:43.067Z</time></trkpt><trkpt lat="37.8848772" lon="15.0573842"><ele>566.0</ele><time>2026-04-26T10:52:44.081Z</time></trkpt><trkpt lat="37.8849105" lon="15.0572304"><ele>566.0</ele><time>2026-04-26T10:52:45.078Z</time></trkpt><trkpt lat="37.8849384" lon="15.0570646"><ele>566.0</ele><time>2026-04-26T10:52:46.079Z</time></trkpt><trkpt lat="37.8849569" lon="15.056901"><ele>566.0</ele><time>2026-04-26T10:52:47.086Z</time></trkpt><trkpt lat="37.8849798" lon="15.0567538"><ele>566.0</ele><time>2026-04-26T10:52:48.09Z</time></trkpt><trkpt lat="37.8850135" lon="15.0566248"><ele>566.0</ele><time>2026-04-26T10:52:49.075Z</time></trkpt><trkpt lat="37.8850612" lon="15.056515"><ele>566.4</ele><time>2026-04-26T10:52:50.084Z</time></trkpt><trkpt lat="37.8851238" lon="15.0564071"><ele>566.8</ele><time>2026-04-26T10:52:51.079Z</time></trkpt><trkpt lat="37.8851931" lon="15.0562989"><ele>567.1999999999999</ele><time>2026-04-26T10:52:52.085Z</time></trkpt><trkpt lat="37.8852595" lon="15.0561976"><ele>567.6</ele><time>2026-04-26T10:52:53.087Z</time></trkpt><trkpt lat="37.8853214" lon="15.0561003"><ele>568.0</ele><time>2026-04-26T10:52:54.085Z</time></trkpt><trkpt lat="37.8853706" lon="15.0559956"><ele>568.0</ele><time>2026-04-26T10:52:55.089Z</time></trkpt><trkpt lat="37.8854029" lon="15.0558822"><ele>568.0</ele><time>2026-04-26T10:52:56.065Z</time></trkpt><trkpt lat="37.885422" lon="15.0557489"><ele>568.0</ele><time>2026-04-26T10:52:57.065Z</time></trkpt><trkpt lat="37.8854317" lon="15.0555879"><ele>568.0</ele><time>2026-04-26T10:52:58.083Z</time></trkpt><trkpt lat="37.8854386" lon="15.055426"><ele>568.8</ele><time>2026-04-26T10:52:59.084Z</time></trkpt><trkpt lat="37.8854424" lon="15.0552788"><ele>569.5999999999999</ele><time>2026-04-26T10:53:00.08Z</time></trkpt><trkpt lat="37.8854346" lon="15.0551433"><ele>570.4000000000001</ele><time>2026-04-26T10:53:01.086Z</time></trkpt><trkpt lat="37.8854083" lon="15.0550296"><ele>571.2</ele><time>2026-04-26T10:53:02.081Z</time></trkpt><trkpt lat="37.8853603" lon="15.0549358"><ele>572.0</ele><time>2026-04-26T10:53:03.09Z</time></trkpt><trkpt lat="37.8852892" lon="15.0548506"><ele>573.5</ele><time>2026-04-26T10:53:04.083Z</time></trkpt><trkpt lat="37.8851972" lon="15.0547705"><ele>575.0</ele><time>2026-04-26T10:53:05.089Z</time></trkpt><trkpt lat="37.8850889" lon="15.0546803"><ele>576.5</ele><time>2026-04-26T10:53:06.075Z</time></trkpt><trkpt lat="37.8849668" lon="15.0545764"><ele>578.0</ele><time>2026-04-26T10:53:07.082Z</time></trkpt><trkpt lat="37.8848452" lon="15.054479"><ele>578.0</ele><time>2026-04-26T10:53:08.086Z</time></trkpt><trkpt lat="37.8847394" lon="15.0543984"><ele>578.0</ele><time>2026-04-26T10:53:09.069Z</time></trkpt><trkpt lat="37.884663" lon="15.0543387"><ele>578.0</ele><time>2026-04-26T10:53:10.082Z</time></trkpt><trkpt lat="37.8845895" lon="15.0542265"><ele>578.0</ele><time>2026-04-26T10:53:12.076Z</time></trkpt><trkpt lat="37.8845768" lon="15.0541405"><ele>578.0</ele><time>2026-04-26T10:53:13.085Z</time></trkpt><trkpt lat="37.8845741" lon="15.0540352"><ele>579.0</ele><time>2026-04-26T10:53:14.064Z</time></trkpt><trkpt lat="37.8845723" lon="15.0538986"><ele>580.0</ele><time>2026-04-26T10:53:15.092Z</time></trkpt><trkpt lat="37.8845837" lon="15.0537618"><ele>581.0</ele><time>2026-04-26T10:53:16.086Z</time></trkpt><trkpt lat="37.8846122" lon="15.0536308"><ele>582.0</ele><time>2026-04-26T10:53:17.085Z</time></trkpt><trkpt lat="37.8846583" lon="15.053501"><ele>583.0</ele><time>2026-04-26T10:53:18.082Z</time></trkpt><trkpt lat="37.884716" lon="15.0533711"><ele>583.4</ele><time>2026-04-26T10:53:19.067Z</time></trkpt><trkpt lat="37.8847677" lon="15.053249"><ele>583.8</ele><time>2026-04-26T10:53:20.066Z</time></trkpt><trkpt lat="37.8848015" lon="15.053136"><ele>584.2</ele><time>2026-04-26T10:53:21.083Z</time></trkpt><trkpt lat="37.8848095" lon="15.0530207"><ele>584.6</ele><time>2026-04-26T10:53:22.087Z</time></trkpt><trkpt lat="37.8848006" lon="15.0528955"><ele>585.0</ele><time>2026-04-26T10:53:23.083Z</time></trkpt><trkpt lat="37.8847724" lon="15.0527713"><ele>585.0</ele><time>2026-04-26T10:53:24.086Z</time></trkpt><trkpt lat="37.884726" lon="15.0526679"><ele>585.0</ele><time>2026-04-26T10:53:25.077Z</time></trkpt><trkpt lat="37.8846631" lon="15.0525856"><ele>585.0</ele><time>2026-04-26T10:53:26.083Z</time></trkpt><trkpt lat="37.884607" lon="15.0525166"><ele>585.0</ele><time>2026-04-26T10:53:27.079Z</time></trkpt><trkpt lat="37.884576" lon="15.0524443"><ele>585.0</ele><time>2026-04-26T10:53:28.085Z</time></trkpt><trkpt lat="37.8846224" lon="15.0522883"><ele>585.75</ele><time>2026-04-26T10:53:30.079Z</time></trkpt><trkpt lat="37.8846712" lon="15.0521782"><ele>586.5</ele><time>2026-04-26T10:53:31.084Z</time></trkpt><trkpt lat="37.8847243" lon="15.0520438"><ele>587.25</ele><time>2026-04-26T10:53:32.079Z</time></trkpt><trkpt lat="37.8847668" lon="15.0518979"><ele>588.0</ele><time>2026-04-26T10:53:33.083Z</time></trkpt><trkpt lat="37.8847939" lon="15.0517516"><ele>588.6</ele><time>2026-04-26T10:53:34.077Z</time></trkpt><trkpt lat="37.884814" lon="15.0516147"><ele>589.1999999999999</ele><time>2026-04-26T10:53:35.062Z</time></trkpt><trkpt lat="37.8848292" lon="15.0514834"><ele>589.8</ele><time>2026-04-26T10:53:36.075Z</time></trkpt><trkpt lat="37.8848274" lon="15.0513682"><ele>590.4</ele><time>2026-04-26T10:53:37.083Z</time></trkpt><trkpt lat="37.8848069" lon="15.0512636"><ele>591.0</ele><time>2026-04-26T10:53:38.079Z</time></trkpt><trkpt lat="37.8847901" lon="15.0511711"><ele>591.0</ele><time>2026-04-26T10:53:39.067Z</time></trkpt><trkpt lat="37.8847986" lon="15.0510183"><ele>591.0</ele><time>2026-04-26T10:53:41.083Z</time></trkpt><trkpt lat="37.8848321" lon="15.0509448"><ele>591.0</ele><time>2026-04-26T10:53:42.08Z</time></trkpt><trkpt lat="37.8848684" lon="15.0508599"><ele>591.0</ele><time>2026-04-26T10:53:43.09Z</time></trkpt><trkpt lat="37.8848846" lon="15.0507615"><ele>591.0</ele><time>2026-04-26T10:53:44.07Z</time></trkpt><trkpt lat="37.8848773" lon="15.0506275"><ele>591.0</ele><time>2026-04-26T10:53:45.084Z</time></trkpt><trkpt lat="37.8848588" lon="15.050456"><ele>592.0</ele><time>2026-04-26T10:53:46.081Z</time></trkpt><trkpt lat="37.8848334" lon="15.0502557"><ele>593.0</ele><time>2026-04-26T10:53:47.065Z</time></trkpt><trkpt lat="37.8848112" lon="15.0500522"><ele>594.0</ele><time>2026-04-26T10:53:48.091Z</time></trkpt><trkpt lat="37.8847999" lon="15.0498809"><ele>594.0</ele><time>2026-04-26T10:53:49.09Z</time></trkpt><trkpt lat="37.8848113" lon="15.0497432"><ele>594.0</ele><time>2026-04-26T10:53:50.082Z</time></trkpt><trkpt lat="37.8848443" lon="15.0496176"><ele>594.0</ele><time>2026-04-26T10:53:51.082Z</time></trkpt><trkpt lat="37.884893" lon="15.0494883"><ele>594.0</ele><time>2026-04-26T10:53:52.085Z</time></trkpt><trkpt lat="37.8849411" lon="15.049365"><ele>594.0</ele><time>2026-04-26T10:53:53.083Z</time></trkpt><trkpt lat="37.8849747" lon="15.0492586"><ele>594.0</ele><time>2026-04-26T10:53:54.091Z</time></trkpt><trkpt lat="37.8849844" lon="15.0491621"><ele>594.0</ele><time>2026-04-26T10:53:55.081Z</time></trkpt><trkpt lat="37.8849765" lon="15.0490762"><ele>594.0</ele><time>2026-04-26T10:53:56.085Z</time></trkpt><trkpt lat="37.8849599" lon="15.0489938"><ele>594.0</ele><time>2026-04-26T10:53:57.08Z</time></trkpt><trkpt lat="37.884974" lon="15.0488439"><ele>594.0</ele><time>2026-04-26T10:53:59.081Z</time></trkpt><trkpt lat="37.8850416" lon="15.0487874"><ele>594.0</ele><time>2026-04-26T10:54:00.072Z</time></trkpt><trkpt lat="37.8851258" lon="15.0487345"><ele>591.5</ele><time>2026-04-26T10:54:01.078Z</time></trkpt><trkpt lat="37.8852" lon="15.0486806"><ele>589.0</ele><time>2026-04-26T10:54:02.082Z</time></trkpt><trkpt lat="37.8852484" lon="15.0486237"><ele>586.5</ele><time>2026-04-26T10:54:03.084Z</time></trkpt><trkpt lat="37.8852318" lon="15.0484779"><ele>584.0</ele><time>2026-04-26T10:54:05.08Z</time></trkpt><trkpt lat="37.8851813" lon="15.0484127"><ele>581.5</ele><time>2026-04-26T10:54:06.087Z</time></trkpt><trkpt lat="37.8851305" lon="15.0483453"><ele>579.0</ele><time>2026-04-26T10:54:07.09Z</time></trkpt><trkpt lat="37.8851018" lon="15.0482607"><ele>578.4</ele><time>2026-04-26T10:54:08.07Z</time></trkpt><trkpt lat="37.8851025" lon="15.0481555"><ele>577.8</ele><time>2026-04-26T10:54:09.087Z</time></trkpt><trkpt lat="37.8851317" lon="15.0480388"><ele>577.2</ele><time>2026-04-26T10:54:10.084Z</time></trkpt><trkpt lat="37.8851734" lon="15.0478974"><ele>576.6</ele><time>2026-04-26T10:54:11.082Z</time></trkpt><trkpt lat="37.8852338" lon="15.0477315"><ele>576.0</ele><time>2026-04-26T10:54:12.084Z</time></trkpt><trkpt lat="37.8853035" lon="15.0475587"><ele>576.2</ele><time>2026-04-26T10:54:13.065Z</time></trkpt><trkpt lat="37.8853695" lon="15.0474001"><ele>576.4000000000001</ele><time>2026-04-26T10:54:14.066Z</time></trkpt><trkpt lat="37.885426" lon="15.0472619"><ele>576.6</ele><time>2026-04-26T10:54:15.11Z</time></trkpt><trkpt lat="37.8854702" lon="15.0471546"><ele>576.8000000000001</ele><time>2026-04-26T10:54:16.066Z</time></trkpt><trkpt lat="37.8855101" lon="15.0470611"><ele>577.0</ele><time>2026-04-26T10:54:17.083Z</time></trkpt><trkpt lat="37.885544" lon="15.0469798"><ele>577.0</ele><time>2026-04-26T10:54:18.091Z</time></trkpt><trkpt lat="37.8855987" lon="15.0468496"><ele>577.0</ele><time>2026-04-26T10:54:20.064Z</time></trkpt><trkpt lat="37.8856368" lon="15.0467529"><ele>577.0</ele><time>2026-04-26T10:54:22.084Z</time></trkpt><trkpt lat="37.8856889" lon="15.0466588"><ele>577.0</ele><time>2026-04-26T10:54:25.083Z</time></trkpt><trkpt lat="37.8857386" lon="15.0466023"><ele>577.0</ele><time>2026-04-26T10:54:27.064Z</time></trkpt><trkpt lat="37.8858048" lon="15.0465398"><ele>577.0</ele><time>2026-04-26T10:54:29.06Z</time></trkpt><trkpt lat="37.8858683" lon="15.0464303"><ele>576.8333333333334</ele><time>2026-04-26T10:54:31.061Z</time></trkpt><trkpt lat="37.8858948" lon="15.0463511"><ele>576.6666666666667</ele><time>2026-04-26T10:54:32.074Z</time></trkpt><trkpt lat="37.8859158" lon="15.046261"><ele>576.5</ele><time>2026-04-26T10:54:33.082Z</time></trkpt><trkpt lat="37.8859361" lon="15.0461651"><ele>576.3333333333334</ele><time>2026-04-26T10:54:34.063Z</time></trkpt><trkpt lat="37.88596" lon="15.0460665"><ele>576.1666666666666</ele><time>2026-04-26T10:54:35.08Z</time></trkpt><trkpt lat="37.8859845" lon="15.0459687"><ele>576.0</ele><time>2026-04-26T10:54:36.084Z</time></trkpt><trkpt lat="37.8860073" lon="15.0458677"><ele>575.4</ele><time>2026-04-26T10:54:37.082Z</time></trkpt><trkpt lat="37.8860314" lon="15.0457609"><ele>574.8</ele><time>2026-04-26T10:54:38.08Z</time></trkpt><trkpt lat="37.886055" lon="15.045651"><ele>574.1999999999999</ele><time>2026-04-26T10:54:39.085Z</time></trkpt><trkpt lat="37.8860792" lon="15.0455344"><ele>573.6</ele><time>2026-04-26T10:54:40.08Z</time></trkpt><trkpt lat="37.8861075" lon="15.0454061"><ele>573.0</ele><time>2026-04-26T10:54:41.082Z</time></trkpt><trkpt lat="37.88614" lon="15.0452675"><ele>573.0</ele><time>2026-04-26T10:54:42.065Z</time></trkpt><trkpt lat="37.886177" lon="15.0451199"><ele>573.0</ele><time>2026-04-26T10:54:43.081Z</time></trkpt><trkpt lat="37.8862158" lon="15.0449714"><ele>573.0</ele><time>2026-04-26T10:54:44.083Z</time></trkpt><trkpt lat="37.8862548" lon="15.0448165"><ele>573.0</ele><time>2026-04-26T10:54:45.098Z</time></trkpt><trkpt lat="37.8862937" lon="15.044651"><ele>572.75</ele><time>2026-04-26T10:54:46.094Z</time></trkpt><trkpt lat="37.8863347" lon="15.0444767"><ele>572.5</ele><time>2026-04-26T10:54:47.085Z</time></trkpt><trkpt lat="37.8863781" lon="15.0442958"><ele>572.25</ele><time>2026-04-26T10:54:48.082Z</time></trkpt><trkpt lat="37.8864229" lon="15.0441079"><ele>572.0</ele><time>2026-04-26T10:54:49.101Z</time></trkpt><trkpt lat="37.8864651" lon="15.0439264"><ele>572.0</ele><time>2026-04-26T10:54:50.081Z</time></trkpt><trkpt lat="37.8865057" lon="15.0437509"><ele>572.0</ele><time>2026-04-26T10:54:51.084Z</time></trkpt><trkpt lat="37.8865457" lon="15.0435821"><ele>572.0</ele><time>2026-04-26T10:54:52.099Z</time></trkpt><trkpt lat="37.886587" lon="15.0434106"><ele>572.0</ele><time>2026-04-26T10:54:53.088Z</time></trkpt><trkpt lat="37.886632" lon="15.0432258"><ele>571.6666666666666</ele><time>2026-04-26T10:54:54.097Z</time></trkpt><trkpt lat="37.8866826" lon="15.0430348"><ele>571.3333333333334</ele><time>2026-04-26T10:54:55.069Z</time></trkpt><trkpt lat="37.8867368" lon="15.0428213"><ele>571.0</ele><time>2026-04-26T10:54:56.1Z</time></trkpt><trkpt lat="37.8867895" lon="15.0425965"><ele>571.0</ele><time>2026-04-26T10:54:57.067Z</time></trkpt><trkpt lat="37.8868432" lon="15.0423528"><ele>571.0</ele><time>2026-04-26T10:54:58.086Z</time></trkpt><trkpt lat="37.886896" lon="15.0421159"><ele>571.0</ele><time>2026-04-26T10:54:59.086Z</time></trkpt><trkpt lat="37.8869497" lon="15.0418859"><ele>571.0</ele><time>2026-04-26T10:55:00.083Z</time></trkpt><trkpt lat="37.8870048" lon="15.0416669"><ele>571.0</ele><time>2026-04-26T10:55:01.089Z</time></trkpt><trkpt lat="37.8870593" lon="15.0414609"><ele>571.0</ele><time>2026-04-26T10:55:02.1Z</time></trkpt><trkpt lat="37.8871081" lon="15.0412659"><ele>571.0</ele><time>2026-04-26T10:55:03.085Z</time></trkpt><trkpt lat="37.8871502" lon="15.0410814"><ele>571.0</ele><time>2026-04-26T10:55:04.098Z</time></trkpt><trkpt lat="37.8871861" lon="15.0409095"><ele>571.0</ele><time>2026-04-26T10:55:05.1Z</time></trkpt><trkpt lat="37.8872213" lon="15.0407499"><ele>571.0</ele><time>2026-04-26T10:55:06.1Z</time></trkpt><trkpt lat="37.8872631" lon="15.0406014"><ele>571.0</ele><time>2026-04-26T10:55:07.083Z</time></trkpt><trkpt lat="37.8873224" lon="15.0404594"><ele>571.0</ele><time>2026-04-26T10:55:08.085Z</time></trkpt><trkpt lat="37.8873993" lon="15.0403205"><ele>571.0</ele><time>2026-04-26T10:55:09.084Z</time></trkpt><trkpt lat="37.8874874" lon="15.0401951"><ele>571.0</ele><time>2026-04-26T10:55:10.093Z</time></trkpt><trkpt lat="37.8875731" lon="15.0400812"><ele>569.2</ele><time>2026-04-26T10:55:11.081Z</time></trkpt><trkpt lat="37.8876498" lon="15.0399806"><ele>567.4000000000001</ele><time>2026-04-26T10:55:12.08Z</time></trkpt><trkpt lat="37.8877157" lon="15.0398901"><ele>565.6</ele><time>2026-04-26T10:55:13.097Z</time></trkpt><trkpt lat="37.8877674" lon="15.0397966"><ele>563.8000000000001</ele><time>2026-04-26T10:55:14.097Z</time></trkpt><trkpt lat="37.8877992" lon="15.0396922"><ele>562.0</ele><time>2026-04-26T10:55:15.093Z</time></trkpt><trkpt lat="37.887808" lon="15.0395787"><ele>561.5</ele><time>2026-04-26T10:55:16.084Z</time></trkpt><trkpt lat="37.88779" lon="15.0394707"><ele>561.0</ele><time>2026-04-26T10:55:17.086Z</time></trkpt><trkpt lat="37.8877425" lon="15.0393585"><ele>560.5</ele><time>2026-04-26T10:55:18.095Z</time></trkpt><trkpt lat="37.8876712" lon="15.0392359"><ele>560.0</ele><time>2026-04-26T10:55:19.09Z</time></trkpt><trkpt lat="37.8875792" lon="15.0390917"><ele>561.6666666666666</ele><time>2026-04-26T10:55:20.095Z</time></trkpt><trkpt lat="37.8874717" lon="15.0389249"><ele>563.3333333333334</ele><time>2026-04-26T10:55:21.11Z</time></trkpt><trkpt lat="37.8873593" lon="15.038748"><ele>565.0</ele><time>2026-04-26T10:55:22.098Z</time></trkpt><trkpt lat="37.8872518" lon="15.0385721"><ele>565.0</ele><time>2026-04-26T10:55:23.086Z</time></trkpt><trkpt lat="37.8871584" lon="15.0384146"><ele>565.0</ele><time>2026-04-26T10:55:24.081Z</time></trkpt><trkpt lat="37.8870857" lon="15.0382765"><ele>565.0</ele><time>2026-04-26T10:55:25.098Z</time></trkpt><trkpt lat="37.8870445" lon="15.0381568"><ele>565.0</ele><time>2026-04-26T10:55:26.107Z</time></trkpt><trkpt lat="37.8870296" lon="15.0380495"><ele>565.5</ele><time>2026-04-26T10:55:27.107Z</time></trkpt><trkpt lat="37.8870378" lon="15.0379333"><ele>566.0</ele><time>2026-04-26T10:55:28.083Z</time></trkpt><trkpt lat="37.8870656" lon="15.0377846"><ele>566.5</ele><time>2026-04-26T10:55:29.069Z</time></trkpt><trkpt lat="37.8871026" lon="15.0376033"><ele>567.0</ele><time>2026-04-26T10:55:30.082Z</time></trkpt><trkpt lat="37.887147" lon="15.0373966"><ele>567.0</ele><time>2026-04-26T10:55:31.088Z</time></trkpt><trkpt lat="37.8871911" lon="15.0371695"><ele>567.0</ele><time>2026-04-26T10:55:32.064Z</time></trkpt><trkpt lat="37.8872211" lon="15.0369321"><ele>567.0</ele><time>2026-04-26T10:55:33.068Z</time></trkpt><trkpt lat="37.8872434" lon="15.0366831"><ele>567.0</ele><time>2026-04-26T10:55:34.063Z</time></trkpt><trkpt lat="37.8872596" lon="15.0364348"><ele>567.0</ele><time>2026-04-26T10:55:35.088Z</time></trkpt><trkpt lat="37.8872777" lon="15.0362075"><ele>567.0</ele><time>2026-04-26T10:55:36.06Z</time></trkpt><trkpt lat="37.8872974" lon="15.0359842"><ele>567.3333333333334</ele><time>2026-04-26T10:55:37.081Z</time></trkpt><trkpt lat="37.8873112" lon="15.0357704"><ele>567.6666666666667</ele><time>2026-04-26T10:55:38.073Z</time></trkpt><trkpt lat="37.8873179" lon="15.035577"><ele>568.0</ele><time>2026-04-26T10:55:39.087Z</time></trkpt><trkpt lat="37.8873065" lon="15.035386"><ele>568.0</ele><time>2026-04-26T10:55:40.083Z</time></trkpt><trkpt lat="37.8872755" lon="15.0351882"><ele>568.0</ele><time>2026-04-26T10:55:41.064Z</time></trkpt><trkpt lat="37.887225" lon="15.0349867"><ele>568.0</ele><time>2026-04-26T10:55:42.081Z</time></trkpt><trkpt lat="37.8871652" lon="15.0348034"><ele>568.0</ele><time>2026-04-26T10:55:43.073Z</time></trkpt><trkpt lat="37.8871047" lon="15.0346495"><ele>568.0</ele><time>2026-04-26T10:55:44.066Z</time></trkpt><trkpt lat="37.8870604" lon="15.0345208"><ele>568.0</ele><time>2026-04-26T10:55:45.102Z</time></trkpt><trkpt lat="37.8870457" lon="15.0343847"><ele>568.0</ele><time>2026-04-26T10:55:46.078Z</time></trkpt><trkpt lat="37.8870376" lon="15.0342213"><ele>568.6666666666667</ele><time>2026-04-26T10:55:47.078Z</time></trkpt><trkpt lat="37.8870358" lon="15.0340452"><ele>569.3333333333334</ele><time>2026-04-26T10:55:48.085Z</time></trkpt><trkpt lat="37.887048" lon="15.0338448"><ele>570.0</ele><time>2026-04-26T10:55:49.086Z</time></trkpt><trkpt lat="37.8870688" lon="15.03362"><ele>570.0</ele><time>2026-04-26T10:55:50.083Z</time></trkpt><trkpt lat="37.8870879" lon="15.0333725"><ele>570.0</ele><time>2026-04-26T10:55:51.065Z</time></trkpt><trkpt lat="37.8871074" lon="15.0331222"><ele>570.0</ele><time>2026-04-26T10:55:52.087Z</time></trkpt><trkpt lat="37.8871267" lon="15.0328819"><ele>572.3333333333334</ele><time>2026-04-26T10:55:53.084Z</time></trkpt><trkpt lat="37.8871501" lon="15.0326642"><ele>574.6666666666667</ele><time>2026-04-26T10:55:54.067Z</time></trkpt><trkpt lat="37.8871733" lon="15.0324701"><ele>577.0</ele><time>2026-04-26T10:55:55.066Z</time></trkpt><trkpt lat="37.8872017" lon="15.0322972"><ele>577.5</ele><time>2026-04-26T10:55:56.075Z</time></trkpt><trkpt lat="37.8872275" lon="15.0321235"><ele>578.0</ele><time>2026-04-26T10:55:57.062Z</time></trkpt><trkpt lat="37.8872461" lon="15.0319393"><ele>578.5</ele><time>2026-04-26T10:55:58.08Z</time></trkpt><trkpt lat="37.8872545" lon="15.0317387"><ele>579.0</ele><time>2026-04-26T10:55:59.09Z</time></trkpt><trkpt lat="37.8872512" lon="15.0315345"><ele>577.6666666666666</ele><time>2026-04-26T10:56:00.066Z</time></trkpt><trkpt lat="37.8872413" lon="15.0313378"><ele>576.3333333333333</ele><time>2026-04-26T10:56:01.068Z</time></trkpt><trkpt lat="37.8872337" lon="15.031145"><ele>575.0</ele><time>2026-04-26T10:56:02.071Z</time></trkpt><trkpt lat="37.8872371" lon="15.0309518"><ele>575.5</ele><time>2026-04-26T10:56:03.081Z</time></trkpt><trkpt lat="37.8872606" lon="15.0307643"><ele>576.0</ele><time>2026-04-26T10:56:04.086Z</time></trkpt><trkpt lat="37.8872997" lon="15.0305876"><ele>576.5</ele><time>2026-04-26T10:56:05.092Z</time></trkpt><trkpt lat="37.8873231" lon="15.0304173"><ele>577.0</ele><time>2026-04-26T10:56:06.084Z</time></trkpt><trkpt lat="37.8873251" lon="15.0302418"><ele>577.0</ele><time>2026-04-26T10:56:07.09Z</time></trkpt><trkpt lat="37.8873276" lon="15.0300509"><ele>577.0</ele><time>2026-04-26T10:56:08.09Z</time></trkpt><trkpt lat="37.8873434" lon="15.0298427"><ele>577.0</ele><time>2026-04-26T10:56:09.081Z</time></trkpt><trkpt lat="37.8873623" lon="15.0296211"><ele>577.3333333333334</ele><time>2026-04-26T10:56:10.086Z</time></trkpt><trkpt lat="37.8873724" lon="15.0294052"><ele>577.6666666666666</ele><time>2026-04-26T10:56:11.069Z</time></trkpt><trkpt lat="37.8873729" lon="15.0291957"><ele>578.0</ele><time>2026-04-26T10:56:12.082Z</time></trkpt><trkpt lat="37.8873726" lon="15.0289969"><ele>580.6666666666666</ele><time>2026-04-26T10:56:13.084Z</time></trkpt><trkpt lat="37.8873833" lon="15.0287943"><ele>583.3333333333334</ele><time>2026-04-26T10:56:14.08Z</time></trkpt><trkpt lat="37.8874097" lon="15.028596"><ele>586.0</ele><time>2026-04-26T10:56:15.087Z</time></trkpt><trkpt lat="37.8874454" lon="15.0284086"><ele>587.75</ele><time>2026-04-26T10:56:16.072Z</time></trkpt><trkpt lat="37.8874992" lon="15.0282357"><ele>589.5</ele><time>2026-04-26T10:56:17.08Z</time></trkpt><trkpt lat="37.8875716" lon="15.0280715"><ele>591.25</ele><time>2026-04-26T10:56:18.088Z</time></trkpt><trkpt lat="37.8876587" lon="15.0279183"><ele>593.0</ele><time>2026-04-26T10:56:19.086Z</time></trkpt><trkpt lat="37.8877387" lon="15.02777"><ele>590.5</ele><time>2026-04-26T10:56:20.077Z</time></trkpt><trkpt lat="37.8877971" lon="15.0276242"><ele>588.0</ele><time>2026-04-26T10:56:21.061Z</time></trkpt><trkpt lat="37.8878414" lon="15.0274727"><ele>585.5</ele><time>2026-04-26T10:56:22.082Z</time></trkpt><trkpt lat="37.8878656" lon="15.0273139"><ele>583.0</ele><time>2026-04-26T10:56:23.087Z</time></trkpt><trkpt lat="37.8878839" lon="15.0271388"><ele>583.0</ele><time>2026-04-26T10:56:24.078Z</time></trkpt><trkpt lat="37.8879135" lon="15.0269468"><ele>583.0</ele><time>2026-04-26T10:56:25.082Z</time></trkpt><trkpt lat="37.8879611" lon="15.0267533"><ele>583.0</ele><time>2026-04-26T10:56:26.088Z</time></trkpt><trkpt lat="37.8879989" lon="15.0265591"><ele>585.25</ele><time>2026-04-26T10:56:27.084Z</time></trkpt><trkpt lat="37.8880168" lon="15.0263826"><ele>587.5</ele><time>2026-04-26T10:56:28.078Z</time></trkpt><trkpt lat="37.8880203" lon="15.0262142"><ele>589.75</ele><time>2026-04-26T10:56:29.085Z</time></trkpt><trkpt lat="37.8880081" lon="15.0260579"><ele>592.0</ele><time>2026-04-26T10:56:30.085Z</time></trkpt><trkpt lat="37.8879858" lon="15.0259123"><ele>592.75</ele><time>2026-04-26T10:56:31.083Z</time></trkpt><trkpt lat="37.8879805" lon="15.0257791"><ele>593.5</ele><time>2026-04-26T10:56:32.092Z</time></trkpt><trkpt lat="37.8880119" lon="15.0256628"><ele>594.25</ele><time>2026-04-26T10:56:33.089Z</time></trkpt><trkpt lat="37.888081" lon="15.0255441"><ele>595.0</ele><time>2026-04-26T10:56:34.084Z</time></trkpt><trkpt lat="37.8881712" lon="15.0254148"><ele>595.0</ele><time>2026-04-26T10:56:35.087Z</time></trkpt><trkpt lat="37.8882734" lon="15.0252672"><ele>595.0</ele><time>2026-04-26T10:56:36.075Z</time></trkpt><trkpt lat="37.8883722" lon="15.0251233"><ele>595.0</ele><time>2026-04-26T10:56:37.088Z</time></trkpt><trkpt lat="37.8884608" lon="15.0249779"><ele>594.5</ele><time>2026-04-26T10:56:38.066Z</time></trkpt><trkpt lat="37.8885368" lon="15.0248395"><ele>594.0</ele><time>2026-04-26T10:56:39.088Z</time></trkpt><trkpt lat="37.8886016" lon="15.0246984"><ele>593.5</ele><time>2026-04-26T10:56:40.067Z</time></trkpt><trkpt lat="37.8886579" lon="15.0245465"><ele>593.0</ele><time>2026-04-26T10:56:41.081Z</time></trkpt><trkpt lat="37.8887098" lon="15.0243855"><ele>593.0</ele><time>2026-04-26T10:56:42.076Z</time></trkpt><trkpt lat="37.8887538" lon="15.0242162"><ele>593.0</ele><time>2026-04-26T10:56:43.083Z</time></trkpt><trkpt lat="37.8887866" lon="15.0240461"><ele>593.0</ele><time>2026-04-26T10:56:44.067Z</time></trkpt><trkpt lat="37.888806" lon="15.0238655"><ele>593.0</ele><time>2026-04-26T10:56:45.069Z</time></trkpt><trkpt lat="37.8888154" lon="15.0236675"><ele>593.5</ele><time>2026-04-26T10:56:46.08Z</time></trkpt><trkpt lat="37.8888165" lon="15.0234667"><ele>594.0</ele><time>2026-04-26T10:56:47.068Z</time></trkpt><trkpt lat="37.8888196" lon="15.0232858"><ele>594.5</ele><time>2026-04-26T10:56:48.084Z</time></trkpt><trkpt lat="37.8888317" lon="15.0231256"><ele>595.0</ele><time>2026-04-26T10:56:49.066Z</time></trkpt><trkpt lat="37.8888395" lon="15.0229763"><ele>593.75</ele><time>2026-04-26T10:56:50.082Z</time></trkpt><trkpt lat="37.8888278" lon="15.0228251"><ele>592.5</ele><time>2026-04-26T10:56:51.079Z</time></trkpt><trkpt lat="37.8887938" lon="15.0226611"><ele>591.25</ele><time>2026-04-26T10:56:52.085Z</time></trkpt><trkpt lat="37.8887471" lon="15.0224817"><ele>590.0</ele><time>2026-04-26T10:56:53.091Z</time></trkpt><trkpt lat="37.8886996" lon="15.0222788"><ele>590.3333333333333</ele><time>2026-04-26T10:56:54.087Z</time></trkpt><trkpt lat="37.8886722" lon="15.0220513"><ele>590.6666666666666</ele><time>2026-04-26T10:56:55.083Z</time></trkpt><trkpt lat="37.8886688" lon="15.0218131"><ele>591.0</ele><time>2026-04-26T10:56:56.08Z</time></trkpt><trkpt lat="37.8886801" lon="15.0215779"><ele>591.0</ele><time>2026-04-26T10:56:57.088Z</time></trkpt><trkpt lat="37.888684" lon="15.0213424"><ele>591.0</ele><time>2026-04-26T10:56:58.083Z</time></trkpt><trkpt lat="37.8886822" lon="15.0211121"><ele>591.0</ele><time>2026-04-26T10:56:59.084Z</time></trkpt><trkpt lat="37.8886831" lon="15.0209058"><ele>590.25</ele><time>2026-04-26T10:57:00.08Z</time></trkpt><trkpt lat="37.8886867" lon="15.0207229"><ele>589.5</ele><time>2026-04-26T10:57:01.065Z</time></trkpt><trkpt lat="37.8886818" lon="15.020555"><ele>588.75</ele><time>2026-04-26T10:57:02.084Z</time></trkpt><trkpt lat="37.8886661" lon="15.0204062"><ele>588.0</ele><time>2026-04-26T10:57:03.064Z</time></trkpt><trkpt lat="37.888628" lon="15.0202652"><ele>588.0</ele><time>2026-04-26T10:57:04.078Z</time></trkpt><trkpt lat="37.8885775" lon="15.0201263"><ele>588.0</ele><time>2026-04-26T10:57:05.076Z</time></trkpt><trkpt lat="37.8885248" lon="15.0199682"><ele>588.0</ele><time>2026-04-26T10:57:06.083Z</time></trkpt><trkpt lat="37.8884722" lon="15.019788"><ele>588.0</ele><time>2026-04-26T10:57:07.065Z</time></trkpt><trkpt lat="37.8884251" lon="15.0195895"><ele>590.3333333333334</ele><time>2026-04-26T10:57:08.082Z</time></trkpt><trkpt lat="37.888387" lon="15.0193645"><ele>592.6666666666667</ele><time>2026-04-26T10:57:09.076Z</time></trkpt><trkpt lat="37.8883713" lon="15.0191263"><ele>595.0</ele><time>2026-04-26T10:57:10.085Z</time></trkpt><trkpt lat="37.8883592" lon="15.01888"><ele>595.6666666666667</ele><time>2026-04-26T10:57:11.082Z</time></trkpt><trkpt lat="37.8883496" lon="15.018638"><ele>596.3333333333334</ele><time>2026-04-26T10:57:12.074Z</time></trkpt><trkpt lat="37.8883299" lon="15.0183962"><ele>597.0</ele><time>2026-04-26T10:57:13.078Z</time></trkpt><trkpt lat="37.8882882" lon="15.0181413"><ele>597.3333333333334</ele><time>2026-04-26T10:57:14.084Z</time></trkpt><trkpt lat="37.8882296" lon="15.0178818"><ele>597.6666666666667</ele><time>2026-04-26T10:57:15.068Z</time></trkpt><trkpt lat="37.8881622" lon="15.0176199"><ele>598.0</ele><time>2026-04-26T10:57:16.081Z</time></trkpt><trkpt lat="37.8880978" lon="15.0173657"><ele>599.3333333333334</ele><time>2026-04-26T10:57:17.065Z</time></trkpt><trkpt lat="37.8880413" lon="15.0171203"><ele>600.6666666666666</ele><time>2026-04-26T10:57:18.085Z</time></trkpt><trkpt lat="37.8879874" lon="15.0168943"><ele>602.0</ele><time>2026-04-26T10:57:19.086Z</time></trkpt><trkpt lat="37.8879327" lon="15.0166856"><ele>602.5</ele><time>2026-04-26T10:57:20.084Z</time></trkpt><trkpt lat="37.8878854" lon="15.016505"><ele>603.0</ele><time>2026-04-26T10:57:21.088Z</time></trkpt><trkpt lat="37.887849" lon="15.0163356"><ele>603.5</ele><time>2026-04-26T10:57:22.081Z</time></trkpt><trkpt lat="37.8878268" lon="15.0161908"><ele>604.0</ele><time>2026-04-26T10:57:23.095Z</time></trkpt><trkpt lat="37.8878192" lon="15.0160616"><ele>604.0</ele><time>2026-04-26T10:57:24.081Z</time></trkpt><trkpt lat="37.8878314" lon="15.015927"><ele>604.0</ele><time>2026-04-26T10:57:25.066Z</time></trkpt><trkpt lat="37.8878609" lon="15.0157944"><ele>604.0</ele><time>2026-04-26T10:57:26.085Z</time></trkpt><trkpt lat="37.8878995" lon="15.0156578"><ele>604.0</ele><time>2026-04-26T10:57:27.063Z</time></trkpt><trkpt lat="37.8879559" lon="15.015517"><ele>604.0</ele><time>2026-04-26T10:57:28.084Z</time></trkpt><trkpt lat="37.8880196" lon="15.0153787"><ele>604.0</ele><time>2026-04-26T10:57:29.083Z</time></trkpt><trkpt lat="37.8880659" lon="15.0152434"><ele>604.0</ele><time>2026-04-26T10:57:30.089Z</time></trkpt><trkpt lat="37.8881006" lon="15.0151053"><ele>604.0</ele><time>2026-04-26T10:57:31.085Z</time></trkpt><trkpt lat="37.8881228" lon="15.0149598"><ele>604.0</ele><time>2026-04-26T10:57:32.082Z</time></trkpt><trkpt lat="37.8881333" lon="15.0147825"><ele>604.0</ele><time>2026-04-26T10:57:33.087Z</time></trkpt><trkpt lat="37.8881348" lon="15.0145872"><ele>604.0</ele><time>2026-04-26T10:57:34.076Z</time></trkpt><trkpt lat="37.8881352" lon="15.0143866"><ele>604.0</ele><time>2026-04-26T10:57:35.082Z</time></trkpt><trkpt lat="37.8881321" lon="15.0141763"><ele>604.0</ele><time>2026-04-26T10:57:36.083Z</time></trkpt><trkpt lat="37.8881321" lon="15.01396"><ele>604.0</ele><time>2026-04-26T10:57:37.085Z</time></trkpt><trkpt lat="37.8881342" lon="15.0137354"><ele>604.3333333333334</ele><time>2026-04-26T10:57:38.086Z</time></trkpt><trkpt lat="37.8881367" lon="15.0135038"><ele>604.6666666666666</ele><time>2026-04-26T10:57:39.087Z</time></trkpt><trkpt lat="37.8881348" lon="15.0132672"><ele>605.0</ele><time>2026-04-26T10:57:40.08Z</time></trkpt><trkpt lat="37.8881349" lon="15.0130272"><ele>605.3333333333333</ele><time>2026-04-26T10:57:41.081Z</time></trkpt><trkpt lat="37.8881327" lon="15.0127829"><ele>605.6666666666666</ele><time>2026-04-26T10:57:42.062Z</time></trkpt><trkpt lat="37.8881311" lon="15.0125343"><ele>606.0</ele><time>2026-04-26T10:57:43.066Z</time></trkpt><trkpt lat="37.8881304" lon="15.0122867"><ele>606.0</ele><time>2026-04-26T10:57:44.064Z</time></trkpt><trkpt lat="37.8881282" lon="15.012044"><ele>606.0</ele><time>2026-04-26T10:57:45.09Z</time></trkpt><trkpt lat="37.8881253" lon="15.0118033"><ele>606.0</ele><time>2026-04-26T10:57:46.079Z</time></trkpt><trkpt lat="37.8881243" lon="15.0115682"><ele>606.3333333333334</ele><time>2026-04-26T10:57:47.082Z</time></trkpt><trkpt lat="37.8881245" lon="15.0113331"><ele>606.6666666666667</ele><time>2026-04-26T10:57:48.083Z</time></trkpt><trkpt lat="37.8881242" lon="15.0110994"><ele>607.0</ele><time>2026-04-26T10:57:49.082Z</time></trkpt><trkpt lat="37.8881237" lon="15.0108685"><ele>607.3333333333334</ele><time>2026-04-26T10:57:50.081Z</time></trkpt><trkpt lat="37.8881228" lon="15.0106399"><ele>607.6666666666666</ele><time>2026-04-26T10:57:51.081Z</time></trkpt><trkpt lat="37.8881237" lon="15.0104154"><ele>608.0</ele><time>2026-04-26T10:57:52.084Z</time></trkpt><trkpt lat="37.8881281" lon="15.0101947"><ele>608.6666666666666</ele><time>2026-04-26T10:57:53.061Z</time></trkpt><trkpt lat="37.8881264" lon="15.0099717"><ele>609.3333333333334</ele><time>2026-04-26T10:57:54.077Z</time></trkpt><trkpt lat="37.8881239" lon="15.0097461"><ele>610.0</ele><time>2026-04-26T10:57:55.092Z</time></trkpt><trkpt lat="37.8881227" lon="15.00952"><ele>610.0</ele><time>2026-04-26T10:57:56.086Z</time></trkpt><trkpt lat="37.8881234" lon="15.0092895"><ele>610.0</ele><time>2026-04-26T10:57:57.086Z</time></trkpt><trkpt lat="37.8881231" lon="15.0090538"><ele>610.0</ele><time>2026-04-26T10:57:58.085Z</time></trkpt><trkpt lat="37.8881244" lon="15.0088219"><ele>610.3333333333334</ele><time>2026-04-26T10:57:59.091Z</time></trkpt><trkpt lat="37.8881248" lon="15.0085915"><ele>610.6666666666666</ele><time>2026-04-26T10:58:00.079Z</time></trkpt><trkpt lat="37.888124" lon="15.0083642"><ele>611.0</ele><time>2026-04-26T10:58:01.082Z</time></trkpt><trkpt lat="37.8881204" lon="15.0081367"><ele>612.0</ele><time>2026-04-26T10:58:02.064Z</time></trkpt><trkpt lat="37.8881171" lon="15.0079105"><ele>613.0</ele><time>2026-04-26T10:58:03.083Z</time></trkpt><trkpt lat="37.8881175" lon="15.0076834"><ele>614.0</ele><time>2026-04-26T10:58:04.085Z</time></trkpt><trkpt lat="37.8881151" lon="15.0074511"><ele>614.3333333333333</ele><time>2026-04-26T10:58:05.084Z</time></trkpt><trkpt lat="37.8881126" lon="15.0072205"><ele>614.6666666666666</ele><time>2026-04-26T10:58:06.077Z</time></trkpt><trkpt lat="37.8881103" lon="15.0069848"><ele>615.0</ele><time>2026-04-26T10:58:07.077Z</time></trkpt><trkpt lat="37.8881089" lon="15.0067385"><ele>615.3333333333334</ele><time>2026-04-26T10:58:08.086Z</time></trkpt><trkpt lat="37.8881081" lon="15.0064888"><ele>615.6666666666667</ele><time>2026-04-26T10:58:09.08Z</time></trkpt><trkpt lat="37.888105" lon="15.0062379"><ele>616.0</ele><time>2026-04-26T10:58:10.084Z</time></trkpt><trkpt lat="37.8881005" lon="15.0059837"><ele>617.3333333333334</ele><time>2026-04-26T10:58:11.084Z</time></trkpt><trkpt lat="37.8881009" lon="15.0057281"><ele>618.6666666666666</ele><time>2026-04-26T10:58:12.083Z</time></trkpt><trkpt lat="37.8881025" lon="15.0054724"><ele>620.0</ele><time>2026-04-26T10:58:13.088Z</time></trkpt><trkpt lat="37.8881013" lon="15.0052239"><ele>621.0</ele><time>2026-04-26T10:58:14.081Z</time></trkpt><trkpt lat="37.8881001" lon="15.0049866"><ele>622.0</ele><time>2026-04-26T10:58:15.09Z</time></trkpt><trkpt lat="37.8880996" lon="15.0047641"><ele>623.0</ele><time>2026-04-26T10:58:16.087Z</time></trkpt><trkpt lat="37.8881008" lon="15.0045439"><ele>623.0</ele><time>2026-04-26T10:58:17.096Z</time></trkpt><trkpt lat="37.8881034" lon="15.0043254"><ele>623.0</ele><time>2026-04-26T10:58:18.082Z</time></trkpt><trkpt lat="37.8881055" lon="15.0041026"><ele>623.0</ele><time>2026-04-26T10:58:19.089Z</time></trkpt><trkpt lat="37.8881068" lon="15.0038789"><ele>624.6666666666666</ele><time>2026-04-26T10:58:20.08Z</time></trkpt><trkpt lat="37.8881065" lon="15.0036525"><ele>626.3333333333334</ele><time>2026-04-26T10:58:21.084Z</time></trkpt><trkpt lat="37.8881046" lon="15.0034206"><ele>628.0</ele><time>2026-04-26T10:58:22.081Z</time></trkpt><trkpt lat="37.8881024" lon="15.0031797"><ele>628.3333333333334</ele><time>2026-04-26T10:58:23.086Z</time></trkpt><trkpt lat="37.8880989" lon="15.0029357"><ele>628.6666666666666</ele><time>2026-04-26T10:58:24.076Z</time></trkpt><trkpt lat="37.8880957" lon="15.0026844"><ele>629.0</ele><time>2026-04-26T10:58:25.091Z</time></trkpt><trkpt lat="37.888096" lon="15.0024323"><ele>629.3333333333333</ele><time>2026-04-26T10:58:26.086Z</time></trkpt><trkpt lat="37.8880982" lon="15.0021766"><ele>629.6666666666666</ele><time>2026-04-26T10:58:27.076Z</time></trkpt><trkpt lat="37.8880979" lon="15.0019157"><ele>630.0</ele><time>2026-04-26T10:58:28.088Z</time></trkpt><trkpt lat="37.888098" lon="15.0016561"><ele>631.3333333333334</ele><time>2026-04-26T10:58:29.082Z</time></trkpt><trkpt lat="37.8880997" lon="15.0013979"><ele>632.6666666666667</ele><time>2026-04-26T10:58:30.078Z</time></trkpt><trkpt lat="37.8880999" lon="15.0011347"><ele>634.0</ele><time>2026-04-26T10:58:31.093Z</time></trkpt><trkpt lat="37.8880976" lon="15.0008768"><ele>635.3333333333334</ele><time>2026-04-26T10:58:32.082Z</time></trkpt><trkpt lat="37.8880902" lon="15.0006204"><ele>636.6666666666666</ele><time>2026-04-26T10:58:33.079Z</time></trkpt><trkpt lat="37.8880751" lon="15.0003639"><ele>638.0</ele><time>2026-04-26T10:58:34.081Z</time></trkpt><trkpt lat="37.8880567" lon="15.0001092"><ele>638.0</ele><time>2026-04-26T10:58:35.086Z</time></trkpt><trkpt lat="37.8880429" lon="14.9998684"><ele>638.0</ele><time>2026-04-26T10:58:36.083Z</time></trkpt><trkpt lat="37.8880354" lon="14.9996472"><ele>638.0</ele><time>2026-04-26T10:58:37.084Z</time></trkpt><trkpt lat="37.8880304" lon="14.9994435"><ele>638.0</ele><time>2026-04-26T10:58:38.085Z</time></trkpt><trkpt lat="37.8880278" lon="14.9992533"><ele>638.0</ele><time>2026-04-26T10:58:39.081Z</time></trkpt><trkpt lat="37.8880272" lon="14.9990751"><ele>638.0</ele><time>2026-04-26T10:58:40.068Z</time></trkpt><trkpt lat="37.8880252" lon="14.9989081"><ele>638.0</ele><time>2026-04-26T10:58:41.083Z</time></trkpt><trkpt lat="37.8880197" lon="14.9987531"><ele>638.8</ele><time>2026-04-26T10:58:42.084Z</time></trkpt><trkpt lat="37.8880124" lon="14.9986104"><ele>639.5999999999999</ele><time>2026-04-26T10:58:43.09Z</time></trkpt><trkpt lat="37.8880112" lon="14.9984812"><ele>640.4000000000001</ele><time>2026-04-26T10:58:44.064Z</time></trkpt><trkpt lat="37.8880254" lon="14.9983637"><ele>641.2</ele><time>2026-04-26T10:58:45.092Z</time></trkpt><trkpt lat="37.8880596" lon="14.9982613"><ele>642.0</ele><time>2026-04-26T10:58:46.077Z</time></trkpt><trkpt lat="37.8881142" lon="14.998158"><ele>643.25</ele><time>2026-04-26T10:58:47.089Z</time></trkpt><trkpt lat="37.8881808" lon="14.9980471"><ele>644.5</ele><time>2026-04-26T10:58:48.083Z</time></trkpt><trkpt lat="37.8882492" lon="14.9979175"><ele>645.75</ele><time>2026-04-26T10:58:49.086Z</time></trkpt><trkpt lat="37.8883151" lon="14.9977724"><ele>647.0</ele><time>2026-04-26T10:58:50.085Z</time></trkpt><trkpt lat="37.8883724" lon="14.9975964"><ele>646.3333333333333</ele><time>2026-04-26T10:58:51.089Z</time></trkpt><trkpt lat="37.8884246" lon="14.9973964"><ele>645.6666666666666</ele><time>2026-04-26T10:58:52.094Z</time></trkpt><trkpt lat="37.888478" lon="14.99718"><ele>645.0</ele><time>2026-04-26T10:58:53.088Z</time></trkpt><trkpt lat="37.8885392" lon="14.9969699"><ele>645.0</ele><time>2026-04-26T10:58:54.081Z</time></trkpt><trkpt lat="37.8885966" lon="14.9967741"><ele>645.0</ele><time>2026-04-26T10:58:55.091Z</time></trkpt><trkpt lat="37.8886469" lon="14.996593"><ele>645.0</ele><time>2026-04-26T10:58:56.078Z</time></trkpt><trkpt lat="37.8886885" lon="14.9964182"><ele>645.5</ele><time>2026-04-26T10:58:57.081Z</time></trkpt><trkpt lat="37.8887202" lon="14.9962424"><ele>646.0</ele><time>2026-04-26T10:58:58.085Z</time></trkpt><trkpt lat="37.8887468" lon="14.9960582"><ele>646.5</ele><time>2026-04-26T10:58:59.061Z</time></trkpt><trkpt lat="37.8887743" lon="14.9958644"><ele>647.0</ele><time>2026-04-26T10:59:00.074Z</time></trkpt><trkpt lat="37.8888023" lon="14.9956782"><ele>647.75</ele><time>2026-04-26T10:59:01.082Z</time></trkpt><trkpt lat="37.8888287" lon="14.9954955"><ele>648.5</ele><time>2026-04-26T10:59:02.086Z</time></trkpt><trkpt lat="37.8888473" lon="14.9953197"><ele>649.25</ele><time>2026-04-26T10:59:03.083Z</time></trkpt><trkpt lat="37.8888559" lon="14.9951442"><ele>650.0</ele><time>2026-04-26T10:59:04.087Z</time></trkpt><trkpt lat="37.8888517" lon="14.9949721"><ele>650.25</ele><time>2026-04-26T10:59:05.076Z</time></trkpt><trkpt lat="37.888829" lon="14.9948012"><ele>650.5</ele><time>2026-04-26T10:59:06.082Z</time></trkpt><trkpt lat="37.8887891" lon="14.994626"><ele>650.75</ele><time>2026-04-26T10:59:07.083Z</time></trkpt><trkpt lat="37.8887379" lon="14.9944392"><ele>651.0</ele><time>2026-04-26T10:59:08.068Z</time></trkpt><trkpt lat="37.8886736" lon="14.9942346"><ele>651.3333333333334</ele><time>2026-04-26T10:59:09.086Z</time></trkpt><trkpt lat="37.8886063" lon="14.9940268"><ele>651.6666666666667</ele><time>2026-04-26T10:59:10.08Z</time></trkpt><trkpt lat="37.8885384" lon="14.9938298"><ele>652.0</ele><time>2026-04-26T10:59:11.085Z</time></trkpt><trkpt lat="37.8884688" lon="14.9936513"><ele>654.0</ele><time>2026-04-26T10:59:12.081Z</time></trkpt><trkpt lat="37.8883925" lon="14.9934783"><ele>656.0</ele><time>2026-04-26T10:59:13.081Z</time></trkpt><trkpt lat="37.8883046" lon="14.9933062"><ele>658.0</ele><time>2026-04-26T10:59:14.088Z</time></trkpt><trkpt lat="37.8882054" lon="14.9931356"><ele>658.0</ele><time>2026-04-26T10:59:15.092Z</time></trkpt><trkpt lat="37.8880867" lon="14.9929646"><ele>658.0</ele><time>2026-04-26T10:59:16.081Z</time></trkpt><trkpt lat="37.8879461" lon="14.9927935"><ele>658.0</ele><time>2026-04-26T10:59:17.067Z</time></trkpt><trkpt lat="37.8877913" lon="14.9926148"><ele>657.3333333333334</ele><time>2026-04-26T10:59:18.086Z</time></trkpt><trkpt lat="37.8876415" lon="14.9924368"><ele>656.6666666666666</ele><time>2026-04-26T10:59:19.084Z</time></trkpt><trkpt lat="37.8875064" lon="14.9922567"><ele>656.0</ele><time>2026-04-26T10:59:20.088Z</time></trkpt><trkpt lat="37.8873894" lon="14.9920769"><ele>658.0</ele><time>2026-04-26T10:59:21.068Z</time></trkpt><trkpt lat="37.8872864" lon="14.9918907"><ele>660.0</ele><time>2026-04-26T10:59:22.082Z</time></trkpt><trkpt lat="37.8871984" lon="14.9916962"><ele>662.0</ele><time>2026-04-26T10:59:23.086Z</time></trkpt><trkpt lat="37.8871229" lon="14.9914906"><ele>662.3333333333333</ele><time>2026-04-26T10:59:24.059Z</time></trkpt><trkpt lat="37.8870491" lon="14.9912659"><ele>662.6666666666666</ele><time>2026-04-26T10:59:25.088Z</time></trkpt><trkpt lat="37.8869761" lon="14.9910316"><ele>663.0</ele><time>2026-04-26T10:59:26.085Z</time></trkpt><trkpt lat="37.8868992" lon="14.9907902"><ele>663.6666666666666</ele><time>2026-04-26T10:59:27.097Z</time></trkpt><trkpt lat="37.8868237" lon="14.9905417"><ele>664.3333333333333</ele><time>2026-04-26T10:59:28.09Z</time></trkpt><trkpt lat="37.8867469" lon="14.9902836"><ele>665.0</ele><time>2026-04-26T10:59:29.095Z</time></trkpt><trkpt lat="37.8866688" lon="14.9900284"><ele>666.3333333333333</ele><time>2026-04-26T10:59:30.066Z</time></trkpt><trkpt lat="37.8865866" lon="14.9897696"><ele>667.6666666666666</ele><time>2026-04-26T10:59:31.067Z</time></trkpt><trkpt lat="37.8865045" lon="14.9895118"><ele>669.0</ele><time>2026-04-26T10:59:32.082Z</time></trkpt><trkpt lat="37.8864236" lon="14.9892519"><ele>669.3333333333334</ele><time>2026-04-26T10:59:33.088Z</time></trkpt><trkpt lat="37.8863411" lon="14.9889929"><ele>669.6666666666667</ele><time>2026-04-26T10:59:34.084Z</time></trkpt><trkpt lat="37.8862574" lon="14.988732"><ele>670.0</ele><time>2026-04-26T10:59:35.094Z</time></trkpt><trkpt lat="37.886173" lon="14.9884703"><ele>671.0</ele><time>2026-04-26T10:59:36.082Z</time></trkpt><trkpt lat="37.8860883" lon="14.9882041"><ele>672.0</ele><time>2026-04-26T10:59:37.06Z</time></trkpt><trkpt lat="37.8860032" lon="14.9879308"><ele>672.5</ele><time>2026-04-26T10:59:38.081Z</time></trkpt><trkpt lat="37.88592" lon="14.9876572"><ele>673.0</ele><time>2026-04-26T10:59:39.084Z</time></trkpt><trkpt lat="37.8858355" lon="14.9873816"><ele>674.0</ele><time>2026-04-26T10:59:40.087Z</time></trkpt><trkpt lat="37.8857498" lon="14.987105"><ele>675.0</ele><time>2026-04-26T10:59:41.092Z</time></trkpt><trkpt lat="37.8856651" lon="14.9868335"><ele>676.5</ele><time>2026-04-26T10:59:42.083Z</time></trkpt><trkpt lat="37.8855802" lon="14.9865611"><ele>678.0</ele><time>2026-04-26T10:59:43.091Z</time></trkpt><trkpt lat="37.8854957" lon="14.986292"><ele>678.0</ele><time>2026-04-26T10:59:44.084Z</time></trkpt><trkpt lat="37.8854135" lon="14.986026"><ele>678.0</ele><time>2026-04-26T10:59:45.061Z</time></trkpt><trkpt lat="37.8853296" lon="14.9857585"><ele>680.3333333333334</ele><time>2026-04-26T10:59:46.083Z</time></trkpt><trkpt lat="37.8852469" lon="14.9854978"><ele>682.6666666666667</ele><time>2026-04-26T10:59:47.083Z</time></trkpt><trkpt lat="37.8851644" lon="14.9852371"><ele>685.0</ele><time>2026-04-26T10:59:48.083Z</time></trkpt><trkpt lat="37.8850788" lon="14.9849802"><ele>685.5</ele><time>2026-04-26T10:59:49.063Z</time></trkpt><trkpt lat="37.8849861" lon="14.9847197"><ele>686.0</ele><time>2026-04-26T10:59:50.083Z</time></trkpt><trkpt lat="37.8848941" lon="14.9844608"><ele>686.0</ele><time>2026-04-26T10:59:51.085Z</time></trkpt><trkpt lat="37.8848002" lon="14.9841957"><ele>686.0</ele><time>2026-04-26T10:59:52.083Z</time></trkpt><trkpt lat="37.8847047" lon="14.9839265"><ele>687.5</ele><time>2026-04-26T10:59:53.086Z</time></trkpt><trkpt lat="37.8846074" lon="14.9836562"><ele>689.0</ele><time>2026-04-26T10:59:54.082Z</time></trkpt><trkpt lat="37.8845079" lon="14.9833838"><ele>690.5</ele><time>2026-04-26T10:59:55.083Z</time></trkpt><trkpt lat="37.8844055" lon="14.9831113"><ele>692.0</ele><time>2026-04-26T10:59:56.06Z</time></trkpt><trkpt lat="37.884302" lon="14.982831"><ele>693.5</ele><time>2026-04-26T10:59:57.087Z</time></trkpt><trkpt lat="37.8842028" lon="14.9825578"><ele>695.0</ele><time>2026-04-26T10:59:58.066Z</time></trkpt><trkpt lat="37.8841028" lon="14.98228"><ele>695.5</ele><time>2026-04-26T10:59:59.078Z</time></trkpt><trkpt lat="37.8840021" lon="14.9820052"><ele>696.0</ele><time>2026-04-26T11:00:00.06Z</time></trkpt><trkpt lat="37.8839017" lon="14.9817278"><ele>695.5</ele><time>2026-04-26T11:00:01.08Z</time></trkpt><trkpt lat="37.8838007" lon="14.981452"><ele>695.0</ele><time>2026-04-26T11:00:02.089Z</time></trkpt><trkpt lat="37.8836995" lon="14.9811786"><ele>695.0</ele><time>2026-04-26T11:00:03.059Z</time></trkpt><trkpt lat="37.8835974" lon="14.9809001"><ele>695.0</ele><time>2026-04-26T11:00:04.056Z</time></trkpt><trkpt lat="37.8834973" lon="14.9806225"><ele>698.0</ele><time>2026-04-26T11:00:05.086Z</time></trkpt><trkpt lat="37.8833979" lon="14.9803474"><ele>701.0</ele><time>2026-04-26T11:00:06.087Z</time></trkpt><trkpt lat="37.883302" lon="14.980078"><ele>703.0</ele><time>2026-04-26T11:00:07.085Z</time></trkpt><trkpt lat="37.8832059" lon="14.9798084"><ele>705.0</ele><time>2026-04-26T11:00:08.065Z</time></trkpt><trkpt lat="37.8831061" lon="14.9795447"><ele>705.0</ele><time>2026-04-26T11:00:09.059Z</time></trkpt><trkpt lat="37.8830054" lon="14.979283"><ele>705.0</ele><time>2026-04-26T11:00:10.065Z</time></trkpt><trkpt lat="37.8829068" lon="14.9790201"><ele>705.0</ele><time>2026-04-26T11:00:11.061Z</time></trkpt><trkpt lat="37.88281" lon="14.9787552"><ele>705.0</ele><time>2026-04-26T11:00:12.084Z</time></trkpt><trkpt lat="37.8827114" lon="14.9784884"><ele>704.5</ele><time>2026-04-26T11:00:13.085Z</time></trkpt><trkpt lat="37.8826108" lon="14.978221"><ele>704.0</ele><time>2026-04-26T11:00:14.087Z</time></trkpt><trkpt lat="37.8825086" lon="14.9779522"><ele>705.0</ele><time>2026-04-26T11:00:15.087Z</time></trkpt><trkpt lat="37.8824075" lon="14.9776868"><ele>706.0</ele><time>2026-04-26T11:00:16.085Z</time></trkpt><trkpt lat="37.8823046" lon="14.9774194"><ele>707.5</ele><time>2026-04-26T11:00:17.061Z</time></trkpt><trkpt lat="37.8822012" lon="14.9771561"><ele>709.0</ele><time>2026-04-26T11:00:18.083Z</time></trkpt><trkpt lat="37.8820961" lon="14.976893"><ele>709.3333333333334</ele><time>2026-04-26T11:00:19.061Z</time></trkpt><trkpt lat="37.8819937" lon="14.9766352"><ele>709.6666666666666</ele><time>2026-04-26T11:00:20.061Z</time></trkpt><trkpt lat="37.8818942" lon="14.9763873"><ele>710.0</ele><time>2026-04-26T11:00:21.061Z</time></trkpt><trkpt lat="37.8818008" lon="14.9761466"><ele>711.3333333333333</ele><time>2026-04-26T11:00:22.064Z</time></trkpt><trkpt lat="37.8817104" lon="14.9759128"><ele>712.6666666666666</ele><time>2026-04-26T11:00:23.067Z</time></trkpt><trkpt lat="37.8816213" lon="14.9756876"><ele>714.0</ele><time>2026-04-26T11:00:24.083Z</time></trkpt><trkpt lat="37.8815344" lon="14.9754695"><ele>714.0</ele><time>2026-04-26T11:00:25.087Z</time></trkpt><trkpt lat="37.8814486" lon="14.9752493"><ele>714.0</ele><time>2026-04-26T11:00:26.066Z</time></trkpt><trkpt lat="37.8813653" lon="14.9750296"><ele>714.0</ele><time>2026-04-26T11:00:27.082Z</time></trkpt><trkpt lat="37.8812831" lon="14.9748135"><ele>714.0</ele><time>2026-04-26T11:00:28.065Z</time></trkpt><trkpt lat="37.8812011" lon="14.9746049"><ele>714.0</ele><time>2026-04-26T11:00:29.086Z</time></trkpt><trkpt lat="37.881121" lon="14.9744054"><ele>714.0</ele><time>2026-04-26T11:00:30.063Z</time></trkpt><trkpt lat="37.881044" lon="14.9742083"><ele>713.3333333333334</ele><time>2026-04-26T11:00:31.089Z</time></trkpt><trkpt lat="37.8809697" lon="14.9740083"><ele>712.6666666666667</ele><time>2026-04-26T11:00:32.083Z</time></trkpt><trkpt lat="37.8808997" lon="14.9737973"><ele>712.0</ele><time>2026-04-26T11:00:33.085Z</time></trkpt><trkpt lat="37.8808336" lon="14.9735787"><ele>711.0</ele><time>2026-04-26T11:00:34.077Z</time></trkpt><trkpt lat="37.8807643" lon="14.9733529"><ele>710.0</ele><time>2026-04-26T11:00:35.083Z</time></trkpt><trkpt lat="37.8806913" lon="14.9731162"><ele>709.0</ele><time>2026-04-26T11:00:36.076Z</time></trkpt><trkpt lat="37.8806106" lon="14.9728797"><ele>709.0</ele><time>2026-04-26T11:00:37.059Z</time></trkpt><trkpt lat="37.8805278" lon="14.9726406"><ele>709.0</ele><time>2026-04-26T11:00:38.057Z</time></trkpt><trkpt lat="37.8804422" lon="14.9724005"><ele>709.0</ele><time>2026-04-26T11:00:39.086Z</time></trkpt><trkpt lat="37.880357" lon="14.9721726"><ele>709.0</ele><time>2026-04-26T11:00:40.085Z</time></trkpt><trkpt lat="37.8802777" lon="14.9719585"><ele>709.0</ele><time>2026-04-26T11:00:41.092Z</time></trkpt><trkpt lat="37.8801998" lon="14.9717637"><ele>709.0</ele><time>2026-04-26T11:00:42.092Z</time></trkpt><trkpt lat="37.880127" lon="14.971579"><ele>710.6666666666667</ele><time>2026-04-26T11:00:43.089Z</time></trkpt><trkpt lat="37.8800665" lon="14.9713979"><ele>712.3333333333334</ele><time>2026-04-26T11:00:44.066Z</time></trkpt><trkpt lat="37.8800091" lon="14.9712088"><ele>714.0</ele><time>2026-04-26T11:00:45.064Z</time></trkpt><trkpt lat="37.8799516" lon="14.9710171"><ele>714.0</ele><time>2026-04-26T11:00:46.064Z</time></trkpt><trkpt lat="37.879896" lon="14.9708194"><ele>714.0</ele><time>2026-04-26T11:00:47.093Z</time></trkpt><trkpt lat="37.8798456" lon="14.9706221"><ele>714.0</ele><time>2026-04-26T11:00:48.086Z</time></trkpt><trkpt lat="37.8798019" lon="14.9704262"><ele>714.0</ele><time>2026-04-26T11:00:49.087Z</time></trkpt><trkpt lat="37.8797625" lon="14.9702322"><ele>714.0</ele><time>2026-04-26T11:00:50.088Z</time></trkpt><trkpt lat="37.8797218" lon="14.9700456"><ele>714.0</ele><time>2026-04-26T11:00:51.084Z</time></trkpt><trkpt lat="37.8796747" lon="14.9698636"><ele>714.0</ele><time>2026-04-26T11:00:52.084Z</time></trkpt><trkpt lat="37.8796152" lon="14.9696837"><ele>714.0</ele><time>2026-04-26T11:00:53.061Z</time></trkpt><trkpt lat="37.8795404" lon="14.9694917"><ele>714.0</ele><time>2026-04-26T11:00:54.085Z</time></trkpt><trkpt lat="37.879456" lon="14.9692994"><ele>714.6666666666666</ele><time>2026-04-26T11:00:55.062Z</time></trkpt><trkpt lat="37.8793679" lon="14.9691003"><ele>715.3333333333333</ele><time>2026-04-26T11:00:56.061Z</time></trkpt><trkpt lat="37.8792869" lon="14.968898"><ele>716.0</ele><time>2026-04-26T11:00:57.08Z</time></trkpt><trkpt lat="37.8792193" lon="14.9686942"><ele>716.3333333333333</ele><time>2026-04-26T11:00:58.084Z</time></trkpt><trkpt lat="37.8791613" lon="14.9684832"><ele>716.6666666666666</ele><time>2026-04-26T11:00:59.084Z</time></trkpt><trkpt lat="37.8791102" lon="14.9682676"><ele>717.0</ele><time>2026-04-26T11:01:00.078Z</time></trkpt><trkpt lat="37.8790614" lon="14.9680477"><ele>717.0</ele><time>2026-04-26T11:01:01.08Z</time></trkpt><trkpt lat="37.879016" lon="14.9678278"><ele>717.0</ele><time>2026-04-26T11:01:02.074Z</time></trkpt><trkpt lat="37.8789701" lon="14.9676029"><ele>717.0</ele><time>2026-04-26T11:01:03.078Z</time></trkpt><trkpt lat="37.878925" lon="14.967376"><ele>716.6666666666666</ele><time>2026-04-26T11:01:04.078Z</time></trkpt><trkpt lat="37.8788818" lon="14.9671415"><ele>716.3333333333333</ele><time>2026-04-26T11:01:05.088Z</time></trkpt><trkpt lat="37.8788379" lon="14.966908"><ele>716.0</ele><time>2026-04-26T11:01:06.065Z</time></trkpt><trkpt lat="37.8787914" lon="14.9666719"><ele>716.6666666666666</ele><time>2026-04-26T11:01:07.076Z</time></trkpt><trkpt lat="37.8787437" lon="14.9664314"><ele>717.3333333333334</ele><time>2026-04-26T11:01:08.086Z</time></trkpt><trkpt lat="37.8786951" lon="14.9661925"><ele>718.0</ele><time>2026-04-26T11:01:09.084Z</time></trkpt><trkpt lat="37.8786463" lon="14.9659591"><ele>717.6666666666667</ele><time>2026-04-26T11:01:10.083Z</time></trkpt><trkpt lat="37.8785988" lon="14.9657357"><ele>717.3333333333334</ele><time>2026-04-26T11:01:11.088Z</time></trkpt><trkpt lat="37.8785554" lon="14.965532"><ele>717.0</ele><time>2026-04-26T11:01:12.068Z</time></trkpt><trkpt lat="37.8785109" lon="14.9653438"><ele>717.0</ele><time>2026-04-26T11:01:13.086Z</time></trkpt><trkpt lat="37.8784642" lon="14.9651739"><ele>717.0</ele><time>2026-04-26T11:01:14.077Z</time></trkpt><trkpt lat="37.8784196" lon="14.9650269"><ele>717.0</ele><time>2026-04-26T11:01:15.087Z</time></trkpt><trkpt lat="37.8783816" lon="14.9649127"><ele>717.0</ele><time>2026-04-26T11:01:16.092Z</time></trkpt><trkpt lat="37.8783516" lon="14.9648332"><ele>717.0</ele><time>2026-04-26T11:01:17.067Z</time></trkpt><trkpt lat="37.8783234" lon="14.9647196"><ele>718.4000000000001</ele><time>2026-04-26T11:01:19.096Z</time></trkpt><trkpt lat="37.8783204" lon="14.9645744"><ele>719.8000000000001</ele><time>2026-04-26T11:01:21.076Z</time></trkpt><trkpt lat="37.8783257" lon="14.9644652"><ele>721.2</ele><time>2026-04-26T11:01:22.081Z</time></trkpt><trkpt lat="37.8783347" lon="14.9643322"><ele>722.6</ele><time>2026-04-26T11:01:23.084Z</time></trkpt><trkpt lat="37.8783431" lon="14.9641786"><ele>724.0</ele><time>2026-04-26T11:01:24.061Z</time></trkpt><trkpt lat="37.8783482" lon="14.9640215"><ele>724.75</ele><time>2026-04-26T11:01:25.06Z</time></trkpt><trkpt lat="37.8783557" lon="14.9638616"><ele>725.5</ele><time>2026-04-26T11:01:26.079Z</time></trkpt><trkpt lat="37.878368" lon="14.9636972"><ele>726.25</ele><time>2026-04-26T11:01:27.084Z</time></trkpt><trkpt lat="37.8783817" lon="14.9635302"><ele>727.0</ele><time>2026-04-26T11:01:28.088Z</time></trkpt><trkpt lat="37.8783934" lon="14.9633606"><ele>727.25</ele><time>2026-04-26T11:01:29.083Z</time></trkpt><trkpt lat="37.8784061" lon="14.9631878"><ele>727.5</ele><time>2026-04-26T11:01:30.084Z</time></trkpt><trkpt lat="37.878419" lon="14.9630121"><ele>727.75</ele><time>2026-04-26T11:01:31.06Z</time></trkpt><trkpt lat="37.8784302" lon="14.9628344"><ele>728.0</ele><time>2026-04-26T11:01:32.059Z</time></trkpt><trkpt lat="37.8784425" lon="14.9626581"><ele>728.0</ele><time>2026-04-26T11:01:33.063Z</time></trkpt><trkpt lat="37.8784549" lon="14.9624931"><ele>728.0</ele><time>2026-04-26T11:01:34.083Z</time></trkpt><trkpt lat="37.8784618" lon="14.9623369"><ele>728.0</ele><time>2026-04-26T11:01:35.082Z</time></trkpt><trkpt lat="37.8784737" lon="14.9621847"><ele>728.0</ele><time>2026-04-26T11:01:36.084Z</time></trkpt><trkpt lat="37.8784864" lon="14.962037"><ele>728.0</ele><time>2026-04-26T11:01:37.059Z</time></trkpt><trkpt lat="37.8784943" lon="14.9618859"><ele>728.0</ele><time>2026-04-26T11:01:38.062Z</time></trkpt><trkpt lat="37.8784993" lon="14.9617359"><ele>728.0</ele><time>2026-04-26T11:01:39.078Z</time></trkpt><trkpt lat="37.8785054" lon="14.9615842"><ele>728.0</ele><time>2026-04-26T11:01:40.084Z</time></trkpt><trkpt lat="37.878513" lon="14.9614358"><ele>729.2</ele><time>2026-04-26T11:01:41.059Z</time></trkpt><trkpt lat="37.8785174" lon="14.9612907"><ele>730.4</ele><time>2026-04-26T11:01:42.066Z</time></trkpt><trkpt lat="37.8785245" lon="14.9611625"><ele>731.6</ele><time>2026-04-26T11:01:43.09Z</time></trkpt><trkpt lat="37.8785308" lon="14.961045"><ele>732.8000000000001</ele><time>2026-04-26T11:01:44.064Z</time></trkpt><trkpt lat="37.8785383" lon="14.9609317"><ele>734.0</ele><time>2026-04-26T11:01:45.085Z</time></trkpt><trkpt lat="37.8785429" lon="14.9608177"><ele>734.0</ele><time>2026-04-26T11:01:46.064Z</time></trkpt><trkpt lat="37.8785504" lon="14.9607033"><ele>734.0</ele><time>2026-04-26T11:01:47.059Z</time></trkpt><trkpt lat="37.8785586" lon="14.960583"><ele>734.0</ele><time>2026-04-26T11:01:48.085Z</time></trkpt><trkpt lat="37.8785657" lon="14.9604666"><ele>734.0</ele><time>2026-04-26T11:01:49.084Z</time></trkpt><trkpt lat="37.8785731" lon="14.9603528"><ele>734.0</ele><time>2026-04-26T11:01:50.085Z</time></trkpt><trkpt lat="37.8785844" lon="14.9602408"><ele>734.0</ele><time>2026-04-26T11:01:51.085Z</time></trkpt><trkpt lat="37.8785978" lon="14.9601219"><ele>734.0</ele><time>2026-04-26T11:01:52.082Z</time></trkpt><trkpt lat="37.8786156" lon="14.9600032"><ele>734.0</ele><time>2026-04-26T11:01:53.077Z</time></trkpt><trkpt lat="37.8786377" lon="14.9598839"><ele>734.0</ele><time>2026-04-26T11:01:54.081Z</time></trkpt><trkpt lat="37.8786672" lon="14.9597668"><ele>734.0</ele><time>2026-04-26T11:01:55.06Z</time></trkpt><trkpt lat="37.8787049" lon="14.9596518"><ele>735.75</ele><time>2026-04-26T11:01:56.09Z</time></trkpt><trkpt lat="37.8787963" lon="14.959432"><ele>737.5</ele><time>2026-04-26T11:01:58.076Z</time></trkpt><trkpt lat="37.8788495" lon="14.9593265"><ele>739.25</ele><time>2026-04-26T11:01:59.084Z</time></trkpt><trkpt lat="37.8789037" lon="14.9592272"><ele>741.0</ele><time>2026-04-26T11:02:00.079Z</time></trkpt><trkpt lat="37.8789539" lon="14.9591272"><ele>741.8333333333334</ele><time>2026-04-26T11:02:01.079Z</time></trkpt><trkpt lat="37.8789956" lon="14.9590265"><ele>742.6666666666666</ele><time>2026-04-26T11:02:02.083Z</time></trkpt><trkpt lat="37.8790319" lon="14.9589271"><ele>743.5</ele><time>2026-04-26T11:02:03.08Z</time></trkpt><trkpt lat="37.8790637" lon="14.9588336"><ele>744.3333333333333</ele><time>2026-04-26T11:02:04.081Z</time></trkpt><trkpt lat="37.879091" lon="14.9587491"><ele>745.1666666666666</ele><time>2026-04-26T11:02:05.084Z</time></trkpt><trkpt lat="37.8791192" lon="14.9586715"><ele>746.0</ele><time>2026-04-26T11:02:06.083Z</time></trkpt><trkpt lat="37.8791583" lon="14.9585522"><ele>746.0</ele><time>2026-04-26T11:02:08.083Z</time></trkpt><trkpt lat="37.8791813" lon="14.9584675"><ele>746.0</ele><time>2026-04-26T11:02:10.083Z</time></trkpt><trkpt lat="37.8792074" lon="14.9583567"><ele>746.0</ele><time>2026-04-26T11:02:13.081Z</time></trkpt><trkpt lat="37.8792339" lon="14.9582834"><ele>746.0</ele><time>2026-04-26T11:02:23.065Z</time></trkpt><trkpt lat="37.8792632" lon="14.958161"><ele>746.0</ele><time>2026-04-26T11:02:26.088Z</time></trkpt><trkpt lat="37.8792979" lon="14.9580899"><ele>746.0</ele><time>2026-04-26T11:02:28.085Z</time></trkpt><trkpt lat="37.8793094" lon="14.9579913"><ele>745.8333333333333</ele><time>2026-04-26T11:02:32.082Z</time></trkpt><trkpt lat="37.8793317" lon="14.9579144"><ele>745.6666666666666</ele><time>2026-04-26T11:02:35.081Z</time></trkpt><trkpt lat="37.8793644" lon="14.9578051"><ele>745.5</ele><time>2026-04-26T11:02:39.081Z</time></trkpt><trkpt lat="37.8794084" lon="14.9576815"><ele>745.3333333333334</ele><time>2026-04-26T11:02:41.079Z</time></trkpt><trkpt lat="37.8794381" lon="14.957607"><ele>745.1666666666667</ele><time>2026-04-26T11:02:42.085Z</time></trkpt><trkpt lat="37.8794604" lon="14.9575256"><ele>745.0</ele><time>2026-04-26T11:02:43.085Z</time></trkpt><trkpt lat="37.8794766" lon="14.9574448"><ele>744.7142857142857</ele><time>2026-04-26T11:02:44.083Z</time></trkpt><trkpt lat="37.8794889" lon="14.9573655"><ele>744.4285714285713</ele><time>2026-04-26T11:02:45.102Z</time></trkpt><trkpt lat="37.8795028" lon="14.9572858"><ele>744.1428571428571</ele><time>2026-04-26T11:02:46.066Z</time></trkpt><trkpt lat="37.8795175" lon="14.9572044"><ele>743.8571428571429</ele><time>2026-04-26T11:02:47.082Z</time></trkpt><trkpt lat="37.8795291" lon="14.9571087"><ele>743.5714285714286</ele><time>2026-04-26T11:02:48.085Z</time></trkpt><trkpt lat="37.8795402" lon="14.9570015"><ele>743.2857142857143</ele><time>2026-04-26T11:02:49.085Z</time></trkpt><trkpt lat="37.8795502" lon="14.9568897"><ele>743.0</ele><time>2026-04-26T11:02:50.082Z</time></trkpt><trkpt lat="37.8795598" lon="14.9567729"><ele>743.1666666666666</ele><time>2026-04-26T11:02:51.082Z</time></trkpt><trkpt lat="37.8795718" lon="14.9566631"><ele>743.3333333333333</ele><time>2026-04-26T11:02:52.086Z</time></trkpt><trkpt lat="37.8795849" lon="14.9565578"><ele>743.5</ele><time>2026-04-26T11:02:53.066Z</time></trkpt><trkpt lat="37.8796" lon="14.9564551"><ele>743.6666666666666</ele><time>2026-04-26T11:02:54.085Z</time></trkpt><trkpt lat="37.8796141" lon="14.9563449"><ele>743.8333333333334</ele><time>2026-04-26T11:02:55.089Z</time></trkpt><trkpt lat="37.8796306" lon="14.9562313"><ele>744.0</ele><time>2026-04-26T11:02:56.074Z</time></trkpt><trkpt lat="37.87965" lon="14.9561132"><ele>744.0</ele><time>2026-04-26T11:02:57.076Z</time></trkpt><trkpt lat="37.8796697" lon="14.9559954"><ele>744.0</ele><time>2026-04-26T11:02:58.084Z</time></trkpt><trkpt lat="37.8796882" lon="14.9558812"><ele>744.0</ele><time>2026-04-26T11:02:59.08Z</time></trkpt><trkpt lat="37.8797039" lon="14.9557686"><ele>744.0</ele><time>2026-04-26T11:03:00.066Z</time></trkpt><trkpt lat="37.8797194" lon="14.9556634"><ele>744.0</ele><time>2026-04-26T11:03:01.08Z</time></trkpt><trkpt lat="37.8797319" lon="14.9555639"><ele>744.0</ele><time>2026-04-26T11:03:02.08Z</time></trkpt><trkpt lat="37.8797397" lon="14.9554615"><ele>744.1666666666666</ele><time>2026-04-26T11:03:03.081Z</time></trkpt><trkpt lat="37.8797471" lon="14.9553602"><ele>744.3333333333334</ele><time>2026-04-26T11:03:04.087Z</time></trkpt><trkpt lat="37.8797539" lon="14.9552536"><ele>744.5</ele><time>2026-04-26T11:03:05.084Z</time></trkpt><trkpt lat="37.879764" lon="14.9551415"><ele>744.6666666666667</ele><time>2026-04-26T11:03:06.064Z</time></trkpt><trkpt lat="37.8797778" lon="14.9550317"><ele>744.8333333333334</ele><time>2026-04-26T11:03:07.08Z</time></trkpt><trkpt lat="37.8797887" lon="14.9549134"><ele>745.0</ele><time>2026-04-26T11:03:08.062Z</time></trkpt><trkpt lat="37.8798008" lon="14.9547899"><ele>744.6</ele><time>2026-04-26T11:03:09.083Z</time></trkpt><trkpt lat="37.8798147" lon="14.9546638"><ele>744.2</ele><time>2026-04-26T11:03:10.082Z</time></trkpt><trkpt lat="37.8798283" lon="14.9545385"><ele>743.8</ele><time>2026-04-26T11:03:11.093Z</time></trkpt><trkpt lat="37.8798409" lon="14.9544223"><ele>743.4</ele><time>2026-04-26T11:03:12.085Z</time></trkpt><trkpt lat="37.8798531" lon="14.9543142"><ele>743.0</ele><time>2026-04-26T11:03:13.096Z</time></trkpt><trkpt lat="37.8798663" lon="14.9542095"><ele>742.6666666666666</ele><time>2026-04-26T11:03:14.093Z</time></trkpt><trkpt lat="37.8798824" lon="14.9541061"><ele>742.3333333333333</ele><time>2026-04-26T11:03:15.109Z</time></trkpt><trkpt lat="37.8798967" lon="14.9540006"><ele>742.0</ele><time>2026-04-26T11:03:16.094Z</time></trkpt><trkpt lat="37.8799104" lon="14.9538933"><ele>741.6666666666666</ele><time>2026-04-26T11:03:17.086Z</time></trkpt><trkpt lat="37.8799223" lon="14.9537868"><ele>741.3333333333334</ele><time>2026-04-26T11:03:18.08Z</time></trkpt><trkpt lat="37.8799321" lon="14.9536838"><ele>741.0</ele><time>2026-04-26T11:03:19.094Z</time></trkpt><trkpt lat="37.8799403" lon="14.9535879"><ele>741.0</ele><time>2026-04-26T11:03:20.098Z</time></trkpt><trkpt lat="37.8799538" lon="14.9535016"><ele>741.0</ele><time>2026-04-26T11:03:21.063Z</time></trkpt><trkpt lat="37.8799763" lon="14.9534255"><ele>741.0</ele><time>2026-04-26T11:03:22.069Z</time></trkpt><trkpt lat="37.880017" lon="14.9533615"><ele>741.0</ele><time>2026-04-26T11:03:23.069Z</time></trkpt><trkpt lat="37.8801271" lon="14.9532693"><ele>741.0</ele><time>2026-04-26T11:03:25.084Z</time></trkpt><trkpt lat="37.8801938" lon="14.9532297"><ele>741.0</ele><time>2026-04-26T11:03:26.09Z</time></trkpt><trkpt lat="37.8802597" lon="14.9532021"><ele>740.0</ele><time>2026-04-26T11:03:27.079Z</time></trkpt><trkpt lat="37.8803741" lon="14.9531604"><ele>739.0</ele><time>2026-04-26T11:03:29.094Z</time></trkpt><trkpt lat="37.8804357" lon="14.9531424"><ele>738.0</ele><time>2026-04-26T11:03:30.095Z</time></trkpt><trkpt lat="37.8805278" lon="14.9530984"><ele>737.0</ele><time>2026-04-26T11:03:32.088Z</time></trkpt><trkpt lat="37.8805851" lon="14.9530433"><ele>736.0</ele><time>2026-04-26T11:03:34.098Z</time></trkpt><trkpt lat="37.8806331" lon="14.9529598"><ele>735.0</ele><time>2026-04-26T11:03:37.08Z</time></trkpt><trkpt lat="37.8806578" lon="14.9528844"><ele>735.0</ele><time>2026-04-26T11:04:09.081Z</time></trkpt><trkpt lat="37.880683" lon="14.9528038"><ele>735.0</ele><time>2026-04-26T11:04:11.081Z</time></trkpt><trkpt lat="37.8807024" lon="14.9527219"><ele>735.0</ele><time>2026-04-26T11:04:13.08Z</time></trkpt><trkpt lat="37.8807077" lon="14.9526139"><ele>735.0</ele><time>2026-04-26T11:04:16.095Z</time></trkpt><trkpt lat="37.8807204" lon="14.9525235"><ele>735.0</ele><time>2026-04-26T11:07:01.08Z</time></trkpt><trkpt lat="37.880719" lon="14.9524082"><ele>735.0</ele><time>2026-04-26T11:07:03.084Z</time></trkpt><trkpt lat="37.8807219" lon="14.952316"><ele>734.8333333333334</ele><time>2026-04-26T11:07:04.097Z</time></trkpt><trkpt lat="37.8807268" lon="14.9522071"><ele>734.6666666666666</ele><time>2026-04-26T11:07:05.083Z</time></trkpt><trkpt lat="37.8807403" lon="14.9521005"><ele>734.5</ele><time>2026-04-26T11:07:06.068Z</time></trkpt><trkpt lat="37.8807669" lon="14.9519981"><ele>734.3333333333333</ele><time>2026-04-26T11:07:07.101Z</time></trkpt><trkpt lat="37.8807981" lon="14.9519037"><ele>734.1666666666666</ele><time>2026-04-26T11:07:08.08Z</time></trkpt><trkpt lat="37.8808294" lon="14.9518148"><ele>734.0</ele><time>2026-04-26T11:07:09.094Z</time></trkpt><trkpt lat="37.8808632" lon="14.9517296"><ele>731.4000000000001</ele><time>2026-04-26T11:07:10.094Z</time></trkpt><trkpt lat="37.8808936" lon="14.9516414"><ele>728.8</ele><time>2026-04-26T11:07:11.099Z</time></trkpt><trkpt lat="37.8809247" lon="14.9515444"><ele>726.2</ele><time>2026-04-26T11:07:12.085Z</time></trkpt><trkpt lat="37.8809599" lon="14.9514295"><ele>723.5999999999999</ele><time>2026-04-26T11:07:13.1Z</time></trkpt><trkpt lat="37.8809971" lon="14.9513066"><ele>721.0</ele><time>2026-04-26T11:07:14.106Z</time></trkpt><trkpt lat="37.8810379" lon="14.9511802"><ele>720.8</ele><time>2026-04-26T11:07:15.106Z</time></trkpt><trkpt lat="37.8810794" lon="14.9510519"><ele>720.5999999999999</ele><time>2026-04-26T11:07:16.101Z</time></trkpt><trkpt lat="37.8811234" lon="14.9509253"><ele>720.4</ele><time>2026-04-26T11:07:17.108Z</time></trkpt><trkpt lat="37.8811709" lon="14.9507973"><ele>720.2</ele><time>2026-04-26T11:07:18.072Z</time></trkpt><trkpt lat="37.8812168" lon="14.9506683"><ele>720.0</ele><time>2026-04-26T11:07:19.096Z</time></trkpt><trkpt lat="37.8812625" lon="14.9505459"><ele>720.0</ele><time>2026-04-26T11:07:20.106Z</time></trkpt><trkpt lat="37.8813022" lon="14.950428"><ele>720.0</ele><time>2026-04-26T11:07:21.099Z</time></trkpt><trkpt lat="37.881332" lon="14.9503153"><ele>720.0</ele><time>2026-04-26T11:07:22.098Z</time></trkpt><trkpt lat="37.8813462" lon="14.9502104"><ele>720.0</ele><time>2026-04-26T11:07:23.101Z</time></trkpt><trkpt lat="37.8813435" lon="14.9500998"><ele>720.0</ele><time>2026-04-26T11:07:24.096Z</time></trkpt><trkpt lat="37.8813257" lon="14.9499904"><ele>723.6</ele><time>2026-04-26T11:07:25.102Z</time></trkpt><trkpt lat="37.8812932" lon="14.9498774"><ele>727.2</ele><time>2026-04-26T11:07:26.102Z</time></trkpt><trkpt lat="37.8812399" lon="14.9497548"><ele>730.8</ele><time>2026-04-26T11:07:27.07Z</time></trkpt><trkpt lat="37.8811693" lon="14.9496308"><ele>734.4</ele><time>2026-04-26T11:07:28.085Z</time></trkpt><trkpt lat="37.8811068" lon="14.9495129"><ele>738.0</ele><time>2026-04-26T11:07:29.108Z</time></trkpt><trkpt lat="37.8810597" lon="14.9494094"><ele>738.0</ele><time>2026-04-26T11:07:30.082Z</time></trkpt><trkpt lat="37.8810346" lon="14.9493249"><ele>738.0</ele><time>2026-04-26T11:07:31.098Z</time></trkpt><trkpt lat="37.8810615" lon="14.9491838"><ele>738.0</ele><time>2026-04-26T11:07:33.101Z</time></trkpt><trkpt lat="37.8811604" lon="14.9491587"><ele>738.0</ele><time>2026-04-26T11:07:35.1Z</time></trkpt><trkpt lat="37.8812218" lon="14.9492039"><ele>738.0</ele><time>2026-04-26T11:07:36.102Z</time></trkpt><trkpt lat="37.8812811" lon="14.9492799"><ele>738.0</ele><time>2026-04-26T11:07:37.102Z</time></trkpt><trkpt lat="37.8813475" lon="14.9493966"><ele>738.0</ele><time>2026-04-26T11:07:38.088Z</time></trkpt><trkpt lat="37.8814234" lon="14.9495305"><ele>738.0</ele><time>2026-04-26T11:07:39.084Z</time></trkpt><trkpt lat="37.8815117" lon="14.9496873"><ele>738.0</ele><time>2026-04-26T11:07:40.103Z</time></trkpt><trkpt lat="37.8816" lon="14.9498427"><ele>738.0</ele><time>2026-04-26T11:07:41.088Z</time></trkpt><trkpt lat="37.8816768" lon="14.9499706"><ele>737.4</ele><time>2026-04-26T11:07:42.094Z</time></trkpt><trkpt lat="37.8817438" lon="14.9500679"><ele>736.8</ele><time>2026-04-26T11:07:43.073Z</time></trkpt><trkpt lat="37.8818104" lon="14.9501299"><ele>736.2</ele><time>2026-04-26T11:07:44.099Z</time></trkpt><trkpt lat="37.8818757" lon="14.9501541"><ele>735.6</ele><time>2026-04-26T11:07:45.107Z</time></trkpt><trkpt lat="37.8819836" lon="14.9500884"><ele>735.0</ele><time>2026-04-26T11:07:47.086Z</time></trkpt><trkpt lat="37.8820177" lon="14.9499972"><ele>739.2</ele><time>2026-04-26T11:07:48.1Z</time></trkpt><trkpt lat="37.882025" lon="14.9498842"><ele>743.4</ele><time>2026-04-26T11:07:49.074Z</time></trkpt><trkpt lat="37.8820089" lon="14.949755"><ele>747.5999999999999</ele><time>2026-04-26T11:07:50.097Z</time></trkpt><trkpt lat="37.8819699" lon="14.9496117"><ele>751.8</ele><time>2026-04-26T11:07:51.1Z</time></trkpt><trkpt lat="37.8819122" lon="14.9494551"><ele>756.0</ele><time>2026-04-26T11:07:52.101Z</time></trkpt><trkpt lat="37.8818488" lon="14.9492836"><ele>757.5999999999999</ele><time>2026-04-26T11:07:53.065Z</time></trkpt><trkpt lat="37.8817916" lon="14.9491134"><ele>759.2</ele><time>2026-04-26T11:07:54.093Z</time></trkpt><trkpt lat="37.8817404" lon="14.9489622"><ele>760.8</ele><time>2026-04-26T11:07:55.087Z</time></trkpt><trkpt lat="37.8817096" lon="14.9488419"><ele>762.4000000000001</ele><time>2026-04-26T11:07:56.09Z</time></trkpt><trkpt lat="37.8817029" lon="14.948752"><ele>764.0</ele><time>2026-04-26T11:07:57.083Z</time></trkpt><trkpt lat="37.8817573" lon="14.9486516"><ele>764.0</ele><time>2026-04-26T11:07:59.086Z</time></trkpt><trkpt lat="37.8818704" lon="14.9487031"><ele>764.0</ele><time>2026-04-26T11:08:01.067Z</time></trkpt><trkpt lat="37.8819287" lon="14.9487797"><ele>764.0</ele><time>2026-04-26T11:08:02.064Z</time></trkpt><trkpt lat="37.8819953" lon="14.9488875"><ele>764.0</ele><time>2026-04-26T11:08:03.087Z</time></trkpt><trkpt lat="37.8820757" lon="14.9490009"><ele>764.0</ele><time>2026-04-26T11:08:04.088Z</time></trkpt><trkpt lat="37.8821737" lon="14.9491057"><ele>764.0</ele><time>2026-04-26T11:08:05.081Z</time></trkpt><trkpt lat="37.882273" lon="14.949208"><ele>764.0</ele><time>2026-04-26T11:08:06.081Z</time></trkpt><trkpt lat="37.8823518" lon="14.9493163"><ele>764.0</ele><time>2026-04-26T11:08:07.085Z</time></trkpt><trkpt lat="37.8824037" lon="14.9494312"><ele>764.0</ele><time>2026-04-26T11:08:08.093Z</time></trkpt><trkpt lat="37.8824316" lon="14.9495502"><ele>764.0</ele><time>2026-04-26T11:08:09.094Z</time></trkpt><trkpt lat="37.8824451" lon="14.9496922"><ele>764.4000000000001</ele><time>2026-04-26T11:08:10.078Z</time></trkpt><trkpt lat="37.8824546" lon="14.9498334"><ele>764.8</ele><time>2026-04-26T11:08:11.081Z</time></trkpt><trkpt lat="37.8824735" lon="14.9499599"><ele>765.2</ele><time>2026-04-26T11:08:12.082Z</time></trkpt><trkpt lat="37.8825079" lon="14.9500669"><ele>765.5999999999999</ele><time>2026-04-26T11:08:13.079Z</time></trkpt><trkpt lat="37.8825635" lon="14.9501632"><ele>766.0</ele><time>2026-04-26T11:08:14.086Z</time></trkpt><trkpt lat="37.8826355" lon="14.9502402"><ele>766.0</ele><time>2026-04-26T11:08:15.102Z</time></trkpt><trkpt lat="37.8827211" lon="14.9502955"><ele>766.0</ele><time>2026-04-26T11:08:16.087Z</time></trkpt><trkpt lat="37.8828262" lon="14.9503373"><ele>766.0</ele><time>2026-04-26T11:08:17.085Z</time></trkpt><trkpt lat="37.8829339" lon="14.950385"><ele>766.0</ele><time>2026-04-26T11:08:18.081Z</time></trkpt><trkpt lat="37.8830386" lon="14.950448"><ele>766.0</ele><time>2026-04-26T11:08:19.085Z</time></trkpt><trkpt lat="37.8831313" lon="14.9505255"><ele>766.0</ele><time>2026-04-26T11:08:20.085Z</time></trkpt><trkpt lat="37.883205" lon="14.9506098"><ele>766.0</ele><time>2026-04-26T11:08:21.085Z</time></trkpt><trkpt lat="37.8832637" lon="14.9507066"><ele>766.0</ele><time>2026-04-26T11:08:22.066Z</time></trkpt><trkpt lat="37.8833038" lon="14.9508217"><ele>766.0</ele><time>2026-04-26T11:08:23.081Z</time></trkpt><trkpt lat="37.8833324" lon="14.9509431"><ele>766.0</ele><time>2026-04-26T11:08:24.065Z</time></trkpt><trkpt lat="37.8833697" lon="14.9510481"><ele>768.25</ele><time>2026-04-26T11:08:25.086Z</time></trkpt><trkpt lat="37.8834314" lon="14.9511422"><ele>770.5</ele><time>2026-04-26T11:08:26.081Z</time></trkpt><trkpt lat="37.8835144" lon="14.951235"><ele>772.75</ele><time>2026-04-26T11:08:27.084Z</time></trkpt><trkpt lat="37.8836168" lon="14.9513357"><ele>775.0</ele><time>2026-04-26T11:08:28.086Z</time></trkpt><trkpt lat="37.8837209" lon="14.9514345"><ele>775.0</ele><time>2026-04-26T11:08:29.084Z</time></trkpt><trkpt lat="37.8838156" lon="14.9515148"><ele>775.0</ele><time>2026-04-26T11:08:30.084Z</time></trkpt><trkpt lat="37.8839119" lon="14.951579"><ele>775.0</ele><time>2026-04-26T11:08:31.082Z</time></trkpt><trkpt lat="37.8839991" lon="14.9516204"><ele>775.0</ele><time>2026-04-26T11:08:32.059Z</time></trkpt><trkpt lat="37.8840741" lon="14.9516435"><ele>775.0</ele><time>2026-04-26T11:08:33.081Z</time></trkpt><trkpt lat="37.8841376" lon="14.9516314"><ele>775.0</ele><time>2026-04-26T11:08:34.076Z</time></trkpt><trkpt lat="37.8842096" lon="14.951532"><ele>775.0</ele><time>2026-04-26T11:08:36.086Z</time></trkpt><trkpt lat="37.8841537" lon="14.9514106"><ele>775.0</ele><time>2026-04-26T11:08:38.081Z</time></trkpt><trkpt lat="37.8840922" lon="14.9513659"><ele>775.0</ele><time>2026-04-26T11:08:39.086Z</time></trkpt><trkpt lat="37.8840156" lon="14.9513494"><ele>775.0</ele><time>2026-04-26T11:08:40.067Z</time></trkpt><trkpt lat="37.8839314" lon="14.9513465"><ele>775.0</ele><time>2026-04-26T11:08:41.098Z</time></trkpt><trkpt lat="37.8838599" lon="14.9513311"><ele>775.0</ele><time>2026-04-26T11:08:42.091Z</time></trkpt><trkpt lat="37.8837942" lon="14.9512754"><ele>775.0</ele><time>2026-04-26T11:08:43.085Z</time></trkpt><trkpt lat="37.8837211" lon="14.9511814"><ele>775.0</ele><time>2026-04-26T11:08:44.091Z</time></trkpt><trkpt lat="37.8836508" lon="14.9510809"><ele>775.0</ele><time>2026-04-26T11:08:45.068Z</time></trkpt><trkpt lat="37.8835988" lon="14.9509888"><ele>775.0</ele><time>2026-04-26T11:08:46.082Z</time></trkpt><trkpt lat="37.8835697" lon="14.9508888"><ele>775.0</ele><time>2026-04-26T11:08:47.067Z</time></trkpt><trkpt lat="37.8835634" lon="14.9507723"><ele>775.0</ele><time>2026-04-26T11:08:48.09Z</time></trkpt><trkpt lat="37.8835583" lon="14.9506348"><ele>775.0</ele><time>2026-04-26T11:08:49.085Z</time></trkpt><trkpt lat="37.8835361" lon="14.9505002"><ele>775.0</ele><time>2026-04-26T11:08:50.085Z</time></trkpt><trkpt lat="37.8834926" lon="14.9503686"><ele>777.0</ele><time>2026-04-26T11:08:51.082Z</time></trkpt><trkpt lat="37.8834242" lon="14.9502316"><ele>779.0</ele><time>2026-04-26T11:08:52.089Z</time></trkpt><trkpt lat="37.8833567" lon="14.9500864"><ele>781.0</ele><time>2026-04-26T11:08:53.083Z</time></trkpt><trkpt lat="37.8832979" lon="14.9499307"><ele>783.0</ele><time>2026-04-26T11:08:54.079Z</time></trkpt><trkpt lat="37.8832548" lon="14.9497957"><ele>783.0</ele><time>2026-04-26T11:08:55.081Z</time></trkpt><trkpt lat="37.883226" lon="14.9496708"><ele>783.0</ele><time>2026-04-26T11:08:56.083Z</time></trkpt><trkpt lat="37.8832142" lon="14.9495464"><ele>783.0</ele><time>2026-04-26T11:08:57.087Z</time></trkpt><trkpt lat="37.8832231" lon="14.9494012"><ele>783.0</ele><time>2026-04-26T11:08:58.085Z</time></trkpt><trkpt lat="37.883247" lon="14.9492347"><ele>784.5</ele><time>2026-04-26T11:08:59.066Z</time></trkpt><trkpt lat="37.8832843" lon="14.9490559"><ele>786.0</ele><time>2026-04-26T11:09:00.065Z</time></trkpt><trkpt lat="37.883328" lon="14.9488921"><ele>787.5</ele><time>2026-04-26T11:09:01.092Z</time></trkpt><trkpt lat="37.8833603" lon="14.9487436"><ele>789.0</ele><time>2026-04-26T11:09:02.077Z</time></trkpt><trkpt lat="37.8833725" lon="14.9486072"><ele>789.0</ele><time>2026-04-26T11:09:03.065Z</time></trkpt><trkpt lat="37.8833766" lon="14.9484918"><ele>789.0</ele><time>2026-04-26T11:09:04.085Z</time></trkpt><trkpt lat="37.8833828" lon="14.9483939"><ele>789.0</ele><time>2026-04-26T11:09:05.076Z</time></trkpt><trkpt lat="37.8834108" lon="14.9483216"><ele>789.0</ele><time>2026-04-26T11:09:06.08Z</time></trkpt><trkpt lat="37.883507" lon="14.948309"><ele>789.0</ele><time>2026-04-26T11:09:08.065Z</time></trkpt><trkpt lat="37.8835728" lon="14.9484378"><ele>794.4000000000001</ele><time>2026-04-26T11:09:10.081Z</time></trkpt><trkpt lat="37.8835693" lon="14.9485375"><ele>799.8</ele><time>2026-04-26T11:09:11.077Z</time></trkpt><trkpt lat="37.8835475" lon="14.9486578"><ele>805.2</ele><time>2026-04-26T11:09:12.088Z</time></trkpt><trkpt lat="37.8835254" lon="14.948796"><ele>810.5999999999999</ele><time>2026-04-26T11:09:13.085Z</time></trkpt><trkpt lat="37.8834988" lon="14.9489452"><ele>816.0</ele><time>2026-04-26T11:09:14.085Z</time></trkpt><trkpt lat="37.883475" lon="14.9490985"><ele>814.25</ele><time>2026-04-26T11:09:15.066Z</time></trkpt><trkpt lat="37.8834623" lon="14.9492539"><ele>812.5</ele><time>2026-04-26T11:09:16.085Z</time></trkpt><trkpt lat="37.883468" lon="14.9494089"><ele>810.75</ele><time>2026-04-26T11:09:17.081Z</time></trkpt><trkpt lat="37.88349" lon="14.9495601"><ele>809.0</ele><time>2026-04-26T11:09:18.081Z</time></trkpt><trkpt lat="37.8835275" lon="14.9497038"><ele>809.0</ele><time>2026-04-26T11:09:19.066Z</time></trkpt><trkpt lat="37.8835843" lon="14.9498367"><ele>809.0</ele><time>2026-04-26T11:09:20.083Z</time></trkpt><trkpt lat="37.8836586" lon="14.949959"><ele>809.0</ele><time>2026-04-26T11:09:21.082Z</time></trkpt><trkpt lat="37.8837541" lon="14.9500838"><ele>809.0</ele><time>2026-04-26T11:09:22.084Z</time></trkpt><trkpt lat="37.8838599" lon="14.950194"><ele>808.0</ele><time>2026-04-26T11:09:23.08Z</time></trkpt><trkpt lat="37.8839766" lon="14.9502832"><ele>807.0</ele><time>2026-04-26T11:09:24.081Z</time></trkpt><trkpt lat="37.8841051" lon="14.9503535"><ele>806.0</ele><time>2026-04-26T11:09:25.086Z</time></trkpt><trkpt lat="37.884249" lon="14.9504067"><ele>805.0</ele><time>2026-04-26T11:09:26.065Z</time></trkpt><trkpt lat="37.8844101" lon="14.9504576"><ele>805.0</ele><time>2026-04-26T11:09:27.085Z</time></trkpt><trkpt lat="37.8845827" lon="14.9505096"><ele>805.0</ele><time>2026-04-26T11:09:28.061Z</time></trkpt><trkpt lat="37.884754" lon="14.9505583"><ele>805.0</ele><time>2026-04-26T11:09:29.077Z</time></trkpt><trkpt lat="37.8849182" lon="14.950609"><ele>805.0</ele><time>2026-04-26T11:09:30.084Z</time></trkpt><trkpt lat="37.8850695" lon="14.9506612"><ele>805.0</ele><time>2026-04-26T11:09:31.067Z</time></trkpt><trkpt lat="37.8852073" lon="14.9507263"><ele>805.0</ele><time>2026-04-26T11:09:32.084Z</time></trkpt><trkpt lat="37.8853199" lon="14.9507936"><ele>805.0</ele><time>2026-04-26T11:09:33.067Z</time></trkpt><trkpt lat="37.8854134" lon="14.950868"><ele>808.0</ele><time>2026-04-26T11:09:34.078Z</time></trkpt><trkpt lat="37.8854903" lon="14.9509577"><ele>811.0</ele><time>2026-04-26T11:09:35.086Z</time></trkpt><trkpt lat="37.8855533" lon="14.9510668"><ele>814.0</ele><time>2026-04-26T11:09:36.087Z</time></trkpt><trkpt lat="37.8856042" lon="14.9511989"><ele>817.0</ele><time>2026-04-26T11:09:37.087Z</time></trkpt><trkpt lat="37.8856426" lon="14.9513492"><ele>817.0</ele><time>2026-04-26T11:09:38.085Z</time></trkpt><trkpt lat="37.8856805" lon="14.9514932"><ele>817.0</ele><time>2026-04-26T11:09:39.082Z</time></trkpt><trkpt lat="37.885726" lon="14.9516218"><ele>817.0</ele><time>2026-04-26T11:09:40.084Z</time></trkpt><trkpt lat="37.8857878" lon="14.9517494"><ele>817.0</ele><time>2026-04-26T11:09:41.089Z</time></trkpt><trkpt lat="37.8858668" lon="14.9518832"><ele>820.25</ele><time>2026-04-26T11:09:42.089Z</time></trkpt><trkpt lat="37.8859572" lon="14.9520037"><ele>823.5</ele><time>2026-04-26T11:09:43.089Z</time></trkpt><trkpt lat="37.8860477" lon="14.9521062"><ele>826.75</ele><time>2026-04-26T11:09:44.08Z</time></trkpt><trkpt lat="37.8861349" lon="14.9521917"><ele>830.0</ele><time>2026-04-26T11:09:45.092Z</time></trkpt><trkpt lat="37.8862171" lon="14.9522714"><ele>830.0</ele><time>2026-04-26T11:09:46.08Z</time></trkpt><trkpt lat="37.8862784" lon="14.9523553"><ele>830.0</ele><time>2026-04-26T11:09:47.084Z</time></trkpt><trkpt lat="37.8863133" lon="14.9524484"><ele>830.0</ele><time>2026-04-26T11:09:48.093Z</time></trkpt><trkpt lat="37.886325" lon="14.9525547"><ele>830.0</ele><time>2026-04-26T11:09:49.089Z</time></trkpt><trkpt lat="37.8863173" lon="14.9526824"><ele>830.0</ele><time>2026-04-26T11:09:50.065Z</time></trkpt><trkpt lat="37.8862908" lon="14.9528248"><ele>830.0</ele><time>2026-04-26T11:09:51.067Z</time></trkpt><trkpt lat="37.8862647" lon="14.9529654"><ele>830.0</ele><time>2026-04-26T11:09:52.078Z</time></trkpt><trkpt lat="37.8862487" lon="14.953096"><ele>830.0</ele><time>2026-04-26T11:09:53.083Z</time></trkpt><trkpt lat="37.8862459" lon="14.9532078"><ele>830.0</ele><time>2026-04-26T11:09:54.089Z</time></trkpt><trkpt lat="37.886256" lon="14.9533196"><ele>830.0</ele><time>2026-04-26T11:09:55.087Z</time></trkpt><trkpt lat="37.8862862" lon="14.9534373"><ele>828.5</ele><time>2026-04-26T11:09:56.087Z</time></trkpt><trkpt lat="37.8863356" lon="14.9535575"><ele>827.0</ele><time>2026-04-26T11:09:57.087Z</time></trkpt><trkpt lat="37.8864106" lon="14.9536727"><ele>825.5</ele><time>2026-04-26T11:09:58.089Z</time></trkpt><trkpt lat="37.8865063" lon="14.9537796"><ele>824.0</ele><time>2026-04-26T11:09:59.088Z</time></trkpt><trkpt lat="37.8866264" lon="14.9538788"><ele>826.6666666666667</ele><time>2026-04-26T11:10:00.088Z</time></trkpt><trkpt lat="37.8867681" lon="14.9539878"><ele>829.3333333333333</ele><time>2026-04-26T11:10:01.08Z</time></trkpt><trkpt lat="37.8869171" lon="14.9541091"><ele>832.0</ele><time>2026-04-26T11:10:02.09Z</time></trkpt><trkpt lat="37.8870626" lon="14.9542321"><ele>832.0</ele><time>2026-04-26T11:10:03.081Z</time></trkpt><trkpt lat="37.887212" lon="14.9543531"><ele>832.0</ele><time>2026-04-26T11:10:04.085Z</time></trkpt><trkpt lat="37.8873633" lon="14.9544684"><ele>832.0</ele><time>2026-04-26T11:10:05.077Z</time></trkpt><trkpt lat="37.8875149" lon="14.9545818"><ele>834.3333333333333</ele><time>2026-04-26T11:10:06.082Z</time></trkpt><trkpt lat="37.8876602" lon="14.9546829"><ele>836.6666666666667</ele><time>2026-04-26T11:10:07.087Z</time></trkpt><trkpt lat="37.8878008" lon="14.9547789"><ele>839.0</ele><time>2026-04-26T11:10:08.087Z</time></trkpt><trkpt lat="37.8879348" lon="14.9548737"><ele>839.0</ele><time>2026-04-26T11:10:09.065Z</time></trkpt><trkpt lat="37.8880597" lon="14.9549604"><ele>839.0</ele><time>2026-04-26T11:10:10.084Z</time></trkpt><trkpt lat="37.8881807" lon="14.9550328"><ele>839.0</ele><time>2026-04-26T11:10:11.084Z</time></trkpt><trkpt lat="37.8883111" lon="14.9550942"><ele>839.0</ele><time>2026-04-26T11:10:12.076Z</time></trkpt><trkpt lat="37.8884495" lon="14.9551392"><ele>837.3333333333334</ele><time>2026-04-26T11:10:13.094Z</time></trkpt><trkpt lat="37.8886012" lon="14.9551679"><ele>835.6666666666667</ele><time>2026-04-26T11:10:14.065Z</time></trkpt><trkpt lat="37.8887631" lon="14.9551895"><ele>834.0</ele><time>2026-04-26T11:10:15.088Z</time></trkpt><trkpt lat="37.8889304" lon="14.9552205"><ele>834.0</ele><time>2026-04-26T11:10:16.081Z</time></trkpt><trkpt lat="37.8890992" lon="14.955256"><ele>834.0</ele><time>2026-04-26T11:10:17.084Z</time></trkpt><trkpt lat="37.8892691" lon="14.9552847"><ele>834.0</ele><time>2026-04-26T11:10:18.083Z</time></trkpt><trkpt lat="37.8894332" lon="14.9553085"><ele>834.6666666666667</ele><time>2026-04-26T11:10:19.085Z</time></trkpt><trkpt lat="37.8895868" lon="14.9553303"><ele>835.3333333333334</ele><time>2026-04-26T11:10:20.08Z</time></trkpt><trkpt lat="37.8897393" lon="14.9553427"><ele>836.0</ele><time>2026-04-26T11:10:21.081Z</time></trkpt><trkpt lat="37.8899013" lon="14.9553372"><ele>836.0</ele><time>2026-04-26T11:10:22.085Z</time></trkpt><trkpt lat="37.8900685" lon="14.955318"><ele>836.0</ele><time>2026-04-26T11:10:23.088Z</time></trkpt><trkpt lat="37.8902346" lon="14.9552998"><ele>836.0</ele><time>2026-04-26T11:10:24.085Z</time></trkpt><trkpt lat="37.890387" lon="14.9552828"><ele>838.75</ele><time>2026-04-26T11:10:25.086Z</time></trkpt><trkpt lat="37.890526" lon="14.9552763"><ele>841.5</ele><time>2026-04-26T11:10:26.084Z</time></trkpt><trkpt lat="37.8906545" lon="14.9552908"><ele>844.25</ele><time>2026-04-26T11:10:27.089Z</time></trkpt><trkpt lat="37.8907687" lon="14.955329"><ele>847.0</ele><time>2026-04-26T11:10:28.089Z</time></trkpt><trkpt lat="37.8908732" lon="14.9553841"><ele>851.0</ele><time>2026-04-26T11:10:29.086Z</time></trkpt><trkpt lat="37.8909768" lon="14.9554512"><ele>855.0</ele><time>2026-04-26T11:10:30.083Z</time></trkpt><trkpt lat="37.891087" lon="14.9555329"><ele>859.0</ele><time>2026-04-26T11:10:31.087Z</time></trkpt><trkpt lat="37.8911996" lon="14.9556159"><ele>863.0</ele><time>2026-04-26T11:10:32.083Z</time></trkpt><trkpt lat="37.8913147" lon="14.9556851"><ele>863.0</ele><time>2026-04-26T11:10:33.069Z</time></trkpt><trkpt lat="37.8914379" lon="14.9557366"><ele>863.0</ele><time>2026-04-26T11:10:34.084Z</time></trkpt><trkpt lat="37.8915634" lon="14.9557626"><ele>863.0</ele><time>2026-04-26T11:10:35.086Z</time></trkpt><trkpt lat="37.8916981" lon="14.9557716"><ele>863.0</ele><time>2026-04-26T11:10:36.077Z</time></trkpt><trkpt lat="37.8918343" lon="14.9557541"><ele>863.5</ele><time>2026-04-26T11:10:37.065Z</time></trkpt><trkpt lat="37.8919683" lon="14.9557142"><ele>864.0</ele><time>2026-04-26T11:10:38.077Z</time></trkpt><trkpt lat="37.8921011" lon="14.955652"><ele>864.5</ele><time>2026-04-26T11:10:39.07Z</time></trkpt><trkpt lat="37.8922352" lon="14.9555672"><ele>865.0</ele><time>2026-04-26T11:10:40.081Z</time></trkpt><trkpt lat="37.8923786" lon="14.9554711"><ele>865.0</ele><time>2026-04-26T11:10:41.065Z</time></trkpt><trkpt lat="37.8925267" lon="14.9553701"><ele>865.0</ele><time>2026-04-26T11:10:42.085Z</time></trkpt><trkpt lat="37.8926664" lon="14.955278"><ele>865.0</ele><time>2026-04-26T11:10:43.089Z</time></trkpt><trkpt lat="37.8927912" lon="14.9552044"><ele>864.4</ele><time>2026-04-26T11:10:44.091Z</time></trkpt><trkpt lat="37.892901" lon="14.9551552"><ele>863.8</ele><time>2026-04-26T11:10:45.098Z</time></trkpt><trkpt lat="37.8930072" lon="14.9551338"><ele>863.2</ele><time>2026-04-26T11:10:46.06Z</time></trkpt><trkpt lat="37.893108" lon="14.9551434"><ele>862.6</ele><time>2026-04-26T11:10:47.078Z</time></trkpt><trkpt lat="37.8932158" lon="14.9551772"><ele>862.0</ele><time>2026-04-26T11:10:48.081Z</time></trkpt><trkpt lat="37.8933173" lon="14.9552055"><ele>862.0</ele><time>2026-04-26T11:10:49.087Z</time></trkpt><trkpt lat="37.893406" lon="14.9552116"><ele>862.0</ele><time>2026-04-26T11:10:50.084Z</time></trkpt><trkpt lat="37.8934759" lon="14.955187"><ele>862.0</ele><time>2026-04-26T11:10:51.086Z</time></trkpt><trkpt lat="37.8935321" lon="14.9551397"><ele>862.0</ele><time>2026-04-26T11:10:52.087Z</time></trkpt><trkpt lat="37.8935619" lon="14.9550666"><ele>862.0</ele><time>2026-04-26T11:10:53.084Z</time></trkpt><trkpt lat="37.8935644" lon="14.9549742"><ele>862.0</ele><time>2026-04-26T11:10:54.083Z</time></trkpt><trkpt lat="37.8935366" lon="14.9548852"><ele>862.0</ele><time>2026-04-26T11:10:55.088Z</time></trkpt><trkpt lat="37.8934828" lon="14.9548092"><ele>866.0</ele><time>2026-04-26T11:10:56.068Z</time></trkpt><trkpt lat="37.8934065" lon="14.9547494"><ele>870.0</ele><time>2026-04-26T11:10:57.081Z</time></trkpt><trkpt lat="37.8933162" lon="14.9547081"><ele>874.0</ele><time>2026-04-26T11:10:58.091Z</time></trkpt><trkpt lat="37.8932161" lon="14.9546731"><ele>878.0</ele><time>2026-04-26T11:10:59.086Z</time></trkpt><trkpt lat="37.8931163" lon="14.9546182"><ele>882.0</ele><time>2026-04-26T11:11:00.082Z</time></trkpt><trkpt lat="37.8930225" lon="14.9545269"><ele>882.0</ele><time>2026-04-26T11:11:01.086Z</time></trkpt><trkpt lat="37.8929419" lon="14.9544135"><ele>882.0</ele><time>2026-04-26T11:11:02.086Z</time></trkpt><trkpt lat="37.8928794" lon="14.9543109"><ele>882.0</ele><time>2026-04-26T11:11:03.073Z</time></trkpt><trkpt lat="37.8928409" lon="14.9542207"><ele>882.0</ele><time>2026-04-26T11:11:04.078Z</time></trkpt><trkpt lat="37.8928345" lon="14.9541382"><ele>882.0</ele><time>2026-04-26T11:11:05.089Z</time></trkpt><trkpt lat="37.8929036" lon="14.9540159"><ele>884.5</ele><time>2026-04-26T11:11:07.084Z</time></trkpt><trkpt lat="37.8929814" lon="14.9539802"><ele>887.0</ele><time>2026-04-26T11:11:08.085Z</time></trkpt><trkpt lat="37.8930847" lon="14.9539584"><ele>889.5</ele><time>2026-04-26T11:11:09.083Z</time></trkpt><trkpt lat="37.8932153" lon="14.9539581"><ele>892.0</ele><time>2026-04-26T11:11:10.09Z</time></trkpt><trkpt lat="37.8933709" lon="14.9539709"><ele>893.6666666666666</ele><time>2026-04-26T11:11:11.088Z</time></trkpt><trkpt lat="37.8935519" lon="14.9539953"><ele>895.3333333333333</ele><time>2026-04-26T11:11:12.086Z</time></trkpt><trkpt lat="37.8937572" lon="14.9540296"><ele>897.0</ele><time>2026-04-26T11:11:13.081Z</time></trkpt><trkpt lat="37.8939688" lon="14.9540626"><ele>897.0</ele><time>2026-04-26T11:11:14.077Z</time></trkpt><trkpt lat="37.8941663" lon="14.9540951"><ele>897.0</ele><time>2026-04-26T11:11:15.105Z</time></trkpt><trkpt lat="37.8943378" lon="14.9541322"><ele>897.0</ele><time>2026-04-26T11:11:16.087Z</time></trkpt><trkpt lat="37.8944879" lon="14.9541749"><ele>896.0</ele><time>2026-04-26T11:11:17.083Z</time></trkpt><trkpt lat="37.894619" lon="14.9542314"><ele>895.0</ele><time>2026-04-26T11:11:18.079Z</time></trkpt><trkpt lat="37.8947434" lon="14.9543017"><ele>894.0</ele><time>2026-04-26T11:11:19.092Z</time></trkpt><trkpt lat="37.8948709" lon="14.9543897"><ele>893.0</ele><time>2026-04-26T11:11:20.081Z</time></trkpt><trkpt lat="37.8950051" lon="14.9544936"><ele>899.6666666666667</ele><time>2026-04-26T11:11:21.082Z</time></trkpt><trkpt lat="37.8951371" lon="14.9546136"><ele>906.3333333333333</ele><time>2026-04-26T11:11:22.086Z</time></trkpt><trkpt lat="37.8952547" lon="14.9547447"><ele>913.0</ele><time>2026-04-26T11:11:23.089Z</time></trkpt><trkpt lat="37.8953578" lon="14.9548812"><ele>913.0</ele><time>2026-04-26T11:11:24.082Z</time></trkpt><trkpt lat="37.8954544" lon="14.9550149"><ele>913.0</ele><time>2026-04-26T11:11:25.088Z</time></trkpt><trkpt lat="37.8955488" lon="14.9551254"><ele>913.0</ele><time>2026-04-26T11:11:26.085Z</time></trkpt><trkpt lat="37.8956488" lon="14.9552075"><ele>913.0</ele><time>2026-04-26T11:11:27.084Z</time></trkpt><trkpt lat="37.8957604" lon="14.9552724"><ele>912.0</ele><time>2026-04-26T11:11:28.086Z</time></trkpt><trkpt lat="37.8958795" lon="14.9553367"><ele>911.0</ele><time>2026-04-26T11:11:29.091Z</time></trkpt><trkpt lat="37.8959967" lon="14.9553948"><ele>910.0</ele><time>2026-04-26T11:11:30.085Z</time></trkpt><trkpt lat="37.8961066" lon="14.9554315"><ele>909.0</ele><time>2026-04-26T11:11:31.078Z</time></trkpt><trkpt lat="37.896212" lon="14.9554401"><ele>909.0</ele><time>2026-04-26T11:11:32.063Z</time></trkpt><trkpt lat="37.8963171" lon="14.9554214"><ele>909.0000000000001</ele><time>2026-04-26T11:11:33.063Z</time></trkpt><trkpt lat="37.8964209" lon="14.9553898"><ele>909.0000000000001</ele><time>2026-04-26T11:11:34.084Z</time></trkpt><trkpt lat="37.8965147" lon="14.9553733"><ele>909.0</ele><time>2026-04-26T11:11:35.081Z</time></trkpt><trkpt lat="37.8966012" lon="14.9553861"><ele>909.0</ele><time>2026-04-26T11:11:36.083Z</time></trkpt><trkpt lat="37.8966826" lon="14.9554317"><ele>910.75</ele><time>2026-04-26T11:11:37.067Z</time></trkpt><trkpt lat="37.8967643" lon="14.9555105"><ele>912.5</ele><time>2026-04-26T11:11:38.08Z</time></trkpt><trkpt lat="37.8968497" lon="14.955624"><ele>914.25</ele><time>2026-04-26T11:11:39.088Z</time></trkpt><trkpt lat="37.8969411" lon="14.9557634"><ele>916.0</ele><time>2026-04-26T11:11:40.08Z</time></trkpt><trkpt lat="37.8970439" lon="14.9559189"><ele>916.0</ele><time>2026-04-26T11:11:41.065Z</time></trkpt><trkpt lat="37.8971537" lon="14.956073"><ele>916.0</ele><time>2026-04-26T11:11:42.079Z</time></trkpt><trkpt lat="37.8972622" lon="14.9562073"><ele>916.0</ele><time>2026-04-26T11:11:43.091Z</time></trkpt><trkpt lat="37.8973673" lon="14.9563165"><ele>916.0</ele><time>2026-04-26T11:11:44.082Z</time></trkpt><trkpt lat="37.8974825" lon="14.9564084"><ele>916.0</ele><time>2026-04-26T11:11:45.097Z</time></trkpt><trkpt lat="37.8976043" lon="14.9564843"><ele>916.0</ele><time>2026-04-26T11:11:46.084Z</time></trkpt><trkpt lat="37.8977371" lon="14.956551"><ele>916.0</ele><time>2026-04-26T11:11:47.084Z</time></trkpt><trkpt lat="37.8978808" lon="14.9566124"><ele>915.6666666666666</ele><time>2026-04-26T11:11:48.086Z</time></trkpt><trkpt lat="37.8980313" lon="14.9566655"><ele>915.3333333333333</ele><time>2026-04-26T11:11:49.09Z</time></trkpt><trkpt lat="37.8981816" lon="14.9567022"><ele>915.0</ele><time>2026-04-26T11:11:50.067Z</time></trkpt><trkpt lat="37.8983419" lon="14.9567316"><ele>918.0</ele><time>2026-04-26T11:11:51.082Z</time></trkpt><trkpt lat="37.8984997" lon="14.956749"><ele>921.0</ele><time>2026-04-26T11:11:52.091Z</time></trkpt><trkpt lat="37.8986506" lon="14.9567619"><ele>924.0</ele><time>2026-04-26T11:11:53.062Z</time></trkpt><trkpt lat="37.8987947" lon="14.9567764"><ele>924.0</ele><time>2026-04-26T11:11:54.09Z</time></trkpt><trkpt lat="37.8989246" lon="14.9568065"><ele>924.0</ele><time>2026-04-26T11:11:55.089Z</time></trkpt><trkpt lat="37.8990364" lon="14.9568547"><ele>924.0</ele><time>2026-04-26T11:11:56.084Z</time></trkpt><trkpt lat="37.8991319" lon="14.9569243"><ele>924.0</ele><time>2026-04-26T11:11:57.088Z</time></trkpt><trkpt lat="37.8992088" lon="14.9570067"><ele>928.1666666666666</ele><time>2026-04-26T11:11:58.064Z</time></trkpt><trkpt lat="37.8992764" lon="14.9570888"><ele>932.3333333333333</ele><time>2026-04-26T11:11:59.087Z</time></trkpt><trkpt lat="37.8993341" lon="14.9571495"><ele>936.5</ele><time>2026-04-26T11:12:00.086Z</time></trkpt><trkpt lat="37.8993939" lon="14.9571776"><ele>940.6666666666666</ele><time>2026-04-26T11:12:01.093Z</time></trkpt><trkpt lat="37.8994593" lon="14.957156"><ele>944.8333333333333</ele><time>2026-04-26T11:12:02.085Z</time></trkpt><trkpt lat="37.8995178" lon="14.9570977"><ele>949.0</ele><time>2026-04-26T11:12:03.084Z</time></trkpt><trkpt lat="37.8995592" lon="14.9570112"><ele>949.0</ele><time>2026-04-26T11:12:04.084Z</time></trkpt><trkpt lat="37.8995761" lon="14.9569108"><ele>949.0000000000001</ele><time>2026-04-26T11:12:05.098Z</time></trkpt><trkpt lat="37.8995651" lon="14.9568079"><ele>949.0000000000001</ele><time>2026-04-26T11:12:06.078Z</time></trkpt><trkpt lat="37.8995212" lon="14.9567079"><ele>949.0</ele><time>2026-04-26T11:12:07.081Z</time></trkpt><trkpt lat="37.899449" lon="14.9566155"><ele>949.0</ele><time>2026-04-26T11:12:08.085Z</time></trkpt><trkpt lat="37.8993569" lon="14.9565185"><ele>945.3333333333333</ele><time>2026-04-26T11:12:09.078Z</time></trkpt><trkpt lat="37.8992498" lon="14.9564037"><ele>941.6666666666667</ele><time>2026-04-26T11:12:10.085Z</time></trkpt><trkpt lat="37.8991271" lon="14.9562725"><ele>938.0</ele><time>2026-04-26T11:12:11.084Z</time></trkpt><trkpt lat="37.8989949" lon="14.956135"><ele>938.0</ele><time>2026-04-26T11:12:12.09Z</time></trkpt><trkpt lat="37.8988582" lon="14.9559934"><ele>938.0</ele><time>2026-04-26T11:12:13.087Z</time></trkpt><trkpt lat="37.8987251" lon="14.9558548"><ele>938.0</ele><time>2026-04-26T11:12:14.089Z</time></trkpt><trkpt lat="37.8986028" lon="14.9557321"><ele>939.5</ele><time>2026-04-26T11:12:15.098Z</time></trkpt><trkpt lat="37.898489" lon="14.955618"><ele>941.0</ele><time>2026-04-26T11:12:16.089Z</time></trkpt><trkpt lat="37.8983815" lon="14.9555008"><ele>942.5</ele><time>2026-04-26T11:12:17.089Z</time></trkpt><trkpt lat="37.8982938" lon="14.9553917"><ele>944.0</ele><time>2026-04-26T11:12:18.084Z</time></trkpt><trkpt lat="37.8982307" lon="14.9552843"><ele>944.0</ele><time>2026-04-26T11:12:19.095Z</time></trkpt><trkpt lat="37.8981909" lon="14.9551663"><ele>944.0000000000001</ele><time>2026-04-26T11:12:20.091Z</time></trkpt><trkpt lat="37.898174" lon="14.9550385"><ele>944.0000000000001</ele><time>2026-04-26T11:12:21.07Z</time></trkpt><trkpt lat="37.8981851" lon="14.9549094"><ele>944.0</ele><time>2026-04-26T11:12:22.097Z</time></trkpt><trkpt lat="37.8982216" lon="14.9548035"><ele>944.0</ele><time>2026-04-26T11:12:23.089Z</time></trkpt><trkpt lat="37.8982775" lon="14.9547124"><ele>945.6</ele><time>2026-04-26T11:12:24.087Z</time></trkpt><trkpt lat="37.8983516" lon="14.9546374"><ele>947.2</ele><time>2026-04-26T11:12:25.091Z</time></trkpt><trkpt lat="37.8984374" lon="14.9545832"><ele>948.8000000000001</ele><time>2026-04-26T11:12:26.096Z</time></trkpt><trkpt lat="37.8985311" lon="14.9545617"><ele>950.4000000000001</ele><time>2026-04-26T11:12:27.093Z</time></trkpt><trkpt lat="37.8986253" lon="14.9545713"><ele>952.0</ele><time>2026-04-26T11:12:28.089Z</time></trkpt><trkpt lat="37.8987151" lon="14.9546139"><ele>952.25</ele><time>2026-04-26T11:12:29.067Z</time></trkpt><trkpt lat="37.8988085" lon="14.9546889"><ele>952.5</ele><time>2026-04-26T11:12:30.089Z</time></trkpt><trkpt lat="37.8989086" lon="14.9547979"><ele>952.75</ele><time>2026-04-26T11:12:31.093Z</time></trkpt><trkpt lat="37.8990172" lon="14.954936"><ele>953.0</ele><time>2026-04-26T11:12:32.087Z</time></trkpt><trkpt lat="37.8991376" lon="14.9550983"><ele>958.6666666666667</ele><time>2026-04-26T11:12:33.093Z</time></trkpt><trkpt lat="37.8992698" lon="14.9552701"><ele>964.3333333333333</ele><time>2026-04-26T11:12:34.083Z</time></trkpt><trkpt lat="37.8994121" lon="14.9554512"><ele>970.0</ele><time>2026-04-26T11:12:35.09Z</time></trkpt><trkpt lat="37.8995599" lon="14.9556327"><ele>970.0</ele><time>2026-04-26T11:12:36.087Z</time></trkpt><trkpt lat="37.8997108" lon="14.9558093"><ele>970.0</ele><time>2026-04-26T11:12:37.086Z</time></trkpt><trkpt lat="37.8998628" lon="14.9559792"><ele>970.0</ele><time>2026-04-26T11:12:38.084Z</time></trkpt><trkpt lat="37.9000088" lon="14.9561371"><ele>976.3333333333333</ele><time>2026-04-26T11:12:39.085Z</time></trkpt><trkpt lat="37.9001436" lon="14.9562845"><ele>982.6666666666667</ele><time>2026-04-26T11:12:40.085Z</time></trkpt><trkpt lat="37.9002625" lon="14.9564257"><ele>989.0</ele><time>2026-04-26T11:12:41.084Z</time></trkpt><trkpt lat="37.900365" lon="14.9565625"><ele>989.0</ele><time>2026-04-26T11:12:42.082Z</time></trkpt><trkpt lat="37.900445" lon="14.9566959"><ele>989.0</ele><time>2026-04-26T11:12:43.09Z</time></trkpt><trkpt lat="37.9005104" lon="14.9568424"><ele>989.0</ele><time>2026-04-26T11:12:44.084Z</time></trkpt><trkpt lat="37.9005665" lon="14.957013"><ele>989.0</ele><time>2026-04-26T11:12:45.102Z</time></trkpt><trkpt lat="37.9006244" lon="14.9571975"><ele>986.0</ele><time>2026-04-26T11:12:46.084Z</time></trkpt><trkpt lat="37.9006861" lon="14.9573922"><ele>983.0</ele><time>2026-04-26T11:12:47.082Z</time></trkpt><trkpt lat="37.9007546" lon="14.9575762"><ele>980.0</ele><time>2026-04-26T11:12:48.086Z</time></trkpt><trkpt lat="37.9008355" lon="14.9577421"><ele>983.6666666666667</ele><time>2026-04-26T11:12:49.087Z</time></trkpt><trkpt lat="37.900935" lon="14.9579028"><ele>987.3333333333333</ele><time>2026-04-26T11:12:50.089Z</time></trkpt><trkpt lat="37.9010513" lon="14.9580673"><ele>991.0</ele><time>2026-04-26T11:12:51.068Z</time></trkpt><trkpt lat="37.9011736" lon="14.9582353"><ele>988.0</ele><time>2026-04-26T11:12:52.069Z</time></trkpt><trkpt lat="37.9012906" lon="14.9583921"><ele>985.0</ele><time>2026-04-26T11:12:53.091Z</time></trkpt><trkpt lat="37.9013948" lon="14.9585335"><ele>982.0</ele><time>2026-04-26T11:12:54.082Z</time></trkpt><trkpt lat="37.9014931" lon="14.9586543"><ele>982.0</ele><time>2026-04-26T11:12:55.07Z</time></trkpt><trkpt lat="37.9015958" lon="14.9587486"><ele>982.0</ele><time>2026-04-26T11:12:56.091Z</time></trkpt><trkpt lat="37.9017072" lon="14.9588241"><ele>982.0</ele><time>2026-04-26T11:12:57.086Z</time></trkpt><trkpt lat="37.901838" lon="14.9588877"><ele>982.0</ele><time>2026-04-26T11:12:58.09Z</time></trkpt><trkpt lat="37.9019874" lon="14.9589397"><ele>981.0</ele><time>2026-04-26T11:12:59.093Z</time></trkpt><trkpt lat="37.9021536" lon="14.9589899"><ele>980.0</ele><time>2026-04-26T11:13:00.088Z</time></trkpt><trkpt lat="37.9023257" lon="14.9590465"><ele>979.0</ele><time>2026-04-26T11:13:01.069Z</time></trkpt><trkpt lat="37.9024918" lon="14.9591175"><ele>977.3333333333333</ele><time>2026-04-26T11:13:02.082Z</time></trkpt><trkpt lat="37.9026454" lon="14.9592028"><ele>975.6666666666667</ele><time>2026-04-26T11:13:03.091Z</time></trkpt><trkpt lat="37.9027895" lon="14.9593041"><ele>974.0</ele><time>2026-04-26T11:13:04.085Z</time></trkpt><trkpt lat="37.9029277" lon="14.9594187"><ele>974.0</ele><time>2026-04-26T11:13:05.085Z</time></trkpt><trkpt lat="37.9030552" lon="14.9595399"><ele>974.0</ele><time>2026-04-26T11:13:06.065Z</time></trkpt><trkpt lat="37.903173" lon="14.9596679"><ele>974.0</ele><time>2026-04-26T11:13:07.064Z</time></trkpt><trkpt lat="37.9032774" lon="14.9598048"><ele>974.0</ele><time>2026-04-26T11:13:08.083Z</time></trkpt><trkpt lat="37.9033664" lon="14.9599519"><ele>974.0</ele><time>2026-04-26T11:13:09.09Z</time></trkpt><trkpt lat="37.9034394" lon="14.9601101"><ele>974.0</ele><time>2026-04-26T11:13:10.089Z</time></trkpt><trkpt lat="37.9034979" lon="14.9602757"><ele>974.0</ele><time>2026-04-26T11:13:11.091Z</time></trkpt><trkpt lat="37.9035391" lon="14.9604446"><ele>975.25</ele><time>2026-04-26T11:13:12.084Z</time></trkpt><trkpt lat="37.9035625" lon="14.9606107"><ele>976.5</ele><time>2026-04-26T11:13:13.087Z</time></trkpt><trkpt lat="37.9035827" lon="14.9607582"><ele>977.75</ele><time>2026-04-26T11:13:14.071Z</time></trkpt><trkpt lat="37.9036194" lon="14.9608783"><ele>979.0</ele><time>2026-04-26T11:13:15.071Z</time></trkpt><trkpt lat="37.9036849" lon="14.9609752"><ele>975.0</ele><time>2026-04-26T11:13:16.089Z</time></trkpt><trkpt lat="37.903775" lon="14.9610591"><ele>971.0</ele><time>2026-04-26T11:13:17.087Z</time></trkpt><trkpt lat="37.9038912" lon="14.9611503"><ele>967.0</ele><time>2026-04-26T11:13:18.086Z</time></trkpt><trkpt lat="37.9040297" lon="14.9612549"><ele>963.0</ele><time>2026-04-26T11:13:19.085Z</time></trkpt><trkpt lat="37.9041874" lon="14.9613714"><ele>962.6666666666667</ele><time>2026-04-26T11:13:20.09Z</time></trkpt><trkpt lat="37.9043489" lon="14.9614868"><ele>962.3333333333334</ele><time>2026-04-26T11:13:21.091Z</time></trkpt><trkpt lat="37.9044992" lon="14.9616039"><ele>962.0</ele><time>2026-04-26T11:13:22.089Z</time></trkpt><trkpt lat="37.904629" lon="14.9617245"><ele>962.0</ele><time>2026-04-26T11:13:23.084Z</time></trkpt><trkpt lat="37.9047517" lon="14.9618473"><ele>962.0</ele><time>2026-04-26T11:13:24.07Z</time></trkpt><trkpt lat="37.9048633" lon="14.9619553"><ele>962.0</ele><time>2026-04-26T11:13:25.091Z</time></trkpt><trkpt lat="37.9049743" lon="14.9620362"><ele>962.0</ele><time>2026-04-26T11:13:26.067Z</time></trkpt><trkpt lat="37.9050971" lon="14.9620974"><ele>963.75</ele><time>2026-04-26T11:13:27.066Z</time></trkpt><trkpt lat="37.9052331" lon="14.9621385"><ele>965.5</ele><time>2026-04-26T11:13:28.086Z</time></trkpt><trkpt lat="37.9053792" lon="14.9621565"><ele>967.25</ele><time>2026-04-26T11:13:29.088Z</time></trkpt><trkpt lat="37.9055401" lon="14.9621657"><ele>969.0</ele><time>2026-04-26T11:13:30.092Z</time></trkpt><trkpt lat="37.9057011" lon="14.9621816"><ele>969.0</ele><time>2026-04-26T11:13:31.095Z</time></trkpt><trkpt lat="37.9058489" lon="14.9622127"><ele>969.0</ele><time>2026-04-26T11:13:32.068Z</time></trkpt><trkpt lat="37.9059841" lon="14.9622635"><ele>969.0</ele><time>2026-04-26T11:13:33.094Z</time></trkpt><trkpt lat="37.9061052" lon="14.9623364"><ele>969.0</ele><time>2026-04-26T11:13:34.074Z</time></trkpt><trkpt lat="37.9062188" lon="14.9624319"><ele>969.75</ele><time>2026-04-26T11:13:35.085Z</time></trkpt><trkpt lat="37.9063221" lon="14.9625502"><ele>970.5</ele><time>2026-04-26T11:13:36.093Z</time></trkpt><trkpt lat="37.906413" lon="14.9626883"><ele>971.25</ele><time>2026-04-26T11:13:37.068Z</time></trkpt><trkpt lat="37.9064939" lon="14.9628512"><ele>972.0</ele><time>2026-04-26T11:13:38.096Z</time></trkpt><trkpt lat="37.9065794" lon="14.963049"><ele>972.0</ele><time>2026-04-26T11:13:39.085Z</time></trkpt><trkpt lat="37.9066682" lon="14.9632641"><ele>972.0</ele><time>2026-04-26T11:13:40.091Z</time></trkpt><trkpt lat="37.906758" lon="14.9634669"><ele>972.0</ele><time>2026-04-26T11:13:41.09Z</time></trkpt><trkpt lat="37.9068357" lon="14.9636509"><ele>972.75</ele><time>2026-04-26T11:13:42.067Z</time></trkpt><trkpt lat="37.9069058" lon="14.9638145"><ele>973.5</ele><time>2026-04-26T11:13:43.09Z</time></trkpt><trkpt lat="37.906976" lon="14.9639487"><ele>974.25</ele><time>2026-04-26T11:13:44.085Z</time></trkpt><trkpt lat="37.9070554" lon="14.9640481"><ele>975.0</ele><time>2026-04-26T11:13:45.099Z</time></trkpt><trkpt lat="37.9071529" lon="14.9641265"><ele>975.0</ele><time>2026-04-26T11:13:46.09Z</time></trkpt><trkpt lat="37.9072676" lon="14.9641873"><ele>975.0</ele><time>2026-04-26T11:13:47.081Z</time></trkpt><trkpt lat="37.9073855" lon="14.9642242"><ele>975.0</ele><time>2026-04-26T11:13:48.085Z</time></trkpt><trkpt lat="37.9075134" lon="14.9642347"><ele>975.0</ele><time>2026-04-26T11:13:49.072Z</time></trkpt><trkpt lat="37.9076564" lon="14.964229"><ele>971.0</ele><time>2026-04-26T11:13:50.084Z</time></trkpt><trkpt lat="37.9078211" lon="14.9642242"><ele>967.0</ele><time>2026-04-26T11:13:51.083Z</time></trkpt><trkpt lat="37.9079973" lon="14.9642183"><ele>963.0</ele><time>2026-04-26T11:13:52.087Z</time></trkpt><trkpt lat="37.9081665" lon="14.964214"><ele>963.0</ele><time>2026-04-26T11:13:53.101Z</time></trkpt><trkpt lat="37.9083201" lon="14.9642021"><ele>963.0</ele><time>2026-04-26T11:13:54.081Z</time></trkpt><trkpt lat="37.9084551" lon="14.9641765"><ele>963.0</ele><time>2026-04-26T11:13:55.088Z</time></trkpt><trkpt lat="37.9085676" lon="14.9641307"><ele>963.0</ele><time>2026-04-26T11:13:56.088Z</time></trkpt><trkpt lat="37.9086717" lon="14.9640572"><ele>967.25</ele><time>2026-04-26T11:13:57.091Z</time></trkpt><trkpt lat="37.9087843" lon="14.9639661"><ele>971.5</ele><time>2026-04-26T11:13:58.086Z</time></trkpt><trkpt lat="37.9089076" lon="14.9638605"><ele>975.75</ele><time>2026-04-26T11:13:59.093Z</time></trkpt><trkpt lat="37.9090458" lon="14.9637562"><ele>980.0</ele><time>2026-04-26T11:14:00.086Z</time></trkpt><trkpt lat="37.9091849" lon="14.9636695"><ele>980.25</ele><time>2026-04-26T11:14:01.066Z</time></trkpt><trkpt lat="37.9093219" lon="14.9636124"><ele>980.5</ele><time>2026-04-26T11:14:02.083Z</time></trkpt><trkpt lat="37.9094564" lon="14.9635774"><ele>980.75</ele><time>2026-04-26T11:14:03.081Z</time></trkpt><trkpt lat="37.9095857" lon="14.963564"><ele>981.0</ele><time>2026-04-26T11:14:04.087Z</time></trkpt><trkpt lat="37.9097178" lon="14.9635786"><ele>981.0</ele><time>2026-04-26T11:14:05.09Z</time></trkpt><trkpt lat="37.9098634" lon="14.9636152"><ele>981.0</ele><time>2026-04-26T11:14:06.085Z</time></trkpt><trkpt lat="37.9100173" lon="14.9636744"><ele>981.0</ele><time>2026-04-26T11:14:07.065Z</time></trkpt><trkpt lat="37.9101891" lon="14.963745"><ele>985.6666666666667</ele><time>2026-04-26T11:14:08.067Z</time></trkpt><trkpt lat="37.9103654" lon="14.9638089"><ele>990.3333333333334</ele><time>2026-04-26T11:14:09.085Z</time></trkpt><trkpt lat="37.9105312" lon="14.963872"><ele>995.0</ele><time>2026-04-26T11:14:10.088Z</time></trkpt><trkpt lat="37.9106755" lon="14.9639347"><ele>995.0</ele><time>2026-04-26T11:14:11.083Z</time></trkpt><trkpt lat="37.9108014" lon="14.9640018"><ele>995.0</ele><time>2026-04-26T11:14:12.084Z</time></trkpt><trkpt lat="37.9109138" lon="14.9640832"><ele>995.0</ele><time>2026-04-26T11:14:13.067Z</time></trkpt><trkpt lat="37.9110211" lon="14.9641836"><ele>995.0</ele><time>2026-04-26T11:14:14.085Z</time></trkpt><trkpt lat="37.911137" lon="14.9643066"><ele>996.0</ele><time>2026-04-26T11:14:15.096Z</time></trkpt><trkpt lat="37.9112552" lon="14.9644322"><ele>997.0</ele><time>2026-04-26T11:14:16.091Z</time></trkpt><trkpt lat="37.9113688" lon="14.9645433"><ele>998.0</ele><time>2026-04-26T11:14:17.088Z</time></trkpt><trkpt lat="37.9114753" lon="14.9646306"><ele>999.0</ele><time>2026-04-26T11:14:18.09Z</time></trkpt><trkpt lat="37.9115763" lon="14.9646898"><ele>999.0</ele><time>2026-04-26T11:14:19.088Z</time></trkpt><trkpt lat="37.9116719" lon="14.9647226"><ele>999.0000000000001</ele><time>2026-04-26T11:14:20.09Z</time></trkpt><trkpt lat="37.9117649" lon="14.9647315"><ele>999.0000000000001</ele><time>2026-04-26T11:14:21.086Z</time></trkpt><trkpt lat="37.9118631" lon="14.9646984"><ele>999.0</ele><time>2026-04-26T11:14:22.086Z</time></trkpt><trkpt lat="37.9119717" lon="14.9646383"><ele>999.0</ele><time>2026-04-26T11:14:23.088Z</time></trkpt><trkpt lat="37.9120974" lon="14.964583"><ele>1000.25</ele><time>2026-04-26T11:14:24.088Z</time></trkpt><trkpt lat="37.9122365" lon="14.9645464"><ele>1001.5</ele><time>2026-04-26T11:14:25.091Z</time></trkpt><trkpt lat="37.9123791" lon="14.9645376"><ele>1002.75</ele><time>2026-04-26T11:14:26.087Z</time></trkpt><trkpt lat="37.9125046" lon="14.9645566"><ele>1004.0</ele><time>2026-04-26T11:14:27.088Z</time></trkpt><trkpt lat="37.9126158" lon="14.9645987"><ele>1006.2</ele><time>2026-04-26T11:14:28.09Z</time></trkpt><trkpt lat="37.9127204" lon="14.9646649"><ele>1008.4000000000001</ele><time>2026-04-26T11:14:29.089Z</time></trkpt><trkpt lat="37.9128208" lon="14.9647447"><ele>1010.6</ele><time>2026-04-26T11:14:30.086Z</time></trkpt><trkpt lat="37.9129135" lon="14.9648108"><ele>1012.8</ele><time>2026-04-26T11:14:31.091Z</time></trkpt><trkpt lat="37.9129992" lon="14.9648513"><ele>1015.0</ele><time>2026-04-26T11:14:32.093Z</time></trkpt><trkpt lat="37.9130812" lon="14.9648599"><ele>1015.0</ele><time>2026-04-26T11:14:33.07Z</time></trkpt><trkpt lat="37.9131715" lon="14.964845"><ele>1015.0</ele><time>2026-04-26T11:14:34.084Z</time></trkpt><trkpt lat="37.9132686" lon="14.9648177"><ele>1015.0</ele><time>2026-04-26T11:14:35.07Z</time></trkpt><trkpt lat="37.9133742" lon="14.9647773"><ele>1015.0</ele><time>2026-04-26T11:14:36.064Z</time></trkpt><trkpt lat="37.9134942" lon="14.9647275"><ele>1015.0</ele><time>2026-04-26T11:14:37.064Z</time></trkpt><trkpt lat="37.9136227" lon="14.9646635"><ele>1015.0</ele><time>2026-04-26T11:14:38.088Z</time></trkpt><trkpt lat="37.9137481" lon="14.9645956"><ele>1015.0</ele><time>2026-04-26T11:14:39.089Z</time></trkpt><trkpt lat="37.9138649" lon="14.9645333"><ele>1015.0</ele><time>2026-04-26T11:14:40.087Z</time></trkpt><trkpt lat="37.9139739" lon="14.9644761"><ele>1015.0</ele><time>2026-04-26T11:14:41.082Z</time></trkpt><trkpt lat="37.9140747" lon="14.9644227"><ele>1015.0</ele><time>2026-04-26T11:14:42.085Z</time></trkpt><trkpt lat="37.9141674" lon="14.9643719"><ele>1015.0</ele><time>2026-04-26T11:14:43.072Z</time></trkpt><trkpt lat="37.9142513" lon="14.9643225"><ele>1015.0</ele><time>2026-04-26T11:14:44.08Z</time></trkpt><trkpt lat="37.9143224" lon="14.9642808"><ele>1015.0</ele><time>2026-04-26T11:14:45.075Z</time></trkpt><trkpt lat="37.9143822" lon="14.9642433"><ele>1015.0</ele><time>2026-04-26T11:14:46.087Z</time></trkpt><trkpt lat="37.9147086" lon="14.9639845"><ele>1015.9999999999999</ele><time>2026-04-26T11:14:52.084Z</time></trkpt><trkpt lat="37.9147696" lon="14.963919"><ele>1017.0</ele><time>2026-04-26T11:14:53.088Z</time></trkpt><trkpt lat="37.9148327" lon="14.9638529"><ele>1018.0</ele><time>2026-04-26T11:14:54.094Z</time></trkpt><trkpt lat="37.9148965" lon="14.9637888"><ele>1019.0</ele><time>2026-04-26T11:14:55.088Z</time></trkpt><trkpt lat="37.9149634" lon="14.9637258"><ele>1019.9999999999999</ele><time>2026-04-26T11:14:56.092Z</time></trkpt><trkpt lat="37.9150305" lon="14.9636616"><ele>1021.0</ele><time>2026-04-26T11:14:57.082Z</time></trkpt><trkpt lat="37.9150987" lon="14.9635944"><ele>1026.0</ele><time>2026-04-26T11:14:58.088Z</time></trkpt><trkpt lat="37.9153989" lon="14.9633413"><ele>1031.0</ele><time>2026-04-26T11:15:02.09Z</time></trkpt><trkpt lat="37.9154958" lon="14.9633025"><ele>1031.0</ele><time>2026-04-26T11:15:03.089Z</time></trkpt><trkpt lat="37.9155964" lon="14.9632741"><ele>1031.0</ele><time>2026-04-26T11:15:04.054Z</time></trkpt><trkpt lat="37.9156941" lon="14.9632494"><ele>1031.0</ele><time>2026-04-26T11:15:05.083Z</time></trkpt><trkpt lat="37.9157796" lon="14.9632303"><ele>1031.0</ele><time>2026-04-26T11:15:06.084Z</time></trkpt><trkpt lat="37.9158541" lon="14.963212"><ele>1031.0</ele><time>2026-04-26T11:15:07.087Z</time></trkpt><trkpt lat="37.9159203" lon="14.9631959"><ele>1031.0</ele><time>2026-04-26T11:15:08.083Z</time></trkpt><trkpt lat="37.9160978" lon="14.9631363"><ele>1030.8</ele><time>2026-04-26T11:15:12.086Z</time></trkpt><trkpt lat="37.9161676" lon="14.9631045"><ele>1030.6</ele><time>2026-04-26T11:15:14.085Z</time></trkpt><trkpt lat="37.9162632" lon="14.9630723"><ele>1030.4</ele><time>2026-04-26T11:15:16.08Z</time></trkpt><trkpt lat="37.9163659" lon="14.9630335"><ele>1030.2</ele><time>2026-04-26T11:15:18.072Z</time></trkpt><trkpt lat="37.9165064" lon="14.9629815"><ele>1030.0</ele><time>2026-04-26T11:15:22.069Z</time></trkpt><trkpt lat="37.9165476" lon="14.962921"><ele>1030.0</ele><time>2026-04-26T11:15:45.091Z</time></trkpt><trkpt lat="37.9163823" lon="14.9629738"><ele>1030.0</ele><time>2026-04-26T11:15:52.087Z</time></trkpt><trkpt lat="37.9162946" lon="14.9630065"><ele>1030.0</ele><time>2026-04-26T11:15:54.086Z</time></trkpt><trkpt lat="37.9162145" lon="14.9630302"><ele>1030.0</ele><time>2026-04-26T11:15:56.071Z</time></trkpt><trkpt lat="37.9161505" lon="14.9630228"><ele>1030.0</ele><time>2026-04-26T11:15:58.084Z</time></trkpt><trkpt lat="37.9160791" lon="14.9630246"><ele>1030.0</ele><time>2026-04-26T11:16:02.083Z</time></trkpt><trkpt lat="37.9160177" lon="14.9630503"><ele>1030.0</ele><time>2026-04-26T11:17:04.075Z</time></trkpt><trkpt lat="37.9160846" lon="14.9630618"><ele>1030.0</ele><time>2026-04-26T11:17:29.075Z</time></trkpt><trkpt lat="37.916153" lon="14.9630271"><ele>1030.0</ele><time>2026-04-26T11:17:49.082Z</time></trkpt><trkpt lat="37.9161835" lon="14.96311"><ele>1030.0</ele><time>2026-04-26T11:20:51.081Z</time></trkpt><trkpt lat="37.9162461" lon="14.9631243"><ele>1030.0</ele><time>2026-04-26T11:20:55.088Z</time></trkpt><trkpt lat="37.9163149" lon="14.9631131"><ele>1030.0</ele><time>2026-04-26T11:20:56.081Z</time></trkpt><trkpt lat="37.9163958" lon="14.9630866"><ele>1030.0</ele><time>2026-04-26T11:20:57.077Z</time></trkpt><trkpt lat="37.9164781" lon="14.9630499"><ele>1030.0</ele><time>2026-04-26T11:20:58.092Z</time></trkpt><trkpt lat="37.916549" lon="14.9630131"><ele>1030.0</ele><time>2026-04-26T11:20:59.097Z</time></trkpt><trkpt lat="37.916645" lon="14.9629444"><ele>1030.0</ele><time>2026-04-26T11:21:01.099Z</time></trkpt><trkpt lat="37.9167095" lon="14.9629602"><ele>1030.0</ele><time>2026-04-26T11:21:04.099Z</time></trkpt><trkpt lat="37.9167234" lon="14.9630621"><ele>1030.0</ele><time>2026-04-26T11:21:08.098Z</time></trkpt><trkpt lat="37.9167268" lon="14.9631547"><ele>1030.0</ele><time>2026-04-26T11:21:11.098Z</time></trkpt><trkpt lat="37.9167021" lon="14.9630767"><ele>1030.0</ele><time>2026-04-26T11:26:19.079Z</time></trkpt><trkpt lat="37.9166732" lon="14.9630039"><ele>1030.0</ele><time>2026-04-26T11:26:26.082Z</time></trkpt><trkpt lat="37.9166443" lon="14.9629242"><ele>1030.0</ele><time>2026-04-26T11:26:36.078Z</time></trkpt><trkpt lat="37.9165827" lon="14.9629665"><ele>1030.0</ele><time>2026-04-26T11:26:37.083Z</time></trkpt><trkpt lat="37.9165895" lon="14.9628415"><ele>1030.0</ele><time>2026-04-26T11:28:06.084Z</time></trkpt><trkpt lat="37.9166082" lon="14.9627139"><ele>1030.0</ele><time>2026-04-26T11:28:44.085Z</time></trkpt><trkpt lat="37.9166684" lon="14.962636"><ele>1030.0</ele><time>2026-04-26T11:29:22.057Z</time></trkpt><trkpt lat="37.916731" lon="14.9627029"><ele>1030.0</ele><time>2026-04-26T11:30:02.087Z</time></trkpt><trkpt lat="37.9167981" lon="14.9627266"><ele>1030.0</ele><time>2026-04-26T11:38:59.064Z</time></trkpt><trkpt lat="37.9167538" lon="14.9626619"><ele>1030.0</ele><time>2026-04-26T11:39:14.086Z</time></trkpt><trkpt lat="37.9166847" lon="14.9627413"><ele>1030.0</ele><time>2026-04-26T12:02:41.084Z</time></trkpt><trkpt lat="37.9166399" lon="14.9628075"><ele>1030.0</ele><time>2026-04-26T12:03:01.079Z</time></trkpt><trkpt lat="37.9166373" lon="14.9629056"><ele>1030.0</ele><time>2026-04-26T12:03:11.085Z</time></trkpt><trkpt lat="37.9165583" lon="14.9629613"><ele>1030.0</ele><time>2026-04-26T12:03:45.005Z</time></trkpt><trkpt lat="37.9165057" lon="14.9630206"><ele>1030.0</ele><time>2026-04-26T12:03:51.081Z</time></trkpt><trkpt lat="37.9164427" lon="14.963049"><ele>1030.0</ele><time>2026-04-26T12:03:57.085Z</time></trkpt><trkpt lat="37.9163803" lon="14.9630641"><ele>1030.0</ele><time>2026-04-26T12:04:03.075Z</time></trkpt><trkpt lat="37.9163067" lon="14.9630733"><ele>1030.0</ele><time>2026-04-26T12:04:11.084Z</time></trkpt><trkpt lat="37.9162493" lon="14.9631225"><ele>1030.0</ele><time>2026-04-26T12:04:27.065Z</time></trkpt><trkpt lat="37.9161853" lon="14.9631047"><ele>1030.0</ele><time>2026-04-26T12:04:32.07Z</time></trkpt><trkpt lat="37.9161282" lon="14.9630674"><ele>1030.0</ele><time>2026-04-26T12:04:41.085Z</time></trkpt><trkpt lat="37.9160534" lon="14.9630095"><ele>1030.0</ele><time>2026-04-26T12:04:51.007Z</time></trkpt><trkpt lat="37.9160051" lon="14.9630648"><ele>1030.0</ele><time>2026-04-26T12:04:57.084Z</time></trkpt><trkpt lat="37.9159168" lon="14.9630317"><ele>1030.0</ele><time>2026-04-26T12:06:03.089Z</time></trkpt><trkpt lat="37.9158621" lon="14.96291"><ele>1030.0</ele><time>2026-04-26T12:07:18.073Z</time></trkpt><trkpt lat="37.915902" lon="14.9629874"><ele>1030.0</ele><time>2026-04-26T12:09:37.07Z</time></trkpt><trkpt lat="37.9158842" lon="14.9630645"><ele>1030.0</ele><time>2026-04-26T12:20:02.065Z</time></trkpt><trkpt lat="37.9159567" lon="14.9630278"><ele>1030.0</ele><time>2026-04-26T12:29:29.072Z</time></trkpt><trkpt lat="37.9160091" lon="14.9629609"><ele>1030.0</ele><time>2026-04-26T12:29:39.092Z</time></trkpt><trkpt lat="37.9161005" lon="14.9629157"><ele>1030.0</ele><time>2026-04-26T12:29:49.073Z</time></trkpt><trkpt lat="37.9162094" lon="14.9628923"><ele>1030.0</ele><time>2026-04-26T12:29:59.077Z</time></trkpt><trkpt lat="37.916276" lon="14.9628783"><ele>1030.0</ele><time>2026-04-26T12:30:03.083Z</time></trkpt><trkpt lat="37.91634" lon="14.9628889"><ele>1030.0</ele><time>2026-04-26T12:30:10.06Z</time></trkpt><trkpt lat="37.9164041" lon="14.9628943"><ele>1030.0</ele><time>2026-04-26T12:30:14.08Z</time></trkpt><trkpt lat="37.9164667" lon="14.9628722"><ele>1030.0</ele><time>2026-04-26T12:30:20.061Z</time></trkpt><trkpt lat="37.9165336" lon="14.9628567"><ele>1030.0</ele><time>2026-04-26T12:30:30.081Z</time></trkpt><trkpt lat="37.9165954" lon="14.9628337"><ele>1030.0</ele><time>2026-04-26T12:30:43.068Z</time></trkpt><trkpt lat="37.9166404" lon="14.9628968"><ele>1030.0</ele><time>2026-04-26T12:30:56.06Z</time></trkpt><trkpt lat="37.9166607" lon="14.9630385"><ele>1030.0</ele><time>2026-04-26T12:32:28.077Z</time></trkpt><trkpt lat="37.9167279" lon="14.9630986"><ele>1030.0</ele><time>2026-04-26T12:35:35.073Z</time></trkpt><trkpt lat="37.916786" lon="14.9631379"><ele>1030.0</ele><time>2026-04-26T12:52:46.083Z</time></trkpt><trkpt lat="37.9167935" lon="14.9632183"><ele>1030.0</ele><time>2026-04-26T13:03:09.076Z</time></trkpt><trkpt lat="37.916729" lon="14.9630408"><ele>1030.0</ele><time>2026-04-26T13:03:51.08Z</time></trkpt><trkpt lat="37.9167157" lon="14.9629475"><ele>1030.0</ele><time>2026-04-26T13:04:07.082Z</time></trkpt><trkpt lat="37.9168251" lon="14.9628172"><ele>1030.0</ele><time>2026-04-26T13:04:26.067Z</time></trkpt><trkpt lat="37.9169018" lon="14.962772"><ele>1030.0</ele><time>2026-04-26T13:04:29.076Z</time></trkpt><trkpt lat="37.9169709" lon="14.9627296"><ele>1030.0</ele><time>2026-04-26T13:04:31.094Z</time></trkpt><trkpt lat="37.917054" lon="14.9626822"><ele>1029.6</ele><time>2026-04-26T13:04:33.079Z</time></trkpt><trkpt lat="37.9171522" lon="14.9626331"><ele>1029.2</ele><time>2026-04-26T13:04:35.071Z</time></trkpt><trkpt lat="37.9172529" lon="14.9625941"><ele>1028.8</ele><time>2026-04-26T13:04:37.077Z</time></trkpt><trkpt lat="37.9173521" lon="14.9625591"><ele>1028.4</ele><time>2026-04-26T13:04:39.093Z</time></trkpt><trkpt lat="37.9174437" lon="14.9625317"><ele>1028.0</ele><time>2026-04-26T13:04:41.086Z</time></trkpt><trkpt lat="37.917524" lon="14.962507"><ele>1027.3333333333335</ele><time>2026-04-26T13:04:43.074Z</time></trkpt><trkpt lat="37.9175979" lon="14.9624796"><ele>1026.6666666666667</ele><time>2026-04-26T13:04:45.086Z</time></trkpt><trkpt lat="37.9176839" lon="14.9624401"><ele>1026.0</ele><time>2026-04-26T13:04:48.089Z</time></trkpt><trkpt lat="37.9177765" lon="14.9624004"><ele>1025.3333333333333</ele><time>2026-04-26T13:04:51.099Z</time></trkpt><trkpt lat="37.9178408" lon="14.9623716"><ele>1024.6666666666665</ele><time>2026-04-26T13:04:53.091Z</time></trkpt><trkpt lat="37.9179163" lon="14.9623611"><ele>1024.0</ele><time>2026-04-26T13:04:56.083Z</time></trkpt><trkpt lat="37.9178515" lon="14.962416"><ele>1023.9999999999999</ele><time>2026-04-26T13:05:08.093Z</time></trkpt><trkpt lat="37.9177471" lon="14.9624375"><ele>1024.0</ele><time>2026-04-26T13:05:10.078Z</time></trkpt><trkpt lat="37.9176832" lon="14.9624448"><ele>1024.0</ele><time>2026-04-26T13:05:11.085Z</time></trkpt><trkpt lat="37.9175824" lon="14.9624623"><ele>1024.0</ele><time>2026-04-26T13:05:13.097Z</time></trkpt><trkpt lat="37.9175463" lon="14.9625308"><ele>1023.9999999999999</ele><time>2026-04-26T13:05:16.093Z</time></trkpt><trkpt lat="37.9175465" lon="14.9626184"><ele>1024.0</ele><time>2026-04-26T13:05:18.085Z</time></trkpt><trkpt lat="37.9175436" lon="14.9627267"><ele>1023.2857142857142</ele><time>2026-04-26T13:05:20.077Z</time></trkpt><trkpt lat="37.9174832" lon="14.9627623"><ele>1022.5714285714284</ele><time>2026-04-26T13:05:22.084Z</time></trkpt><trkpt lat="37.917435" lon="14.9628378"><ele>1021.8571428571429</ele><time>2026-04-26T13:05:25.064Z</time></trkpt><trkpt lat="37.9174458" lon="14.9629185"><ele>1021.1428571428571</ele><time>2026-04-26T13:05:27.095Z</time></trkpt><trkpt lat="37.9174434" lon="14.9630057"><ele>1020.4285714285714</ele><time>2026-04-26T13:05:29.068Z</time></trkpt><trkpt lat="37.9174401" lon="14.9630981"><ele>1019.7142857142858</ele><time>2026-04-26T13:05:31.081Z</time></trkpt><trkpt lat="37.9174604" lon="14.9632022"><ele>1019.0000000000001</ele><time>2026-04-26T13:05:33.082Z</time></trkpt><trkpt lat="37.9174762" lon="14.9632947"><ele>1015.8333333333334</ele><time>2026-04-26T13:05:35.067Z</time></trkpt><trkpt lat="37.9174803" lon="14.9634004"><ele>1012.6666666666667</ele><time>2026-04-26T13:05:38.08Z</time></trkpt><trkpt lat="37.9174784" lon="14.963503"><ele>1009.5</ele><time>2026-04-26T13:05:41.089Z</time></trkpt><trkpt lat="37.9175033" lon="14.9636165"><ele>1006.3333333333333</ele><time>2026-04-26T13:05:44.077Z</time></trkpt><trkpt lat="37.9174993" lon="14.9637122"><ele>1003.1666666666666</ele><time>2026-04-26T13:05:47.083Z</time></trkpt><trkpt lat="37.9174845" lon="14.9638013"><ele>1000.0</ele><time>2026-04-26T13:05:51.09Z</time></trkpt><trkpt lat="37.9174017" lon="14.963848"><ele>999.9999999999999</ele><time>2026-04-26T13:05:54.051Z</time></trkpt><trkpt lat="37.9173273" lon="14.9638544"><ele>1000.0</ele><time>2026-04-26T13:05:56.065Z</time></trkpt><trkpt lat="37.9172642" lon="14.9639241"><ele>1000.0</ele><time>2026-04-26T13:05:59.102Z</time></trkpt><trkpt lat="37.9171661" lon="14.9639569"><ele>1000.0</ele><time>2026-04-26T13:07:55.079Z</time></trkpt><trkpt lat="37.9170851" lon="14.9639841"><ele>999.9999999999999</ele><time>2026-04-26T13:07:56.081Z</time></trkpt><trkpt lat="37.9170254" lon="14.9640115"><ele>1000.0</ele><time>2026-04-26T13:07:57.079Z</time></trkpt><trkpt lat="37.9169475" lon="14.9640496"><ele>1000.0</ele><time>2026-04-26T13:07:59.091Z</time></trkpt><trkpt lat="37.9168881" lon="14.9640897"><ele>1000.0</ele><time>2026-04-26T13:08:01.082Z</time></trkpt><trkpt lat="37.9168268" lon="14.9641557"><ele>1000.0</ele><time>2026-04-26T13:08:03.079Z</time></trkpt><trkpt lat="37.916766" lon="14.9642497"><ele>1000.0</ele><time>2026-04-26T13:08:05.066Z</time></trkpt><trkpt lat="37.9166903" lon="14.9643473"><ele>1000.0</ele><time>2026-04-26T13:08:07.088Z</time></trkpt><trkpt lat="37.9165933" lon="14.9644388"><ele>998.1428571428571</ele><time>2026-04-26T13:08:09.095Z</time></trkpt><trkpt lat="37.9165372" lon="14.9644833"><ele>996.2857142857143</ele><time>2026-04-26T13:08:10.057Z</time></trkpt><trkpt lat="37.9164782" lon="14.964528"><ele>994.4285714285714</ele><time>2026-04-26T13:08:11.079Z</time></trkpt><trkpt lat="37.9164168" lon="14.9645699"><ele>992.5714285714286</ele><time>2026-04-26T13:08:12.078Z</time></trkpt><trkpt lat="37.9163535" lon="14.9646079"><ele>990.7142857142858</ele><time>2026-04-26T13:08:13.064Z</time></trkpt><trkpt lat="37.9162872" lon="14.9646354"><ele>988.8571428571429</ele><time>2026-04-26T13:08:14.091Z</time></trkpt><trkpt lat="37.9162255" lon="14.9646522"><ele>987.0</ele><time>2026-04-26T13:08:15.103Z</time></trkpt><trkpt lat="37.9161129" lon="14.9647013"><ele>987.0</ele><time>2026-04-26T13:08:17.079Z</time></trkpt><trkpt lat="37.9160049" lon="14.9647631"><ele>987.0</ele><time>2026-04-26T13:08:19.08Z</time></trkpt><trkpt lat="37.9159497" lon="14.9648024"><ele>987.0</ele><time>2026-04-26T13:08:20.079Z</time></trkpt><trkpt lat="37.9158923" lon="14.96484"><ele>987.0</ele><time>2026-04-26T13:08:21.08Z</time></trkpt><trkpt lat="37.9158321" lon="14.9648755"><ele>987.0</ele><time>2026-04-26T13:08:22.093Z</time></trkpt><trkpt lat="37.915768" lon="14.9649124"><ele>987.0</ele><time>2026-04-26T13:08:23.095Z</time></trkpt><trkpt lat="37.9157005" lon="14.964947"><ele>988.0</ele><time>2026-04-26T13:08:24.081Z</time></trkpt><trkpt lat="37.9156297" lon="14.9649814"><ele>989.0</ele><time>2026-04-26T13:08:25.078Z</time></trkpt><trkpt lat="37.9155587" lon="14.9650158"><ele>990.0</ele><time>2026-04-26T13:08:26.065Z</time></trkpt><trkpt lat="37.9154875" lon="14.9650522"><ele>991.0</ele><time>2026-04-26T13:08:27.076Z</time></trkpt><trkpt lat="37.9154186" lon="14.9650903"><ele>992.0</ele><time>2026-04-26T13:08:28.093Z</time></trkpt><trkpt lat="37.9153523" lon="14.965128"><ele>993.0</ele><time>2026-04-26T13:08:29.109Z</time></trkpt><trkpt lat="37.9152885" lon="14.9651706"><ele>994.0</ele><time>2026-04-26T13:08:30.08Z</time></trkpt><trkpt lat="37.9152248" lon="14.9652186"><ele>991.3333333333333</ele><time>2026-04-26T13:08:31.097Z</time></trkpt><trkpt lat="37.9151619" lon="14.9652653"><ele>988.6666666666666</ele><time>2026-04-26T13:08:32.08Z</time></trkpt><trkpt lat="37.9151028" lon="14.9653138"><ele>986.0</ele><time>2026-04-26T13:08:33.088Z</time></trkpt><trkpt lat="37.9150514" lon="14.9653623"><ele>983.3333333333333</ele><time>2026-04-26T13:08:34.079Z</time></trkpt><trkpt lat="37.9149666" lon="14.965459"><ele>980.6666666666666</ele><time>2026-04-26T13:08:36.099Z</time></trkpt><trkpt lat="37.9148988" lon="14.9655399"><ele>978.0</ele><time>2026-04-26T13:08:38.093Z</time></trkpt><trkpt lat="37.9148304" lon="14.9656113"><ele>978.0</ele><time>2026-04-26T13:08:41.066Z</time></trkpt><trkpt lat="37.9148158" lon="14.9656904"><ele>978.0</ele><time>2026-04-26T13:08:44.067Z</time></trkpt><trkpt lat="37.9149011" lon="14.9656759"><ele>978.0</ele><time>2026-04-26T13:08:48.097Z</time></trkpt><trkpt lat="37.9150178" lon="14.9655889"><ele>978.0</ele><time>2026-04-26T13:08:50.068Z</time></trkpt><trkpt lat="37.9150987" lon="14.9655389"><ele>978.0</ele><time>2026-04-26T13:08:51.092Z</time></trkpt><trkpt lat="37.9151822" lon="14.9655047"><ele>976.8333333333334</ele><time>2026-04-26T13:08:52.077Z</time></trkpt><trkpt lat="37.9152686" lon="14.9654901"><ele>975.6666666666667</ele><time>2026-04-26T13:08:53.07Z</time></trkpt><trkpt lat="37.915359" lon="14.9654916"><ele>974.5</ele><time>2026-04-26T13:08:54.093Z</time></trkpt><trkpt lat="37.9154455" lon="14.9655062"><ele>973.3333333333334</ele><time>2026-04-26T13:08:55.067Z</time></trkpt><trkpt lat="37.9155308" lon="14.9655293"><ele>972.1666666666667</ele><time>2026-04-26T13:08:56.065Z</time></trkpt><trkpt lat="37.9156125" lon="14.9655578"><ele>971.0</ele><time>2026-04-26T13:08:57.101Z</time></trkpt><trkpt lat="37.9156871" lon="14.9655882"><ele>971.0000000000001</ele><time>2026-04-26T13:08:58.066Z</time></trkpt><trkpt lat="37.9157601" lon="14.9656171"><ele>971.0</ele><time>2026-04-26T13:08:59.079Z</time></trkpt><trkpt lat="37.9158326" lon="14.9656411"><ele>971.0</ele><time>2026-04-26T13:09:00.069Z</time></trkpt><trkpt lat="37.9159076" lon="14.9656634"><ele>971.0</ele><time>2026-04-26T13:09:01.099Z</time></trkpt><trkpt lat="37.9159843" lon="14.9656816"><ele>971.0000000000001</ele><time>2026-04-26T13:09:02.094Z</time></trkpt><trkpt lat="37.9160705" lon="14.9656895"><ele>971.0</ele><time>2026-04-26T13:09:03.08Z</time></trkpt><trkpt lat="37.9161655" lon="14.9656894"><ele>969.8</ele><time>2026-04-26T13:09:04.077Z</time></trkpt><trkpt lat="37.9162643" lon="14.9656851"><ele>968.5999999999999</ele><time>2026-04-26T13:09:05.069Z</time></trkpt><trkpt lat="37.9163673" lon="14.9656792"><ele>967.4</ele><time>2026-04-26T13:09:06.066Z</time></trkpt><trkpt lat="37.9164725" lon="14.9656756"><ele>966.2</ele><time>2026-04-26T13:09:07.094Z</time></trkpt><trkpt lat="37.9165769" lon="14.9656735"><ele>965.0</ele><time>2026-04-26T13:09:08.079Z</time></trkpt><trkpt lat="37.9166811" lon="14.9656728"><ele>962.8</ele><time>2026-04-26T13:09:09.098Z</time></trkpt><trkpt lat="37.9167774" lon="14.9656731"><ele>960.6</ele><time>2026-04-26T13:09:10.065Z</time></trkpt><trkpt lat="37.9168733" lon="14.9656766"><ele>958.4000000000001</ele><time>2026-04-26T13:09:11.08Z</time></trkpt><trkpt lat="37.9169655" lon="14.9656801"><ele>956.2</ele><time>2026-04-26T13:09:12.066Z</time></trkpt><trkpt lat="37.9170547" lon="14.9656808"><ele>954.0</ele><time>2026-04-26T13:09:13.083Z</time></trkpt><trkpt lat="37.9171421" lon="14.9656779"><ele>954.0</ele><time>2026-04-26T13:09:14.079Z</time></trkpt><trkpt lat="37.9172286" lon="14.9656689"><ele>954.0</ele><time>2026-04-26T13:09:15.081Z</time></trkpt><trkpt lat="37.917315" lon="14.9656489"><ele>954.0</ele><time>2026-04-26T13:09:16.059Z</time></trkpt><trkpt lat="37.9173979" lon="14.9656097"><ele>954.0</ele><time>2026-04-26T13:09:17.081Z</time></trkpt><trkpt lat="37.9174759" lon="14.9655575"><ele>954.0</ele><time>2026-04-26T13:09:18.078Z</time></trkpt><trkpt lat="37.917551" lon="14.9655051"><ele>954.0</ele><time>2026-04-26T13:09:19.064Z</time></trkpt><trkpt lat="37.9176195" lon="14.9654534"><ele>952.7142857142857</ele><time>2026-04-26T13:09:20.068Z</time></trkpt><trkpt lat="37.9176857" lon="14.9654005"><ele>951.4285714285713</ele><time>2026-04-26T13:09:21.081Z</time></trkpt><trkpt lat="37.9177498" lon="14.9653511"><ele>950.1428571428571</ele><time>2026-04-26T13:09:22.096Z</time></trkpt><trkpt lat="37.9178154" lon="14.9653087"><ele>948.8571428571429</ele><time>2026-04-26T13:09:23.083Z</time></trkpt><trkpt lat="37.9178803" lon="14.9652765"><ele>947.5714285714286</ele><time>2026-04-26T13:09:24.073Z</time></trkpt><trkpt lat="37.9179459" lon="14.9652546"><ele>946.2857142857142</ele><time>2026-04-26T13:09:25.095Z</time></trkpt><trkpt lat="37.918013" lon="14.9652368"><ele>945.0</ele><time>2026-04-26T13:09:26.078Z</time></trkpt><trkpt lat="37.9180814" lon="14.9652248"><ele>945.0</ele><time>2026-04-26T13:09:27.064Z</time></trkpt><trkpt lat="37.9181515" lon="14.9652158"><ele>945.0</ele><time>2026-04-26T13:09:28.081Z</time></trkpt><trkpt lat="37.9182248" lon="14.9652089"><ele>945.0</ele><time>2026-04-26T13:09:29.069Z</time></trkpt><trkpt lat="37.9183013" lon="14.9652052"><ele>945.0</ele><time>2026-04-26T13:09:30.095Z</time></trkpt><trkpt lat="37.9183813" lon="14.965201"><ele>945.0</ele><time>2026-04-26T13:09:31.066Z</time></trkpt><trkpt lat="37.9184668" lon="14.9652011"><ele>945.0</ele><time>2026-04-26T13:09:32.094Z</time></trkpt><trkpt lat="37.9185552" lon="14.9652051"><ele>943.6</ele><time>2026-04-26T13:09:33.103Z</time></trkpt><trkpt lat="37.9186436" lon="14.965215"><ele>942.2</ele><time>2026-04-26T13:09:34.08Z</time></trkpt><trkpt lat="37.9187328" lon="14.9652214"><ele>940.8</ele><time>2026-04-26T13:09:35.074Z</time></trkpt><trkpt lat="37.9188285" lon="14.9652196"><ele>939.4</ele><time>2026-04-26T13:09:36.082Z</time></trkpt><trkpt lat="37.9189325" lon="14.9652143"><ele>938.0</ele><time>2026-04-26T13:09:37.065Z</time></trkpt><trkpt lat="37.9190509" lon="14.965214"><ele>938.0</ele><time>2026-04-26T13:09:38.101Z</time></trkpt><trkpt lat="37.91918" lon="14.9652195"><ele>938.0</ele><time>2026-04-26T13:09:39.098Z</time></trkpt><trkpt lat="37.9193093" lon="14.9652287"><ele>938.0</ele><time>2026-04-26T13:09:40.078Z</time></trkpt><trkpt lat="37.9194349" lon="14.9652358"><ele>938.0</ele><time>2026-04-26T13:09:41.078Z</time></trkpt><trkpt lat="37.9195557" lon="14.9652392"><ele>939.8</ele><time>2026-04-26T13:09:42.078Z</time></trkpt><trkpt lat="37.9196722" lon="14.965244"><ele>941.5999999999999</ele><time>2026-04-26T13:09:43.094Z</time></trkpt><trkpt lat="37.9197842" lon="14.9652471"><ele>943.4000000000001</ele><time>2026-04-26T13:09:44.081Z</time></trkpt><trkpt lat="37.9198906" lon="14.965248"><ele>945.2</ele><time>2026-04-26T13:09:45.091Z</time></trkpt><trkpt lat="37.9199905" lon="14.9652517"><ele>947.0</ele><time>2026-04-26T13:09:46.051Z</time></trkpt><trkpt lat="37.9200796" lon="14.9652627"><ele>947.1666666666667</ele><time>2026-04-26T13:09:47.067Z</time></trkpt><trkpt lat="37.9201632" lon="14.9652864"><ele>947.3333333333334</ele><time>2026-04-26T13:09:48.08Z</time></trkpt><trkpt lat="37.9202401" lon="14.9653253"><ele>947.5</ele><time>2026-04-26T13:09:49.076Z</time></trkpt><trkpt lat="37.9203061" lon="14.9653774"><ele>947.6666666666667</ele><time>2026-04-26T13:09:50.067Z</time></trkpt><trkpt lat="37.9203636" lon="14.9654399"><ele>947.8333333333334</ele><time>2026-04-26T13:09:51.086Z</time></trkpt><trkpt lat="37.920405" lon="14.9655251"><ele>948.0</ele><time>2026-04-26T13:09:52.076Z</time></trkpt><trkpt lat="37.9204321" lon="14.9656291"><ele>948.0</ele><time>2026-04-26T13:09:53.089Z</time></trkpt><trkpt lat="37.9204429" lon="14.9657441"><ele>948.0</ele><time>2026-04-26T13:09:54.098Z</time></trkpt><trkpt lat="37.9204429" lon="14.9658614"><ele>948.0</ele><time>2026-04-26T13:09:55.087Z</time></trkpt><trkpt lat="37.9204354" lon="14.9659605"><ele>948.0</ele><time>2026-04-26T13:09:56.079Z</time></trkpt><trkpt lat="37.920417" lon="14.9660511"><ele>948.0</ele><time>2026-04-26T13:09:57.097Z</time></trkpt><trkpt lat="37.9203815" lon="14.9661396"><ele>948.0</ele><time>2026-04-26T13:09:58.095Z</time></trkpt><trkpt lat="37.9203335" lon="14.9662231"><ele>944.8333333333334</ele><time>2026-04-26T13:09:59.098Z</time></trkpt><trkpt lat="37.9202782" lon="14.9662987"><ele>941.6666666666667</ele><time>2026-04-26T13:10:00.07Z</time></trkpt><trkpt lat="37.9202161" lon="14.966371"><ele>938.5</ele><time>2026-04-26T13:10:01.081Z</time></trkpt><trkpt lat="37.9201501" lon="14.9664411"><ele>935.3333333333334</ele><time>2026-04-26T13:10:02.079Z</time></trkpt><trkpt lat="37.920078" lon="14.966502"><ele>932.1666666666667</ele><time>2026-04-26T13:10:03.057Z</time></trkpt><trkpt lat="37.9200017" lon="14.9665536"><ele>929.0</ele><time>2026-04-26T13:10:04.08Z</time></trkpt><trkpt lat="37.9199227" lon="14.9666017"><ele>929.0</ele><time>2026-04-26T13:10:05.093Z</time></trkpt><trkpt lat="37.9198373" lon="14.9666526"><ele>929.0000000000001</ele><time>2026-04-26T13:10:06.091Z</time></trkpt><trkpt lat="37.9197459" lon="14.9667069"><ele>929.0000000000001</ele><time>2026-04-26T13:10:07.079Z</time></trkpt><trkpt lat="37.9196545" lon="14.9667615"><ele>929.0</ele><time>2026-04-26T13:10:08.063Z</time></trkpt><trkpt lat="37.9195681" lon="14.966813"><ele>929.0</ele><time>2026-04-26T13:10:09.064Z</time></trkpt><trkpt lat="37.9194858" lon="14.9668634"><ele>927.0000000000001</ele><time>2026-04-26T13:10:10.082Z</time></trkpt><trkpt lat="37.9194057" lon="14.9669106"><ele>925.0</ele><time>2026-04-26T13:10:11.085Z</time></trkpt><trkpt lat="37.9193251" lon="14.9669566"><ele>923.0</ele><time>2026-04-26T13:10:12.08Z</time></trkpt><trkpt lat="37.9192487" lon="14.9670011"><ele>921.0</ele><time>2026-04-26T13:10:13.083Z</time></trkpt><trkpt lat="37.9191737" lon="14.9670473"><ele>919.0000000000001</ele><time>2026-04-26T13:10:14.078Z</time></trkpt><trkpt lat="37.9191019" lon="14.9670952"><ele>917.0</ele><time>2026-04-26T13:10:15.11Z</time></trkpt><trkpt lat="37.9190289" lon="14.9671455"><ele>917.0000000000001</ele><time>2026-04-26T13:10:16.081Z</time></trkpt><trkpt lat="37.9189574" lon="14.9671974"><ele>917.0</ele><time>2026-04-26T13:10:17.081Z</time></trkpt><trkpt lat="37.9188854" lon="14.9672564"><ele>917.0</ele><time>2026-04-26T13:10:18.085Z</time></trkpt><trkpt lat="37.9188123" lon="14.9673196"><ele>917.0</ele><time>2026-04-26T13:10:19.068Z</time></trkpt><trkpt lat="37.9187353" lon="14.967381"><ele>917.0000000000001</ele><time>2026-04-26T13:10:20.079Z</time></trkpt><trkpt lat="37.9186571" lon="14.9674427"><ele>917.0</ele><time>2026-04-26T13:10:21.081Z</time></trkpt><trkpt lat="37.9185765" lon="14.9675108"><ele>915.6666666666667</ele><time>2026-04-26T13:10:22.08Z</time></trkpt><trkpt lat="37.9184965" lon="14.9675836"><ele>914.3333333333334</ele><time>2026-04-26T13:10:23.079Z</time></trkpt><trkpt lat="37.9184181" lon="14.9676584"><ele>913.0</ele><time>2026-04-26T13:10:24.066Z</time></trkpt><trkpt lat="37.9183488" lon="14.9677255"><ele>911.6666666666667</ele><time>2026-04-26T13:10:25.08Z</time></trkpt><trkpt lat="37.918284" lon="14.9677867"><ele>910.3333333333334</ele><time>2026-04-26T13:10:26.064Z</time></trkpt><trkpt lat="37.9182196" lon="14.9678455"><ele>909.0</ele><time>2026-04-26T13:10:27.082Z</time></trkpt><trkpt lat="37.9181512" lon="14.9679005"><ele>909.0</ele><time>2026-04-26T13:10:28.076Z</time></trkpt><trkpt lat="37.9180798" lon="14.9679514"><ele>909.0</ele><time>2026-04-26T13:10:29.063Z</time></trkpt><trkpt lat="37.9180068" lon="14.9679941"><ele>909.0</ele><time>2026-04-26T13:10:30.072Z</time></trkpt><trkpt lat="37.9179371" lon="14.9680218"><ele>909.0</ele><time>2026-04-26T13:10:31.08Z</time></trkpt><trkpt lat="37.917866" lon="14.968043"><ele>909.0</ele><time>2026-04-26T13:10:32.065Z</time></trkpt><trkpt lat="37.9177916" lon="14.9680571"><ele>909.0</ele><time>2026-04-26T13:10:33.1Z</time></trkpt><trkpt lat="37.9177115" lon="14.9680631"><ele>909.0</ele><time>2026-04-26T13:10:34.091Z</time></trkpt><trkpt lat="37.9176316" lon="14.9680665"><ele>909.0</ele><time>2026-04-26T13:10:35.082Z</time></trkpt><trkpt lat="37.9175467" lon="14.9680588"><ele>909.0</ele><time>2026-04-26T13:10:36.064Z</time></trkpt><trkpt lat="37.9174622" lon="14.9680394"><ele>909.0</ele><time>2026-04-26T13:10:37.066Z</time></trkpt><trkpt lat="37.9173748" lon="14.9680138"><ele>909.0</ele><time>2026-04-26T13:10:38.078Z</time></trkpt><trkpt lat="37.9172927" lon="14.9679909"><ele>909.0</ele><time>2026-04-26T13:10:39.095Z</time></trkpt><trkpt lat="37.9172078" lon="14.9679691"><ele>909.6666666666666</ele><time>2026-04-26T13:10:40.092Z</time></trkpt><trkpt lat="37.9171208" lon="14.9679482"><ele>910.3333333333333</ele><time>2026-04-26T13:10:41.103Z</time></trkpt><trkpt lat="37.9170364" lon="14.9679263"><ele>911.0</ele><time>2026-04-26T13:10:42.095Z</time></trkpt><trkpt lat="37.9169582" lon="14.9679079"><ele>911.6666666666666</ele><time>2026-04-26T13:10:43.094Z</time></trkpt><trkpt lat="37.9168836" lon="14.9679012"><ele>912.3333333333333</ele><time>2026-04-26T13:10:44.066Z</time></trkpt><trkpt lat="37.9168097" lon="14.9678921"><ele>913.0</ele><time>2026-04-26T13:10:45.118Z</time></trkpt><trkpt lat="37.9167412" lon="14.9678854"><ele>913.9999999999999</ele><time>2026-04-26T13:10:46.079Z</time></trkpt><trkpt lat="37.9166719" lon="14.9678831"><ele>915.0</ele><time>2026-04-26T13:10:47.099Z</time></trkpt><trkpt lat="37.9166044" lon="14.9678847"><ele>915.9999999999999</ele><time>2026-04-26T13:10:48.092Z</time></trkpt><trkpt lat="37.916539" lon="14.9678926"><ele>916.9999999999999</ele><time>2026-04-26T13:10:49.081Z</time></trkpt><trkpt lat="37.9164746" lon="14.9678972"><ele>918.0</ele><time>2026-04-26T13:10:50.081Z</time></trkpt><trkpt lat="37.916411" lon="14.9679049"><ele>918.9999999999999</ele><time>2026-04-26T13:10:51.095Z</time></trkpt><trkpt lat="37.9163459" lon="14.9679114"><ele>919.9999999999999</ele><time>2026-04-26T13:10:52.093Z</time></trkpt><trkpt lat="37.9162783" lon="14.9679197"><ele>920.0000000000001</ele><time>2026-04-26T13:10:53.095Z</time></trkpt><trkpt lat="37.9162067" lon="14.9679256"><ele>920.0</ele><time>2026-04-26T13:10:54.092Z</time></trkpt><trkpt lat="37.9161315" lon="14.9679325"><ele>920.0</ele><time>2026-04-26T13:10:55.08Z</time></trkpt><trkpt lat="37.9160533" lon="14.9679438"><ele>920.0</ele><time>2026-04-26T13:10:56.078Z</time></trkpt><trkpt lat="37.9159718" lon="14.9679604"><ele>920.0000000000001</ele><time>2026-04-26T13:10:57.064Z</time></trkpt><trkpt lat="37.9158847" lon="14.9679817"><ele>920.0</ele><time>2026-04-26T13:10:58.088Z</time></trkpt><trkpt lat="37.9157982" lon="14.9680039"><ele>920.3333333333334</ele><time>2026-04-26T13:10:59.054Z</time></trkpt><trkpt lat="37.9157095" lon="14.9680236"><ele>920.6666666666667</ele><time>2026-04-26T13:11:00.042Z</time></trkpt><trkpt lat="37.9156224" lon="14.9680356"><ele>921.0</ele><time>2026-04-26T13:11:01.056Z</time></trkpt><trkpt lat="37.9155406" lon="14.968043"><ele>921.3333333333333</ele><time>2026-04-26T13:11:02.068Z</time></trkpt><trkpt lat="37.9154614" lon="14.9680491"><ele>921.6666666666666</ele><time>2026-04-26T13:11:03.076Z</time></trkpt><trkpt lat="37.9153836" lon="14.9680581"><ele>922.0</ele><time>2026-04-26T13:11:04.077Z</time></trkpt><trkpt lat="37.9153068" lon="14.9680679"><ele>921.9999999999999</ele><time>2026-04-26T13:11:05.06Z</time></trkpt><trkpt lat="37.9152295" lon="14.9680793"><ele>922.0</ele><time>2026-04-26T13:11:06.083Z</time></trkpt><trkpt lat="37.915153" lon="14.9680933"><ele>922.0</ele><time>2026-04-26T13:11:07.058Z</time></trkpt><trkpt lat="37.9150718" lon="14.9681085"><ele>922.0</ele><time>2026-04-26T13:11:08.08Z</time></trkpt><trkpt lat="37.9149868" lon="14.9681271"><ele>921.9999999999999</ele><time>2026-04-26T13:11:09.092Z</time></trkpt><trkpt lat="37.9149016" lon="14.9681511"><ele>922.0</ele><time>2026-04-26T13:11:10.079Z</time></trkpt><trkpt lat="37.9148138" lon="14.9681707"><ele>920.6666666666666</ele><time>2026-04-26T13:11:11.086Z</time></trkpt><trkpt lat="37.9147275" lon="14.9681873"><ele>919.3333333333333</ele><time>2026-04-26T13:11:12.08Z</time></trkpt><trkpt lat="37.9146414" lon="14.9682083"><ele>918.0</ele><time>2026-04-26T13:11:13.097Z</time></trkpt><trkpt lat="37.9145576" lon="14.9682355"><ele>916.6666666666667</ele><time>2026-04-26T13:11:14.078Z</time></trkpt><trkpt lat="37.9144719" lon="14.968263"><ele>915.3333333333334</ele><time>2026-04-26T13:11:15.08Z</time></trkpt><trkpt lat="37.9143915" lon="14.9682995"><ele>914.0</ele><time>2026-04-26T13:11:16.056Z</time></trkpt><trkpt lat="37.9143135" lon="14.9683425"><ele>911.3333333333334</ele><time>2026-04-26T13:11:17.059Z</time></trkpt><trkpt lat="37.914244" lon="14.9683905"><ele>908.6666666666667</ele><time>2026-04-26T13:11:18.079Z</time></trkpt><trkpt lat="37.9141802" lon="14.9684444"><ele>906.0</ele><time>2026-04-26T13:11:19.079Z</time></trkpt><trkpt lat="37.9141162" lon="14.9685014"><ele>903.3333333333333</ele><time>2026-04-26T13:11:20.078Z</time></trkpt><trkpt lat="37.9140507" lon="14.9685594"><ele>900.6666666666666</ele><time>2026-04-26T13:11:21.078Z</time></trkpt><trkpt lat="37.9139866" lon="14.9686202"><ele>898.0</ele><time>2026-04-26T13:11:22.077Z</time></trkpt><trkpt lat="37.9139223" lon="14.9686811"><ele>897.1666666666666</ele><time>2026-04-26T13:11:23.068Z</time></trkpt><trkpt lat="37.91386" lon="14.9687486"><ele>896.3333333333333</ele><time>2026-04-26T13:11:24.079Z</time></trkpt><trkpt lat="37.9137963" lon="14.9688151"><ele>895.5</ele><time>2026-04-26T13:11:25.081Z</time></trkpt><trkpt lat="37.9137334" lon="14.9688812"><ele>894.6666666666667</ele><time>2026-04-26T13:11:26.077Z</time></trkpt><trkpt lat="37.9136699" lon="14.9689497"><ele>893.8333333333334</ele><time>2026-04-26T13:11:27.08Z</time></trkpt><trkpt lat="37.913605" lon="14.9690155"><ele>893.0</ele><time>2026-04-26T13:11:28.102Z</time></trkpt><trkpt lat="37.9135362" lon="14.9690746"><ele>893.0000000000001</ele><time>2026-04-26T13:11:29.088Z</time></trkpt><trkpt lat="37.9134648" lon="14.9691306"><ele>893.0</ele><time>2026-04-26T13:11:30.084Z</time></trkpt><trkpt lat="37.9133923" lon="14.9691817"><ele>893.0</ele><time>2026-04-26T13:11:31.066Z</time></trkpt><trkpt lat="37.9133203" lon="14.9692337"><ele>893.0</ele><time>2026-04-26T13:11:32.08Z</time></trkpt><trkpt lat="37.9132502" lon="14.9692837"><ele>893.0000000000001</ele><time>2026-04-26T13:11:33.069Z</time></trkpt><trkpt lat="37.9131775" lon="14.9693298"><ele>893.0</ele><time>2026-04-26T13:11:34.08Z</time></trkpt><trkpt lat="37.9131013" lon="14.9693716"><ele>891.5000000000001</ele><time>2026-04-26T13:11:35.082Z</time></trkpt><trkpt lat="37.913025" lon="14.9694097"><ele>890.0</ele><time>2026-04-26T13:11:36.084Z</time></trkpt><trkpt lat="37.9129478" lon="14.9694446"><ele>888.5</ele><time>2026-04-26T13:11:37.085Z</time></trkpt><trkpt lat="37.9128732" lon="14.9694781"><ele>887.0</ele><time>2026-04-26T13:11:38.083Z</time></trkpt><trkpt lat="37.9128002" lon="14.9695119"><ele>885.5000000000001</ele><time>2026-04-26T13:11:39.087Z</time></trkpt><trkpt lat="37.9127262" lon="14.969546"><ele>884.0</ele><time>2026-04-26T13:11:40.083Z</time></trkpt><trkpt lat="37.9126516" lon="14.9695825"><ele>884.0000000000001</ele><time>2026-04-26T13:11:41.08Z</time></trkpt><trkpt lat="37.9125781" lon="14.9696257"><ele>884.0</ele><time>2026-04-26T13:11:42.086Z</time></trkpt><trkpt lat="37.9125001" lon="14.9696648"><ele>884.0</ele><time>2026-04-26T13:11:43.089Z</time></trkpt><trkpt lat="37.912421" lon="14.9696967"><ele>884.0</ele><time>2026-04-26T13:11:44.085Z</time></trkpt><trkpt lat="37.912347" lon="14.9697303"><ele>884.0000000000001</ele><time>2026-04-26T13:11:45.087Z</time></trkpt><trkpt lat="37.9122855" lon="14.9697642"><ele>884.0</ele><time>2026-04-26T13:11:46.086Z</time></trkpt><trkpt lat="37.9122215" lon="14.9697979"><ele>883.5000000000001</ele><time>2026-04-26T13:11:47.083Z</time></trkpt><trkpt lat="37.9121556" lon="14.9698347"><ele>883.0</ele><time>2026-04-26T13:11:48.067Z</time></trkpt><trkpt lat="37.9120864" lon="14.969878"><ele>882.5</ele><time>2026-04-26T13:11:49.069Z</time></trkpt><trkpt lat="37.9120114" lon="14.969918"><ele>882.0</ele><time>2026-04-26T13:11:50.08Z</time></trkpt><trkpt lat="37.9119354" lon="14.9699587"><ele>881.5000000000001</ele><time>2026-04-26T13:11:51.082Z</time></trkpt><trkpt lat="37.9118588" lon="14.9700047"><ele>881.0</ele><time>2026-04-26T13:11:52.081Z</time></trkpt><trkpt lat="37.9117808" lon="14.97005"><ele>878.3333333333334</ele><time>2026-04-26T13:11:53.084Z</time></trkpt><trkpt lat="37.9117007" lon="14.9700933"><ele>875.6666666666667</ele><time>2026-04-26T13:11:54.081Z</time></trkpt><trkpt lat="37.9116231" lon="14.9701389"><ele>873.0</ele><time>2026-04-26T13:11:55.087Z</time></trkpt><trkpt lat="37.9115455" lon="14.9701858"><ele>870.3333333333333</ele><time>2026-04-26T13:11:56.065Z</time></trkpt><trkpt lat="37.911464" lon="14.9702329"><ele>867.6666666666666</ele><time>2026-04-26T13:11:57.085Z</time></trkpt><trkpt lat="37.9113855" lon="14.9702806"><ele>865.0</ele><time>2026-04-26T13:11:58.082Z</time></trkpt><trkpt lat="37.911307" lon="14.9703251"><ele>864.9999999999999</ele><time>2026-04-26T13:11:59.088Z</time></trkpt><trkpt lat="37.9112286" lon="14.9703655"><ele>865.0</ele><time>2026-04-26T13:12:00.089Z</time></trkpt><trkpt lat="37.9111492" lon="14.9704049"><ele>865.0</ele><time>2026-04-26T13:12:01.068Z</time></trkpt><trkpt lat="37.9110664" lon="14.9704437"><ele>865.0</ele><time>2026-04-26T13:12:02.093Z</time></trkpt><trkpt lat="37.9109843" lon="14.9704806"><ele>864.9999999999999</ele><time>2026-04-26T13:12:03.085Z</time></trkpt><trkpt lat="37.9109006" lon="14.970519"><ele>865.0</ele><time>2026-04-26T13:12:04.079Z</time></trkpt><trkpt lat="37.9108157" lon="14.9705549"><ele>864.9999999999999</ele><time>2026-04-26T13:12:05.096Z</time></trkpt><trkpt lat="37.9107295" lon="14.9705962"><ele>865.0</ele><time>2026-04-26T13:12:06.096Z</time></trkpt><trkpt lat="37.9106452" lon="14.970639"><ele>865.0</ele><time>2026-04-26T13:12:07.079Z</time></trkpt><trkpt lat="37.9105644" lon="14.9706828"><ele>865.0</ele><time>2026-04-26T13:12:08.078Z</time></trkpt><trkpt lat="37.9104857" lon="14.9707234"><ele>864.9999999999999</ele><time>2026-04-26T13:12:09.093Z</time></trkpt><trkpt lat="37.9104111" lon="14.9707591"><ele>865.0</ele><time>2026-04-26T13:12:10.078Z</time></trkpt><trkpt lat="37.9103348" lon="14.9707859"><ele>865.0</ele><time>2026-04-26T13:12:11.08Z</time></trkpt><trkpt lat="37.9102582" lon="14.9708052"><ele>865.0</ele><time>2026-04-26T13:12:12.068Z</time></trkpt><trkpt lat="37.9101809" lon="14.9708133"><ele>865.0</ele><time>2026-04-26T13:12:13.072Z</time></trkpt><trkpt lat="37.9101055" lon="14.9708071"><ele>865.0</ele><time>2026-04-26T13:12:14.089Z</time></trkpt><trkpt lat="37.910032" lon="14.9707896"><ele>865.0</ele><time>2026-04-26T13:12:15.086Z</time></trkpt><trkpt lat="37.9099605" lon="14.9707699"><ele>865.0</ele><time>2026-04-26T13:12:16.059Z</time></trkpt><trkpt lat="37.9098938" lon="14.9707533"><ele>865.0</ele><time>2026-04-26T13:12:17.07Z</time></trkpt><trkpt lat="37.9098301" lon="14.9707389"><ele>864.8571428571429</ele><time>2026-04-26T13:12:18.066Z</time></trkpt><trkpt lat="37.9097694" lon="14.9707146"><ele>864.7142857142858</ele><time>2026-04-26T13:12:19.082Z</time></trkpt><trkpt lat="37.9097115" lon="14.970674"><ele>864.5714285714286</ele><time>2026-04-26T13:12:20.082Z</time></trkpt><trkpt lat="37.9096488" lon="14.970622"><ele>864.4285714285714</ele><time>2026-04-26T13:12:21.067Z</time></trkpt><trkpt lat="37.9095795" lon="14.9705634"><ele>864.2857142857142</ele><time>2026-04-26T13:12:22.061Z</time></trkpt><trkpt lat="37.909508" lon="14.9705131"><ele>864.1428571428571</ele><time>2026-04-26T13:12:23.079Z</time></trkpt><trkpt lat="37.9094405" lon="14.9704646"><ele>864.0</ele><time>2026-04-26T13:12:24.095Z</time></trkpt><trkpt lat="37.9093709" lon="14.9704162"><ele>864.0</ele><time>2026-04-26T13:12:25.072Z</time></trkpt><trkpt lat="37.9093014" lon="14.9703611"><ele>864.0</ele><time>2026-04-26T13:12:26.071Z</time></trkpt><trkpt lat="37.9092235" lon="14.9703095"><ele>864.0</ele><time>2026-04-26T13:12:27.099Z</time></trkpt><trkpt lat="37.9091442" lon="14.9702696"><ele>864.0</ele><time>2026-04-26T13:12:28.08Z</time></trkpt><trkpt lat="37.9090645" lon="14.9702539"><ele>864.0</ele><time>2026-04-26T13:12:29.077Z</time></trkpt><trkpt lat="37.9089873" lon="14.9702617"><ele>864.0</ele><time>2026-04-26T13:12:30.08Z</time></trkpt><trkpt lat="37.9089173" lon="14.9702874"><ele>862.6666666666666</ele><time>2026-04-26T13:12:31.079Z</time></trkpt><trkpt lat="37.9088524" lon="14.9703261"><ele>861.3333333333333</ele><time>2026-04-26T13:12:32.076Z</time></trkpt><trkpt lat="37.9087629" lon="14.9704063"><ele>860.0</ele><time>2026-04-26T13:12:34.081Z</time></trkpt><trkpt lat="37.9087055" lon="14.9705255"><ele>858.6666666666666</ele><time>2026-04-26T13:12:36.061Z</time></trkpt><trkpt lat="37.9086877" lon="14.9706029"><ele>857.3333333333333</ele><time>2026-04-26T13:12:37.092Z</time></trkpt><trkpt lat="37.9086792" lon="14.9706911"><ele>856.0</ele><time>2026-04-26T13:12:38.078Z</time></trkpt><trkpt lat="37.9086858" lon="14.9707808"><ele>853.4999999999999</ele><time>2026-04-26T13:12:39.079Z</time></trkpt><trkpt lat="37.9087001" lon="14.970874"><ele>851.0</ele><time>2026-04-26T13:12:40.09Z</time></trkpt><trkpt lat="37.9087241" lon="14.9709715"><ele>848.5</ele><time>2026-04-26T13:12:41.065Z</time></trkpt><trkpt lat="37.9087645" lon="14.971066"><ele>846.0</ele><time>2026-04-26T13:12:42.069Z</time></trkpt><trkpt lat="37.9088129" lon="14.9711617"><ele>843.4999999999999</ele><time>2026-04-26T13:12:43.087Z</time></trkpt><trkpt lat="37.9088725" lon="14.9712484"><ele>841.0</ele><time>2026-04-26T13:12:44.072Z</time></trkpt><trkpt lat="37.9089399" lon="14.9713353"><ele>841.0</ele><time>2026-04-26T13:12:45.111Z</time></trkpt><trkpt lat="37.9090138" lon="14.9714267"><ele>841.0</ele><time>2026-04-26T13:12:46.08Z</time></trkpt><trkpt lat="37.909091" lon="14.9715195"><ele>841.0</ele><time>2026-04-26T13:12:47.08Z</time></trkpt><trkpt lat="37.9091752" lon="14.9716184"><ele>841.0</ele><time>2026-04-26T13:12:48.081Z</time></trkpt><trkpt lat="37.9092587" lon="14.9717204"><ele>841.0</ele><time>2026-04-26T13:12:49.072Z</time></trkpt><trkpt lat="37.9093419" lon="14.971825"><ele>840.1999999999999</ele><time>2026-04-26T13:12:50.082Z</time></trkpt><trkpt lat="37.9094252" lon="14.9719273"><ele>839.4</ele><time>2026-04-26T13:12:51.07Z</time></trkpt><trkpt lat="37.9095093" lon="14.9720301"><ele>838.6</ele><time>2026-04-26T13:12:52.095Z</time></trkpt><trkpt lat="37.9095864" lon="14.9721246"><ele>837.8</ele><time>2026-04-26T13:12:53.078Z</time></trkpt><trkpt lat="37.90966" lon="14.9722145"><ele>837.0</ele><time>2026-04-26T13:12:54.078Z</time></trkpt><trkpt lat="37.9097313" lon="14.9723008"><ele>837.0</ele><time>2026-04-26T13:12:55.078Z</time></trkpt><trkpt lat="37.9098018" lon="14.9723844"><ele>837.0</ele><time>2026-04-26T13:12:56.078Z</time></trkpt><trkpt lat="37.9098743" lon="14.9724634"><ele>837.0</ele><time>2026-04-26T13:12:57.064Z</time></trkpt><trkpt lat="37.9099448" lon="14.9725399"><ele>837.0</ele><time>2026-04-26T13:12:58.066Z</time></trkpt><trkpt lat="37.910011" lon="14.9726138"><ele>837.0</ele><time>2026-04-26T13:12:59.066Z</time></trkpt><trkpt lat="37.9100724" lon="14.9726858"><ele>834.8333333333334</ele><time>2026-04-26T13:13:00.069Z</time></trkpt><trkpt lat="37.9101313" lon="14.9727523"><ele>832.6666666666667</ele><time>2026-04-26T13:13:01.081Z</time></trkpt><trkpt lat="37.910189" lon="14.9728141"><ele>830.5</ele><time>2026-04-26T13:13:02.094Z</time></trkpt><trkpt lat="37.9102441" lon="14.9728758"><ele>828.3333333333334</ele><time>2026-04-26T13:13:03.08Z</time></trkpt><trkpt lat="37.9103045" lon="14.9729403"><ele>826.1666666666667</ele><time>2026-04-26T13:13:04.095Z</time></trkpt><trkpt lat="37.9103702" lon="14.9730053"><ele>824.0</ele><time>2026-04-26T13:13:05.093Z</time></trkpt><trkpt lat="37.9104392" lon="14.9730726"><ele>824.0000000000001</ele><time>2026-04-26T13:13:06.082Z</time></trkpt><trkpt lat="37.9105096" lon="14.9731439"><ele>824.0</ele><time>2026-04-26T13:13:07.097Z</time></trkpt><trkpt lat="37.9105807" lon="14.9732107"><ele>824.0</ele><time>2026-04-26T13:13:08.066Z</time></trkpt><trkpt lat="37.9106536" lon="14.9732732"><ele>824.0</ele><time>2026-04-26T13:13:09.085Z</time></trkpt><trkpt lat="37.9107246" lon="14.9733278"><ele>824.0000000000001</ele><time>2026-04-26T13:13:10.061Z</time></trkpt><trkpt lat="37.9107997" lon="14.9733736"><ele>824.0</ele><time>2026-04-26T13:13:11.078Z</time></trkpt><trkpt lat="37.9108766" lon="14.9734132"><ele>820.5000000000001</ele><time>2026-04-26T13:13:12.067Z</time></trkpt><trkpt lat="37.9109565" lon="14.9734454"><ele>817.0</ele><time>2026-04-26T13:13:13.083Z</time></trkpt><trkpt lat="37.9110369" lon="14.9734709"><ele>813.5</ele><time>2026-04-26T13:13:14.077Z</time></trkpt><trkpt lat="37.911117" lon="14.9734943"><ele>810.0</ele><time>2026-04-26T13:13:15.098Z</time></trkpt><trkpt lat="37.9111936" lon="14.9735156"><ele>806.5000000000001</ele><time>2026-04-26T13:13:16.061Z</time></trkpt><trkpt lat="37.9112688" lon="14.9735334"><ele>803.0</ele><time>2026-04-26T13:13:17.08Z</time></trkpt><trkpt lat="37.9113384" lon="14.9735518"><ele>802.9999999999999</ele><time>2026-04-26T13:13:18.092Z</time></trkpt><trkpt lat="37.9114025" lon="14.9735719"><ele>803.0</ele><time>2026-04-26T13:13:19.077Z</time></trkpt><trkpt lat="37.9114636" lon="14.9735952"><ele>803.0</ele><time>2026-04-26T13:13:20.086Z</time></trkpt><trkpt lat="37.9115271" lon="14.9736199"><ele>803.0</ele><time>2026-04-26T13:13:21.081Z</time></trkpt><trkpt lat="37.9115943" lon="14.973643"><ele>803.0</ele><time>2026-04-26T13:13:22.083Z</time></trkpt><trkpt lat="37.9116712" lon="14.9736537"><ele>802.9999999999999</ele><time>2026-04-26T13:13:23.084Z</time></trkpt><trkpt lat="37.9117513" lon="14.9736618"><ele>803.0</ele><time>2026-04-26T13:13:24.068Z</time></trkpt><trkpt lat="37.9118376" lon="14.9736722"><ele>802.5000000000001</ele><time>2026-04-26T13:13:25.079Z</time></trkpt><trkpt lat="37.9119263" lon="14.9736794"><ele>802.0</ele><time>2026-04-26T13:13:26.093Z</time></trkpt><trkpt lat="37.9120132" lon="14.9736841"><ele>801.5</ele><time>2026-04-26T13:13:27.065Z</time></trkpt><trkpt lat="37.9121" lon="14.9736877"><ele>801.0</ele><time>2026-04-26T13:13:28.08Z</time></trkpt><trkpt lat="37.9121852" lon="14.9736851"><ele>800.5000000000001</ele><time>2026-04-26T13:13:29.08Z</time></trkpt><trkpt lat="37.912273" lon="14.9736829"><ele>800.0</ele><time>2026-04-26T13:13:30.064Z</time></trkpt><trkpt lat="37.9123649" lon="14.9736854"><ele>800.0000000000001</ele><time>2026-04-26T13:13:31.081Z</time></trkpt><trkpt lat="37.9124582" lon="14.9736799"><ele>800.0</ele><time>2026-04-26T13:13:32.08Z</time></trkpt><trkpt lat="37.9125495" lon="14.9736753"><ele>800.0</ele><time>2026-04-26T13:13:33.099Z</time></trkpt><trkpt lat="37.9126361" lon="14.9736833"><ele>800.0</ele><time>2026-04-26T13:13:34.08Z</time></trkpt><trkpt lat="37.9127214" lon="14.9737084"><ele>800.0000000000001</ele><time>2026-04-26T13:13:35.081Z</time></trkpt><trkpt lat="37.9127985" lon="14.9737476"><ele>800.0</ele><time>2026-04-26T13:13:36.072Z</time></trkpt><trkpt lat="37.9128586" lon="14.9737905"><ele>800.6</ele><time>2026-04-26T13:13:37.086Z</time></trkpt><trkpt lat="37.9129484" lon="14.9738795"><ele>801.2</ele><time>2026-04-26T13:13:39.081Z</time></trkpt><trkpt lat="37.9130109" lon="14.9740006"><ele>801.8</ele><time>2026-04-26T13:13:41.072Z</time></trkpt><trkpt lat="37.9130392" lon="14.9740831"><ele>802.4</ele><time>2026-04-26T13:13:42.081Z</time></trkpt><trkpt lat="37.9130715" lon="14.9741731"><ele>803.0</ele><time>2026-04-26T13:13:43.086Z</time></trkpt><trkpt lat="37.913108" lon="14.974268"><ele>803.8</ele><time>2026-04-26T13:13:44.081Z</time></trkpt><trkpt lat="37.9131512" lon="14.9743758"><ele>804.5999999999999</ele><time>2026-04-26T13:13:45.088Z</time></trkpt><trkpt lat="37.9132" lon="14.9744882"><ele>805.4000000000001</ele><time>2026-04-26T13:13:46.092Z</time></trkpt><trkpt lat="37.9132473" lon="14.9745988"><ele>806.2</ele><time>2026-04-26T13:13:47.084Z</time></trkpt><trkpt lat="37.9132881" lon="14.9747055"><ele>807.0</ele><time>2026-04-26T13:13:48.08Z</time></trkpt><trkpt lat="37.9133169" lon="14.9748084"><ele>807.0000000000001</ele><time>2026-04-26T13:13:49.079Z</time></trkpt><trkpt lat="37.9133355" lon="14.9749047"><ele>807.0</ele><time>2026-04-26T13:13:50.077Z</time></trkpt><trkpt lat="37.9133427" lon="14.9749954"><ele>807.0</ele><time>2026-04-26T13:13:51.073Z</time></trkpt><trkpt lat="37.9133377" lon="14.9750843"><ele>807.0</ele><time>2026-04-26T13:13:52.082Z</time></trkpt><trkpt lat="37.9133229" lon="14.9751724"><ele>807.0</ele><time>2026-04-26T13:13:53.08Z</time></trkpt><trkpt lat="37.9132968" lon="14.9752595"><ele>807.0000000000001</ele><time>2026-04-26T13:13:54.089Z</time></trkpt><trkpt lat="37.9132578" lon="14.9753474"><ele>807.0</ele><time>2026-04-26T13:13:55.071Z</time></trkpt><trkpt lat="37.9132068" lon="14.9754356"><ele>809.2</ele><time>2026-04-26T13:13:56.067Z</time></trkpt><trkpt lat="37.913152" lon="14.975529"><ele>811.4000000000001</ele><time>2026-04-26T13:13:57.082Z</time></trkpt><trkpt lat="37.9130977" lon="14.9756315"><ele>813.5999999999999</ele><time>2026-04-26T13:13:58.08Z</time></trkpt><trkpt lat="37.913038" lon="14.9757465"><ele>815.8</ele><time>2026-04-26T13:13:59.092Z</time></trkpt><trkpt lat="37.9129702" lon="14.9758692"><ele>818.0</ele><time>2026-04-26T13:14:00.083Z</time></trkpt><trkpt lat="37.9128914" lon="14.9759933"><ele>822.25</ele><time>2026-04-26T13:14:01.069Z</time></trkpt><trkpt lat="37.9128118" lon="14.9761202"><ele>826.5</ele><time>2026-04-26T13:14:02.085Z</time></trkpt><trkpt lat="37.9127404" lon="14.976241"><ele>830.75</ele><time>2026-04-26T13:14:03.086Z</time></trkpt><trkpt lat="37.9126776" lon="14.9763584"><ele>835.0</ele><time>2026-04-26T13:14:04.095Z</time></trkpt><trkpt lat="37.9126194" lon="14.9764752"><ele>831.5</ele><time>2026-04-26T13:14:05.066Z</time></trkpt><trkpt lat="37.9125577" lon="14.9765953"><ele>828.0</ele><time>2026-04-26T13:14:06.071Z</time></trkpt><trkpt lat="37.9124879" lon="14.9767201"><ele>824.5</ele><time>2026-04-26T13:14:07.08Z</time></trkpt><trkpt lat="37.912412" lon="14.9768544"><ele>821.0</ele><time>2026-04-26T13:14:08.1Z</time></trkpt><trkpt lat="37.9123343" lon="14.9769997"><ele>821.0</ele><time>2026-04-26T13:14:09.067Z</time></trkpt><trkpt lat="37.9122477" lon="14.9771519"><ele>821.0</ele><time>2026-04-26T13:14:10.079Z</time></trkpt><trkpt lat="37.9121678" lon="14.9772923"><ele>821.0</ele><time>2026-04-26T13:14:11.071Z</time></trkpt><trkpt lat="37.9120912" lon="14.9774257"><ele>821.0</ele><time>2026-04-26T13:14:12.068Z</time></trkpt><trkpt lat="37.9120193" lon="14.9775495"><ele>820.4</ele><time>2026-04-26T13:14:13.075Z</time></trkpt><trkpt lat="37.9119531" lon="14.9776645"><ele>819.8</ele><time>2026-04-26T13:14:14.067Z</time></trkpt><trkpt lat="37.9118936" lon="14.977778"><ele>819.1999999999999</ele><time>2026-04-26T13:14:15.063Z</time></trkpt><trkpt lat="37.9118429" lon="14.9778935"><ele>818.5999999999999</ele><time>2026-04-26T13:14:16.058Z</time></trkpt><trkpt lat="37.9117952" lon="14.9780132"><ele>818.0</ele><time>2026-04-26T13:14:17.081Z</time></trkpt><trkpt lat="37.9117476" lon="14.978131"><ele>815.5999999999999</ele><time>2026-04-26T13:14:18.08Z</time></trkpt><trkpt lat="37.9117028" lon="14.9782518"><ele>813.1999999999999</ele><time>2026-04-26T13:14:19.085Z</time></trkpt><trkpt lat="37.9116603" lon="14.9783758"><ele>810.8</ele><time>2026-04-26T13:14:20.066Z</time></trkpt><trkpt lat="37.9116201" lon="14.9785065"><ele>808.4</ele><time>2026-04-26T13:14:21.097Z</time></trkpt><trkpt lat="37.9115828" lon="14.9786367"><ele>806.0</ele><time>2026-04-26T13:14:22.086Z</time></trkpt><trkpt lat="37.9115442" lon="14.9787717"><ele>806.0</ele><time>2026-04-26T13:14:23.084Z</time></trkpt><trkpt lat="37.9115037" lon="14.9789116"><ele>806.0</ele><time>2026-04-26T13:14:24.081Z</time></trkpt><trkpt lat="37.9114612" lon="14.979059"><ele>806.0</ele><time>2026-04-26T13:14:25.091Z</time></trkpt><trkpt lat="37.9114175" lon="14.9792065"><ele>806.0</ele><time>2026-04-26T13:14:26.089Z</time></trkpt><trkpt lat="37.9113733" lon="14.9793548"><ele>806.25</ele><time>2026-04-26T13:14:27.081Z</time></trkpt><trkpt lat="37.9113298" lon="14.9795037"><ele>806.5</ele><time>2026-04-26T13:14:28.081Z</time></trkpt><trkpt lat="37.9112881" lon="14.9796564"><ele>806.75</ele><time>2026-04-26T13:14:29.063Z</time></trkpt><trkpt lat="37.9112452" lon="14.9798123"><ele>807.0</ele><time>2026-04-26T13:14:30.094Z</time></trkpt><trkpt lat="37.9112029" lon="14.9799642"><ele>808.75</ele><time>2026-04-26T13:14:31.081Z</time></trkpt><trkpt lat="37.9111572" lon="14.9801195"><ele>810.5</ele><time>2026-04-26T13:14:32.067Z</time></trkpt><trkpt lat="37.9111093" lon="14.9802733"><ele>812.25</ele><time>2026-04-26T13:14:33.073Z</time></trkpt><trkpt lat="37.9110643" lon="14.9804277"><ele>814.0</ele><time>2026-04-26T13:14:34.069Z</time></trkpt><trkpt lat="37.9110225" lon="14.9805808"><ele>814.0</ele><time>2026-04-26T13:14:35.065Z</time></trkpt><trkpt lat="37.9109786" lon="14.9807335"><ele>814.0</ele><time>2026-04-26T13:14:36.08Z</time></trkpt><trkpt lat="37.910931" lon="14.9808843"><ele>814.0</ele><time>2026-04-26T13:14:37.093Z</time></trkpt><trkpt lat="37.9108795" lon="14.9810298"><ele>814.0</ele><time>2026-04-26T13:14:38.079Z</time></trkpt><trkpt lat="37.9108256" lon="14.9811667"><ele>815.0</ele><time>2026-04-26T13:14:39.096Z</time></trkpt><trkpt lat="37.9107712" lon="14.9812928"><ele>816.0</ele><time>2026-04-26T13:14:40.066Z</time></trkpt><trkpt lat="37.9107122" lon="14.9814158"><ele>817.0</ele><time>2026-04-26T13:14:41.079Z</time></trkpt><trkpt lat="37.9106512" lon="14.9815337"><ele>818.0</ele><time>2026-04-26T13:14:42.095Z</time></trkpt><trkpt lat="37.91059" lon="14.9816468"><ele>819.0</ele><time>2026-04-26T13:14:43.078Z</time></trkpt><trkpt lat="37.9105218" lon="14.9817622"><ele>819.0</ele><time>2026-04-26T13:14:44.081Z</time></trkpt><trkpt lat="37.9104435" lon="14.9818808"><ele>819.0</ele><time>2026-04-26T13:14:45.1Z</time></trkpt><trkpt lat="37.9103651" lon="14.9820065"><ele>819.0</ele><time>2026-04-26T13:14:46.079Z</time></trkpt><trkpt lat="37.9102816" lon="14.9821438"><ele>819.0</ele><time>2026-04-26T13:14:47.103Z</time></trkpt><trkpt lat="37.9101945" lon="14.9822862"><ele>819.0</ele><time>2026-04-26T13:14:48.095Z</time></trkpt><trkpt lat="37.9101054" lon="14.9824379"><ele>819.0</ele><time>2026-04-26T13:14:49.087Z</time></trkpt><trkpt lat="37.9100174" lon="14.9825913"><ele>819.0</ele><time>2026-04-26T13:14:50.066Z</time></trkpt><trkpt lat="37.9099281" lon="14.9827396"><ele>819.0</ele><time>2026-04-26T13:14:51.081Z</time></trkpt><trkpt lat="37.9098432" lon="14.9828799"><ele>819.5</ele><time>2026-04-26T13:14:52.066Z</time></trkpt><trkpt lat="37.9097626" lon="14.9830192"><ele>820.0</ele><time>2026-04-26T13:14:53.081Z</time></trkpt><trkpt lat="37.9096856" lon="14.983153"><ele>820.5</ele><time>2026-04-26T13:14:54.061Z</time></trkpt><trkpt lat="37.9096094" lon="14.9832879"><ele>821.0</ele><time>2026-04-26T13:14:55.094Z</time></trkpt><trkpt lat="37.9095367" lon="14.9834192"><ele>821.0</ele><time>2026-04-26T13:14:56.09Z</time></trkpt><trkpt lat="37.9094611" lon="14.9835493"><ele>821.0</ele><time>2026-04-26T13:14:57.067Z</time></trkpt><trkpt lat="37.9093787" lon="14.9836877"><ele>821.0</ele><time>2026-04-26T13:14:58.08Z</time></trkpt><trkpt lat="37.9092923" lon="14.9838326"><ele>821.0</ele><time>2026-04-26T13:14:59.081Z</time></trkpt><trkpt lat="37.9092062" lon="14.9839923"><ele>820.3333333333334</ele><time>2026-04-26T13:15:00.078Z</time></trkpt><trkpt lat="37.9091135" lon="14.9841583"><ele>819.6666666666667</ele><time>2026-04-26T13:15:01.079Z</time></trkpt><trkpt lat="37.9090146" lon="14.984331"><ele>819.0</ele><time>2026-04-26T13:15:02.077Z</time></trkpt><trkpt lat="37.9089151" lon="14.9845012"><ele>819.0</ele><time>2026-04-26T13:15:03.065Z</time></trkpt><trkpt lat="37.9088192" lon="14.9846678"><ele>819.0</ele><time>2026-04-26T13:15:04.095Z</time></trkpt><trkpt lat="37.9087318" lon="14.9848233"><ele>819.0</ele><time>2026-04-26T13:15:05.082Z</time></trkpt><trkpt lat="37.9086438" lon="14.9849752"><ele>818.75</ele><time>2026-04-26T13:15:06.07Z</time></trkpt><trkpt lat="37.9085526" lon="14.985123"><ele>818.5</ele><time>2026-04-26T13:15:07.069Z</time></trkpt><trkpt lat="37.9084582" lon="14.9852639"><ele>818.25</ele><time>2026-04-26T13:15:08.067Z</time></trkpt><trkpt lat="37.9083551" lon="14.9854022"><ele>818.0</ele><time>2026-04-26T13:15:09.089Z</time></trkpt><trkpt lat="37.9082458" lon="14.9855328"><ele>818.0</ele><time>2026-04-26T13:15:10.081Z</time></trkpt><trkpt lat="37.9081307" lon="14.9856566"><ele>818.0</ele><time>2026-04-26T13:15:11.067Z</time></trkpt><trkpt lat="37.9080094" lon="14.9857745"><ele>818.0</ele><time>2026-04-26T13:15:12.069Z</time></trkpt><trkpt lat="37.907891" lon="14.9858842"><ele>818.5</ele><time>2026-04-26T13:15:13.084Z</time></trkpt><trkpt lat="37.9077838" lon="14.985986"><ele>819.0</ele><time>2026-04-26T13:15:14.079Z</time></trkpt><trkpt lat="37.9076838" lon="14.986082"><ele>819.5</ele><time>2026-04-26T13:15:15.087Z</time></trkpt><trkpt lat="37.9075897" lon="14.9861716"><ele>820.0</ele><time>2026-04-26T13:15:16.068Z</time></trkpt><trkpt lat="37.9075" lon="14.9862561"><ele>819.9999999999999</ele><time>2026-04-26T13:15:17.069Z</time></trkpt><trkpt lat="37.9074164" lon="14.9863346"><ele>820.0</ele><time>2026-04-26T13:15:18.069Z</time></trkpt><trkpt lat="37.9073411" lon="14.9864105"><ele>820.0</ele><time>2026-04-26T13:15:19.062Z</time></trkpt><trkpt lat="37.9072768" lon="14.9864832"><ele>820.0</ele><time>2026-04-26T13:15:20.06Z</time></trkpt><trkpt lat="37.907228" lon="14.9865613"><ele>819.9999999999999</ele><time>2026-04-26T13:15:21.058Z</time></trkpt><trkpt lat="37.907198" lon="14.9866456"><ele>820.0</ele><time>2026-04-26T13:15:22.068Z</time></trkpt><trkpt lat="37.9071854" lon="14.9867332"><ele>819.2857142857143</ele><time>2026-04-26T13:15:23.087Z</time></trkpt><trkpt lat="37.9071854" lon="14.9868234"><ele>818.5714285714286</ele><time>2026-04-26T13:15:24.097Z</time></trkpt><trkpt lat="37.9071992" lon="14.9869098"><ele>817.8571428571429</ele><time>2026-04-26T13:15:25.077Z</time></trkpt><trkpt lat="37.9072217" lon="14.9869995"><ele>817.1428571428571</ele><time>2026-04-26T13:15:26.081Z</time></trkpt><trkpt lat="37.9072588" lon="14.9870789"><ele>816.4285714285713</ele><time>2026-04-26T13:15:27.084Z</time></trkpt><trkpt lat="37.9073077" lon="14.9871401"><ele>815.7142857142857</ele><time>2026-04-26T13:15:28.096Z</time></trkpt><trkpt lat="37.9073666" lon="14.987187"><ele>815.0</ele><time>2026-04-26T13:15:29.087Z</time></trkpt><trkpt lat="37.9074324" lon="14.9872274"><ele>815.0</ele><time>2026-04-26T13:15:30.079Z</time></trkpt><trkpt lat="37.907506" lon="14.9872657"><ele>815.0</ele><time>2026-04-26T13:15:31.088Z</time></trkpt><trkpt lat="37.9075889" lon="14.9873025"><ele>815.0</ele><time>2026-04-26T13:15:32.08Z</time></trkpt><trkpt lat="37.9076875" lon="14.9873423"><ele>815.0</ele><time>2026-04-26T13:15:33.084Z</time></trkpt><trkpt lat="37.9077982" lon="14.9873886"><ele>815.0</ele><time>2026-04-26T13:15:34.085Z</time></trkpt><trkpt lat="37.907922" lon="14.9874373"><ele>816.25</ele><time>2026-04-26T13:15:35.092Z</time></trkpt><trkpt lat="37.9080501" lon="14.987494"><ele>817.5</ele><time>2026-04-26T13:15:36.088Z</time></trkpt><trkpt lat="37.9081799" lon="14.9875584"><ele>818.75</ele><time>2026-04-26T13:15:37.07Z</time></trkpt><trkpt lat="37.9083127" lon="14.9876382"><ele>820.0</ele><time>2026-04-26T13:15:38.082Z</time></trkpt><trkpt lat="37.9084403" lon="14.987733"><ele>820.5</ele><time>2026-04-26T13:15:39.081Z</time></trkpt><trkpt lat="37.9085629" lon="14.9878392"><ele>821.0</ele><time>2026-04-26T13:15:40.085Z</time></trkpt><trkpt lat="37.9086785" lon="14.9879542"><ele>821.5</ele><time>2026-04-26T13:15:41.088Z</time></trkpt><trkpt lat="37.9087828" lon="14.9880718"><ele>822.0</ele><time>2026-04-26T13:15:42.085Z</time></trkpt><trkpt lat="37.9088728" lon="14.9881894"><ele>822.0</ele><time>2026-04-26T13:15:43.07Z</time></trkpt><trkpt lat="37.9089506" lon="14.9883126"><ele>822.0</ele><time>2026-04-26T13:15:44.068Z</time></trkpt><trkpt lat="37.9090195" lon="14.9884368"><ele>822.0</ele><time>2026-04-26T13:15:45.072Z</time></trkpt><trkpt lat="37.9090855" lon="14.9885638"><ele>822.0</ele><time>2026-04-26T13:15:46.058Z</time></trkpt><trkpt lat="37.909151" lon="14.9887066"><ele>822.5</ele><time>2026-04-26T13:15:47.087Z</time></trkpt><trkpt lat="37.9092104" lon="14.9888522"><ele>823.0</ele><time>2026-04-26T13:15:48.07Z</time></trkpt><trkpt lat="37.9092712" lon="14.9889984"><ele>823.5</ele><time>2026-04-26T13:15:49.066Z</time></trkpt><trkpt lat="37.9093309" lon="14.98914"><ele>824.0</ele><time>2026-04-26T13:15:50.096Z</time></trkpt><trkpt lat="37.9093949" lon="14.989269"><ele>824.0</ele><time>2026-04-26T13:15:51.105Z</time></trkpt><trkpt lat="37.9094563" lon="14.9893897"><ele>824.0</ele><time>2026-04-26T13:15:52.066Z</time></trkpt><trkpt lat="37.9095131" lon="14.9895158"><ele>824.0</ele><time>2026-04-26T13:15:53.108Z</time></trkpt><trkpt lat="37.9095665" lon="14.9896363"><ele>824.0</ele><time>2026-04-26T13:15:54.067Z</time></trkpt><trkpt lat="37.9096197" lon="14.9897566"><ele>824.0</ele><time>2026-04-26T13:15:55.1Z</time></trkpt><trkpt lat="37.9096707" lon="14.9898725"><ele>824.0</ele><time>2026-04-26T13:15:56.1Z</time></trkpt><trkpt lat="37.9097283" lon="14.9899879"><ele>824.0</ele><time>2026-04-26T13:15:57.07Z</time></trkpt><trkpt lat="37.90979" lon="14.9901115"><ele>824.0</ele><time>2026-04-26T13:15:58.101Z</time></trkpt><trkpt lat="37.9098498" lon="14.9902403"><ele>824.0</ele><time>2026-04-26T13:15:59.063Z</time></trkpt><trkpt lat="37.909911" lon="14.9903784"><ele>825.0</ele><time>2026-04-26T13:16:00.074Z</time></trkpt><trkpt lat="37.9099725" lon="14.9905169"><ele>826.0</ele><time>2026-04-26T13:16:01.074Z</time></trkpt><trkpt lat="37.9100271" lon="14.9906545"><ele>827.0</ele><time>2026-04-26T13:16:02.078Z</time></trkpt><trkpt lat="37.9100737" lon="14.9907908"><ele>828.0</ele><time>2026-04-26T13:16:03.087Z</time></trkpt><trkpt lat="37.9101105" lon="14.9909261"><ele>828.0</ele><time>2026-04-26T13:16:04.086Z</time></trkpt><trkpt lat="37.9101349" lon="14.9910631"><ele>828.0</ele><time>2026-04-26T13:16:05.098Z</time></trkpt><trkpt lat="37.9101416" lon="14.9911972"><ele>828.0</ele><time>2026-04-26T13:16:06.084Z</time></trkpt><trkpt lat="37.9101398" lon="14.9913366"><ele>828.0</ele><time>2026-04-26T13:16:07.084Z</time></trkpt><trkpt lat="37.9101353" lon="14.9914823"><ele>828.0</ele><time>2026-04-26T13:16:08.085Z</time></trkpt><trkpt lat="37.91013" lon="14.9916324"><ele>826.0</ele><time>2026-04-26T13:16:09.085Z</time></trkpt><trkpt lat="37.9101225" lon="14.991784"><ele>824.0</ele><time>2026-04-26T13:16:10.079Z</time></trkpt><trkpt lat="37.9101173" lon="14.991932"><ele>822.0</ele><time>2026-04-26T13:16:11.081Z</time></trkpt><trkpt lat="37.9101196" lon="14.992074"><ele>820.0</ele><time>2026-04-26T13:16:12.067Z</time></trkpt><trkpt lat="37.9101289" lon="14.9922132"><ele>820.0</ele><time>2026-04-26T13:16:13.081Z</time></trkpt><trkpt lat="37.9101474" lon="14.9923435"><ele>820.0</ele><time>2026-04-26T13:16:14.071Z</time></trkpt><trkpt lat="37.9101748" lon="14.99247"><ele>820.0</ele><time>2026-04-26T13:16:15.113Z</time></trkpt><trkpt lat="37.9102074" lon="14.9925876"><ele>820.0</ele><time>2026-04-26T13:16:16.07Z</time></trkpt><trkpt lat="37.9102469" lon="14.9927105"><ele>820.0</ele><time>2026-04-26T13:16:17.069Z</time></trkpt><trkpt lat="37.9102909" lon="14.9928345"><ele>818.2</ele><time>2026-04-26T13:16:18.067Z</time></trkpt><trkpt lat="37.9103394" lon="14.9929579"><ele>816.4</ele><time>2026-04-26T13:16:19.087Z</time></trkpt><trkpt lat="37.9103847" lon="14.9930842"><ele>814.5999999999999</ele><time>2026-04-26T13:16:20.071Z</time></trkpt><trkpt lat="37.9104285" lon="14.9932192"><ele>812.8</ele><time>2026-04-26T13:16:21.085Z</time></trkpt><trkpt lat="37.9104715" lon="14.9933545"><ele>811.0</ele><time>2026-04-26T13:16:22.081Z</time></trkpt><trkpt lat="37.9105139" lon="14.9934916"><ele>807.25</ele><time>2026-04-26T13:16:23.09Z</time></trkpt><trkpt lat="37.9105574" lon="14.9936255"><ele>803.5</ele><time>2026-04-26T13:16:24.071Z</time></trkpt><trkpt lat="37.9106031" lon="14.9937595"><ele>799.75</ele><time>2026-04-26T13:16:25.073Z</time></trkpt><trkpt lat="37.9106488" lon="14.9938917"><ele>796.0</ele><time>2026-04-26T13:16:26.082Z</time></trkpt><trkpt lat="37.9106886" lon="14.9940253"><ele>796.0</ele><time>2026-04-26T13:16:27.085Z</time></trkpt><trkpt lat="37.9107217" lon="14.9941652"><ele>796.0</ele><time>2026-04-26T13:16:28.095Z</time></trkpt><trkpt lat="37.910751" lon="14.9943102"><ele>796.0</ele><time>2026-04-26T13:16:29.067Z</time></trkpt><trkpt lat="37.9107776" lon="14.9944601"><ele>796.0</ele><time>2026-04-26T13:16:30.083Z</time></trkpt><trkpt lat="37.9107997" lon="14.9946082"><ele>792.75</ele><time>2026-04-26T13:16:31.077Z</time></trkpt><trkpt lat="37.9108192" lon="14.994756"><ele>789.5</ele><time>2026-04-26T13:16:32.065Z</time></trkpt><trkpt lat="37.9108369" lon="14.9949057"><ele>786.25</ele><time>2026-04-26T13:16:33.069Z</time></trkpt><trkpt lat="37.9108527" lon="14.995057"><ele>783.0</ele><time>2026-04-26T13:16:34.07Z</time></trkpt><trkpt lat="37.9108673" lon="14.9952134"><ele>783.0</ele><time>2026-04-26T13:16:35.087Z</time></trkpt><trkpt lat="37.9108836" lon="14.9953643"><ele>783.0</ele><time>2026-04-26T13:16:36.082Z</time></trkpt><trkpt lat="37.9109013" lon="14.9955108"><ele>783.0</ele><time>2026-04-26T13:16:37.068Z</time></trkpt><trkpt lat="37.9109222" lon="14.9956535"><ele>783.0</ele><time>2026-04-26T13:16:38.082Z</time></trkpt><trkpt lat="37.9109484" lon="14.9957886"><ele>780.5999999999999</ele><time>2026-04-26T13:16:39.068Z</time></trkpt><trkpt lat="37.9109824" lon="14.9959247"><ele>778.1999999999999</ele><time>2026-04-26T13:16:40.098Z</time></trkpt><trkpt lat="37.9110255" lon="14.9960525"><ele>775.8</ele><time>2026-04-26T13:16:41.094Z</time></trkpt><trkpt lat="37.9110778" lon="14.9961705"><ele>773.4</ele><time>2026-04-26T13:16:42.078Z</time></trkpt><trkpt lat="37.9111351" lon="14.9962839"><ele>771.0</ele><time>2026-04-26T13:16:43.084Z</time></trkpt><trkpt lat="37.9111977" lon="14.9963883"><ele>771.0</ele><time>2026-04-26T13:16:44.084Z</time></trkpt><trkpt lat="37.9112672" lon="14.9964899"><ele>771.0</ele><time>2026-04-26T13:16:45.075Z</time></trkpt><trkpt lat="37.9113444" lon="14.9965893"><ele>771.0</ele><time>2026-04-26T13:16:46.073Z</time></trkpt><trkpt lat="37.9114331" lon="14.9966819"><ele>771.0</ele><time>2026-04-26T13:16:47.083Z</time></trkpt><trkpt lat="37.9115284" lon="14.99677"><ele>771.0</ele><time>2026-04-26T13:16:48.079Z</time></trkpt><trkpt lat="37.9116268" lon="14.9968563"><ele>768.25</ele><time>2026-04-26T13:16:49.069Z</time></trkpt><trkpt lat="37.9117262" lon="14.9969447"><ele>765.5</ele><time>2026-04-26T13:16:50.085Z</time></trkpt><trkpt lat="37.9118234" lon="14.9970357"><ele>762.75</ele><time>2026-04-26T13:16:51.081Z</time></trkpt><trkpt lat="37.9119215" lon="14.9971275"><ele>760.0</ele><time>2026-04-26T13:16:52.081Z</time></trkpt><trkpt lat="37.9120204" lon="14.9972181"><ele>760.0</ele><time>2026-04-26T13:16:53.087Z</time></trkpt><trkpt lat="37.9121205" lon="14.9973072"><ele>760.0</ele><time>2026-04-26T13:16:54.087Z</time></trkpt><trkpt lat="37.912221" lon="14.9973979"><ele>760.0</ele><time>2026-04-26T13:16:55.086Z</time></trkpt><trkpt lat="37.9123193" lon="14.997491"><ele>760.0</ele><time>2026-04-26T13:16:56.081Z</time></trkpt><trkpt lat="37.9124176" lon="14.9975856"><ele>759.0</ele><time>2026-04-26T13:16:57.086Z</time></trkpt><trkpt lat="37.9125159" lon="14.9976775"><ele>758.0</ele><time>2026-04-26T13:16:58.064Z</time></trkpt><trkpt lat="37.9126185" lon="14.9977696"><ele>757.0</ele><time>2026-04-26T13:16:59.07Z</time></trkpt><trkpt lat="37.9127213" lon="14.9978602"><ele>756.0</ele><time>2026-04-26T13:17:00.067Z</time></trkpt><trkpt lat="37.9128209" lon="14.9979482"><ele>756.0</ele><time>2026-04-26T13:17:01.068Z</time></trkpt><trkpt lat="37.9129162" lon="14.9980284"><ele>756.0</ele><time>2026-04-26T13:17:02.085Z</time></trkpt><trkpt lat="37.9130063" lon="14.9980969"><ele>756.0</ele><time>2026-04-26T13:17:03.069Z</time></trkpt><trkpt lat="37.9130929" lon="14.9981561"><ele>756.0</ele><time>2026-04-26T13:17:04.086Z</time></trkpt><trkpt lat="37.9131699" lon="14.9981977"><ele>756.0</ele><time>2026-04-26T13:17:05.082Z</time></trkpt><trkpt lat="37.913234" lon="14.9982241"><ele>756.0</ele><time>2026-04-26T13:17:06.088Z</time></trkpt><trkpt lat="37.9133501" lon="14.9982666"><ele>756.0</ele><time>2026-04-26T13:17:08.083Z</time></trkpt><trkpt lat="37.9134135" lon="14.9982833"><ele>756.0</ele><time>2026-04-26T13:17:09.082Z</time></trkpt><trkpt lat="37.9134784" lon="14.9982993"><ele>756.0</ele><time>2026-04-26T13:17:10.084Z</time></trkpt><trkpt lat="37.9135429" lon="14.998314"><ele>756.0</ele><time>2026-04-26T13:17:11.069Z</time></trkpt><trkpt lat="37.9136076" lon="14.9983174"><ele>756.0</ele><time>2026-04-26T13:17:12.083Z</time></trkpt><trkpt lat="37.9136728" lon="14.9983121"><ele>756.0</ele><time>2026-04-26T13:17:13.085Z</time></trkpt><trkpt lat="37.9137407" lon="14.9983062"><ele>754.5714285714286</ele><time>2026-04-26T13:17:14.082Z</time></trkpt><trkpt lat="37.9138083" lon="14.9983012"><ele>753.1428571428571</ele><time>2026-04-26T13:17:15.092Z</time></trkpt><trkpt lat="37.9138732" lon="14.9982931"><ele>751.7142857142858</ele><time>2026-04-26T13:17:16.083Z</time></trkpt><trkpt lat="37.9139378" lon="14.998276"><ele>750.2857142857142</ele><time>2026-04-26T13:17:17.093Z</time></trkpt><trkpt lat="37.9140008" lon="14.9982527"><ele>748.8571428571429</ele><time>2026-04-26T13:17:18.083Z</time></trkpt><trkpt lat="37.9140649" lon="14.9982282"><ele>747.4285714285714</ele><time>2026-04-26T13:17:19.09Z</time></trkpt><trkpt lat="37.9141298" lon="14.9982026"><ele>746.0</ele><time>2026-04-26T13:17:20.085Z</time></trkpt><trkpt lat="37.9141975" lon="14.9981767"><ele>743.8571428571429</ele><time>2026-04-26T13:17:21.085Z</time></trkpt><trkpt lat="37.914265" lon="14.9981495"><ele>741.7142857142858</ele><time>2026-04-26T13:17:22.07Z</time></trkpt><trkpt lat="37.9143337" lon="14.9981201"><ele>739.5714285714286</ele><time>2026-04-26T13:17:23.079Z</time></trkpt><trkpt lat="37.9144037" lon="14.9980882"><ele>737.4285714285714</ele><time>2026-04-26T13:17:24.079Z</time></trkpt><trkpt lat="37.9144756" lon="14.9980567"><ele>735.2857142857142</ele><time>2026-04-26T13:17:25.069Z</time></trkpt><trkpt lat="37.9145501" lon="14.9980285"><ele>733.1428571428571</ele><time>2026-04-26T13:17:26.064Z</time></trkpt><trkpt lat="37.9146245" lon="14.9979993"><ele>731.0</ele><time>2026-04-26T13:17:27.067Z</time></trkpt><trkpt lat="37.9147" lon="14.9979642"><ele>731.0</ele><time>2026-04-26T13:17:28.066Z</time></trkpt><trkpt lat="37.9147769" lon="14.9979257"><ele>731.0</ele><time>2026-04-26T13:17:29.066Z</time></trkpt><trkpt lat="37.9148549" lon="14.9978855"><ele>731.0</ele><time>2026-04-26T13:17:30.065Z</time></trkpt><trkpt lat="37.9149348" lon="14.9978463"><ele>731.0</ele><time>2026-04-26T13:17:31.082Z</time></trkpt><trkpt lat="37.915013" lon="14.997808"><ele>731.0</ele><time>2026-04-26T13:17:32.081Z</time></trkpt><trkpt lat="37.9150925" lon="14.9977742"><ele>731.0</ele><time>2026-04-26T13:17:33.085Z</time></trkpt><trkpt lat="37.9151711" lon="14.9977468"><ele>729.1666666666666</ele><time>2026-04-26T13:17:34.079Z</time></trkpt><trkpt lat="37.9152501" lon="14.9977303"><ele>727.3333333333333</ele><time>2026-04-26T13:17:35.067Z</time></trkpt><trkpt lat="37.9153296" lon="14.9977248"><ele>725.5</ele><time>2026-04-26T13:17:36.08Z</time></trkpt><trkpt lat="37.9154084" lon="14.9977321"><ele>723.6666666666666</ele><time>2026-04-26T13:17:37.065Z</time></trkpt><trkpt lat="37.9154897" lon="14.9977479"><ele>721.8333333333334</ele><time>2026-04-26T13:17:38.06Z</time></trkpt><trkpt lat="37.9155693" lon="14.9977738"><ele>720.0</ele><time>2026-04-26T13:17:39.058Z</time></trkpt><trkpt lat="37.9156486" lon="14.9978064"><ele>720.0</ele><time>2026-04-26T13:17:40.072Z</time></trkpt><trkpt lat="37.9157259" lon="14.9978456"><ele>720.0</ele><time>2026-04-26T13:17:41.075Z</time></trkpt><trkpt lat="37.915804" lon="14.9978881"><ele>720.0</ele><time>2026-04-26T13:17:42.098Z</time></trkpt><trkpt lat="37.9158831" lon="14.9979277"><ele>720.0</ele><time>2026-04-26T13:17:43.087Z</time></trkpt><trkpt lat="37.9159673" lon="14.9979674"><ele>720.0</ele><time>2026-04-26T13:17:44.079Z</time></trkpt><trkpt lat="37.9160543" lon="14.9980071"><ele>720.0</ele><time>2026-04-26T13:17:45.117Z</time></trkpt><trkpt lat="37.9161395" lon="14.9980458"><ele>719.4</ele><time>2026-04-26T13:17:46.078Z</time></trkpt><trkpt lat="37.9162285" lon="14.9980845"><ele>718.8</ele><time>2026-04-26T13:17:47.077Z</time></trkpt><trkpt lat="37.9163172" lon="14.9981195"><ele>718.2</ele><time>2026-04-26T13:17:48.081Z</time></trkpt><trkpt lat="37.916408" lon="14.9981479"><ele>717.6</ele><time>2026-04-26T13:17:49.077Z</time></trkpt><trkpt lat="37.9164999" lon="14.9981714"><ele>717.0</ele><time>2026-04-26T13:17:50.06Z</time></trkpt><trkpt lat="37.9165945" lon="14.9981927"><ele>717.0</ele><time>2026-04-26T13:17:51.059Z</time></trkpt><trkpt lat="37.9166863" lon="14.9982124"><ele>717.0</ele><time>2026-04-26T13:17:52.063Z</time></trkpt><trkpt lat="37.9167784" lon="14.9982306"><ele>717.0</ele><time>2026-04-26T13:17:53.062Z</time></trkpt><trkpt lat="37.9168711" lon="14.9982484"><ele>717.0</ele><time>2026-04-26T13:17:54.064Z</time></trkpt><trkpt lat="37.916966" lon="14.9982675"><ele>717.0</ele><time>2026-04-26T13:17:55.066Z</time></trkpt><trkpt lat="37.9170606" lon="14.998289"><ele>716.0</ele><time>2026-04-26T13:17:56.091Z</time></trkpt><trkpt lat="37.9171524" lon="14.9983172"><ele>715.0</ele><time>2026-04-26T13:17:57.081Z</time></trkpt><trkpt lat="37.917244" lon="14.9983559"><ele>714.0</ele><time>2026-04-26T13:17:58.091Z</time></trkpt><trkpt lat="37.9173347" lon="14.9984011"><ele>713.0</ele><time>2026-04-26T13:17:59.081Z</time></trkpt><trkpt lat="37.9174254" lon="14.998452"><ele>712.0</ele><time>2026-04-26T13:18:00.068Z</time></trkpt><trkpt lat="37.9175125" lon="14.9985112"><ele>712.4000000000001</ele><time>2026-04-26T13:18:01.095Z</time></trkpt><trkpt lat="37.9175932" lon="14.9985772"><ele>712.8000000000001</ele><time>2026-04-26T13:18:02.077Z</time></trkpt><trkpt lat="37.9176675" lon="14.9986502"><ele>713.2</ele><time>2026-04-26T13:18:03.077Z</time></trkpt><trkpt lat="37.9177339" lon="14.9987281"><ele>713.6</ele><time>2026-04-26T13:18:04.082Z</time></trkpt><trkpt lat="37.9177947" lon="14.9988127"><ele>714.0</ele><time>2026-04-26T13:18:05.076Z</time></trkpt><trkpt lat="37.9178524" lon="14.9989069"><ele>714.0</ele><time>2026-04-26T13:18:06.064Z</time></trkpt><trkpt lat="37.9179082" lon="14.999014"><ele>714.0</ele><time>2026-04-26T13:18:07.078Z</time></trkpt><trkpt lat="37.9179633" lon="14.9991315"><ele>714.0</ele><time>2026-04-26T13:18:08.094Z</time></trkpt><trkpt lat="37.9180201" lon="14.9992549"><ele>714.0</ele><time>2026-04-26T13:18:09.077Z</time></trkpt><trkpt lat="37.9180785" lon="14.999384"><ele>714.0</ele><time>2026-04-26T13:18:10.098Z</time></trkpt><trkpt lat="37.918139" lon="14.999517"><ele>712.0</ele><time>2026-04-26T13:18:11.077Z</time></trkpt><trkpt lat="37.9182052" lon="14.9996548"><ele>710.0</ele><time>2026-04-26T13:18:12.065Z</time></trkpt><trkpt lat="37.9182735" lon="14.9997903"><ele>708.0</ele><time>2026-04-26T13:18:13.076Z</time></trkpt><trkpt lat="37.9183355" lon="14.9999154"><ele>706.0</ele><time>2026-04-26T13:18:14.082Z</time></trkpt><trkpt lat="37.9183915" lon="15.0000351"><ele>710.4</ele><time>2026-04-26T13:18:15.084Z</time></trkpt><trkpt lat="37.9184469" lon="15.0001488"><ele>714.8</ele><time>2026-04-26T13:18:16.094Z</time></trkpt><trkpt lat="37.9185029" lon="15.0002576"><ele>719.1999999999999</ele><time>2026-04-26T13:18:17.07Z</time></trkpt><trkpt lat="37.9185602" lon="15.0003712"><ele>723.5999999999999</ele><time>2026-04-26T13:18:18.084Z</time></trkpt><trkpt lat="37.9186171" lon="15.0004863"><ele>728.0</ele><time>2026-04-26T13:18:19.085Z</time></trkpt><trkpt lat="37.9186759" lon="15.0006016"><ele>728.0</ele><time>2026-04-26T13:18:20.07Z</time></trkpt><trkpt lat="37.918736" lon="15.0007181"><ele>728.0</ele><time>2026-04-26T13:18:21.062Z</time></trkpt><trkpt lat="37.9187974" lon="15.0008397"><ele>728.0</ele><time>2026-04-26T13:18:22.098Z</time></trkpt><trkpt lat="37.918858" lon="15.0009617"><ele>728.0</ele><time>2026-04-26T13:18:23.063Z</time></trkpt><trkpt lat="37.9189251" lon="15.0010862"><ele>725.25</ele><time>2026-04-26T13:18:24.101Z</time></trkpt><trkpt lat="37.9189949" lon="15.0012086"><ele>722.5</ele><time>2026-04-26T13:18:25.093Z</time></trkpt><trkpt lat="37.9190685" lon="15.0013342"><ele>719.75</ele><time>2026-04-26T13:18:26.093Z</time></trkpt><trkpt lat="37.9191433" lon="15.0014582"><ele>717.0</ele><time>2026-04-26T13:18:27.065Z</time></trkpt><trkpt lat="37.9192221" lon="15.0015793"><ele>716.0</ele><time>2026-04-26T13:18:28.094Z</time></trkpt><trkpt lat="37.9192991" lon="15.0016971"><ele>715.0</ele><time>2026-04-26T13:18:29.095Z</time></trkpt><trkpt lat="37.9193767" lon="15.0018121"><ele>714.0</ele><time>2026-04-26T13:18:30.093Z</time></trkpt><trkpt lat="37.9194528" lon="15.0019243"><ele>713.0</ele><time>2026-04-26T13:18:31.08Z</time></trkpt><trkpt lat="37.9195278" lon="15.002036"><ele>713.0</ele><time>2026-04-26T13:18:32.085Z</time></trkpt><trkpt lat="37.9196021" lon="15.0021476"><ele>713.0</ele><time>2026-04-26T13:18:33.082Z</time></trkpt><trkpt lat="37.919677" lon="15.0022618"><ele>713.0</ele><time>2026-04-26T13:18:34.078Z</time></trkpt><trkpt lat="37.9197518" lon="15.0023779"><ele>713.0</ele><time>2026-04-26T13:18:35.088Z</time></trkpt><trkpt lat="37.9198255" lon="15.0024911"><ele>710.8</ele><time>2026-04-26T13:18:36.094Z</time></trkpt><trkpt lat="37.9198988" lon="15.0025976"><ele>708.5999999999999</ele><time>2026-04-26T13:18:37.078Z</time></trkpt><trkpt lat="37.9199712" lon="15.0027016"><ele>706.4000000000001</ele><time>2026-04-26T13:18:38.079Z</time></trkpt><trkpt lat="37.920043" lon="15.002804"><ele>704.2</ele><time>2026-04-26T13:18:39.088Z</time></trkpt><trkpt lat="37.9201179" lon="15.0029014"><ele>702.0</ele><time>2026-04-26T13:18:40.077Z</time></trkpt><trkpt lat="37.9201984" lon="15.0029961"><ele>701.5</ele><time>2026-04-26T13:18:41.077Z</time></trkpt><trkpt lat="37.9202838" lon="15.0030862"><ele>701.0</ele><time>2026-04-26T13:18:42.079Z</time></trkpt><trkpt lat="37.9203743" lon="15.0031703"><ele>700.5</ele><time>2026-04-26T13:18:43.079Z</time></trkpt><trkpt lat="37.9204679" lon="15.00325"><ele>700.0</ele><time>2026-04-26T13:18:44.066Z</time></trkpt><trkpt lat="37.9205683" lon="15.0033244"><ele>696.5</ele><time>2026-04-26T13:18:45.084Z</time></trkpt><trkpt lat="37.9206725" lon="15.0033931"><ele>693.0</ele><time>2026-04-26T13:18:46.061Z</time></trkpt><trkpt lat="37.92078" lon="15.0034647"><ele>689.5</ele><time>2026-04-26T13:18:47.064Z</time></trkpt><trkpt lat="37.920889" lon="15.0035376"><ele>686.0</ele><time>2026-04-26T13:18:48.085Z</time></trkpt><trkpt lat="37.9209974" lon="15.0036078"><ele>686.0</ele><time>2026-04-26T13:18:49.067Z</time></trkpt><trkpt lat="37.9211064" lon="15.0036791"><ele>686.0</ele><time>2026-04-26T13:18:50.082Z</time></trkpt><trkpt lat="37.9212141" lon="15.0037472"><ele>686.0</ele><time>2026-04-26T13:18:51.078Z</time></trkpt><trkpt lat="37.9213204" lon="15.0038138"><ele>686.0</ele><time>2026-04-26T13:18:52.07Z</time></trkpt><trkpt lat="37.921424" lon="15.003877"><ele>686.0</ele><time>2026-04-26T13:18:53.083Z</time></trkpt><trkpt lat="37.9215208" lon="15.0039362"><ele>686.0</ele><time>2026-04-26T13:18:54.065Z</time></trkpt><trkpt lat="37.9216129" lon="15.0039928"><ele>686.0</ele><time>2026-04-26T13:18:55.068Z</time></trkpt><trkpt lat="37.9216999" lon="15.004047"><ele>686.0</ele><time>2026-04-26T13:18:56.07Z</time></trkpt><trkpt lat="37.9217842" lon="15.0040992"><ele>686.0</ele><time>2026-04-26T13:18:57.069Z</time></trkpt><trkpt lat="37.9218706" lon="15.0041535"><ele>685.5999999999999</ele><time>2026-04-26T13:18:58.076Z</time></trkpt><trkpt lat="37.921959" lon="15.0042109"><ele>685.2</ele><time>2026-04-26T13:18:59.081Z</time></trkpt><trkpt lat="37.9220496" lon="15.0042708"><ele>684.8</ele><time>2026-04-26T13:19:00.065Z</time></trkpt><trkpt lat="37.9221437" lon="15.0043346"><ele>684.4000000000001</ele><time>2026-04-26T13:19:01.094Z</time></trkpt><trkpt lat="37.9222399" lon="15.0043995"><ele>684.0</ele><time>2026-04-26T13:19:02.067Z</time></trkpt><trkpt lat="37.9223442" lon="15.0044676"><ele>684.0</ele><time>2026-04-26T13:19:03.092Z</time></trkpt><trkpt lat="37.9224501" lon="15.0045374"><ele>684.0</ele><time>2026-04-26T13:19:04.097Z</time></trkpt><trkpt lat="37.9225594" lon="15.0046076"><ele>684.0</ele><time>2026-04-26T13:19:05.097Z</time></trkpt><trkpt lat="37.9226682" lon="15.0046784"><ele>684.0</ele><time>2026-04-26T13:19:06.08Z</time></trkpt><trkpt lat="37.9227707" lon="15.0047499"><ele>683.0</ele><time>2026-04-26T13:19:07.069Z</time></trkpt><trkpt lat="37.922868" lon="15.0048195"><ele>682.0</ele><time>2026-04-26T13:19:08.079Z</time></trkpt><trkpt lat="37.9229633" lon="15.004885"><ele>681.0</ele><time>2026-04-26T13:19:09.078Z</time></trkpt><trkpt lat="37.9230587" lon="15.0049467"><ele>680.0</ele><time>2026-04-26T13:19:10.078Z</time></trkpt><trkpt lat="37.9231546" lon="15.0050081"><ele>679.0</ele><time>2026-04-26T13:19:11.088Z</time></trkpt><trkpt lat="37.9232493" lon="15.0050667"><ele>679.6</ele><time>2026-04-26T13:19:12.077Z</time></trkpt><trkpt lat="37.9233412" lon="15.0051253"><ele>680.2</ele><time>2026-04-26T13:19:13.079Z</time></trkpt><trkpt lat="37.9234295" lon="15.0051825"><ele>680.8000000000001</ele><time>2026-04-26T13:19:14.079Z</time></trkpt><trkpt lat="37.9235179" lon="15.0052386"><ele>681.4000000000001</ele><time>2026-04-26T13:19:15.062Z</time></trkpt><trkpt lat="37.9236097" lon="15.005297"><ele>682.0</ele><time>2026-04-26T13:19:16.052Z</time></trkpt><trkpt lat="37.9237051" lon="15.005358"><ele>682.0</ele><time>2026-04-26T13:19:17.068Z</time></trkpt><trkpt lat="37.9238018" lon="15.0054184"><ele>682.0</ele><time>2026-04-26T13:19:18.094Z</time></trkpt><trkpt lat="37.9238997" lon="15.0054759"><ele>682.0</ele><time>2026-04-26T13:19:19.075Z</time></trkpt><trkpt lat="37.924001" lon="15.0055321"><ele>682.0</ele><time>2026-04-26T13:19:20.095Z</time></trkpt><trkpt lat="37.9240984" lon="15.0055835"><ele>682.0</ele><time>2026-04-26T13:19:21.069Z</time></trkpt><trkpt lat="37.9241952" lon="15.0056274"><ele>682.8</ele><time>2026-04-26T13:19:22.087Z</time></trkpt><trkpt lat="37.9242896" lon="15.0056645"><ele>683.6</ele><time>2026-04-26T13:19:23.083Z</time></trkpt><trkpt lat="37.9243843" lon="15.005698"><ele>684.4</ele><time>2026-04-26T13:19:24.091Z</time></trkpt><trkpt lat="37.924476" lon="15.0057304"><ele>685.1999999999999</ele><time>2026-04-26T13:19:25.067Z</time></trkpt><trkpt lat="37.9245691" lon="15.0057651"><ele>686.0</ele><time>2026-04-26T13:19:26.082Z</time></trkpt><trkpt lat="37.9246639" lon="15.0057998"><ele>683.1999999999999</ele><time>2026-04-26T13:19:27.094Z</time></trkpt><trkpt lat="37.9247599" lon="15.0058356"><ele>680.4</ele><time>2026-04-26T13:19:28.096Z</time></trkpt><trkpt lat="37.9248565" lon="15.0058711"><ele>677.6</ele><time>2026-04-26T13:19:29.083Z</time></trkpt><trkpt lat="37.9249555" lon="15.0059075"><ele>674.8</ele><time>2026-04-26T13:19:30.077Z</time></trkpt><trkpt lat="37.9250552" lon="15.0059413"><ele>672.0</ele><time>2026-04-26T13:19:31.065Z</time></trkpt><trkpt lat="37.9251569" lon="15.0059709"><ele>671.0</ele><time>2026-04-26T13:19:32.07Z</time></trkpt><trkpt lat="37.9252555" lon="15.0060018"><ele>670.0</ele><time>2026-04-26T13:19:33.079Z</time></trkpt><trkpt lat="37.9253475" lon="15.0060345"><ele>669.0</ele><time>2026-04-26T13:19:34.096Z</time></trkpt><trkpt lat="37.9254347" lon="15.0060647"><ele>668.0</ele><time>2026-04-26T13:19:35.082Z</time></trkpt><trkpt lat="37.9255218" lon="15.0060937"><ele>667.0</ele><time>2026-04-26T13:19:36.078Z</time></trkpt><trkpt lat="37.925611" lon="15.0061162"><ele>667.0</ele><time>2026-04-26T13:19:37.077Z</time></trkpt><trkpt lat="37.9257039" lon="15.0061313"><ele>667.0</ele><time>2026-04-26T13:19:38.079Z</time></trkpt><trkpt lat="37.9257997" lon="15.0061394"><ele>667.0</ele><time>2026-04-26T13:19:39.082Z</time></trkpt><trkpt lat="37.9258932" lon="15.0061379"><ele>667.0</ele><time>2026-04-26T13:19:40.089Z</time></trkpt><trkpt lat="37.9259851" lon="15.0061258"><ele>667.0</ele><time>2026-04-26T13:19:41.077Z</time></trkpt><trkpt lat="37.926076" lon="15.0061073"><ele>664.8</ele><time>2026-04-26T13:19:42.08Z</time></trkpt><trkpt lat="37.9261655" lon="15.0060858"><ele>662.6</ele><time>2026-04-26T13:19:43.056Z</time></trkpt><trkpt lat="37.9262578" lon="15.0060668"><ele>660.4</ele><time>2026-04-26T13:19:44.075Z</time></trkpt><trkpt lat="37.9263506" lon="15.00605"><ele>658.1999999999999</ele><time>2026-04-26T13:19:45.059Z</time></trkpt><trkpt lat="37.9264471" lon="15.0060367"><ele>656.0</ele><time>2026-04-26T13:19:46.055Z</time></trkpt><trkpt lat="37.9265433" lon="15.0060292"><ele>656.0</ele><time>2026-04-26T13:19:47.088Z</time></trkpt><trkpt lat="37.926633" lon="15.0060355"><ele>656.0</ele><time>2026-04-26T13:19:48.065Z</time></trkpt><trkpt lat="37.9267203" lon="15.0060546"><ele>656.0</ele><time>2026-04-26T13:19:49.089Z</time></trkpt><trkpt lat="37.9268057" lon="15.0060859"><ele>656.0</ele><time>2026-04-26T13:19:50.077Z</time></trkpt><trkpt lat="37.9268848" lon="15.0061373"><ele>656.0</ele><time>2026-04-26T13:19:51.062Z</time></trkpt><trkpt lat="37.9269587" lon="15.0062042"><ele>656.0</ele><time>2026-04-26T13:19:52.077Z</time></trkpt><trkpt lat="37.9270314" lon="15.0062716"><ele>656.1666666666666</ele><time>2026-04-26T13:19:53.083Z</time></trkpt><trkpt lat="37.9271045" lon="15.0063359"><ele>656.3333333333333</ele><time>2026-04-26T13:19:54.099Z</time></trkpt><trkpt lat="37.927179" lon="15.0063946"><ele>656.5</ele><time>2026-04-26T13:19:55.095Z</time></trkpt><trkpt lat="37.9272557" lon="15.00645"><ele>656.6666666666666</ele><time>2026-04-26T13:19:56.086Z</time></trkpt><trkpt lat="37.9273308" lon="15.0064988"><ele>656.8333333333334</ele><time>2026-04-26T13:19:57.078Z</time></trkpt><trkpt lat="37.9274049" lon="15.0065332"><ele>657.0</ele><time>2026-04-26T13:19:58.079Z</time></trkpt><trkpt lat="37.9274725" lon="15.0065515"><ele>657.0</ele><time>2026-04-26T13:19:59.069Z</time></trkpt><trkpt lat="37.9275406" lon="15.0065566"><ele>657.0</ele><time>2026-04-26T13:20:00.07Z</time></trkpt><trkpt lat="37.9276145" lon="15.006556"><ele>657.0</ele><time>2026-04-26T13:20:01.095Z</time></trkpt><trkpt lat="37.9276862" lon="15.0065399"><ele>657.0</ele><time>2026-04-26T13:20:02.063Z</time></trkpt><trkpt lat="37.9277584" lon="15.0065038"><ele>657.0</ele><time>2026-04-26T13:20:03.07Z</time></trkpt><trkpt lat="37.9278287" lon="15.0064485"><ele>657.0</ele><time>2026-04-26T13:20:04.078Z</time></trkpt><trkpt lat="37.9279035" lon="15.0063842"><ele>654.0</ele><time>2026-04-26T13:20:05.08Z</time></trkpt><trkpt lat="37.9279889" lon="15.0063111"><ele>651.0</ele><time>2026-04-26T13:20:06.049Z</time></trkpt><trkpt lat="37.9280844" lon="15.0062346"><ele>648.0</ele><time>2026-04-26T13:20:07.076Z</time></trkpt><trkpt lat="37.9281769" lon="15.0061729"><ele>645.0</ele><time>2026-04-26T13:20:08.078Z</time></trkpt><trkpt lat="37.9282664" lon="15.0061311"><ele>642.0</ele><time>2026-04-26T13:20:09.069Z</time></trkpt><trkpt lat="37.9283542" lon="15.0061092"><ele>641.2857142857142</ele><time>2026-04-26T13:20:10.076Z</time></trkpt><trkpt lat="37.9284361" lon="15.0060981"><ele>640.5714285714286</ele><time>2026-04-26T13:20:11.076Z</time></trkpt><trkpt lat="37.9285087" lon="15.0060981"><ele>639.8571428571429</ele><time>2026-04-26T13:20:12.082Z</time></trkpt><trkpt lat="37.9285733" lon="15.0061042"><ele>639.1428571428571</ele><time>2026-04-26T13:20:13.075Z</time></trkpt><trkpt lat="37.928638" lon="15.0061168"><ele>638.4285714285714</ele><time>2026-04-26T13:20:14.06Z</time></trkpt><trkpt lat="37.9287011" lon="15.0061365"><ele>637.7142857142857</ele><time>2026-04-26T13:20:15.077Z</time></trkpt><trkpt lat="37.9287602" lon="15.0061695"><ele>637.0</ele><time>2026-04-26T13:20:16.078Z</time></trkpt><trkpt lat="37.9288259" lon="15.0062058"><ele>637.0</ele><time>2026-04-26T13:20:17.091Z</time></trkpt><trkpt lat="37.9288987" lon="15.0062411"><ele>637.0</ele><time>2026-04-26T13:20:18.075Z</time></trkpt><trkpt lat="37.9289753" lon="15.0062743"><ele>637.0</ele><time>2026-04-26T13:20:19.076Z</time></trkpt><trkpt lat="37.9290481" lon="15.0063054"><ele>637.0</ele><time>2026-04-26T13:20:20.066Z</time></trkpt><trkpt lat="37.929111" lon="15.0063312"><ele>637.0</ele><time>2026-04-26T13:20:21.088Z</time></trkpt><trkpt lat="37.9292097" lon="15.0063624"><ele>637.0</ele><time>2026-04-26T13:20:23.091Z</time></trkpt><trkpt lat="37.9293027" lon="15.0063786"><ele>640.2</ele><time>2026-04-26T13:20:25.08Z</time></trkpt><trkpt lat="37.9293936" lon="15.0063689"><ele>643.4000000000001</ele><time>2026-04-26T13:20:27.057Z</time></trkpt><trkpt lat="37.92949" lon="15.0063225"><ele>646.5999999999999</ele><time>2026-04-26T13:20:29.096Z</time></trkpt><trkpt lat="37.9295903" lon="15.0062369"><ele>649.8</ele><time>2026-04-26T13:20:31.081Z</time></trkpt><trkpt lat="37.9296333" lon="15.0061731"><ele>653.0</ele><time>2026-04-26T13:20:32.08Z</time></trkpt><trkpt lat="37.9296818" lon="15.0060966"><ele>653.0</ele><time>2026-04-26T13:20:33.059Z</time></trkpt><trkpt lat="37.9297345" lon="15.0060024"><ele>653.0</ele><time>2026-04-26T13:20:34.08Z</time></trkpt><trkpt lat="37.9297913" lon="15.0058942"><ele>653.0</ele><time>2026-04-26T13:20:35.066Z</time></trkpt><trkpt lat="37.9298538" lon="15.0057722"><ele>653.0</ele><time>2026-04-26T13:20:36.078Z</time></trkpt><trkpt lat="37.9299127" lon="15.0056473"><ele>653.0</ele><time>2026-04-26T13:20:37.082Z</time></trkpt><trkpt lat="37.9299641" lon="15.0055328"><ele>653.1666666666666</ele><time>2026-04-26T13:20:38.096Z</time></trkpt><trkpt lat="37.9300082" lon="15.0054217"><ele>653.3333333333333</ele><time>2026-04-26T13:20:39.092Z</time></trkpt><trkpt lat="37.9300486" lon="15.005314"><ele>653.5</ele><time>2026-04-26T13:20:40.068Z</time></trkpt><trkpt lat="37.9300913" lon="15.0052168"><ele>653.6666666666666</ele><time>2026-04-26T13:20:41.062Z</time></trkpt><trkpt lat="37.9301397" lon="15.0051392"><ele>653.8333333333334</ele><time>2026-04-26T13:20:42.088Z</time></trkpt><trkpt lat="37.9301968" lon="15.0050849"><ele>654.0</ele><time>2026-04-26T13:20:43.096Z</time></trkpt><trkpt lat="37.930261" lon="15.0050518"><ele>654.0</ele><time>2026-04-26T13:20:44.079Z</time></trkpt><trkpt lat="37.9303282" lon="15.0050399"><ele>654.0</ele><time>2026-04-26T13:20:45.076Z</time></trkpt><trkpt lat="37.9304403" lon="15.0050941"><ele>654.0</ele><time>2026-04-26T13:20:47.078Z</time></trkpt><trkpt lat="37.9304855" lon="15.0051541"><ele>654.0</ele><time>2026-04-26T13:20:48.096Z</time></trkpt><trkpt lat="37.9305113" lon="15.0052304"><ele>654.0</ele><time>2026-04-26T13:20:49.063Z</time></trkpt><trkpt lat="37.9305206" lon="15.0053164"><ele>654.0</ele><time>2026-04-26T13:20:50.058Z</time></trkpt><trkpt lat="37.9305128" lon="15.005409"><ele>654.0</ele><time>2026-04-26T13:20:51.094Z</time></trkpt><trkpt lat="37.9304896" lon="15.0054874"><ele>654.0</ele><time>2026-04-26T13:20:52.095Z</time></trkpt><trkpt lat="37.930448" lon="15.0055483"><ele>654.0</ele><time>2026-04-26T13:20:53.079Z</time></trkpt><trkpt lat="37.9303961" lon="15.0056109"><ele>654.0</ele><time>2026-04-26T13:20:54.084Z</time></trkpt><trkpt lat="37.9303348" lon="15.0056831"><ele>654.0</ele><time>2026-04-26T13:20:55.067Z</time></trkpt><trkpt lat="37.9302719" lon="15.0057678"><ele>654.0</ele><time>2026-04-26T13:20:56.079Z</time></trkpt><trkpt lat="37.9302092" lon="15.0058718"><ele>653.75</ele><time>2026-04-26T13:20:57.088Z</time></trkpt><trkpt lat="37.9301492" lon="15.0059957"><ele>653.5</ele><time>2026-04-26T13:20:58.078Z</time></trkpt><trkpt lat="37.9300876" lon="15.006139"><ele>653.25</ele><time>2026-04-26T13:20:59.071Z</time></trkpt><trkpt lat="37.9300336" lon="15.0062831"><ele>653.0</ele><time>2026-04-26T13:21:00.074Z</time></trkpt><trkpt lat="37.9299868" lon="15.006418"><ele>653.0</ele><time>2026-04-26T13:21:01.061Z</time></trkpt><trkpt lat="37.9299378" lon="15.0065471"><ele>653.0</ele><time>2026-04-26T13:21:02.067Z</time></trkpt><trkpt lat="37.9298907" lon="15.0066657"><ele>653.0</ele><time>2026-04-26T13:21:03.078Z</time></trkpt><trkpt lat="37.9298494" lon="15.0067758"><ele>653.0</ele><time>2026-04-26T13:21:04.063Z</time></trkpt><trkpt lat="37.9298156" lon="15.0068848"><ele>653.0</ele><time>2026-04-26T13:21:05.096Z</time></trkpt><trkpt lat="37.9297891" lon="15.0069954"><ele>656.5999999999999</ele><time>2026-04-26T13:21:06.06Z</time></trkpt><trkpt lat="37.9297666" lon="15.0071152"><ele>660.1999999999999</ele><time>2026-04-26T13:21:07.082Z</time></trkpt><trkpt lat="37.929749" lon="15.0072379"><ele>663.8</ele><time>2026-04-26T13:21:08.076Z</time></trkpt><trkpt lat="37.9297352" lon="15.0073681"><ele>667.4</ele><time>2026-04-26T13:21:09.075Z</time></trkpt><trkpt lat="37.9297218" lon="15.0075009"><ele>671.0</ele><time>2026-04-26T13:21:10.075Z</time></trkpt><trkpt lat="37.9297176" lon="15.0076341"><ele>673.8</ele><time>2026-04-26T13:21:11.062Z</time></trkpt><trkpt lat="37.9297236" lon="15.0077659"><ele>676.5999999999999</ele><time>2026-04-26T13:21:12.078Z</time></trkpt><trkpt lat="37.92974" lon="15.0078952"><ele>679.4</ele><time>2026-04-26T13:21:13.064Z</time></trkpt><trkpt lat="37.9297646" lon="15.0080309"><ele>682.2</ele><time>2026-04-26T13:21:14.093Z</time></trkpt><trkpt lat="37.929791" lon="15.0081691"><ele>685.0</ele><time>2026-04-26T13:21:15.08Z</time></trkpt><trkpt lat="37.9298178" lon="15.008316"><ele>685.75</ele><time>2026-04-26T13:21:16.077Z</time></trkpt><trkpt lat="37.9298445" lon="15.0084664"><ele>686.5</ele><time>2026-04-26T13:21:17.095Z</time></trkpt><trkpt lat="37.9298711" lon="15.0086186"><ele>687.25</ele><time>2026-04-26T13:21:18.077Z</time></trkpt><trkpt lat="37.9299063" lon="15.0087686"><ele>688.0</ele><time>2026-04-26T13:21:19.055Z</time></trkpt><trkpt lat="37.9299485" lon="15.0089175"><ele>688.0</ele><time>2026-04-26T13:21:20.095Z</time></trkpt><trkpt lat="37.9299871" lon="15.0090586"><ele>688.0</ele><time>2026-04-26T13:21:21.084Z</time></trkpt><trkpt lat="37.9300254" lon="15.0091934"><ele>688.0</ele><time>2026-04-26T13:21:22.066Z</time></trkpt><trkpt lat="37.9300625" lon="15.0093188"><ele>688.0</ele><time>2026-04-26T13:21:23.089Z</time></trkpt><trkpt lat="37.9301013" lon="15.0094283"><ele>688.0</ele><time>2026-04-26T13:21:24.078Z</time></trkpt><trkpt lat="37.9301441" lon="15.0095295"><ele>691.2</ele><time>2026-04-26T13:21:25.089Z</time></trkpt><trkpt lat="37.9301949" lon="15.0096259"><ele>694.4</ele><time>2026-04-26T13:21:26.07Z</time></trkpt><trkpt lat="37.9302532" lon="15.0097222"><ele>697.6</ele><time>2026-04-26T13:21:27.078Z</time></trkpt><trkpt lat="37.9303183" lon="15.0098192"><ele>700.8000000000001</ele><time>2026-04-26T13:21:28.092Z</time></trkpt><trkpt lat="37.9303918" lon="15.0099156"><ele>704.0</ele><time>2026-04-26T13:21:29.066Z</time></trkpt><trkpt lat="37.9304786" lon="15.0100119"><ele>704.0</ele><time>2026-04-26T13:21:30.078Z</time></trkpt><trkpt lat="37.9305686" lon="15.0101048"><ele>704.0</ele><time>2026-04-26T13:21:31.077Z</time></trkpt><trkpt lat="37.9306612" lon="15.0101964"><ele>704.0</ele><time>2026-04-26T13:21:32.078Z</time></trkpt><trkpt lat="37.9307557" lon="15.0102894"><ele>704.0</ele><time>2026-04-26T13:21:33.076Z</time></trkpt><trkpt lat="37.9308498" lon="15.0103858"><ele>709.4000000000001</ele><time>2026-04-26T13:21:34.064Z</time></trkpt><trkpt lat="37.930941" lon="15.010483"><ele>714.8</ele><time>2026-04-26T13:21:35.079Z</time></trkpt><trkpt lat="37.9310232" lon="15.0105727"><ele>720.2</ele><time>2026-04-26T13:21:36.092Z</time></trkpt><trkpt lat="37.9310972" lon="15.0106563"><ele>725.5999999999999</ele><time>2026-04-26T13:21:37.077Z</time></trkpt><trkpt lat="37.9311723" lon="15.0107349"><ele>731.0</ele><time>2026-04-26T13:21:38.076Z</time></trkpt><trkpt lat="37.9312448" lon="15.0108132"><ele>728.0</ele><time>2026-04-26T13:21:39.091Z</time></trkpt><trkpt lat="37.9313146" lon="15.0108909"><ele>725.0</ele><time>2026-04-26T13:21:40.075Z</time></trkpt><trkpt lat="37.93138" lon="15.0109707"><ele>722.0</ele><time>2026-04-26T13:21:41.077Z</time></trkpt><trkpt lat="37.9314361" lon="15.0110412"><ele>719.0</ele><time>2026-04-26T13:21:42.066Z</time></trkpt><trkpt lat="37.9314836" lon="15.0111063"><ele>716.0</ele><time>2026-04-26T13:21:43.097Z</time></trkpt><trkpt lat="37.9315274" lon="15.0111744"><ele>713.0</ele><time>2026-04-26T13:21:44.082Z</time></trkpt><trkpt lat="37.9315741" lon="15.0112472"><ele>713.0</ele><time>2026-04-26T13:21:45.092Z</time></trkpt><trkpt lat="37.9316251" lon="15.0113258"><ele>713.0</ele><time>2026-04-26T13:21:46.047Z</time></trkpt><trkpt lat="37.9316837" lon="15.0114154"><ele>713.0</ele><time>2026-04-26T13:21:47.077Z</time></trkpt><trkpt lat="37.9317354" lon="15.0115164"><ele>713.0</ele><time>2026-04-26T13:21:48.099Z</time></trkpt><trkpt lat="37.9317818" lon="15.0116251"><ele>713.0</ele><time>2026-04-26T13:21:49.097Z</time></trkpt><trkpt lat="37.9318177" lon="15.0117419"><ele>718.8</ele><time>2026-04-26T13:21:50.093Z</time></trkpt><trkpt lat="37.9318377" lon="15.0118657"><ele>724.5999999999999</ele><time>2026-04-26T13:21:51.082Z</time></trkpt><trkpt lat="37.9318501" lon="15.0119876"><ele>730.4000000000001</ele><time>2026-04-26T13:21:52.078Z</time></trkpt><trkpt lat="37.9318584" lon="15.0121045"><ele>736.2</ele><time>2026-04-26T13:21:53.076Z</time></trkpt><trkpt lat="37.9318643" lon="15.0122193"><ele>742.0</ele><time>2026-04-26T13:21:54.08Z</time></trkpt><trkpt lat="37.9318701" lon="15.0123305"><ele>742.0</ele><time>2026-04-26T13:21:55.084Z</time></trkpt><trkpt lat="37.931878" lon="15.0124399"><ele>742.0</ele><time>2026-04-26T13:21:56.09Z</time></trkpt><trkpt lat="37.9318894" lon="15.0125487"><ele>742.0</ele><time>2026-04-26T13:21:57.076Z</time></trkpt><trkpt lat="37.9319012" lon="15.0126596"><ele>742.0</ele><time>2026-04-26T13:21:58.078Z</time></trkpt><trkpt lat="37.9319139" lon="15.0127653"><ele>742.0</ele><time>2026-04-26T13:21:59.083Z</time></trkpt><trkpt lat="37.931924" lon="15.0128649"><ele>742.0</ele><time>2026-04-26T13:22:00.077Z</time></trkpt><trkpt lat="37.9319264" lon="15.012955"><ele>741.4000000000001</ele><time>2026-04-26T13:22:01.063Z</time></trkpt><trkpt lat="37.931932" lon="15.0130409"><ele>740.8000000000001</ele><time>2026-04-26T13:22:02.076Z</time></trkpt><trkpt lat="37.9319464" lon="15.0131204"><ele>740.2</ele><time>2026-04-26T13:22:03.076Z</time></trkpt><trkpt lat="37.9320236" lon="15.0132201"><ele>739.6</ele><time>2026-04-26T13:22:05.056Z</time></trkpt><trkpt lat="37.9321447" lon="15.0132306"><ele>739.0</ele><time>2026-04-26T13:22:07.08Z</time></trkpt><trkpt lat="37.9322384" lon="15.0131418"><ele>739.0</ele><time>2026-04-26T13:22:09.07Z</time></trkpt><trkpt lat="37.9322712" lon="15.0130648"><ele>739.0</ele><time>2026-04-26T13:22:10.09Z</time></trkpt><trkpt lat="37.932304" lon="15.012969"><ele>739.0</ele><time>2026-04-26T13:22:11.078Z</time></trkpt><trkpt lat="37.9323273" lon="15.0128555"><ele>739.0</ele><time>2026-04-26T13:22:12.081Z</time></trkpt><trkpt lat="37.9323408" lon="15.0127262"><ele>739.0</ele><time>2026-04-26T13:22:13.067Z</time></trkpt><trkpt lat="37.932355" lon="15.0125848"><ele>739.75</ele><time>2026-04-26T13:22:14.094Z</time></trkpt><trkpt lat="37.9323782" lon="15.0124341"><ele>740.5</ele><time>2026-04-26T13:22:15.069Z</time></trkpt><trkpt lat="37.9324051" lon="15.012267"><ele>741.25</ele><time>2026-04-26T13:22:16.058Z</time></trkpt><trkpt lat="37.932433" lon="15.012101"><ele>742.0</ele><time>2026-04-26T13:22:17.066Z</time></trkpt><trkpt lat="37.9324628" lon="15.0119468"><ele>742.0</ele><time>2026-04-26T13:22:18.077Z</time></trkpt><trkpt lat="37.9324936" lon="15.0118062"><ele>742.0</ele><time>2026-04-26T13:22:19.069Z</time></trkpt><trkpt lat="37.9325263" lon="15.0116739"><ele>742.0</ele><time>2026-04-26T13:22:20.065Z</time></trkpt><trkpt lat="37.9325644" lon="15.0115526"><ele>742.0</ele><time>2026-04-26T13:22:21.088Z</time></trkpt><trkpt lat="37.9326077" lon="15.0114384"><ele>742.0</ele><time>2026-04-26T13:22:22.082Z</time></trkpt><trkpt lat="37.9326512" lon="15.0113218"><ele>748.0</ele><time>2026-04-26T13:22:23.076Z</time></trkpt><trkpt lat="37.9326837" lon="15.011202"><ele>754.0</ele><time>2026-04-26T13:22:24.097Z</time></trkpt><trkpt lat="37.9327105" lon="15.0110954"><ele>760.0</ele><time>2026-04-26T13:22:25.066Z</time></trkpt><trkpt lat="37.9327331" lon="15.0110112"><ele>766.0</ele><time>2026-04-26T13:22:26.067Z</time></trkpt><trkpt lat="37.9327611" lon="15.0108942"><ele>771.9999999999999</ele><time>2026-04-26T13:22:28.093Z</time></trkpt><trkpt lat="37.9327776" lon="15.0107838"><ele>778.0</ele><time>2026-04-26T13:22:31.08Z</time></trkpt><trkpt lat="37.9328441" lon="15.0107874"><ele>777.9999999999999</ele><time>2026-04-26T13:22:34.079Z</time></trkpt><trkpt lat="37.9328811" lon="15.0108645"><ele>778.0</ele><time>2026-04-26T13:22:36.066Z</time></trkpt><trkpt lat="37.9328786" lon="15.0109896"><ele>778.0</ele><time>2026-04-26T13:22:38.064Z</time></trkpt><trkpt lat="37.9328636" lon="15.0110786"><ele>778.0</ele><time>2026-04-26T13:22:39.079Z</time></trkpt><trkpt lat="37.932852" lon="15.0111801"><ele>777.9999999999999</ele><time>2026-04-26T13:22:40.061Z</time></trkpt><trkpt lat="37.9328433" lon="15.0112732"><ele>778.0</ele><time>2026-04-26T13:22:41.065Z</time></trkpt><trkpt lat="37.932866" lon="15.0113901"><ele>777.9999999999999</ele><time>2026-04-26T13:22:43.092Z</time></trkpt><trkpt lat="37.9329473" lon="15.0114129"><ele>778.0</ele><time>2026-04-26T13:22:45.069Z</time></trkpt><trkpt lat="37.9330297" lon="15.0113583"><ele>778.0</ele><time>2026-04-26T13:22:47.066Z</time></trkpt><trkpt lat="37.9330576" lon="15.0112262"><ele>778.0</ele><time>2026-04-26T13:22:49.067Z</time></trkpt><trkpt lat="37.9330408" lon="15.0111335"><ele>777.9999999999999</ele><time>2026-04-26T13:22:50.085Z</time></trkpt><trkpt lat="37.9330159" lon="15.0110455"><ele>778.0</ele><time>2026-04-26T13:22:51.065Z</time></trkpt><trkpt lat="37.9330164" lon="15.0109169"><ele>777.9999999999999</ele><time>2026-04-26T13:22:53.082Z</time></trkpt><trkpt lat="37.9330844" lon="15.0108898"><ele>778.0</ele><time>2026-04-26T13:22:55.064Z</time></trkpt><trkpt lat="37.9331418" lon="15.0109653"><ele>778.0</ele><time>2026-04-26T13:22:57.078Z</time></trkpt><trkpt lat="37.9331656" lon="15.0111238"><ele>778.0</ele><time>2026-04-26T13:22:59.079Z</time></trkpt><trkpt lat="37.9331747" lon="15.0112292"><ele>777.9999999999999</ele><time>2026-04-26T13:23:00.067Z</time></trkpt><trkpt lat="37.9331933" lon="15.0113277"><ele>778.0</ele><time>2026-04-26T13:23:01.08Z</time></trkpt><trkpt lat="37.9332117" lon="15.0114063"><ele>778.0</ele><time>2026-04-26T13:23:02.094Z</time></trkpt><trkpt lat="37.9332423" lon="15.0115263"><ele>778.0</ele><time>2026-04-26T13:23:04.078Z</time></trkpt><trkpt lat="37.933223" lon="15.0116597"><ele>778.0</ele><time>2026-04-26T13:23:06.058Z</time></trkpt><trkpt lat="37.9332018" lon="15.0117373"><ele>778.0</ele><time>2026-04-26T13:23:07.068Z</time></trkpt><trkpt lat="37.9331643" lon="15.0118845"><ele>778.0</ele><time>2026-04-26T13:23:09.077Z</time></trkpt><trkpt lat="37.9331425" lon="15.0120335"><ele>777.75</ele><time>2026-04-26T13:23:11.075Z</time></trkpt><trkpt lat="37.9331482" lon="15.0121872"><ele>777.5</ele><time>2026-04-26T13:23:13.063Z</time></trkpt><trkpt lat="37.9331765" lon="15.0123354"><ele>777.25</ele><time>2026-04-26T13:23:15.09Z</time></trkpt><trkpt lat="37.9332051" lon="15.0124787"><ele>777.0</ele><time>2026-04-26T13:23:17.071Z</time></trkpt><trkpt lat="37.9332406" lon="15.0126165"><ele>777.0</ele><time>2026-04-26T13:23:19.072Z</time></trkpt><trkpt lat="37.9332799" lon="15.0127415"><ele>777.0</ele><time>2026-04-26T13:23:21.092Z</time></trkpt><trkpt lat="37.9332945" lon="15.012833"><ele>777.0</ele><time>2026-04-26T13:23:23.086Z</time></trkpt><trkpt lat="37.9333132" lon="15.0129123"><ele>777.0</ele><time>2026-04-26T13:23:26.087Z</time></trkpt><trkpt lat="37.9333544" lon="15.0130334"><ele>777.0</ele><time>2026-04-26T13:24:41.08Z</time></trkpt><trkpt lat="37.9333863" lon="15.013137"><ele>777.0</ele><time>2026-04-26T13:24:43.081Z</time></trkpt><trkpt lat="37.9334253" lon="15.0132488"><ele>774.2</ele><time>2026-04-26T13:24:45.107Z</time></trkpt><trkpt lat="37.9334553" lon="15.013373"><ele>771.4000000000001</ele><time>2026-04-26T13:24:47.081Z</time></trkpt><trkpt lat="37.9334565" lon="15.013512"><ele>768.5999999999999</ele><time>2026-04-26T13:24:49.085Z</time></trkpt><trkpt lat="37.9334215" lon="15.0136447"><ele>765.8</ele><time>2026-04-26T13:24:51.085Z</time></trkpt><trkpt lat="37.9333644" lon="15.0137788"><ele>763.0</ele><time>2026-04-26T13:24:53.062Z</time></trkpt><trkpt lat="37.9333315" lon="15.0138533"><ele>763.0</ele><time>2026-04-26T13:24:54.059Z</time></trkpt><trkpt lat="37.9332985" lon="15.013935"><ele>763.0</ele><time>2026-04-26T13:24:55.074Z</time></trkpt><trkpt lat="37.9332705" lon="15.0140227"><ele>763.0</ele><time>2026-04-26T13:24:56.077Z</time></trkpt><trkpt lat="37.9332473" lon="15.0141088"><ele>763.0</ele><time>2026-04-26T13:24:57.091Z</time></trkpt><trkpt lat="37.9332292" lon="15.0141887"><ele>763.0</ele><time>2026-04-26T13:24:58.08Z</time></trkpt><trkpt lat="37.9332098" lon="15.0143428"><ele>763.0</ele><time>2026-04-26T13:25:00.078Z</time></trkpt><trkpt lat="37.9332017" lon="15.0144888"><ele>763.6666666666667</ele><time>2026-04-26T13:25:02.08Z</time></trkpt><trkpt lat="37.9331573" lon="15.0146493"><ele>764.3333333333334</ele><time>2026-04-26T13:25:04.057Z</time></trkpt><trkpt lat="37.933123" lon="15.0147451"><ele>765.0</ele><time>2026-04-26T13:25:05.092Z</time></trkpt><trkpt lat="37.9330873" lon="15.0148465"><ele>765.6666666666666</ele><time>2026-04-26T13:25:06.094Z</time></trkpt><trkpt lat="37.9330611" lon="15.0149374"><ele>766.3333333333333</ele><time>2026-04-26T13:25:07.077Z</time></trkpt><trkpt lat="37.9330424" lon="15.0150191"><ele>767.0</ele><time>2026-04-26T13:25:08.095Z</time></trkpt><trkpt lat="37.9330227" lon="15.0151717"><ele>767.0</ele><time>2026-04-26T13:25:10.081Z</time></trkpt><trkpt lat="37.9330294" lon="15.0153019"><ele>767.0</ele><time>2026-04-26T13:25:12.082Z</time></trkpt><trkpt lat="37.9330656" lon="15.0154208"><ele>767.0</ele><time>2026-04-26T13:25:14.056Z</time></trkpt><trkpt lat="37.9331418" lon="15.0155168"><ele>767.0</ele><time>2026-04-26T13:25:16.091Z</time></trkpt><trkpt lat="37.9332323" lon="15.0156151"><ele>767.0</ele><time>2026-04-26T13:25:18.082Z</time></trkpt><trkpt lat="37.9332793" lon="15.0156749"><ele>767.0</ele><time>2026-04-26T13:25:19.096Z</time></trkpt><trkpt lat="37.9333216" lon="15.0157992"><ele>767.0</ele><time>2026-04-26T13:25:21.082Z</time></trkpt><trkpt lat="37.9332987" lon="15.0159167"><ele>767.0</ele><time>2026-04-26T13:25:23.078Z</time></trkpt><trkpt lat="37.9332357" lon="15.0160335"><ele>767.0</ele><time>2026-04-26T13:25:25.077Z</time></trkpt><trkpt lat="37.9331514" lon="15.0161278"><ele>767.0</ele><time>2026-04-26T13:25:27.063Z</time></trkpt><trkpt lat="37.9330479" lon="15.0161483"><ele>766.0</ele><time>2026-04-26T13:25:29.081Z</time></trkpt><trkpt lat="37.9329831" lon="15.0161428"><ele>765.0</ele><time>2026-04-26T13:25:30.077Z</time></trkpt><trkpt lat="37.9329116" lon="15.016127"><ele>764.0</ele><time>2026-04-26T13:25:31.081Z</time></trkpt><trkpt lat="37.9328416" lon="15.0160964"><ele>763.0</ele><time>2026-04-26T13:25:32.084Z</time></trkpt><trkpt lat="37.9327703" lon="15.016059"><ele>762.0</ele><time>2026-04-26T13:25:33.079Z</time></trkpt><trkpt lat="37.9326935" lon="15.0160109"><ele>761.0</ele><time>2026-04-26T13:25:34.083Z</time></trkpt><trkpt lat="37.9326089" lon="15.0159612"><ele>761.0</ele><time>2026-04-26T13:25:35.081Z</time></trkpt><trkpt lat="37.9325348" lon="15.0159163"><ele>761.0</ele><time>2026-04-26T13:25:36.094Z</time></trkpt><trkpt lat="37.9324351" lon="15.0158527"><ele>761.0</ele><time>2026-04-26T13:25:38.08Z</time></trkpt><trkpt lat="37.9323789" lon="15.0158157"><ele>761.0</ele><time>2026-04-26T13:25:40.082Z</time></trkpt><trkpt lat="37.9324065" lon="15.0158891"><ele>761.0</ele><time>2026-04-26T13:26:13.066Z</time></trkpt><trkpt lat="37.9325257" lon="15.0159321"><ele>761.0</ele><time>2026-04-26T13:26:15.08Z</time></trkpt><trkpt lat="37.93259" lon="15.0159647"><ele>760.9999999999999</ele><time>2026-04-26T13:26:16.08Z</time></trkpt><trkpt lat="37.9326506" lon="15.0159991"><ele>761.0</ele><time>2026-04-26T13:26:17.079Z</time></trkpt><trkpt lat="37.9327105" lon="15.0160377"><ele>761.0</ele><time>2026-04-26T13:26:18.061Z</time></trkpt><trkpt lat="37.9327756" lon="15.0160733"><ele>761.0</ele><time>2026-04-26T13:26:19.066Z</time></trkpt><trkpt lat="37.9328386" lon="15.0161015"><ele>761.0</ele><time>2026-04-26T13:26:20.06Z</time></trkpt><trkpt lat="37.9329032" lon="15.0161224"><ele>760.9999999999999</ele><time>2026-04-26T13:26:21.086Z</time></trkpt><trkpt lat="37.9329677" lon="15.0161411"><ele>761.0</ele><time>2026-04-26T13:26:22.079Z</time></trkpt><trkpt lat="37.9330318" lon="15.0161569"><ele>761.0</ele><time>2026-04-26T13:26:23.079Z</time></trkpt><trkpt lat="37.933095" lon="15.0161624"><ele>761.0</ele><time>2026-04-26T13:26:24.089Z</time></trkpt><trkpt lat="37.9331969" lon="15.0161071"><ele>761.0</ele><time>2026-04-26T13:26:26.081Z</time></trkpt><trkpt lat="37.9332705" lon="15.0159912"><ele>761.0</ele><time>2026-04-26T13:26:28.095Z</time></trkpt><trkpt lat="37.9333099" lon="15.0159286"><ele>761.0</ele><time>2026-04-26T13:26:29.066Z</time></trkpt><trkpt lat="37.9333467" lon="15.0158104"><ele>762.0</ele><time>2026-04-26T13:26:31.08Z</time></trkpt><trkpt lat="37.9333094" lon="15.0156933"><ele>763.0</ele><time>2026-04-26T13:26:33.081Z</time></trkpt><trkpt lat="37.9332593" lon="15.0156326"><ele>764.0</ele><time>2026-04-26T13:26:34.081Z</time></trkpt><trkpt lat="37.9331915" lon="15.0155715"><ele>765.0</ele><time>2026-04-26T13:26:35.077Z</time></trkpt><trkpt lat="37.9331316" lon="15.0155061"><ele>766.0</ele><time>2026-04-26T13:26:36.08Z</time></trkpt><trkpt lat="37.933085" lon="15.0154378"><ele>767.0</ele><time>2026-04-26T13:26:37.08Z</time></trkpt><trkpt lat="37.9330517" lon="15.0153633"><ele>767.0</ele><time>2026-04-26T13:26:38.094Z</time></trkpt><trkpt lat="37.933041" lon="15.0152751"><ele>767.0</ele><time>2026-04-26T13:26:39.069Z</time></trkpt><trkpt lat="37.933042" lon="15.0151824"><ele>767.0</ele><time>2026-04-26T13:26:40.065Z</time></trkpt><trkpt lat="37.9330486" lon="15.0151001"><ele>767.0</ele><time>2026-04-26T13:26:41.09Z</time></trkpt><trkpt lat="37.9330639" lon="15.0150146"><ele>767.0</ele><time>2026-04-26T13:26:42.064Z</time></trkpt><trkpt lat="37.9330914" lon="15.0149263"><ele>767.0</ele><time>2026-04-26T13:26:43.081Z</time></trkpt><trkpt lat="37.9331199" lon="15.0148333"><ele>767.0</ele><time>2026-04-26T13:26:44.073Z</time></trkpt><trkpt lat="37.9331475" lon="15.0147341"><ele>767.6666666666666</ele><time>2026-04-26T13:26:45.072Z</time></trkpt><trkpt lat="37.9331769" lon="15.0146333"><ele>768.3333333333333</ele><time>2026-04-26T13:26:46.093Z</time></trkpt><trkpt lat="37.9331988" lon="15.0145406"><ele>769.0</ele><time>2026-04-26T13:26:47.077Z</time></trkpt><trkpt lat="37.9332069" lon="15.0144496"><ele>769.6666666666666</ele><time>2026-04-26T13:26:48.063Z</time></trkpt><trkpt lat="37.9332148" lon="15.0143568"><ele>770.3333333333334</ele><time>2026-04-26T13:26:49.08Z</time></trkpt><trkpt lat="37.9332266" lon="15.0142668"><ele>771.0</ele><time>2026-04-26T13:26:50.067Z</time></trkpt><trkpt lat="37.9332405" lon="15.0141784"><ele>769.4</ele><time>2026-04-26T13:26:51.074Z</time></trkpt><trkpt lat="37.9332627" lon="15.0140934"><ele>767.8</ele><time>2026-04-26T13:26:52.087Z</time></trkpt><trkpt lat="37.933295" lon="15.014011"><ele>766.1999999999999</ele><time>2026-04-26T13:26:53.09Z</time></trkpt><trkpt lat="37.9333429" lon="15.0138797"><ele>764.5999999999999</ele><time>2026-04-26T13:26:55.081Z</time></trkpt><trkpt lat="37.9334201" lon="15.0136573"><ele>763.0</ele><time>2026-04-26T13:29:19.096Z</time></trkpt><trkpt lat="37.9334572" lon="15.0135223"><ele>765.8</ele><time>2026-04-26T13:29:20.096Z</time></trkpt><trkpt lat="37.9334697" lon="15.0134319"><ele>768.5999999999999</ele><time>2026-04-26T13:29:21.071Z</time></trkpt><trkpt lat="37.9334648" lon="15.0133508"><ele>771.4000000000001</ele><time>2026-04-26T13:29:22.063Z</time></trkpt><trkpt lat="37.9334182" lon="15.0132078"><ele>774.2</ele><time>2026-04-26T13:29:24.079Z</time></trkpt><trkpt lat="37.9333809" lon="15.0130671"><ele>777.0</ele><time>2026-04-26T13:29:26.078Z</time></trkpt><trkpt lat="37.9333482" lon="15.0129312"><ele>777.0</ele><time>2026-04-26T13:29:28.091Z</time></trkpt><trkpt lat="37.9333293" lon="15.0127975"><ele>777.0</ele><time>2026-04-26T13:29:30.096Z</time></trkpt><trkpt lat="37.9333055" lon="15.0126711"><ele>777.0</ele><time>2026-04-26T13:29:32.077Z</time></trkpt><trkpt lat="37.9332701" lon="15.0125492"><ele>777.0</ele><time>2026-04-26T13:29:34.061Z</time></trkpt><trkpt lat="37.9332171" lon="15.0124338"><ele>777.0</ele><time>2026-04-26T13:29:36.092Z</time></trkpt><trkpt lat="37.9331829" lon="15.0122917"><ele>779.2857142857143</ele><time>2026-04-26T13:29:38.067Z</time></trkpt><trkpt lat="37.9331788" lon="15.0122093"><ele>781.5714285714286</ele><time>2026-04-26T13:29:39.056Z</time></trkpt><trkpt lat="37.933178" lon="15.0121246"><ele>783.8571428571429</ele><time>2026-04-26T13:29:40.056Z</time></trkpt><trkpt lat="37.9331835" lon="15.0120394"><ele>786.1428571428571</ele><time>2026-04-26T13:29:41.063Z</time></trkpt><trkpt lat="37.9331952" lon="15.0119515"><ele>788.4285714285714</ele><time>2026-04-26T13:29:42.062Z</time></trkpt><trkpt lat="37.9332086" lon="15.0118608"><ele>790.7142857142858</ele><time>2026-04-26T13:29:43.055Z</time></trkpt><trkpt lat="37.9332217" lon="15.0117679"><ele>793.0</ele><time>2026-04-26T13:29:44.065Z</time></trkpt><trkpt lat="37.9332362" lon="15.01168"><ele>790.4999999999999</ele><time>2026-04-26T13:29:45.094Z</time></trkpt><trkpt lat="37.9332531" lon="15.0116024"><ele>788.0</ele><time>2026-04-26T13:29:46.048Z</time></trkpt><trkpt lat="37.9332533" lon="15.0114638"><ele>785.5</ele><time>2026-04-26T13:29:48.083Z</time></trkpt><trkpt lat="37.9332286" lon="15.011375"><ele>783.0</ele><time>2026-04-26T13:29:50.068Z</time></trkpt><trkpt lat="37.9332022" lon="15.0112837"><ele>780.4999999999999</ele><time>2026-04-26T13:29:52.081Z</time></trkpt><trkpt lat="37.9331824" lon="15.0111486"><ele>778.0</ele><time>2026-04-26T13:29:54.069Z</time></trkpt><trkpt lat="37.9331658" lon="15.0110094"><ele>777.9999999999999</ele><time>2026-04-26T13:29:56.093Z</time></trkpt><trkpt lat="37.9331353" lon="15.0109001"><ele>778.0</ele><time>2026-04-26T13:29:58.066Z</time></trkpt><trkpt lat="37.9330659" lon="15.010865"><ele>778.0</ele><time>2026-04-26T13:30:00.063Z</time></trkpt><trkpt lat="37.9330014" lon="15.0109086"><ele>778.0</ele><time>2026-04-26T13:30:02.081Z</time></trkpt><trkpt lat="37.9329744" lon="15.010991"><ele>777.9999999999999</ele><time>2026-04-26T13:30:04.078Z</time></trkpt><trkpt lat="37.9329927" lon="15.0111039"><ele>778.0</ele><time>2026-04-26T13:30:06.067Z</time></trkpt><trkpt lat="37.9330202" lon="15.0112394"><ele>777.9999999999999</ele><time>2026-04-26T13:30:08.085Z</time></trkpt><trkpt lat="37.9330019" lon="15.0113522"><ele>778.0</ele><time>2026-04-26T13:30:10.063Z</time></trkpt><trkpt lat="37.9329329" lon="15.0114011"><ele>778.0</ele><time>2026-04-26T13:30:12.067Z</time></trkpt><trkpt lat="37.9328625" lon="15.0113458"><ele>778.0</ele><time>2026-04-26T13:30:14.061Z</time></trkpt><trkpt lat="37.9328425" lon="15.0112532"><ele>777.9999999999999</ele><time>2026-04-26T13:30:16.042Z</time></trkpt><trkpt lat="37.932846" lon="15.0111341"><ele>778.0</ele><time>2026-04-26T13:30:18.06Z</time></trkpt><trkpt lat="37.9328664" lon="15.0109931"><ele>777.9999999999999</ele><time>2026-04-26T13:30:20.064Z</time></trkpt><trkpt lat="37.9328787" lon="15.0108628"><ele>778.0</ele><time>2026-04-26T13:30:22.065Z</time></trkpt><trkpt lat="37.9328685" lon="15.010772"><ele>778.0</ele><time>2026-04-26T13:30:24.065Z</time></trkpt><trkpt lat="37.9327829" lon="15.0107546"><ele>778.0</ele><time>2026-04-26T13:30:27.061Z</time></trkpt><trkpt lat="37.9327568" lon="15.010838"><ele>777.9999999999999</ele><time>2026-04-26T13:30:29.068Z</time></trkpt><trkpt lat="37.9327617" lon="15.0109525"><ele>778.0</ele><time>2026-04-26T13:30:31.057Z</time></trkpt><trkpt lat="37.9327286" lon="15.0110826"><ele>777.9999999999999</ele><time>2026-04-26T13:30:33.076Z</time></trkpt><trkpt lat="37.9326739" lon="15.0112192"><ele>778.0</ele><time>2026-04-26T13:30:35.075Z</time></trkpt><trkpt lat="37.9326231" lon="15.0113597"><ele>778.0</ele><time>2026-04-26T13:30:37.067Z</time></trkpt><trkpt lat="37.9325998" lon="15.0114375"><ele>778.0</ele><time>2026-04-26T13:30:38.057Z</time></trkpt><trkpt lat="37.9325784" lon="15.0115198"><ele>777.9999999999999</ele><time>2026-04-26T13:30:39.078Z</time></trkpt><trkpt lat="37.9325561" lon="15.0116068"><ele>778.0</ele><time>2026-04-26T13:30:40.08Z</time></trkpt><trkpt lat="37.9325305" lon="15.0116949"><ele>771.9999999999999</ele><time>2026-04-26T13:30:41.069Z</time></trkpt><trkpt lat="37.9325018" lon="15.0117866"><ele>766.0</ele><time>2026-04-26T13:30:42.09Z</time></trkpt><trkpt lat="37.9324747" lon="15.0118818"><ele>760.0</ele><time>2026-04-26T13:30:43.088Z</time></trkpt><trkpt lat="37.9324514" lon="15.0119817"><ele>754.0</ele><time>2026-04-26T13:30:44.093Z</time></trkpt><trkpt lat="37.9324331" lon="15.0120794"><ele>748.0</ele><time>2026-04-26T13:30:45.091Z</time></trkpt><trkpt lat="37.9324199" lon="15.0121675"><ele>742.0</ele><time>2026-04-26T13:30:46.044Z</time></trkpt><trkpt lat="37.9324085" lon="15.0122531"><ele>742.0</ele><time>2026-04-26T13:30:47.092Z</time></trkpt><trkpt lat="37.9323873" lon="15.0124093"><ele>742.0</ele><time>2026-04-26T13:30:49.07Z</time></trkpt><trkpt lat="37.9323701" lon="15.0124936"><ele>742.0</ele><time>2026-04-26T13:30:50.076Z</time></trkpt><trkpt lat="37.9323532" lon="15.0125822"><ele>742.0</ele><time>2026-04-26T13:30:51.058Z</time></trkpt><trkpt lat="37.9323368" lon="15.0126744"><ele>742.0</ele><time>2026-04-26T13:30:52.073Z</time></trkpt><trkpt lat="37.9323224" lon="15.0127704"><ele>742.0</ele><time>2026-04-26T13:30:53.067Z</time></trkpt><trkpt lat="37.9323081" lon="15.0128699"><ele>741.5</ele><time>2026-04-26T13:30:54.079Z</time></trkpt><trkpt lat="37.9322878" lon="15.0129662"><ele>741.0</ele><time>2026-04-26T13:30:55.064Z</time></trkpt><trkpt lat="37.9322594" lon="15.0130568"><ele>740.5</ele><time>2026-04-26T13:30:56.068Z</time></trkpt><trkpt lat="37.9322231" lon="15.013133"><ele>740.0</ele><time>2026-04-26T13:30:57.069Z</time></trkpt><trkpt lat="37.9321446" lon="15.0132236"><ele>739.5</ele><time>2026-04-26T13:30:59.091Z</time></trkpt><trkpt lat="37.9320554" lon="15.0132247"><ele>739.0</ele><time>2026-04-26T13:31:01.077Z</time></trkpt><trkpt lat="37.9319805" lon="15.0131361"><ele>739.0</ele><time>2026-04-26T13:31:03.071Z</time></trkpt><trkpt lat="37.9319503" lon="15.012993"><ele>739.0</ele><time>2026-04-26T13:31:05.091Z</time></trkpt><trkpt lat="37.9319444" lon="15.0129058"><ele>739.0</ele><time>2026-04-26T13:31:06.083Z</time></trkpt><trkpt lat="37.9319382" lon="15.0128038"><ele>739.0</ele><time>2026-04-26T13:31:07.083Z</time></trkpt><trkpt lat="37.9319255" lon="15.0126991"><ele>739.0</ele><time>2026-04-26T13:31:08.062Z</time></trkpt><trkpt lat="37.9319104" lon="15.0125888"><ele>739.0</ele><time>2026-04-26T13:31:09.097Z</time></trkpt><trkpt lat="37.9318939" lon="15.0124718"><ele>739.6</ele><time>2026-04-26T13:31:10.078Z</time></trkpt><trkpt lat="37.9318849" lon="15.0123489"><ele>740.2</ele><time>2026-04-26T13:31:11.065Z</time></trkpt><trkpt lat="37.9318802" lon="15.0122268"><ele>740.8000000000001</ele><time>2026-04-26T13:31:12.079Z</time></trkpt><trkpt lat="37.9318719" lon="15.0121083"><ele>741.4000000000001</ele><time>2026-04-26T13:31:13.097Z</time></trkpt><trkpt lat="37.9318606" lon="15.0119961"><ele>742.0</ele><time>2026-04-26T13:31:14.094Z</time></trkpt><trkpt lat="37.9318459" lon="15.0118906"><ele>742.0</ele><time>2026-04-26T13:31:15.066Z</time></trkpt><trkpt lat="37.9318276" lon="15.0117954"><ele>742.0</ele><time>2026-04-26T13:31:16.064Z</time></trkpt><trkpt lat="37.9318044" lon="15.0117161"><ele>742.0</ele><time>2026-04-26T13:31:17.069Z</time></trkpt><trkpt lat="37.9317579" lon="15.0115703"><ele>742.0</ele><time>2026-04-26T13:31:19.092Z</time></trkpt><trkpt lat="37.9317011" lon="15.0114462"><ele>742.0</ele><time>2026-04-26T13:31:21.062Z</time></trkpt><trkpt lat="37.9316469" lon="15.0113831"><ele>737.1666666666667</ele><time>2026-04-26T13:31:23.067Z</time></trkpt><trkpt lat="37.9316202" lon="15.0113105"><ele>732.3333333333334</ele><time>2026-04-26T13:31:31.07Z</time></trkpt><trkpt lat="37.9315453" lon="15.011303"><ele>727.5</ele><time>2026-04-26T13:31:35.065Z</time></trkpt><trkpt lat="37.931505" lon="15.0113763"><ele>722.6666666666666</ele><time>2026-04-26T13:31:37.064Z</time></trkpt><trkpt lat="37.931493" lon="15.0115043"><ele>717.8333333333333</ele><time>2026-04-26T13:31:39.081Z</time></trkpt><trkpt lat="37.9314946" lon="15.0116436"><ele>713.0</ele><time>2026-04-26T13:31:41.078Z</time></trkpt><trkpt lat="37.9314827" lon="15.0117979"><ele>712.4285714285714</ele><time>2026-04-26T13:31:43.06Z</time></trkpt><trkpt lat="37.9314773" lon="15.0118821"><ele>711.8571428571429</ele><time>2026-04-26T13:31:44.081Z</time></trkpt><trkpt lat="37.931468" lon="15.0119696"><ele>711.2857142857143</ele><time>2026-04-26T13:31:45.058Z</time></trkpt><trkpt lat="37.9314571" lon="15.0120561"><ele>710.7142857142858</ele><time>2026-04-26T13:31:46.044Z</time></trkpt><trkpt lat="37.9314426" lon="15.0121388"><ele>710.1428571428571</ele><time>2026-04-26T13:31:47.076Z</time></trkpt><trkpt lat="37.9314249" lon="15.0122225"><ele>709.5714285714287</ele><time>2026-04-26T13:31:48.092Z</time></trkpt><trkpt lat="37.9314045" lon="15.0123043"><ele>709.0</ele><time>2026-04-26T13:31:49.065Z</time></trkpt><trkpt lat="37.9313831" lon="15.0123821"><ele>709.0000000000001</ele><time>2026-04-26T13:31:50.059Z</time></trkpt><trkpt lat="37.9313581" lon="15.0124591"><ele>709.0</ele><time>2026-04-26T13:31:51.089Z</time></trkpt><trkpt lat="37.9313316" lon="15.0125346"><ele>709.0</ele><time>2026-04-26T13:31:52.078Z</time></trkpt><trkpt lat="37.9312995" lon="15.0126041"><ele>709.0</ele><time>2026-04-26T13:31:53.057Z</time></trkpt><trkpt lat="37.9312611" lon="15.0126705"><ele>709.0</ele><time>2026-04-26T13:31:54.092Z</time></trkpt><trkpt lat="37.9312167" lon="15.0127391"><ele>709.0000000000001</ele><time>2026-04-26T13:31:55.072Z</time></trkpt><trkpt lat="37.9311653" lon="15.0128013"><ele>709.0</ele><time>2026-04-26T13:31:56.057Z</time></trkpt><trkpt lat="37.9311108" lon="15.0128495"><ele>709.2857142857143</ele><time>2026-04-26T13:31:57.06Z</time></trkpt><trkpt lat="37.9310564" lon="15.0128954"><ele>709.5714285714286</ele><time>2026-04-26T13:31:58.078Z</time></trkpt><trkpt lat="37.9310014" lon="15.012945"><ele>709.8571428571429</ele><time>2026-04-26T13:31:59.076Z</time></trkpt><trkpt lat="37.9309454" lon="15.0129972"><ele>710.1428571428571</ele><time>2026-04-26T13:32:00.063Z</time></trkpt><trkpt lat="37.9308927" lon="15.0130502"><ele>710.4285714285714</ele><time>2026-04-26T13:32:01.062Z</time></trkpt><trkpt lat="37.9308434" lon="15.0131032"><ele>710.7142857142858</ele><time>2026-04-26T13:32:02.078Z</time></trkpt><trkpt lat="37.9307927" lon="15.0131568"><ele>711.0</ele><time>2026-04-26T13:32:03.088Z</time></trkpt><trkpt lat="37.9307392" lon="15.0132152"><ele>708.8571428571429</ele><time>2026-04-26T13:32:04.077Z</time></trkpt><trkpt lat="37.9306857" lon="15.0132696"><ele>706.7142857142857</ele><time>2026-04-26T13:32:05.066Z</time></trkpt><trkpt lat="37.9306268" lon="15.0133186"><ele>704.5714285714286</ele><time>2026-04-26T13:32:06.064Z</time></trkpt><trkpt lat="37.9305609" lon="15.0133662"><ele>702.4285714285714</ele><time>2026-04-26T13:32:07.094Z</time></trkpt><trkpt lat="37.9304931" lon="15.0134031"><ele>700.2857142857143</ele><time>2026-04-26T13:32:08.068Z</time></trkpt><trkpt lat="37.9304208" lon="15.0134239"><ele>698.1428571428571</ele><time>2026-04-26T13:32:09.076Z</time></trkpt><trkpt lat="37.9303457" lon="15.0134273"><ele>696.0</ele><time>2026-04-26T13:32:10.065Z</time></trkpt><trkpt lat="37.9302676" lon="15.0134207"><ele>696.0</ele><time>2026-04-26T13:32:11.062Z</time></trkpt><trkpt lat="37.9301853" lon="15.0134142"><ele>696.0</ele><time>2026-04-26T13:32:12.061Z</time></trkpt><trkpt lat="37.9300989" lon="15.0134159"><ele>696.0</ele><time>2026-04-26T13:32:13.064Z</time></trkpt><trkpt lat="37.9300111" lon="15.0134236"><ele>696.0</ele><time>2026-04-26T13:32:14.081Z</time></trkpt><trkpt lat="37.9299219" lon="15.0134303"><ele>696.0</ele><time>2026-04-26T13:32:15.084Z</time></trkpt><trkpt lat="37.9298354" lon="15.0134209"><ele>696.0</ele><time>2026-04-26T13:32:16.052Z</time></trkpt><trkpt lat="37.9297513" lon="15.0134012"><ele>696.1999999999999</ele><time>2026-04-26T13:32:17.081Z</time></trkpt><trkpt lat="37.9296653" lon="15.0133782"><ele>696.4</ele><time>2026-04-26T13:32:18.092Z</time></trkpt><trkpt lat="37.9295795" lon="15.0133453"><ele>696.6</ele><time>2026-04-26T13:32:19.064Z</time></trkpt><trkpt lat="37.9294932" lon="15.0133037"><ele>696.8</ele><time>2026-04-26T13:32:20.068Z</time></trkpt><trkpt lat="37.9294078" lon="15.0132548"><ele>697.0</ele><time>2026-04-26T13:32:21.083Z</time></trkpt><trkpt lat="37.9293212" lon="15.0132008"><ele>694.4000000000001</ele><time>2026-04-26T13:32:22.078Z</time></trkpt><trkpt lat="37.9292269" lon="15.0131554"><ele>691.8000000000001</ele><time>2026-04-26T13:32:23.066Z</time></trkpt><trkpt lat="37.9291376" lon="15.0131104"><ele>689.2</ele><time>2026-04-26T13:32:24.093Z</time></trkpt><trkpt lat="37.9290529" lon="15.0130613"><ele>686.6</ele><time>2026-04-26T13:32:25.095Z</time></trkpt><trkpt lat="37.928979" lon="15.0130135"><ele>684.0</ele><time>2026-04-26T13:32:26.094Z</time></trkpt><trkpt lat="37.9289154" lon="15.0129591"><ele>683.9999999999999</ele><time>2026-04-26T13:32:27.096Z</time></trkpt><trkpt lat="37.9288602" lon="15.0129023"><ele>684.0</ele><time>2026-04-26T13:32:28.079Z</time></trkpt><trkpt lat="37.9288052" lon="15.0128465"><ele>684.0</ele><time>2026-04-26T13:32:29.059Z</time></trkpt><trkpt lat="37.9287482" lon="15.0127934"><ele>684.0</ele><time>2026-04-26T13:32:30.1Z</time></trkpt><trkpt lat="37.9286899" lon="15.0127469"><ele>684.0</ele><time>2026-04-26T13:32:31.064Z</time></trkpt><trkpt lat="37.9286346" lon="15.0127007"><ele>683.9999999999999</ele><time>2026-04-26T13:32:32.09Z</time></trkpt><trkpt lat="37.9285791" lon="15.0126496"><ele>684.0</ele><time>2026-04-26T13:32:33.085Z</time></trkpt><trkpt lat="37.9285228" lon="15.0126018"><ele>684.0</ele><time>2026-04-26T13:32:34.088Z</time></trkpt><trkpt lat="37.9284668" lon="15.0125585"><ele>684.0</ele><time>2026-04-26T13:32:35.064Z</time></trkpt><trkpt lat="37.928355" lon="15.0124917"><ele>684.0</ele><time>2026-04-26T13:32:37.077Z</time></trkpt><trkpt lat="37.9282362" lon="15.0124454"><ele>684.0</ele><time>2026-04-26T13:32:39.06Z</time></trkpt><trkpt lat="37.9281694" lon="15.0124224"><ele>684.0</ele><time>2026-04-26T13:32:40.094Z</time></trkpt><trkpt lat="37.928099" lon="15.0123927"><ele>683.9999999999999</ele><time>2026-04-26T13:32:41.093Z</time></trkpt><trkpt lat="37.9280278" lon="15.0123596"><ele>684.0</ele><time>2026-04-26T13:32:42.065Z</time></trkpt><trkpt lat="37.9279562" lon="15.0123264"><ele>684.0</ele><time>2026-04-26T13:32:43.068Z</time></trkpt><trkpt lat="37.9278883" lon="15.0122985"><ele>684.0</ele><time>2026-04-26T13:32:44.059Z</time></trkpt><trkpt lat="37.9278231" lon="15.0122807"><ele>684.0</ele><time>2026-04-26T13:32:45.068Z</time></trkpt><trkpt lat="37.9277575" lon="15.012271"><ele>683.9999999999999</ele><time>2026-04-26T13:32:46.067Z</time></trkpt><trkpt lat="37.9276913" lon="15.0122707"><ele>684.0</ele><time>2026-04-26T13:32:47.067Z</time></trkpt><trkpt lat="37.9276284" lon="15.0122783"><ele>686.2</ele><time>2026-04-26T13:32:48.071Z</time></trkpt><trkpt lat="37.9275167" lon="15.0123083"><ele>688.4000000000001</ele><time>2026-04-26T13:32:50.096Z</time></trkpt><trkpt lat="37.9274316" lon="15.0123376"><ele>690.6</ele><time>2026-04-26T13:32:52.064Z</time></trkpt><trkpt lat="37.9273664" lon="15.0123624"><ele>692.8</ele><time>2026-04-26T13:32:54.064Z</time></trkpt><trkpt lat="37.9272866" lon="15.0123903"><ele>695.0</ele><time>2026-04-26T13:32:56.064Z</time></trkpt><trkpt lat="37.9271776" lon="15.0123982"><ele>695.0</ele><time>2026-04-26T13:32:58.056Z</time></trkpt><trkpt lat="37.9271144" lon="15.0123911"><ele>695.0</ele><time>2026-04-26T13:32:59.056Z</time></trkpt><trkpt lat="37.9269896" lon="15.0123809"><ele>695.0</ele><time>2026-04-26T13:33:01.057Z</time></trkpt><trkpt lat="37.9269168" lon="15.0123905"><ele>695.0</ele><time>2026-04-26T13:33:02.098Z</time></trkpt><trkpt lat="37.9268413" lon="15.0124007"><ele>695.0</ele><time>2026-04-26T13:33:03.059Z</time></trkpt><trkpt lat="37.9267648" lon="15.0124061"><ele>695.0</ele><time>2026-04-26T13:33:04.058Z</time></trkpt><trkpt lat="37.9266889" lon="15.0124083"><ele>694.3333333333333</ele><time>2026-04-26T13:33:05.059Z</time></trkpt><trkpt lat="37.9266131" lon="15.0124071"><ele>693.6666666666666</ele><time>2026-04-26T13:33:06.057Z</time></trkpt><trkpt lat="37.9265353" lon="15.0124036"><ele>693.0</ele><time>2026-04-26T13:33:07.057Z</time></trkpt><trkpt lat="37.9264568" lon="15.0124034"><ele>692.3333333333334</ele><time>2026-04-26T13:33:08.079Z</time></trkpt><trkpt lat="37.9263756" lon="15.0124156"><ele>691.6666666666667</ele><time>2026-04-26T13:33:09.077Z</time></trkpt><trkpt lat="37.9262911" lon="15.0124434"><ele>691.0</ele><time>2026-04-26T13:33:10.065Z</time></trkpt><trkpt lat="37.9262083" lon="15.0124821"><ele>692.3333333333334</ele><time>2026-04-26T13:33:11.08Z</time></trkpt><trkpt lat="37.9261339" lon="15.0125266"><ele>693.6666666666667</ele><time>2026-04-26T13:33:12.074Z</time></trkpt><trkpt lat="37.9260702" lon="15.012591"><ele>695.0</ele><time>2026-04-26T13:33:13.079Z</time></trkpt><trkpt lat="37.9260008" lon="15.0126699"><ele>696.3333333333334</ele><time>2026-04-26T13:33:14.057Z</time></trkpt><trkpt lat="37.9259262" lon="15.0127447"><ele>697.6666666666666</ele><time>2026-04-26T13:33:15.062Z</time></trkpt><trkpt lat="37.9258467" lon="15.0128123"><ele>699.0</ele><time>2026-04-26T13:33:16.057Z</time></trkpt><trkpt lat="37.9257615" lon="15.0128666"><ele>699.0</ele><time>2026-04-26T13:33:17.057Z</time></trkpt><trkpt lat="37.9256743" lon="15.0129116"><ele>699.0</ele><time>2026-04-26T13:33:18.058Z</time></trkpt><trkpt lat="37.9255866" lon="15.0129496"><ele>699.0</ele><time>2026-04-26T13:33:19.094Z</time></trkpt><trkpt lat="37.9254992" lon="15.0129833"><ele>699.0</ele><time>2026-04-26T13:33:20.095Z</time></trkpt><trkpt lat="37.9254105" lon="15.0130123"><ele>699.0</ele><time>2026-04-26T13:33:21.094Z</time></trkpt><trkpt lat="37.9253219" lon="15.0130347"><ele>699.0</ele><time>2026-04-26T13:33:22.077Z</time></trkpt><trkpt lat="37.925239" lon="15.0130402"><ele>699.0</ele><time>2026-04-26T13:33:23.076Z</time></trkpt><trkpt lat="37.9251566" lon="15.0130242"><ele>699.0</ele><time>2026-04-26T13:33:24.078Z</time></trkpt><trkpt lat="37.9250794" lon="15.012995"><ele>699.0</ele><time>2026-04-26T13:33:25.056Z</time></trkpt><trkpt lat="37.9250018" lon="15.0129458"><ele>699.0</ele><time>2026-04-26T13:33:26.099Z</time></trkpt><trkpt lat="37.9249277" lon="15.0128836"><ele>699.0</ele><time>2026-04-26T13:33:27.082Z</time></trkpt><trkpt lat="37.9248632" lon="15.0128419"><ele>697.5</ele><time>2026-04-26T13:33:28.08Z</time></trkpt><trkpt lat="37.9247928" lon="15.0128193"><ele>696.0</ele><time>2026-04-26T13:33:29.057Z</time></trkpt><trkpt lat="37.9247241" lon="15.012817"><ele>694.5</ele><time>2026-04-26T13:33:30.061Z</time></trkpt><trkpt lat="37.9246452" lon="15.0128256"><ele>693.0</ele><time>2026-04-26T13:33:31.086Z</time></trkpt><trkpt lat="37.9245586" lon="15.0128464"><ele>691.5</ele><time>2026-04-26T13:33:32.067Z</time></trkpt><trkpt lat="37.9244753" lon="15.012875"><ele>690.0</ele><time>2026-04-26T13:33:33.08Z</time></trkpt><trkpt lat="37.9243957" lon="15.0129044"><ele>690.0</ele><time>2026-04-26T13:33:34.097Z</time></trkpt><trkpt lat="37.9243151" lon="15.0129306"><ele>690.0</ele><time>2026-04-26T13:33:35.067Z</time></trkpt><trkpt lat="37.9242364" lon="15.0129382"><ele>690.0</ele><time>2026-04-26T13:33:36.079Z</time></trkpt><trkpt lat="37.9241591" lon="15.0129217"><ele>690.0</ele><time>2026-04-26T13:33:37.079Z</time></trkpt><trkpt lat="37.9240842" lon="15.0128851"><ele>690.0</ele><time>2026-04-26T13:33:38.076Z</time></trkpt><trkpt lat="37.9240106" lon="15.0128365"><ele>690.0</ele><time>2026-04-26T13:33:39.094Z</time></trkpt><trkpt lat="37.9239415" lon="15.0127763"><ele>690.0</ele><time>2026-04-26T13:33:40.057Z</time></trkpt><trkpt lat="37.9238711" lon="15.0127162"><ele>690.0</ele><time>2026-04-26T13:33:41.092Z</time></trkpt><trkpt lat="37.9237998" lon="15.0126607"><ele>690.0</ele><time>2026-04-26T13:33:42.063Z</time></trkpt><trkpt lat="37.9237276" lon="15.0126139"><ele>690.0</ele><time>2026-04-26T13:33:43.057Z</time></trkpt><trkpt lat="37.9236522" lon="15.0125812"><ele>690.0</ele><time>2026-04-26T13:33:44.078Z</time></trkpt><trkpt lat="37.9235715" lon="15.0125682"><ele>690.0</ele><time>2026-04-26T13:33:45.058Z</time></trkpt><trkpt lat="37.9234853" lon="15.0125732"><ele>690.0</ele><time>2026-04-26T13:33:46.08Z</time></trkpt><trkpt lat="37.9233973" lon="15.0125968"><ele>690.0</ele><time>2026-04-26T13:33:47.08Z</time></trkpt><trkpt lat="37.9233009" lon="15.0126325"><ele>690.0</ele><time>2026-04-26T13:33:48.069Z</time></trkpt><trkpt lat="37.9231989" lon="15.0126644"><ele>690.0</ele><time>2026-04-26T13:33:49.078Z</time></trkpt><trkpt lat="37.9230947" lon="15.0126865"><ele>690.0</ele><time>2026-04-26T13:33:50.079Z</time></trkpt><trkpt lat="37.9229921" lon="15.0126977"><ele>689.2</ele><time>2026-04-26T13:33:51.078Z</time></trkpt><trkpt lat="37.9228907" lon="15.0127013"><ele>688.4</ele><time>2026-04-26T13:33:52.08Z</time></trkpt><trkpt lat="37.9227889" lon="15.0126965"><ele>687.5999999999999</ele><time>2026-04-26T13:33:53.092Z</time></trkpt><trkpt lat="37.9226866" lon="15.0126853"><ele>686.8</ele><time>2026-04-26T13:33:54.093Z</time></trkpt><trkpt lat="37.9225871" lon="15.0126748"><ele>686.0</ele><time>2026-04-26T13:33:55.081Z</time></trkpt><trkpt lat="37.9224903" lon="15.012665"><ele>684.8</ele><time>2026-04-26T13:33:56.082Z</time></trkpt><trkpt lat="37.9223919" lon="15.0126663"><ele>683.5999999999999</ele><time>2026-04-26T13:33:57.083Z</time></trkpt><trkpt lat="37.9222936" lon="15.0126774"><ele>682.4</ele><time>2026-04-26T13:33:58.067Z</time></trkpt><trkpt lat="37.922202" lon="15.0126824"><ele>681.2</ele><time>2026-04-26T13:33:59.069Z</time></trkpt><trkpt lat="37.9221137" lon="15.0126719"><ele>680.0</ele><time>2026-04-26T13:34:00.065Z</time></trkpt><trkpt lat="37.9220362" lon="15.0126415"><ele>680.0</ele><time>2026-04-26T13:34:01.083Z</time></trkpt><trkpt lat="37.9219705" lon="15.0125889"><ele>680.0</ele><time>2026-04-26T13:34:02.066Z</time></trkpt><trkpt lat="37.9219202" lon="15.0125117"><ele>680.0</ele><time>2026-04-26T13:34:03.069Z</time></trkpt><trkpt lat="37.9218678" lon="15.0124182"><ele>680.0</ele><time>2026-04-26T13:34:04.063Z</time></trkpt><trkpt lat="37.9218229" lon="15.0123124"><ele>680.0</ele><time>2026-04-26T13:34:05.082Z</time></trkpt><trkpt lat="37.921776" lon="15.0122"><ele>680.0</ele><time>2026-04-26T13:34:06.097Z</time></trkpt><trkpt lat="37.9217386" lon="15.0120823"><ele>677.8333333333333</ele><time>2026-04-26T13:34:07.069Z</time></trkpt><trkpt lat="37.9216955" lon="15.0119731"><ele>675.6666666666666</ele><time>2026-04-26T13:34:08.068Z</time></trkpt><trkpt lat="37.9216421" lon="15.0118789"><ele>673.5</ele><time>2026-04-26T13:34:09.067Z</time></trkpt><trkpt lat="37.9215793" lon="15.0118055"><ele>671.3333333333334</ele><time>2026-04-26T13:34:10.07Z</time></trkpt><trkpt lat="37.9215157" lon="15.0117551"><ele>669.1666666666667</ele><time>2026-04-26T13:34:11.079Z</time></trkpt><trkpt lat="37.9214451" lon="15.0117316"><ele>667.0</ele><time>2026-04-26T13:34:12.082Z</time></trkpt><trkpt lat="37.9213723" lon="15.0117287"><ele>667.0</ele><time>2026-04-26T13:34:13.082Z</time></trkpt><trkpt lat="37.9212949" lon="15.0117351"><ele>667.0</ele><time>2026-04-26T13:34:14.096Z</time></trkpt><trkpt lat="37.9211965" lon="15.0117592"><ele>667.0</ele><time>2026-04-26T13:34:15.078Z</time></trkpt><trkpt lat="37.9210894" lon="15.0117721"><ele>667.0</ele><time>2026-04-26T13:34:16.083Z</time></trkpt><trkpt lat="37.9209795" lon="15.011768"><ele>667.0</ele><time>2026-04-26T13:34:17.081Z</time></trkpt><trkpt lat="37.920874" lon="15.0117391"><ele>668.0</ele><time>2026-04-26T13:34:18.094Z</time></trkpt><trkpt lat="37.9207785" lon="15.0116945"><ele>669.0</ele><time>2026-04-26T13:34:19.093Z</time></trkpt><trkpt lat="37.9206876" lon="15.011652"><ele>670.0</ele><time>2026-04-26T13:34:20.079Z</time></trkpt><trkpt lat="37.9206095" lon="15.0115958"><ele>671.0</ele><time>2026-04-26T13:34:21.071Z</time></trkpt><trkpt lat="37.9205365" lon="15.0115338"><ele>672.0</ele><time>2026-04-26T13:34:22.079Z</time></trkpt><trkpt lat="37.9204588" lon="15.0114751"><ele>667.3333333333334</ele><time>2026-04-26T13:34:23.082Z</time></trkpt><trkpt lat="37.9203868" lon="15.0114273"><ele>662.6666666666666</ele><time>2026-04-26T13:34:24.077Z</time></trkpt><trkpt lat="37.9203219" lon="15.011389"><ele>658.0</ele><time>2026-04-26T13:34:25.07Z</time></trkpt><trkpt lat="37.920248" lon="15.0113709"><ele>653.3333333333333</ele><time>2026-04-26T13:34:26.079Z</time></trkpt><trkpt lat="37.9201745" lon="15.0113612"><ele>648.6666666666666</ele><time>2026-04-26T13:34:27.069Z</time></trkpt><trkpt lat="37.9200975" lon="15.0113555"><ele>644.0</ele><time>2026-04-26T13:34:28.069Z</time></trkpt><trkpt lat="37.9200223" lon="15.0113511"><ele>644.0</ele><time>2026-04-26T13:34:29.093Z</time></trkpt><trkpt lat="37.9199431" lon="15.0113625"><ele>644.0</ele><time>2026-04-26T13:34:30.076Z</time></trkpt><trkpt lat="37.9198713" lon="15.0113859"><ele>644.0</ele><time>2026-04-26T13:34:31.082Z</time></trkpt><trkpt lat="37.9198041" lon="15.0114232"><ele>644.0</ele><time>2026-04-26T13:34:32.078Z</time></trkpt><trkpt lat="37.9197412" lon="15.0114746"><ele>644.0</ele><time>2026-04-26T13:34:33.065Z</time></trkpt><trkpt lat="37.9196904" lon="15.0115396"><ele>644.0</ele><time>2026-04-26T13:34:34.079Z</time></trkpt><trkpt lat="37.9196489" lon="15.0116205"><ele>649.0</ele><time>2026-04-26T13:34:35.057Z</time></trkpt><trkpt lat="37.9196116" lon="15.0117152"><ele>654.0</ele><time>2026-04-26T13:34:36.063Z</time></trkpt><trkpt lat="37.9195616" lon="15.0118158"><ele>659.0</ele><time>2026-04-26T13:34:37.056Z</time></trkpt><trkpt lat="37.9195034" lon="15.0119108"><ele>664.0</ele><time>2026-04-26T13:34:38.056Z</time></trkpt><trkpt lat="37.9194372" lon="15.0120044"><ele>669.0</ele><time>2026-04-26T13:34:39.082Z</time></trkpt><trkpt lat="37.9193607" lon="15.0120944"><ele>669.0</ele><time>2026-04-26T13:34:40.065Z</time></trkpt><trkpt lat="37.9192805" lon="15.0121719"><ele>669.0</ele><time>2026-04-26T13:34:41.082Z</time></trkpt><trkpt lat="37.9191935" lon="15.0122342"><ele>669.0</ele><time>2026-04-26T13:34:42.081Z</time></trkpt><trkpt lat="37.9191048" lon="15.012277"><ele>669.0</ele><time>2026-04-26T13:34:43.08Z</time></trkpt><trkpt lat="37.9190198" lon="15.012291"><ele>669.0</ele><time>2026-04-26T13:34:44.067Z</time></trkpt><trkpt lat="37.9189416" lon="15.0122772"><ele>665.8333333333334</ele><time>2026-04-26T13:34:45.078Z</time></trkpt><trkpt lat="37.9188661" lon="15.0122406"><ele>662.6666666666666</ele><time>2026-04-26T13:34:46.05Z</time></trkpt><trkpt lat="37.9187916" lon="15.0122022"><ele>659.5</ele><time>2026-04-26T13:34:47.059Z</time></trkpt><trkpt lat="37.9187142" lon="15.0121678"><ele>656.3333333333333</ele><time>2026-04-26T13:34:48.08Z</time></trkpt><trkpt lat="37.9186361" lon="15.0121341"><ele>653.1666666666666</ele><time>2026-04-26T13:34:49.081Z</time></trkpt><trkpt lat="37.918553" lon="15.0121078"><ele>650.0</ele><time>2026-04-26T13:34:50.095Z</time></trkpt><trkpt lat="37.9184762" lon="15.0120848"><ele>649.6666666666666</ele><time>2026-04-26T13:34:51.057Z</time></trkpt><trkpt lat="37.9183939" lon="15.0120565"><ele>649.3333333333333</ele><time>2026-04-26T13:34:52.063Z</time></trkpt><trkpt lat="37.9183119" lon="15.0120177"><ele>649.0</ele><time>2026-04-26T13:34:53.056Z</time></trkpt><trkpt lat="37.9182287" lon="15.0119683"><ele>648.6666666666666</ele><time>2026-04-26T13:34:54.088Z</time></trkpt><trkpt lat="37.9181498" lon="15.0119163"><ele>648.3333333333334</ele><time>2026-04-26T13:34:55.064Z</time></trkpt><trkpt lat="37.9180695" lon="15.0118782"><ele>648.0</ele><time>2026-04-26T13:34:56.078Z</time></trkpt><trkpt lat="37.917994" lon="15.0118604"><ele>648.0</ele><time>2026-04-26T13:34:57.077Z</time></trkpt><trkpt lat="37.9179206" lon="15.0118749"><ele>648.0</ele><time>2026-04-26T13:34:58.081Z</time></trkpt><trkpt lat="37.9178535" lon="15.0119157"><ele>648.0</ele><time>2026-04-26T13:34:59.097Z</time></trkpt><trkpt lat="37.9177913" lon="15.0119846"><ele>648.0</ele><time>2026-04-26T13:35:00.064Z</time></trkpt><trkpt lat="37.9177345" lon="15.0120739"><ele>648.0</ele><time>2026-04-26T13:35:01.094Z</time></trkpt><trkpt lat="37.9176788" lon="15.0121871"><ele>648.0</ele><time>2026-04-26T13:35:02.059Z</time></trkpt><trkpt lat="37.917621" lon="15.0123077"><ele>648.0</ele><time>2026-04-26T13:35:03.058Z</time></trkpt><trkpt lat="37.9175695" lon="15.0124258"><ele>648.0</ele><time>2026-04-26T13:35:04.057Z</time></trkpt><trkpt lat="37.9175274" lon="15.0125483"><ele>648.0</ele><time>2026-04-26T13:35:05.059Z</time></trkpt><trkpt lat="37.9174906" lon="15.0126672"><ele>648.0</ele><time>2026-04-26T13:35:06.055Z</time></trkpt><trkpt lat="37.9174785" lon="15.0127753"><ele>648.0</ele><time>2026-04-26T13:35:07.05Z</time></trkpt><trkpt lat="37.9174816" lon="15.012881"><ele>648.2</ele><time>2026-04-26T13:35:08.063Z</time></trkpt><trkpt lat="37.9174932" lon="15.0129908"><ele>648.4</ele><time>2026-04-26T13:35:09.093Z</time></trkpt><trkpt lat="37.9175177" lon="15.0131037"><ele>648.6</ele><time>2026-04-26T13:35:10.08Z</time></trkpt><trkpt lat="37.9175461" lon="15.0132229"><ele>648.8000000000001</ele><time>2026-04-26T13:35:11.097Z</time></trkpt><trkpt lat="37.9175705" lon="15.0133464"><ele>649.0</ele><time>2026-04-26T13:35:12.082Z</time></trkpt><trkpt lat="37.9175896" lon="15.0134703"><ele>649.8000000000001</ele><time>2026-04-26T13:35:13.079Z</time></trkpt><trkpt lat="37.9175944" lon="15.0135973"><ele>650.6</ele><time>2026-04-26T13:35:14.079Z</time></trkpt><trkpt lat="37.9175868" lon="15.0137263"><ele>651.4</ele><time>2026-04-26T13:35:15.104Z</time></trkpt><trkpt lat="37.91757" lon="15.0138542"><ele>652.2</ele><time>2026-04-26T13:35:16.066Z</time></trkpt><trkpt lat="37.9175495" lon="15.0139745"><ele>653.0</ele><time>2026-04-26T13:35:17.095Z</time></trkpt><trkpt lat="37.9175308" lon="15.0140996"><ele>652.8</ele><time>2026-04-26T13:35:18.084Z</time></trkpt><trkpt lat="37.9175146" lon="15.0142255"><ele>652.5999999999999</ele><time>2026-04-26T13:35:19.081Z</time></trkpt><trkpt lat="37.917497" lon="15.0143531"><ele>652.4000000000001</ele><time>2026-04-26T13:35:20.079Z</time></trkpt><trkpt lat="37.9174823" lon="15.0144771"><ele>652.2</ele><time>2026-04-26T13:35:21.081Z</time></trkpt><trkpt lat="37.9174671" lon="15.0145985"><ele>652.0</ele><time>2026-04-26T13:35:22.081Z</time></trkpt><trkpt lat="37.917447" lon="15.0147233"><ele>652.0</ele><time>2026-04-26T13:35:23.057Z</time></trkpt><trkpt lat="37.917415" lon="15.014835"><ele>652.0</ele><time>2026-04-26T13:35:24.063Z</time></trkpt><trkpt lat="37.9173659" lon="15.0149241"><ele>652.0</ele><time>2026-04-26T13:35:25.097Z</time></trkpt><trkpt lat="37.9173026" lon="15.0149919"><ele>652.0</ele><time>2026-04-26T13:35:26.093Z</time></trkpt><trkpt lat="37.9172176" lon="15.0150438"><ele>652.0</ele><time>2026-04-26T13:35:27.057Z</time></trkpt><trkpt lat="37.9171313" lon="15.0150671"><ele>652.0</ele><time>2026-04-26T13:35:28.079Z</time></trkpt><trkpt lat="37.9170405" lon="15.0150935"><ele>652.4000000000001</ele><time>2026-04-26T13:35:29.063Z</time></trkpt><trkpt lat="37.9169521" lon="15.0151252"><ele>652.8000000000001</ele><time>2026-04-26T13:35:30.063Z</time></trkpt><trkpt lat="37.9168641" lon="15.015168"><ele>653.2</ele><time>2026-04-26T13:35:31.078Z</time></trkpt><trkpt lat="37.9167743" lon="15.0152155"><ele>653.6</ele><time>2026-04-26T13:35:32.065Z</time></trkpt><trkpt lat="37.916686" lon="15.0152625"><ele>654.0</ele><time>2026-04-26T13:35:33.079Z</time></trkpt><trkpt lat="37.9166062" lon="15.0153261"><ele>653.4000000000001</ele><time>2026-04-26T13:35:34.076Z</time></trkpt><trkpt lat="37.916537" lon="15.0154097"><ele>652.8</ele><time>2026-04-26T13:35:35.076Z</time></trkpt><trkpt lat="37.9164779" lon="15.0155132"><ele>652.2</ele><time>2026-04-26T13:35:36.057Z</time></trkpt><trkpt lat="37.916429" lon="15.0156346"><ele>651.5999999999999</ele><time>2026-04-26T13:35:37.061Z</time></trkpt><trkpt lat="37.916386" lon="15.0157587"><ele>651.0</ele><time>2026-04-26T13:35:38.077Z</time></trkpt><trkpt lat="37.9163388" lon="15.0158757"><ele>651.0</ele><time>2026-04-26T13:35:39.078Z</time></trkpt><trkpt lat="37.9162847" lon="15.0159768"><ele>651.0</ele><time>2026-04-26T13:35:40.079Z</time></trkpt><trkpt lat="37.9162159" lon="15.0160585"><ele>651.0</ele><time>2026-04-26T13:35:41.079Z</time></trkpt><trkpt lat="37.9161423" lon="15.0161099"><ele>651.0</ele><time>2026-04-26T13:35:42.056Z</time></trkpt><trkpt lat="37.9160646" lon="15.0161406"><ele>651.0</ele><time>2026-04-26T13:35:43.069Z</time></trkpt><trkpt lat="37.9159826" lon="15.0161474"><ele>651.0</ele><time>2026-04-26T13:35:44.08Z</time></trkpt><trkpt lat="37.9158863" lon="15.0161403"><ele>648.75</ele><time>2026-04-26T13:35:45.07Z</time></trkpt><trkpt lat="37.9157787" lon="15.0161127"><ele>646.5</ele><time>2026-04-26T13:35:46.07Z</time></trkpt><trkpt lat="37.9156639" lon="15.0160827"><ele>644.25</ele><time>2026-04-26T13:35:47.066Z</time></trkpt><trkpt lat="37.9155381" lon="15.0160452"><ele>642.0</ele><time>2026-04-26T13:35:48.081Z</time></trkpt><trkpt lat="37.9154035" lon="15.0160053"><ele>642.0</ele><time>2026-04-26T13:35:49.079Z</time></trkpt><trkpt lat="37.9152707" lon="15.0159637"><ele>642.0</ele><time>2026-04-26T13:35:50.102Z</time></trkpt><trkpt lat="37.9151432" lon="15.015919"><ele>642.0</ele><time>2026-04-26T13:35:51.063Z</time></trkpt><trkpt lat="37.9150227" lon="15.0158752"><ele>642.0</ele><time>2026-04-26T13:35:52.079Z</time></trkpt><trkpt lat="37.9149045" lon="15.0158344"><ele>639.6</ele><time>2026-04-26T13:35:53.066Z</time></trkpt><trkpt lat="37.9147925" lon="15.0157968"><ele>637.2</ele><time>2026-04-26T13:35:54.08Z</time></trkpt><trkpt lat="37.9146914" lon="15.0157603"><ele>634.8</ele><time>2026-04-26T13:35:55.067Z</time></trkpt><trkpt lat="37.9145997" lon="15.0157279"><ele>632.4</ele><time>2026-04-26T13:35:56.096Z</time></trkpt><trkpt lat="37.9145158" lon="15.015708"><ele>630.0</ele><time>2026-04-26T13:35:57.077Z</time></trkpt><trkpt lat="37.9144385" lon="15.0157064"><ele>630.0</ele><time>2026-04-26T13:35:58.065Z</time></trkpt><trkpt lat="37.9143688" lon="15.0157316"><ele>630.0</ele><time>2026-04-26T13:35:59.063Z</time></trkpt><trkpt lat="37.9143015" lon="15.0157885"><ele>630.0</ele><time>2026-04-26T13:36:00.058Z</time></trkpt><trkpt lat="37.9142467" lon="15.0158686"><ele>630.0</ele><time>2026-04-26T13:36:01.077Z</time></trkpt><trkpt lat="37.9141991" lon="15.015972"><ele>630.0</ele><time>2026-04-26T13:36:02.064Z</time></trkpt><trkpt lat="37.9141579" lon="15.0160938"><ele>630.0</ele><time>2026-04-26T13:36:03.077Z</time></trkpt><trkpt lat="37.9141272" lon="15.0162344"><ele>632.5</ele><time>2026-04-26T13:36:04.077Z</time></trkpt><trkpt lat="37.9140908" lon="15.0163887"><ele>635.0</ele><time>2026-04-26T13:36:05.073Z</time></trkpt><trkpt lat="37.914047" lon="15.0165569"><ele>637.5</ele><time>2026-04-26T13:36:06.079Z</time></trkpt><trkpt lat="37.9140002" lon="15.016732"><ele>640.0</ele><time>2026-04-26T13:36:07.064Z</time></trkpt><trkpt lat="37.9139576" lon="15.0169006"><ele>641.25</ele><time>2026-04-26T13:36:08.077Z</time></trkpt><trkpt lat="37.9139172" lon="15.0170586"><ele>642.5</ele><time>2026-04-26T13:36:09.071Z</time></trkpt><trkpt lat="37.9138785" lon="15.017204"><ele>643.75</ele><time>2026-04-26T13:36:10.079Z</time></trkpt><trkpt lat="37.9138491" lon="15.0173363"><ele>645.0</ele><time>2026-04-26T13:36:11.059Z</time></trkpt><trkpt lat="37.9138317" lon="15.017457"><ele>644.5</ele><time>2026-04-26T13:36:12.079Z</time></trkpt><trkpt lat="37.913833" lon="15.0175689"><ele>644.0</ele><time>2026-04-26T13:36:13.087Z</time></trkpt><trkpt lat="37.9138452" lon="15.017674"><ele>643.5</ele><time>2026-04-26T13:36:14.078Z</time></trkpt><trkpt lat="37.9138751" lon="15.0177659"><ele>643.0</ele><time>2026-04-26T13:36:15.087Z</time></trkpt><trkpt lat="37.9139236" lon="15.017845"><ele>642.5</ele><time>2026-04-26T13:36:16.07Z</time></trkpt><trkpt lat="37.9139893" lon="15.0179278"><ele>642.0</ele><time>2026-04-26T13:36:17.093Z</time></trkpt><trkpt lat="37.9140708" lon="15.018009"><ele>642.0</ele><time>2026-04-26T13:36:18.062Z</time></trkpt><trkpt lat="37.9141656" lon="15.0181001"><ele>642.0</ele><time>2026-04-26T13:36:19.059Z</time></trkpt><trkpt lat="37.9142734" lon="15.0182065"><ele>642.0</ele><time>2026-04-26T13:36:20.102Z</time></trkpt><trkpt lat="37.9143776" lon="15.0183205"><ele>642.0</ele><time>2026-04-26T13:36:21.081Z</time></trkpt><trkpt lat="37.9144797" lon="15.0184333"><ele>641.0</ele><time>2026-04-26T13:36:22.08Z</time></trkpt><trkpt lat="37.9145787" lon="15.0185421"><ele>640.0</ele><time>2026-04-26T13:36:23.081Z</time></trkpt><trkpt lat="37.9146743" lon="15.0186465"><ele>639.0</ele><time>2026-04-26T13:36:24.065Z</time></trkpt><trkpt lat="37.9147659" lon="15.0187512"><ele>638.0</ele><time>2026-04-26T13:36:25.099Z</time></trkpt><trkpt lat="37.9148459" lon="15.0188474"><ele>638.0</ele><time>2026-04-26T13:36:26.102Z</time></trkpt><trkpt lat="37.9149176" lon="15.0189392"><ele>638.0</ele><time>2026-04-26T13:36:27.073Z</time></trkpt><trkpt lat="37.9149757" lon="15.0190363"><ele>638.0</ele><time>2026-04-26T13:36:28.081Z</time></trkpt><trkpt lat="37.9150151" lon="15.019135"><ele>638.0</ele><time>2026-04-26T13:36:29.079Z</time></trkpt><trkpt lat="37.9150336" lon="15.0192373"><ele>638.0</ele><time>2026-04-26T13:36:30.085Z</time></trkpt><trkpt lat="37.9150298" lon="15.0193386"><ele>638.0</ele><time>2026-04-26T13:36:31.084Z</time></trkpt><trkpt lat="37.9150004" lon="15.0194319"><ele>636.1999999999999</ele><time>2026-04-26T13:36:32.08Z</time></trkpt><trkpt lat="37.9149534" lon="15.0195274"><ele>634.4</ele><time>2026-04-26T13:36:33.079Z</time></trkpt><trkpt lat="37.9148911" lon="15.0196236"><ele>632.5999999999999</ele><time>2026-04-26T13:36:34.08Z</time></trkpt><trkpt lat="37.9148216" lon="15.0197138"><ele>630.8</ele><time>2026-04-26T13:36:35.062Z</time></trkpt><trkpt lat="37.9147435" lon="15.0197829"><ele>629.0</ele><time>2026-04-26T13:36:36.078Z</time></trkpt><trkpt lat="37.9146538" lon="15.0198298"><ele>629.0</ele><time>2026-04-26T13:36:37.082Z</time></trkpt><trkpt lat="37.9145567" lon="15.01986"><ele>629.0</ele><time>2026-04-26T13:36:38.079Z</time></trkpt><trkpt lat="37.9144497" lon="15.0198771"><ele>629.0</ele><time>2026-04-26T13:36:39.066Z</time></trkpt><trkpt lat="37.9143337" lon="15.0198895"><ele>629.0</ele><time>2026-04-26T13:36:40.066Z</time></trkpt><trkpt lat="37.9142158" lon="15.0198974"><ele>629.0</ele><time>2026-04-26T13:36:41.08Z</time></trkpt><trkpt lat="37.9141024" lon="15.0199029"><ele>629.0</ele><time>2026-04-26T13:36:42.075Z</time></trkpt><trkpt lat="37.9139901" lon="15.0199158"><ele>629.0</ele><time>2026-04-26T13:36:43.081Z</time></trkpt><trkpt lat="37.9138834" lon="15.0199444"><ele>629.0</ele><time>2026-04-26T13:36:44.093Z</time></trkpt><trkpt lat="37.913785" lon="15.0199917"><ele>629.0</ele><time>2026-04-26T13:36:45.107Z</time></trkpt><trkpt lat="37.9136876" lon="15.0200618"><ele>629.0</ele><time>2026-04-26T13:36:46.066Z</time></trkpt><trkpt lat="37.9135854" lon="15.0201507"><ele>629.0</ele><time>2026-04-26T13:36:47.08Z</time></trkpt><trkpt lat="37.9134828" lon="15.0202433"><ele>629.0</ele><time>2026-04-26T13:36:48.084Z</time></trkpt><trkpt lat="37.9133818" lon="15.0203325"><ele>629.0</ele><time>2026-04-26T13:36:49.065Z</time></trkpt><trkpt lat="37.9132825" lon="15.0204199"><ele>629.0</ele><time>2026-04-26T13:36:50.078Z</time></trkpt><trkpt lat="37.9131859" lon="15.0204972"><ele>629.0</ele><time>2026-04-26T13:36:51.095Z</time></trkpt><trkpt lat="37.9130955" lon="15.0205665"><ele>629.0</ele><time>2026-04-26T13:36:52.096Z</time></trkpt><trkpt lat="37.9130096" lon="15.0206326"><ele>629.0</ele><time>2026-04-26T13:36:53.057Z</time></trkpt><trkpt lat="37.9129247" lon="15.0207005"><ele>629.0</ele><time>2026-04-26T13:36:54.097Z</time></trkpt><trkpt lat="37.9128483" lon="15.0207673"><ele>629.0</ele><time>2026-04-26T13:36:55.079Z</time></trkpt><trkpt lat="37.9127823" lon="15.0208307"><ele>629.0</ele><time>2026-04-26T13:36:56.077Z</time></trkpt><trkpt lat="37.9127359" lon="15.0208984"><ele>629.0</ele><time>2026-04-26T13:36:57.059Z</time></trkpt><trkpt lat="37.912711" lon="15.0209759"><ele>629.0</ele><time>2026-04-26T13:36:58.079Z</time></trkpt><trkpt lat="37.9127005" lon="15.021071"><ele>629.0</ele><time>2026-04-26T13:36:59.079Z</time></trkpt><trkpt lat="37.9126928" lon="15.0211864"><ele>629.0</ele><time>2026-04-26T13:37:00.068Z</time></trkpt><trkpt lat="37.9126884" lon="15.0213198"><ele>629.0</ele><time>2026-04-26T13:37:01.098Z</time></trkpt><trkpt lat="37.9126875" lon="15.0214539"><ele>629.0</ele><time>2026-04-26T13:37:02.064Z</time></trkpt><trkpt lat="37.9126743" lon="15.0215813"><ele>629.0</ele><time>2026-04-26T13:37:03.068Z</time></trkpt><trkpt lat="37.9126388" lon="15.0216981"><ele>629.0</ele><time>2026-04-26T13:37:04.062Z</time></trkpt><trkpt lat="37.9125783" lon="15.0217934"><ele>629.0</ele><time>2026-04-26T13:37:05.08Z</time></trkpt><trkpt lat="37.9125068" lon="15.0218618"><ele>629.0</ele><time>2026-04-26T13:37:06.086Z</time></trkpt><trkpt lat="37.9124281" lon="15.0219153"><ele>626.6</ele><time>2026-04-26T13:37:07.078Z</time></trkpt><trkpt lat="37.9123465" lon="15.0219681"><ele>624.2</ele><time>2026-04-26T13:37:08.079Z</time></trkpt><trkpt lat="37.9122648" lon="15.0220281"><ele>621.8000000000001</ele><time>2026-04-26T13:37:09.081Z</time></trkpt><trkpt lat="37.912184" lon="15.0220951"><ele>619.4</ele><time>2026-04-26T13:37:10.091Z</time></trkpt><trkpt lat="37.912107" lon="15.0221629"><ele>617.0</ele><time>2026-04-26T13:37:11.091Z</time></trkpt><trkpt lat="37.9120325" lon="15.022228"><ele>617.0</ele><time>2026-04-26T13:37:12.078Z</time></trkpt><trkpt lat="37.9119588" lon="15.0222925"><ele>617.0</ele><time>2026-04-26T13:37:13.088Z</time></trkpt><trkpt lat="37.9118885" lon="15.0223578"><ele>617.0</ele><time>2026-04-26T13:37:14.081Z</time></trkpt><trkpt lat="37.9118169" lon="15.0224144"><ele>617.0</ele><time>2026-04-26T13:37:15.089Z</time></trkpt><trkpt lat="37.9117401" lon="15.0224532"><ele>617.0</ele><time>2026-04-26T13:37:16.068Z</time></trkpt><trkpt lat="37.9116543" lon="15.0224729"><ele>617.0</ele><time>2026-04-26T13:37:17.081Z</time></trkpt><trkpt lat="37.9115664" lon="15.0224668"><ele>614.6</ele><time>2026-04-26T13:37:18.069Z</time></trkpt><trkpt lat="37.9114828" lon="15.0224381"><ele>612.2</ele><time>2026-04-26T13:37:19.064Z</time></trkpt><trkpt lat="37.9114025" lon="15.0223881"><ele>609.8</ele><time>2026-04-26T13:37:20.08Z</time></trkpt><trkpt lat="37.9113217" lon="15.0223213"><ele>607.4</ele><time>2026-04-26T13:37:21.068Z</time></trkpt><trkpt lat="37.911233" lon="15.0222501"><ele>605.0</ele><time>2026-04-26T13:37:22.079Z</time></trkpt><trkpt lat="37.9111342" lon="15.022186"><ele>605.0</ele><time>2026-04-26T13:37:23.073Z</time></trkpt><trkpt lat="37.9110371" lon="15.0221189"><ele>605.0</ele><time>2026-04-26T13:37:24.095Z</time></trkpt><trkpt lat="37.9109514" lon="15.0220478"><ele>605.0</ele><time>2026-04-26T13:37:25.085Z</time></trkpt><trkpt lat="37.9108642" lon="15.0219878"><ele>605.0</ele><time>2026-04-26T13:37:26.067Z</time></trkpt><trkpt lat="37.9107702" lon="15.0219461"><ele>605.0</ele><time>2026-04-26T13:37:27.085Z</time></trkpt><trkpt lat="37.910677" lon="15.0219236"><ele>604.4</ele><time>2026-04-26T13:37:28.097Z</time></trkpt><trkpt lat="37.910582" lon="15.0219286"><ele>603.8</ele><time>2026-04-26T13:37:29.103Z</time></trkpt><trkpt lat="37.9104917" lon="15.0219568"><ele>603.2</ele><time>2026-04-26T13:37:30.099Z</time></trkpt><trkpt lat="37.9103905" lon="15.0220009"><ele>602.6</ele><time>2026-04-26T13:37:31.077Z</time></trkpt><trkpt lat="37.9102818" lon="15.022057"><ele>602.0</ele><time>2026-04-26T13:37:32.059Z</time></trkpt><trkpt lat="37.9101581" lon="15.0221023"><ele>601.0</ele><time>2026-04-26T13:37:33.098Z</time></trkpt><trkpt lat="37.9100312" lon="15.0221283"><ele>600.0</ele><time>2026-04-26T13:37:34.095Z</time></trkpt><trkpt lat="37.9099079" lon="15.0221413"><ele>599.0</ele><time>2026-04-26T13:37:35.081Z</time></trkpt><trkpt lat="37.9097837" lon="15.0221487"><ele>598.0</ele><time>2026-04-26T13:37:36.065Z</time></trkpt><trkpt lat="37.9096671" lon="15.0221543"><ele>598.0</ele><time>2026-04-26T13:37:37.056Z</time></trkpt><trkpt lat="37.9095524" lon="15.0221758"><ele>598.0</ele><time>2026-04-26T13:37:38.095Z</time></trkpt><trkpt lat="37.909444" lon="15.0222086"><ele>598.0</ele><time>2026-04-26T13:37:39.097Z</time></trkpt><trkpt lat="37.9093431" lon="15.0222472"><ele>598.0</ele><time>2026-04-26T13:37:40.097Z</time></trkpt><trkpt lat="37.9092483" lon="15.0222834"><ele>598.0</ele><time>2026-04-26T13:37:41.079Z</time></trkpt><trkpt lat="37.9091549" lon="15.0223064"><ele>597.3333333333334</ele><time>2026-04-26T13:37:42.096Z</time></trkpt><trkpt lat="37.9090697" lon="15.0223062"><ele>596.6666666666667</ele><time>2026-04-26T13:37:43.059Z</time></trkpt><trkpt lat="37.908993" lon="15.0222796"><ele>596.0</ele><time>2026-04-26T13:37:44.074Z</time></trkpt><trkpt lat="37.9089348" lon="15.0222242"><ele>595.3333333333334</ele><time>2026-04-26T13:37:45.068Z</time></trkpt><trkpt lat="37.9088908" lon="15.0221443"><ele>594.6666666666666</ele><time>2026-04-26T13:37:46.079Z</time></trkpt><trkpt lat="37.9088572" lon="15.0220426"><ele>594.0</ele><time>2026-04-26T13:37:47.065Z</time></trkpt><trkpt lat="37.9088353" lon="15.0219151"><ele>594.0</ele><time>2026-04-26T13:37:48.078Z</time></trkpt><trkpt lat="37.9088102" lon="15.0217688"><ele>594.0</ele><time>2026-04-26T13:37:49.095Z</time></trkpt><trkpt lat="37.9087783" lon="15.0216249"><ele>594.0</ele><time>2026-04-26T13:37:50.081Z</time></trkpt><trkpt lat="37.9087441" lon="15.0214851"><ele>594.0</ele><time>2026-04-26T13:37:51.064Z</time></trkpt><trkpt lat="37.9086997" lon="15.021363"><ele>593.2</ele><time>2026-04-26T13:37:52.098Z</time></trkpt><trkpt lat="37.9086423" lon="15.0212662"><ele>592.4</ele><time>2026-04-26T13:37:53.07Z</time></trkpt><trkpt lat="37.90857" lon="15.0211846"><ele>591.6</ele><time>2026-04-26T13:37:54.098Z</time></trkpt><trkpt lat="37.9084821" lon="15.0211161"><ele>590.8</ele><time>2026-04-26T13:37:55.1Z</time></trkpt><trkpt lat="37.90838" lon="15.021049"><ele>590.0</ele><time>2026-04-26T13:37:56.077Z</time></trkpt><trkpt lat="37.9082741" lon="15.0209801"><ele>590.0</ele><time>2026-04-26T13:37:57.079Z</time></trkpt><trkpt lat="37.908171" lon="15.0209166"><ele>590.0</ele><time>2026-04-26T13:37:58.068Z</time></trkpt><trkpt lat="37.908068" lon="15.0208616"><ele>590.0</ele><time>2026-04-26T13:37:59.083Z</time></trkpt><trkpt lat="37.9079684" lon="15.020812"><ele>590.0</ele><time>2026-04-26T13:38:00.075Z</time></trkpt><trkpt lat="37.9078737" lon="15.0207586"><ele>590.0</ele><time>2026-04-26T13:38:01.069Z</time></trkpt><trkpt lat="37.9077789" lon="15.020705"><ele>588.4</ele><time>2026-04-26T13:38:02.093Z</time></trkpt><trkpt lat="37.9076889" lon="15.0206511"><ele>586.8</ele><time>2026-04-26T13:38:03.082Z</time></trkpt><trkpt lat="37.9076004" lon="15.0205991"><ele>585.2</ele><time>2026-04-26T13:38:04.077Z</time></trkpt><trkpt lat="37.9075137" lon="15.0205496"><ele>583.6</ele><time>2026-04-26T13:38:05.094Z</time></trkpt><trkpt lat="37.9074303" lon="15.0205061"><ele>582.0</ele><time>2026-04-26T13:38:06.062Z</time></trkpt><trkpt lat="37.9073456" lon="15.020472"><ele>582.0</ele><time>2026-04-26T13:38:07.08Z</time></trkpt><trkpt lat="37.9072618" lon="15.0204588"><ele>582.0</ele><time>2026-04-26T13:38:08.082Z</time></trkpt><trkpt lat="37.9071798" lon="15.0204783"><ele>582.0</ele><time>2026-04-26T13:38:09.097Z</time></trkpt><trkpt lat="37.9070912" lon="15.0205318"><ele>582.0</ele><time>2026-04-26T13:38:10.083Z</time></trkpt><trkpt lat="37.9069971" lon="15.0205982"><ele>582.0</ele><time>2026-04-26T13:38:11.057Z</time></trkpt><trkpt lat="37.906904" lon="15.0206648"><ele>582.0</ele><time>2026-04-26T13:38:12.056Z</time></trkpt><trkpt lat="37.9068139" lon="15.0207294"><ele>582.0</ele><time>2026-04-26T13:38:13.059Z</time></trkpt><trkpt lat="37.906729" lon="15.0207994"><ele>582.0</ele><time>2026-04-26T13:38:14.056Z</time></trkpt><trkpt lat="37.9066435" lon="15.0208669"><ele>582.0</ele><time>2026-04-26T13:38:15.063Z</time></trkpt><trkpt lat="37.9065606" lon="15.0209227"><ele>582.0</ele><time>2026-04-26T13:38:16.056Z</time></trkpt><trkpt lat="37.9064814" lon="15.0209648"><ele>581.8333333333334</ele><time>2026-04-26T13:38:17.056Z</time></trkpt><trkpt lat="37.9064054" lon="15.0209775"><ele>581.6666666666666</ele><time>2026-04-26T13:38:18.056Z</time></trkpt><trkpt lat="37.9063329" lon="15.0209625"><ele>581.5</ele><time>2026-04-26T13:38:19.064Z</time></trkpt><trkpt lat="37.9062695" lon="15.0209148"><ele>581.3333333333333</ele><time>2026-04-26T13:38:20.083Z</time></trkpt><trkpt lat="37.9062213" lon="15.0208471"><ele>581.1666666666666</ele><time>2026-04-26T13:38:21.055Z</time></trkpt><trkpt lat="37.9061867" lon="15.0207613"><ele>581.0</ele><time>2026-04-26T13:38:22.057Z</time></trkpt><trkpt lat="37.9061491" lon="15.0206661"><ele>581.0</ele><time>2026-04-26T13:38:23.058Z</time></trkpt><trkpt lat="37.9060962" lon="15.0205812"><ele>581.0</ele><time>2026-04-26T13:38:24.057Z</time></trkpt><trkpt lat="37.9060355" lon="15.0205204"><ele>581.0</ele><time>2026-04-26T13:38:25.058Z</time></trkpt><trkpt lat="37.9059644" lon="15.0204925"><ele>581.0</ele><time>2026-04-26T13:38:26.058Z</time></trkpt><trkpt lat="37.9058813" lon="15.0204942"><ele>581.0</ele><time>2026-04-26T13:38:27.057Z</time></trkpt><trkpt lat="37.9057837" lon="15.0205195"><ele>581.0</ele><time>2026-04-26T13:38:28.084Z</time></trkpt><trkpt lat="37.9056732" lon="15.0205542"><ele>579.0</ele><time>2026-04-26T13:38:29.065Z</time></trkpt><trkpt lat="37.9055468" lon="15.0205833"><ele>577.0</ele><time>2026-04-26T13:38:30.066Z</time></trkpt><trkpt lat="37.9054226" lon="15.0206089"><ele>575.0</ele><time>2026-04-26T13:38:31.058Z</time></trkpt><trkpt lat="37.9053129" lon="15.0206362"><ele>573.0</ele><time>2026-04-26T13:38:32.079Z</time></trkpt><trkpt lat="37.9052154" lon="15.0206724"><ele>573.0</ele><time>2026-04-26T13:38:33.064Z</time></trkpt><trkpt lat="37.9051295" lon="15.0207205"><ele>573.0</ele><time>2026-04-26T13:38:34.063Z</time></trkpt><trkpt lat="37.9050584" lon="15.0207866"><ele>573.0</ele><time>2026-04-26T13:38:35.058Z</time></trkpt><trkpt lat="37.9049959" lon="15.0208773"><ele>573.0</ele><time>2026-04-26T13:38:36.059Z</time></trkpt><trkpt lat="37.9049326" lon="15.0209901"><ele>573.0</ele><time>2026-04-26T13:38:37.067Z</time></trkpt><trkpt lat="37.9048676" lon="15.0211184"><ele>574.75</ele><time>2026-04-26T13:38:38.066Z</time></trkpt><trkpt lat="37.9047964" lon="15.0212468"><ele>576.5</ele><time>2026-04-26T13:38:39.086Z</time></trkpt><trkpt lat="37.9047175" lon="15.021363"><ele>578.25</ele><time>2026-04-26T13:38:40.082Z</time></trkpt><trkpt lat="37.9046273" lon="15.0214688"><ele>580.0</ele><time>2026-04-26T13:38:41.082Z</time></trkpt><trkpt lat="37.9045225" lon="15.0215721"><ele>581.5</ele><time>2026-04-26T13:38:42.078Z</time></trkpt><trkpt lat="37.9044103" lon="15.0216763"><ele>583.0</ele><time>2026-04-26T13:38:43.083Z</time></trkpt><trkpt lat="37.9042944" lon="15.0217796"><ele>584.5</ele><time>2026-04-26T13:38:44.077Z</time></trkpt><trkpt lat="37.9041755" lon="15.0218874"><ele>586.0</ele><time>2026-04-26T13:38:45.088Z</time></trkpt><trkpt lat="37.9040582" lon="15.0219933"><ele>582.75</ele><time>2026-04-26T13:38:46.079Z</time></trkpt><trkpt lat="37.9039436" lon="15.0220972"><ele>579.5</ele><time>2026-04-26T13:38:47.068Z</time></trkpt><trkpt lat="37.9038288" lon="15.0222006"><ele>576.25</ele><time>2026-04-26T13:38:48.063Z</time></trkpt><trkpt lat="37.903706" lon="15.0223067"><ele>573.0</ele><time>2026-04-26T13:38:49.076Z</time></trkpt><trkpt lat="37.9035766" lon="15.0224123"><ele>572.5</ele><time>2026-04-26T13:38:50.071Z</time></trkpt><trkpt lat="37.903448" lon="15.0225112"><ele>572.0</ele><time>2026-04-26T13:38:51.056Z</time></trkpt><trkpt lat="37.9033257" lon="15.0226048"><ele>571.5</ele><time>2026-04-26T13:38:52.082Z</time></trkpt><trkpt lat="37.9032138" lon="15.0226924"><ele>571.0</ele><time>2026-04-26T13:38:53.082Z</time></trkpt><trkpt lat="37.9031108" lon="15.0227862"><ele>571.0</ele><time>2026-04-26T13:38:54.065Z</time></trkpt><trkpt lat="37.9030118" lon="15.0228951"><ele>571.0</ele><time>2026-04-26T13:38:55.066Z</time></trkpt><trkpt lat="37.9029195" lon="15.0230206"><ele>571.0</ele><time>2026-04-26T13:38:56.093Z</time></trkpt><trkpt lat="37.9028329" lon="15.0231601"><ele>571.0</ele><time>2026-04-26T13:38:57.061Z</time></trkpt><trkpt lat="37.9027473" lon="15.0233162"><ele>569.75</ele><time>2026-04-26T13:38:58.058Z</time></trkpt><trkpt lat="37.9026619" lon="15.0234802"><ele>568.5</ele><time>2026-04-26T13:38:59.074Z</time></trkpt><trkpt lat="37.902577" lon="15.0236389"><ele>567.25</ele><time>2026-04-26T13:39:00.078Z</time></trkpt><trkpt lat="37.9024966" lon="15.0237871"><ele>566.0</ele><time>2026-04-26T13:39:01.056Z</time></trkpt><trkpt lat="37.9024135" lon="15.023929"><ele>566.0</ele><time>2026-04-26T13:39:02.097Z</time></trkpt><trkpt lat="37.9023266" lon="15.0240512"><ele>566.0</ele><time>2026-04-26T13:39:03.064Z</time></trkpt><trkpt lat="37.9022272" lon="15.0241671"><ele>566.0</ele><time>2026-04-26T13:39:04.094Z</time></trkpt><trkpt lat="37.9021186" lon="15.0242836"><ele>566.0</ele><time>2026-04-26T13:39:05.08Z</time></trkpt><trkpt lat="37.9020013" lon="15.0244061"><ele>565.0</ele><time>2026-04-26T13:39:06.094Z</time></trkpt><trkpt lat="37.9018812" lon="15.0245258"><ele>564.0</ele><time>2026-04-26T13:39:07.081Z</time></trkpt><trkpt lat="37.901757" lon="15.0246393"><ele>563.0</ele><time>2026-04-26T13:39:08.063Z</time></trkpt><trkpt lat="37.9016359" lon="15.024751"><ele>563.0</ele><time>2026-04-26T13:39:09.081Z</time></trkpt><trkpt lat="37.9015231" lon="15.0248605"><ele>563.0</ele><time>2026-04-26T13:39:10.091Z</time></trkpt><trkpt lat="37.9014125" lon="15.0249607"><ele>563.0</ele><time>2026-04-26T13:39:11.08Z</time></trkpt><trkpt lat="37.9012968" lon="15.0250499"><ele>563.0</ele><time>2026-04-26T13:39:12.079Z</time></trkpt><trkpt lat="37.9011671" lon="15.0251223"><ele>562.25</ele><time>2026-04-26T13:39:13.078Z</time></trkpt><trkpt lat="37.9010305" lon="15.0251898"><ele>561.5</ele><time>2026-04-26T13:39:14.092Z</time></trkpt><trkpt lat="37.9008915" lon="15.0252523"><ele>560.75</ele><time>2026-04-26T13:39:15.084Z</time></trkpt><trkpt lat="37.9007435" lon="15.025312"><ele>560.0</ele><time>2026-04-26T13:39:16.059Z</time></trkpt><trkpt lat="37.9005925" lon="15.0253737"><ele>560.0</ele><time>2026-04-26T13:39:17.055Z</time></trkpt><trkpt lat="37.9004446" lon="15.0254319"><ele>560.0</ele><time>2026-04-26T13:39:18.067Z</time></trkpt><trkpt lat="37.9003035" lon="15.0254874"><ele>560.0</ele><time>2026-04-26T13:39:19.047Z</time></trkpt><trkpt lat="37.9001694" lon="15.0255414"><ele>560.0</ele><time>2026-04-26T13:39:20.068Z</time></trkpt><trkpt lat="37.9000414" lon="15.0255923"><ele>559.25</ele><time>2026-04-26T13:39:21.08Z</time></trkpt><trkpt lat="37.8999202" lon="15.0256427"><ele>558.5</ele><time>2026-04-26T13:39:22.057Z</time></trkpt><trkpt lat="37.899806" lon="15.025693"><ele>557.75</ele><time>2026-04-26T13:39:23.056Z</time></trkpt><trkpt lat="37.8996974" lon="15.0257411"><ele>557.0</ele><time>2026-04-26T13:39:24.065Z</time></trkpt><trkpt lat="37.8995872" lon="15.0257823"><ele>557.0</ele><time>2026-04-26T13:39:25.063Z</time></trkpt><trkpt lat="37.8994695" lon="15.0258111"><ele>557.0</ele><time>2026-04-26T13:39:26.077Z</time></trkpt><trkpt lat="37.8993504" lon="15.0258197"><ele>557.0</ele><time>2026-04-26T13:39:27.058Z</time></trkpt><trkpt lat="37.8992339" lon="15.0258179"><ele>557.0</ele><time>2026-04-26T13:39:28.061Z</time></trkpt><trkpt lat="37.8991231" lon="15.0258106"><ele>556.6</ele><time>2026-04-26T13:39:29.063Z</time></trkpt><trkpt lat="37.8990149" lon="15.025809"><ele>556.2</ele><time>2026-04-26T13:39:30.076Z</time></trkpt><trkpt lat="37.8989128" lon="15.025821"><ele>555.8</ele><time>2026-04-26T13:39:31.077Z</time></trkpt><trkpt lat="37.8988171" lon="15.0258504"><ele>555.4</ele><time>2026-04-26T13:39:32.078Z</time></trkpt><trkpt lat="37.8987296" lon="15.0259018"><ele>555.0</ele><time>2026-04-26T13:39:33.063Z</time></trkpt><trkpt lat="37.8986488" lon="15.0259745"><ele>554.75</ele><time>2026-04-26T13:39:34.088Z</time></trkpt><trkpt lat="37.8985775" lon="15.0260662"><ele>554.5</ele><time>2026-04-26T13:39:35.092Z</time></trkpt><trkpt lat="37.8985068" lon="15.0261759"><ele>554.25</ele><time>2026-04-26T13:39:36.078Z</time></trkpt><trkpt lat="37.8984377" lon="15.0262989"><ele>554.0</ele><time>2026-04-26T13:39:37.058Z</time></trkpt><trkpt lat="37.8983638" lon="15.0264334"><ele>554.0</ele><time>2026-04-26T13:39:38.092Z</time></trkpt><trkpt lat="37.8982813" lon="15.0265565"><ele>554.0</ele><time>2026-04-26T13:39:39.066Z</time></trkpt><trkpt lat="37.8981868" lon="15.0266679"><ele>554.0</ele><time>2026-04-26T13:39:40.092Z</time></trkpt><trkpt lat="37.8980862" lon="15.026766"><ele>554.0</ele><time>2026-04-26T13:39:41.067Z</time></trkpt><trkpt lat="37.8979727" lon="15.0268581"><ele>554.5</ele><time>2026-04-26T13:39:42.062Z</time></trkpt><trkpt lat="37.8978531" lon="15.0269462"><ele>555.0</ele><time>2026-04-26T13:39:43.067Z</time></trkpt><trkpt lat="37.8977417" lon="15.0270324"><ele>555.5</ele><time>2026-04-26T13:39:44.063Z</time></trkpt><trkpt lat="37.8976404" lon="15.0271149"><ele>556.0</ele><time>2026-04-26T13:39:45.109Z</time></trkpt><trkpt lat="37.89756" lon="15.0271955"><ele>556.0</ele><time>2026-04-26T13:39:46.069Z</time></trkpt><trkpt lat="37.8974922" lon="15.0272886"><ele>556.0</ele><time>2026-04-26T13:39:47.073Z</time></trkpt><trkpt lat="37.8974387" lon="15.0273942"><ele>556.0</ele><time>2026-04-26T13:39:48.067Z</time></trkpt><trkpt lat="37.8973924" lon="15.0275183"><ele>556.0</ele><time>2026-04-26T13:39:49.081Z</time></trkpt><trkpt lat="37.8973524" lon="15.0276559"><ele>556.0</ele><time>2026-04-26T13:39:50.067Z</time></trkpt><trkpt lat="37.8973207" lon="15.0278074"><ele>557.0</ele><time>2026-04-26T13:39:51.085Z</time></trkpt><trkpt lat="37.8972928" lon="15.0279583"><ele>558.0</ele><time>2026-04-26T13:39:52.057Z</time></trkpt><trkpt lat="37.897258" lon="15.0280997"><ele>559.0</ele><time>2026-04-26T13:39:53.079Z</time></trkpt><trkpt lat="37.8972252" lon="15.0282345"><ele>560.0</ele><time>2026-04-26T13:39:54.059Z</time></trkpt><trkpt lat="37.8972068" lon="15.0283656"><ele>560.4</ele><time>2026-04-26T13:39:55.057Z</time></trkpt><trkpt lat="37.8972012" lon="15.0284962"><ele>560.8</ele><time>2026-04-26T13:39:56.057Z</time></trkpt><trkpt lat="37.8972111" lon="15.0286283"><ele>561.2</ele><time>2026-04-26T13:39:57.056Z</time></trkpt><trkpt lat="37.8972383" lon="15.0287599"><ele>561.6</ele><time>2026-04-26T13:39:58.077Z</time></trkpt><trkpt lat="37.8972766" lon="15.0288953"><ele>562.0</ele><time>2026-04-26T13:39:59.104Z</time></trkpt><trkpt lat="37.8973215" lon="15.0290311"><ele>561.5</ele><time>2026-04-26T13:40:00.069Z</time></trkpt><trkpt lat="37.8973648" lon="15.0291697"><ele>561.0</ele><time>2026-04-26T13:40:01.059Z</time></trkpt><trkpt lat="37.8974081" lon="15.0293055"><ele>560.5</ele><time>2026-04-26T13:40:02.062Z</time></trkpt><trkpt lat="37.8974511" lon="15.0294375"><ele>560.0</ele><time>2026-04-26T13:40:03.051Z</time></trkpt><trkpt lat="37.8974901" lon="15.0295704"><ele>560.0</ele><time>2026-04-26T13:40:04.056Z</time></trkpt><trkpt lat="37.8975217" lon="15.0297037"><ele>560.0</ele><time>2026-04-26T13:40:05.048Z</time></trkpt><trkpt lat="37.8975461" lon="15.02984"><ele>560.0</ele><time>2026-04-26T13:40:06.064Z</time></trkpt><trkpt lat="37.8975678" lon="15.0299856"><ele>560.0</ele><time>2026-04-26T13:40:07.092Z</time></trkpt><trkpt lat="37.8975858" lon="15.0301415"><ele>558.5</ele><time>2026-04-26T13:40:08.08Z</time></trkpt><trkpt lat="37.8976018" lon="15.0303082"><ele>557.0</ele><time>2026-04-26T13:40:09.057Z</time></trkpt><trkpt lat="37.897616" lon="15.0304858"><ele>555.5</ele><time>2026-04-26T13:40:10.077Z</time></trkpt><trkpt lat="37.8976343" lon="15.0306679"><ele>554.0</ele><time>2026-04-26T13:40:11.064Z</time></trkpt><trkpt lat="37.8976583" lon="15.0308573"><ele>554.0</ele><time>2026-04-26T13:40:12.068Z</time></trkpt><trkpt lat="37.897683" lon="15.031055"><ele>554.0</ele><time>2026-04-26T13:40:13.063Z</time></trkpt><trkpt lat="37.8977063" lon="15.0312596"><ele>554.0</ele><time>2026-04-26T13:40:14.078Z</time></trkpt><trkpt lat="37.8977278" lon="15.0314626"><ele>552.6666666666666</ele><time>2026-04-26T13:40:15.087Z</time></trkpt><trkpt lat="37.8977461" lon="15.0316635"><ele>551.3333333333334</ele><time>2026-04-26T13:40:16.069Z</time></trkpt><trkpt lat="37.8977626" lon="15.0318641"><ele>550.0</ele><time>2026-04-26T13:40:17.063Z</time></trkpt><trkpt lat="37.8977793" lon="15.03206"><ele>550.0</ele><time>2026-04-26T13:40:18.065Z</time></trkpt><trkpt lat="37.8977976" lon="15.0322512"><ele>550.0</ele><time>2026-04-26T13:40:19.061Z</time></trkpt><trkpt lat="37.8978158" lon="15.0324418"><ele>550.0</ele><time>2026-04-26T13:40:20.057Z</time></trkpt><trkpt lat="37.8978311" lon="15.0326293"><ele>549.5</ele><time>2026-04-26T13:40:21.059Z</time></trkpt><trkpt lat="37.8978441" lon="15.0328155"><ele>549.0</ele><time>2026-04-26T13:40:22.1Z</time></trkpt><trkpt lat="37.897858" lon="15.032995"><ele>548.5</ele><time>2026-04-26T13:40:23.08Z</time></trkpt><trkpt lat="37.8978748" lon="15.0331791"><ele>548.0</ele><time>2026-04-26T13:40:24.095Z</time></trkpt><trkpt lat="37.8978924" lon="15.0333614"><ele>547.75</ele><time>2026-04-26T13:40:25.081Z</time></trkpt><trkpt lat="37.8979092" lon="15.0335431"><ele>547.5</ele><time>2026-04-26T13:40:26.063Z</time></trkpt><trkpt lat="37.8979251" lon="15.033727"><ele>547.25</ele><time>2026-04-26T13:40:27.084Z</time></trkpt><trkpt lat="37.897939" lon="15.0339099"><ele>547.0</ele><time>2026-04-26T13:40:28.079Z</time></trkpt><trkpt lat="37.8979543" lon="15.0340962"><ele>546.0</ele><time>2026-04-26T13:40:29.067Z</time></trkpt><trkpt lat="37.8979707" lon="15.0342876"><ele>545.0</ele><time>2026-04-26T13:40:30.081Z</time></trkpt><trkpt lat="37.8979842" lon="15.0344815"><ele>544.0</ele><time>2026-04-26T13:40:31.104Z</time></trkpt><trkpt lat="37.8979982" lon="15.0346749"><ele>544.0</ele><time>2026-04-26T13:40:32.1Z</time></trkpt><trkpt lat="37.898014" lon="15.0348696"><ele>544.0</ele><time>2026-04-26T13:40:33.079Z</time></trkpt><trkpt lat="37.8980312" lon="15.0350697"><ele>544.0</ele><time>2026-04-26T13:40:34.098Z</time></trkpt><trkpt lat="37.8980472" lon="15.0352664"><ele>544.0</ele><time>2026-04-26T13:40:35.069Z</time></trkpt><trkpt lat="37.8980642" lon="15.0354676"><ele>544.0</ele><time>2026-04-26T13:40:36.08Z</time></trkpt><trkpt lat="37.8980845" lon="15.035667"><ele>544.0</ele><time>2026-04-26T13:40:37.077Z</time></trkpt><trkpt lat="37.8981072" lon="15.0358667"><ele>544.0</ele><time>2026-04-26T13:40:38.078Z</time></trkpt><trkpt lat="37.8981275" lon="15.0360675"><ele>544.0</ele><time>2026-04-26T13:40:39.074Z</time></trkpt><trkpt lat="37.8981439" lon="15.0362702"><ele>544.0</ele><time>2026-04-26T13:40:40.068Z</time></trkpt><trkpt lat="37.8981593" lon="15.0364722"><ele>544.0</ele><time>2026-04-26T13:40:41.065Z</time></trkpt><trkpt lat="37.8981766" lon="15.0366738"><ele>544.0</ele><time>2026-04-26T13:40:42.079Z</time></trkpt><trkpt lat="37.898196" lon="15.0368734"><ele>544.0</ele><time>2026-04-26T13:40:43.082Z</time></trkpt><trkpt lat="37.8982159" lon="15.0370737"><ele>544.0</ele><time>2026-04-26T13:40:44.07Z</time></trkpt><trkpt lat="37.8982362" lon="15.0372804"><ele>544.0</ele><time>2026-04-26T13:40:45.115Z</time></trkpt><trkpt lat="37.8982552" lon="15.0374834"><ele>544.0</ele><time>2026-04-26T13:40:46.095Z</time></trkpt><trkpt lat="37.8982736" lon="15.037691"><ele>543.3333333333334</ele><time>2026-04-26T13:40:47.08Z</time></trkpt><trkpt lat="37.8982914" lon="15.0379007"><ele>542.6666666666666</ele><time>2026-04-26T13:40:48.08Z</time></trkpt><trkpt lat="37.8983093" lon="15.0381099"><ele>542.0</ele><time>2026-04-26T13:40:49.097Z</time></trkpt><trkpt lat="37.8983269" lon="15.038316"><ele>541.6666666666666</ele><time>2026-04-26T13:40:50.068Z</time></trkpt><trkpt lat="37.8983467" lon="15.0385276"><ele>541.3333333333334</ele><time>2026-04-26T13:40:51.096Z</time></trkpt><trkpt lat="37.8983673" lon="15.0387352"><ele>541.0</ele><time>2026-04-26T13:40:52.077Z</time></trkpt><trkpt lat="37.8983866" lon="15.0389463"><ele>541.0</ele><time>2026-04-26T13:40:53.08Z</time></trkpt><trkpt lat="37.898404" lon="15.0391553"><ele>541.0</ele><time>2026-04-26T13:40:54.086Z</time></trkpt><trkpt lat="37.8984218" lon="15.0393611"><ele>541.0</ele><time>2026-04-26T13:40:55.079Z</time></trkpt><trkpt lat="37.8984405" lon="15.0395665"><ele>541.0</ele><time>2026-04-26T13:40:56.08Z</time></trkpt><trkpt lat="37.8984582" lon="15.0397712"><ele>541.0</ele><time>2026-04-26T13:40:57.082Z</time></trkpt><trkpt lat="37.8984756" lon="15.0399744"><ele>541.0</ele><time>2026-04-26T13:40:58.078Z</time></trkpt><trkpt lat="37.8984937" lon="15.0401772"><ele>541.0</ele><time>2026-04-26T13:40:59.088Z</time></trkpt><trkpt lat="37.8985125" lon="15.0403762"><ele>541.0</ele><time>2026-04-26T13:41:00.058Z</time></trkpt><trkpt lat="37.8985321" lon="15.0405795"><ele>541.0</ele><time>2026-04-26T13:41:01.08Z</time></trkpt><trkpt lat="37.8985504" lon="15.0407804"><ele>539.6666666666667</ele><time>2026-04-26T13:41:02.082Z</time></trkpt><trkpt lat="37.8985697" lon="15.0409834"><ele>538.3333333333334</ele><time>2026-04-26T13:41:03.1Z</time></trkpt><trkpt lat="37.8985895" lon="15.0411841"><ele>537.0</ele><time>2026-04-26T13:41:04.081Z</time></trkpt><trkpt lat="37.8986087" lon="15.0413888"><ele>537.0</ele><time>2026-04-26T13:41:05.098Z</time></trkpt><trkpt lat="37.8986265" lon="15.0415889"><ele>537.0</ele><time>2026-04-26T13:41:06.066Z</time></trkpt><trkpt lat="37.8986446" lon="15.0417922"><ele>537.0</ele><time>2026-04-26T13:41:07.063Z</time></trkpt><trkpt lat="37.8986635" lon="15.0419948"><ele>537.0</ele><time>2026-04-26T13:41:08.079Z</time></trkpt><trkpt lat="37.8986837" lon="15.0421955"><ele>537.0</ele><time>2026-04-26T13:41:09.098Z</time></trkpt><trkpt lat="37.8987036" lon="15.0423956"><ele>537.0</ele><time>2026-04-26T13:41:10.096Z</time></trkpt><trkpt lat="37.8987225" lon="15.0425945"><ele>537.3333333333334</ele><time>2026-04-26T13:41:11.062Z</time></trkpt><trkpt lat="37.8987417" lon="15.0428002"><ele>537.6666666666667</ele><time>2026-04-26T13:41:12.099Z</time></trkpt><trkpt lat="37.898761" lon="15.0429991"><ele>538.0</ele><time>2026-04-26T13:41:13.083Z</time></trkpt><trkpt lat="37.8987805" lon="15.0432036"><ele>537.6666666666667</ele><time>2026-04-26T13:41:14.08Z</time></trkpt><trkpt lat="37.8987998" lon="15.0434118"><ele>537.3333333333334</ele><time>2026-04-26T13:41:15.066Z</time></trkpt><trkpt lat="37.8988188" lon="15.0436244"><ele>537.0</ele><time>2026-04-26T13:41:16.083Z</time></trkpt><trkpt lat="37.8988405" lon="15.0438369"><ele>537.0</ele><time>2026-04-26T13:41:17.07Z</time></trkpt><trkpt lat="37.8988631" lon="15.044055"><ele>537.0</ele><time>2026-04-26T13:41:18.079Z</time></trkpt><trkpt lat="37.8988816" lon="15.0442712"><ele>537.0</ele><time>2026-04-26T13:41:19.057Z</time></trkpt><trkpt lat="37.8988983" lon="15.044486"><ele>537.0</ele><time>2026-04-26T13:41:20.064Z</time></trkpt><trkpt lat="37.8989147" lon="15.044694"><ele>537.0</ele><time>2026-04-26T13:41:21.08Z</time></trkpt><trkpt lat="37.8989315" lon="15.0448961"><ele>537.0</ele><time>2026-04-26T13:41:22.073Z</time></trkpt><trkpt lat="37.8989496" lon="15.0451025"><ele>536.3333333333334</ele><time>2026-04-26T13:41:23.081Z</time></trkpt><trkpt lat="37.8989707" lon="15.0453071"><ele>535.6666666666667</ele><time>2026-04-26T13:41:24.08Z</time></trkpt><trkpt lat="37.8989917" lon="15.0455132"><ele>535.0</ele><time>2026-04-26T13:41:25.08Z</time></trkpt><trkpt lat="37.8990127" lon="15.0457228"><ele>535.3333333333334</ele><time>2026-04-26T13:41:26.063Z</time></trkpt><trkpt lat="37.8990314" lon="15.0459382"><ele>535.6666666666666</ele><time>2026-04-26T13:41:27.088Z</time></trkpt><trkpt lat="37.8990496" lon="15.0461483"><ele>536.0</ele><time>2026-04-26T13:41:28.097Z</time></trkpt><trkpt lat="37.8990669" lon="15.0463534"><ele>536.0</ele><time>2026-04-26T13:41:29.1Z</time></trkpt><trkpt lat="37.8990828" lon="15.0465497"><ele>536.0</ele><time>2026-04-26T13:41:30.079Z</time></trkpt><trkpt lat="37.8990995" lon="15.0467397"><ele>536.0</ele><time>2026-04-26T13:41:31.078Z</time></trkpt><trkpt lat="37.8991164" lon="15.0469216"><ele>536.0</ele><time>2026-04-26T13:41:32.078Z</time></trkpt><trkpt lat="37.8991325" lon="15.0470952"><ele>536.0</ele><time>2026-04-26T13:41:33.066Z</time></trkpt><trkpt lat="37.8991482" lon="15.0472582"><ele>536.0</ele><time>2026-04-26T13:41:34.07Z</time></trkpt><trkpt lat="37.8991621" lon="15.0474112"><ele>536.0</ele><time>2026-04-26T13:41:35.082Z</time></trkpt><trkpt lat="37.8991728" lon="15.0475515"><ele>536.0</ele><time>2026-04-26T13:41:36.066Z</time></trkpt><trkpt lat="37.8991855" lon="15.0476831"><ele>536.0</ele><time>2026-04-26T13:41:37.082Z</time></trkpt><trkpt lat="37.899198" lon="15.0478023"><ele>536.0</ele><time>2026-04-26T13:41:38.086Z</time></trkpt><trkpt lat="37.8992086" lon="15.0479107"><ele>536.0</ele><time>2026-04-26T13:41:39.078Z</time></trkpt><trkpt lat="37.8992144" lon="15.0480101"><ele>536.0</ele><time>2026-04-26T13:41:40.096Z</time></trkpt><trkpt lat="37.899216" lon="15.048101"><ele>536.0</ele><time>2026-04-26T13:41:41.095Z</time></trkpt><trkpt lat="37.8992257" lon="15.0482515"><ele>536.0</ele><time>2026-04-26T13:41:43.087Z</time></trkpt><trkpt lat="37.8992685" lon="15.0483674"><ele>536.0</ele><time>2026-04-26T13:41:45.069Z</time></trkpt><trkpt lat="37.8993563" lon="15.0484487"><ele>536.0</ele><time>2026-04-26T13:41:47.062Z</time></trkpt><trkpt lat="37.8994781" lon="15.0485061"><ele>536.0</ele><time>2026-04-26T13:41:49.059Z</time></trkpt><trkpt lat="37.8995475" lon="15.0485332"><ele>536.0</ele><time>2026-04-26T13:41:50.056Z</time></trkpt><trkpt lat="37.8996277" lon="15.0485532"><ele>536.0</ele><time>2026-04-26T13:41:51.057Z</time></trkpt><trkpt lat="37.8997153" lon="15.0485694"><ele>536.0</ele><time>2026-04-26T13:41:52.058Z</time></trkpt><trkpt lat="37.8998064" lon="15.04858"><ele>536.0</ele><time>2026-04-26T13:41:53.059Z</time></trkpt><trkpt lat="37.8998997" lon="15.0485939"><ele>536.0</ele><time>2026-04-26T13:41:54.057Z</time></trkpt><trkpt lat="37.8999948" lon="15.048613"><ele>536.0</ele><time>2026-04-26T13:41:55.057Z</time></trkpt><trkpt lat="37.9000912" lon="15.0486302"><ele>536.2</ele><time>2026-04-26T13:41:56.057Z</time></trkpt><trkpt lat="37.9001869" lon="15.0486466"><ele>536.4000000000001</ele><time>2026-04-26T13:41:57.057Z</time></trkpt><trkpt lat="37.9002859" lon="15.0486648"><ele>536.6</ele><time>2026-04-26T13:41:58.056Z</time></trkpt><trkpt lat="37.9003867" lon="15.0486856"><ele>536.8000000000001</ele><time>2026-04-26T13:41:59.058Z</time></trkpt><trkpt lat="37.9004854" lon="15.0487086"><ele>537.0</ele><time>2026-04-26T13:42:00.06Z</time></trkpt><trkpt lat="37.9005779" lon="15.0487315"><ele>536.9999999999999</ele><time>2026-04-26T13:42:01.057Z</time></trkpt><trkpt lat="37.9006619" lon="15.0487496"><ele>537.0</ele><time>2026-04-26T13:42:02.057Z</time></trkpt><trkpt lat="37.9007266" lon="15.0487627"><ele>537.0</ele><time>2026-04-26T13:42:03.057Z</time></trkpt><trkpt lat="37.900789" lon="15.0487765"><ele>537.0</ele><time>2026-04-26T13:42:05.056Z</time></trkpt><trkpt lat="37.900856" lon="15.0487888"><ele>537.0</ele><time>2026-04-26T13:42:09.055Z</time></trkpt><trkpt lat="37.9009457" lon="15.0488062"><ele>536.9999999999999</ele><time>2026-04-26T13:42:11.057Z</time></trkpt><trkpt lat="37.9010089" lon="15.0488481"><ele>537.0</ele><time>2026-04-26T13:42:12.057Z</time></trkpt><trkpt lat="37.9010666" lon="15.0489071"><ele>537.1428571428571</ele><time>2026-04-26T13:42:13.063Z</time></trkpt><trkpt lat="37.901123" lon="15.0489709"><ele>537.2857142857142</ele><time>2026-04-26T13:42:14.058Z</time></trkpt><trkpt lat="37.9011841" lon="15.0490302"><ele>537.4285714285714</ele><time>2026-04-26T13:42:15.081Z</time></trkpt><trkpt lat="37.9012441" lon="15.0490845"><ele>537.5714285714286</ele><time>2026-04-26T13:42:16.057Z</time></trkpt><trkpt lat="37.9013016" lon="15.0491424"><ele>537.7142857142858</ele><time>2026-04-26T13:42:17.056Z</time></trkpt><trkpt lat="37.9013547" lon="15.0491983"><ele>537.8571428571429</ele><time>2026-04-26T13:42:18.059Z</time></trkpt><trkpt lat="37.9014071" lon="15.0492626"><ele>538.0</ele><time>2026-04-26T13:42:19.06Z</time></trkpt><trkpt lat="37.9014519" lon="15.0493426"><ele>537.5</ele><time>2026-04-26T13:42:20.094Z</time></trkpt><trkpt lat="37.901492" lon="15.0494166"><ele>537.0</ele><time>2026-04-26T13:42:21.078Z</time></trkpt><trkpt lat="37.9015242" lon="15.0495004"><ele>536.5</ele><time>2026-04-26T13:42:22.08Z</time></trkpt><trkpt lat="37.901542" lon="15.0495898"><ele>536.0</ele><time>2026-04-26T13:42:23.077Z</time></trkpt><trkpt lat="37.9015489" lon="15.0496891"><ele>535.5</ele><time>2026-04-26T13:42:24.093Z</time></trkpt><trkpt lat="37.901547" lon="15.0497922"><ele>535.0</ele><time>2026-04-26T13:42:25.077Z</time></trkpt><trkpt lat="37.901536" lon="15.0498949"><ele>534.6</ele><time>2026-04-26T13:42:26.078Z</time></trkpt><trkpt lat="37.901515" lon="15.0499938"><ele>534.2</ele><time>2026-04-26T13:42:27.062Z</time></trkpt><trkpt lat="37.9014754" lon="15.0500921"><ele>533.8</ele><time>2026-04-26T13:42:28.059Z</time></trkpt><trkpt lat="37.9014187" lon="15.0501859"><ele>533.4</ele><time>2026-04-26T13:42:29.076Z</time></trkpt><trkpt lat="37.9013584" lon="15.0502796"><ele>533.0</ele><time>2026-04-26T13:42:30.077Z</time></trkpt><trkpt lat="37.9012991" lon="15.050381"><ele>533.0</ele><time>2026-04-26T13:42:31.1Z</time></trkpt><trkpt lat="37.901238" lon="15.0504866"><ele>533.0</ele><time>2026-04-26T13:42:32.08Z</time></trkpt><trkpt lat="37.9011817" lon="15.0505871"><ele>533.0</ele><time>2026-04-26T13:42:33.079Z</time></trkpt><trkpt lat="37.9011248" lon="15.0506841"><ele>533.0</ele><time>2026-04-26T13:42:34.063Z</time></trkpt><trkpt lat="37.901073" lon="15.0507784"><ele>533.0</ele><time>2026-04-26T13:42:35.1Z</time></trkpt><trkpt lat="37.9010242" lon="15.0508753"><ele>532.8</ele><time>2026-04-26T13:42:36.096Z</time></trkpt><trkpt lat="37.900974" lon="15.0509835"><ele>532.5999999999999</ele><time>2026-04-26T13:42:37.069Z</time></trkpt><trkpt lat="37.9009245" lon="15.0510949"><ele>532.4000000000001</ele><time>2026-04-26T13:42:38.068Z</time></trkpt><trkpt lat="37.9008746" lon="15.0512132"><ele>532.2</ele><time>2026-04-26T13:42:39.059Z</time></trkpt><trkpt lat="37.9008267" lon="15.0513335"><ele>532.0</ele><time>2026-04-26T13:42:40.056Z</time></trkpt><trkpt lat="37.9007811" lon="15.051448"><ele>532.1666666666667</ele><time>2026-04-26T13:42:41.056Z</time></trkpt><trkpt lat="37.9007421" lon="15.0515564"><ele>532.3333333333334</ele><time>2026-04-26T13:42:42.057Z</time></trkpt><trkpt lat="37.9007136" lon="15.0516582"><ele>532.5</ele><time>2026-04-26T13:42:43.057Z</time></trkpt><trkpt lat="37.9006857" lon="15.0517587"><ele>532.6666666666666</ele><time>2026-04-26T13:42:44.056Z</time></trkpt><trkpt lat="37.9006611" lon="15.0518448"><ele>532.8333333333333</ele><time>2026-04-26T13:42:45.06Z</time></trkpt><trkpt lat="37.9006382" lon="15.0519204"><ele>533.0</ele><time>2026-04-26T13:42:46.08Z</time></trkpt><trkpt lat="37.9006164" lon="15.0520315"><ele>533.0</ele><time>2026-04-26T13:42:48.08Z</time></trkpt><trkpt lat="37.900577" lon="15.0521055"><ele>533.0</ele><time>2026-04-26T13:42:50.058Z</time></trkpt><trkpt lat="37.9004896" lon="15.0521302"><ele>533.0</ele><time>2026-04-26T13:42:53.069Z</time></trkpt><trkpt lat="37.9004724" lon="15.0522239"><ele>533.0</ele><time>2026-04-26T13:42:59.064Z</time></trkpt><trkpt lat="37.9005249" lon="15.0523561"><ele>533.0</ele><time>2026-04-26T13:43:01.059Z</time></trkpt><trkpt lat="37.9005625" lon="15.0524307"><ele>533.0</ele><time>2026-04-26T13:43:02.057Z</time></trkpt><trkpt lat="37.9006063" lon="15.052509"><ele>533.1666666666666</ele><time>2026-04-26T13:43:03.058Z</time></trkpt><trkpt lat="37.9006513" lon="15.0525887"><ele>533.3333333333333</ele><time>2026-04-26T13:43:04.059Z</time></trkpt><trkpt lat="37.9006976" lon="15.0526728"><ele>533.5</ele><time>2026-04-26T13:43:05.057Z</time></trkpt><trkpt lat="37.9007455" lon="15.0527583"><ele>533.6666666666666</ele><time>2026-04-26T13:43:06.057Z</time></trkpt><trkpt lat="37.9007931" lon="15.052848"><ele>533.8333333333334</ele><time>2026-04-26T13:43:07.057Z</time></trkpt><trkpt lat="37.9008476" lon="15.0529437"><ele>534.0</ele><time>2026-04-26T13:43:08.057Z</time></trkpt><trkpt lat="37.900909" lon="15.0530493"><ele>534.2</ele><time>2026-04-26T13:43:09.063Z</time></trkpt><trkpt lat="37.9009678" lon="15.0531599"><ele>534.4</ele><time>2026-04-26T13:43:10.057Z</time></trkpt><trkpt lat="37.9010184" lon="15.0532693"><ele>534.6</ele><time>2026-04-26T13:43:11.056Z</time></trkpt><trkpt lat="37.9010675" lon="15.0533735"><ele>534.8</ele><time>2026-04-26T13:43:12.055Z</time></trkpt><trkpt lat="37.9011143" lon="15.0534753"><ele>535.0</ele><time>2026-04-26T13:43:13.058Z</time></trkpt><trkpt lat="37.9011653" lon="15.0535786"><ele>534.2</ele><time>2026-04-26T13:43:14.056Z</time></trkpt><trkpt lat="37.9012181" lon="15.0536851"><ele>533.4</ele><time>2026-04-26T13:43:15.059Z</time></trkpt><trkpt lat="37.9012685" lon="15.0537978"><ele>532.6</ele><time>2026-04-26T13:43:16.058Z</time></trkpt><trkpt lat="37.9013181" lon="15.0539146"><ele>531.8</ele><time>2026-04-26T13:43:17.057Z</time></trkpt><trkpt lat="37.9013672" lon="15.0540316"><ele>531.0</ele><time>2026-04-26T13:43:18.056Z</time></trkpt><trkpt lat="37.9014199" lon="15.0541491"><ele>530.75</ele><time>2026-04-26T13:43:19.057Z</time></trkpt><trkpt lat="37.9014776" lon="15.0542675"><ele>530.5</ele><time>2026-04-26T13:43:20.06Z</time></trkpt><trkpt lat="37.9015386" lon="15.0543935"><ele>530.25</ele><time>2026-04-26T13:43:21.057Z</time></trkpt><trkpt lat="37.9015981" lon="15.054528"><ele>530.0</ele><time>2026-04-26T13:43:22.058Z</time></trkpt><trkpt lat="37.9016551" lon="15.0546718"><ele>530.0</ele><time>2026-04-26T13:43:23.071Z</time></trkpt><trkpt lat="37.9017062" lon="15.0548182"><ele>530.0</ele><time>2026-04-26T13:43:24.058Z</time></trkpt><trkpt lat="37.9017508" lon="15.0549712"><ele>530.0</ele><time>2026-04-26T13:43:25.056Z</time></trkpt><trkpt lat="37.901785" lon="15.0551306"><ele>530.0</ele><time>2026-04-26T13:43:26.059Z</time></trkpt><trkpt lat="37.9018143" lon="15.0552957"><ele>530.0</ele><time>2026-04-26T13:43:27.058Z</time></trkpt><trkpt lat="37.9018392" lon="15.0554609"><ele>530.0</ele><time>2026-04-26T13:43:28.056Z</time></trkpt><trkpt lat="37.9018594" lon="15.0556312"><ele>530.0</ele><time>2026-04-26T13:43:29.057Z</time></trkpt><trkpt lat="37.9018838" lon="15.0558013"><ele>530.0</ele><time>2026-04-26T13:43:30.078Z</time></trkpt><trkpt lat="37.9019128" lon="15.0559672"><ele>529.5</ele><time>2026-04-26T13:43:31.057Z</time></trkpt><trkpt lat="37.901942" lon="15.0561371"><ele>529.0</ele><time>2026-04-26T13:43:32.058Z</time></trkpt><trkpt lat="37.9019699" lon="15.0563089"><ele>528.5</ele><time>2026-04-26T13:43:33.058Z</time></trkpt><trkpt lat="37.9019989" lon="15.0564802"><ele>528.0</ele><time>2026-04-26T13:43:34.062Z</time></trkpt><trkpt lat="37.9020253" lon="15.0566504"><ele>528.0</ele><time>2026-04-26T13:43:35.069Z</time></trkpt><trkpt lat="37.9020455" lon="15.0568188"><ele>528.0</ele><time>2026-04-26T13:43:36.065Z</time></trkpt><trkpt lat="37.9020656" lon="15.0569846"><ele>528.0</ele><time>2026-04-26T13:43:37.07Z</time></trkpt><trkpt lat="37.9020879" lon="15.0571469"><ele>528.0</ele><time>2026-04-26T13:43:38.063Z</time></trkpt><trkpt lat="37.9021128" lon="15.0573092"><ele>528.0</ele><time>2026-04-26T13:43:39.065Z</time></trkpt><trkpt lat="37.9021364" lon="15.0574755"><ele>528.0</ele><time>2026-04-26T13:43:40.092Z</time></trkpt><trkpt lat="37.9021565" lon="15.057642"><ele>528.0</ele><time>2026-04-26T13:43:41.097Z</time></trkpt><trkpt lat="37.9021785" lon="15.0578077"><ele>528.0</ele><time>2026-04-26T13:43:42.079Z</time></trkpt><trkpt lat="37.9022016" lon="15.0579725"><ele>528.0</ele><time>2026-04-26T13:43:43.074Z</time></trkpt><trkpt lat="37.9022255" lon="15.0581336"><ele>528.0</ele><time>2026-04-26T13:43:44.086Z</time></trkpt><trkpt lat="37.9022469" lon="15.0582954"><ele>528.0</ele><time>2026-04-26T13:43:45.08Z</time></trkpt><trkpt lat="37.9022605" lon="15.0584557"><ele>528.0</ele><time>2026-04-26T13:43:46.08Z</time></trkpt><trkpt lat="37.9022655" lon="15.0586039"><ele>528.0</ele><time>2026-04-26T13:43:47.091Z</time></trkpt><trkpt lat="37.9022602" lon="15.0587435"><ele>528.0</ele><time>2026-04-26T13:43:48.087Z</time></trkpt><trkpt lat="37.9022372" lon="15.0588889"><ele>528.0</ele><time>2026-04-26T13:43:49.066Z</time></trkpt><trkpt lat="37.9021951" lon="15.0590386"><ele>528.0</ele><time>2026-04-26T13:43:50.081Z</time></trkpt><trkpt lat="37.9021369" lon="15.0591947"><ele>527.25</ele><time>2026-04-26T13:43:51.098Z</time></trkpt><trkpt lat="37.9020678" lon="15.0593569"><ele>526.5</ele><time>2026-04-26T13:43:52.079Z</time></trkpt><trkpt lat="37.9019973" lon="15.0595296"><ele>525.75</ele><time>2026-04-26T13:43:53.085Z</time></trkpt><trkpt lat="37.9019362" lon="15.0597036"><ele>525.0</ele><time>2026-04-26T13:43:54.082Z</time></trkpt><trkpt lat="37.9018819" lon="15.0598815"><ele>522.6666666666666</ele><time>2026-04-26T13:43:55.069Z</time></trkpt><trkpt lat="37.9018362" lon="15.0600702"><ele>520.3333333333333</ele><time>2026-04-26T13:43:56.081Z</time></trkpt><trkpt lat="37.9017984" lon="15.0602707"><ele>518.0</ele><time>2026-04-26T13:43:57.081Z</time></trkpt><trkpt lat="37.90177" lon="15.0604819"><ele>518.6666666666666</ele><time>2026-04-26T13:43:58.084Z</time></trkpt><trkpt lat="37.9017452" lon="15.0607044"><ele>519.3333333333334</ele><time>2026-04-26T13:43:59.069Z</time></trkpt><trkpt lat="37.9017217" lon="15.0609314"><ele>520.0</ele><time>2026-04-26T13:44:00.073Z</time></trkpt><trkpt lat="37.9017003" lon="15.0611502"><ele>520.0</ele><time>2026-04-26T13:44:01.083Z</time></trkpt><trkpt lat="37.9016832" lon="15.0613489"><ele>520.0</ele><time>2026-04-26T13:44:02.08Z</time></trkpt><trkpt lat="37.9016684" lon="15.0615327"><ele>520.0</ele><time>2026-04-26T13:44:03.084Z</time></trkpt><trkpt lat="37.9016552" lon="15.0617035"><ele>520.0</ele><time>2026-04-26T13:44:04.079Z</time></trkpt><trkpt lat="37.9016414" lon="15.0618636"><ele>519.6</ele><time>2026-04-26T13:44:05.082Z</time></trkpt><trkpt lat="37.901626" lon="15.0620083"><ele>519.2</ele><time>2026-04-26T13:44:06.094Z</time></trkpt><trkpt lat="37.9016056" lon="15.0621387"><ele>518.8</ele><time>2026-04-26T13:44:07.08Z</time></trkpt><trkpt lat="37.9015734" lon="15.0622601"><ele>518.4</ele><time>2026-04-26T13:44:08.08Z</time></trkpt><trkpt lat="37.9015278" lon="15.0623688"><ele>518.0</ele><time>2026-04-26T13:44:09.08Z</time></trkpt><trkpt lat="37.9014648" lon="15.0624728"><ele>517.5</ele><time>2026-04-26T13:44:10.08Z</time></trkpt><trkpt lat="37.9013922" lon="15.0625783"><ele>517.0</ele><time>2026-04-26T13:44:11.043Z</time></trkpt><trkpt lat="37.9013084" lon="15.0626956"><ele>516.5</ele><time>2026-04-26T13:44:12.056Z</time></trkpt><trkpt lat="37.9012158" lon="15.0628214"><ele>516.0</ele><time>2026-04-26T13:44:13.086Z</time></trkpt><trkpt lat="37.9011275" lon="15.0629474"><ele>516.0</ele><time>2026-04-26T13:44:14.068Z</time></trkpt><trkpt lat="37.9010487" lon="15.0630757"><ele>516.0</ele><time>2026-04-26T13:44:15.082Z</time></trkpt><trkpt lat="37.9009874" lon="15.0632051"><ele>516.0</ele><time>2026-04-26T13:44:16.082Z</time></trkpt><trkpt lat="37.9009424" lon="15.0633392"><ele>516.0</ele><time>2026-04-26T13:44:17.076Z</time></trkpt><trkpt lat="37.9009096" lon="15.063483"><ele>515.5</ele><time>2026-04-26T13:44:18.097Z</time></trkpt><trkpt lat="37.9008808" lon="15.0636313"><ele>515.0</ele><time>2026-04-26T13:44:19.064Z</time></trkpt><trkpt lat="37.9008522" lon="15.0637798"><ele>514.5</ele><time>2026-04-26T13:44:20.076Z</time></trkpt><trkpt lat="37.9008248" lon="15.0639257"><ele>514.0</ele><time>2026-04-26T13:44:21.079Z</time></trkpt><trkpt lat="37.9007979" lon="15.0640672"><ele>513.25</ele><time>2026-04-26T13:44:22.076Z</time></trkpt><trkpt lat="37.900765" lon="15.0642051"><ele>512.5</ele><time>2026-04-26T13:44:23.066Z</time></trkpt><trkpt lat="37.9007291" lon="15.0643483"><ele>511.75</ele><time>2026-04-26T13:44:24.078Z</time></trkpt><trkpt lat="37.9006942" lon="15.0644961"><ele>511.0</ele><time>2026-04-26T13:44:25.079Z</time></trkpt><trkpt lat="37.9006603" lon="15.0646414"><ele>511.0</ele><time>2026-04-26T13:44:26.069Z</time></trkpt><trkpt lat="37.9006294" lon="15.064791"><ele>511.0</ele><time>2026-04-26T13:44:27.078Z</time></trkpt><trkpt lat="37.9005995" lon="15.0649336"><ele>511.0</ele><time>2026-04-26T13:44:28.095Z</time></trkpt><trkpt lat="37.9005684" lon="15.0650711"><ele>511.0</ele><time>2026-04-26T13:44:29.082Z</time></trkpt><trkpt lat="37.900538" lon="15.0652081"><ele>508.8</ele><time>2026-04-26T13:44:30.064Z</time></trkpt><trkpt lat="37.9005099" lon="15.065346"><ele>506.6</ele><time>2026-04-26T13:44:31.08Z</time></trkpt><trkpt lat="37.9004765" lon="15.0654707"><ele>504.4</ele><time>2026-04-26T13:44:32.065Z</time></trkpt><trkpt lat="37.9004295" lon="15.0655803"><ele>502.2</ele><time>2026-04-26T13:44:33.085Z</time></trkpt><trkpt lat="37.9003656" lon="15.0656739"><ele>500.0</ele><time>2026-04-26T13:44:34.097Z</time></trkpt><trkpt lat="37.9002901" lon="15.0657525"><ele>499.2</ele><time>2026-04-26T13:44:35.079Z</time></trkpt><trkpt lat="37.9002026" lon="15.065813"><ele>498.4</ele><time>2026-04-26T13:44:36.058Z</time></trkpt><trkpt lat="37.9001097" lon="15.0658571"><ele>497.6</ele><time>2026-04-26T13:44:37.101Z</time></trkpt><trkpt lat="37.9000108" lon="15.0658884"><ele>496.8</ele><time>2026-04-26T13:44:38.095Z</time></trkpt><trkpt lat="37.8999212" lon="15.0659134"><ele>496.0</ele><time>2026-04-26T13:44:39.057Z</time></trkpt><trkpt lat="37.8998437" lon="15.0659533"><ele>496.00000000000006</ele><time>2026-04-26T13:44:40.056Z</time></trkpt><trkpt lat="37.8997869" lon="15.0660164"><ele>496.0</ele><time>2026-04-26T13:44:41.056Z</time></trkpt><trkpt lat="37.8997525" lon="15.0661015"><ele>496.0</ele><time>2026-04-26T13:44:42.057Z</time></trkpt><trkpt lat="37.899741" lon="15.0662036"><ele>496.0</ele><time>2026-04-26T13:44:43.096Z</time></trkpt><trkpt lat="37.8997511" lon="15.0663155"><ele>496.00000000000006</ele><time>2026-04-26T13:44:44.079Z</time></trkpt><trkpt lat="37.8997806" lon="15.066428"><ele>496.0</ele><time>2026-04-26T13:44:45.077Z</time></trkpt><trkpt lat="37.8998246" lon="15.0665262"><ele>496.0</ele><time>2026-04-26T13:44:46.096Z</time></trkpt><trkpt lat="37.8998781" lon="15.0666002"><ele>496.0</ele><time>2026-04-26T13:44:47.078Z</time></trkpt><trkpt lat="37.8999505" lon="15.0666471"><ele>496.0</ele><time>2026-04-26T13:44:48.062Z</time></trkpt><trkpt lat="37.900042" lon="15.0666745"><ele>496.0</ele><time>2026-04-26T13:44:49.074Z</time></trkpt><trkpt lat="37.9001486" lon="15.0666806"><ele>496.0</ele><time>2026-04-26T13:44:50.078Z</time></trkpt><trkpt lat="37.9002747" lon="15.06668"><ele>492.5</ele><time>2026-04-26T13:44:51.079Z</time></trkpt><trkpt lat="37.9004119" lon="15.0666695"><ele>489.0</ele><time>2026-04-26T13:44:52.096Z</time></trkpt><trkpt lat="37.9005371" lon="15.0666624"><ele>485.5</ele><time>2026-04-26T13:44:53.066Z</time></trkpt><trkpt lat="37.9006594" lon="15.0666637"><ele>482.0</ele><time>2026-04-26T13:44:54.091Z</time></trkpt><trkpt lat="37.9007736" lon="15.0666615"><ele>482.0</ele><time>2026-04-26T13:44:55.081Z</time></trkpt><trkpt lat="37.9008839" lon="15.0666675"><ele>482.00000000000006</ele><time>2026-04-26T13:44:56.08Z</time></trkpt><trkpt lat="37.9009878" lon="15.0666917"><ele>482.00000000000006</ele><time>2026-04-26T13:44:57.078Z</time></trkpt><trkpt lat="37.9010754" lon="15.0667329"><ele>482.0</ele><time>2026-04-26T13:44:58.058Z</time></trkpt><trkpt lat="37.9011505" lon="15.0668008"><ele>482.0</ele><time>2026-04-26T13:44:59.059Z</time></trkpt><trkpt lat="37.9012195" lon="15.0668932"><ele>481.75</ele><time>2026-04-26T13:45:00.056Z</time></trkpt><trkpt lat="37.9012943" lon="15.0669977"><ele>481.5</ele><time>2026-04-26T13:45:01.077Z</time></trkpt><trkpt lat="37.901371" lon="15.0671019"><ele>481.25</ele><time>2026-04-26T13:45:02.077Z</time></trkpt><trkpt lat="37.9014505" lon="15.067209"><ele>481.0</ele><time>2026-04-26T13:45:03.081Z</time></trkpt><trkpt lat="37.9015341" lon="15.0673211"><ele>481.0</ele><time>2026-04-26T13:45:04.081Z</time></trkpt><trkpt lat="37.9016203" lon="15.0674289"><ele>481.0</ele><time>2026-04-26T13:45:05.056Z</time></trkpt><trkpt lat="37.9017038" lon="15.0675341"><ele>481.0</ele><time>2026-04-26T13:45:06.077Z</time></trkpt><trkpt lat="37.901782" lon="15.0676366"><ele>481.0</ele><time>2026-04-26T13:45:07.079Z</time></trkpt><trkpt lat="37.901864" lon="15.0677362"><ele>481.0</ele><time>2026-04-26T13:45:08.099Z</time></trkpt><trkpt lat="37.9019467" lon="15.0678318"><ele>481.0</ele><time>2026-04-26T13:45:09.079Z</time></trkpt><trkpt lat="37.9020293" lon="15.0679292"><ele>481.0</ele><time>2026-04-26T13:45:10.066Z</time></trkpt><trkpt lat="37.9021103" lon="15.0680298"><ele>481.0</ele><time>2026-04-26T13:45:11.08Z</time></trkpt><trkpt lat="37.902189" lon="15.0681308"><ele>481.0</ele><time>2026-04-26T13:45:12.103Z</time></trkpt><trkpt lat="37.9022684" lon="15.0682275"><ele>481.0</ele><time>2026-04-26T13:45:13.062Z</time></trkpt><trkpt lat="37.9023515" lon="15.0683231"><ele>481.0</ele><time>2026-04-26T13:45:14.077Z</time></trkpt><trkpt lat="37.9024307" lon="15.0684166"><ele>481.0</ele><time>2026-04-26T13:45:15.093Z</time></trkpt><trkpt lat="37.9025038" lon="15.0685084"><ele>481.0</ele><time>2026-04-26T13:45:16.077Z</time></trkpt><trkpt lat="37.9025748" lon="15.0685957"><ele>481.8</ele><time>2026-04-26T13:45:17.066Z</time></trkpt><trkpt lat="37.9026442" lon="15.0686803"><ele>482.6</ele><time>2026-04-26T13:45:18.092Z</time></trkpt><trkpt lat="37.9027133" lon="15.0687623"><ele>483.4</ele><time>2026-04-26T13:45:19.064Z</time></trkpt><trkpt lat="37.9027832" lon="15.0688472"><ele>484.2</ele><time>2026-04-26T13:45:20.078Z</time></trkpt><trkpt lat="37.9028531" lon="15.0689319"><ele>485.0</ele><time>2026-04-26T13:45:21.076Z</time></trkpt><trkpt lat="37.9029241" lon="15.0690178"><ele>484.2</ele><time>2026-04-26T13:45:22.057Z</time></trkpt><trkpt lat="37.9029983" lon="15.0691092"><ele>483.4</ele><time>2026-04-26T13:45:23.083Z</time></trkpt><trkpt lat="37.9030738" lon="15.069202"><ele>482.6</ele><time>2026-04-26T13:45:24.093Z</time></trkpt><trkpt lat="37.9031491" lon="15.0692961"><ele>481.8</ele><time>2026-04-26T13:45:25.065Z</time></trkpt><trkpt lat="37.9032274" lon="15.0693934"><ele>481.0</ele><time>2026-04-26T13:45:26.076Z</time></trkpt><trkpt lat="37.9033041" lon="15.0694882"><ele>481.0</ele><time>2026-04-26T13:45:27.056Z</time></trkpt><trkpt lat="37.9033816" lon="15.0695822"><ele>481.0</ele><time>2026-04-26T13:45:28.067Z</time></trkpt><trkpt lat="37.9034585" lon="15.0696759"><ele>481.0</ele><time>2026-04-26T13:45:29.076Z</time></trkpt><trkpt lat="37.9035348" lon="15.06977"><ele>481.0</ele><time>2026-04-26T13:45:30.079Z</time></trkpt><trkpt lat="37.9036124" lon="15.0698623"><ele>481.0</ele><time>2026-04-26T13:45:31.066Z</time></trkpt><trkpt lat="37.9036899" lon="15.0699555"><ele>481.0</ele><time>2026-04-26T13:45:32.067Z</time></trkpt><trkpt lat="37.9037662" lon="15.0700458"><ele>481.0</ele><time>2026-04-26T13:45:33.068Z</time></trkpt><trkpt lat="37.9038418" lon="15.0701309"><ele>481.0</ele><time>2026-04-26T13:45:34.067Z</time></trkpt><trkpt lat="37.9039184" lon="15.0702056"><ele>481.0</ele><time>2026-04-26T13:45:35.076Z</time></trkpt><trkpt lat="37.9039959" lon="15.0702667"><ele>481.0</ele><time>2026-04-26T13:45:36.093Z</time></trkpt><trkpt lat="37.9040728" lon="15.0703156"><ele>481.0</ele><time>2026-04-26T13:45:37.059Z</time></trkpt><trkpt lat="37.9041582" lon="15.0703485"><ele>481.0</ele><time>2026-04-26T13:45:38.064Z</time></trkpt><trkpt lat="37.9042501" lon="15.0703656"><ele>481.0</ele><time>2026-04-26T13:45:39.052Z</time></trkpt><trkpt lat="37.904353" lon="15.0703733"><ele>481.0</ele><time>2026-04-26T13:45:40.056Z</time></trkpt><trkpt lat="37.9044709" lon="15.0703706"><ele>481.0</ele><time>2026-04-26T13:45:41.064Z</time></trkpt><trkpt lat="37.904597" lon="15.0703713"><ele>481.25</ele><time>2026-04-26T13:45:42.062Z</time></trkpt><trkpt lat="37.9047257" lon="15.0703717"><ele>481.5</ele><time>2026-04-26T13:45:43.06Z</time></trkpt><trkpt lat="37.9048484" lon="15.0703726"><ele>481.75</ele><time>2026-04-26T13:45:44.082Z</time></trkpt><trkpt lat="37.9049556" lon="15.0703896"><ele>482.0</ele><time>2026-04-26T13:45:45.089Z</time></trkpt><trkpt lat="37.9050461" lon="15.0704268"><ele>482.3333333333333</ele><time>2026-04-26T13:45:46.062Z</time></trkpt><trkpt lat="37.9051128" lon="15.0704864"><ele>482.66666666666663</ele><time>2026-04-26T13:45:47.065Z</time></trkpt><trkpt lat="37.9051639" lon="15.0705667"><ele>483.0</ele><time>2026-04-26T13:45:48.095Z</time></trkpt><trkpt lat="37.905204" lon="15.0706604"><ele>483.33333333333337</ele><time>2026-04-26T13:45:49.078Z</time></trkpt><trkpt lat="37.9052248" lon="15.0707647"><ele>483.6666666666667</ele><time>2026-04-26T13:45:50.079Z</time></trkpt><trkpt lat="37.9052188" lon="15.0708666"><ele>484.0</ele><time>2026-04-26T13:45:51.08Z</time></trkpt><trkpt lat="37.9051977" lon="15.0709781"><ele>484.0</ele><time>2026-04-26T13:45:52.081Z</time></trkpt><trkpt lat="37.905173" lon="15.0710946"><ele>484.0</ele><time>2026-04-26T13:45:53.082Z</time></trkpt><trkpt lat="37.9051526" lon="15.0712168"><ele>484.0</ele><time>2026-04-26T13:45:54.099Z</time></trkpt><trkpt lat="37.905141" lon="15.0713404"><ele>484.0</ele><time>2026-04-26T13:45:55.079Z</time></trkpt><trkpt lat="37.905136" lon="15.0714806"><ele>484.0</ele><time>2026-04-26T13:45:56.083Z</time></trkpt><trkpt lat="37.9051333" lon="15.0716332"><ele>484.0</ele><time>2026-04-26T13:45:57.066Z</time></trkpt><trkpt lat="37.9051334" lon="15.0718028"><ele>484.0</ele><time>2026-04-26T13:45:58.065Z</time></trkpt><trkpt lat="37.9051339" lon="15.0719806"><ele>484.0</ele><time>2026-04-26T13:45:59.075Z</time></trkpt><trkpt lat="37.9051331" lon="15.0721498"><ele>484.0</ele><time>2026-04-26T13:46:00.082Z</time></trkpt><trkpt lat="37.9051225" lon="15.0723001"><ele>484.0</ele><time>2026-04-26T13:46:01.077Z</time></trkpt><trkpt lat="37.9050966" lon="15.072434"><ele>484.0</ele><time>2026-04-26T13:46:02.081Z</time></trkpt><trkpt lat="37.9050556" lon="15.0725567"><ele>484.0</ele><time>2026-04-26T13:46:03.09Z</time></trkpt><trkpt lat="37.905" lon="15.0726767"><ele>484.0</ele><time>2026-04-26T13:46:04.084Z</time></trkpt><trkpt lat="37.9049356" lon="15.0728016"><ele>484.0</ele><time>2026-04-26T13:46:05.08Z</time></trkpt><trkpt lat="37.9048641" lon="15.0729298"><ele>483.5</ele><time>2026-04-26T13:46:06.065Z</time></trkpt><trkpt lat="37.9047867" lon="15.0730641"><ele>483.0</ele><time>2026-04-26T13:46:07.064Z</time></trkpt><trkpt lat="37.9047084" lon="15.0732124"><ele>482.5</ele><time>2026-04-26T13:46:08.084Z</time></trkpt><trkpt lat="37.9046357" lon="15.0733755"><ele>482.0</ele><time>2026-04-26T13:46:09.08Z</time></trkpt><trkpt lat="37.9045701" lon="15.0735565"><ele>484.3333333333333</ele><time>2026-04-26T13:46:10.079Z</time></trkpt><trkpt lat="37.9045088" lon="15.073754"><ele>486.66666666666663</ele><time>2026-04-26T13:46:11.083Z</time></trkpt><trkpt lat="37.90445" lon="15.0739555"><ele>489.0</ele><time>2026-04-26T13:46:12.078Z</time></trkpt><trkpt lat="37.9043972" lon="15.0741453"><ele>492.5</ele><time>2026-04-26T13:46:13.092Z</time></trkpt><trkpt lat="37.9043493" lon="15.0743189"><ele>496.0</ele><time>2026-04-26T13:46:14.064Z</time></trkpt><trkpt lat="37.904308" lon="15.0744899"><ele>499.5</ele><time>2026-04-26T13:46:15.084Z</time></trkpt><trkpt lat="37.9042781" lon="15.0746585"><ele>503.0</ele><time>2026-04-26T13:46:16.079Z</time></trkpt><trkpt lat="37.9042561" lon="15.0748315"><ele>500.0</ele><time>2026-04-26T13:46:17.066Z</time></trkpt><trkpt lat="37.9042442" lon="15.0750192"><ele>497.0</ele><time>2026-04-26T13:46:18.079Z</time></trkpt><trkpt lat="37.9042402" lon="15.0752127"><ele>494.0</ele><time>2026-04-26T13:46:19.07Z</time></trkpt><trkpt lat="37.9042374" lon="15.0754149"><ele>494.0</ele><time>2026-04-26T13:46:20.086Z</time></trkpt><trkpt lat="37.9042335" lon="15.0756085"><ele>494.0</ele><time>2026-04-26T13:46:21.068Z</time></trkpt><trkpt lat="37.904228" lon="15.0757833"><ele>494.0</ele><time>2026-04-26T13:46:22.065Z</time></trkpt><trkpt lat="37.9042252" lon="15.075934"><ele>494.0</ele><time>2026-04-26T13:46:23.068Z</time></trkpt><trkpt lat="37.9042307" lon="15.076062"><ele>498.0</ele><time>2026-04-26T13:46:24.081Z</time></trkpt><trkpt lat="37.9042529" lon="15.0761738"><ele>502.0</ele><time>2026-04-26T13:46:25.057Z</time></trkpt><trkpt lat="37.9042916" lon="15.0762842"><ele>506.0</ele><time>2026-04-26T13:46:26.057Z</time></trkpt><trkpt lat="37.9043533" lon="15.07639"><ele>510.0</ele><time>2026-04-26T13:46:27.056Z</time></trkpt><trkpt lat="37.9044378" lon="15.0764962"><ele>514.0</ele><time>2026-04-26T13:46:28.094Z</time></trkpt><trkpt lat="37.9045293" lon="15.0766128"><ele>514.0</ele><time>2026-04-26T13:46:29.092Z</time></trkpt><trkpt lat="37.9046114" lon="15.0767373"><ele>514.0</ele><time>2026-04-26T13:46:30.095Z</time></trkpt><trkpt lat="37.9046721" lon="15.0768619"><ele>514.0</ele><time>2026-04-26T13:46:31.077Z</time></trkpt><trkpt lat="37.9047191" lon="15.0769915"><ele>514.0</ele><time>2026-04-26T13:46:32.067Z</time></trkpt><trkpt lat="37.904752" lon="15.0771325"><ele>514.0</ele><time>2026-04-26T13:46:33.091Z</time></trkpt><trkpt lat="37.9047783" lon="15.0772783"><ele>514.0</ele><time>2026-04-26T13:46:34.057Z</time></trkpt><trkpt lat="37.9048079" lon="15.0774281"><ele>514.0</ele><time>2026-04-26T13:46:35.058Z</time></trkpt><trkpt lat="37.9048413" lon="15.0775837"><ele>514.0</ele><time>2026-04-26T13:46:36.057Z</time></trkpt><trkpt lat="37.9048699" lon="15.0777381"><ele>514.8</ele><time>2026-04-26T13:46:37.056Z</time></trkpt><trkpt lat="37.9048904" lon="15.0778901"><ele>515.5999999999999</ele><time>2026-04-26T13:46:38.058Z</time></trkpt><trkpt lat="37.9049063" lon="15.0780254"><ele>516.4</ele><time>2026-04-26T13:46:39.066Z</time></trkpt><trkpt lat="37.9049255" lon="15.0781493"><ele>517.1999999999999</ele><time>2026-04-26T13:46:40.064Z</time></trkpt><trkpt lat="37.9049519" lon="15.0782805"><ele>518.0</ele><time>2026-04-26T13:46:41.08Z</time></trkpt><trkpt lat="37.9049777" lon="15.0784225"><ele>518.25</ele><time>2026-04-26T13:46:42.057Z</time></trkpt><trkpt lat="37.9050014" lon="15.0785792"><ele>518.5</ele><time>2026-04-26T13:46:43.061Z</time></trkpt><trkpt lat="37.9050285" lon="15.0787452"><ele>518.75</ele><time>2026-04-26T13:46:44.087Z</time></trkpt><trkpt lat="37.905064" lon="15.0789121"><ele>519.0</ele><time>2026-04-26T13:46:45.085Z</time></trkpt><trkpt lat="37.9051102" lon="15.079076"><ele>521.75</ele><time>2026-04-26T13:46:46.07Z</time></trkpt><trkpt lat="37.9051688" lon="15.0792305"><ele>524.5</ele><time>2026-04-26T13:46:47.1Z</time></trkpt><trkpt lat="37.9052282" lon="15.0793715"><ele>527.25</ele><time>2026-04-26T13:46:48.083Z</time></trkpt><trkpt lat="37.9052858" lon="15.0795079"><ele>530.0</ele><time>2026-04-26T13:46:49.07Z</time></trkpt><trkpt lat="37.9053415" lon="15.0796406"><ele>530.0</ele><time>2026-04-26T13:46:50.066Z</time></trkpt><trkpt lat="37.9053945" lon="15.0797637"><ele>530.0</ele><time>2026-04-26T13:46:51.069Z</time></trkpt><trkpt lat="37.9054432" lon="15.0798869"><ele>530.0</ele><time>2026-04-26T13:46:52.079Z</time></trkpt><trkpt lat="37.9054853" lon="15.0800104"><ele>530.0</ele><time>2026-04-26T13:46:53.084Z</time></trkpt><trkpt lat="37.905518" lon="15.0801362"><ele>530.0</ele><time>2026-04-26T13:46:54.07Z</time></trkpt><trkpt lat="37.9055486" lon="15.0802726"><ele>528.25</ele><time>2026-04-26T13:46:55.098Z</time></trkpt><trkpt lat="37.9055734" lon="15.0804204"><ele>526.5</ele><time>2026-04-26T13:46:56.078Z</time></trkpt><trkpt lat="37.9055935" lon="15.0805744"><ele>524.75</ele><time>2026-04-26T13:46:57.063Z</time></trkpt><trkpt lat="37.9056115" lon="15.0807206"><ele>523.0</ele><time>2026-04-26T13:46:58.064Z</time></trkpt><trkpt lat="37.9056267" lon="15.080863"><ele>522.0</ele><time>2026-04-26T13:46:59.097Z</time></trkpt><trkpt lat="37.9056393" lon="15.080997"><ele>521.0</ele><time>2026-04-26T13:47:00.068Z</time></trkpt><trkpt lat="37.9056417" lon="15.0811342"><ele>520.0</ele><time>2026-04-26T13:47:01.064Z</time></trkpt><trkpt lat="37.9056346" lon="15.0812713"><ele>519.0</ele><time>2026-04-26T13:47:02.064Z</time></trkpt><trkpt lat="37.9056229" lon="15.0814084"><ele>518.0</ele><time>2026-04-26T13:47:03.085Z</time></trkpt><trkpt lat="37.9056076" lon="15.081544"><ele>517.4</ele><time>2026-04-26T13:47:04.08Z</time></trkpt><trkpt lat="37.9055866" lon="15.0816785"><ele>516.8</ele><time>2026-04-26T13:47:05.065Z</time></trkpt><trkpt lat="37.9055607" lon="15.0818128"><ele>516.2</ele><time>2026-04-26T13:47:06.069Z</time></trkpt><trkpt lat="37.9055309" lon="15.0819475"><ele>515.6</ele><time>2026-04-26T13:47:07.094Z</time></trkpt><trkpt lat="37.9055004" lon="15.0820823"><ele>515.0</ele><time>2026-04-26T13:47:08.098Z</time></trkpt><trkpt lat="37.9054691" lon="15.0822184"><ele>515.0</ele><time>2026-04-26T13:47:09.092Z</time></trkpt><trkpt lat="37.9054366" lon="15.0823564"><ele>515.0</ele><time>2026-04-26T13:47:10.078Z</time></trkpt><trkpt lat="37.9054053" lon="15.0824977"><ele>515.0</ele><time>2026-04-26T13:47:11.082Z</time></trkpt><trkpt lat="37.9053751" lon="15.0826397"><ele>515.0</ele><time>2026-04-26T13:47:12.081Z</time></trkpt><trkpt lat="37.9053428" lon="15.0827865"><ele>511.5</ele><time>2026-04-26T13:47:13.088Z</time></trkpt><trkpt lat="37.9053075" lon="15.0829366"><ele>508.0</ele><time>2026-04-26T13:47:14.093Z</time></trkpt><trkpt lat="37.9052726" lon="15.0830848"><ele>504.5</ele><time>2026-04-26T13:47:15.07Z</time></trkpt><trkpt lat="37.9052386" lon="15.083237"><ele>501.0</ele><time>2026-04-26T13:47:16.092Z</time></trkpt><trkpt lat="37.9052023" lon="15.0833841"><ele>498.0</ele><time>2026-04-26T13:47:17.084Z</time></trkpt><trkpt lat="37.9051602" lon="15.0835309"><ele>495.0</ele><time>2026-04-26T13:47:18.09Z</time></trkpt><trkpt lat="37.9051187" lon="15.0836764"><ele>492.0</ele><time>2026-04-26T13:47:19.077Z</time></trkpt><trkpt lat="37.9050835" lon="15.083821"><ele>489.0</ele><time>2026-04-26T13:47:20.07Z</time></trkpt><trkpt lat="37.9050523" lon="15.083965"><ele>495.75</ele><time>2026-04-26T13:47:21.078Z</time></trkpt><trkpt lat="37.9050268" lon="15.0841079"><ele>502.5</ele><time>2026-04-26T13:47:22.066Z</time></trkpt><trkpt lat="37.905008" lon="15.0842507"><ele>509.25</ele><time>2026-04-26T13:47:23.077Z</time></trkpt><trkpt lat="37.9049922" lon="15.0843951"><ele>516.0</ele><time>2026-04-26T13:47:24.088Z</time></trkpt><trkpt lat="37.9049765" lon="15.0845375"><ele>516.0</ele><time>2026-04-26T13:47:25.08Z</time></trkpt><trkpt lat="37.9049518" lon="15.0846692"><ele>516.0</ele><time>2026-04-26T13:47:26.08Z</time></trkpt><trkpt lat="37.9049205" lon="15.0847897"><ele>516.0</ele><time>2026-04-26T13:47:27.063Z</time></trkpt><trkpt lat="37.9048736" lon="15.084905"><ele>516.0</ele><time>2026-04-26T13:47:28.089Z</time></trkpt><trkpt lat="37.9048137" lon="15.0850088"><ele>516.0</ele><time>2026-04-26T13:47:29.07Z</time></trkpt><trkpt lat="37.9047404" lon="15.0851098"><ele>512.25</ele><time>2026-04-26T13:47:30.077Z</time></trkpt><trkpt lat="37.9046536" lon="15.085207"><ele>508.5</ele><time>2026-04-26T13:47:31.08Z</time></trkpt><trkpt lat="37.9045555" lon="15.0852997"><ele>504.75</ele><time>2026-04-26T13:47:32.059Z</time></trkpt><trkpt lat="37.9044536" lon="15.0853881"><ele>501.0</ele><time>2026-04-26T13:47:33.069Z</time></trkpt><trkpt lat="37.904363" lon="15.0854822"><ele>501.0</ele><time>2026-04-26T13:47:34.067Z</time></trkpt><trkpt lat="37.9042909" lon="15.0855874"><ele>501.0</ele><time>2026-04-26T13:47:35.077Z</time></trkpt><trkpt lat="37.9042406" lon="15.0857002"><ele>501.0</ele><time>2026-04-26T13:47:36.076Z</time></trkpt><trkpt lat="37.904207" lon="15.0858257"><ele>501.0</ele><time>2026-04-26T13:47:37.066Z</time></trkpt><trkpt lat="37.9041909" lon="15.0859601"><ele>501.0</ele><time>2026-04-26T13:47:38.064Z</time></trkpt><trkpt lat="37.9041886" lon="15.0861042"><ele>501.0</ele><time>2026-04-26T13:47:39.063Z</time></trkpt><trkpt lat="37.9041969" lon="15.0862602"><ele>501.0</ele><time>2026-04-26T13:47:40.077Z</time></trkpt><trkpt lat="37.9042119" lon="15.0864266"><ele>501.0</ele><time>2026-04-26T13:47:41.082Z</time></trkpt><trkpt lat="37.904231" lon="15.0865997"><ele>501.0</ele><time>2026-04-26T13:47:42.078Z</time></trkpt><trkpt lat="37.9042531" lon="15.0867816"><ele>495.5</ele><time>2026-04-26T13:47:43.078Z</time></trkpt><trkpt lat="37.9042763" lon="15.0869654"><ele>490.0</ele><time>2026-04-26T13:47:44.064Z</time></trkpt><trkpt lat="37.9043061" lon="15.0871441"><ele>484.5</ele><time>2026-04-26T13:47:45.066Z</time></trkpt><trkpt lat="37.9043376" lon="15.0873131"><ele>479.0</ele><time>2026-04-26T13:47:46.079Z</time></trkpt><trkpt lat="37.9043682" lon="15.0874734"><ele>479.0</ele><time>2026-04-26T13:47:47.09Z</time></trkpt><trkpt lat="37.9044036" lon="15.08762"><ele>479.0</ele><time>2026-04-26T13:47:48.083Z</time></trkpt><trkpt lat="37.9044489" lon="15.087758"><ele>479.0</ele><time>2026-04-26T13:47:49.058Z</time></trkpt><trkpt lat="37.9045023" lon="15.0878925"><ele>479.0</ele><time>2026-04-26T13:47:50.076Z</time></trkpt><trkpt lat="37.904565" lon="15.0880211"><ele>479.0</ele><time>2026-04-26T13:47:51.063Z</time></trkpt><trkpt lat="37.9046449" lon="15.0881545"><ele>479.0</ele><time>2026-04-26T13:47:52.079Z</time></trkpt><trkpt lat="37.9047342" lon="15.0882814"><ele>479.0</ele><time>2026-04-26T13:47:53.068Z</time></trkpt><trkpt lat="37.9048299" lon="15.0884003"><ele>479.0</ele><time>2026-04-26T13:47:54.079Z</time></trkpt><trkpt lat="37.9049144" lon="15.0885231"><ele>478.0</ele><time>2026-04-26T13:47:55.08Z</time></trkpt><trkpt lat="37.904987" lon="15.088653"><ele>477.0</ele><time>2026-04-26T13:47:56.076Z</time></trkpt><trkpt lat="37.9050564" lon="15.0887953"><ele>476.0</ele><time>2026-04-26T13:47:57.091Z</time></trkpt><trkpt lat="37.9051242" lon="15.0889487"><ele>475.0</ele><time>2026-04-26T13:47:58.065Z</time></trkpt><trkpt lat="37.9051918" lon="15.089119"><ele>475.0</ele><time>2026-04-26T13:47:59.068Z</time></trkpt><trkpt lat="37.9052562" lon="15.0892948"><ele>475.0</ele><time>2026-04-26T13:48:00.069Z</time></trkpt><trkpt lat="37.9053175" lon="15.0894649"><ele>475.0</ele><time>2026-04-26T13:48:01.066Z</time></trkpt><trkpt lat="37.9053743" lon="15.0896286"><ele>475.0</ele><time>2026-04-26T13:48:02.081Z</time></trkpt><trkpt lat="37.9054285" lon="15.0897845"><ele>475.25</ele><time>2026-04-26T13:48:03.063Z</time></trkpt><trkpt lat="37.9054823" lon="15.0899385"><ele>475.5</ele><time>2026-04-26T13:48:04.08Z</time></trkpt><trkpt lat="37.9055388" lon="15.0900829"><ele>475.75</ele><time>2026-04-26T13:48:05.077Z</time></trkpt><trkpt lat="37.9055998" lon="15.0902211"><ele>476.0</ele><time>2026-04-26T13:48:06.094Z</time></trkpt><trkpt lat="37.9056642" lon="15.0903516"><ele>476.0</ele><time>2026-04-26T13:48:07.081Z</time></trkpt><trkpt lat="37.9057329" lon="15.0904831"><ele>476.0</ele><time>2026-04-26T13:48:08.081Z</time></trkpt><trkpt lat="37.9058009" lon="15.0906165"><ele>476.0</ele><time>2026-04-26T13:48:09.099Z</time></trkpt><trkpt lat="37.9058662" lon="15.0907407"><ele>476.0</ele><time>2026-04-26T13:48:10.095Z</time></trkpt><trkpt lat="37.9059291" lon="15.0908657"><ele>474.25</ele><time>2026-04-26T13:48:11.081Z</time></trkpt><trkpt lat="37.9059897" lon="15.0910005"><ele>472.5</ele><time>2026-04-26T13:48:12.081Z</time></trkpt><trkpt lat="37.9060499" lon="15.0911362"><ele>470.75</ele><time>2026-04-26T13:48:13.079Z</time></trkpt><trkpt lat="37.9061134" lon="15.091266"><ele>469.0</ele><time>2026-04-26T13:48:14.097Z</time></trkpt><trkpt lat="37.9061787" lon="15.0913849"><ele>469.0</ele><time>2026-04-26T13:48:15.086Z</time></trkpt><trkpt lat="37.9062474" lon="15.0914984"><ele>469.0</ele><time>2026-04-26T13:48:16.094Z</time></trkpt><trkpt lat="37.9063214" lon="15.0916049"><ele>469.0</ele><time>2026-04-26T13:48:17.08Z</time></trkpt><trkpt lat="37.9064002" lon="15.0917034"><ele>469.0</ele><time>2026-04-26T13:48:18.094Z</time></trkpt><trkpt lat="37.9064707" lon="15.0918017"><ele>469.0</ele><time>2026-04-26T13:48:19.079Z</time></trkpt><trkpt lat="37.9065359" lon="15.091903"><ele>470.00000000000006</ele><time>2026-04-26T13:48:20.07Z</time></trkpt><trkpt lat="37.9065849" lon="15.0920048"><ele>471.0</ele><time>2026-04-26T13:48:21.073Z</time></trkpt><trkpt lat="37.9066155" lon="15.092107"><ele>472.0</ele><time>2026-04-26T13:48:22.065Z</time></trkpt><trkpt lat="37.9066266" lon="15.0922154"><ele>473.0</ele><time>2026-04-26T13:48:23.092Z</time></trkpt><trkpt lat="37.9066178" lon="15.0923236"><ele>474.00000000000006</ele><time>2026-04-26T13:48:24.069Z</time></trkpt><trkpt lat="37.9065898" lon="15.0924323"><ele>475.0</ele><time>2026-04-26T13:48:25.078Z</time></trkpt><trkpt lat="37.9065481" lon="15.092532"><ele>475.0</ele><time>2026-04-26T13:48:26.093Z</time></trkpt><trkpt lat="37.9064923" lon="15.0926205"><ele>475.0</ele><time>2026-04-26T13:48:27.07Z</time></trkpt><trkpt lat="37.9064191" lon="15.0927051"><ele>475.0</ele><time>2026-04-26T13:48:28.099Z</time></trkpt><trkpt lat="37.9063285" lon="15.0927863"><ele>475.0</ele><time>2026-04-26T13:48:29.062Z</time></trkpt><trkpt lat="37.9062269" lon="15.0928767"><ele>475.0</ele><time>2026-04-26T13:48:30.062Z</time></trkpt><trkpt lat="37.9061293" lon="15.0929702"><ele>475.0</ele><time>2026-04-26T13:48:31.065Z</time></trkpt><trkpt lat="37.9060427" lon="15.0930568"><ele>475.0</ele><time>2026-04-26T13:48:32.081Z</time></trkpt><trkpt lat="37.9059736" lon="15.0931477"><ele>475.0</ele><time>2026-04-26T13:48:33.065Z</time></trkpt><trkpt lat="37.9059293" lon="15.0932464"><ele>475.0</ele><time>2026-04-26T13:48:34.068Z</time></trkpt><trkpt lat="37.9059108" lon="15.093345"><ele>475.0</ele><time>2026-04-26T13:48:35.064Z</time></trkpt><trkpt lat="37.9059158" lon="15.0934404"><ele>473.2</ele><time>2026-04-26T13:48:36.083Z</time></trkpt><trkpt lat="37.9059482" lon="15.0935299"><ele>471.4</ele><time>2026-04-26T13:48:37.064Z</time></trkpt><trkpt lat="37.9060048" lon="15.0936208"><ele>469.6</ele><time>2026-04-26T13:48:38.081Z</time></trkpt><trkpt lat="37.9060772" lon="15.093725"><ele>467.8</ele><time>2026-04-26T13:48:39.084Z</time></trkpt><trkpt lat="37.9061537" lon="15.0938502"><ele>466.0</ele><time>2026-04-26T13:48:40.09Z</time></trkpt><trkpt lat="37.9062262" lon="15.093989"><ele>467.25</ele><time>2026-04-26T13:48:41.097Z</time></trkpt><trkpt lat="37.9062982" lon="15.0941135"><ele>468.5</ele><time>2026-04-26T13:48:42.082Z</time></trkpt><trkpt lat="37.9063783" lon="15.0942207"><ele>469.75</ele><time>2026-04-26T13:48:43.065Z</time></trkpt><trkpt lat="37.9064783" lon="15.094311"><ele>471.0</ele><time>2026-04-26T13:48:44.079Z</time></trkpt><trkpt lat="37.9065826" lon="15.0943925"><ele>471.0</ele><time>2026-04-26T13:48:45.079Z</time></trkpt><trkpt lat="37.9066802" lon="15.0944676"><ele>471.0</ele><time>2026-04-26T13:48:46.066Z</time></trkpt><trkpt lat="37.9067741" lon="15.0945202"><ele>471.0</ele><time>2026-04-26T13:48:47.077Z</time></trkpt><trkpt lat="37.906866" lon="15.0945361"><ele>471.0</ele><time>2026-04-26T13:48:48.066Z</time></trkpt><trkpt lat="37.9069611" lon="15.0945318"><ele>471.0</ele><time>2026-04-26T13:48:49.078Z</time></trkpt><trkpt lat="37.9070599" lon="15.0945096"><ele>469.0</ele><time>2026-04-26T13:48:50.078Z</time></trkpt><trkpt lat="37.9071616" lon="15.094487"><ele>467.0</ele><time>2026-04-26T13:48:51.081Z</time></trkpt><trkpt lat="37.9072583" lon="15.0944863"><ele>465.0</ele><time>2026-04-26T13:48:52.08Z</time></trkpt><trkpt lat="37.9073529" lon="15.0945081"><ele>463.0</ele><time>2026-04-26T13:48:53.07Z</time></trkpt><trkpt lat="37.9074467" lon="15.0945517"><ele>461.0</ele><time>2026-04-26T13:48:54.067Z</time></trkpt><trkpt lat="37.9075364" lon="15.094602"><ele>459.49999999999994</ele><time>2026-04-26T13:48:55.081Z</time></trkpt><trkpt lat="37.9076161" lon="15.0946555"><ele>458.0</ele><time>2026-04-26T13:48:56.07Z</time></trkpt><trkpt lat="37.9076792" lon="15.0947184"><ele>456.5</ele><time>2026-04-26T13:48:57.08Z</time></trkpt><trkpt lat="37.9077248" lon="15.0947927"><ele>455.0</ele><time>2026-04-26T13:48:58.092Z</time></trkpt><trkpt lat="37.9077477" lon="15.0948851"><ele>453.49999999999994</ele><time>2026-04-26T13:48:59.081Z</time></trkpt><trkpt lat="37.9077497" lon="15.0949946"><ele>452.0</ele><time>2026-04-26T13:49:00.059Z</time></trkpt><trkpt lat="37.9077351" lon="15.0951193"><ele>452.0</ele><time>2026-04-26T13:49:01.056Z</time></trkpt><trkpt lat="37.9077088" lon="15.0952656"><ele>452.0</ele><time>2026-04-26T13:49:02.056Z</time></trkpt><trkpt lat="37.9076817" lon="15.095422"><ele>452.0</ele><time>2026-04-26T13:49:03.06Z</time></trkpt><trkpt lat="37.9076533" lon="15.0955835"><ele>452.0</ele><time>2026-04-26T13:49:04.055Z</time></trkpt><trkpt lat="37.9076269" lon="15.0957518"><ele>451.0</ele><time>2026-04-26T13:49:05.059Z</time></trkpt><trkpt lat="37.9075977" lon="15.095933"><ele>450.0</ele><time>2026-04-26T13:49:06.058Z</time></trkpt><trkpt lat="37.9075662" lon="15.0961189"><ele>449.0</ele><time>2026-04-26T13:49:07.057Z</time></trkpt><trkpt lat="37.9075321" lon="15.0963025"><ele>448.0</ele><time>2026-04-26T13:49:08.057Z</time></trkpt><trkpt lat="37.9074942" lon="15.0964809"><ele>451.75</ele><time>2026-04-26T13:49:09.059Z</time></trkpt><trkpt lat="37.9074549" lon="15.0966471"><ele>455.5</ele><time>2026-04-26T13:49:10.059Z</time></trkpt><trkpt lat="37.9074178" lon="15.0968007"><ele>459.25</ele><time>2026-04-26T13:49:11.056Z</time></trkpt><trkpt lat="37.9073862" lon="15.0969432"><ele>463.0</ele><time>2026-04-26T13:49:12.059Z</time></trkpt><trkpt lat="37.9073568" lon="15.0970755"><ele>463.0</ele><time>2026-04-26T13:49:13.057Z</time></trkpt><trkpt lat="37.9073356" lon="15.0972052"><ele>462.99999999999994</ele><time>2026-04-26T13:49:14.066Z</time></trkpt><trkpt lat="37.9073305" lon="15.0973251"><ele>462.99999999999994</ele><time>2026-04-26T13:49:15.06Z</time></trkpt><trkpt lat="37.9073453" lon="15.0974386"><ele>463.0</ele><time>2026-04-26T13:49:16.057Z</time></trkpt><trkpt lat="37.9073813" lon="15.0975401"><ele>463.0</ele><time>2026-04-26T13:49:17.057Z</time></trkpt><trkpt lat="37.9074441" lon="15.097636"><ele>462.0</ele><time>2026-04-26T13:49:18.097Z</time></trkpt><trkpt lat="37.9075238" lon="15.0977273"><ele>460.99999999999994</ele><time>2026-04-26T13:49:19.098Z</time></trkpt><trkpt lat="37.9076146" lon="15.0978096"><ele>459.99999999999994</ele><time>2026-04-26T13:49:20.096Z</time></trkpt><trkpt lat="37.9077132" lon="15.0978791"><ele>459.0</ele><time>2026-04-26T13:49:21.093Z</time></trkpt><trkpt lat="37.9077988" lon="15.0979565"><ele>458.0</ele><time>2026-04-26T13:49:22.08Z</time></trkpt><trkpt lat="37.9078705" lon="15.0980416"><ele>455.49999999999994</ele><time>2026-04-26T13:49:23.101Z</time></trkpt><trkpt lat="37.9079137" lon="15.0981246"><ele>453.0</ele><time>2026-04-26T13:49:24.092Z</time></trkpt><trkpt lat="37.9079297" lon="15.0982048"><ele>450.5</ele><time>2026-04-26T13:49:25.079Z</time></trkpt><trkpt lat="37.9079228" lon="15.098285"><ele>448.0</ele><time>2026-04-26T13:49:26.077Z</time></trkpt><trkpt lat="37.9078948" lon="15.0983665"><ele>445.49999999999994</ele><time>2026-04-26T13:49:27.056Z</time></trkpt><trkpt lat="37.9078442" lon="15.0984505"><ele>443.0</ele><time>2026-04-26T13:49:28.056Z</time></trkpt><trkpt lat="37.9077655" lon="15.0985272"><ele>443.0</ele><time>2026-04-26T13:49:29.056Z</time></trkpt><trkpt lat="37.9076722" lon="15.0985906"><ele>442.99999999999994</ele><time>2026-04-26T13:49:30.057Z</time></trkpt><trkpt lat="37.9075825" lon="15.0986601"><ele>442.99999999999994</ele><time>2026-04-26T13:49:31.055Z</time></trkpt><trkpt lat="37.9075145" lon="15.0987437"><ele>443.0</ele><time>2026-04-26T13:49:32.055Z</time></trkpt><trkpt lat="37.9074741" lon="15.0988362"><ele>443.0</ele><time>2026-04-26T13:49:33.055Z</time></trkpt><trkpt lat="37.9074651" lon="15.0989318"><ele>442.2</ele><time>2026-04-26T13:49:34.056Z</time></trkpt><trkpt lat="37.9074864" lon="15.0990295"><ele>441.4</ele><time>2026-04-26T13:49:35.055Z</time></trkpt><trkpt lat="37.9075345" lon="15.099129"><ele>440.59999999999997</ele><time>2026-04-26T13:49:36.055Z</time></trkpt><trkpt lat="37.9076061" lon="15.0992309"><ele>439.79999999999995</ele><time>2026-04-26T13:49:37.089Z</time></trkpt><trkpt lat="37.9076931" lon="15.0993459"><ele>439.0</ele><time>2026-04-26T13:49:38.069Z</time></trkpt><trkpt lat="37.9077824" lon="15.0994668"><ele>439.0</ele><time>2026-04-26T13:49:39.067Z</time></trkpt><trkpt lat="37.9078677" lon="15.0995822"><ele>439.0</ele><time>2026-04-26T13:49:40.062Z</time></trkpt><trkpt lat="37.9079383" lon="15.099696"><ele>439.0</ele><time>2026-04-26T13:49:41.079Z</time></trkpt><trkpt lat="37.9079942" lon="15.0998052"><ele>439.0</ele><time>2026-04-26T13:49:42.078Z</time></trkpt><trkpt lat="37.9080314" lon="15.0999137"><ele>439.0</ele><time>2026-04-26T13:49:43.078Z</time></trkpt><trkpt lat="37.9080479" lon="15.1000297"><ele>438.79999999999995</ele><time>2026-04-26T13:49:44.056Z</time></trkpt><trkpt lat="37.9080459" lon="15.1001609"><ele>438.59999999999997</ele><time>2026-04-26T13:49:45.059Z</time></trkpt><trkpt lat="37.9080386" lon="15.1002961"><ele>438.4</ele><time>2026-04-26T13:49:46.058Z</time></trkpt><trkpt lat="37.9080317" lon="15.1004299"><ele>438.2</ele><time>2026-04-26T13:49:47.067Z</time></trkpt><trkpt lat="37.9080313" lon="15.1005566"><ele>438.0</ele><time>2026-04-26T13:49:48.065Z</time></trkpt><trkpt lat="37.908046" lon="15.1006715"><ele>438.2</ele><time>2026-04-26T13:49:49.056Z</time></trkpt><trkpt lat="37.9080766" lon="15.1007744"><ele>438.4</ele><time>2026-04-26T13:49:50.096Z</time></trkpt><trkpt lat="37.9081295" lon="15.1008581"><ele>438.59999999999997</ele><time>2026-04-26T13:49:51.061Z</time></trkpt><trkpt lat="37.9082076" lon="15.1009386"><ele>438.79999999999995</ele><time>2026-04-26T13:49:52.077Z</time></trkpt><trkpt lat="37.9083046" lon="15.1010221"><ele>439.0</ele><time>2026-04-26T13:49:53.08Z</time></trkpt><trkpt lat="37.9084203" lon="15.1011137"><ele>436.5</ele><time>2026-04-26T13:49:54.073Z</time></trkpt><trkpt lat="37.9085365" lon="15.1012232"><ele>434.0</ele><time>2026-04-26T13:49:55.065Z</time></trkpt><trkpt lat="37.9086459" lon="15.1013524"><ele>431.5</ele><time>2026-04-26T13:49:56.078Z</time></trkpt><trkpt lat="37.9087423" lon="15.1014919"><ele>429.0</ele><time>2026-04-26T13:49:57.065Z</time></trkpt><trkpt lat="37.9088351" lon="15.1016389"><ele>429.0</ele><time>2026-04-26T13:49:58.064Z</time></trkpt><trkpt lat="37.9089308" lon="15.1017904"><ele>429.0</ele><time>2026-04-26T13:49:59.065Z</time></trkpt><trkpt lat="37.9090299" lon="15.10194"><ele>429.0</ele><time>2026-04-26T13:50:00.062Z</time></trkpt><trkpt lat="37.9091313" lon="15.1020885"><ele>429.0</ele><time>2026-04-26T13:50:01.064Z</time></trkpt><trkpt lat="37.9092296" lon="15.1022295"><ele>429.0</ele><time>2026-04-26T13:50:02.063Z</time></trkpt><trkpt lat="37.9093243" lon="15.1023685"><ele>429.0</ele><time>2026-04-26T13:50:03.078Z</time></trkpt><trkpt lat="37.909419" lon="15.1025039"><ele>429.0</ele><time>2026-04-26T13:50:04.055Z</time></trkpt><trkpt lat="37.9095159" lon="15.102635"><ele>426.0</ele><time>2026-04-26T13:50:05.058Z</time></trkpt><trkpt lat="37.9096096" lon="15.1027589"><ele>423.0</ele><time>2026-04-26T13:50:06.054Z</time></trkpt><trkpt lat="37.9096972" lon="15.1028772"><ele>420.0</ele><time>2026-04-26T13:50:07.077Z</time></trkpt><trkpt lat="37.9097744" lon="15.1029916"><ele>417.0</ele><time>2026-04-26T13:50:08.062Z</time></trkpt><trkpt lat="37.9098465" lon="15.1031076"><ele>417.0</ele><time>2026-04-26T13:50:09.076Z</time></trkpt><trkpt lat="37.9099194" lon="15.1032225"><ele>417.0</ele><time>2026-04-26T13:50:10.063Z</time></trkpt><trkpt lat="37.9099946" lon="15.1033368"><ele>417.0</ele><time>2026-04-26T13:50:11.062Z</time></trkpt><trkpt lat="37.9100674" lon="15.1034493"><ele>417.0</ele><time>2026-04-26T13:50:12.069Z</time></trkpt><trkpt lat="37.9101368" lon="15.1035606"><ele>414.40000000000003</ele><time>2026-04-26T13:50:13.061Z</time></trkpt><trkpt lat="37.910207" lon="15.1036684"><ele>411.8</ele><time>2026-04-26T13:50:14.065Z</time></trkpt><trkpt lat="37.9102808" lon="15.1037691"><ele>409.2</ele><time>2026-04-26T13:50:15.069Z</time></trkpt><trkpt lat="37.9103479" lon="15.1038679"><ele>406.6</ele><time>2026-04-26T13:50:16.067Z</time></trkpt><trkpt lat="37.9104023" lon="15.1039715"><ele>404.0</ele><time>2026-04-26T13:50:17.091Z</time></trkpt><trkpt lat="37.9104403" lon="15.1040773"><ele>404.2</ele><time>2026-04-26T13:50:18.06Z</time></trkpt><trkpt lat="37.9104641" lon="15.1041921"><ele>404.4</ele><time>2026-04-26T13:50:19.079Z</time></trkpt><trkpt lat="37.9104749" lon="15.1043174"><ele>404.6</ele><time>2026-04-26T13:50:20.093Z</time></trkpt><trkpt lat="37.9104732" lon="15.1044529"><ele>404.8</ele><time>2026-04-26T13:50:21.058Z</time></trkpt><trkpt lat="37.9104749" lon="15.1045834"><ele>405.0</ele><time>2026-04-26T13:50:22.079Z</time></trkpt><trkpt lat="37.9104844" lon="15.1047002"><ele>405.0</ele><time>2026-04-26T13:50:23.069Z</time></trkpt><trkpt lat="37.9105093" lon="15.1048012"><ele>405.0</ele><time>2026-04-26T13:50:24.081Z</time></trkpt><trkpt lat="37.9105474" lon="15.1048854"><ele>405.0</ele><time>2026-04-26T13:50:25.067Z</time></trkpt><trkpt lat="37.9106114" lon="15.1049528"><ele>405.0</ele><time>2026-04-26T13:50:26.081Z</time></trkpt><trkpt lat="37.910697" lon="15.105009"><ele>405.0</ele><time>2026-04-26T13:50:27.078Z</time></trkpt><trkpt lat="37.9107985" lon="15.1050603"><ele>405.0</ele><time>2026-04-26T13:50:28.065Z</time></trkpt><trkpt lat="37.910916" lon="15.1051083"><ele>402.2</ele><time>2026-04-26T13:50:29.081Z</time></trkpt><trkpt lat="37.9110332" lon="15.1051444"><ele>399.4</ele><time>2026-04-26T13:50:30.066Z</time></trkpt><trkpt lat="37.9111387" lon="15.1051764"><ele>396.6</ele><time>2026-04-26T13:50:31.08Z</time></trkpt><trkpt lat="37.911224" lon="15.1052258"><ele>393.8</ele><time>2026-04-26T13:50:32.081Z</time></trkpt><trkpt lat="37.9112947" lon="15.1052934"><ele>391.0</ele><time>2026-04-26T13:50:33.059Z</time></trkpt><trkpt lat="37.9113546" lon="15.1053849"><ele>391.0</ele><time>2026-04-26T13:50:34.095Z</time></trkpt><trkpt lat="37.9114101" lon="15.1054879"><ele>391.0</ele><time>2026-04-26T13:50:35.078Z</time></trkpt><trkpt lat="37.9114708" lon="15.1056007"><ele>391.0</ele><time>2026-04-26T13:50:36.068Z</time></trkpt><trkpt lat="37.9115388" lon="15.105712"><ele>391.0</ele><time>2026-04-26T13:50:37.065Z</time></trkpt><trkpt lat="37.9116035" lon="15.105822"><ele>391.0</ele><time>2026-04-26T13:50:38.068Z</time></trkpt><trkpt lat="37.91167" lon="15.1059248"><ele>391.0</ele><time>2026-04-26T13:50:39.065Z</time></trkpt><trkpt lat="37.91174" lon="15.1060206"><ele>391.0</ele><time>2026-04-26T13:50:40.062Z</time></trkpt><trkpt lat="37.9118135" lon="15.1061055"><ele>391.0</ele><time>2026-04-26T13:50:41.06Z</time></trkpt><trkpt lat="37.9118965" lon="15.1061731"><ele>391.0</ele><time>2026-04-26T13:50:42.076Z</time></trkpt><trkpt lat="37.9119815" lon="15.1062271"><ele>391.0</ele><time>2026-04-26T13:50:43.066Z</time></trkpt><trkpt lat="37.912065" lon="15.106276"><ele>391.00000000000006</ele><time>2026-04-26T13:50:44.066Z</time></trkpt><trkpt lat="37.9121397" lon="15.1063137"><ele>391.0</ele><time>2026-04-26T13:50:45.075Z</time></trkpt><trkpt lat="37.9122023" lon="15.106334"><ele>391.0</ele><time>2026-04-26T13:50:46.056Z</time></trkpt><trkpt lat="37.9122919" lon="15.1063347"><ele>391.0</ele><time>2026-04-26T13:50:48.06Z</time></trkpt><trkpt lat="37.9123617" lon="15.1063809"><ele>391.00000000000006</ele><time>2026-04-26T13:50:53.078Z</time></trkpt><trkpt lat="37.91242" lon="15.1065358"><ele>391.0</ele><time>2026-04-26T13:50:55.076Z</time></trkpt><trkpt lat="37.9124378" lon="15.1066491"><ele>391.6</ele><time>2026-04-26T13:50:56.079Z</time></trkpt><trkpt lat="37.9124527" lon="15.1067775"><ele>392.20000000000005</ele><time>2026-04-26T13:50:57.093Z</time></trkpt><trkpt lat="37.9124605" lon="15.1069042"><ele>392.79999999999995</ele><time>2026-04-26T13:50:58.081Z</time></trkpt><trkpt lat="37.9124577" lon="15.1070142"><ele>393.4</ele><time>2026-04-26T13:50:59.084Z</time></trkpt><trkpt lat="37.9124539" lon="15.1071225"><ele>394.0</ele><time>2026-04-26T13:51:00.073Z</time></trkpt><trkpt lat="37.9124488" lon="15.1072329"><ele>394.0</ele><time>2026-04-26T13:51:01.079Z</time></trkpt><trkpt lat="37.9124346" lon="15.1073495"><ele>394.0</ele><time>2026-04-26T13:51:02.07Z</time></trkpt><trkpt lat="37.912404" lon="15.1074647"><ele>394.0</ele><time>2026-04-26T13:51:03.056Z</time></trkpt><trkpt lat="37.9123496" lon="15.1075793"><ele>394.0</ele><time>2026-04-26T13:51:04.067Z</time></trkpt><trkpt lat="37.9122722" lon="15.1076965"><ele>394.0</ele><time>2026-04-26T13:51:05.057Z</time></trkpt><trkpt lat="37.9121859" lon="15.1078127"><ele>393.5</ele><time>2026-04-26T13:51:06.067Z</time></trkpt><trkpt lat="37.9120955" lon="15.1079436"><ele>393.0</ele><time>2026-04-26T13:51:07.079Z</time></trkpt><trkpt lat="37.9120038" lon="15.1080972"><ele>392.5</ele><time>2026-04-26T13:51:08.058Z</time></trkpt><trkpt lat="37.9119166" lon="15.1082666"><ele>392.0</ele><time>2026-04-26T13:51:09.062Z</time></trkpt><trkpt lat="37.9118323" lon="15.108444"><ele>389.66666666666663</ele><time>2026-04-26T13:51:10.091Z</time></trkpt><trkpt lat="37.9117451" lon="15.1086242"><ele>387.33333333333337</ele><time>2026-04-26T13:51:11.081Z</time></trkpt><trkpt lat="37.9116543" lon="15.1088056"><ele>385.0</ele><time>2026-04-26T13:51:12.063Z</time></trkpt><trkpt lat="37.9115516" lon="15.1089836"><ele>386.33333333333337</ele><time>2026-04-26T13:51:13.069Z</time></trkpt><trkpt lat="37.9114333" lon="15.1091488"><ele>387.66666666666663</ele><time>2026-04-26T13:51:14.09Z</time></trkpt><trkpt lat="37.9113135" lon="15.1093068"><ele>389.0</ele><time>2026-04-26T13:51:15.067Z</time></trkpt><trkpt lat="37.9112035" lon="15.1094477"><ele>389.0</ele><time>2026-04-26T13:51:16.086Z</time></trkpt><trkpt lat="37.9111169" lon="15.1095807"><ele>389.0</ele><time>2026-04-26T13:51:17.057Z</time></trkpt><trkpt lat="37.9110498" lon="15.1097173"><ele>389.0</ele><time>2026-04-26T13:51:18.059Z</time></trkpt><trkpt lat="37.9110078" lon="15.1098562"><ele>389.0</ele><time>2026-04-26T13:51:19.089Z</time></trkpt><trkpt lat="37.9109842" lon="15.1100005"><ele>386.5</ele><time>2026-04-26T13:51:20.079Z</time></trkpt><trkpt lat="37.9109698" lon="15.1101633"><ele>384.0</ele><time>2026-04-26T13:51:21.059Z</time></trkpt><trkpt lat="37.9109694" lon="15.1103396"><ele>381.5</ele><time>2026-04-26T13:51:22.08Z</time></trkpt><trkpt lat="37.9109587" lon="15.110507"><ele>379.0</ele><time>2026-04-26T13:51:23.059Z</time></trkpt><trkpt lat="37.9109355" lon="15.1106644"><ele>383.0</ele><time>2026-04-26T13:51:24.079Z</time></trkpt><trkpt lat="37.9108917" lon="15.1108151"><ele>387.0</ele><time>2026-04-26T13:51:25.068Z</time></trkpt><trkpt lat="37.9108222" lon="15.1109575"><ele>391.0</ele><time>2026-04-26T13:51:26.079Z</time></trkpt><trkpt lat="37.9107346" lon="15.1110786"><ele>395.0</ele><time>2026-04-26T13:51:27.057Z</time></trkpt><trkpt lat="37.9106422" lon="15.1111817"><ele>395.0</ele><time>2026-04-26T13:51:28.077Z</time></trkpt><trkpt lat="37.9105597" lon="15.1112625"><ele>395.0</ele><time>2026-04-26T13:51:29.056Z</time></trkpt><trkpt lat="37.9105026" lon="15.1113542"><ele>395.0</ele><time>2026-04-26T13:51:30.065Z</time></trkpt><trkpt lat="37.9104758" lon="15.1114672"><ele>395.0</ele><time>2026-04-26T13:51:31.069Z</time></trkpt><trkpt lat="37.9104682" lon="15.111593"><ele>395.0</ele><time>2026-04-26T13:51:32.079Z</time></trkpt><trkpt lat="37.9104826" lon="15.1117403"><ele>392.3333333333333</ele><time>2026-04-26T13:51:33.077Z</time></trkpt><trkpt lat="37.91052" lon="15.1119209"><ele>389.66666666666663</ele><time>2026-04-26T13:51:34.078Z</time></trkpt><trkpt lat="37.9105619" lon="15.1121176"><ele>387.0</ele><time>2026-04-26T13:51:35.061Z</time></trkpt><trkpt lat="37.9105983" lon="15.1123273"><ele>386.0</ele><time>2026-04-26T13:51:36.078Z</time></trkpt><trkpt lat="37.9106281" lon="15.1125287"><ele>385.0</ele><time>2026-04-26T13:51:37.089Z</time></trkpt><trkpt lat="37.9106615" lon="15.1127179"><ele>384.0</ele><time>2026-04-26T13:51:38.077Z</time></trkpt><trkpt lat="37.910692" lon="15.1129008"><ele>384.0</ele><time>2026-04-26T13:51:39.08Z</time></trkpt><trkpt lat="37.9107168" lon="15.1130695"><ele>384.0</ele><time>2026-04-26T13:51:40.08Z</time></trkpt><trkpt lat="37.9107293" lon="15.1132291"><ele>384.0</ele><time>2026-04-26T13:51:41.085Z</time></trkpt><trkpt lat="37.91072" lon="15.1133784"><ele>384.0</ele><time>2026-04-26T13:51:42.071Z</time></trkpt><trkpt lat="37.9106883" lon="15.1135251"><ele>383.6</ele><time>2026-04-26T13:51:43.077Z</time></trkpt><trkpt lat="37.9106429" lon="15.1136607"><ele>383.2</ele><time>2026-04-26T13:51:44.078Z</time></trkpt><trkpt lat="37.9105831" lon="15.1137691"><ele>382.8</ele><time>2026-04-26T13:51:45.065Z</time></trkpt><trkpt lat="37.9105057" lon="15.1138404"><ele>382.40000000000003</ele><time>2026-04-26T13:51:46.094Z</time></trkpt><trkpt lat="37.910409" lon="15.1138951"><ele>382.0</ele><time>2026-04-26T13:51:47.063Z</time></trkpt><trkpt lat="37.9102922" lon="15.1139468"><ele>382.0</ele><time>2026-04-26T13:51:48.067Z</time></trkpt><trkpt lat="37.9101677" lon="15.1140152"><ele>382.0</ele><time>2026-04-26T13:51:49.056Z</time></trkpt><trkpt lat="37.9100534" lon="15.1141008"><ele>382.0</ele><time>2026-04-26T13:51:50.056Z</time></trkpt><trkpt lat="37.9099456" lon="15.1142004"><ele>382.0</ele><time>2026-04-26T13:51:51.059Z</time></trkpt><trkpt lat="37.9098508" lon="15.1143049"><ele>383.6</ele><time>2026-04-26T13:51:52.078Z</time></trkpt><trkpt lat="37.9097689" lon="15.114408"><ele>385.20000000000005</ele><time>2026-04-26T13:51:53.077Z</time></trkpt><trkpt lat="37.9096939" lon="15.1145178"><ele>386.8</ele><time>2026-04-26T13:51:54.078Z</time></trkpt><trkpt lat="37.9096498" lon="15.1146172"><ele>388.4</ele><time>2026-04-26T13:51:55.076Z</time></trkpt><trkpt lat="37.9096288" lon="15.1147155"><ele>390.0</ele><time>2026-04-26T13:51:56.076Z</time></trkpt><trkpt lat="37.9096252" lon="15.1148237"><ele>384.8</ele><time>2026-04-26T13:51:57.088Z</time></trkpt><trkpt lat="37.9096216" lon="15.1149301"><ele>379.6</ele><time>2026-04-26T13:51:58.063Z</time></trkpt><trkpt lat="37.9095984" lon="15.115025"><ele>374.4</ele><time>2026-04-26T13:51:59.072Z</time></trkpt><trkpt lat="37.9095434" lon="15.1151071"><ele>369.2</ele><time>2026-04-26T13:52:00.062Z</time></trkpt><trkpt lat="37.9094584" lon="15.115185"><ele>364.0</ele><time>2026-04-26T13:52:01.055Z</time></trkpt><trkpt lat="37.9093626" lon="15.1152419"><ele>364.0</ele><time>2026-04-26T13:52:02.043Z</time></trkpt><trkpt lat="37.9092685" lon="15.1152787"><ele>364.0</ele><time>2026-04-26T13:52:03.055Z</time></trkpt><trkpt lat="37.9091761" lon="15.1153032"><ele>364.0</ele><time>2026-04-26T13:52:04.054Z</time></trkpt><trkpt lat="37.9090947" lon="15.115327"><ele>364.0</ele><time>2026-04-26T13:52:05.054Z</time></trkpt><trkpt lat="37.9090305" lon="15.1153843"><ele>364.0</ele><time>2026-04-26T13:52:06.055Z</time></trkpt><trkpt lat="37.9089878" lon="15.1154792"><ele>364.0</ele><time>2026-04-26T13:52:07.051Z</time></trkpt><trkpt lat="37.9089512" lon="15.1156039"><ele>365.25</ele><time>2026-04-26T13:52:08.076Z</time></trkpt><trkpt lat="37.9089284" lon="15.115748"><ele>366.5</ele><time>2026-04-26T13:52:09.057Z</time></trkpt><trkpt lat="37.9089252" lon="15.1159073"><ele>367.75</ele><time>2026-04-26T13:52:10.077Z</time></trkpt><trkpt lat="37.9089352" lon="15.1160645"><ele>369.0</ele><time>2026-04-26T13:52:11.08Z</time></trkpt><trkpt lat="37.9089432" lon="15.1162108"><ele>369.0</ele><time>2026-04-26T13:52:12.084Z</time></trkpt><trkpt lat="37.9089405" lon="15.1163364"><ele>369.0</ele><time>2026-04-26T13:52:13.078Z</time></trkpt><trkpt lat="37.9089165" lon="15.1164487"><ele>369.0</ele><time>2026-04-26T13:52:14.079Z</time></trkpt><trkpt lat="37.9088705" lon="15.1165464"><ele>369.0</ele><time>2026-04-26T13:52:15.056Z</time></trkpt><trkpt lat="37.9088128" lon="15.1166429"><ele>369.0</ele><time>2026-04-26T13:52:16.058Z</time></trkpt><trkpt lat="37.9087587" lon="15.1167565"><ele>365.75</ele><time>2026-04-26T13:52:17.052Z</time></trkpt><trkpt lat="37.9087179" lon="15.116901"><ele>362.5</ele><time>2026-04-26T13:52:18.043Z</time></trkpt><trkpt lat="37.9086927" lon="15.1170673"><ele>359.25</ele><time>2026-04-26T13:52:19.053Z</time></trkpt><trkpt lat="37.9086801" lon="15.1172233"><ele>356.0</ele><time>2026-04-26T13:52:20.044Z</time></trkpt><trkpt lat="37.9086771" lon="15.1173653"><ele>353.6</ele><time>2026-04-26T13:52:21.056Z</time></trkpt><trkpt lat="37.9086696" lon="15.1174938"><ele>351.20000000000005</ele><time>2026-04-26T13:52:22.045Z</time></trkpt><trkpt lat="37.9086398" lon="15.1176134"><ele>348.79999999999995</ele><time>2026-04-26T13:52:23.05Z</time></trkpt><trkpt lat="37.9085893" lon="15.1177209"><ele>346.4</ele><time>2026-04-26T13:52:24.042Z</time></trkpt><trkpt lat="37.9085151" lon="15.1178185"><ele>344.0</ele><time>2026-04-26T13:52:25.044Z</time></trkpt><trkpt lat="37.9084186" lon="15.1179098"><ele>354.5</ele><time>2026-04-26T13:52:26.049Z</time></trkpt><trkpt lat="37.9083021" lon="15.1179975"><ele>365.0</ele><time>2026-04-26T13:52:27.056Z</time></trkpt><trkpt lat="37.9081911" lon="15.1180664"><ele>375.5</ele><time>2026-04-26T13:52:28.056Z</time></trkpt><trkpt lat="37.9080889" lon="15.1181043"><ele>386.0</ele><time>2026-04-26T13:52:29.057Z</time></trkpt><trkpt lat="37.9079913" lon="15.1181125"><ele>385.99999999999994</ele><time>2026-04-26T13:52:30.043Z</time></trkpt><trkpt lat="37.9079003" lon="15.1180956"><ele>386.0</ele><time>2026-04-26T13:52:31.043Z</time></trkpt><trkpt lat="37.9078143" lon="15.1180762"><ele>386.0</ele><time>2026-04-26T13:52:32.052Z</time></trkpt><trkpt lat="37.9077404" lon="15.1180829"><ele>386.0</ele><time>2026-04-26T13:52:33.052Z</time></trkpt><trkpt lat="37.9076814" lon="15.1181182"><ele>385.99999999999994</ele><time>2026-04-26T13:52:34.043Z</time></trkpt><trkpt lat="37.9076253" lon="15.1181852"><ele>386.0</ele><time>2026-04-26T13:52:35.042Z</time></trkpt><trkpt lat="37.9075715" lon="15.118283"><ele>382.75</ele><time>2026-04-26T13:52:36.043Z</time></trkpt><trkpt lat="37.907513" lon="15.1184098"><ele>379.5</ele><time>2026-04-26T13:52:37.042Z</time></trkpt><trkpt lat="37.9074571" lon="15.1185637"><ele>376.25</ele><time>2026-04-26T13:52:38.052Z</time></trkpt><trkpt lat="37.907412" lon="15.1187281"><ele>373.0</ele><time>2026-04-26T13:52:39.052Z</time></trkpt><trkpt lat="37.9073742" lon="15.1189094"><ele>367.3333333333333</ele><time>2026-04-26T13:52:40.055Z</time></trkpt><trkpt lat="37.907336" lon="15.119103"><ele>361.6666666666667</ele><time>2026-04-26T13:52:41.051Z</time></trkpt><trkpt lat="37.9073059" lon="15.1192957"><ele>356.0</ele><time>2026-04-26T13:52:42.043Z</time></trkpt><trkpt lat="37.9072689" lon="15.119483"><ele>356.0</ele><time>2026-04-26T13:52:43.05Z</time></trkpt><trkpt lat="37.907226" lon="15.1196571"><ele>356.0</ele><time>2026-04-26T13:52:44.044Z</time></trkpt><trkpt lat="37.907187" lon="15.1198173"><ele>356.0</ele><time>2026-04-26T13:52:45.081Z</time></trkpt><trkpt lat="37.9071662" lon="15.1199671"><ele>356.0</ele><time>2026-04-26T13:52:46.044Z</time></trkpt><trkpt lat="37.9071653" lon="15.120123"><ele>353.75</ele><time>2026-04-26T13:52:47.044Z</time></trkpt><trkpt lat="37.9071733" lon="15.1202707"><ele>351.5</ele><time>2026-04-26T13:52:48.05Z</time></trkpt><trkpt lat="37.9071731" lon="15.1204149"><ele>349.25</ele><time>2026-04-26T13:52:49.057Z</time></trkpt><trkpt lat="37.9071528" lon="15.1205487"><ele>347.0</ele><time>2026-04-26T13:52:50.054Z</time></trkpt><trkpt lat="37.9071066" lon="15.1206791"><ele>344.75</ele><time>2026-04-26T13:52:51.045Z</time></trkpt><trkpt lat="37.907039" lon="15.1208077"><ele>342.5</ele><time>2026-04-26T13:52:52.044Z</time></trkpt><trkpt lat="37.9069623" lon="15.1209222"><ele>340.25</ele><time>2026-04-26T13:52:53.044Z</time></trkpt><trkpt lat="37.9068749" lon="15.1210238"><ele>338.0</ele><time>2026-04-26T13:52:54.055Z</time></trkpt><trkpt lat="37.906774" lon="15.1211177"><ele>343.25</ele><time>2026-04-26T13:52:55.044Z</time></trkpt><trkpt lat="37.9066661" lon="15.1212093"><ele>348.5</ele><time>2026-04-26T13:52:56.044Z</time></trkpt><trkpt lat="37.9065656" lon="15.1212973"><ele>353.75</ele><time>2026-04-26T13:52:57.046Z</time></trkpt><trkpt lat="37.9064864" lon="15.1213995"><ele>359.0</ele><time>2026-04-26T13:52:58.044Z</time></trkpt><trkpt lat="37.906419" lon="15.1215143"><ele>355.2</ele><time>2026-04-26T13:52:59.043Z</time></trkpt><trkpt lat="37.9063622" lon="15.1216336"><ele>351.4</ele><time>2026-04-26T13:53:00.052Z</time></trkpt><trkpt lat="37.9063083" lon="15.1217559"><ele>347.6</ele><time>2026-04-26T13:53:01.051Z</time></trkpt><trkpt lat="37.9062502" lon="15.1218704"><ele>343.8</ele><time>2026-04-26T13:53:02.043Z</time></trkpt><trkpt lat="37.9061728" lon="15.1219666"><ele>340.0</ele><time>2026-04-26T13:53:03.052Z</time></trkpt><trkpt lat="37.906077" lon="15.1220611"><ele>340.0</ele><time>2026-04-26T13:53:04.052Z</time></trkpt><trkpt lat="37.9059797" lon="15.1221757"><ele>340.0</ele><time>2026-04-26T13:53:05.055Z</time></trkpt><trkpt lat="37.9058958" lon="15.1223163"><ele>340.0</ele><time>2026-04-26T13:53:06.055Z</time></trkpt><trkpt lat="37.9058186" lon="15.1224736"><ele>340.0</ele><time>2026-04-26T13:53:07.054Z</time></trkpt><trkpt lat="37.9057548" lon="15.1226382"><ele>341.3333333333333</ele><time>2026-04-26T13:53:08.045Z</time></trkpt><trkpt lat="37.9057036" lon="15.1228175"><ele>342.6666666666667</ele><time>2026-04-26T13:53:09.042Z</time></trkpt><trkpt lat="37.9056634" lon="15.1230055"><ele>344.0</ele><time>2026-04-26T13:53:10.055Z</time></trkpt><trkpt lat="37.9056303" lon="15.1231906"><ele>341.25</ele><time>2026-04-26T13:53:11.065Z</time></trkpt><trkpt lat="37.9055905" lon="15.123356"><ele>338.5</ele><time>2026-04-26T13:53:12.067Z</time></trkpt><trkpt lat="37.9055404" lon="15.1235052"><ele>335.75</ele><time>2026-04-26T13:53:13.064Z</time></trkpt><trkpt lat="37.9054774" lon="15.1236388"><ele>333.0</ele><time>2026-04-26T13:53:14.068Z</time></trkpt><trkpt lat="37.9053955" lon="15.1237634"><ele>333.0</ele><time>2026-04-26T13:53:15.068Z</time></trkpt><trkpt lat="37.9052989" lon="15.1238821"><ele>333.0</ele><time>2026-04-26T13:53:16.049Z</time></trkpt><trkpt lat="37.9052058" lon="15.1240039"><ele>333.0</ele><time>2026-04-26T13:53:17.055Z</time></trkpt><trkpt lat="37.905127" lon="15.1241362"><ele>333.0</ele><time>2026-04-26T13:53:18.076Z</time></trkpt><trkpt lat="37.9050623" lon="15.1242853"><ele>334.25</ele><time>2026-04-26T13:53:19.09Z</time></trkpt><trkpt lat="37.9049999" lon="15.1244422"><ele>335.5</ele><time>2026-04-26T13:53:20.083Z</time></trkpt><trkpt lat="37.9049558" lon="15.1246121"><ele>336.75</ele><time>2026-04-26T13:53:21.099Z</time></trkpt><trkpt lat="37.9049197" lon="15.1247931"><ele>338.0</ele><time>2026-04-26T13:53:22.08Z</time></trkpt><trkpt lat="37.9048833" lon="15.1249782"><ele>338.0</ele><time>2026-04-26T13:53:23.066Z</time></trkpt><trkpt lat="37.9048461" lon="15.1251597"><ele>338.0</ele><time>2026-04-26T13:53:24.082Z</time></trkpt><trkpt lat="37.9048138" lon="15.1253348"><ele>338.0</ele><time>2026-04-26T13:53:25.081Z</time></trkpt><trkpt lat="37.9047912" lon="15.1255039"><ele>338.0</ele><time>2026-04-26T13:53:26.068Z</time></trkpt><trkpt lat="37.9047807" lon="15.125661"><ele>336.5</ele><time>2026-04-26T13:53:27.066Z</time></trkpt><trkpt lat="37.904785" lon="15.1258095"><ele>335.0</ele><time>2026-04-26T13:53:28.087Z</time></trkpt><trkpt lat="37.9047952" lon="15.1259481"><ele>333.5</ele><time>2026-04-26T13:53:29.078Z</time></trkpt><trkpt lat="37.9048248" lon="15.1260894"><ele>332.0</ele><time>2026-04-26T13:53:30.07Z</time></trkpt><trkpt lat="37.9048765" lon="15.1262453"><ele>332.0</ele><time>2026-04-26T13:53:31.048Z</time></trkpt><trkpt lat="37.9049339" lon="15.1264171"><ele>332.0</ele><time>2026-04-26T13:53:32.055Z</time></trkpt><trkpt lat="37.9049771" lon="15.1265965"><ele>332.0</ele><time>2026-04-26T13:53:33.056Z</time></trkpt><trkpt lat="37.9049998" lon="15.126792"><ele>332.0</ele><time>2026-04-26T13:53:34.077Z</time></trkpt><trkpt lat="37.9050053" lon="15.1269927"><ele>332.0</ele><time>2026-04-26T13:53:35.044Z</time></trkpt><trkpt lat="37.9049989" lon="15.1271977"><ele>332.0</ele><time>2026-04-26T13:53:36.06Z</time></trkpt><trkpt lat="37.9049789" lon="15.1273978"><ele>332.0</ele><time>2026-04-26T13:53:37.046Z</time></trkpt><trkpt lat="37.9049378" lon="15.1275934"><ele>332.0</ele><time>2026-04-26T13:53:38.043Z</time></trkpt><trkpt lat="37.9048833" lon="15.1277846"><ele>332.0</ele><time>2026-04-26T13:53:39.067Z</time></trkpt><trkpt lat="37.9048121" lon="15.1279754"><ele>332.0</ele><time>2026-04-26T13:53:40.077Z</time></trkpt><trkpt lat="37.9047172" lon="15.1281615"><ele>332.0</ele><time>2026-04-26T13:53:41.044Z</time></trkpt><trkpt lat="37.9046158" lon="15.1283451"><ele>332.0</ele><time>2026-04-26T13:53:42.055Z</time></trkpt><trkpt lat="37.9045184" lon="15.1285282"><ele>330.25</ele><time>2026-04-26T13:53:43.056Z</time></trkpt><trkpt lat="37.9044394" lon="15.1287011"><ele>328.5</ele><time>2026-04-26T13:53:44.055Z</time></trkpt><trkpt lat="37.9043821" lon="15.1288554"><ele>326.75</ele><time>2026-04-26T13:53:45.056Z</time></trkpt><trkpt lat="37.9043414" lon="15.1289983"><ele>325.0</ele><time>2026-04-26T13:53:46.056Z</time></trkpt><trkpt lat="37.904311" lon="15.1291388"><ele>325.0</ele><time>2026-04-26T13:53:47.057Z</time></trkpt><trkpt lat="37.9042819" lon="15.1292774"><ele>325.0</ele><time>2026-04-26T13:53:48.064Z</time></trkpt><trkpt lat="37.9042521" lon="15.1294123"><ele>325.0</ele><time>2026-04-26T13:53:49.079Z</time></trkpt><trkpt lat="37.9042253" lon="15.1295407"><ele>325.0</ele><time>2026-04-26T13:53:50.082Z</time></trkpt><trkpt lat="37.9042017" lon="15.129661"><ele>325.0</ele><time>2026-04-26T13:53:51.069Z</time></trkpt><trkpt lat="37.9041765" lon="15.1297756"><ele>325.66666666666663</ele><time>2026-04-26T13:53:52.078Z</time></trkpt><trkpt lat="37.904149" lon="15.1298826"><ele>326.3333333333333</ele><time>2026-04-26T13:53:53.082Z</time></trkpt><trkpt lat="37.9041187" lon="15.1299831"><ele>327.0</ele><time>2026-04-26T13:53:54.081Z</time></trkpt><trkpt lat="37.9040867" lon="15.1300842"><ele>327.6666666666667</ele><time>2026-04-26T13:53:55.083Z</time></trkpt><trkpt lat="37.9040531" lon="15.1301887"><ele>328.33333333333337</ele><time>2026-04-26T13:53:56.082Z</time></trkpt><trkpt lat="37.9040126" lon="15.1302985"><ele>329.0</ele><time>2026-04-26T13:53:57.081Z</time></trkpt><trkpt lat="37.9039637" lon="15.1304117"><ele>329.75</ele><time>2026-04-26T13:53:58.077Z</time></trkpt><trkpt lat="37.9039028" lon="15.1305336"><ele>330.5</ele><time>2026-04-26T13:53:59.066Z</time></trkpt><trkpt lat="37.9038288" lon="15.1306639"><ele>331.25</ele><time>2026-04-26T13:54:00.065Z</time></trkpt><trkpt lat="37.9037427" lon="15.1308084"><ele>332.0</ele><time>2026-04-26T13:54:01.069Z</time></trkpt><trkpt lat="37.9036528" lon="15.1309561"><ele>332.0</ele><time>2026-04-26T13:54:02.068Z</time></trkpt><trkpt lat="37.9035632" lon="15.1310934"><ele>332.0</ele><time>2026-04-26T13:54:03.077Z</time></trkpt><trkpt lat="37.9034731" lon="15.1312186"><ele>332.0</ele><time>2026-04-26T13:54:04.095Z</time></trkpt><trkpt lat="37.9033805" lon="15.1313323"><ele>332.0</ele><time>2026-04-26T13:54:05.058Z</time></trkpt><trkpt lat="37.9032797" lon="15.1314408"><ele>332.0</ele><time>2026-04-26T13:54:06.055Z</time></trkpt><trkpt lat="37.9031719" lon="15.1315387"><ele>332.0</ele><time>2026-04-26T13:54:07.058Z</time></trkpt><trkpt lat="37.9030575" lon="15.1316234"><ele>332.0</ele><time>2026-04-26T13:54:08.056Z</time></trkpt><trkpt lat="37.9029336" lon="15.1316999"><ele>332.0</ele><time>2026-04-26T13:54:09.057Z</time></trkpt><trkpt lat="37.9028056" lon="15.1317769"><ele>332.0</ele><time>2026-04-26T13:54:10.056Z</time></trkpt><trkpt lat="37.9026786" lon="15.1318598"><ele>332.0</ele><time>2026-04-26T13:54:11.06Z</time></trkpt><trkpt lat="37.9025607" lon="15.1319515"><ele>332.0</ele><time>2026-04-26T13:54:12.055Z</time></trkpt><trkpt lat="37.9024562" lon="15.1320532"><ele>332.0</ele><time>2026-04-26T13:54:13.056Z</time></trkpt><trkpt lat="37.9023588" lon="15.1321554"><ele>332.20000000000005</ele><time>2026-04-26T13:54:14.056Z</time></trkpt><trkpt lat="37.902267" lon="15.1322522"><ele>332.4</ele><time>2026-04-26T13:54:15.06Z</time></trkpt><trkpt lat="37.9021836" lon="15.1323411"><ele>332.6</ele><time>2026-04-26T13:54:16.057Z</time></trkpt><trkpt lat="37.9021144" lon="15.1324297"><ele>332.79999999999995</ele><time>2026-04-26T13:54:17.055Z</time></trkpt><trkpt lat="37.9020573" lon="15.1325218"><ele>333.0</ele><time>2026-04-26T13:54:18.056Z</time></trkpt><trkpt lat="37.9020143" lon="15.1326218"><ele>333.0</ele><time>2026-04-26T13:54:19.062Z</time></trkpt><trkpt lat="37.9019817" lon="15.1327288"><ele>333.0</ele><time>2026-04-26T13:54:20.057Z</time></trkpt><trkpt lat="37.9019541" lon="15.1328468"><ele>333.0</ele><time>2026-04-26T13:54:21.057Z</time></trkpt><trkpt lat="37.901927" lon="15.132969"><ele>333.0</ele><time>2026-04-26T13:54:22.058Z</time></trkpt><trkpt lat="37.9018997" lon="15.1330941"><ele>333.0</ele><time>2026-04-26T13:54:23.053Z</time></trkpt><trkpt lat="37.9018705" lon="15.1332189"><ele>333.2</ele><time>2026-04-26T13:54:24.066Z</time></trkpt><trkpt lat="37.9018417" lon="15.1333318"><ele>333.4</ele><time>2026-04-26T13:54:25.067Z</time></trkpt><trkpt lat="37.9018179" lon="15.1334293"><ele>333.59999999999997</ele><time>2026-04-26T13:54:26.07Z</time></trkpt><trkpt lat="37.9017961" lon="15.1335127"><ele>333.79999999999995</ele><time>2026-04-26T13:54:27.081Z</time></trkpt><trkpt lat="37.9017596" lon="15.1336411"><ele>334.0</ele><time>2026-04-26T13:54:29.082Z</time></trkpt><trkpt lat="37.9017094" lon="15.1337594"><ele>334.0</ele><time>2026-04-26T13:54:31.097Z</time></trkpt><trkpt lat="37.9016747" lon="15.1338958"><ele>334.0</ele><time>2026-04-26T13:54:33.055Z</time></trkpt><trkpt lat="37.9016469" lon="15.1340214"><ele>334.0</ele><time>2026-04-26T13:54:35.066Z</time></trkpt><trkpt lat="37.9016077" lon="15.1340991"><ele>334.0</ele><time>2026-04-26T13:54:37.078Z</time></trkpt><trkpt lat="37.901571" lon="15.1341681"><ele>334.0</ele><time>2026-04-26T13:54:39.056Z</time></trkpt><trkpt lat="37.9015567" lon="15.1342559"><ele>334.0</ele><time>2026-04-26T13:54:42.059Z</time></trkpt><trkpt lat="37.9015417" lon="15.1343444"><ele>334.0</ele><time>2026-04-26T13:58:51.057Z</time></trkpt><trkpt lat="37.9015163" lon="15.1344387"><ele>334.0</ele><time>2026-04-26T13:58:53.066Z</time></trkpt><trkpt lat="37.9015131" lon="15.1345363"><ele>334.0</ele><time>2026-04-26T13:58:55.069Z</time></trkpt><trkpt lat="37.9015573" lon="15.1346315"><ele>334.0</ele><time>2026-04-26T13:58:59.063Z</time></trkpt><trkpt lat="37.9015394" lon="15.1347523"><ele>334.0</ele><time>2026-04-26T13:59:01.073Z</time></trkpt><trkpt lat="37.9015281" lon="15.1348407"><ele>334.0</ele><time>2026-04-26T13:59:02.056Z</time></trkpt><trkpt lat="37.901518" lon="15.1349414"><ele>333.8333333333333</ele><time>2026-04-26T13:59:03.057Z</time></trkpt><trkpt lat="37.901511" lon="15.1350423"><ele>333.66666666666663</ele><time>2026-04-26T13:59:04.083Z</time></trkpt><trkpt lat="37.9015058" lon="15.135152"><ele>333.5</ele><time>2026-04-26T13:59:05.065Z</time></trkpt><trkpt lat="37.9014926" lon="15.1352619"><ele>333.3333333333333</ele><time>2026-04-26T13:59:06.072Z</time></trkpt><trkpt lat="37.9014855" lon="15.1353672"><ele>333.1666666666667</ele><time>2026-04-26T13:59:07.1Z</time></trkpt><trkpt lat="37.9014791" lon="15.1354699"><ele>333.0</ele><time>2026-04-26T13:59:08.078Z</time></trkpt><trkpt lat="37.9014666" lon="15.1355768"><ele>333.0</ele><time>2026-04-26T13:59:09.077Z</time></trkpt><trkpt lat="37.9014521" lon="15.1356846"><ele>333.0</ele><time>2026-04-26T13:59:10.065Z</time></trkpt><trkpt lat="37.9014438" lon="15.1357901"><ele>333.0</ele><time>2026-04-26T13:59:11.067Z</time></trkpt><trkpt lat="37.9014368" lon="15.1358955"><ele>333.0</ele><time>2026-04-26T13:59:12.066Z</time></trkpt><trkpt lat="37.9014291" lon="15.1359949"><ele>333.0</ele><time>2026-04-26T13:59:13.083Z</time></trkpt><trkpt lat="37.9014336" lon="15.136093"><ele>333.0</ele><time>2026-04-26T13:59:14.08Z</time></trkpt><trkpt lat="37.9014468" lon="15.1361856"><ele>333.14285714285717</ele><time>2026-04-26T13:59:15.091Z</time></trkpt><trkpt lat="37.9014723" lon="15.1362683"><ele>333.2857142857143</ele><time>2026-04-26T13:59:16.062Z</time></trkpt><trkpt lat="37.9015024" lon="15.1363455"><ele>333.42857142857144</ele><time>2026-04-26T13:59:17.103Z</time></trkpt><trkpt lat="37.9015325" lon="15.1364162"><ele>333.57142857142856</ele><time>2026-04-26T13:59:18.076Z</time></trkpt><trkpt lat="37.9015598" lon="15.1364887"><ele>333.7142857142857</ele><time>2026-04-26T13:59:19.092Z</time></trkpt><trkpt lat="37.9015868" lon="15.1365666"><ele>333.85714285714283</ele><time>2026-04-26T13:59:20.076Z</time></trkpt><trkpt lat="37.9016125" lon="15.1366465"><ele>334.0</ele><time>2026-04-26T13:59:21.056Z</time></trkpt><trkpt lat="37.9016386" lon="15.1367288"><ele>333.2857142857143</ele><time>2026-04-26T13:59:22.091Z</time></trkpt><trkpt lat="37.9016608" lon="15.136812"><ele>332.57142857142856</ele><time>2026-04-26T13:59:23.065Z</time></trkpt><trkpt lat="37.9016772" lon="15.1368953"><ele>331.8571428571429</ele><time>2026-04-26T13:59:24.066Z</time></trkpt><trkpt lat="37.9016866" lon="15.1369752"><ele>331.1428571428571</ele><time>2026-04-26T13:59:25.078Z</time></trkpt><trkpt lat="37.9016875" lon="15.1370652"><ele>330.42857142857144</ele><time>2026-04-26T13:59:26.061Z</time></trkpt><trkpt lat="37.9016785" lon="15.1371551"><ele>329.7142857142857</ele><time>2026-04-26T13:59:27.092Z</time></trkpt><trkpt lat="37.9016563" lon="15.1372374"><ele>329.0</ele><time>2026-04-26T13:59:28.09Z</time></trkpt><trkpt lat="37.9016186" lon="15.1373111"><ele>329.0</ele><time>2026-04-26T13:59:29.069Z</time></trkpt><trkpt lat="37.9015801" lon="15.1373787"><ele>329.0</ele><time>2026-04-26T13:59:30.068Z</time></trkpt><trkpt lat="37.9015344" lon="15.1374366"><ele>329.0</ele><time>2026-04-26T13:59:31.067Z</time></trkpt><trkpt lat="37.9014846" lon="15.13749"><ele>329.0</ele><time>2026-04-26T13:59:32.059Z</time></trkpt><trkpt lat="37.9014328" lon="15.1375436"><ele>329.0</ele><time>2026-04-26T13:59:33.063Z</time></trkpt><trkpt lat="37.9013842" lon="15.1375989"><ele>329.0</ele><time>2026-04-26T13:59:34.06Z</time></trkpt><trkpt lat="37.9013444" lon="15.1376608"><ele>329.0</ele><time>2026-04-26T13:59:35.064Z</time></trkpt><trkpt lat="37.9012903" lon="15.1378042"><ele>327.7142857142857</ele><time>2026-04-26T13:59:37.069Z</time></trkpt><trkpt lat="37.9012732" lon="15.137886"><ele>326.42857142857144</ele><time>2026-04-26T13:59:38.057Z</time></trkpt><trkpt lat="37.90126" lon="15.1379722"><ele>325.1428571428571</ele><time>2026-04-26T13:59:39.062Z</time></trkpt><trkpt lat="37.901246" lon="15.1380609"><ele>323.8571428571429</ele><time>2026-04-26T13:59:40.057Z</time></trkpt><trkpt lat="37.901235" lon="15.138157"><ele>322.57142857142856</ele><time>2026-04-26T13:59:41.09Z</time></trkpt><trkpt lat="37.9012207" lon="15.1382547"><ele>321.2857142857143</ele><time>2026-04-26T13:59:42.051Z</time></trkpt><trkpt lat="37.9012033" lon="15.1383535"><ele>320.0</ele><time>2026-04-26T13:59:43.07Z</time></trkpt><trkpt lat="37.901186" lon="15.138458"><ele>319.33333333333337</ele><time>2026-04-26T13:59:44.078Z</time></trkpt><trkpt lat="37.9011731" lon="15.138564"><ele>318.6666666666667</ele><time>2026-04-26T13:59:45.075Z</time></trkpt><trkpt lat="37.9011587" lon="15.1386712"><ele>318.0</ele><time>2026-04-26T13:59:46.091Z</time></trkpt><trkpt lat="37.9011439" lon="15.1387802"><ele>317.3333333333333</ele><time>2026-04-26T13:59:47.086Z</time></trkpt><trkpt lat="37.9011292" lon="15.1388908"><ele>316.66666666666663</ele><time>2026-04-26T13:59:48.074Z</time></trkpt><trkpt lat="37.9011127" lon="15.139003"><ele>316.0</ele><time>2026-04-26T13:59:49.046Z</time></trkpt><trkpt lat="37.9010956" lon="15.1391169"><ele>315.0</ele><time>2026-04-26T13:59:50.055Z</time></trkpt><trkpt lat="37.9010773" lon="15.1392299"><ele>314.0</ele><time>2026-04-26T13:59:51.067Z</time></trkpt><trkpt lat="37.9010578" lon="15.1393447"><ele>313.0</ele><time>2026-04-26T13:59:52.078Z</time></trkpt><trkpt lat="37.9010451" lon="15.1394614"><ele>312.0</ele><time>2026-04-26T13:59:53.065Z</time></trkpt><trkpt lat="37.9010436" lon="15.1395779"><ele>311.0</ele><time>2026-04-26T13:59:54.056Z</time></trkpt><trkpt lat="37.901056" lon="15.1396931"><ele>311.0</ele><time>2026-04-26T13:59:55.069Z</time></trkpt><trkpt lat="37.9010844" lon="15.1398066"><ele>311.0</ele><time>2026-04-26T13:59:56.051Z</time></trkpt><trkpt lat="37.9011259" lon="15.1399187"><ele>311.0</ele><time>2026-04-26T13:59:57.055Z</time></trkpt><trkpt lat="37.9011721" lon="15.1400304"><ele>311.0</ele><time>2026-04-26T13:59:58.056Z</time></trkpt><trkpt lat="37.9012221" lon="15.1401425"><ele>311.0</ele><time>2026-04-26T13:59:59.052Z</time></trkpt><trkpt lat="37.9012771" lon="15.1402586"><ele>309.5</ele><time>2026-04-26T14:00:00.045Z</time></trkpt><trkpt lat="37.9013362" lon="15.1403781"><ele>308.0</ele><time>2026-04-26T14:00:01.044Z</time></trkpt><trkpt lat="37.9013979" lon="15.1405024"><ele>306.5</ele><time>2026-04-26T14:00:02.055Z</time></trkpt><trkpt lat="37.9014608" lon="15.1406244"><ele>305.0</ele><time>2026-04-26T14:00:03.055Z</time></trkpt><trkpt lat="37.9015257" lon="15.1407461"><ele>304.8</ele><time>2026-04-26T14:00:04.055Z</time></trkpt><trkpt lat="37.9015869" lon="15.1408672"><ele>304.6</ele><time>2026-04-26T14:00:05.056Z</time></trkpt><trkpt lat="37.9016443" lon="15.1409868"><ele>304.4</ele><time>2026-04-26T14:00:06.077Z</time></trkpt><trkpt lat="37.9017025" lon="15.1411053"><ele>304.2</ele><time>2026-04-26T14:00:07.052Z</time></trkpt><trkpt lat="37.9017591" lon="15.1412203"><ele>304.0</ele><time>2026-04-26T14:00:08.055Z</time></trkpt><trkpt lat="37.9018165" lon="15.1413331"><ele>303.8</ele><time>2026-04-26T14:00:09.055Z</time></trkpt><trkpt lat="37.9018711" lon="15.1414438"><ele>303.59999999999997</ele><time>2026-04-26T14:00:10.057Z</time></trkpt><trkpt lat="37.9019242" lon="15.141555"><ele>303.4</ele><time>2026-04-26T14:00:11.056Z</time></trkpt><trkpt lat="37.9019771" lon="15.1416633"><ele>303.2</ele><time>2026-04-26T14:00:12.056Z</time></trkpt><trkpt lat="37.9020279" lon="15.1417683"><ele>303.0</ele><time>2026-04-26T14:00:13.056Z</time></trkpt><trkpt lat="37.902068" lon="15.1418791"><ele>303.0</ele><time>2026-04-26T14:00:14.06Z</time></trkpt><trkpt lat="37.902116" lon="15.1419793"><ele>303.0</ele><time>2026-04-26T14:00:15.056Z</time></trkpt><trkpt lat="37.9021649" lon="15.1420714"><ele>303.0</ele><time>2026-04-26T14:00:16.055Z</time></trkpt><trkpt lat="37.9022117" lon="15.1421568"><ele>303.0</ele><time>2026-04-26T14:00:17.055Z</time></trkpt><trkpt lat="37.9022551" lon="15.1422382"><ele>303.0</ele><time>2026-04-26T14:00:18.054Z</time></trkpt><trkpt lat="37.9022917" lon="15.142314"><ele>303.0</ele><time>2026-04-26T14:00:19.056Z</time></trkpt><trkpt lat="37.9023305" lon="15.1424424"><ele>301.5</ele><time>2026-04-26T14:00:21.07Z</time></trkpt><trkpt lat="37.9022976" lon="15.1425333"><ele>300.0</ele><time>2026-04-26T14:00:23.069Z</time></trkpt><trkpt lat="37.9022051" lon="15.1426261"><ele>298.5</ele><time>2026-04-26T14:00:25.057Z</time></trkpt><trkpt lat="37.9021433" lon="15.1426769"><ele>297.0</ele><time>2026-04-26T14:00:26.08Z</time></trkpt><trkpt lat="37.9020732" lon="15.1427361"><ele>295.5</ele><time>2026-04-26T14:00:27.067Z</time></trkpt><trkpt lat="37.9019974" lon="15.1427921"><ele>294.0</ele><time>2026-04-26T14:00:28.055Z</time></trkpt><trkpt lat="37.9019167" lon="15.1428553"><ele>294.0</ele><time>2026-04-26T14:00:29.057Z</time></trkpt><trkpt lat="37.9018337" lon="15.142925"><ele>294.0</ele><time>2026-04-26T14:00:30.064Z</time></trkpt><trkpt lat="37.9017469" lon="15.1429969"><ele>294.0</ele><time>2026-04-26T14:00:31.081Z</time></trkpt><trkpt lat="37.901663" lon="15.1430675"><ele>294.0</ele><time>2026-04-26T14:00:32.063Z</time></trkpt><trkpt lat="37.901574" lon="15.1431363"><ele>294.0</ele><time>2026-04-26T14:00:33.074Z</time></trkpt><trkpt lat="37.9014793" lon="15.1432072"><ele>292.5</ele><time>2026-04-26T14:00:34.076Z</time></trkpt><trkpt lat="37.9013848" lon="15.1432812"><ele>291.0</ele><time>2026-04-26T14:00:35.059Z</time></trkpt><trkpt lat="37.9012884" lon="15.1433568"><ele>289.5</ele><time>2026-04-26T14:00:36.061Z</time></trkpt><trkpt lat="37.90119" lon="15.1434322"><ele>288.0</ele><time>2026-04-26T14:00:37.075Z</time></trkpt><trkpt lat="37.9010912" lon="15.1435116"><ele>288.0</ele><time>2026-04-26T14:00:38.056Z</time></trkpt><trkpt lat="37.9009914" lon="15.1435944"><ele>288.0</ele><time>2026-04-26T14:00:39.056Z</time></trkpt><trkpt lat="37.9008908" lon="15.1436779"><ele>288.0</ele><time>2026-04-26T14:00:40.057Z</time></trkpt><trkpt lat="37.9007895" lon="15.14376"><ele>288.0</ele><time>2026-04-26T14:00:41.061Z</time></trkpt><trkpt lat="37.9006868" lon="15.143841"><ele>288.25</ele><time>2026-04-26T14:00:42.056Z</time></trkpt><trkpt lat="37.9005826" lon="15.1439238"><ele>288.5</ele><time>2026-04-26T14:00:43.057Z</time></trkpt><trkpt lat="37.9004785" lon="15.1440042"><ele>288.75</ele><time>2026-04-26T14:00:44.056Z</time></trkpt><trkpt lat="37.900369" lon="15.1440835"><ele>289.0</ele><time>2026-04-26T14:00:45.053Z</time></trkpt><trkpt lat="37.9002564" lon="15.144166"><ele>287.75</ele><time>2026-04-26T14:00:46.057Z</time></trkpt><trkpt lat="37.9001409" lon="15.1442508"><ele>286.5</ele><time>2026-04-26T14:00:47.056Z</time></trkpt><trkpt lat="37.900025" lon="15.1443373"><ele>285.25</ele><time>2026-04-26T14:00:48.056Z</time></trkpt><trkpt lat="37.8999111" lon="15.1444286"><ele>284.0</ele><time>2026-04-26T14:00:49.051Z</time></trkpt><trkpt lat="37.8997986" lon="15.1445216"><ele>284.0</ele><time>2026-04-26T14:00:50.056Z</time></trkpt><trkpt lat="37.8996894" lon="15.1446176"><ele>284.0</ele><time>2026-04-26T14:00:51.056Z</time></trkpt><trkpt lat="37.8995868" lon="15.144718"><ele>284.0</ele><time>2026-04-26T14:00:52.057Z</time></trkpt><trkpt lat="37.8994934" lon="15.1448262"><ele>284.0</ele><time>2026-04-26T14:00:53.097Z</time></trkpt><trkpt lat="37.8994103" lon="15.1449401"><ele>283.5</ele><time>2026-04-26T14:00:54.057Z</time></trkpt><trkpt lat="37.8993371" lon="15.1450549"><ele>283.0</ele><time>2026-04-26T14:00:55.055Z</time></trkpt><trkpt lat="37.8992675" lon="15.1451809"><ele>282.5</ele><time>2026-04-26T14:00:56.082Z</time></trkpt><trkpt lat="37.899201" lon="15.1453223"><ele>282.0</ele><time>2026-04-26T14:00:57.056Z</time></trkpt><trkpt lat="37.8991356" lon="15.1454742"><ele>282.0</ele><time>2026-04-26T14:00:58.058Z</time></trkpt><trkpt lat="37.8990761" lon="15.145639"><ele>282.0</ele><time>2026-04-26T14:00:59.057Z</time></trkpt><trkpt lat="37.8990212" lon="15.1458132"><ele>282.0</ele><time>2026-04-26T14:01:00.058Z</time></trkpt><trkpt lat="37.8989589" lon="15.1459948"><ele>282.0</ele><time>2026-04-26T14:01:01.057Z</time></trkpt><trkpt lat="37.8988944" lon="15.1461819"><ele>281.3333333333333</ele><time>2026-04-26T14:01:02.056Z</time></trkpt><trkpt lat="37.8988322" lon="15.1463688"><ele>280.66666666666663</ele><time>2026-04-26T14:01:03.06Z</time></trkpt><trkpt lat="37.8987707" lon="15.1465549"><ele>280.0</ele><time>2026-04-26T14:01:04.057Z</time></trkpt><trkpt lat="37.8986955" lon="15.146738"><ele>279.66666666666663</ele><time>2026-04-26T14:01:05.059Z</time></trkpt><trkpt lat="37.8986357" lon="15.1469175"><ele>279.3333333333333</ele><time>2026-04-26T14:01:06.057Z</time></trkpt><trkpt lat="37.8985775" lon="15.1470968"><ele>279.0</ele><time>2026-04-26T14:01:07.056Z</time></trkpt><trkpt lat="37.8985192" lon="15.1472752"><ele>278.3333333333333</ele><time>2026-04-26T14:01:08.064Z</time></trkpt><trkpt lat="37.8984593" lon="15.1474524"><ele>277.66666666666663</ele><time>2026-04-26T14:01:09.067Z</time></trkpt><trkpt lat="37.8983987" lon="15.1476297"><ele>277.0</ele><time>2026-04-26T14:01:10.059Z</time></trkpt><trkpt lat="37.8983358" lon="15.1478028"><ele>276.75</ele><time>2026-04-26T14:01:11.076Z</time></trkpt><trkpt lat="37.8982684" lon="15.147968"><ele>276.5</ele><time>2026-04-26T14:01:12.081Z</time></trkpt><trkpt lat="37.8981937" lon="15.1481248"><ele>276.25</ele><time>2026-04-26T14:01:13.08Z</time></trkpt><trkpt lat="37.8981086" lon="15.1482754"><ele>276.0</ele><time>2026-04-26T14:01:14.065Z</time></trkpt><trkpt lat="37.898016" lon="15.1484201"><ele>275.3333333333333</ele><time>2026-04-26T14:01:15.082Z</time></trkpt><trkpt lat="37.8979152" lon="15.1485618"><ele>274.66666666666663</ele><time>2026-04-26T14:01:16.07Z</time></trkpt><trkpt lat="37.8978103" lon="15.1487036"><ele>274.0</ele><time>2026-04-26T14:01:17.063Z</time></trkpt><trkpt lat="37.8977032" lon="15.1488495"><ele>274.0</ele><time>2026-04-26T14:01:18.057Z</time></trkpt><trkpt lat="37.8975963" lon="15.1489957"><ele>274.0</ele><time>2026-04-26T14:01:19.069Z</time></trkpt><trkpt lat="37.897485" lon="15.1491442"><ele>274.0</ele><time>2026-04-26T14:01:20.063Z</time></trkpt><trkpt lat="37.8973747" lon="15.1492957"><ele>272.3333333333333</ele><time>2026-04-26T14:01:21.095Z</time></trkpt><trkpt lat="37.8972683" lon="15.1494521"><ele>270.6666666666667</ele><time>2026-04-26T14:01:22.067Z</time></trkpt><trkpt lat="37.8971669" lon="15.1496163"><ele>269.0</ele><time>2026-04-26T14:01:23.085Z</time></trkpt><trkpt lat="37.8970749" lon="15.1497866"><ele>268.0</ele><time>2026-04-26T14:01:24.069Z</time></trkpt><trkpt lat="37.8969886" lon="15.1499681"><ele>267.0</ele><time>2026-04-26T14:01:25.073Z</time></trkpt><trkpt lat="37.8969084" lon="15.1501586"><ele>266.0</ele><time>2026-04-26T14:01:26.078Z</time></trkpt><trkpt lat="37.8968318" lon="15.1503532"><ele>266.0</ele><time>2026-04-26T14:01:27.077Z</time></trkpt><trkpt lat="37.896754" lon="15.1505508"><ele>266.0</ele><time>2026-04-26T14:01:28.081Z</time></trkpt><trkpt lat="37.8966807" lon="15.1507496"><ele>266.0</ele><time>2026-04-26T14:01:29.059Z</time></trkpt><trkpt lat="37.8966079" lon="15.1509484"><ele>265.33333333333337</ele><time>2026-04-26T14:01:30.056Z</time></trkpt><trkpt lat="37.8965347" lon="15.1511466"><ele>264.6666666666667</ele><time>2026-04-26T14:01:31.056Z</time></trkpt><trkpt lat="37.8964604" lon="15.1513451"><ele>264.0</ele><time>2026-04-26T14:01:32.056Z</time></trkpt><trkpt lat="37.8963861" lon="15.151541"><ele>263.6666666666667</ele><time>2026-04-26T14:01:33.069Z</time></trkpt><trkpt lat="37.8963112" lon="15.151738"><ele>263.33333333333337</ele><time>2026-04-26T14:01:34.058Z</time></trkpt><trkpt lat="37.8962373" lon="15.1519334"><ele>263.0</ele><time>2026-04-26T14:01:35.058Z</time></trkpt><trkpt lat="37.8961643" lon="15.15213"><ele>263.0</ele><time>2026-04-26T14:01:36.057Z</time></trkpt><trkpt lat="37.8960925" lon="15.1523243"><ele>263.0</ele><time>2026-04-26T14:01:37.055Z</time></trkpt><trkpt lat="37.8960217" lon="15.1525127"><ele>263.0</ele><time>2026-04-26T14:01:38.055Z</time></trkpt><trkpt lat="37.8959536" lon="15.1526941"><ele>262.0</ele><time>2026-04-26T14:01:39.058Z</time></trkpt><trkpt lat="37.8958894" lon="15.1528687"><ele>261.0</ele><time>2026-04-26T14:01:40.056Z</time></trkpt><trkpt lat="37.8958278" lon="15.1530354"><ele>260.0</ele><time>2026-04-26T14:01:41.056Z</time></trkpt><trkpt lat="37.8957669" lon="15.1531953"><ele>259.0</ele><time>2026-04-26T14:01:42.057Z</time></trkpt><trkpt lat="37.8957063" lon="15.1533497"><ele>258.75</ele><time>2026-04-26T14:01:43.06Z</time></trkpt><trkpt lat="37.8956431" lon="15.1534951"><ele>258.5</ele><time>2026-04-26T14:01:44.055Z</time></trkpt><trkpt lat="37.8955746" lon="15.1536346"><ele>258.25</ele><time>2026-04-26T14:01:45.056Z</time></trkpt><trkpt lat="37.8955016" lon="15.1537733"><ele>258.0</ele><time>2026-04-26T14:01:46.056Z</time></trkpt><trkpt lat="37.8954246" lon="15.1539151"><ele>257.75</ele><time>2026-04-26T14:01:47.055Z</time></trkpt><trkpt lat="37.8953402" lon="15.1540587"><ele>257.5</ele><time>2026-04-26T14:01:48.055Z</time></trkpt><trkpt lat="37.8952495" lon="15.1541982"><ele>257.25</ele><time>2026-04-26T14:01:49.057Z</time></trkpt><trkpt lat="37.8951543" lon="15.1543388"><ele>257.0</ele><time>2026-04-26T14:01:50.056Z</time></trkpt><trkpt lat="37.8950558" lon="15.1544824"><ele>257.0</ele><time>2026-04-26T14:01:51.057Z</time></trkpt><trkpt lat="37.8949545" lon="15.1546262"><ele>257.0</ele><time>2026-04-26T14:01:52.056Z</time></trkpt><trkpt lat="37.8948477" lon="15.1547686"><ele>257.0</ele><time>2026-04-26T14:01:53.057Z</time></trkpt><trkpt lat="37.8947413" lon="15.15491"><ele>257.33333333333337</ele><time>2026-04-26T14:01:54.095Z</time></trkpt><trkpt lat="37.8946369" lon="15.1550529"><ele>257.6666666666667</ele><time>2026-04-26T14:01:55.057Z</time></trkpt><trkpt lat="37.8945327" lon="15.1551978"><ele>258.0</ele><time>2026-04-26T14:01:56.065Z</time></trkpt><trkpt lat="37.8944312" lon="15.1553447"><ele>258.0</ele><time>2026-04-26T14:01:57.057Z</time></trkpt><trkpt lat="37.8943279" lon="15.1554949"><ele>258.0</ele><time>2026-04-26T14:01:58.056Z</time></trkpt><trkpt lat="37.8942207" lon="15.15565"><ele>258.0</ele><time>2026-04-26T14:01:59.056Z</time></trkpt><trkpt lat="37.8941148" lon="15.1558055"><ele>257.3333333333333</ele><time>2026-04-26T14:02:00.055Z</time></trkpt><trkpt lat="37.8940087" lon="15.1559577"><ele>256.66666666666663</ele><time>2026-04-26T14:02:01.056Z</time></trkpt><trkpt lat="37.8939044" lon="15.1561085"><ele>256.0</ele><time>2026-04-26T14:02:02.055Z</time></trkpt><trkpt lat="37.8938005" lon="15.156257"><ele>256.0</ele><time>2026-04-26T14:02:03.061Z</time></trkpt><trkpt lat="37.8936995" lon="15.1563995"><ele>256.0</ele><time>2026-04-26T14:02:04.056Z</time></trkpt><trkpt lat="37.8936033" lon="15.1565388"><ele>256.0</ele><time>2026-04-26T14:02:05.057Z</time></trkpt><trkpt lat="37.8935119" lon="15.1566741"><ele>256.0</ele><time>2026-04-26T14:02:06.079Z</time></trkpt><trkpt lat="37.8934218" lon="15.1568084"><ele>254.0</ele><time>2026-04-26T14:02:07.057Z</time></trkpt><trkpt lat="37.8933297" lon="15.15694"><ele>252.0</ele><time>2026-04-26T14:02:08.058Z</time></trkpt><trkpt lat="37.8932387" lon="15.1570672"><ele>250.0</ele><time>2026-04-26T14:02:09.057Z</time></trkpt><trkpt lat="37.893153" lon="15.1571974"><ele>248.0</ele><time>2026-04-26T14:02:10.059Z</time></trkpt><trkpt lat="37.8930768" lon="15.1573355"><ele>247.0</ele><time>2026-04-26T14:02:11.056Z</time></trkpt><trkpt lat="37.8930112" lon="15.1574854"><ele>246.0</ele><time>2026-04-26T14:02:12.067Z</time></trkpt><trkpt lat="37.8929599" lon="15.1576501"><ele>245.0</ele><time>2026-04-26T14:02:13.057Z</time></trkpt><trkpt lat="37.8929181" lon="15.1578251"><ele>244.0</ele><time>2026-04-26T14:02:14.058Z</time></trkpt><trkpt lat="37.8928835" lon="15.158"><ele>244.0</ele><time>2026-04-26T14:02:15.057Z</time></trkpt><trkpt lat="37.8928573" lon="15.158174"><ele>244.0</ele><time>2026-04-26T14:02:16.057Z</time></trkpt><trkpt lat="37.8928256" lon="15.1583537"><ele>244.0</ele><time>2026-04-26T14:02:17.056Z</time></trkpt><trkpt lat="37.8927949" lon="15.1585374"><ele>244.0</ele><time>2026-04-26T14:02:18.058Z</time></trkpt><trkpt lat="37.8927631" lon="15.158726"><ele>242.66666666666666</ele><time>2026-04-26T14:02:19.057Z</time></trkpt><trkpt lat="37.8927321" lon="15.158917"><ele>241.33333333333331</ele><time>2026-04-26T14:02:20.056Z</time></trkpt><trkpt lat="37.8927022" lon="15.1591085"><ele>240.0</ele><time>2026-04-26T14:02:21.054Z</time></trkpt><trkpt lat="37.8926745" lon="15.1593021"><ele>238.0</ele><time>2026-04-26T14:02:22.056Z</time></trkpt><trkpt lat="37.8926468" lon="15.1594952"><ele>236.0</ele><time>2026-04-26T14:02:23.057Z</time></trkpt><trkpt lat="37.8926163" lon="15.1596842"><ele>234.0</ele><time>2026-04-26T14:02:24.056Z</time></trkpt><trkpt lat="37.8925832" lon="15.1598724"><ele>232.5</ele><time>2026-04-26T14:02:25.058Z</time></trkpt><trkpt lat="37.8925508" lon="15.1600602"><ele>231.0</ele><time>2026-04-26T14:02:26.055Z</time></trkpt><trkpt lat="37.8925208" lon="15.1602453"><ele>229.5</ele><time>2026-04-26T14:02:27.057Z</time></trkpt><trkpt lat="37.8924915" lon="15.1604267"><ele>228.0</ele><time>2026-04-26T14:02:28.057Z</time></trkpt><trkpt lat="37.8924635" lon="15.1606084"><ele>229.0</ele><time>2026-04-26T14:02:29.057Z</time></trkpt><trkpt lat="37.892436" lon="15.1607904"><ele>230.0</ele><time>2026-04-26T14:02:30.076Z</time></trkpt><trkpt lat="37.8924094" lon="15.160968"><ele>231.0</ele><time>2026-04-26T14:02:31.056Z</time></trkpt><trkpt lat="37.8923899" lon="15.1611359"><ele>232.0</ele><time>2026-04-26T14:02:32.057Z</time></trkpt><trkpt lat="37.8923619" lon="15.1613138"><ele>232.0</ele><time>2026-04-26T14:02:33.058Z</time></trkpt><trkpt lat="37.8923319" lon="15.1614967"><ele>232.0</ele><time>2026-04-26T14:02:34.055Z</time></trkpt><trkpt lat="37.8923042" lon="15.1616796"><ele>232.0</ele><time>2026-04-26T14:02:35.06Z</time></trkpt><trkpt lat="37.8922754" lon="15.1618582"><ele>232.0</ele><time>2026-04-26T14:02:36.054Z</time></trkpt><trkpt lat="37.8922429" lon="15.1620255"><ele>232.75</ele><time>2026-04-26T14:02:37.056Z</time></trkpt><trkpt lat="37.8922012" lon="15.1621797"><ele>233.5</ele><time>2026-04-26T14:02:38.057Z</time></trkpt><trkpt lat="37.8921477" lon="15.16232"><ele>234.25</ele><time>2026-04-26T14:02:39.056Z</time></trkpt><trkpt lat="37.8920856" lon="15.162447"><ele>235.0</ele><time>2026-04-26T14:02:40.057Z</time></trkpt><trkpt lat="37.8920167" lon="15.1625534"><ele>235.75</ele><time>2026-04-26T14:02:41.057Z</time></trkpt><trkpt lat="37.8919353" lon="15.1626438"><ele>236.5</ele><time>2026-04-26T14:02:42.056Z</time></trkpt><trkpt lat="37.8918338" lon="15.1627284"><ele>237.25</ele><time>2026-04-26T14:02:43.058Z</time></trkpt><trkpt lat="37.891713" lon="15.1628056"><ele>238.0</ele><time>2026-04-26T14:02:44.059Z</time></trkpt><trkpt lat="37.8915909" lon="15.1628821"><ele>238.0</ele><time>2026-04-26T14:02:45.057Z</time></trkpt><trkpt lat="37.8914626" lon="15.1629613"><ele>238.0</ele><time>2026-04-26T14:02:46.056Z</time></trkpt><trkpt lat="37.8913276" lon="15.1630429"><ele>238.0</ele><time>2026-04-26T14:02:47.054Z</time></trkpt><trkpt lat="37.8911879" lon="15.1631266"><ele>238.0</ele><time>2026-04-26T14:02:48.056Z</time></trkpt><trkpt lat="37.891049" lon="15.1632076"><ele>238.0</ele><time>2026-04-26T14:02:49.056Z</time></trkpt><trkpt lat="37.890911" lon="15.1632868"><ele>238.0</ele><time>2026-04-26T14:02:50.055Z</time></trkpt><trkpt lat="37.8907795" lon="15.1633623"><ele>238.0</ele><time>2026-04-26T14:02:51.055Z</time></trkpt><trkpt lat="37.8906525" lon="15.1634345"><ele>238.0</ele><time>2026-04-26T14:02:52.056Z</time></trkpt><trkpt lat="37.8905287" lon="15.1635056"><ele>238.0</ele><time>2026-04-26T14:02:53.058Z</time></trkpt><trkpt lat="37.8904095" lon="15.1635755"><ele>238.0</ele><time>2026-04-26T14:02:54.057Z</time></trkpt><trkpt lat="37.8902895" lon="15.1636461"><ele>238.0</ele><time>2026-04-26T14:02:55.055Z</time></trkpt><trkpt lat="37.8901696" lon="15.1637146"><ele>238.0</ele><time>2026-04-26T14:02:56.056Z</time></trkpt><trkpt lat="37.8900507" lon="15.1637839"><ele>237.0</ele><time>2026-04-26T14:02:57.055Z</time></trkpt><trkpt lat="37.8899376" lon="15.1638491"><ele>236.0</ele><time>2026-04-26T14:02:58.055Z</time></trkpt><trkpt lat="37.8898276" lon="15.1639131"><ele>235.0</ele><time>2026-04-26T14:02:59.056Z</time></trkpt><trkpt lat="37.8897179" lon="15.1639771"><ele>234.0</ele><time>2026-04-26T14:03:00.092Z</time></trkpt><trkpt lat="37.8896104" lon="15.1640425"><ele>234.0</ele><time>2026-04-26T14:03:01.056Z</time></trkpt><trkpt lat="37.8895036" lon="15.1641084"><ele>234.0</ele><time>2026-04-26T14:03:02.055Z</time></trkpt><trkpt lat="37.8894006" lon="15.1641767"><ele>234.0</ele><time>2026-04-26T14:03:03.078Z</time></trkpt><trkpt lat="37.8893046" lon="15.1642543"><ele>234.0</ele><time>2026-04-26T14:03:04.057Z</time></trkpt><trkpt lat="37.8892144" lon="15.1643424"><ele>233.2</ele><time>2026-04-26T14:03:05.066Z</time></trkpt><trkpt lat="37.8891315" lon="15.1644354"><ele>232.39999999999998</ele><time>2026-04-26T14:03:06.056Z</time></trkpt><trkpt lat="37.8890586" lon="15.1645376"><ele>231.6</ele><time>2026-04-26T14:03:07.058Z</time></trkpt><trkpt lat="37.8889848" lon="15.1646442"><ele>230.8</ele><time>2026-04-26T14:03:08.06Z</time></trkpt><trkpt lat="37.888913" lon="15.1647499"><ele>230.0</ele><time>2026-04-26T14:03:09.057Z</time></trkpt><trkpt lat="37.8888438" lon="15.1648534"><ele>231.4</ele><time>2026-04-26T14:03:10.057Z</time></trkpt><trkpt lat="37.8887722" lon="15.1649507"><ele>232.8</ele><time>2026-04-26T14:03:11.056Z</time></trkpt><trkpt lat="37.8887008" lon="15.1650502"><ele>234.2</ele><time>2026-04-26T14:03:12.055Z</time></trkpt><trkpt lat="37.8886292" lon="15.1651503"><ele>235.6</ele><time>2026-04-26T14:03:13.057Z</time></trkpt><trkpt lat="37.8885603" lon="15.1652528"><ele>237.0</ele><time>2026-04-26T14:03:14.057Z</time></trkpt><trkpt lat="37.8884916" lon="15.1653551"><ele>236.2</ele><time>2026-04-26T14:03:15.058Z</time></trkpt><trkpt lat="37.8884227" lon="15.1654583"><ele>235.39999999999998</ele><time>2026-04-26T14:03:16.056Z</time></trkpt><trkpt lat="37.8883528" lon="15.1655626"><ele>234.60000000000002</ele><time>2026-04-26T14:03:17.06Z</time></trkpt><trkpt lat="37.8882832" lon="15.1656687"><ele>233.8</ele><time>2026-04-26T14:03:18.055Z</time></trkpt><trkpt lat="37.8882153" lon="15.1657763"><ele>233.0</ele><time>2026-04-26T14:03:19.059Z</time></trkpt><trkpt lat="37.8881449" lon="15.1658831"><ele>233.0</ele><time>2026-04-26T14:03:20.057Z</time></trkpt><trkpt lat="37.8880695" lon="15.1659894"><ele>233.0</ele><time>2026-04-26T14:03:21.06Z</time></trkpt><trkpt lat="37.8879898" lon="15.1661001"><ele>233.0</ele><time>2026-04-26T14:03:22.055Z</time></trkpt><trkpt lat="37.8879096" lon="15.1662177"><ele>233.0</ele><time>2026-04-26T14:03:23.057Z</time></trkpt><trkpt lat="37.887826" lon="15.1663431"><ele>233.0</ele><time>2026-04-26T14:03:24.057Z</time></trkpt><trkpt lat="37.8877397" lon="15.1664723"><ele>233.0</ele><time>2026-04-26T14:03:25.058Z</time></trkpt><trkpt lat="37.8876468" lon="15.1666011"><ele>233.0</ele><time>2026-04-26T14:03:26.055Z</time></trkpt><trkpt lat="37.887551" lon="15.1667275"><ele>233.0</ele><time>2026-04-26T14:03:27.056Z</time></trkpt><trkpt lat="37.8874575" lon="15.1668595"><ele>233.0</ele><time>2026-04-26T14:03:28.054Z</time></trkpt><trkpt lat="37.8873652" lon="15.1669953"><ele>233.0</ele><time>2026-04-26T14:03:29.045Z</time></trkpt><trkpt lat="37.8872718" lon="15.1671323"><ele>233.0</ele><time>2026-04-26T14:03:30.044Z</time></trkpt><trkpt lat="37.8871794" lon="15.1672696"><ele>233.0</ele><time>2026-04-26T14:03:31.078Z</time></trkpt><trkpt lat="37.8870868" lon="15.1674027"><ele>233.0</ele><time>2026-04-26T14:03:32.064Z</time></trkpt><trkpt lat="37.8869952" lon="15.1675296"><ele>233.0</ele><time>2026-04-26T14:03:33.066Z</time></trkpt><trkpt lat="37.8869045" lon="15.1676528"><ele>233.0</ele><time>2026-04-26T14:03:34.078Z</time></trkpt><trkpt lat="37.8868162" lon="15.1677749"><ele>233.0</ele><time>2026-04-26T14:03:35.064Z</time></trkpt><trkpt lat="37.8867279" lon="15.1678956"><ele>232.0</ele><time>2026-04-26T14:03:36.092Z</time></trkpt><trkpt lat="37.8866395" lon="15.1680125"><ele>231.0</ele><time>2026-04-26T14:03:37.078Z</time></trkpt><trkpt lat="37.8865478" lon="15.1681272"><ele>230.0</ele><time>2026-04-26T14:03:38.091Z</time></trkpt><trkpt lat="37.8864527" lon="15.1682433"><ele>229.0</ele><time>2026-04-26T14:03:39.07Z</time></trkpt><trkpt lat="37.8863567" lon="15.168361"><ele>229.0</ele><time>2026-04-26T14:03:40.077Z</time></trkpt><trkpt lat="37.8862594" lon="15.1684841"><ele>229.0</ele><time>2026-04-26T14:03:41.06Z</time></trkpt><trkpt lat="37.8861594" lon="15.1686102"><ele>229.0</ele><time>2026-04-26T14:03:42.078Z</time></trkpt><trkpt lat="37.8860563" lon="15.168737"><ele>229.0</ele><time>2026-04-26T14:03:43.065Z</time></trkpt><trkpt lat="37.88595" lon="15.1688632"><ele>228.0</ele><time>2026-04-26T14:03:44.061Z</time></trkpt><trkpt lat="37.8858396" lon="15.1689955"><ele>227.0</ele><time>2026-04-26T14:03:45.068Z</time></trkpt><trkpt lat="37.8857268" lon="15.1691372"><ele>226.0</ele><time>2026-04-26T14:03:46.054Z</time></trkpt><trkpt lat="37.8856138" lon="15.1692842"><ele>226.0</ele><time>2026-04-26T14:03:47.063Z</time></trkpt><trkpt lat="37.8855031" lon="15.1694301"><ele>226.0</ele><time>2026-04-26T14:03:48.083Z</time></trkpt><trkpt lat="37.8853996" lon="15.1695627"><ele>226.0</ele><time>2026-04-26T14:03:49.05Z</time></trkpt><trkpt lat="37.8853064" lon="15.169679"><ele>226.0</ele><time>2026-04-26T14:03:50.056Z</time></trkpt><trkpt lat="37.8852217" lon="15.1697887"><ele>225.75</ele><time>2026-04-26T14:03:51.071Z</time></trkpt><trkpt lat="37.8851325" lon="15.1699017"><ele>225.5</ele><time>2026-04-26T14:03:52.056Z</time></trkpt><trkpt lat="37.8850377" lon="15.1700203"><ele>225.25</ele><time>2026-04-26T14:03:53.083Z</time></trkpt><trkpt lat="37.8849394" lon="15.1701483"><ele>225.0</ele><time>2026-04-26T14:03:54.08Z</time></trkpt><trkpt lat="37.8848377" lon="15.1702842"><ele>225.0</ele><time>2026-04-26T14:03:55.082Z</time></trkpt><trkpt lat="37.8847317" lon="15.170421"><ele>225.0</ele><time>2026-04-26T14:03:56.079Z</time></trkpt><trkpt lat="37.8846194" lon="15.170563"><ele>225.0</ele><time>2026-04-26T14:03:57.056Z</time></trkpt><trkpt lat="37.8845079" lon="15.1707129"><ele>224.66666666666669</ele><time>2026-04-26T14:03:58.057Z</time></trkpt><trkpt lat="37.8844005" lon="15.1708575"><ele>224.33333333333334</ele><time>2026-04-26T14:03:59.081Z</time></trkpt><trkpt lat="37.8842933" lon="15.1709972"><ele>224.0</ele><time>2026-04-26T14:04:00.066Z</time></trkpt><trkpt lat="37.8841872" lon="15.1711342"><ele>224.0</ele><time>2026-04-26T14:04:01.097Z</time></trkpt><trkpt lat="37.8840823" lon="15.1712699"><ele>224.0</ele><time>2026-04-26T14:04:02.056Z</time></trkpt><trkpt lat="37.8839693" lon="15.1714069"><ele>224.0</ele><time>2026-04-26T14:04:03.062Z</time></trkpt><trkpt lat="37.8838535" lon="15.1715437"><ele>225.0</ele><time>2026-04-26T14:04:04.081Z</time></trkpt><trkpt lat="37.8837351" lon="15.1716819"><ele>226.0</ele><time>2026-04-26T14:04:05.08Z</time></trkpt><trkpt lat="37.8836152" lon="15.1718167"><ele>227.0</ele><time>2026-04-26T14:04:06.093Z</time></trkpt><trkpt lat="37.883497" lon="15.1719473"><ele>225.66666666666669</ele><time>2026-04-26T14:04:07.096Z</time></trkpt><trkpt lat="37.8833808" lon="15.1720746"><ele>224.33333333333331</ele><time>2026-04-26T14:04:08.062Z</time></trkpt><trkpt lat="37.8832631" lon="15.1722053"><ele>223.0</ele><time>2026-04-26T14:04:09.062Z</time></trkpt><trkpt lat="37.8831461" lon="15.17234"><ele>223.0</ele><time>2026-04-26T14:04:10.066Z</time></trkpt><trkpt lat="37.8830245" lon="15.1724748"><ele>223.0</ele><time>2026-04-26T14:04:11.092Z</time></trkpt><trkpt lat="37.8829012" lon="15.1726102"><ele>223.0</ele><time>2026-04-26T14:04:12.078Z</time></trkpt><trkpt lat="37.8827788" lon="15.1727475"><ele>223.0</ele><time>2026-04-26T14:04:13.079Z</time></trkpt><trkpt lat="37.8826584" lon="15.1728841"><ele>223.0</ele><time>2026-04-26T14:04:14.056Z</time></trkpt><trkpt lat="37.8825407" lon="15.1730154"><ele>223.0</ele><time>2026-04-26T14:04:15.099Z</time></trkpt><trkpt lat="37.8824235" lon="15.1731421"><ele>221.25</ele><time>2026-04-26T14:04:16.078Z</time></trkpt><trkpt lat="37.8823098" lon="15.1732651"><ele>219.5</ele><time>2026-04-26T14:04:17.065Z</time></trkpt><trkpt lat="37.8822006" lon="15.1733841"><ele>217.75</ele><time>2026-04-26T14:04:18.064Z</time></trkpt><trkpt lat="37.882095" lon="15.1735011"><ele>216.0</ele><time>2026-04-26T14:04:19.075Z</time></trkpt><trkpt lat="37.8819928" lon="15.1736164"><ele>216.0</ele><time>2026-04-26T14:04:20.083Z</time></trkpt><trkpt lat="37.8818931" lon="15.173729"><ele>216.0</ele><time>2026-04-26T14:04:21.056Z</time></trkpt><trkpt lat="37.8817966" lon="15.1738373"><ele>216.0</ele><time>2026-04-26T14:04:22.055Z</time></trkpt><trkpt lat="37.8817032" lon="15.1739412"><ele>216.0</ele><time>2026-04-26T14:04:23.057Z</time></trkpt><trkpt lat="37.8816142" lon="15.1740432"><ele>215.8</ele><time>2026-04-26T14:04:24.056Z</time></trkpt><trkpt lat="37.8815275" lon="15.1741438"><ele>215.60000000000002</ele><time>2026-04-26T14:04:25.056Z</time></trkpt><trkpt lat="37.8814389" lon="15.1742375"><ele>215.4</ele><time>2026-04-26T14:04:26.079Z</time></trkpt><trkpt lat="37.8813505" lon="15.1743168"><ele>215.2</ele><time>2026-04-26T14:04:27.055Z</time></trkpt><trkpt lat="37.8812553" lon="15.1743797"><ele>215.0</ele><time>2026-04-26T14:04:28.056Z</time></trkpt><trkpt lat="37.8811576" lon="15.1744232"><ele>215.0</ele><time>2026-04-26T14:04:29.057Z</time></trkpt><trkpt lat="37.8810559" lon="15.1744482"><ele>215.0</ele><time>2026-04-26T14:04:30.095Z</time></trkpt><trkpt lat="37.8809532" lon="15.1744557"><ele>215.0</ele><time>2026-04-26T14:04:31.068Z</time></trkpt><trkpt lat="37.8808544" lon="15.174446"><ele>215.0</ele><time>2026-04-26T14:04:32.068Z</time></trkpt><trkpt lat="37.8807622" lon="15.1744198"><ele>215.0</ele><time>2026-04-26T14:04:33.087Z</time></trkpt><trkpt lat="37.8806746" lon="15.1743827"><ele>214.16666666666669</ele><time>2026-04-26T14:04:34.078Z</time></trkpt><trkpt lat="37.8805873" lon="15.1743462"><ele>213.33333333333334</ele><time>2026-04-26T14:04:35.078Z</time></trkpt><trkpt lat="37.8805016" lon="15.1743306"><ele>212.5</ele><time>2026-04-26T14:04:36.096Z</time></trkpt><trkpt lat="37.8804251" lon="15.1743403"><ele>211.66666666666669</ele><time>2026-04-26T14:04:37.096Z</time></trkpt><trkpt lat="37.8803592" lon="15.1743748"><ele>210.83333333333334</ele><time>2026-04-26T14:04:38.066Z</time></trkpt><trkpt lat="37.8803051" lon="15.1744296"><ele>210.0</ele><time>2026-04-26T14:04:39.08Z</time></trkpt><trkpt lat="37.8802624" lon="15.174493"><ele>210.0</ele><time>2026-04-26T14:04:40.057Z</time></trkpt><trkpt lat="37.8802296" lon="15.17457"><ele>210.0</ele><time>2026-04-26T14:04:41.057Z</time></trkpt><trkpt lat="37.880205" lon="15.1746492"><ele>210.0</ele><time>2026-04-26T14:04:42.057Z</time></trkpt><trkpt lat="37.8801824" lon="15.1747255"><ele>210.0</ele><time>2026-04-26T14:04:43.058Z</time></trkpt><trkpt lat="37.8801365" lon="15.1748705"><ele>210.0</ele><time>2026-04-26T14:04:45.057Z</time></trkpt><trkpt lat="37.8801097" lon="15.1749437"><ele>210.0</ele><time>2026-04-26T14:04:46.056Z</time></trkpt><trkpt lat="37.8800787" lon="15.175019"><ele>208.5</ele><time>2026-04-26T14:04:47.058Z</time></trkpt><trkpt lat="37.8800432" lon="15.175098"><ele>207.0</ele><time>2026-04-26T14:04:48.057Z</time></trkpt><trkpt lat="37.8800075" lon="15.1751836"><ele>205.5</ele><time>2026-04-26T14:04:49.056Z</time></trkpt><trkpt lat="37.8799709" lon="15.1752745"><ele>204.0</ele><time>2026-04-26T14:04:50.055Z</time></trkpt><trkpt lat="37.8799306" lon="15.175366"><ele>202.5</ele><time>2026-04-26T14:04:51.055Z</time></trkpt><trkpt lat="37.8798847" lon="15.1754585"><ele>201.0</ele><time>2026-04-26T14:04:52.055Z</time></trkpt><trkpt lat="37.8798288" lon="15.1755497"><ele>201.0</ele><time>2026-04-26T14:04:53.056Z</time></trkpt><trkpt lat="37.8797648" lon="15.175634"><ele>201.0</ele><time>2026-04-26T14:04:54.056Z</time></trkpt><trkpt lat="37.8796959" lon="15.1757086"><ele>201.0</ele><time>2026-04-26T14:04:55.056Z</time></trkpt><trkpt lat="37.8796201" lon="15.175768"><ele>201.0</ele><time>2026-04-26T14:04:56.056Z</time></trkpt><trkpt lat="37.8795399" lon="15.1758177"><ele>201.0</ele><time>2026-04-26T14:04:57.058Z</time></trkpt><trkpt lat="37.879458" lon="15.1758683"><ele>201.0</ele><time>2026-04-26T14:04:58.057Z</time></trkpt><trkpt lat="37.8793785" lon="15.1759219"><ele>201.0</ele><time>2026-04-26T14:04:59.056Z</time></trkpt><trkpt lat="37.8792925" lon="15.1759725"><ele>201.0</ele><time>2026-04-26T14:05:00.058Z</time></trkpt><trkpt lat="37.8792033" lon="15.1760246"><ele>201.0</ele><time>2026-04-26T14:05:01.057Z</time></trkpt><trkpt lat="37.8791096" lon="15.1760857"><ele>201.0</ele><time>2026-04-26T14:05:02.083Z</time></trkpt><trkpt lat="37.879011" lon="15.1761486"><ele>201.0</ele><time>2026-04-26T14:05:03.058Z</time></trkpt><trkpt lat="37.8789029" lon="15.1762136"><ele>201.0</ele><time>2026-04-26T14:05:04.056Z</time></trkpt><trkpt lat="37.8787894" lon="15.1762834"><ele>201.0</ele><time>2026-04-26T14:05:05.056Z</time></trkpt><trkpt lat="37.8786715" lon="15.1763538"><ele>201.0</ele><time>2026-04-26T14:05:06.057Z</time></trkpt><trkpt lat="37.8785513" lon="15.1764274"><ele>199.5</ele><time>2026-04-26T14:05:07.08Z</time></trkpt><trkpt lat="37.8784329" lon="15.1765004"><ele>198.0</ele><time>2026-04-26T14:05:08.058Z</time></trkpt><trkpt lat="37.8783121" lon="15.1765747"><ele>196.5</ele><time>2026-04-26T14:05:09.058Z</time></trkpt><trkpt lat="37.8781944" lon="15.1766496"><ele>195.0</ele><time>2026-04-26T14:05:10.056Z</time></trkpt><trkpt lat="37.8780784" lon="15.1767241"><ele>195.0</ele><time>2026-04-26T14:05:11.059Z</time></trkpt><trkpt lat="37.8779639" lon="15.1767958"><ele>195.0</ele><time>2026-04-26T14:05:12.06Z</time></trkpt><trkpt lat="37.8778521" lon="15.1768654"><ele>195.0</ele><time>2026-04-26T14:05:13.058Z</time></trkpt><trkpt lat="37.8777417" lon="15.1769311"><ele>195.0</ele><time>2026-04-26T14:05:14.057Z</time></trkpt><trkpt lat="37.8776336" lon="15.1769967"><ele>193.75</ele><time>2026-04-26T14:05:15.059Z</time></trkpt><trkpt lat="37.8775308" lon="15.1770651"><ele>192.5</ele><time>2026-04-26T14:05:16.056Z</time></trkpt><trkpt lat="37.8774302" lon="15.1771323"><ele>191.25</ele><time>2026-04-26T14:05:17.056Z</time></trkpt><trkpt lat="37.8773348" lon="15.1772059"><ele>190.0</ele><time>2026-04-26T14:05:18.056Z</time></trkpt><trkpt lat="37.8772479" lon="15.1772949"><ele>189.5</ele><time>2026-04-26T14:05:19.055Z</time></trkpt><trkpt lat="37.877162" lon="15.1774008"><ele>189.0</ele><time>2026-04-26T14:05:20.057Z</time></trkpt><trkpt lat="37.8770735" lon="15.177517"><ele>188.5</ele><time>2026-04-26T14:05:21.056Z</time></trkpt><trkpt lat="37.8769868" lon="15.1776414"><ele>188.0</ele><time>2026-04-26T14:05:22.054Z</time></trkpt><trkpt lat="37.8768973" lon="15.1777727"><ele>188.0</ele><time>2026-04-26T14:05:23.057Z</time></trkpt><trkpt lat="37.8768084" lon="15.1779049"><ele>188.0</ele><time>2026-04-26T14:05:24.055Z</time></trkpt><trkpt lat="37.8767201" lon="15.1780363"><ele>188.0</ele><time>2026-04-26T14:05:25.056Z</time></trkpt><trkpt lat="37.8766341" lon="15.1781645"><ele>188.0</ele><time>2026-04-26T14:05:26.056Z</time></trkpt><trkpt lat="37.8765486" lon="15.1782918"><ele>186.0</ele><time>2026-04-26T14:05:27.094Z</time></trkpt><trkpt lat="37.8764688" lon="15.1784138"><ele>184.0</ele><time>2026-04-26T14:05:28.083Z</time></trkpt><trkpt lat="37.8763962" lon="15.1785365"><ele>182.0</ele><time>2026-04-26T14:05:29.056Z</time></trkpt><trkpt lat="37.8763373" lon="15.1786643"><ele>180.0</ele><time>2026-04-26T14:05:30.085Z</time></trkpt><trkpt lat="37.876298" lon="15.1787954"><ele>180.0</ele><time>2026-04-26T14:05:31.055Z</time></trkpt><trkpt lat="37.8762763" lon="15.1789325"><ele>180.0</ele><time>2026-04-26T14:05:32.056Z</time></trkpt><trkpt lat="37.8762713" lon="15.1790709"><ele>180.0</ele><time>2026-04-26T14:05:33.057Z</time></trkpt><trkpt lat="37.8762801" lon="15.1792124"><ele>180.0</ele><time>2026-04-26T14:05:34.056Z</time></trkpt><trkpt lat="37.8763042" lon="15.1793626"><ele>179.5</ele><time>2026-04-26T14:05:35.092Z</time></trkpt><trkpt lat="37.8763363" lon="15.1795143"><ele>179.0</ele><time>2026-04-26T14:05:36.057Z</time></trkpt><trkpt lat="37.8763825" lon="15.1796716"><ele>178.5</ele><time>2026-04-26T14:05:37.056Z</time></trkpt><trkpt lat="37.876436" lon="15.1798365"><ele>178.0</ele><time>2026-04-26T14:05:38.081Z</time></trkpt><trkpt lat="37.8764856" lon="15.1800088"><ele>177.33333333333334</ele><time>2026-04-26T14:05:39.057Z</time></trkpt><trkpt lat="37.8765246" lon="15.1802004"><ele>176.66666666666666</ele><time>2026-04-26T14:05:40.056Z</time></trkpt><trkpt lat="37.8765492" lon="15.1804041"><ele>176.0</ele><time>2026-04-26T14:05:41.059Z</time></trkpt><trkpt lat="37.8765632" lon="15.1806093"><ele>175.66666666666666</ele><time>2026-04-26T14:05:42.059Z</time></trkpt><trkpt lat="37.8765636" lon="15.1808096"><ele>175.33333333333334</ele><time>2026-04-26T14:05:43.06Z</time></trkpt><trkpt lat="37.8765519" lon="15.1810037"><ele>175.0</ele><time>2026-04-26T14:05:44.055Z</time></trkpt><trkpt lat="37.8765287" lon="15.181193"><ele>175.0</ele><time>2026-04-26T14:05:45.058Z</time></trkpt><trkpt lat="37.8764972" lon="15.181381"><ele>175.0</ele><time>2026-04-26T14:05:46.055Z</time></trkpt><trkpt lat="37.8764529" lon="15.1815631"><ele>175.0</ele><time>2026-04-26T14:05:47.1Z</time></trkpt><trkpt lat="37.8763972" lon="15.1817251"><ele>175.0</ele><time>2026-04-26T14:05:48.056Z</time></trkpt><trkpt lat="37.876333" lon="15.181885"><ele>175.5</ele><time>2026-04-26T14:05:49.055Z</time></trkpt><trkpt lat="37.8762602" lon="15.1820366"><ele>176.0</ele><time>2026-04-26T14:05:50.056Z</time></trkpt><trkpt lat="37.8761764" lon="15.1821856"><ele>176.5</ele><time>2026-04-26T14:05:51.056Z</time></trkpt><trkpt lat="37.8760861" lon="15.1823279"><ele>177.0</ele><time>2026-04-26T14:05:52.056Z</time></trkpt><trkpt lat="37.8759871" lon="15.1824636"><ele>176.5</ele><time>2026-04-26T14:05:53.056Z</time></trkpt><trkpt lat="37.8758936" lon="15.1826004"><ele>176.0</ele><time>2026-04-26T14:05:54.055Z</time></trkpt><trkpt lat="37.8758149" lon="15.1827434"><ele>175.5</ele><time>2026-04-26T14:05:55.056Z</time></trkpt><trkpt lat="37.8757553" lon="15.1828933"><ele>175.0</ele><time>2026-04-26T14:05:56.056Z</time></trkpt><trkpt lat="37.8757152" lon="15.183046"><ele>174.25</ele><time>2026-04-26T14:05:57.055Z</time></trkpt><trkpt lat="37.8756909" lon="15.1831998"><ele>173.5</ele><time>2026-04-26T14:05:58.056Z</time></trkpt><trkpt lat="37.8756798" lon="15.1833602"><ele>172.75</ele><time>2026-04-26T14:05:59.058Z</time></trkpt><trkpt lat="37.8756862" lon="15.1835249"><ele>172.0</ele><time>2026-04-26T14:06:00.058Z</time></trkpt><trkpt lat="37.8757106" lon="15.1836898"><ele>172.0</ele><time>2026-04-26T14:06:01.058Z</time></trkpt><trkpt lat="37.8757497" lon="15.1838471"><ele>172.0</ele><time>2026-04-26T14:06:02.089Z</time></trkpt><trkpt lat="37.875795" lon="15.1839913"><ele>172.0</ele><time>2026-04-26T14:06:03.056Z</time></trkpt><trkpt lat="37.8758531" lon="15.1841327"><ele>172.0</ele><time>2026-04-26T14:06:04.058Z</time></trkpt><trkpt lat="37.8759188" lon="15.184274"><ele>173.5</ele><time>2026-04-26T14:06:05.057Z</time></trkpt><trkpt lat="37.8759953" lon="15.1844204"><ele>175.0</ele><time>2026-04-26T14:06:06.056Z</time></trkpt><trkpt lat="37.8760816" lon="15.1845778"><ele>176.5</ele><time>2026-04-26T14:06:07.055Z</time></trkpt><trkpt lat="37.8761669" lon="15.184745"><ele>178.0</ele><time>2026-04-26T14:06:08.058Z</time></trkpt><trkpt lat="37.8762537" lon="15.1849165"><ele>178.0</ele><time>2026-04-26T14:06:09.058Z</time></trkpt><trkpt lat="37.8763381" lon="15.1850875"><ele>178.0</ele><time>2026-04-26T14:06:10.058Z</time></trkpt><trkpt lat="37.8764203" lon="15.1852552"><ele>178.0</ele><time>2026-04-26T14:06:11.08Z</time></trkpt><trkpt lat="37.8764955" lon="15.185418"><ele>178.0</ele><time>2026-04-26T14:06:12.055Z</time></trkpt><trkpt lat="37.8765681" lon="15.1855806"><ele>178.0</ele><time>2026-04-26T14:06:13.057Z</time></trkpt><trkpt lat="37.8766413" lon="15.1857355"><ele>178.0</ele><time>2026-04-26T14:06:14.055Z</time></trkpt><trkpt lat="37.8767181" lon="15.1858823"><ele>178.0</ele><time>2026-04-26T14:06:15.1Z</time></trkpt><trkpt lat="37.8768015" lon="15.1860081"><ele>178.75</ele><time>2026-04-26T14:06:16.056Z</time></trkpt><trkpt lat="37.8769011" lon="15.1861207"><ele>179.5</ele><time>2026-04-26T14:06:17.056Z</time></trkpt><trkpt lat="37.87701" lon="15.1862251"><ele>180.25</ele><time>2026-04-26T14:06:18.056Z</time></trkpt><trkpt lat="37.8771248" lon="15.1863216"><ele>181.0</ele><time>2026-04-26T14:06:19.044Z</time></trkpt><trkpt lat="37.8772453" lon="15.1864078"><ele>181.0</ele><time>2026-04-26T14:06:20.043Z</time></trkpt><trkpt lat="37.8773694" lon="15.1864861"><ele>181.0</ele><time>2026-04-26T14:06:21.046Z</time></trkpt><trkpt lat="37.8774979" lon="15.1865556"><ele>181.0</ele><time>2026-04-26T14:06:22.045Z</time></trkpt><trkpt lat="37.8776228" lon="15.186617"><ele>181.0</ele><time>2026-04-26T14:06:23.056Z</time></trkpt><trkpt lat="37.8777393" lon="15.1866768"><ele>177.75</ele><time>2026-04-26T14:06:24.053Z</time></trkpt><trkpt lat="37.8778464" lon="15.1867429"><ele>174.5</ele><time>2026-04-26T14:06:25.053Z</time></trkpt><trkpt lat="37.8779459" lon="15.1868138"><ele>171.25</ele><time>2026-04-26T14:06:26.059Z</time></trkpt><trkpt lat="37.8780371" lon="15.1868929"><ele>168.0</ele><time>2026-04-26T14:06:27.052Z</time></trkpt><trkpt lat="37.8781129" lon="15.1869889"><ele>168.0</ele><time>2026-04-26T14:06:28.047Z</time></trkpt><trkpt lat="37.8781741" lon="15.1870943"><ele>168.0</ele><time>2026-04-26T14:06:29.058Z</time></trkpt><trkpt lat="37.878221" lon="15.1872041"><ele>168.0</ele><time>2026-04-26T14:06:30.045Z</time></trkpt><trkpt lat="37.8782529" lon="15.1873202"><ele>168.0</ele><time>2026-04-26T14:06:31.044Z</time></trkpt><trkpt lat="37.8782732" lon="15.1874438"><ele>168.0</ele><time>2026-04-26T14:06:32.045Z</time></trkpt><trkpt lat="37.8782862" lon="15.1875782"><ele>164.25</ele><time>2026-04-26T14:06:33.048Z</time></trkpt><trkpt lat="37.8782902" lon="15.1877302"><ele>160.5</ele><time>2026-04-26T14:06:34.055Z</time></trkpt><trkpt lat="37.8782928" lon="15.1878953"><ele>156.75</ele><time>2026-04-26T14:06:35.055Z</time></trkpt><trkpt lat="37.8782957" lon="15.1880681"><ele>153.0</ele><time>2026-04-26T14:06:36.044Z</time></trkpt><trkpt lat="37.8782964" lon="15.1882378"><ele>152.8</ele><time>2026-04-26T14:06:37.046Z</time></trkpt><trkpt lat="37.8782857" lon="15.1883936"><ele>152.60000000000002</ele><time>2026-04-26T14:06:38.044Z</time></trkpt><trkpt lat="37.8782544" lon="15.1885253"><ele>152.39999999999998</ele><time>2026-04-26T14:06:39.054Z</time></trkpt><trkpt lat="37.8782094" lon="15.188641"><ele>152.2</ele><time>2026-04-26T14:06:40.05Z</time></trkpt><trkpt lat="37.8781566" lon="15.1887496"><ele>152.0</ele><time>2026-04-26T14:06:41.042Z</time></trkpt><trkpt lat="37.8780958" lon="15.1888566"><ele>152.0</ele><time>2026-04-26T14:06:42.044Z</time></trkpt><trkpt lat="37.8780202" lon="15.1889595"><ele>152.0</ele><time>2026-04-26T14:06:43.049Z</time></trkpt><trkpt lat="37.8779319" lon="15.1890643"><ele>152.0</ele><time>2026-04-26T14:06:44.055Z</time></trkpt><trkpt lat="37.8778299" lon="15.1891668"><ele>152.0</ele><time>2026-04-26T14:06:45.071Z</time></trkpt><trkpt lat="37.8777221" lon="15.1892713"><ele>152.0</ele><time>2026-04-26T14:06:46.062Z</time></trkpt><trkpt lat="37.8776114" lon="15.1893862"><ele>152.0</ele><time>2026-04-26T14:06:47.066Z</time></trkpt><trkpt lat="37.8774972" lon="15.1895087"><ele>152.0</ele><time>2026-04-26T14:06:48.09Z</time></trkpt><trkpt lat="37.8773786" lon="15.1896256"><ele>152.0</ele><time>2026-04-26T14:06:49.076Z</time></trkpt><trkpt lat="37.8772587" lon="15.1897367"><ele>152.0</ele><time>2026-04-26T14:06:50.098Z</time></trkpt><trkpt lat="37.8771406" lon="15.1898356"><ele>152.0</ele><time>2026-04-26T14:06:51.077Z</time></trkpt><trkpt lat="37.8770189" lon="15.1899273"><ele>152.0</ele><time>2026-04-26T14:06:52.078Z</time></trkpt><trkpt lat="37.8768943" lon="15.1900153"><ele>152.0</ele><time>2026-04-26T14:06:53.09Z</time></trkpt><trkpt lat="37.8767673" lon="15.190099"><ele>151.5</ele><time>2026-04-26T14:06:54.076Z</time></trkpt><trkpt lat="37.8766391" lon="15.1901819"><ele>151.0</ele><time>2026-04-26T14:06:55.059Z</time></trkpt><trkpt lat="37.8765098" lon="15.1902658"><ele>150.5</ele><time>2026-04-26T14:06:56.062Z</time></trkpt><trkpt lat="37.8763807" lon="15.1903501"><ele>150.0</ele><time>2026-04-26T14:06:57.043Z</time></trkpt><trkpt lat="37.8762502" lon="15.1904349"><ele>150.0</ele><time>2026-04-26T14:06:58.043Z</time></trkpt><trkpt lat="37.8761219" lon="15.1905198"><ele>150.0</ele><time>2026-04-26T14:06:59.044Z</time></trkpt><trkpt lat="37.8759969" lon="15.1906028"><ele>150.0</ele><time>2026-04-26T14:07:00.045Z</time></trkpt><trkpt lat="37.8758746" lon="15.19068"><ele>150.0</ele><time>2026-04-26T14:07:01.057Z</time></trkpt><trkpt lat="37.8757578" lon="15.1907538"><ele>149.0</ele><time>2026-04-26T14:07:02.044Z</time></trkpt><trkpt lat="37.875644" lon="15.190827"><ele>148.0</ele><time>2026-04-26T14:07:03.044Z</time></trkpt><trkpt lat="37.8755311" lon="15.1908989"><ele>147.0</ele><time>2026-04-26T14:07:04.073Z</time></trkpt><trkpt lat="37.8754223" lon="15.1909683"><ele>146.0</ele><time>2026-04-26T14:07:05.044Z</time></trkpt><trkpt lat="37.8753101" lon="15.1910363"><ele>146.0</ele><time>2026-04-26T14:07:06.043Z</time></trkpt><trkpt lat="37.8751966" lon="15.1911025"><ele>146.0</ele><time>2026-04-26T14:07:07.055Z</time></trkpt><trkpt lat="37.8750823" lon="15.1911649"><ele>146.0</ele><time>2026-04-26T14:07:08.056Z</time></trkpt><trkpt lat="37.874963" lon="15.1912221"><ele>146.0</ele><time>2026-04-26T14:07:09.055Z</time></trkpt><trkpt lat="37.8748407" lon="15.1912798"><ele>143.75</ele><time>2026-04-26T14:07:10.055Z</time></trkpt><trkpt lat="37.8747168" lon="15.1913372"><ele>141.5</ele><time>2026-04-26T14:07:11.057Z</time></trkpt><trkpt lat="37.8745949" lon="15.1913934"><ele>139.25</ele><time>2026-04-26T14:07:12.051Z</time></trkpt><trkpt lat="37.8744722" lon="15.1914451"><ele>137.0</ele><time>2026-04-26T14:07:13.056Z</time></trkpt><trkpt lat="37.8743501" lon="15.1914939"><ele>136.5</ele><time>2026-04-26T14:07:14.076Z</time></trkpt><trkpt lat="37.8742314" lon="15.1915393"><ele>136.0</ele><time>2026-04-26T14:07:15.073Z</time></trkpt><trkpt lat="37.8741136" lon="15.1915827"><ele>135.5</ele><time>2026-04-26T14:07:16.081Z</time></trkpt><trkpt lat="37.873998" lon="15.1916244"><ele>135.0</ele><time>2026-04-26T14:07:17.078Z</time></trkpt><trkpt lat="37.8738838" lon="15.1916654"><ele>135.0</ele><time>2026-04-26T14:07:18.062Z</time></trkpt><trkpt lat="37.8737657" lon="15.1917061"><ele>135.0</ele><time>2026-04-26T14:07:19.071Z</time></trkpt><trkpt lat="37.8736485" lon="15.191747"><ele>135.0</ele><time>2026-04-26T14:07:20.064Z</time></trkpt><trkpt lat="37.8735273" lon="15.1917883"><ele>135.0</ele><time>2026-04-26T14:07:21.102Z</time></trkpt><trkpt lat="37.873405" lon="15.1918296"><ele>133.5</ele><time>2026-04-26T14:07:22.097Z</time></trkpt><trkpt lat="37.8732813" lon="15.1918727"><ele>132.0</ele><time>2026-04-26T14:07:23.081Z</time></trkpt><trkpt lat="37.8731584" lon="15.191917"><ele>130.5</ele><time>2026-04-26T14:07:24.101Z</time></trkpt><trkpt lat="37.8730413" lon="15.191959"><ele>129.0</ele><time>2026-04-26T14:07:25.081Z</time></trkpt><trkpt lat="37.8729246" lon="15.1919992"><ele>129.0</ele><time>2026-04-26T14:07:26.078Z</time></trkpt><trkpt lat="37.8728122" lon="15.1920387"><ele>129.0</ele><time>2026-04-26T14:07:27.093Z</time></trkpt><trkpt lat="37.872707" lon="15.1920765"><ele>129.0</ele><time>2026-04-26T14:07:28.063Z</time></trkpt><trkpt lat="37.8726062" lon="15.1921121"><ele>129.0</ele><time>2026-04-26T14:07:29.045Z</time></trkpt><trkpt lat="37.872509" lon="15.1921439"><ele>129.0</ele><time>2026-04-26T14:07:30.046Z</time></trkpt><trkpt lat="37.8724154" lon="15.1921723"><ele>129.0</ele><time>2026-04-26T14:07:31.083Z</time></trkpt><trkpt lat="37.8723297" lon="15.1921965"><ele>129.0</ele><time>2026-04-26T14:07:32.078Z</time></trkpt><trkpt lat="37.8722509" lon="15.1922192"><ele>129.0</ele><time>2026-04-26T14:07:33.096Z</time></trkpt><trkpt lat="37.8721811" lon="15.1922403"><ele>129.0</ele><time>2026-04-26T14:07:34.09Z</time></trkpt><trkpt lat="37.8720674" lon="15.1922726"><ele>129.0</ele><time>2026-04-26T14:07:36.067Z</time></trkpt><trkpt lat="37.8719895" lon="15.1922958"><ele>129.0</ele><time>2026-04-26T14:07:38.047Z</time></trkpt><trkpt lat="37.871918" lon="15.192314"><ele>129.0</ele><time>2026-04-26T14:07:40.091Z</time></trkpt><trkpt lat="37.8718523" lon="15.1923003"><ele>129.0</ele><time>2026-04-26T14:07:42.065Z</time></trkpt><trkpt lat="37.8718206" lon="15.1921796"><ele>129.0</ele><time>2026-04-26T14:07:45.07Z</time></trkpt><trkpt lat="37.8717979" lon="15.1920528"><ele>129.0</ele><time>2026-04-26T14:07:47.045Z</time></trkpt><trkpt lat="37.8717683" lon="15.1919008"><ele>129.0</ele><time>2026-04-26T14:07:49.091Z</time></trkpt><trkpt lat="37.8717574" lon="15.1918212"><ele>128.8</ele><time>2026-04-26T14:07:50.079Z</time></trkpt><trkpt lat="37.8717534" lon="15.1917411"><ele>128.60000000000002</ele><time>2026-04-26T14:07:51.092Z</time></trkpt><trkpt lat="37.8717693" lon="15.1915858"><ele>128.4</ele><time>2026-04-26T14:07:53.048Z</time></trkpt><trkpt lat="37.8717636" lon="15.1914465"><ele>128.20000000000002</ele><time>2026-04-26T14:07:55.055Z</time></trkpt><trkpt lat="37.8717575" lon="15.1913485"><ele>128.0</ele><time>2026-04-26T14:07:57.078Z</time></trkpt><trkpt lat="37.8717639" lon="15.191238"><ele>127.4</ele><time>2026-04-26T14:08:00.058Z</time></trkpt><trkpt lat="37.8717776" lon="15.1911531"><ele>126.80000000000001</ele><time>2026-04-26T14:08:02.056Z</time></trkpt><trkpt lat="37.8718165" lon="15.1910623"><ele>126.2</ele><time>2026-04-26T14:08:04.069Z</time></trkpt><trkpt lat="37.871894" lon="15.1909879"><ele>125.6</ele><time>2026-04-26T14:08:06.098Z</time></trkpt><trkpt lat="37.8720031" lon="15.1909298"><ele>125.0</ele><time>2026-04-26T14:08:08.092Z</time></trkpt><trkpt lat="37.8721005" lon="15.1908573"><ele>124.99999999999999</ele><time>2026-04-26T14:08:10.077Z</time></trkpt><trkpt lat="37.8721424" lon="15.1907488"><ele>125.0</ele><time>2026-04-26T14:08:12.064Z</time></trkpt><trkpt lat="37.8721399" lon="15.1906011"><ele>125.0</ele><time>2026-04-26T14:08:14.051Z</time></trkpt><trkpt lat="37.8721362" lon="15.1905212"><ele>125.0</ele><time>2026-04-26T14:08:15.055Z</time></trkpt><trkpt lat="37.8721289" lon="15.190431"><ele>124.99999999999999</ele><time>2026-04-26T14:08:16.062Z</time></trkpt><trkpt lat="37.8721212" lon="15.1903316"><ele>125.0</ele><time>2026-04-26T14:08:17.065Z</time></trkpt><trkpt lat="37.872113" lon="15.1902376"><ele>126.8</ele><time>2026-04-26T14:08:18.065Z</time></trkpt><trkpt lat="37.8720961" lon="15.1901572"><ele>128.6</ele><time>2026-04-26T14:08:19.045Z</time></trkpt><trkpt lat="37.8720373" lon="15.190048"><ele>130.4</ele><time>2026-04-26T14:08:21.067Z</time></trkpt><trkpt lat="37.8719575" lon="15.1900275"><ele>132.2</ele><time>2026-04-26T14:08:23.056Z</time></trkpt><trkpt lat="37.8718613" lon="15.1900651"><ele>134.0</ele><time>2026-04-26T14:08:25.068Z</time></trkpt><trkpt lat="37.8717422" lon="15.190152"><ele>134.0</ele><time>2026-04-26T14:08:27.051Z</time></trkpt><trkpt lat="37.8716718" lon="15.1902062"><ele>134.0</ele><time>2026-04-26T14:08:28.046Z</time></trkpt><trkpt lat="37.8715963" lon="15.1902661"><ele>134.0</ele><time>2026-04-26T14:08:29.044Z</time></trkpt><trkpt lat="37.8715142" lon="15.1903227"><ele>134.0</ele><time>2026-04-26T14:08:30.062Z</time></trkpt><trkpt lat="37.871427" lon="15.190376"><ele>134.0</ele><time>2026-04-26T14:08:31.045Z</time></trkpt><trkpt lat="37.871332" lon="15.1904258"><ele>134.0</ele><time>2026-04-26T14:08:32.065Z</time></trkpt><trkpt lat="37.8712327" lon="15.1904748"><ele>134.0</ele><time>2026-04-26T14:08:33.045Z</time></trkpt><trkpt lat="37.8711314" lon="15.1905242"><ele>134.0</ele><time>2026-04-26T14:08:34.044Z</time></trkpt><trkpt lat="37.8710291" lon="15.1905742"><ele>134.0</ele><time>2026-04-26T14:08:35.097Z</time></trkpt><trkpt lat="37.8709247" lon="15.1906208"><ele>134.0</ele><time>2026-04-26T14:08:36.097Z</time></trkpt><trkpt lat="37.8708158" lon="15.1906638"><ele>133.2</ele><time>2026-04-26T14:08:37.077Z</time></trkpt><trkpt lat="37.8707075" lon="15.1907071"><ele>132.4</ele><time>2026-04-26T14:08:38.077Z</time></trkpt><trkpt lat="37.8706023" lon="15.1907499"><ele>131.6</ele><time>2026-04-26T14:08:39.077Z</time></trkpt><trkpt lat="37.870501" lon="15.1907885"><ele>130.8</ele><time>2026-04-26T14:08:40.076Z</time></trkpt><trkpt lat="37.8704012" lon="15.1908254"><ele>130.0</ele><time>2026-04-26T14:08:41.062Z</time></trkpt><trkpt lat="37.8703019" lon="15.1908634"><ele>130.0</ele><time>2026-04-26T14:08:42.06Z</time></trkpt><trkpt lat="37.8702034" lon="15.1909022"><ele>130.0</ele><time>2026-04-26T14:08:43.079Z</time></trkpt><trkpt lat="37.8701028" lon="15.1909421"><ele>130.0</ele><time>2026-04-26T14:08:44.088Z</time></trkpt><trkpt lat="37.8699976" lon="15.1909857"><ele>130.0</ele><time>2026-04-26T14:08:45.09Z</time></trkpt><trkpt lat="37.8698881" lon="15.1910316"><ele>130.0</ele><time>2026-04-26T14:08:46.07Z</time></trkpt><trkpt lat="37.8697717" lon="15.1910815"><ele>130.25</ele><time>2026-04-26T14:08:47.07Z</time></trkpt><trkpt lat="37.8696508" lon="15.1911341"><ele>130.5</ele><time>2026-04-26T14:08:48.081Z</time></trkpt><trkpt lat="37.8695253" lon="15.191187"><ele>130.75</ele><time>2026-04-26T14:08:49.079Z</time></trkpt><trkpt lat="37.8693952" lon="15.1912394"><ele>131.0</ele><time>2026-04-26T14:08:50.062Z</time></trkpt><trkpt lat="37.8692615" lon="15.1912923"><ele>131.75</ele><time>2026-04-26T14:08:51.066Z</time></trkpt><trkpt lat="37.8691252" lon="15.1913487"><ele>132.5</ele><time>2026-04-26T14:08:52.079Z</time></trkpt><trkpt lat="37.8689891" lon="15.1914049"><ele>133.25</ele><time>2026-04-26T14:08:53.073Z</time></trkpt><trkpt lat="37.8688514" lon="15.1914651"><ele>134.0</ele><time>2026-04-26T14:08:54.073Z</time></trkpt><trkpt lat="37.8687154" lon="15.1915253"><ele>134.25</ele><time>2026-04-26T14:08:55.065Z</time></trkpt><trkpt lat="37.8685813" lon="15.1915857"><ele>134.5</ele><time>2026-04-26T14:08:56.076Z</time></trkpt><trkpt lat="37.8684505" lon="15.1916482"><ele>134.75</ele><time>2026-04-26T14:08:57.077Z</time></trkpt><trkpt lat="37.8683194" lon="15.1917278"><ele>135.0</ele><time>2026-04-26T14:08:58.071Z</time></trkpt><trkpt lat="37.8681957" lon="15.1917932"><ele>135.0</ele><time>2026-04-26T14:08:59.059Z</time></trkpt><trkpt lat="37.8680848" lon="15.1918552"><ele>135.0</ele><time>2026-04-26T14:09:00.065Z</time></trkpt><trkpt lat="37.867984" lon="15.1919106"><ele>135.0</ele><time>2026-04-26T14:09:01.094Z</time></trkpt><trkpt lat="37.8678925" lon="15.1919605"><ele>135.0</ele><time>2026-04-26T14:09:02.08Z</time></trkpt><trkpt lat="37.8678044" lon="15.1920099"><ele>135.0</ele><time>2026-04-26T14:09:03.083Z</time></trkpt><trkpt lat="37.8677178" lon="15.1920599"><ele>135.0</ele><time>2026-04-26T14:09:04.065Z</time></trkpt><trkpt lat="37.8676292" lon="15.1921047"><ele>135.0</ele><time>2026-04-26T14:09:05.101Z</time></trkpt><trkpt lat="37.8675407" lon="15.192153"><ele>135.0</ele><time>2026-04-26T14:09:06.079Z</time></trkpt><trkpt lat="37.8674519" lon="15.1922099"><ele>135.0</ele><time>2026-04-26T14:09:07.064Z</time></trkpt><trkpt lat="37.8673614" lon="15.1922747"><ele>135.0</ele><time>2026-04-26T14:09:08.079Z</time></trkpt><trkpt lat="37.8672743" lon="15.1923476"><ele>136.0</ele><time>2026-04-26T14:09:09.083Z</time></trkpt><trkpt lat="37.8671924" lon="15.1924268"><ele>137.0</ele><time>2026-04-26T14:09:10.08Z</time></trkpt><trkpt lat="37.8671162" lon="15.1925146"><ele>138.0</ele><time>2026-04-26T14:09:11.097Z</time></trkpt><trkpt lat="37.8670456" lon="15.1926065"><ele>139.0</ele><time>2026-04-26T14:09:12.07Z</time></trkpt><trkpt lat="37.8669752" lon="15.1926994"><ele>140.0</ele><time>2026-04-26T14:09:13.095Z</time></trkpt><trkpt lat="37.8669037" lon="15.1927925"><ele>140.0</ele><time>2026-04-26T14:09:14.095Z</time></trkpt><trkpt lat="37.8668295" lon="15.1928868"><ele>140.0</ele><time>2026-04-26T14:09:15.096Z</time></trkpt><trkpt lat="37.8667579" lon="15.1929843"><ele>140.0</ele><time>2026-04-26T14:09:16.089Z</time></trkpt><trkpt lat="37.866694" lon="15.1930827"><ele>140.0</ele><time>2026-04-26T14:09:17.079Z</time></trkpt><trkpt lat="37.8666427" lon="15.1931819"><ele>140.0</ele><time>2026-04-26T14:09:18.091Z</time></trkpt><trkpt lat="37.8665976" lon="15.1932771"><ele>138.6</ele><time>2026-04-26T14:09:19.094Z</time></trkpt><trkpt lat="37.8665531" lon="15.1933751"><ele>137.2</ele><time>2026-04-26T14:09:20.08Z</time></trkpt><trkpt lat="37.8665038" lon="15.1934746"><ele>135.8</ele><time>2026-04-26T14:09:21.079Z</time></trkpt><trkpt lat="37.8664492" lon="15.1935799"><ele>134.4</ele><time>2026-04-26T14:09:22.096Z</time></trkpt><trkpt lat="37.8663953" lon="15.1936896"><ele>133.0</ele><time>2026-04-26T14:09:23.079Z</time></trkpt><trkpt lat="37.8663411" lon="15.1938101"><ele>133.0</ele><time>2026-04-26T14:09:24.076Z</time></trkpt><trkpt lat="37.8662868" lon="15.1939363"><ele>133.0</ele><time>2026-04-26T14:09:25.084Z</time></trkpt><trkpt lat="37.8662317" lon="15.1940659"><ele>133.0</ele><time>2026-04-26T14:09:26.079Z</time></trkpt><trkpt lat="37.8661762" lon="15.1942047"><ele>133.0</ele><time>2026-04-26T14:09:27.096Z</time></trkpt><trkpt lat="37.8661215" lon="15.1943502"><ele>133.25</ele><time>2026-04-26T14:09:28.08Z</time></trkpt><trkpt lat="37.8660644" lon="15.1945011"><ele>133.5</ele><time>2026-04-26T14:09:29.066Z</time></trkpt><trkpt lat="37.8660059" lon="15.194651"><ele>133.75</ele><time>2026-04-26T14:09:30.071Z</time></trkpt><trkpt lat="37.865945" lon="15.1947945"><ele>134.0</ele><time>2026-04-26T14:09:31.097Z</time></trkpt><trkpt lat="37.8658814" lon="15.1949269"><ele>134.0</ele><time>2026-04-26T14:09:32.081Z</time></trkpt><trkpt lat="37.86581" lon="15.1950537"><ele>134.0</ele><time>2026-04-26T14:09:33.08Z</time></trkpt><trkpt lat="37.8657292" lon="15.1951735"><ele>134.0</ele><time>2026-04-26T14:09:34.078Z</time></trkpt><trkpt lat="37.8656404" lon="15.1952876"><ele>134.0</ele><time>2026-04-26T14:09:35.07Z</time></trkpt><trkpt lat="37.8655446" lon="15.195399"><ele>134.0</ele><time>2026-04-26T14:09:36.068Z</time></trkpt><trkpt lat="37.8654412" lon="15.1955052"><ele>134.0</ele><time>2026-04-26T14:09:37.067Z</time></trkpt><trkpt lat="37.8653335" lon="15.1956092"><ele>134.0</ele><time>2026-04-26T14:09:38.096Z</time></trkpt><trkpt lat="37.8652314" lon="15.1957096"><ele>134.0</ele><time>2026-04-26T14:09:39.063Z</time></trkpt><trkpt lat="37.8651313" lon="15.1958117"><ele>132.75</ele><time>2026-04-26T14:09:40.093Z</time></trkpt><trkpt lat="37.8650399" lon="15.1959094"><ele>131.5</ele><time>2026-04-26T14:09:41.06Z</time></trkpt><trkpt lat="37.8649503" lon="15.1960068"><ele>130.25</ele><time>2026-04-26T14:09:42.096Z</time></trkpt><trkpt lat="37.8648678" lon="15.196098"><ele>129.0</ele><time>2026-04-26T14:09:43.066Z</time></trkpt><trkpt lat="37.8647883" lon="15.1961836"><ele>129.0</ele><time>2026-04-26T14:09:44.1Z</time></trkpt><trkpt lat="37.864717" lon="15.196258"><ele>129.0</ele><time>2026-04-26T14:09:45.053Z</time></trkpt><trkpt lat="37.8646452" lon="15.196326"><ele>129.0</ele><time>2026-04-26T14:09:46.08Z</time></trkpt><trkpt lat="37.8645758" lon="15.1963811"><ele>129.0</ele><time>2026-04-26T14:09:47.052Z</time></trkpt><trkpt lat="37.8645094" lon="15.1964373"><ele>129.0</ele><time>2026-04-26T14:09:48.057Z</time></trkpt><trkpt lat="37.8644459" lon="15.1964959"><ele>129.0</ele><time>2026-04-26T14:09:49.054Z</time></trkpt><trkpt lat="37.864389" lon="15.1965548"><ele>128.7142857142857</ele><time>2026-04-26T14:09:50.059Z</time></trkpt><trkpt lat="37.8643406" lon="15.1966135"><ele>128.42857142857142</ele><time>2026-04-26T14:09:51.045Z</time></trkpt><trkpt lat="37.8642987" lon="15.1966779"><ele>128.14285714285714</ele><time>2026-04-26T14:09:52.056Z</time></trkpt><trkpt lat="37.864269" lon="15.1967558"><ele>127.85714285714285</ele><time>2026-04-26T14:09:53.05Z</time></trkpt><trkpt lat="37.8642448" lon="15.1968458"><ele>127.57142857142856</ele><time>2026-04-26T14:09:54.078Z</time></trkpt><trkpt lat="37.8642194" lon="15.1969311"><ele>127.28571428571429</ele><time>2026-04-26T14:09:55.077Z</time></trkpt><trkpt lat="37.8641815" lon="15.1970065"><ele>127.0</ele><time>2026-04-26T14:09:56.045Z</time></trkpt><trkpt lat="37.8641246" lon="15.1970732"><ele>127.00000000000001</ele><time>2026-04-26T14:09:57.044Z</time></trkpt><trkpt lat="37.8640576" lon="15.1971259"><ele>127.0</ele><time>2026-04-26T14:09:58.06Z</time></trkpt><trkpt lat="37.8639809" lon="15.1971629"><ele>127.0</ele><time>2026-04-26T14:09:59.054Z</time></trkpt><trkpt lat="37.8639058" lon="15.1972006"><ele>127.0</ele><time>2026-04-26T14:10:00.043Z</time></trkpt><trkpt lat="37.8638368" lon="15.1972353"><ele>127.00000000000001</ele><time>2026-04-26T14:10:01.043Z</time></trkpt><trkpt lat="37.8637678" lon="15.197263"><ele>127.0</ele><time>2026-04-26T14:10:02.051Z</time></trkpt><trkpt lat="37.8636988" lon="15.1972881"><ele>127.00000000000001</ele><time>2026-04-26T14:10:03.044Z</time></trkpt><trkpt lat="37.8636247" lon="15.1973218"><ele>127.0</ele><time>2026-04-26T14:10:04.042Z</time></trkpt><trkpt lat="37.8635483" lon="15.1973596"><ele>127.0</ele><time>2026-04-26T14:10:05.041Z</time></trkpt><trkpt lat="37.8634684" lon="15.1974013"><ele>127.0</ele><time>2026-04-26T14:10:06.042Z</time></trkpt><trkpt lat="37.8633866" lon="15.1974417"><ele>127.00000000000001</ele><time>2026-04-26T14:10:07.041Z</time></trkpt><trkpt lat="37.863304" lon="15.1974808"><ele>127.0</ele><time>2026-04-26T14:10:08.042Z</time></trkpt><trkpt lat="37.863223" lon="15.1975134"><ele>125.71428571428572</ele><time>2026-04-26T14:10:09.042Z</time></trkpt><trkpt lat="37.8631481" lon="15.1975432"><ele>124.42857142857142</ele><time>2026-04-26T14:10:10.04Z</time></trkpt><trkpt lat="37.863077" lon="15.1975731"><ele>123.14285714285714</ele><time>2026-04-26T14:10:11.041Z</time></trkpt><trkpt lat="37.8630099" lon="15.1975989"><ele>121.85714285714286</ele><time>2026-04-26T14:10:12.042Z</time></trkpt><trkpt lat="37.8629412" lon="15.1976222"><ele>120.57142857142858</ele><time>2026-04-26T14:10:13.043Z</time></trkpt><trkpt lat="37.8628706" lon="15.1976448"><ele>119.28571428571428</ele><time>2026-04-26T14:10:14.067Z</time></trkpt><trkpt lat="37.8628004" lon="15.1976747"><ele>118.0</ele><time>2026-04-26T14:10:15.077Z</time></trkpt><trkpt lat="37.8627308" lon="15.1977228"><ele>118.0</ele><time>2026-04-26T14:10:16.046Z</time></trkpt><trkpt lat="37.8626573" lon="15.197787"><ele>118.00000000000001</ele><time>2026-04-26T14:10:17.043Z</time></trkpt><trkpt lat="37.8625727" lon="15.1978633"><ele>118.00000000000001</ele><time>2026-04-26T14:10:18.081Z</time></trkpt><trkpt lat="37.8624755" lon="15.1979445"><ele>118.0</ele><time>2026-04-26T14:10:19.048Z</time></trkpt><trkpt lat="37.8623747" lon="15.1980203"><ele>118.0</ele><time>2026-04-26T14:10:20.044Z</time></trkpt><trkpt lat="37.8622777" lon="15.1980962"><ele>117.80000000000001</ele><time>2026-04-26T14:10:21.045Z</time></trkpt><trkpt lat="37.8621793" lon="15.1981565"><ele>117.60000000000001</ele><time>2026-04-26T14:10:22.057Z</time></trkpt><trkpt lat="37.8620803" lon="15.1981925"><ele>117.39999999999999</ele><time>2026-04-26T14:10:23.047Z</time></trkpt><trkpt lat="37.8619786" lon="15.1982066"><ele>117.19999999999999</ele><time>2026-04-26T14:10:24.056Z</time></trkpt><trkpt lat="37.8618632" lon="15.1981995"><ele>117.0</ele><time>2026-04-26T14:10:25.078Z</time></trkpt><trkpt lat="37.8617351" lon="15.1981815"><ele>118.25</ele><time>2026-04-26T14:10:26.067Z</time></trkpt><trkpt lat="37.8615986" lon="15.1981624"><ele>119.5</ele><time>2026-04-26T14:10:27.083Z</time></trkpt><trkpt lat="37.8614584" lon="15.1981463"><ele>120.75</ele><time>2026-04-26T14:10:28.095Z</time></trkpt><trkpt lat="37.8613207" lon="15.1981318"><ele>122.0</ele><time>2026-04-26T14:10:29.079Z</time></trkpt><trkpt lat="37.861189" lon="15.1981205"><ele>122.0</ele><time>2026-04-26T14:10:30.095Z</time></trkpt><trkpt lat="37.8610653" lon="15.1981143"><ele>121.99999999999999</ele><time>2026-04-26T14:10:31.078Z</time></trkpt><trkpt lat="37.8609506" lon="15.1981078"><ele>121.99999999999999</ele><time>2026-04-26T14:10:32.062Z</time></trkpt><trkpt lat="37.8608447" lon="15.198118"><ele>122.0</ele><time>2026-04-26T14:10:33.093Z</time></trkpt><trkpt lat="37.8607514" lon="15.1981476"><ele>122.0</ele><time>2026-04-26T14:10:34.091Z</time></trkpt><trkpt lat="37.8606731" lon="15.1981989"><ele>121.39999999999999</ele><time>2026-04-26T14:10:35.067Z</time></trkpt><trkpt lat="37.8606012" lon="15.1982682"><ele>120.79999999999998</ele><time>2026-04-26T14:10:36.063Z</time></trkpt><trkpt lat="37.8605348" lon="15.1983527"><ele>120.2</ele><time>2026-04-26T14:10:37.044Z</time></trkpt><trkpt lat="37.8604694" lon="15.1984549"><ele>119.6</ele><time>2026-04-26T14:10:38.043Z</time></trkpt><trkpt lat="37.8604028" lon="15.1985749"><ele>119.0</ele><time>2026-04-26T14:10:39.045Z</time></trkpt><trkpt lat="37.8603283" lon="15.1987069"><ele>119.0</ele><time>2026-04-26T14:10:40.056Z</time></trkpt><trkpt lat="37.8602426" lon="15.1988434"><ele>119.0</ele><time>2026-04-26T14:10:41.053Z</time></trkpt><trkpt lat="37.860152" lon="15.1989845"><ele>119.0</ele><time>2026-04-26T14:10:42.052Z</time></trkpt><trkpt lat="37.8600633" lon="15.1991215"><ele>119.0</ele><time>2026-04-26T14:10:43.047Z</time></trkpt><trkpt lat="37.859977" lon="15.1992547"><ele>119.0</ele><time>2026-04-26T14:10:44.045Z</time></trkpt><trkpt lat="37.8598925" lon="15.1993837"><ele>119.0</ele><time>2026-04-26T14:10:45.058Z</time></trkpt><trkpt lat="37.8598083" lon="15.199509"><ele>119.0</ele><time>2026-04-26T14:10:46.052Z</time></trkpt><trkpt lat="37.8597236" lon="15.1996346"><ele>119.0</ele><time>2026-04-26T14:10:47.045Z</time></trkpt><trkpt lat="37.8596397" lon="15.199764"><ele>117.5</ele><time>2026-04-26T14:10:48.045Z</time></trkpt><trkpt lat="37.8595563" lon="15.1998971"><ele>116.0</ele><time>2026-04-26T14:10:49.046Z</time></trkpt><trkpt lat="37.8594753" lon="15.2000355"><ele>114.5</ele><time>2026-04-26T14:10:50.057Z</time></trkpt><trkpt lat="37.8594017" lon="15.2001798"><ele>113.0</ele><time>2026-04-26T14:10:51.055Z</time></trkpt><trkpt lat="37.8593339" lon="15.2003262"><ele>113.75</ele><time>2026-04-26T14:10:52.055Z</time></trkpt><trkpt lat="37.8592667" lon="15.2004718"><ele>114.5</ele><time>2026-04-26T14:10:53.045Z</time></trkpt><trkpt lat="37.8592027" lon="15.2006155"><ele>115.25</ele><time>2026-04-26T14:10:54.045Z</time></trkpt><trkpt lat="37.8591384" lon="15.2007576"><ele>116.0</ele><time>2026-04-26T14:10:55.046Z</time></trkpt><trkpt lat="37.8590738" lon="15.2008991"><ele>116.0</ele><time>2026-04-26T14:10:56.067Z</time></trkpt><trkpt lat="37.8590118" lon="15.2010383"><ele>116.0</ele><time>2026-04-26T14:10:57.045Z</time></trkpt><trkpt lat="37.8589501" lon="15.2011795"><ele>116.0</ele><time>2026-04-26T14:10:58.057Z</time></trkpt><trkpt lat="37.8588872" lon="15.2013162"><ele>116.0</ele><time>2026-04-26T14:10:59.047Z</time></trkpt><trkpt lat="37.8588245" lon="15.2014548"><ele>115.75</ele><time>2026-04-26T14:11:00.058Z</time></trkpt><trkpt lat="37.858764" lon="15.2015931"><ele>115.5</ele><time>2026-04-26T14:11:01.056Z</time></trkpt><trkpt lat="37.8587062" lon="15.2017306"><ele>115.25</ele><time>2026-04-26T14:11:02.057Z</time></trkpt><trkpt lat="37.8586486" lon="15.2018657"><ele>115.0</ele><time>2026-04-26T14:11:03.056Z</time></trkpt><trkpt lat="37.8585876" lon="15.201999"><ele>115.0</ele><time>2026-04-26T14:11:04.057Z</time></trkpt><trkpt lat="37.8585242" lon="15.2021304"><ele>115.0</ele><time>2026-04-26T14:11:05.056Z</time></trkpt><trkpt lat="37.8584544" lon="15.2022576"><ele>115.0</ele><time>2026-04-26T14:11:06.056Z</time></trkpt><trkpt lat="37.858376" lon="15.2023809"><ele>115.0</ele><time>2026-04-26T14:11:07.057Z</time></trkpt><trkpt lat="37.8582908" lon="15.2025048"><ele>116.25</ele><time>2026-04-26T14:11:08.055Z</time></trkpt><trkpt lat="37.8582032" lon="15.2026369"><ele>117.5</ele><time>2026-04-26T14:11:09.056Z</time></trkpt><trkpt lat="37.8581123" lon="15.2027777"><ele>118.75</ele><time>2026-04-26T14:11:10.054Z</time></trkpt><trkpt lat="37.8580183" lon="15.2029229"><ele>120.0</ele><time>2026-04-26T14:11:11.056Z</time></trkpt><trkpt lat="37.8579228" lon="15.2030704"><ele>116.33333333333334</ele><time>2026-04-26T14:11:12.056Z</time></trkpt><trkpt lat="37.8578266" lon="15.203218"><ele>112.66666666666667</ele><time>2026-04-26T14:11:13.053Z</time></trkpt><trkpt lat="37.8577299" lon="15.2033661"><ele>109.0</ele><time>2026-04-26T14:11:14.053Z</time></trkpt><trkpt lat="37.8576348" lon="15.203513"><ele>109.25</ele><time>2026-04-26T14:11:15.055Z</time></trkpt><trkpt lat="37.8575425" lon="15.2036551"><ele>109.5</ele><time>2026-04-26T14:11:16.052Z</time></trkpt><trkpt lat="37.8574525" lon="15.2037941"><ele>109.75</ele><time>2026-04-26T14:11:17.056Z</time></trkpt><trkpt lat="37.8573644" lon="15.2039276"><ele>110.0</ele><time>2026-04-26T14:11:18.082Z</time></trkpt><trkpt lat="37.857279" lon="15.2040582"><ele>110.0</ele><time>2026-04-26T14:11:19.057Z</time></trkpt><trkpt lat="37.8571916" lon="15.2041958"><ele>110.0</ele><time>2026-04-26T14:11:20.078Z</time></trkpt><trkpt lat="37.8571011" lon="15.2043328"><ele>110.0</ele><time>2026-04-26T14:11:21.087Z</time></trkpt><trkpt lat="37.8570074" lon="15.2044687"><ele>110.0</ele><time>2026-04-26T14:11:22.051Z</time></trkpt><trkpt lat="37.856907" lon="15.2046118"><ele>110.0</ele><time>2026-04-26T14:11:23.058Z</time></trkpt><trkpt lat="37.8568015" lon="15.2047548"><ele>110.0</ele><time>2026-04-26T14:11:24.056Z</time></trkpt><trkpt lat="37.8566911" lon="15.2048983"><ele>110.0</ele><time>2026-04-26T14:11:25.056Z</time></trkpt><trkpt lat="37.8565784" lon="15.2050401"><ele>109.75</ele><time>2026-04-26T14:11:26.059Z</time></trkpt><trkpt lat="37.8564693" lon="15.2051773"><ele>109.5</ele><time>2026-04-26T14:11:27.054Z</time></trkpt><trkpt lat="37.856366" lon="15.2053079"><ele>109.25</ele><time>2026-04-26T14:11:28.068Z</time></trkpt><trkpt lat="37.8562683" lon="15.2054307"><ele>109.0</ele><time>2026-04-26T14:11:29.056Z</time></trkpt><trkpt lat="37.8561732" lon="15.2055433"><ele>109.0</ele><time>2026-04-26T14:11:30.056Z</time></trkpt><trkpt lat="37.8560787" lon="15.2056414"><ele>109.0</ele><time>2026-04-26T14:11:31.043Z</time></trkpt><trkpt lat="37.8559803" lon="15.205722"><ele>109.0</ele><time>2026-04-26T14:11:32.057Z</time></trkpt><trkpt lat="37.8558783" lon="15.2057819"><ele>109.0</ele><time>2026-04-26T14:11:33.059Z</time></trkpt><trkpt lat="37.8557738" lon="15.2058232"><ele>109.0</ele><time>2026-04-26T14:11:34.056Z</time></trkpt><trkpt lat="37.8556629" lon="15.2058494"><ele>109.0</ele><time>2026-04-26T14:11:35.057Z</time></trkpt><trkpt lat="37.855547" lon="15.2058716"><ele>109.0</ele><time>2026-04-26T14:11:36.054Z</time></trkpt><trkpt lat="37.8554352" lon="15.2058965"><ele>109.0</ele><time>2026-04-26T14:11:37.055Z</time></trkpt><trkpt lat="37.8553262" lon="15.2059232"><ele>109.0</ele><time>2026-04-26T14:11:38.054Z</time></trkpt><trkpt lat="37.8552219" lon="15.2059534"><ele>109.0</ele><time>2026-04-26T14:11:39.057Z</time></trkpt><trkpt lat="37.8551195" lon="15.2059845"><ele>109.0</ele><time>2026-04-26T14:11:40.057Z</time></trkpt><trkpt lat="37.855017" lon="15.2060171"><ele>109.0</ele><time>2026-04-26T14:11:41.056Z</time></trkpt><trkpt lat="37.8549141" lon="15.2060497"><ele>109.0</ele><time>2026-04-26T14:11:42.056Z</time></trkpt><trkpt lat="37.8548123" lon="15.2060809"><ele>109.2</ele><time>2026-04-26T14:11:43.057Z</time></trkpt><trkpt lat="37.8547127" lon="15.2061173"><ele>109.4</ele><time>2026-04-26T14:11:44.056Z</time></trkpt><trkpt lat="37.854618" lon="15.2061636"><ele>109.6</ele><time>2026-04-26T14:11:45.058Z</time></trkpt><trkpt lat="37.8545299" lon="15.2062286"><ele>109.8</ele><time>2026-04-26T14:11:46.055Z</time></trkpt><trkpt lat="37.8544422" lon="15.2062958"><ele>110.0</ele><time>2026-04-26T14:11:47.056Z</time></trkpt><trkpt lat="37.8543543" lon="15.2063694"><ele>110.2</ele><time>2026-04-26T14:11:48.057Z</time></trkpt><trkpt lat="37.8542654" lon="15.2064432"><ele>110.4</ele><time>2026-04-26T14:11:49.055Z</time></trkpt><trkpt lat="37.854175" lon="15.206517"><ele>110.6</ele><time>2026-04-26T14:11:50.056Z</time></trkpt><trkpt lat="37.85408" lon="15.2065888"><ele>110.8</ele><time>2026-04-26T14:11:51.057Z</time></trkpt><trkpt lat="37.8539836" lon="15.2066581"><ele>111.0</ele><time>2026-04-26T14:11:52.056Z</time></trkpt><trkpt lat="37.853886" lon="15.2067232"><ele>109.75</ele><time>2026-04-26T14:11:53.055Z</time></trkpt><trkpt lat="37.853784" lon="15.2067886"><ele>108.5</ele><time>2026-04-26T14:11:54.052Z</time></trkpt><trkpt lat="37.853678" lon="15.2068578"><ele>107.25</ele><time>2026-04-26T14:11:55.057Z</time></trkpt><trkpt lat="37.8535666" lon="15.2069314"><ele>106.0</ele><time>2026-04-26T14:11:56.057Z</time></trkpt><trkpt lat="37.8534499" lon="15.2070092"><ele>106.0</ele><time>2026-04-26T14:11:57.053Z</time></trkpt><trkpt lat="37.8533265" lon="15.2070918"><ele>106.0</ele><time>2026-04-26T14:11:58.057Z</time></trkpt><trkpt lat="37.8531981" lon="15.2071787"><ele>106.0</ele><time>2026-04-26T14:11:59.055Z</time></trkpt><trkpt lat="37.8530699" lon="15.2072647"><ele>106.0</ele><time>2026-04-26T14:12:00.057Z</time></trkpt><trkpt lat="37.8529463" lon="15.207347"><ele>105.25</ele><time>2026-04-26T14:12:01.056Z</time></trkpt><trkpt lat="37.852827" lon="15.2074254"><ele>104.5</ele><time>2026-04-26T14:12:02.052Z</time></trkpt><trkpt lat="37.8527136" lon="15.207501"><ele>103.75</ele><time>2026-04-26T14:12:03.083Z</time></trkpt><trkpt lat="37.8526084" lon="15.2075719"><ele>103.0</ele><time>2026-04-26T14:12:04.048Z</time></trkpt><trkpt lat="37.8525028" lon="15.2076386"><ele>103.0</ele><time>2026-04-26T14:12:05.057Z</time></trkpt><trkpt lat="37.8524016" lon="15.2077065"><ele>103.0</ele><time>2026-04-26T14:12:06.056Z</time></trkpt><trkpt lat="37.8523063" lon="15.20778"><ele>103.0</ele><time>2026-04-26T14:12:07.055Z</time></trkpt><trkpt lat="37.852217" lon="15.2078619"><ele>103.0</ele><time>2026-04-26T14:12:08.057Z</time></trkpt><trkpt lat="37.8521332" lon="15.2079517"><ele>103.0</ele><time>2026-04-26T14:12:09.051Z</time></trkpt><trkpt lat="37.8520558" lon="15.2080486"><ele>103.0</ele><time>2026-04-26T14:12:10.051Z</time></trkpt><trkpt lat="37.8519883" lon="15.2081551"><ele>103.0</ele><time>2026-04-26T14:12:11.058Z</time></trkpt><trkpt lat="37.851928" lon="15.2082631"><ele>103.0</ele><time>2026-04-26T14:12:12.057Z</time></trkpt><trkpt lat="37.8518761" lon="15.2083718"><ele>103.0</ele><time>2026-04-26T14:12:13.057Z</time></trkpt><trkpt lat="37.8518291" lon="15.2084854"><ele>103.0</ele><time>2026-04-26T14:12:14.058Z</time></trkpt><trkpt lat="37.8517826" lon="15.2086053"><ele>102.75</ele><time>2026-04-26T14:12:15.082Z</time></trkpt><trkpt lat="37.8517372" lon="15.2087356"><ele>102.5</ele><time>2026-04-26T14:12:16.066Z</time></trkpt><trkpt lat="37.8516898" lon="15.2088722"><ele>102.25</ele><time>2026-04-26T14:12:17.063Z</time></trkpt><trkpt lat="37.8516351" lon="15.2090083"><ele>102.0</ele><time>2026-04-26T14:12:18.081Z</time></trkpt><trkpt lat="37.8515736" lon="15.2091429"><ele>101.5</ele><time>2026-04-26T14:12:19.073Z</time></trkpt><trkpt lat="37.8515052" lon="15.2092766"><ele>101.0</ele><time>2026-04-26T14:12:20.068Z</time></trkpt><trkpt lat="37.8514292" lon="15.2094051"><ele>100.5</ele><time>2026-04-26T14:12:21.064Z</time></trkpt><trkpt lat="37.8513501" lon="15.2095293"><ele>100.0</ele><time>2026-04-26T14:12:22.056Z</time></trkpt><trkpt lat="37.8512669" lon="15.2096478"><ele>100.0</ele><time>2026-04-26T14:12:23.058Z</time></trkpt><trkpt lat="37.851184" lon="15.2097641"><ele>100.0</ele><time>2026-04-26T14:12:24.055Z</time></trkpt><trkpt lat="37.8511035" lon="15.2098838"><ele>100.0</ele><time>2026-04-26T14:12:25.077Z</time></trkpt><trkpt lat="37.8510239" lon="15.2100041"><ele>100.0</ele><time>2026-04-26T14:12:26.064Z</time></trkpt><trkpt lat="37.8509425" lon="15.2101309"><ele>100.5</ele><time>2026-04-26T14:12:27.077Z</time></trkpt><trkpt lat="37.8508621" lon="15.2102582"><ele>101.0</ele><time>2026-04-26T14:12:28.066Z</time></trkpt><trkpt lat="37.8507831" lon="15.2103786"><ele>101.5</ele><time>2026-04-26T14:12:29.071Z</time></trkpt><trkpt lat="37.8507044" lon="15.2104973"><ele>102.0</ele><time>2026-04-26T14:12:30.068Z</time></trkpt><trkpt lat="37.8506252" lon="15.2106149"><ele>101.25</ele><time>2026-04-26T14:12:31.071Z</time></trkpt><trkpt lat="37.8505435" lon="15.210733"><ele>100.5</ele><time>2026-04-26T14:12:32.093Z</time></trkpt><trkpt lat="37.8504644" lon="15.210848"><ele>99.75</ele><time>2026-04-26T14:12:33.073Z</time></trkpt><trkpt lat="37.8503821" lon="15.2109639"><ele>99.0</ele><time>2026-04-26T14:12:34.069Z</time></trkpt><trkpt lat="37.8502994" lon="15.2110813"><ele>99.0</ele><time>2026-04-26T14:12:35.087Z</time></trkpt><trkpt lat="37.8502206" lon="15.2111989"><ele>99.0</ele><time>2026-04-26T14:12:36.082Z</time></trkpt><trkpt lat="37.8501463" lon="15.2113184"><ele>99.0</ele><time>2026-04-26T14:12:37.083Z</time></trkpt><trkpt lat="37.8500811" lon="15.2114376"><ele>99.0</ele><time>2026-04-26T14:12:38.053Z</time></trkpt><trkpt lat="37.8500233" lon="15.2115584"><ele>99.0</ele><time>2026-04-26T14:12:39.081Z</time></trkpt><trkpt lat="37.8499731" lon="15.2116779"><ele>99.0</ele><time>2026-04-26T14:12:40.101Z</time></trkpt><trkpt lat="37.8499311" lon="15.2117982"><ele>99.0</ele><time>2026-04-26T14:12:41.085Z</time></trkpt><trkpt lat="37.8498923" lon="15.2119256"><ele>99.0</ele><time>2026-04-26T14:12:42.096Z</time></trkpt><trkpt lat="37.84985" lon="15.2120514"><ele>99.0</ele><time>2026-04-26T14:12:43.082Z</time></trkpt><trkpt lat="37.8497974" lon="15.2121763"><ele>99.0</ele><time>2026-04-26T14:12:44.08Z</time></trkpt><trkpt lat="37.849732" lon="15.2122966"><ele>99.0</ele><time>2026-04-26T14:12:45.089Z</time></trkpt><trkpt lat="37.8496551" lon="15.2124088"><ele>99.0</ele><time>2026-04-26T14:12:46.08Z</time></trkpt><trkpt lat="37.8495681" lon="15.2125199"><ele>99.0</ele><time>2026-04-26T14:12:47.081Z</time></trkpt><trkpt lat="37.8494776" lon="15.2126275"><ele>99.2</ele><time>2026-04-26T14:12:48.077Z</time></trkpt><trkpt lat="37.8493909" lon="15.2127289"><ele>99.4</ele><time>2026-04-26T14:12:49.096Z</time></trkpt><trkpt lat="37.8493102" lon="15.2128262"><ele>99.6</ele><time>2026-04-26T14:12:50.063Z</time></trkpt><trkpt lat="37.8492325" lon="15.212926"><ele>99.8</ele><time>2026-04-26T14:12:51.092Z</time></trkpt><trkpt lat="37.8491653" lon="15.2130196"><ele>100.0</ele><time>2026-04-26T14:12:52.081Z</time></trkpt><trkpt lat="37.8491021" lon="15.213106"><ele>99.6</ele><time>2026-04-26T14:12:53.082Z</time></trkpt><trkpt lat="37.849039" lon="15.2131851"><ele>99.2</ele><time>2026-04-26T14:12:54.081Z</time></trkpt><trkpt lat="37.8489755" lon="15.213262"><ele>98.80000000000001</ele><time>2026-04-26T14:12:55.074Z</time></trkpt><trkpt lat="37.8489109" lon="15.2133432"><ele>98.4</ele><time>2026-04-26T14:12:56.075Z</time></trkpt><trkpt lat="37.8488455" lon="15.2134276"><ele>98.0</ele><time>2026-04-26T14:12:57.06Z</time></trkpt><trkpt lat="37.8487742" lon="15.2135128"><ele>98.0</ele><time>2026-04-26T14:12:58.065Z</time></trkpt><trkpt lat="37.8487014" lon="15.2136036"><ele>98.0</ele><time>2026-04-26T14:12:59.065Z</time></trkpt><trkpt lat="37.8486263" lon="15.2137011"><ele>98.0</ele><time>2026-04-26T14:13:00.068Z</time></trkpt><trkpt lat="37.8485449" lon="15.2138002"><ele>98.0</ele><time>2026-04-26T14:13:01.093Z</time></trkpt><trkpt lat="37.8484654" lon="15.2139077"><ele>98.0</ele><time>2026-04-26T14:13:02.074Z</time></trkpt><trkpt lat="37.8483808" lon="15.214024"><ele>99.0</ele><time>2026-04-26T14:13:03.073Z</time></trkpt><trkpt lat="37.8482884" lon="15.2141461"><ele>100.0</ele><time>2026-04-26T14:13:04.079Z</time></trkpt><trkpt lat="37.8481923" lon="15.2142673"><ele>101.0</ele><time>2026-04-26T14:13:05.089Z</time></trkpt><trkpt lat="37.8480979" lon="15.2143848"><ele>102.0</ele><time>2026-04-26T14:13:06.068Z</time></trkpt><trkpt lat="37.8480051" lon="15.2145053"><ele>102.0</ele><time>2026-04-26T14:13:07.067Z</time></trkpt><trkpt lat="37.8479117" lon="15.2146252"><ele>102.0</ele><time>2026-04-26T14:13:08.095Z</time></trkpt><trkpt lat="37.8478167" lon="15.2147361"><ele>102.0</ele><time>2026-04-26T14:13:09.079Z</time></trkpt><trkpt lat="37.8477159" lon="15.2148408"><ele>102.0</ele><time>2026-04-26T14:13:10.096Z</time></trkpt><trkpt lat="37.8476164" lon="15.2149369"><ele>101.0</ele><time>2026-04-26T14:13:11.098Z</time></trkpt><trkpt lat="37.8475223" lon="15.215026"><ele>100.0</ele><time>2026-04-26T14:13:12.065Z</time></trkpt><trkpt lat="37.8474302" lon="15.2151106"><ele>99.0</ele><time>2026-04-26T14:13:13.085Z</time></trkpt><trkpt lat="37.8473422" lon="15.215183"><ele>98.0</ele><time>2026-04-26T14:13:14.082Z</time></trkpt><trkpt lat="37.8472572" lon="15.2152435"><ele>97.0</ele><time>2026-04-26T14:13:15.105Z</time></trkpt><trkpt lat="37.8471741" lon="15.2152807"><ele>97.0</ele><time>2026-04-26T14:13:16.078Z</time></trkpt><trkpt lat="37.8470895" lon="15.2152956"><ele>97.0</ele><time>2026-04-26T14:13:17.099Z</time></trkpt><trkpt lat="37.8470092" lon="15.2152917"><ele>97.0</ele><time>2026-04-26T14:13:18.096Z</time></trkpt><trkpt lat="37.8469278" lon="15.2152713"><ele>97.0</ele><time>2026-04-26T14:13:19.08Z</time></trkpt><trkpt lat="37.8468364" lon="15.2152296"><ele>97.0</ele><time>2026-04-26T14:13:20.079Z</time></trkpt><trkpt lat="37.8467396" lon="15.2151734"><ele>96.0</ele><time>2026-04-26T14:13:21.082Z</time></trkpt><trkpt lat="37.8466366" lon="15.2151076"><ele>95.0</ele><time>2026-04-26T14:13:22.08Z</time></trkpt><trkpt lat="37.8465274" lon="15.2150344"><ele>94.0</ele><time>2026-04-26T14:13:23.08Z</time></trkpt><trkpt lat="37.8464047" lon="15.2149618"><ele>93.0</ele><time>2026-04-26T14:13:24.097Z</time></trkpt><trkpt lat="37.8462815" lon="15.2148948"><ele>93.0</ele><time>2026-04-26T14:13:25.079Z</time></trkpt><trkpt lat="37.8461631" lon="15.214831"><ele>93.0</ele><time>2026-04-26T14:13:26.081Z</time></trkpt><trkpt lat="37.8460525" lon="15.2147692"><ele>93.0</ele><time>2026-04-26T14:13:27.077Z</time></trkpt><trkpt lat="37.8459466" lon="15.2147079"><ele>93.0</ele><time>2026-04-26T14:13:28.08Z</time></trkpt><trkpt lat="37.8458465" lon="15.2146538"><ele>93.60000000000001</ele><time>2026-04-26T14:13:29.08Z</time></trkpt><trkpt lat="37.8457454" lon="15.2146104"><ele>94.2</ele><time>2026-04-26T14:13:30.08Z</time></trkpt><trkpt lat="37.8456438" lon="15.2145778"><ele>94.8</ele><time>2026-04-26T14:13:31.071Z</time></trkpt><trkpt lat="37.8455433" lon="15.2145524"><ele>95.4</ele><time>2026-04-26T14:13:32.081Z</time></trkpt><trkpt lat="37.8454417" lon="15.2145397"><ele>96.0</ele><time>2026-04-26T14:13:33.071Z</time></trkpt><trkpt lat="37.8453355" lon="15.2145371"><ele>96.0</ele><time>2026-04-26T14:13:34.064Z</time></trkpt><trkpt lat="37.8452247" lon="15.2145405"><ele>96.0</ele><time>2026-04-26T14:13:35.046Z</time></trkpt><trkpt lat="37.8451073" lon="15.2145489"><ele>96.0</ele><time>2026-04-26T14:13:36.073Z</time></trkpt><trkpt lat="37.8449885" lon="15.2145586"><ele>96.0</ele><time>2026-04-26T14:13:37.071Z</time></trkpt><trkpt lat="37.844869" lon="15.2145674"><ele>95.75</ele><time>2026-04-26T14:13:38.07Z</time></trkpt><trkpt lat="37.8447454" lon="15.2145725"><ele>95.5</ele><time>2026-04-26T14:13:39.071Z</time></trkpt><trkpt lat="37.8446179" lon="15.2145779"><ele>95.25</ele><time>2026-04-26T14:13:40.087Z</time></trkpt><trkpt lat="37.8444926" lon="15.2145862"><ele>95.0</ele><time>2026-04-26T14:13:41.069Z</time></trkpt><trkpt lat="37.8443721" lon="15.2145965"><ele>95.0</ele><time>2026-04-26T14:13:42.067Z</time></trkpt><trkpt lat="37.8442578" lon="15.2146061"><ele>95.0</ele><time>2026-04-26T14:13:43.096Z</time></trkpt><trkpt lat="37.8441489" lon="15.2146142"><ele>95.0</ele><time>2026-04-26T14:13:44.081Z</time></trkpt><trkpt lat="37.8440409" lon="15.2146212"><ele>95.0</ele><time>2026-04-26T14:13:45.101Z</time></trkpt><trkpt lat="37.8439291" lon="15.2146262"><ele>95.0</ele><time>2026-04-26T14:13:46.089Z</time></trkpt><trkpt lat="37.8438106" lon="15.2146284"><ele>95.0</ele><time>2026-04-26T14:13:47.067Z</time></trkpt><trkpt lat="37.8436892" lon="15.2146319"><ele>95.0</ele><time>2026-04-26T14:13:48.083Z</time></trkpt><trkpt lat="37.8435762" lon="15.214639"><ele>95.0</ele><time>2026-04-26T14:13:49.098Z</time></trkpt><trkpt lat="37.8434684" lon="15.214652"><ele>95.0</ele><time>2026-04-26T14:13:50.065Z</time></trkpt><trkpt lat="37.8433627" lon="15.2146778"><ele>96.0</ele><time>2026-04-26T14:13:51.107Z</time></trkpt><trkpt lat="37.8432654" lon="15.2147184"><ele>97.0</ele><time>2026-04-26T14:13:52.08Z</time></trkpt><trkpt lat="37.84317" lon="15.2147749"><ele>98.0</ele><time>2026-04-26T14:13:53.067Z</time></trkpt><trkpt lat="37.8430764" lon="15.2148449"><ele>99.0</ele><time>2026-04-26T14:13:54.08Z</time></trkpt><trkpt lat="37.842987" lon="15.2149245"><ele>100.0</ele><time>2026-04-26T14:13:55.046Z</time></trkpt><trkpt lat="37.8428958" lon="15.2150148"><ele>97.5</ele><time>2026-04-26T14:13:56.062Z</time></trkpt><trkpt lat="37.8428058" lon="15.2151121"><ele>95.0</ele><time>2026-04-26T14:13:57.096Z</time></trkpt><trkpt lat="37.8427179" lon="15.2152078"><ele>92.5</ele><time>2026-04-26T14:13:58.077Z</time></trkpt><trkpt lat="37.8426288" lon="15.2153012"><ele>90.0</ele><time>2026-04-26T14:13:59.093Z</time></trkpt><trkpt lat="37.8425393" lon="15.2153929"><ele>90.0</ele><time>2026-04-26T14:14:00.08Z</time></trkpt><trkpt lat="37.8424546" lon="15.21549"><ele>90.0</ele><time>2026-04-26T14:14:01.076Z</time></trkpt><trkpt lat="37.8423852" lon="15.2155903"><ele>90.0</ele><time>2026-04-26T14:14:02.076Z</time></trkpt><trkpt lat="37.8423343" lon="15.2156939"><ele>90.0</ele><time>2026-04-26T14:14:03.07Z</time></trkpt><trkpt lat="37.8422974" lon="15.2158084"><ele>90.0</ele><time>2026-04-26T14:14:04.056Z</time></trkpt><trkpt lat="37.8422686" lon="15.215928"><ele>89.2</ele><time>2026-04-26T14:14:05.054Z</time></trkpt><trkpt lat="37.8422422" lon="15.2160542"><ele>88.4</ele><time>2026-04-26T14:14:06.051Z</time></trkpt><trkpt lat="37.8422131" lon="15.216185"><ele>87.6</ele><time>2026-04-26T14:14:07.046Z</time></trkpt><trkpt lat="37.8421823" lon="15.2163167"><ele>86.8</ele><time>2026-04-26T14:14:08.047Z</time></trkpt><trkpt lat="37.8421504" lon="15.2164449"><ele>86.0</ele><time>2026-04-26T14:14:09.044Z</time></trkpt><trkpt lat="37.8421161" lon="15.216572"><ele>85.4</ele><time>2026-04-26T14:14:10.045Z</time></trkpt><trkpt lat="37.8420771" lon="15.2166934"><ele>84.8</ele><time>2026-04-26T14:14:11.046Z</time></trkpt><trkpt lat="37.8420289" lon="15.2168108"><ele>84.2</ele><time>2026-04-26T14:14:12.044Z</time></trkpt><trkpt lat="37.841968" lon="15.216919"><ele>83.60000000000001</ele><time>2026-04-26T14:14:13.043Z</time></trkpt><trkpt lat="37.8418926" lon="15.2170158"><ele>83.0</ele><time>2026-04-26T14:14:14.045Z</time></trkpt><trkpt lat="37.8418107" lon="15.2171084"><ele>84.75</ele><time>2026-04-26T14:14:15.065Z</time></trkpt><trkpt lat="37.8417307" lon="15.2172084"><ele>86.5</ele><time>2026-04-26T14:14:16.052Z</time></trkpt><trkpt lat="37.8416461" lon="15.2173155"><ele>88.25</ele><time>2026-04-26T14:14:17.065Z</time></trkpt><trkpt lat="37.8415626" lon="15.2174274"><ele>90.0</ele><time>2026-04-26T14:14:18.044Z</time></trkpt><trkpt lat="37.8414789" lon="15.2175451"><ele>90.0</ele><time>2026-04-26T14:14:19.048Z</time></trkpt><trkpt lat="37.8414007" lon="15.2176576"><ele>90.0</ele><time>2026-04-26T14:14:20.045Z</time></trkpt><trkpt lat="37.8413234" lon="15.2177673"><ele>90.0</ele><time>2026-04-26T14:14:21.047Z</time></trkpt><trkpt lat="37.8412468" lon="15.2178781"><ele>90.0</ele><time>2026-04-26T14:14:22.044Z</time></trkpt><trkpt lat="37.8411684" lon="15.2179964"><ele>90.0</ele><time>2026-04-26T14:14:23.045Z</time></trkpt><trkpt lat="37.84109" lon="15.2181254"><ele>90.0</ele><time>2026-04-26T14:14:24.08Z</time></trkpt><trkpt lat="37.8410107" lon="15.2182542"><ele>90.0</ele><time>2026-04-26T14:14:25.045Z</time></trkpt><trkpt lat="37.8409218" lon="15.2183858"><ele>90.0</ele><time>2026-04-26T14:14:26.044Z</time></trkpt><trkpt lat="37.840828" lon="15.2185158"><ele>88.75</ele><time>2026-04-26T14:14:27.046Z</time></trkpt><trkpt lat="37.8407306" lon="15.218642"><ele>87.5</ele><time>2026-04-26T14:14:28.045Z</time></trkpt><trkpt lat="37.8406289" lon="15.2187671"><ele>86.25</ele><time>2026-04-26T14:14:29.045Z</time></trkpt><trkpt lat="37.8405263" lon="15.2188937"><ele>85.0</ele><time>2026-04-26T14:14:30.043Z</time></trkpt><trkpt lat="37.8404236" lon="15.2190191"><ele>85.0</ele><time>2026-04-26T14:14:31.045Z</time></trkpt><trkpt lat="37.840319" lon="15.219139"><ele>85.0</ele><time>2026-04-26T14:14:32.08Z</time></trkpt><trkpt lat="37.8402185" lon="15.2192527"><ele>85.0</ele><time>2026-04-26T14:14:33.045Z</time></trkpt><trkpt lat="37.8401171" lon="15.2193696"><ele>85.0</ele><time>2026-04-26T14:14:34.078Z</time></trkpt><trkpt lat="37.8400241" lon="15.2194823"><ele>84.25</ele><time>2026-04-26T14:14:35.045Z</time></trkpt><trkpt lat="37.8399313" lon="15.2195953"><ele>83.5</ele><time>2026-04-26T14:14:36.06Z</time></trkpt><trkpt lat="37.8398392" lon="15.2197021"><ele>82.75</ele><time>2026-04-26T14:14:37.05Z</time></trkpt><trkpt lat="37.8397515" lon="15.2198122"><ele>82.0</ele><time>2026-04-26T14:14:38.048Z</time></trkpt><trkpt lat="37.8396735" lon="15.2199318"><ele>82.0</ele><time>2026-04-26T14:14:39.044Z</time></trkpt><trkpt lat="37.8396007" lon="15.2200632"><ele>82.0</ele><time>2026-04-26T14:14:40.065Z</time></trkpt><trkpt lat="37.8395361" lon="15.2202038"><ele>82.0</ele><time>2026-04-26T14:14:41.056Z</time></trkpt><trkpt lat="37.8394719" lon="15.22035"><ele>82.0</ele><time>2026-04-26T14:14:42.056Z</time></trkpt><trkpt lat="37.8394036" lon="15.2204979"><ele>82.0</ele><time>2026-04-26T14:14:43.056Z</time></trkpt><trkpt lat="37.839332" lon="15.2206419"><ele>82.0</ele><time>2026-04-26T14:14:44.047Z</time></trkpt><trkpt lat="37.8392588" lon="15.2207811"><ele>82.0</ele><time>2026-04-26T14:14:45.056Z</time></trkpt><trkpt lat="37.8391914" lon="15.2209173"><ele>82.0</ele><time>2026-04-26T14:14:46.056Z</time></trkpt><trkpt lat="37.8391283" lon="15.2210501"><ele>81.19999999999999</ele><time>2026-04-26T14:14:47.054Z</time></trkpt><trkpt lat="37.8390672" lon="15.2211785"><ele>80.39999999999999</ele><time>2026-04-26T14:14:48.055Z</time></trkpt><trkpt lat="37.8390047" lon="15.2212982"><ele>79.6</ele><time>2026-04-26T14:14:49.046Z</time></trkpt><trkpt lat="37.8389382" lon="15.2214099"><ele>78.8</ele><time>2026-04-26T14:14:50.045Z</time></trkpt><trkpt lat="37.8388669" lon="15.2215113"><ele>78.0</ele><time>2026-04-26T14:14:51.068Z</time></trkpt><trkpt lat="37.8387986" lon="15.2216086"><ele>77.6</ele><time>2026-04-26T14:14:52.059Z</time></trkpt><trkpt lat="37.8387323" lon="15.2217114"><ele>77.19999999999999</ele><time>2026-04-26T14:14:53.083Z</time></trkpt><trkpt lat="37.8386688" lon="15.2218178"><ele>76.8</ele><time>2026-04-26T14:14:54.053Z</time></trkpt><trkpt lat="37.8386082" lon="15.2219402"><ele>76.39999999999999</ele><time>2026-04-26T14:14:55.053Z</time></trkpt><trkpt lat="37.8385505" lon="15.2220718"><ele>76.0</ele><time>2026-04-26T14:14:56.046Z</time></trkpt><trkpt lat="37.8384763" lon="15.2222012"><ele>75.5</ele><time>2026-04-26T14:14:57.056Z</time></trkpt><trkpt lat="37.8383938" lon="15.2223336"><ele>75.0</ele><time>2026-04-26T14:14:58.056Z</time></trkpt><trkpt lat="37.838308" lon="15.2224608"><ele>74.5</ele><time>2026-04-26T14:14:59.045Z</time></trkpt><trkpt lat="37.8382219" lon="15.2225808"><ele>74.0</ele><time>2026-04-26T14:15:00.091Z</time></trkpt><trkpt lat="37.8381442" lon="15.2226871"><ele>74.0</ele><time>2026-04-26T14:15:01.05Z</time></trkpt><trkpt lat="37.8380668" lon="15.2227934"><ele>74.0</ele><time>2026-04-26T14:15:02.067Z</time></trkpt><trkpt lat="37.8379824" lon="15.2228825"><ele>74.0</ele><time>2026-04-26T14:15:03.047Z</time></trkpt><trkpt lat="37.8378897" lon="15.2229594"><ele>74.0</ele><time>2026-04-26T14:15:04.094Z</time></trkpt><trkpt lat="37.8377937" lon="15.2230151"><ele>74.0</ele><time>2026-04-26T14:15:05.08Z</time></trkpt><trkpt lat="37.8376974" lon="15.2230649"><ele>73.8</ele><time>2026-04-26T14:15:06.082Z</time></trkpt><trkpt lat="37.8376031" lon="15.223115"><ele>73.60000000000001</ele><time>2026-04-26T14:15:07.081Z</time></trkpt><trkpt lat="37.8375076" lon="15.2231671"><ele>73.4</ele><time>2026-04-26T14:15:08.088Z</time></trkpt><trkpt lat="37.8374142" lon="15.2232165"><ele>73.2</ele><time>2026-04-26T14:15:09.065Z</time></trkpt><trkpt lat="37.8373317" lon="15.2232733"><ele>73.0</ele><time>2026-04-26T14:15:10.067Z</time></trkpt><trkpt lat="37.8372621" lon="15.223342"><ele>73.0</ele><time>2026-04-26T14:15:11.078Z</time></trkpt><trkpt lat="37.8372053" lon="15.2234259"><ele>73.0</ele><time>2026-04-26T14:15:12.078Z</time></trkpt><trkpt lat="37.8371592" lon="15.2235258"><ele>73.0</ele><time>2026-04-26T14:15:13.061Z</time></trkpt><trkpt lat="37.837128" lon="15.2236447"><ele>73.0</ele><time>2026-04-26T14:15:14.068Z</time></trkpt><trkpt lat="37.8370985" lon="15.2237721"><ele>73.0</ele><time>2026-04-26T14:15:15.059Z</time></trkpt><trkpt lat="37.8370602" lon="15.2239116"><ele>71.75</ele><time>2026-04-26T14:15:16.056Z</time></trkpt><trkpt lat="37.8370189" lon="15.2240599"><ele>70.5</ele><time>2026-04-26T14:15:17.058Z</time></trkpt><trkpt lat="37.8369788" lon="15.2242091"><ele>69.25</ele><time>2026-04-26T14:15:18.081Z</time></trkpt><trkpt lat="37.8369336" lon="15.224348"><ele>68.0</ele><time>2026-04-26T14:15:19.057Z</time></trkpt><trkpt lat="37.8368795" lon="15.2244815"><ele>68.0</ele><time>2026-04-26T14:15:20.069Z</time></trkpt><trkpt lat="37.8368166" lon="15.2246065"><ele>68.0</ele><time>2026-04-26T14:15:21.072Z</time></trkpt><trkpt lat="37.8367474" lon="15.2247193"><ele>68.0</ele><time>2026-04-26T14:15:22.066Z</time></trkpt><trkpt lat="37.8366843" lon="15.2248301"><ele>68.0</ele><time>2026-04-26T14:15:23.065Z</time></trkpt><trkpt lat="37.8366245" lon="15.2249389"><ele>68.0</ele><time>2026-04-26T14:15:24.072Z</time></trkpt><trkpt lat="37.8365631" lon="15.2250371"><ele>67.66666666666667</ele><time>2026-04-26T14:15:25.063Z</time></trkpt><trkpt lat="37.8365059" lon="15.2251352"><ele>67.33333333333334</ele><time>2026-04-26T14:15:26.079Z</time></trkpt><trkpt lat="37.8364593" lon="15.2252347"><ele>67.0</ele><time>2026-04-26T14:15:27.067Z</time></trkpt><trkpt lat="37.8364223" lon="15.2253351"><ele>66.66666666666667</ele><time>2026-04-26T14:15:28.08Z</time></trkpt><trkpt lat="37.8363881" lon="15.2254296"><ele>66.33333333333333</ele><time>2026-04-26T14:15:29.054Z</time></trkpt><trkpt lat="37.8363423" lon="15.2255086"><ele>66.0</ele><time>2026-04-26T14:15:30.069Z</time></trkpt><trkpt lat="37.8362926" lon="15.2255662"><ele>66.0</ele><time>2026-04-26T14:15:31.078Z</time></trkpt><trkpt lat="37.8361799" lon="15.2255991"><ele>66.0</ele><time>2026-04-26T14:15:33.047Z</time></trkpt><trkpt lat="37.8361165" lon="15.2255861"><ele>66.0</ele><time>2026-04-26T14:15:34.047Z</time></trkpt><trkpt lat="37.8360529" lon="15.225556"><ele>66.0</ele><time>2026-04-26T14:15:35.054Z</time></trkpt><trkpt lat="37.8359819" lon="15.225519"><ele>66.0</ele><time>2026-04-26T14:15:36.054Z</time></trkpt><trkpt lat="37.8359046" lon="15.2254801"><ele>66.0</ele><time>2026-04-26T14:15:37.047Z</time></trkpt><trkpt lat="37.8358237" lon="15.2254431"><ele>66.2</ele><time>2026-04-26T14:15:38.053Z</time></trkpt><trkpt lat="37.8357372" lon="15.2254231"><ele>66.39999999999999</ele><time>2026-04-26T14:15:39.045Z</time></trkpt><trkpt lat="37.835644" lon="15.2254218"><ele>66.6</ele><time>2026-04-26T14:15:40.057Z</time></trkpt><trkpt lat="37.8355422" lon="15.22543"><ele>66.8</ele><time>2026-04-26T14:15:41.057Z</time></trkpt><trkpt lat="37.8354331" lon="15.225425"><ele>67.0</ele><time>2026-04-26T14:15:42.056Z</time></trkpt><trkpt lat="37.835317" lon="15.225411"><ele>67.0</ele><time>2026-04-26T14:15:43.048Z</time></trkpt><trkpt lat="37.835196" lon="15.2254059"><ele>67.0</ele><time>2026-04-26T14:15:44.156Z</time></trkpt><trkpt lat="37.8350834" lon="15.2253994"><ele>67.0</ele><time>2026-04-26T14:15:45.115Z</time></trkpt><trkpt lat="37.8349665" lon="15.2253871"><ele>67.0</ele><time>2026-04-26T14:15:46.083Z</time></trkpt><trkpt lat="37.8348446" lon="15.2253703"><ele>66.6</ele><time>2026-04-26T14:15:47.066Z</time></trkpt><trkpt lat="37.8347252" lon="15.2253519"><ele>66.2</ele><time>2026-04-26T14:15:48.07Z</time></trkpt><trkpt lat="37.8346153" lon="15.225333"><ele>65.8</ele><time>2026-04-26T14:15:49.072Z</time></trkpt><trkpt lat="37.8345096" lon="15.2253109"><ele>65.4</ele><time>2026-04-26T14:15:50.08Z</time></trkpt><trkpt lat="37.8344083" lon="15.2252897"><ele>65.0</ele><time>2026-04-26T14:15:51.066Z</time></trkpt><trkpt lat="37.8343149" lon="15.2252595"><ele>65.16666666666667</ele><time>2026-04-26T14:15:52.095Z</time></trkpt><trkpt lat="37.8342276" lon="15.2252291"><ele>65.33333333333334</ele><time>2026-04-26T14:15:53.09Z</time></trkpt><trkpt lat="37.834142" lon="15.2252039"><ele>65.5</ele><time>2026-04-26T14:15:54.078Z</time></trkpt><trkpt lat="37.8340573" lon="15.2251906"><ele>65.66666666666667</ele><time>2026-04-26T14:15:55.065Z</time></trkpt><trkpt lat="37.83397" lon="15.2251839"><ele>65.83333333333333</ele><time>2026-04-26T14:15:56.066Z</time></trkpt><trkpt lat="37.8338789" lon="15.2251765"><ele>66.0</ele><time>2026-04-26T14:15:57.067Z</time></trkpt><trkpt lat="37.8337835" lon="15.2251645"><ele>66.0</ele><time>2026-04-26T14:15:58.08Z</time></trkpt><trkpt lat="37.8336861" lon="15.2251489"><ele>66.0</ele><time>2026-04-26T14:15:59.076Z</time></trkpt><trkpt lat="37.8335827" lon="15.2251347"><ele>66.0</ele><time>2026-04-26T14:16:00.074Z</time></trkpt><trkpt lat="37.8334757" lon="15.2251195"><ele>66.0</ele><time>2026-04-26T14:16:01.044Z</time></trkpt><trkpt lat="37.8333552" lon="15.2251148"><ele>66.0</ele><time>2026-04-26T14:16:02.065Z</time></trkpt><trkpt lat="37.8332167" lon="15.2251176"><ele>66.25</ele><time>2026-04-26T14:16:03.045Z</time></trkpt><trkpt lat="37.8330622" lon="15.2251278"><ele>66.5</ele><time>2026-04-26T14:16:04.083Z</time></trkpt><trkpt lat="37.8329196" lon="15.2251442"><ele>66.75</ele><time>2026-04-26T14:16:05.081Z</time></trkpt><trkpt lat="37.8327855" lon="15.2251601"><ele>67.0</ele><time>2026-04-26T14:16:06.081Z</time></trkpt><trkpt lat="37.8326572" lon="15.225176"><ele>67.75</ele><time>2026-04-26T14:16:07.094Z</time></trkpt><trkpt lat="37.8325354" lon="15.2251879"><ele>68.5</ele><time>2026-04-26T14:16:08.083Z</time></trkpt><trkpt lat="37.8324188" lon="15.2251931"><ele>69.25</ele><time>2026-04-26T14:16:09.065Z</time></trkpt><trkpt lat="37.8323078" lon="15.2251965"><ele>70.0</ele><time>2026-04-26T14:16:10.08Z</time></trkpt><trkpt lat="37.8322059" lon="15.2251952"><ele>70.0</ele><time>2026-04-26T14:16:11.063Z</time></trkpt><trkpt lat="37.8321087" lon="15.2251952"><ele>70.0</ele><time>2026-04-26T14:16:12.062Z</time></trkpt><trkpt lat="37.8320192" lon="15.2252018"><ele>70.0</ele><time>2026-04-26T14:16:13.094Z</time></trkpt><trkpt lat="37.8319421" lon="15.2252217"><ele>70.0</ele><time>2026-04-26T14:16:14.097Z</time></trkpt><trkpt lat="37.8318756" lon="15.2252559"><ele>70.0</ele><time>2026-04-26T14:16:15.065Z</time></trkpt><trkpt lat="37.8318151" lon="15.225306"><ele>70.0</ele><time>2026-04-26T14:16:16.067Z</time></trkpt><trkpt lat="37.8317503" lon="15.2253697"><ele>70.75</ele><time>2026-04-26T14:16:17.082Z</time></trkpt><trkpt lat="37.8316804" lon="15.2254506"><ele>71.5</ele><time>2026-04-26T14:16:18.082Z</time></trkpt><trkpt lat="37.8316036" lon="15.2255516"><ele>72.25</ele><time>2026-04-26T14:16:19.045Z</time></trkpt><trkpt lat="37.8315287" lon="15.2256797"><ele>73.0</ele><time>2026-04-26T14:16:20.081Z</time></trkpt><trkpt lat="37.8314613" lon="15.225818"><ele>71.5</ele><time>2026-04-26T14:16:21.043Z</time></trkpt><trkpt lat="37.8313992" lon="15.2259687"><ele>70.0</ele><time>2026-04-26T14:16:22.08Z</time></trkpt><trkpt lat="37.8313421" lon="15.2261187"><ele>68.5</ele><time>2026-04-26T14:16:23.079Z</time></trkpt><trkpt lat="37.8312849" lon="15.2262755"><ele>67.0</ele><time>2026-04-26T14:16:24.064Z</time></trkpt><trkpt lat="37.8312234" lon="15.2264383"><ele>66.75</ele><time>2026-04-26T14:16:25.082Z</time></trkpt><trkpt lat="37.8311568" lon="15.2266034"><ele>66.5</ele><time>2026-04-26T14:16:26.074Z</time></trkpt><trkpt lat="37.8310904" lon="15.2267704"><ele>66.25</ele><time>2026-04-26T14:16:27.073Z</time></trkpt><trkpt lat="37.8310279" lon="15.2269351"><ele>66.0</ele><time>2026-04-26T14:16:28.077Z</time></trkpt><trkpt lat="37.8309724" lon="15.227093"><ele>66.0</ele><time>2026-04-26T14:16:29.072Z</time></trkpt><trkpt lat="37.8309285" lon="15.2272483"><ele>66.0</ele><time>2026-04-26T14:16:30.092Z</time></trkpt><trkpt lat="37.8308953" lon="15.2273954"><ele>66.0</ele><time>2026-04-26T14:16:31.078Z</time></trkpt><trkpt lat="37.830866" lon="15.2275347"><ele>66.0</ele><time>2026-04-26T14:16:32.079Z</time></trkpt><trkpt lat="37.8308447" lon="15.2276687"><ele>65.0</ele><time>2026-04-26T14:16:33.066Z</time></trkpt><trkpt lat="37.8308361" lon="15.2278026"><ele>63.99999999999999</ele><time>2026-04-26T14:16:34.081Z</time></trkpt><trkpt lat="37.8308353" lon="15.2279302"><ele>62.99999999999999</ele><time>2026-04-26T14:16:35.079Z</time></trkpt><trkpt lat="37.8308236" lon="15.2280564"><ele>62.0</ele><time>2026-04-26T14:16:36.076Z</time></trkpt><trkpt lat="37.8307862" lon="15.2281743"><ele>61.0</ele><time>2026-04-26T14:16:37.06Z</time></trkpt><trkpt lat="37.8307379" lon="15.228293"><ele>59.75</ele><time>2026-04-26T14:16:38.08Z</time></trkpt><trkpt lat="37.8306911" lon="15.2284194"><ele>58.5</ele><time>2026-04-26T14:16:39.097Z</time></trkpt><trkpt lat="37.8306463" lon="15.2285539"><ele>57.25</ele><time>2026-04-26T14:16:40.08Z</time></trkpt><trkpt lat="37.8305944" lon="15.2286959"><ele>56.0</ele><time>2026-04-26T14:16:41.067Z</time></trkpt><trkpt lat="37.8305355" lon="15.2288445"><ele>54.0</ele><time>2026-04-26T14:16:42.069Z</time></trkpt><trkpt lat="37.8304892" lon="15.2289936"><ele>52.0</ele><time>2026-04-26T14:16:43.08Z</time></trkpt><trkpt lat="37.8304527" lon="15.2291397"><ele>50.0</ele><time>2026-04-26T14:16:44.068Z</time></trkpt><trkpt lat="37.830417" lon="15.229282"><ele>48.0</ele><time>2026-04-26T14:16:45.09Z</time></trkpt><trkpt lat="37.8303783" lon="15.2294146"><ele>48.0</ele><time>2026-04-26T14:16:46.083Z</time></trkpt><trkpt lat="37.8303353" lon="15.2295383"><ele>48.0</ele><time>2026-04-26T14:16:47.085Z</time></trkpt><trkpt lat="37.8302977" lon="15.229651"><ele>48.0</ele><time>2026-04-26T14:16:48.066Z</time></trkpt><trkpt lat="37.8302679" lon="15.2297674"><ele>48.0</ele><time>2026-04-26T14:16:49.089Z</time></trkpt><trkpt lat="37.8302378" lon="15.2298801"><ele>48.0</ele><time>2026-04-26T14:16:50.065Z</time></trkpt><trkpt lat="37.8301903" lon="15.2299858"><ele>50.0</ele><time>2026-04-26T14:16:51.081Z</time></trkpt><trkpt lat="37.8301346" lon="15.230085"><ele>52.0</ele><time>2026-04-26T14:16:52.076Z</time></trkpt><trkpt lat="37.8300757" lon="15.230177"><ele>54.0</ele><time>2026-04-26T14:16:53.085Z</time></trkpt><trkpt lat="37.8300184" lon="15.2302609"><ele>56.0</ele><time>2026-04-26T14:16:54.079Z</time></trkpt><trkpt lat="37.8299698" lon="15.2303401"><ele>58.0</ele><time>2026-04-26T14:16:55.091Z</time></trkpt><trkpt lat="37.8299344" lon="15.230421"><ele>60.0</ele><time>2026-04-26T14:16:56.078Z</time></trkpt><trkpt lat="37.8299171" lon="15.2305055"><ele>60.0</ele><time>2026-04-26T14:16:57.077Z</time></trkpt><trkpt lat="37.8299034" lon="15.2305976"><ele>60.0</ele><time>2026-04-26T14:16:58.081Z</time></trkpt><trkpt lat="37.8298905" lon="15.230692"><ele>60.0</ele><time>2026-04-26T14:16:59.076Z</time></trkpt><trkpt lat="37.8298746" lon="15.230794"><ele>60.0</ele><time>2026-04-26T14:17:00.079Z</time></trkpt><trkpt lat="37.8298572" lon="15.2309009"><ele>60.0</ele><time>2026-04-26T14:17:01.067Z</time></trkpt><trkpt lat="37.8298352" lon="15.2310104"><ele>60.0</ele><time>2026-04-26T14:17:02.087Z</time></trkpt><trkpt lat="37.8298019" lon="15.2311207"><ele>57.4</ele><time>2026-04-26T14:17:03.087Z</time></trkpt><trkpt lat="37.8297651" lon="15.2312288"><ele>54.8</ele><time>2026-04-26T14:17:04.085Z</time></trkpt><trkpt lat="37.8297234" lon="15.2313378"><ele>52.2</ele><time>2026-04-26T14:17:05.048Z</time></trkpt><trkpt lat="37.8296659" lon="15.231449"><ele>49.6</ele><time>2026-04-26T14:17:06.082Z</time></trkpt><trkpt lat="37.8296121" lon="15.2315641"><ele>47.0</ele><time>2026-04-26T14:17:07.086Z</time></trkpt><trkpt lat="37.8295595" lon="15.2316767"><ele>46.400000000000006</ele><time>2026-04-26T14:17:08.077Z</time></trkpt><trkpt lat="37.8295108" lon="15.2317918"><ele>45.800000000000004</ele><time>2026-04-26T14:17:09.078Z</time></trkpt><trkpt lat="37.8294624" lon="15.2319006"><ele>45.2</ele><time>2026-04-26T14:17:10.086Z</time></trkpt><trkpt lat="37.8294121" lon="15.2319987"><ele>44.6</ele><time>2026-04-26T14:17:11.075Z</time></trkpt><trkpt lat="37.8293526" lon="15.2320846"><ele>44.0</ele><time>2026-04-26T14:17:12.085Z</time></trkpt><trkpt lat="37.8292868" lon="15.2321611"><ele>44.2</ele><time>2026-04-26T14:17:13.081Z</time></trkpt><trkpt lat="37.8292206" lon="15.2322376"><ele>44.400000000000006</ele><time>2026-04-26T14:17:14.078Z</time></trkpt><trkpt lat="37.8291519" lon="15.2323201"><ele>44.6</ele><time>2026-04-26T14:17:15.109Z</time></trkpt><trkpt lat="37.8290844" lon="15.232403"><ele>44.8</ele><time>2026-04-26T14:17:16.09Z</time></trkpt><trkpt lat="37.8290135" lon="15.2324783"><ele>45.0</ele><time>2026-04-26T14:17:17.079Z</time></trkpt><trkpt lat="37.8289419" lon="15.2325409"><ele>45.0</ele><time>2026-04-26T14:17:18.081Z</time></trkpt><trkpt lat="37.8288762" lon="15.2325805"><ele>45.0</ele><time>2026-04-26T14:17:19.081Z</time></trkpt><trkpt lat="37.82881" lon="15.2326018"><ele>45.0</ele><time>2026-04-26T14:17:20.08Z</time></trkpt><trkpt lat="37.8287473" lon="15.2325911"><ele>45.0</ele><time>2026-04-26T14:17:21.068Z</time></trkpt><trkpt lat="37.8286791" lon="15.232558"><ele>45.0</ele><time>2026-04-26T14:17:22.082Z</time></trkpt><trkpt lat="37.8286027" lon="15.2325073"><ele>45.0</ele><time>2026-04-26T14:17:23.085Z</time></trkpt><trkpt lat="37.8285236" lon="15.2324482"><ele>45.6</ele><time>2026-04-26T14:17:24.06Z</time></trkpt><trkpt lat="37.8284389" lon="15.2323834"><ele>46.2</ele><time>2026-04-26T14:17:25.065Z</time></trkpt><trkpt lat="37.828351" lon="15.2323116"><ele>46.8</ele><time>2026-04-26T14:17:26.077Z</time></trkpt><trkpt lat="37.8282547" lon="15.2322351"><ele>47.4</ele><time>2026-04-26T14:17:27.08Z</time></trkpt><trkpt lat="37.828154" lon="15.2321511"><ele>48.0</ele><time>2026-04-26T14:17:28.083Z</time></trkpt><trkpt lat="37.8280585" lon="15.2320637"><ele>52.0</ele><time>2026-04-26T14:17:29.068Z</time></trkpt><trkpt lat="37.8279707" lon="15.2319682"><ele>56.0</ele><time>2026-04-26T14:17:30.091Z</time></trkpt><trkpt lat="37.8278881" lon="15.2318686"><ele>60.0</ele><time>2026-04-26T14:17:31.092Z</time></trkpt><trkpt lat="37.82781" lon="15.2317621"><ele>64.0</ele><time>2026-04-26T14:17:32.06Z</time></trkpt><trkpt lat="37.8277372" lon="15.2316347"><ele>64.0</ele><time>2026-04-26T14:17:33.081Z</time></trkpt><trkpt lat="37.8276684" lon="15.231493"><ele>64.0</ele><time>2026-04-26T14:17:34.08Z</time></trkpt><trkpt lat="37.8275895" lon="15.2313502"><ele>64.0</ele><time>2026-04-26T14:17:35.075Z</time></trkpt><trkpt lat="37.8275038" lon="15.2312161"><ele>64.0</ele><time>2026-04-26T14:17:36.078Z</time></trkpt><trkpt lat="37.8274235" lon="15.2310986"><ele>64.2</ele><time>2026-04-26T14:17:37.063Z</time></trkpt><trkpt lat="37.8273514" lon="15.230988"><ele>64.4</ele><time>2026-04-26T14:17:38.078Z</time></trkpt><trkpt lat="37.8272902" lon="15.23088"><ele>64.6</ele><time>2026-04-26T14:17:39.079Z</time></trkpt><trkpt lat="37.8272312" lon="15.2307721"><ele>64.8</ele><time>2026-04-26T14:17:40.079Z</time></trkpt><trkpt lat="37.8271729" lon="15.2306638"><ele>65.0</ele><time>2026-04-26T14:17:41.08Z</time></trkpt><trkpt lat="37.8271214" lon="15.2305526"><ele>65.0</ele><time>2026-04-26T14:17:42.077Z</time></trkpt><trkpt lat="37.8270779" lon="15.2304395"><ele>65.0</ele><time>2026-04-26T14:17:43.06Z</time></trkpt><trkpt lat="37.8270325" lon="15.2303366"><ele>65.0</ele><time>2026-04-26T14:17:44.075Z</time></trkpt><trkpt lat="37.8269787" lon="15.2302545"><ele>65.0</ele><time>2026-04-26T14:17:45.084Z</time></trkpt><trkpt lat="37.8269178" lon="15.2301941"><ele>65.0</ele><time>2026-04-26T14:17:46.078Z</time></trkpt><trkpt lat="37.8268533" lon="15.2301469"><ele>65.0</ele><time>2026-04-26T14:17:47.077Z</time></trkpt><trkpt lat="37.8267887" lon="15.2301052"><ele>65.0</ele><time>2026-04-26T14:17:48.079Z</time></trkpt><trkpt lat="37.8267204" lon="15.2300651"><ele>65.0</ele><time>2026-04-26T14:17:49.079Z</time></trkpt><trkpt lat="37.8266458" lon="15.2300326"><ele>65.0</ele><time>2026-04-26T14:17:50.081Z</time></trkpt><trkpt lat="37.8265648" lon="15.2300064"><ele>65.0</ele><time>2026-04-26T14:17:51.081Z</time></trkpt><trkpt lat="37.826481" lon="15.2299843"><ele>65.0</ele><time>2026-04-26T14:17:52.078Z</time></trkpt><trkpt lat="37.8263996" lon="15.2299593"><ele>65.0</ele><time>2026-04-26T14:17:53.082Z</time></trkpt><trkpt lat="37.8263173" lon="15.2299278"><ele>65.0</ele><time>2026-04-26T14:17:54.08Z</time></trkpt><trkpt lat="37.826238" lon="15.2298881"><ele>65.0</ele><time>2026-04-26T14:17:55.076Z</time></trkpt><trkpt lat="37.8261641" lon="15.2298448"><ele>65.0</ele><time>2026-04-26T14:17:56.084Z</time></trkpt><trkpt lat="37.8260951" lon="15.2298007"><ele>65.0</ele><time>2026-04-26T14:17:57.08Z</time></trkpt><trkpt lat="37.8260298" lon="15.2297556"><ele>65.0</ele><time>2026-04-26T14:17:58.083Z</time></trkpt><trkpt lat="37.825962" lon="15.2297091"><ele>65.0</ele><time>2026-04-26T14:17:59.079Z</time></trkpt><trkpt lat="37.8258927" lon="15.229665"><ele>67.66666666666667</ele><time>2026-04-26T14:18:00.066Z</time></trkpt><trkpt lat="37.825826" lon="15.2296252"><ele>70.33333333333334</ele><time>2026-04-26T14:18:01.077Z</time></trkpt><trkpt lat="37.8257607" lon="15.229586"><ele>73.0</ele><time>2026-04-26T14:18:02.058Z</time></trkpt><trkpt lat="37.8256948" lon="15.2295464"><ele>75.66666666666667</ele><time>2026-04-26T14:18:03.088Z</time></trkpt><trkpt lat="37.8256326" lon="15.2295054"><ele>78.33333333333333</ele><time>2026-04-26T14:18:04.066Z</time></trkpt><trkpt lat="37.8255657" lon="15.2294592"><ele>81.0</ele><time>2026-04-26T14:18:05.093Z</time></trkpt><trkpt lat="37.8254946" lon="15.2294001"><ele>81.0</ele><time>2026-04-26T14:18:06.077Z</time></trkpt><trkpt lat="37.8254227" lon="15.2293244"><ele>81.0</ele><time>2026-04-26T14:18:07.09Z</time></trkpt><trkpt lat="37.8253562" lon="15.2292448"><ele>81.0</ele><time>2026-04-26T14:18:08.078Z</time></trkpt><trkpt lat="37.825292" lon="15.2291656"><ele>81.0</ele><time>2026-04-26T14:18:09.079Z</time></trkpt><trkpt lat="37.8252328" lon="15.2290924"><ele>81.0</ele><time>2026-04-26T14:18:10.081Z</time></trkpt><trkpt lat="37.825183" lon="15.2290226"><ele>81.0</ele><time>2026-04-26T14:18:11.081Z</time></trkpt><trkpt lat="37.8251402" lon="15.228953"><ele>79.16666666666667</ele><time>2026-04-26T14:18:12.079Z</time></trkpt><trkpt lat="37.8250748" lon="15.2288312"><ele>77.33333333333333</ele><time>2026-04-26T14:18:14.085Z</time></trkpt><trkpt lat="37.8250518" lon="15.2287315"><ele>75.5</ele><time>2026-04-26T14:18:16.082Z</time></trkpt><trkpt lat="37.824983" lon="15.2287112"><ele>73.66666666666666</ele><time>2026-04-26T14:18:20.062Z</time></trkpt><trkpt lat="37.8249191" lon="15.2287602"><ele>71.83333333333333</ele><time>2026-04-26T14:18:22.065Z</time></trkpt><trkpt lat="37.8248793" lon="15.2288312"><ele>70.0</ele><time>2026-04-26T14:18:23.067Z</time></trkpt><trkpt lat="37.8248264" lon="15.228903"><ele>70.0</ele><time>2026-04-26T14:18:24.065Z</time></trkpt><trkpt lat="37.8247675" lon="15.2289685"><ele>70.0</ele><time>2026-04-26T14:18:25.06Z</time></trkpt><trkpt lat="37.8247206" lon="15.2290412"><ele>70.0</ele><time>2026-04-26T14:18:26.067Z</time></trkpt><trkpt lat="37.8246921" lon="15.2291219"><ele>70.0</ele><time>2026-04-26T14:18:27.083Z</time></trkpt><trkpt lat="37.8246793" lon="15.2292117"><ele>70.0</ele><time>2026-04-26T14:18:28.082Z</time></trkpt><trkpt lat="37.8246894" lon="15.229306"><ele>70.0</ele><time>2026-04-26T14:18:29.079Z</time></trkpt><trkpt lat="37.8247054" lon="15.2294025"><ele>70.0</ele><time>2026-04-26T14:18:30.082Z</time></trkpt><trkpt lat="37.8247208" lon="15.2295015"><ele>68.8</ele><time>2026-04-26T14:18:31.079Z</time></trkpt><trkpt lat="37.8247403" lon="15.2296058"><ele>67.6</ele><time>2026-04-26T14:18:32.083Z</time></trkpt><trkpt lat="37.8247634" lon="15.2297141"><ele>66.4</ele><time>2026-04-26T14:18:33.081Z</time></trkpt><trkpt lat="37.8247834" lon="15.2298284"><ele>65.2</ele><time>2026-04-26T14:18:34.063Z</time></trkpt><trkpt lat="37.8247989" lon="15.2299461"><ele>64.0</ele><time>2026-04-26T14:18:35.08Z</time></trkpt><trkpt lat="37.8247982" lon="15.2300682"><ele>62.800000000000004</ele><time>2026-04-26T14:18:36.067Z</time></trkpt><trkpt lat="37.8247883" lon="15.230189"><ele>61.60000000000001</ele><time>2026-04-26T14:18:37.069Z</time></trkpt><trkpt lat="37.8247619" lon="15.2302954"><ele>60.4</ele><time>2026-04-26T14:18:38.059Z</time></trkpt><trkpt lat="37.8247212" lon="15.2303879"><ele>59.2</ele><time>2026-04-26T14:18:39.08Z</time></trkpt><trkpt lat="37.8246613" lon="15.2304769"><ele>58.0</ele><time>2026-04-26T14:18:40.062Z</time></trkpt><trkpt lat="37.8245918" lon="15.2305621"><ele>58.0</ele><time>2026-04-26T14:18:41.063Z</time></trkpt><trkpt lat="37.8245149" lon="15.2306393"><ele>58.0</ele><time>2026-04-26T14:18:42.095Z</time></trkpt><trkpt lat="37.824417" lon="15.2307139"><ele>58.0</ele><time>2026-04-26T14:18:43.084Z</time></trkpt><trkpt lat="37.8243091" lon="15.2307948"><ele>58.0</ele><time>2026-04-26T14:18:44.075Z</time></trkpt><trkpt lat="37.8241999" lon="15.2308915"><ele>58.75</ele><time>2026-04-26T14:18:45.072Z</time></trkpt><trkpt lat="37.8240988" lon="15.2309985"><ele>59.5</ele><time>2026-04-26T14:18:46.082Z</time></trkpt><trkpt lat="37.8240117" lon="15.2311143"><ele>60.25</ele><time>2026-04-26T14:18:47.081Z</time></trkpt><trkpt lat="37.8239286" lon="15.2312308"><ele>61.0</ele><time>2026-04-26T14:18:48.094Z</time></trkpt><trkpt lat="37.8238484" lon="15.2313484"><ele>61.0</ele><time>2026-04-26T14:18:49.08Z</time></trkpt><trkpt lat="37.8237613" lon="15.2314562"><ele>61.0</ele><time>2026-04-26T14:18:50.055Z</time></trkpt><trkpt lat="37.823675" lon="15.2315614"><ele>61.0</ele><time>2026-04-26T14:18:51.077Z</time></trkpt><trkpt lat="37.8235917" lon="15.2316629"><ele>61.0</ele><time>2026-04-26T14:18:52.078Z</time></trkpt><trkpt lat="37.8235131" lon="15.2317606"><ele>60.599999999999994</ele><time>2026-04-26T14:18:53.081Z</time></trkpt><trkpt lat="37.8234448" lon="15.2318604"><ele>60.199999999999996</ele><time>2026-04-26T14:18:54.088Z</time></trkpt><trkpt lat="37.8233814" lon="15.231967"><ele>59.800000000000004</ele><time>2026-04-26T14:18:55.095Z</time></trkpt><trkpt lat="37.823321" lon="15.2320796"><ele>59.400000000000006</ele><time>2026-04-26T14:18:56.064Z</time></trkpt><trkpt lat="37.823268" lon="15.2322032"><ele>59.0</ele><time>2026-04-26T14:18:57.079Z</time></trkpt><trkpt lat="37.8232208" lon="15.2323293"><ele>59.0</ele><time>2026-04-26T14:18:58.081Z</time></trkpt><trkpt lat="37.8231724" lon="15.2324559"><ele>59.00000000000001</ele><time>2026-04-26T14:18:59.07Z</time></trkpt><trkpt lat="37.8231209" lon="15.2325767"><ele>59.00000000000001</ele><time>2026-04-26T14:19:00.094Z</time></trkpt><trkpt lat="37.8230763" lon="15.2326954"><ele>59.0</ele><time>2026-04-26T14:19:01.068Z</time></trkpt><trkpt lat="37.8230316" lon="15.2328108"><ele>59.0</ele><time>2026-04-26T14:19:02.082Z</time></trkpt><trkpt lat="37.8229776" lon="15.2329167"><ele>59.0</ele><time>2026-04-26T14:19:03.081Z</time></trkpt><trkpt lat="37.8229201" lon="15.2330139"><ele>59.00000000000001</ele><time>2026-04-26T14:19:04.068Z</time></trkpt><trkpt lat="37.8228679" lon="15.2331131"><ele>59.00000000000001</ele><time>2026-04-26T14:19:05.081Z</time></trkpt><trkpt lat="37.8228245" lon="15.2332171"><ele>59.0</ele><time>2026-04-26T14:19:06.084Z</time></trkpt><trkpt lat="37.8227822" lon="15.2333209"><ele>59.0</ele><time>2026-04-26T14:19:07.08Z</time></trkpt><trkpt lat="37.8227406" lon="15.2334243"><ele>59.0</ele><time>2026-04-26T14:19:08.079Z</time></trkpt><trkpt lat="37.8226935" lon="15.2335214"><ele>59.00000000000001</ele><time>2026-04-26T14:19:09.063Z</time></trkpt><trkpt lat="37.822634" lon="15.2336066"><ele>59.00000000000001</ele><time>2026-04-26T14:19:10.062Z</time></trkpt><trkpt lat="37.822564" lon="15.2336802"><ele>59.0</ele><time>2026-04-26T14:19:11.08Z</time></trkpt><trkpt lat="37.8224893" lon="15.2337434"><ele>59.0</ele><time>2026-04-26T14:19:12.08Z</time></trkpt><trkpt lat="37.8224075" lon="15.2338035"><ele>57.6</ele><time>2026-04-26T14:19:13.081Z</time></trkpt><trkpt lat="37.8223197" lon="15.2338614"><ele>56.2</ele><time>2026-04-26T14:19:14.068Z</time></trkpt><trkpt lat="37.8222338" lon="15.2339194"><ele>54.800000000000004</ele><time>2026-04-26T14:19:15.114Z</time></trkpt><trkpt lat="37.8221483" lon="15.233978"><ele>53.400000000000006</ele><time>2026-04-26T14:19:16.095Z</time></trkpt><trkpt lat="37.8220672" lon="15.2340375"><ele>52.0</ele><time>2026-04-26T14:19:17.095Z</time></trkpt><trkpt lat="37.8219922" lon="15.2340913"><ele>51.666666666666664</ele><time>2026-04-26T14:19:18.095Z</time></trkpt><trkpt lat="37.8219224" lon="15.2341404"><ele>51.33333333333333</ele><time>2026-04-26T14:19:19.081Z</time></trkpt><trkpt lat="37.8218553" lon="15.234188"><ele>51.0</ele><time>2026-04-26T14:19:20.096Z</time></trkpt><trkpt lat="37.8217947" lon="15.2342302"><ele>50.66666666666667</ele><time>2026-04-26T14:19:21.099Z</time></trkpt><trkpt lat="37.8216931" lon="15.2342962"><ele>50.333333333333336</ele><time>2026-04-26T14:19:23.077Z</time></trkpt><trkpt lat="37.821625" lon="15.2343393"><ele>50.0</ele><time>2026-04-26T14:19:25.091Z</time></trkpt><trkpt lat="37.8215662" lon="15.2343789"><ele>49.50000000000001</ele><time>2026-04-26T14:19:28.08Z</time></trkpt><trkpt lat="37.8215006" lon="15.2344092"><ele>49.0</ele><time>2026-04-26T14:19:32.068Z</time></trkpt><trkpt lat="37.8214593" lon="15.2344857"><ele>48.5</ele><time>2026-04-26T14:19:34.082Z</time></trkpt><trkpt lat="37.8214181" lon="15.2346238"><ele>48.0</ele><time>2026-04-26T14:19:36.077Z</time></trkpt><trkpt lat="37.8214059" lon="15.2347051"><ele>47.5</ele><time>2026-04-26T14:19:37.077Z</time></trkpt><trkpt lat="37.8213807" lon="15.2348577"><ele>47.0</ele><time>2026-04-26T14:19:39.064Z</time></trkpt><trkpt lat="37.8213493" lon="15.2349958"><ele>47.0</ele><time>2026-04-26T14:19:41.079Z</time></trkpt><trkpt lat="37.8213276" lon="15.2351283"><ele>47.0</ele><time>2026-04-26T14:19:43.063Z</time></trkpt><trkpt lat="37.8213052" lon="15.2352325"><ele>47.0</ele><time>2026-04-26T14:19:45.095Z</time></trkpt><trkpt lat="37.8212894" lon="15.2353214"><ele>47.0</ele><time>2026-04-26T14:19:47.059Z</time></trkpt><trkpt lat="37.8212617" lon="15.2354362"><ele>47.0</ele><time>2026-04-26T14:19:49.047Z</time></trkpt><trkpt lat="37.8212193" lon="15.2355968"><ele>46.33333333333333</ele><time>2026-04-26T14:19:51.065Z</time></trkpt><trkpt lat="37.8211967" lon="15.2357011"><ele>45.666666666666664</ele><time>2026-04-26T14:19:52.081Z</time></trkpt><trkpt lat="37.821172" lon="15.2358169"><ele>45.0</ele><time>2026-04-26T14:19:53.066Z</time></trkpt><trkpt lat="37.8211524" lon="15.2359286"><ele>44.333333333333336</ele><time>2026-04-26T14:19:54.067Z</time></trkpt><trkpt lat="37.8211348" lon="15.2360352"><ele>43.66666666666667</ele><time>2026-04-26T14:19:55.082Z</time></trkpt><trkpt lat="37.821117" lon="15.2361404"><ele>43.0</ele><time>2026-04-26T14:19:56.079Z</time></trkpt><trkpt lat="37.8210984" lon="15.2362505"><ele>43.0</ele><time>2026-04-26T14:19:57.077Z</time></trkpt><trkpt lat="37.8210787" lon="15.2363674"><ele>43.0</ele><time>2026-04-26T14:19:58.062Z</time></trkpt><trkpt lat="37.8210608" lon="15.2364822"><ele>43.0</ele><time>2026-04-26T14:19:59.082Z</time></trkpt><trkpt lat="37.8210399" lon="15.2365907"><ele>43.0</ele><time>2026-04-26T14:20:00.074Z</time></trkpt><trkpt lat="37.8210158" lon="15.2366949"><ele>43.0</ele><time>2026-04-26T14:20:01.051Z</time></trkpt><trkpt lat="37.8209904" lon="15.2368017"><ele>43.0</ele><time>2026-04-26T14:20:02.08Z</time></trkpt><trkpt lat="37.8209671" lon="15.2369096"><ele>42.4</ele><time>2026-04-26T14:20:03.081Z</time></trkpt><trkpt lat="37.8209432" lon="15.2370205"><ele>41.8</ele><time>2026-04-26T14:20:04.061Z</time></trkpt><trkpt lat="37.8209168" lon="15.2371395"><ele>41.2</ele><time>2026-04-26T14:20:05.079Z</time></trkpt><trkpt lat="37.8208891" lon="15.2372588"><ele>40.6</ele><time>2026-04-26T14:20:06.081Z</time></trkpt><trkpt lat="37.8208607" lon="15.2373798"><ele>40.0</ele><time>2026-04-26T14:20:07.082Z</time></trkpt><trkpt lat="37.8208333" lon="15.2375012"><ele>39.8</ele><time>2026-04-26T14:20:08.064Z</time></trkpt><trkpt lat="37.8208039" lon="15.2376202"><ele>39.6</ele><time>2026-04-26T14:20:09.08Z</time></trkpt><trkpt lat="37.8207745" lon="15.2377301"><ele>39.4</ele><time>2026-04-26T14:20:10.062Z</time></trkpt><trkpt lat="37.8207409" lon="15.2378358"><ele>39.2</ele><time>2026-04-26T14:20:11.082Z</time></trkpt><trkpt lat="37.8207022" lon="15.2379339"><ele>39.0</ele><time>2026-04-26T14:20:12.08Z</time></trkpt><trkpt lat="37.8206596" lon="15.2380264"><ele>39.0</ele><time>2026-04-26T14:20:13.069Z</time></trkpt><trkpt lat="37.8206201" lon="15.2381215"><ele>39.0</ele><time>2026-04-26T14:20:14.069Z</time></trkpt><trkpt lat="37.8205824" lon="15.238221"><ele>39.0</ele><time>2026-04-26T14:20:15.093Z</time></trkpt><trkpt lat="37.8205471" lon="15.2383299"><ele>39.0</ele><time>2026-04-26T14:20:16.084Z</time></trkpt><trkpt lat="37.8205147" lon="15.2384455"><ele>39.0</ele><time>2026-04-26T14:20:17.081Z</time></trkpt><trkpt lat="37.820484" lon="15.238578"><ele>38.25</ele><time>2026-04-26T14:20:18.064Z</time></trkpt><trkpt lat="37.8204455" lon="15.2387368"><ele>37.5</ele><time>2026-04-26T14:20:19.083Z</time></trkpt><trkpt lat="37.8203915" lon="15.2389086"><ele>36.75</ele><time>2026-04-26T14:20:20.081Z</time></trkpt><trkpt lat="37.8203198" lon="15.2390805"><ele>36.0</ele><time>2026-04-26T14:20:21.081Z</time></trkpt><trkpt lat="37.8202425" lon="15.2392461"><ele>35.333333333333336</ele><time>2026-04-26T14:20:22.076Z</time></trkpt><trkpt lat="37.8201659" lon="15.2394144"><ele>34.66666666666667</ele><time>2026-04-26T14:20:23.089Z</time></trkpt><trkpt lat="37.8200908" lon="15.239589"><ele>34.0</ele><time>2026-04-26T14:20:24.081Z</time></trkpt><trkpt lat="37.8200112" lon="15.2397767"><ele>33.66666666666667</ele><time>2026-04-26T14:20:25.095Z</time></trkpt><trkpt lat="37.8199383" lon="15.2399699"><ele>33.333333333333336</ele><time>2026-04-26T14:20:26.097Z</time></trkpt><trkpt lat="37.8198696" lon="15.2401511"><ele>33.0</ele><time>2026-04-26T14:20:27.08Z</time></trkpt><trkpt lat="37.8198056" lon="15.2403175"><ele>33.0</ele><time>2026-04-26T14:20:28.081Z</time></trkpt><trkpt lat="37.8197414" lon="15.2404698"><ele>33.0</ele><time>2026-04-26T14:20:29.078Z</time></trkpt><trkpt lat="37.8196833" lon="15.2406163"><ele>33.0</ele><time>2026-04-26T14:20:30.07Z</time></trkpt><trkpt lat="37.819628" lon="15.240763"><ele>33.0</ele><time>2026-04-26T14:20:31.081Z</time></trkpt><trkpt lat="37.819573" lon="15.2409047"><ele>32.6</ele><time>2026-04-26T14:20:32.079Z</time></trkpt><trkpt lat="37.8195221" lon="15.2410362"><ele>32.199999999999996</ele><time>2026-04-26T14:20:33.079Z</time></trkpt><trkpt lat="37.8194786" lon="15.2411643"><ele>31.8</ele><time>2026-04-26T14:20:34.066Z</time></trkpt><trkpt lat="37.8194365" lon="15.2412894"><ele>31.4</ele><time>2026-04-26T14:20:35.067Z</time></trkpt><trkpt lat="37.8193926" lon="15.2414155"><ele>31.0</ele><time>2026-04-26T14:20:36.082Z</time></trkpt><trkpt lat="37.8193427" lon="15.2415442"><ele>31.0</ele><time>2026-04-26T14:20:37.089Z</time></trkpt><trkpt lat="37.8192907" lon="15.2416697"><ele>31.0</ele><time>2026-04-26T14:20:38.079Z</time></trkpt><trkpt lat="37.8192426" lon="15.2417921"><ele>31.0</ele><time>2026-04-26T14:20:39.079Z</time></trkpt><trkpt lat="37.8191977" lon="15.2419179"><ele>31.0</ele><time>2026-04-26T14:20:40.095Z</time></trkpt><trkpt lat="37.8191546" lon="15.2420482"><ele>31.0</ele><time>2026-04-26T14:20:41.078Z</time></trkpt><trkpt lat="37.8191101" lon="15.2421835"><ele>30.8</ele><time>2026-04-26T14:20:42.08Z</time></trkpt><trkpt lat="37.8190621" lon="15.2423148"><ele>30.6</ele><time>2026-04-26T14:20:43.079Z</time></trkpt><trkpt lat="37.8190138" lon="15.2424431"><ele>30.4</ele><time>2026-04-26T14:20:44.081Z</time></trkpt><trkpt lat="37.818966" lon="15.242569"><ele>30.2</ele><time>2026-04-26T14:20:45.076Z</time></trkpt><trkpt lat="37.8189206" lon="15.2426982"><ele>30.0</ele><time>2026-04-26T14:20:46.067Z</time></trkpt><trkpt lat="37.818873" lon="15.2428343"><ele>30.0</ele><time>2026-04-26T14:20:47.083Z</time></trkpt><trkpt lat="37.8188211" lon="15.2429696"><ele>30.0</ele><time>2026-04-26T14:20:48.093Z</time></trkpt><trkpt lat="37.8187698" lon="15.2431053"><ele>30.0</ele><time>2026-04-26T14:20:49.09Z</time></trkpt><trkpt lat="37.8187167" lon="15.243243"><ele>30.0</ele><time>2026-04-26T14:20:50.08Z</time></trkpt><trkpt lat="37.8186639" lon="15.2433821"><ele>29.5</ele><time>2026-04-26T14:20:51.065Z</time></trkpt><trkpt lat="37.8186109" lon="15.2435245"><ele>29.0</ele><time>2026-04-26T14:20:52.081Z</time></trkpt><trkpt lat="37.8185579" lon="15.2436689"><ele>28.5</ele><time>2026-04-26T14:20:53.08Z</time></trkpt><trkpt lat="37.8185031" lon="15.243819"><ele>28.0</ele><time>2026-04-26T14:20:54.08Z</time></trkpt><trkpt lat="37.8184471" lon="15.2439703"><ele>28.0</ele><time>2026-04-26T14:20:55.082Z</time></trkpt><trkpt lat="37.8183909" lon="15.2441161"><ele>28.0</ele><time>2026-04-26T14:20:56.081Z</time></trkpt><trkpt lat="37.8183385" lon="15.2442596"><ele>28.0</ele><time>2026-04-26T14:20:57.08Z</time></trkpt><trkpt lat="37.8182885" lon="15.2444012"><ele>28.0</ele><time>2026-04-26T14:20:58.081Z</time></trkpt><trkpt lat="37.8182388" lon="15.2445362"><ele>28.0</ele><time>2026-04-26T14:20:59.052Z</time></trkpt><trkpt lat="37.8181889" lon="15.2446705"><ele>27.999999999999996</ele><time>2026-04-26T14:21:00.066Z</time></trkpt><trkpt lat="37.8181396" lon="15.2448017"><ele>27.999999999999996</ele><time>2026-04-26T14:21:01.095Z</time></trkpt><trkpt lat="37.8180929" lon="15.2449241"><ele>28.0</ele><time>2026-04-26T14:21:02.079Z</time></trkpt><trkpt lat="37.8180521" lon="15.2450415"><ele>28.0</ele><time>2026-04-26T14:21:03.083Z</time></trkpt><trkpt lat="37.818018" lon="15.2451467"><ele>28.166666666666668</ele><time>2026-04-26T14:21:04.079Z</time></trkpt><trkpt lat="37.8179852" lon="15.2452384"><ele>28.333333333333336</ele><time>2026-04-26T14:21:05.081Z</time></trkpt><trkpt lat="37.8179538" lon="15.2453156"><ele>28.5</ele><time>2026-04-26T14:21:06.07Z</time></trkpt><trkpt lat="37.8179032" lon="15.245426"><ele>28.666666666666664</ele><time>2026-04-26T14:21:08.079Z</time></trkpt><trkpt lat="37.8178556" lon="15.2454997"><ele>28.833333333333332</ele><time>2026-04-26T14:21:11.091Z</time></trkpt><trkpt lat="37.8178031" lon="15.2455498"><ele>29.0</ele><time>2026-04-26T14:21:25.066Z</time></trkpt><trkpt lat="37.8177886" lon="15.2456549"><ele>28.499999999999996</ele><time>2026-04-26T14:21:27.065Z</time></trkpt><trkpt lat="37.8178089" lon="15.2457309"><ele>28.0</ele><time>2026-04-26T14:21:28.052Z</time></trkpt><trkpt lat="37.8178387" lon="15.2458147"><ele>27.5</ele><time>2026-04-26T14:21:29.081Z</time></trkpt><trkpt lat="37.8178715" lon="15.2459218"><ele>27.0</ele><time>2026-04-26T14:21:30.078Z</time></trkpt><trkpt lat="37.8179029" lon="15.2460161"><ele>26.499999999999996</ele><time>2026-04-26T14:21:31.08Z</time></trkpt><trkpt lat="37.8179429" lon="15.2461821"><ele>26.0</ele><time>2026-04-26T14:21:32.076Z</time></trkpt><trkpt lat="37.8179801" lon="15.2463515"><ele>25.25</ele><time>2026-04-26T14:21:33.067Z</time></trkpt><trkpt lat="37.818019" lon="15.2465264"><ele>24.5</ele><time>2026-04-26T14:21:34.096Z</time></trkpt><trkpt lat="37.8180513" lon="15.246679"><ele>23.75</ele><time>2026-04-26T14:21:35.08Z</time></trkpt><trkpt lat="37.8180784" lon="15.2468115"><ele>23.0</ele><time>2026-04-26T14:21:36.08Z</time></trkpt><trkpt lat="37.8181024" lon="15.2469305"><ele>23.0</ele><time>2026-04-26T14:21:37.063Z</time></trkpt><trkpt lat="37.8181258" lon="15.247047"><ele>23.0</ele><time>2026-04-26T14:21:38.08Z</time></trkpt><trkpt lat="37.8181512" lon="15.2471641"><ele>23.0</ele><time>2026-04-26T14:21:39.081Z</time></trkpt><trkpt lat="37.818179" lon="15.2472808"><ele>23.0</ele><time>2026-04-26T14:21:40.08Z</time></trkpt><trkpt lat="37.8182089" lon="15.2473911"><ele>23.0</ele><time>2026-04-26T14:21:41.08Z</time></trkpt><trkpt lat="37.818239" lon="15.247492"><ele>23.666666666666668</ele><time>2026-04-26T14:21:42.081Z</time></trkpt><trkpt lat="37.8182728" lon="15.2475889"><ele>24.333333333333336</ele><time>2026-04-26T14:21:43.08Z</time></trkpt><trkpt lat="37.8183121" lon="15.2476834"><ele>25.0</ele><time>2026-04-26T14:21:44.093Z</time></trkpt><trkpt lat="37.8183522" lon="15.2477739"><ele>25.666666666666668</ele><time>2026-04-26T14:21:45.066Z</time></trkpt><trkpt lat="37.8183941" lon="15.2478635"><ele>26.333333333333332</ele><time>2026-04-26T14:21:46.08Z</time></trkpt><trkpt lat="37.8184356" lon="15.2479517"><ele>27.0</ele><time>2026-04-26T14:21:47.08Z</time></trkpt><trkpt lat="37.818481" lon="15.2480426"><ele>27.666666666666668</ele><time>2026-04-26T14:21:48.081Z</time></trkpt><trkpt lat="37.8185274" lon="15.2481339"><ele>28.333333333333336</ele><time>2026-04-26T14:21:49.081Z</time></trkpt><trkpt lat="37.818575" lon="15.2482243"><ele>29.0</ele><time>2026-04-26T14:21:50.101Z</time></trkpt><trkpt lat="37.8186193" lon="15.2483132"><ele>29.666666666666668</ele><time>2026-04-26T14:21:51.08Z</time></trkpt><trkpt lat="37.818664" lon="15.2484048"><ele>30.333333333333336</ele><time>2026-04-26T14:21:52.08Z</time></trkpt><trkpt lat="37.8187106" lon="15.2484967"><ele>31.0</ele><time>2026-04-26T14:21:53.08Z</time></trkpt><trkpt lat="37.8187553" lon="15.2485929"><ele>31.0</ele><time>2026-04-26T14:21:54.079Z</time></trkpt><trkpt lat="37.818799" lon="15.2486946"><ele>31.0</ele><time>2026-04-26T14:21:55.096Z</time></trkpt><trkpt lat="37.8188464" lon="15.2487935"><ele>31.0</ele><time>2026-04-26T14:21:56.088Z</time></trkpt><trkpt lat="37.8188994" lon="15.2488918"><ele>31.0</ele><time>2026-04-26T14:21:57.08Z</time></trkpt><trkpt lat="37.8189545" lon="15.2489918"><ele>31.0</ele><time>2026-04-26T14:21:58.095Z</time></trkpt><trkpt lat="37.819008" lon="15.249093"><ele>30.4</ele><time>2026-04-26T14:21:59.063Z</time></trkpt><trkpt lat="37.8190634" lon="15.2491977"><ele>29.8</ele><time>2026-04-26T14:22:00.077Z</time></trkpt><trkpt lat="37.8191176" lon="15.2492972"><ele>29.199999999999996</ele><time>2026-04-26T14:22:01.094Z</time></trkpt><trkpt lat="37.8191708" lon="15.2493947"><ele>28.599999999999998</ele><time>2026-04-26T14:22:02.08Z</time></trkpt><trkpt lat="37.8192227" lon="15.2494938"><ele>28.0</ele><time>2026-04-26T14:22:03.08Z</time></trkpt><trkpt lat="37.8192735" lon="15.2495933"><ele>28.599999999999998</ele><time>2026-04-26T14:22:04.097Z</time></trkpt><trkpt lat="37.8193206" lon="15.2496928"><ele>29.199999999999996</ele><time>2026-04-26T14:22:05.082Z</time></trkpt><trkpt lat="37.8193673" lon="15.2497944"><ele>29.8</ele><time>2026-04-26T14:22:06.08Z</time></trkpt><trkpt lat="37.8194171" lon="15.2498963"><ele>30.4</ele><time>2026-04-26T14:22:07.082Z</time></trkpt><trkpt lat="37.819471" lon="15.249997"><ele>31.0</ele><time>2026-04-26T14:22:08.076Z</time></trkpt><trkpt lat="37.8195281" lon="15.2500997"><ele>31.200000000000003</ele><time>2026-04-26T14:22:09.08Z</time></trkpt><trkpt lat="37.8195863" lon="15.2502037"><ele>31.400000000000002</ele><time>2026-04-26T14:22:10.081Z</time></trkpt><trkpt lat="37.819644" lon="15.2503093"><ele>31.6</ele><time>2026-04-26T14:22:11.081Z</time></trkpt><trkpt lat="37.8196984" lon="15.2504192"><ele>31.8</ele><time>2026-04-26T14:22:12.081Z</time></trkpt><trkpt lat="37.8197529" lon="15.2505309"><ele>32.0</ele><time>2026-04-26T14:22:13.081Z</time></trkpt><trkpt lat="37.8198106" lon="15.2506451"><ele>32.0</ele><time>2026-04-26T14:22:14.084Z</time></trkpt><trkpt lat="37.8198677" lon="15.2507568"><ele>32.0</ele><time>2026-04-26T14:22:15.079Z</time></trkpt><trkpt lat="37.8199239" lon="15.250863"><ele>32.0</ele><time>2026-04-26T14:22:16.079Z</time></trkpt><trkpt lat="37.8199752" lon="15.2509631"><ele>32.0</ele><time>2026-04-26T14:22:17.08Z</time></trkpt><trkpt lat="37.8200225" lon="15.251055"><ele>32.0</ele><time>2026-04-26T14:22:18.082Z</time></trkpt><trkpt lat="37.8200673" lon="15.2511437"><ele>31.999999999999996</ele><time>2026-04-26T14:22:19.081Z</time></trkpt><trkpt lat="37.820111" lon="15.2512321"><ele>32.0</ele><time>2026-04-26T14:22:20.081Z</time></trkpt><trkpt lat="37.8201535" lon="15.2513186"><ele>32.0</ele><time>2026-04-26T14:22:21.082Z</time></trkpt><trkpt lat="37.8201961" lon="15.2514036"><ele>32.0</ele><time>2026-04-26T14:22:22.078Z</time></trkpt><trkpt lat="37.8202384" lon="15.2514896"><ele>31.999999999999996</ele><time>2026-04-26T14:22:23.079Z</time></trkpt><trkpt lat="37.8202838" lon="15.2515786"><ele>32.0</ele><time>2026-04-26T14:22:24.064Z</time></trkpt><trkpt lat="37.8203338" lon="15.2516731"><ele>32.0</ele><time>2026-04-26T14:22:25.088Z</time></trkpt><trkpt lat="37.8203839" lon="15.2517715"><ele>32.0</ele><time>2026-04-26T14:22:26.065Z</time></trkpt><trkpt lat="37.820435" lon="15.2518778"><ele>32.0</ele><time>2026-04-26T14:22:27.066Z</time></trkpt><trkpt lat="37.8204872" lon="15.2519883"><ele>32.0</ele><time>2026-04-26T14:22:28.082Z</time></trkpt><trkpt lat="37.8205393" lon="15.2520997"><ele>32.0</ele><time>2026-04-26T14:22:29.085Z</time></trkpt><trkpt lat="37.8205886" lon="15.2522099"><ele>31.200000000000003</ele><time>2026-04-26T14:22:30.08Z</time></trkpt><trkpt lat="37.8206334" lon="15.2523182"><ele>30.400000000000002</ele><time>2026-04-26T14:22:31.08Z</time></trkpt><trkpt lat="37.8206724" lon="15.2524231"><ele>29.599999999999998</ele><time>2026-04-26T14:22:32.063Z</time></trkpt><trkpt lat="37.8207077" lon="15.2525304"><ele>28.799999999999997</ele><time>2026-04-26T14:22:33.081Z</time></trkpt><trkpt lat="37.8207397" lon="15.2526424"><ele>28.0</ele><time>2026-04-26T14:22:34.099Z</time></trkpt><trkpt lat="37.8207709" lon="15.2527611"><ele>28.0</ele><time>2026-04-26T14:22:35.081Z</time></trkpt><trkpt lat="37.8207982" lon="15.2528924"><ele>27.999999999999996</ele><time>2026-04-26T14:22:36.079Z</time></trkpt><trkpt lat="37.8208255" lon="15.2530271"><ele>27.999999999999996</ele><time>2026-04-26T14:22:37.077Z</time></trkpt><trkpt lat="37.8208452" lon="15.253162"><ele>28.0</ele><time>2026-04-26T14:22:38.064Z</time></trkpt><trkpt lat="37.8208569" lon="15.2532987"><ele>28.0</ele><time>2026-04-26T14:22:39.08Z</time></trkpt><trkpt lat="37.8208591" lon="15.2534315"><ele>27.599999999999998</ele><time>2026-04-26T14:22:40.079Z</time></trkpt><trkpt lat="37.8208561" lon="15.2535662"><ele>27.199999999999996</ele><time>2026-04-26T14:22:41.056Z</time></trkpt><trkpt lat="37.8208493" lon="15.2537072"><ele>26.8</ele><time>2026-04-26T14:22:42.076Z</time></trkpt><trkpt lat="37.8208385" lon="15.2538482"><ele>26.4</ele><time>2026-04-26T14:22:43.066Z</time></trkpt><trkpt lat="37.8208251" lon="15.2539919"><ele>26.0</ele><time>2026-04-26T14:22:44.081Z</time></trkpt><trkpt lat="37.8208077" lon="15.25414"><ele>26.0</ele><time>2026-04-26T14:22:45.086Z</time></trkpt><trkpt lat="37.8207871" lon="15.2542906"><ele>26.0</ele><time>2026-04-26T14:22:46.081Z</time></trkpt><trkpt lat="37.8207638" lon="15.2544367"><ele>26.0</ele><time>2026-04-26T14:22:47.08Z</time></trkpt><trkpt lat="37.8207415" lon="15.2545747"><ele>26.0</ele><time>2026-04-26T14:22:48.081Z</time></trkpt><trkpt lat="37.8207209" lon="15.2547077"><ele>26.0</ele><time>2026-04-26T14:22:49.081Z</time></trkpt><trkpt lat="37.8207034" lon="15.2548364"><ele>26.0</ele><time>2026-04-26T14:22:50.081Z</time></trkpt><trkpt lat="37.8206839" lon="15.2549649"><ele>26.0</ele><time>2026-04-26T14:22:51.08Z</time></trkpt><trkpt lat="37.820664" lon="15.2550965"><ele>26.0</ele><time>2026-04-26T14:22:52.079Z</time></trkpt><trkpt lat="37.8206446" lon="15.2552254"><ele>26.0</ele><time>2026-04-26T14:22:53.08Z</time></trkpt><trkpt lat="37.8206261" lon="15.2553485"><ele>26.0</ele><time>2026-04-26T14:22:54.079Z</time></trkpt><trkpt lat="37.8206077" lon="15.2554679"><ele>26.0</ele><time>2026-04-26T14:22:55.09Z</time></trkpt><trkpt lat="37.8205902" lon="15.2555817"><ele>26.0</ele><time>2026-04-26T14:22:56.079Z</time></trkpt><trkpt lat="37.8205729" lon="15.255691"><ele>26.0</ele><time>2026-04-26T14:22:57.083Z</time></trkpt><trkpt lat="37.8205572" lon="15.2557964"><ele>26.0</ele><time>2026-04-26T14:22:58.078Z</time></trkpt><trkpt lat="37.8205401" lon="15.2559077"><ele>26.0</ele><time>2026-04-26T14:22:59.082Z</time></trkpt><trkpt lat="37.8205232" lon="15.2560252"><ele>26.0</ele><time>2026-04-26T14:23:00.09Z</time></trkpt><trkpt lat="37.8205064" lon="15.256145"><ele>26.0</ele><time>2026-04-26T14:23:01.067Z</time></trkpt><trkpt lat="37.8204868" lon="15.2562695"><ele>26.0</ele><time>2026-04-26T14:23:02.08Z</time></trkpt><trkpt lat="37.8204653" lon="15.256396"><ele>26.0</ele><time>2026-04-26T14:23:03.067Z</time></trkpt><trkpt lat="37.8204412" lon="15.2565222"><ele>25.6</ele><time>2026-04-26T14:23:04.085Z</time></trkpt><trkpt lat="37.8204194" lon="15.2566501"><ele>25.200000000000003</ele><time>2026-04-26T14:23:05.082Z</time></trkpt><trkpt lat="37.820401" lon="15.2567805"><ele>24.799999999999997</ele><time>2026-04-26T14:23:06.081Z</time></trkpt><trkpt lat="37.8203845" lon="15.2569152"><ele>24.4</ele><time>2026-04-26T14:23:07.08Z</time></trkpt><trkpt lat="37.8203691" lon="15.2570466"><ele>24.0</ele><time>2026-04-26T14:23:08.082Z</time></trkpt><trkpt lat="37.8203531" lon="15.257168"><ele>24.0</ele><time>2026-04-26T14:23:09.082Z</time></trkpt><trkpt lat="37.8203374" lon="15.2572813"><ele>24.0</ele><time>2026-04-26T14:23:10.082Z</time></trkpt><trkpt lat="37.8203223" lon="15.2573848"><ele>24.0</ele><time>2026-04-26T14:23:11.082Z</time></trkpt><trkpt lat="37.8203099" lon="15.2574799"><ele>24.0</ele><time>2026-04-26T14:23:12.081Z</time></trkpt><trkpt lat="37.8202998" lon="15.2575693"><ele>24.0</ele><time>2026-04-26T14:23:13.064Z</time></trkpt><trkpt lat="37.8202905" lon="15.2576564"><ele>24.0</ele><time>2026-04-26T14:23:14.079Z</time></trkpt><trkpt lat="37.8202779" lon="15.2577434"><ele>24.166666666666668</ele><time>2026-04-26T14:23:15.071Z</time></trkpt><trkpt lat="37.8202675" lon="15.25784"><ele>24.333333333333336</ele><time>2026-04-26T14:23:16.08Z</time></trkpt><trkpt lat="37.8202601" lon="15.2579444"><ele>24.5</ele><time>2026-04-26T14:23:17.097Z</time></trkpt><trkpt lat="37.8202558" lon="15.2580574"><ele>24.666666666666668</ele><time>2026-04-26T14:23:18.08Z</time></trkpt><trkpt lat="37.8202563" lon="15.2581798"><ele>24.833333333333336</ele><time>2026-04-26T14:23:19.082Z</time></trkpt><trkpt lat="37.8202586" lon="15.2583079"><ele>25.0</ele><time>2026-04-26T14:23:20.101Z</time></trkpt><trkpt lat="37.8202636" lon="15.2584363"><ele>25.0</ele><time>2026-04-26T14:23:21.082Z</time></trkpt><trkpt lat="37.8202659" lon="15.2585664"><ele>25.0</ele><time>2026-04-26T14:23:22.095Z</time></trkpt><trkpt lat="37.8202663" lon="15.2586933"><ele>25.0</ele><time>2026-04-26T14:23:23.067Z</time></trkpt><trkpt lat="37.8202675" lon="15.2588149"><ele>25.0</ele><time>2026-04-26T14:23:24.081Z</time></trkpt><trkpt lat="37.8202727" lon="15.2589343"><ele>25.0</ele><time>2026-04-26T14:23:25.091Z</time></trkpt><trkpt lat="37.8202852" lon="15.2590557"><ele>25.0</ele><time>2026-04-26T14:23:26.082Z</time></trkpt><trkpt lat="37.820296" lon="15.2591732"><ele>25.0</ele><time>2026-04-26T14:23:27.082Z</time></trkpt><trkpt lat="37.820306" lon="15.2592901"><ele>25.0</ele><time>2026-04-26T14:23:28.062Z</time></trkpt><trkpt lat="37.8203187" lon="15.2594127"><ele>25.0</ele><time>2026-04-26T14:23:29.065Z</time></trkpt><trkpt lat="37.8203358" lon="15.2595425"><ele>25.0</ele><time>2026-04-26T14:23:30.05Z</time></trkpt><trkpt lat="37.8203541" lon="15.2596753"><ele>24.6</ele><time>2026-04-26T14:23:31.081Z</time></trkpt><trkpt lat="37.8203734" lon="15.2598039"><ele>24.2</ele><time>2026-04-26T14:23:32.081Z</time></trkpt><trkpt lat="37.8203937" lon="15.2599276"><ele>23.799999999999997</ele><time>2026-04-26T14:23:33.085Z</time></trkpt><trkpt lat="37.8204157" lon="15.2600475"><ele>23.4</ele><time>2026-04-26T14:23:34.084Z</time></trkpt><trkpt lat="37.820441" lon="15.2601657"><ele>23.0</ele><time>2026-04-26T14:23:35.081Z</time></trkpt><trkpt lat="37.8204676" lon="15.260282"><ele>23.0</ele><time>2026-04-26T14:23:36.089Z</time></trkpt><trkpt lat="37.8204968" lon="15.2603973"><ele>23.0</ele><time>2026-04-26T14:23:37.098Z</time></trkpt><trkpt lat="37.8205267" lon="15.2605101"><ele>23.0</ele><time>2026-04-26T14:23:38.082Z</time></trkpt><trkpt lat="37.820557" lon="15.2606216"><ele>23.0</ele><time>2026-04-26T14:23:39.08Z</time></trkpt><trkpt lat="37.8205896" lon="15.2607326"><ele>23.0</ele><time>2026-04-26T14:23:40.08Z</time></trkpt><trkpt lat="37.8206239" lon="15.2608414"><ele>23.0</ele><time>2026-04-26T14:23:41.081Z</time></trkpt><trkpt lat="37.8206564" lon="15.2609469"><ele>23.0</ele><time>2026-04-26T14:23:42.081Z</time></trkpt><trkpt lat="37.8206875" lon="15.2610519"><ele>23.0</ele><time>2026-04-26T14:23:43.067Z</time></trkpt><trkpt lat="37.8207183" lon="15.2611566"><ele>23.0</ele><time>2026-04-26T14:23:44.083Z</time></trkpt><trkpt lat="37.8207523" lon="15.261267"><ele>23.0</ele><time>2026-04-26T14:23:45.109Z</time></trkpt><trkpt lat="37.8207884" lon="15.2613834"><ele>22.599999999999998</ele><time>2026-04-26T14:23:46.081Z</time></trkpt><trkpt lat="37.8208264" lon="15.2615031"><ele>22.2</ele><time>2026-04-26T14:23:47.069Z</time></trkpt><trkpt lat="37.8208669" lon="15.2616283"><ele>21.8</ele><time>2026-04-26T14:23:48.081Z</time></trkpt><trkpt lat="37.8209029" lon="15.2617454"><ele>21.4</ele><time>2026-04-26T14:23:49.081Z</time></trkpt><trkpt lat="37.820931" lon="15.2618423"><ele>21.0</ele><time>2026-04-26T14:23:50.105Z</time></trkpt><trkpt lat="37.8209602" lon="15.2619274"><ele>21.0</ele><time>2026-04-26T14:23:51.081Z</time></trkpt><trkpt lat="37.820991" lon="15.2620169"><ele>21.0</ele><time>2026-04-26T14:23:52.068Z</time></trkpt><trkpt lat="37.8210212" lon="15.2621196"><ele>21.0</ele><time>2026-04-26T14:23:53.066Z</time></trkpt><trkpt lat="37.8210507" lon="15.2622363"><ele>21.0</ele><time>2026-04-26T14:23:54.069Z</time></trkpt><trkpt lat="37.8210864" lon="15.262362"><ele>21.0</ele><time>2026-04-26T14:23:55.087Z</time></trkpt><trkpt lat="37.8211281" lon="15.2624981"><ele>21.0</ele><time>2026-04-26T14:23:56.102Z</time></trkpt><trkpt lat="37.8211821" lon="15.2626417"><ele>21.0</ele><time>2026-04-26T14:23:57.087Z</time></trkpt><trkpt lat="37.8212466" lon="15.2627834"><ele>21.0</ele><time>2026-04-26T14:23:58.062Z</time></trkpt><trkpt lat="37.8213106" lon="15.2629209"><ele>21.0</ele><time>2026-04-26T14:23:59.082Z</time></trkpt><trkpt lat="37.8213759" lon="15.2630457"><ele>21.25</ele><time>2026-04-26T14:24:00.087Z</time></trkpt><trkpt lat="37.8214456" lon="15.263158"><ele>21.5</ele><time>2026-04-26T14:24:01.094Z</time></trkpt><trkpt lat="37.821524" lon="15.2632577"><ele>21.75</ele><time>2026-04-26T14:24:02.088Z</time></trkpt><trkpt lat="37.8216116" lon="15.2633515"><ele>22.0</ele><time>2026-04-26T14:24:03.066Z</time></trkpt><trkpt lat="37.8217008" lon="15.2634485"><ele>22.0</ele><time>2026-04-26T14:24:04.062Z</time></trkpt><trkpt lat="37.8217892" lon="15.2635478"><ele>22.0</ele><time>2026-04-26T14:24:05.094Z</time></trkpt><trkpt lat="37.8218733" lon="15.2636583"><ele>22.0</ele><time>2026-04-26T14:24:06.077Z</time></trkpt><trkpt lat="37.8219537" lon="15.2637727"><ele>22.0</ele><time>2026-04-26T14:24:07.093Z</time></trkpt><trkpt lat="37.8220367" lon="15.263885"><ele>21.75</ele><time>2026-04-26T14:24:08.08Z</time></trkpt><trkpt lat="37.8221211" lon="15.2639961"><ele>21.5</ele><time>2026-04-26T14:24:09.079Z</time></trkpt><trkpt lat="37.8222046" lon="15.2641075"><ele>21.25</ele><time>2026-04-26T14:24:10.066Z</time></trkpt><trkpt lat="37.8222904" lon="15.2642181"><ele>21.0</ele><time>2026-04-26T14:24:11.08Z</time></trkpt><trkpt lat="37.8223777" lon="15.264325"><ele>21.0</ele><time>2026-04-26T14:24:12.077Z</time></trkpt><trkpt lat="37.8224639" lon="15.2644313"><ele>21.0</ele><time>2026-04-26T14:24:13.076Z</time></trkpt><trkpt lat="37.8225487" lon="15.2645348"><ele>21.0</ele><time>2026-04-26T14:24:14.086Z</time></trkpt><trkpt lat="37.8226276" lon="15.2646437"><ele>21.0</ele><time>2026-04-26T14:24:15.082Z</time></trkpt><trkpt lat="37.8227136" lon="15.264746"><ele>21.75</ele><time>2026-04-26T14:24:16.079Z</time></trkpt><trkpt lat="37.8228001" lon="15.2648531"><ele>22.5</ele><time>2026-04-26T14:24:17.081Z</time></trkpt><trkpt lat="37.822885" lon="15.264957"><ele>23.25</ele><time>2026-04-26T14:24:18.085Z</time></trkpt><trkpt lat="37.8229697" lon="15.2650538"><ele>24.0</ele><time>2026-04-26T14:24:19.085Z</time></trkpt><trkpt lat="37.823054" lon="15.265146"><ele>24.0</ele><time>2026-04-26T14:24:20.081Z</time></trkpt><trkpt lat="37.8231391" lon="15.2652324"><ele>24.0</ele><time>2026-04-26T14:24:21.078Z</time></trkpt><trkpt lat="37.8232274" lon="15.2653122"><ele>24.0</ele><time>2026-04-26T14:24:22.064Z</time></trkpt><trkpt lat="37.8233199" lon="15.2653896"><ele>24.0</ele><time>2026-04-26T14:24:23.081Z</time></trkpt><trkpt lat="37.8234152" lon="15.2654613"><ele>24.0</ele><time>2026-04-26T14:24:24.086Z</time></trkpt><trkpt lat="37.8235161" lon="15.2655342"><ele>24.0</ele><time>2026-04-26T14:24:25.087Z</time></trkpt><trkpt lat="37.8236224" lon="15.265596"><ele>24.0</ele><time>2026-04-26T14:24:26.085Z</time></trkpt><trkpt lat="37.8237321" lon="15.2656498"><ele>24.0</ele><time>2026-04-26T14:24:27.08Z</time></trkpt><trkpt lat="37.8238414" lon="15.265704"><ele>24.0</ele><time>2026-04-26T14:24:28.062Z</time></trkpt><trkpt lat="37.8239516" lon="15.2657657"><ele>24.0</ele><time>2026-04-26T14:24:29.079Z</time></trkpt><trkpt lat="37.8240634" lon="15.2658301"><ele>24.0</ele><time>2026-04-26T14:24:30.092Z</time></trkpt><trkpt lat="37.8241702" lon="15.2658884"><ele>24.0</ele><time>2026-04-26T14:24:31.065Z</time></trkpt><trkpt lat="37.8242784" lon="15.265952"><ele>24.0</ele><time>2026-04-26T14:24:32.079Z</time></trkpt><trkpt lat="37.8243838" lon="15.2660127"><ele>23.4</ele><time>2026-04-26T14:24:33.066Z</time></trkpt><trkpt lat="37.8244912" lon="15.2660697"><ele>22.799999999999997</ele><time>2026-04-26T14:24:34.099Z</time></trkpt><trkpt lat="37.8245968" lon="15.2661247"><ele>22.200000000000003</ele><time>2026-04-26T14:24:35.081Z</time></trkpt><trkpt lat="37.8246962" lon="15.2661741"><ele>21.6</ele><time>2026-04-26T14:24:36.081Z</time></trkpt><trkpt lat="37.8247927" lon="15.2662225"><ele>21.0</ele><time>2026-04-26T14:24:37.08Z</time></trkpt><trkpt lat="37.8248901" lon="15.2662686"><ele>21.0</ele><time>2026-04-26T14:24:38.082Z</time></trkpt><trkpt lat="37.8249847" lon="15.2663165"><ele>21.0</ele><time>2026-04-26T14:24:39.064Z</time></trkpt><trkpt lat="37.8250777" lon="15.2663653"><ele>21.0</ele><time>2026-04-26T14:24:40.083Z</time></trkpt><trkpt lat="37.8251734" lon="15.2664116"><ele>21.0</ele><time>2026-04-26T14:24:41.078Z</time></trkpt><trkpt lat="37.8252717" lon="15.2664565"><ele>21.0</ele><time>2026-04-26T14:24:42.08Z</time></trkpt><trkpt lat="37.8253638" lon="15.2665005"><ele>21.0</ele><time>2026-04-26T14:24:43.087Z</time></trkpt><trkpt lat="37.8254474" lon="15.2665441"><ele>21.0</ele><time>2026-04-26T14:24:44.077Z</time></trkpt><trkpt lat="37.8255151" lon="15.2665776"><ele>21.0</ele><time>2026-04-26T14:24:45.098Z</time></trkpt><trkpt lat="37.8256139" lon="15.2666186"><ele>21.0</ele><time>2026-04-26T14:24:47.08Z</time></trkpt><trkpt lat="37.8256875" lon="15.2666474"><ele>21.0</ele><time>2026-04-26T14:24:49.081Z</time></trkpt><trkpt lat="37.8257461" lon="15.2666776"><ele>21.0</ele><time>2026-04-26T14:24:51.056Z</time></trkpt><trkpt lat="37.8258112" lon="15.2667146"><ele>21.0</ele><time>2026-04-26T14:24:54.065Z</time></trkpt><trkpt lat="37.8258737" lon="15.2667523"><ele>21.0</ele><time>2026-04-26T14:24:57.081Z</time></trkpt><trkpt lat="37.8259534" lon="15.2667777"><ele>21.0</ele><time>2026-04-26T14:24:59.079Z</time></trkpt><trkpt lat="37.8260742" lon="15.2668339"><ele>21.0</ele><time>2026-04-26T14:25:01.081Z</time></trkpt><trkpt lat="37.8261411" lon="15.2668675"><ele>21.0</ele><time>2026-04-26T14:25:02.08Z</time></trkpt><trkpt lat="37.8262121" lon="15.2669077"><ele>21.0</ele><time>2026-04-26T14:25:03.083Z</time></trkpt><trkpt lat="37.8262809" lon="15.2669411"><ele>21.142857142857142</ele><time>2026-04-26T14:25:04.079Z</time></trkpt><trkpt lat="37.8263462" lon="15.2669737"><ele>21.285714285714285</ele><time>2026-04-26T14:25:05.079Z</time></trkpt><trkpt lat="37.8264106" lon="15.2670063"><ele>21.42857142857143</ele><time>2026-04-26T14:25:06.094Z</time></trkpt><trkpt lat="37.8264708" lon="15.2670393"><ele>21.57142857142857</ele><time>2026-04-26T14:25:07.09Z</time></trkpt><trkpt lat="37.8265318" lon="15.2670735"><ele>21.714285714285715</ele><time>2026-04-26T14:25:08.062Z</time></trkpt><trkpt lat="37.8266014" lon="15.2671109"><ele>21.857142857142858</ele><time>2026-04-26T14:25:09.083Z</time></trkpt><trkpt lat="37.8266761" lon="15.2671509"><ele>22.0</ele><time>2026-04-26T14:25:10.08Z</time></trkpt><trkpt lat="37.8267567" lon="15.2671906"><ele>21.400000000000002</ele><time>2026-04-26T14:25:11.09Z</time></trkpt><trkpt lat="37.8268425" lon="15.2672347"><ele>20.8</ele><time>2026-04-26T14:25:12.081Z</time></trkpt><trkpt lat="37.82693" lon="15.2672822"><ele>20.2</ele><time>2026-04-26T14:25:13.08Z</time></trkpt><trkpt lat="37.8270208" lon="15.2673316"><ele>19.6</ele><time>2026-04-26T14:25:14.08Z</time></trkpt><trkpt lat="37.8271162" lon="15.2673844"><ele>19.0</ele><time>2026-04-26T14:25:15.081Z</time></trkpt><trkpt lat="37.8272166" lon="15.2674393"><ele>19.0</ele><time>2026-04-26T14:25:16.081Z</time></trkpt><trkpt lat="37.8273224" lon="15.267497"><ele>19.0</ele><time>2026-04-26T14:25:17.08Z</time></trkpt><trkpt lat="37.8274271" lon="15.2675536"><ele>19.0</ele><time>2026-04-26T14:25:18.081Z</time></trkpt><trkpt lat="37.8275258" lon="15.2676069"><ele>19.0</ele><time>2026-04-26T14:25:19.081Z</time></trkpt><trkpt lat="37.8276203" lon="15.2676595"><ele>19.0</ele><time>2026-04-26T14:25:20.08Z</time></trkpt><trkpt lat="37.8277127" lon="15.2677072"><ele>19.71428571428571</ele><time>2026-04-26T14:25:21.088Z</time></trkpt><trkpt lat="37.8278001" lon="15.2677427"><ele>20.42857142857143</ele><time>2026-04-26T14:25:22.061Z</time></trkpt><trkpt lat="37.8278805" lon="15.26777"><ele>21.142857142857142</ele><time>2026-04-26T14:25:23.086Z</time></trkpt><trkpt lat="37.8279511" lon="15.2677868"><ele>21.857142857142854</ele><time>2026-04-26T14:25:24.097Z</time></trkpt><trkpt lat="37.8280158" lon="15.2677935"><ele>22.57142857142857</ele><time>2026-04-26T14:25:25.078Z</time></trkpt><trkpt lat="37.8280804" lon="15.2678024"><ele>23.285714285714285</ele><time>2026-04-26T14:25:26.088Z</time></trkpt><trkpt lat="37.8281491" lon="15.2678115"><ele>24.0</ele><time>2026-04-26T14:25:27.066Z</time></trkpt><trkpt lat="37.8282216" lon="15.2678228"><ele>23.999999999999996</ele><time>2026-04-26T14:25:28.08Z</time></trkpt><trkpt lat="37.8282894" lon="15.2678315"><ele>24.0</ele><time>2026-04-26T14:25:29.081Z</time></trkpt><trkpt lat="37.8283543" lon="15.2678394"><ele>24.0</ele><time>2026-04-26T14:25:30.066Z</time></trkpt><trkpt lat="37.8284173" lon="15.2678476"><ele>24.0</ele><time>2026-04-26T14:25:31.082Z</time></trkpt><trkpt lat="37.8284849" lon="15.2678602"><ele>24.0</ele><time>2026-04-26T14:25:32.079Z</time></trkpt><trkpt lat="37.8285529" lon="15.2678705"><ele>23.999999999999996</ele><time>2026-04-26T14:25:33.08Z</time></trkpt><trkpt lat="37.828624" lon="15.2678791"><ele>24.0</ele><time>2026-04-26T14:25:34.079Z</time></trkpt><trkpt lat="37.8286984" lon="15.2678863"><ele>24.6</ele><time>2026-04-26T14:25:35.065Z</time></trkpt><trkpt lat="37.8287787" lon="15.2678919"><ele>25.2</ele><time>2026-04-26T14:25:36.068Z</time></trkpt><trkpt lat="37.828868" lon="15.267903"><ele>25.800000000000004</ele><time>2026-04-26T14:25:37.1Z</time></trkpt><trkpt lat="37.8289628" lon="15.267916"><ele>26.400000000000002</ele><time>2026-04-26T14:25:38.098Z</time></trkpt><trkpt lat="37.8290624" lon="15.267929"><ele>27.0</ele><time>2026-04-26T14:25:39.083Z</time></trkpt><trkpt lat="37.8291599" lon="15.2679397"><ele>27.0</ele><time>2026-04-26T14:25:40.081Z</time></trkpt><trkpt lat="37.8292515" lon="15.2679518"><ele>27.0</ele><time>2026-04-26T14:25:41.05Z</time></trkpt><trkpt lat="37.8293399" lon="15.2679691"><ele>27.0</ele><time>2026-04-26T14:25:42.088Z</time></trkpt><trkpt lat="37.8294219" lon="15.2679862"><ele>27.0</ele><time>2026-04-26T14:25:43.081Z</time></trkpt><trkpt lat="37.8295008" lon="15.2680075"><ele>27.0</ele><time>2026-04-26T14:25:44.074Z</time></trkpt><trkpt lat="37.8295787" lon="15.2680284"><ele>27.0</ele><time>2026-04-26T14:25:45.089Z</time></trkpt><trkpt lat="37.8296557" lon="15.2680449"><ele>27.666666666666668</ele><time>2026-04-26T14:25:46.08Z</time></trkpt><trkpt lat="37.8297327" lon="15.2680625"><ele>28.333333333333336</ele><time>2026-04-26T14:25:47.079Z</time></trkpt><trkpt lat="37.8298111" lon="15.2680857"><ele>29.0</ele><time>2026-04-26T14:25:48.086Z</time></trkpt><trkpt lat="37.8298929" lon="15.2681109"><ele>29.666666666666668</ele><time>2026-04-26T14:25:49.079Z</time></trkpt><trkpt lat="37.8299798" lon="15.2681385"><ele>30.333333333333336</ele><time>2026-04-26T14:25:50.086Z</time></trkpt><trkpt lat="37.8300685" lon="15.2681624"><ele>31.0</ele><time>2026-04-26T14:25:51.074Z</time></trkpt><trkpt lat="37.8301586" lon="15.2681838"><ele>28.666666666666668</ele><time>2026-04-26T14:25:52.05Z</time></trkpt><trkpt lat="37.8302445" lon="15.2682083"><ele>26.333333333333336</ele><time>2026-04-26T14:25:53.088Z</time></trkpt><trkpt lat="37.830328" lon="15.2682301"><ele>24.0</ele><time>2026-04-26T14:25:54.077Z</time></trkpt><trkpt lat="37.8304066" lon="15.2682468"><ele>21.666666666666668</ele><time>2026-04-26T14:25:55.079Z</time></trkpt><trkpt lat="37.8304836" lon="15.2682649"><ele>19.333333333333336</ele><time>2026-04-26T14:25:56.085Z</time></trkpt><trkpt lat="37.8305628" lon="15.2682848"><ele>17.0</ele><time>2026-04-26T14:25:57.085Z</time></trkpt><trkpt lat="37.8306407" lon="15.2683008"><ele>16.999999999999996</ele><time>2026-04-26T14:25:58.084Z</time></trkpt><trkpt lat="37.830716" lon="15.2683193"><ele>17.0</ele><time>2026-04-26T14:25:59.088Z</time></trkpt><trkpt lat="37.8307883" lon="15.2683303"><ele>17.0</ele><time>2026-04-26T14:26:00.09Z</time></trkpt><trkpt lat="37.8308598" lon="15.2683421"><ele>17.0</ele><time>2026-04-26T14:26:01.097Z</time></trkpt><trkpt lat="37.8309294" lon="15.2683588"><ele>17.0</ele><time>2026-04-26T14:26:02.08Z</time></trkpt><trkpt lat="37.8309959" lon="15.2683739"><ele>16.999999999999996</ele><time>2026-04-26T14:26:03.064Z</time></trkpt><trkpt lat="37.8310611" lon="15.2683906"><ele>17.0</ele><time>2026-04-26T14:26:04.093Z</time></trkpt><trkpt lat="37.8311244" lon="15.2684107"><ele>17.166666666666668</ele><time>2026-04-26T14:26:05.08Z</time></trkpt><trkpt lat="37.8312449" lon="15.2684549"><ele>17.333333333333336</ele><time>2026-04-26T14:26:07.097Z</time></trkpt><trkpt lat="37.8313065" lon="15.2684845"><ele>17.5</ele><time>2026-04-26T14:26:08.093Z</time></trkpt><trkpt lat="37.8313738" lon="15.2685171"><ele>17.666666666666668</ele><time>2026-04-26T14:26:09.077Z</time></trkpt><trkpt lat="37.8314435" lon="15.2685571"><ele>17.833333333333332</ele><time>2026-04-26T14:26:10.062Z</time></trkpt><trkpt lat="37.831516" lon="15.2686083"><ele>18.0</ele><time>2026-04-26T14:26:11.095Z</time></trkpt><trkpt lat="37.8315912" lon="15.2686594"><ele>18.0</ele><time>2026-04-26T14:26:12.095Z</time></trkpt><trkpt lat="37.8316651" lon="15.2687122"><ele>18.0</ele><time>2026-04-26T14:26:13.08Z</time></trkpt><trkpt lat="37.8317381" lon="15.2687637"><ele>18.0</ele><time>2026-04-26T14:26:14.078Z</time></trkpt><trkpt lat="37.8318103" lon="15.2688138"><ele>18.0</ele><time>2026-04-26T14:26:15.084Z</time></trkpt><trkpt lat="37.8318805" lon="15.2688621"><ele>18.0</ele><time>2026-04-26T14:26:16.076Z</time></trkpt><trkpt lat="37.8319494" lon="15.2689083"><ele>18.0</ele><time>2026-04-26T14:26:17.061Z</time></trkpt><trkpt lat="37.8320146" lon="15.2689557"><ele>17.714285714285715</ele><time>2026-04-26T14:26:18.081Z</time></trkpt><trkpt lat="37.8320772" lon="15.269006"><ele>17.42857142857143</ele><time>2026-04-26T14:26:19.075Z</time></trkpt><trkpt lat="37.8321375" lon="15.2690564"><ele>17.142857142857142</ele><time>2026-04-26T14:26:20.08Z</time></trkpt><trkpt lat="37.8321961" lon="15.2691043"><ele>16.857142857142858</ele><time>2026-04-26T14:26:21.048Z</time></trkpt><trkpt lat="37.8322559" lon="15.2691506"><ele>16.57142857142857</ele><time>2026-04-26T14:26:22.082Z</time></trkpt><trkpt lat="37.8323144" lon="15.2691937"><ele>16.285714285714285</ele><time>2026-04-26T14:26:23.081Z</time></trkpt><trkpt lat="37.83237" lon="15.2692342"><ele>16.0</ele><time>2026-04-26T14:26:24.06Z</time></trkpt><trkpt lat="37.8324742" lon="15.269316"><ele>16.0</ele><time>2026-04-26T14:26:26.078Z</time></trkpt><trkpt lat="37.8325729" lon="15.2693967"><ele>16.0</ele><time>2026-04-26T14:26:28.091Z</time></trkpt><trkpt lat="37.832662" lon="15.2694771"><ele>16.0</ele><time>2026-04-26T14:26:30.08Z</time></trkpt><trkpt lat="37.8327548" lon="15.269557"><ele>16.0</ele><time>2026-04-26T14:26:32.084Z</time></trkpt><trkpt lat="37.8328583" lon="15.2696371"><ele>15.857142857142856</ele><time>2026-04-26T14:26:34.081Z</time></trkpt><trkpt lat="37.8329135" lon="15.2696769"><ele>15.714285714285712</ele><time>2026-04-26T14:26:35.087Z</time></trkpt><trkpt lat="37.8329726" lon="15.2697255"><ele>15.571428571428571</ele><time>2026-04-26T14:26:36.061Z</time></trkpt><trkpt lat="37.8330354" lon="15.2697816"><ele>15.428571428571427</ele><time>2026-04-26T14:26:37.08Z</time></trkpt><trkpt lat="37.8330987" lon="15.2698319"><ele>15.285714285714285</ele><time>2026-04-26T14:26:38.081Z</time></trkpt><trkpt lat="37.8331578" lon="15.2698768"><ele>15.142857142857142</ele><time>2026-04-26T14:26:39.084Z</time></trkpt><trkpt lat="37.8332112" lon="15.2699194"><ele>15.0</ele><time>2026-04-26T14:26:40.091Z</time></trkpt><trkpt lat="37.8333006" lon="15.2699931"><ele>15.0</ele><time>2026-04-26T14:26:42.087Z</time></trkpt><trkpt lat="37.8333852" lon="15.270061"><ele>15.0</ele><time>2026-04-26T14:26:44.07Z</time></trkpt><trkpt lat="37.8334435" lon="15.2701494"><ele>15.0</ele><time>2026-04-26T14:26:46.08Z</time></trkpt><trkpt lat="37.8334872" lon="15.270233"><ele>15.0</ele><time>2026-04-26T14:26:48.059Z</time></trkpt><trkpt lat="37.8335379" lon="15.2703085"><ele>15.0</ele><time>2026-04-26T14:26:50.09Z</time></trkpt><trkpt lat="37.8336007" lon="15.2704066"><ele>15.0</ele><time>2026-04-26T14:26:52.079Z</time></trkpt><trkpt lat="37.8336786" lon="15.2704972"><ele>15.4</ele><time>2026-04-26T14:26:54.086Z</time></trkpt><trkpt lat="37.8337643" lon="15.2705758"><ele>15.8</ele><time>2026-04-26T14:26:56.084Z</time></trkpt><trkpt lat="37.8338613" lon="15.2706628"><ele>16.2</ele><time>2026-04-26T14:26:58.086Z</time></trkpt><trkpt lat="37.8339528" lon="15.270739"><ele>16.6</ele><time>2026-04-26T14:27:00.08Z</time></trkpt><trkpt lat="37.8340368" lon="15.270814"><ele>17.0</ele><time>2026-04-26T14:27:02.079Z</time></trkpt><trkpt lat="37.8341445" lon="15.2709074"><ele>17.0</ele><time>2026-04-26T14:27:04.084Z</time></trkpt><trkpt lat="37.834199" lon="15.2709603"><ele>17.0</ele><time>2026-04-26T14:27:05.077Z</time></trkpt><trkpt lat="37.834277" lon="15.2710747"><ele>17.0</ele><time>2026-04-26T14:27:07.081Z</time></trkpt><trkpt lat="37.8343227" lon="15.271187"><ele>17.0</ele><time>2026-04-26T14:27:09.079Z</time></trkpt><trkpt lat="37.8343677" lon="15.2713017"><ele>17.0</ele><time>2026-04-26T14:27:11.078Z</time></trkpt><trkpt lat="37.8344121" lon="15.2714068"><ele>15.2</ele><time>2026-04-26T14:27:13.08Z</time></trkpt><trkpt lat="37.8344565" lon="15.2715294"><ele>13.399999999999999</ele><time>2026-04-26T14:27:15.078Z</time></trkpt><trkpt lat="37.8345227" lon="15.2716515"><ele>11.600000000000001</ele><time>2026-04-26T14:27:17.077Z</time></trkpt><trkpt lat="37.8346142" lon="15.2717573"><ele>9.8</ele><time>2026-04-26T14:27:19.089Z</time></trkpt><trkpt lat="37.8346649" lon="15.2718061"><ele>8.0</ele><time>2026-04-26T14:27:20.079Z</time></trkpt><trkpt lat="37.8347168" lon="15.2718516"><ele>8.0</ele><time>2026-04-26T14:27:21.079Z</time></trkpt><trkpt lat="37.8349022" lon="15.27176"><ele>8.0</ele><time>2026-04-26T14:27:22.079Z</time></trkpt><trkpt lat="37.8349944" lon="15.2718337"><ele>8.0</ele><time>2026-04-26T14:27:24.082Z</time></trkpt><trkpt lat="37.8350553" lon="15.2718609"><ele>8.0</ele><time>2026-04-26T14:27:36.082Z</time></trkpt><trkpt lat="37.8351347" lon="15.2719231"><ele>7.857142857142857</ele><time>2026-04-26T14:27:42.08Z</time></trkpt><trkpt lat="37.8352334" lon="15.2720045"><ele>7.7142857142857135</ele><time>2026-04-26T14:27:44.098Z</time></trkpt><trkpt lat="37.835287" lon="15.2720494"><ele>7.571428571428571</ele><time>2026-04-26T14:27:45.07Z</time></trkpt><trkpt lat="37.8353415" lon="15.2720916"><ele>7.428571428571429</ele><time>2026-04-26T14:27:46.064Z</time></trkpt><trkpt lat="37.8353983" lon="15.2721332"><ele>7.285714285714286</ele><time>2026-04-26T14:27:47.081Z</time></trkpt><trkpt lat="37.8354534" lon="15.2721761"><ele>7.142857142857142</ele><time>2026-04-26T14:27:48.081Z</time></trkpt><trkpt lat="37.835507" lon="15.2722202"><ele>7.0</ele><time>2026-04-26T14:27:49.081Z</time></trkpt><trkpt lat="37.8356009" lon="15.2723114"><ele>7.0</ele><time>2026-04-26T14:27:51.081Z</time></trkpt><trkpt lat="37.8356856" lon="15.2724116"><ele>6.999999999999999</ele><time>2026-04-26T14:27:53.077Z</time></trkpt><trkpt lat="37.8357503" lon="15.272504"><ele>6.999999999999999</ele><time>2026-04-26T14:27:55.08Z</time></trkpt><trkpt lat="37.8358103" lon="15.2725946"><ele>7.0</ele><time>2026-04-26T14:27:57.087Z</time></trkpt><trkpt lat="37.8358657" lon="15.2726808"><ele>7.0</ele><time>2026-04-26T14:27:59.08Z</time></trkpt><trkpt lat="37.8359326" lon="15.2727895"><ele>7.666666666666667</ele><time>2026-04-26T14:28:01.081Z</time></trkpt><trkpt lat="37.8359756" lon="15.2728518"><ele>8.333333333333334</ele><time>2026-04-26T14:28:02.08Z</time></trkpt><trkpt lat="37.8360219" lon="15.2729173"><ele>9.0</ele><time>2026-04-26T14:28:03.065Z</time></trkpt><trkpt lat="37.8360695" lon="15.2729818"><ele>9.666666666666666</ele><time>2026-04-26T14:28:04.069Z</time></trkpt><trkpt lat="37.8361121" lon="15.2730416"><ele>10.333333333333332</ele><time>2026-04-26T14:28:05.081Z</time></trkpt><trkpt lat="37.83619" lon="15.2731597"><ele>11.0</ele><time>2026-04-26T14:28:07.082Z</time></trkpt><trkpt lat="37.8362783" lon="15.2732729"><ele>11.0</ele><time>2026-04-26T14:28:09.061Z</time></trkpt><trkpt lat="37.8363234" lon="15.2733299"><ele>11.0</ele><time>2026-04-26T14:28:10.075Z</time></trkpt><trkpt lat="37.8363638" lon="15.2733912"><ele>11.0</ele><time>2026-04-26T14:28:11.061Z</time></trkpt><trkpt lat="37.8364043" lon="15.2734528"><ele>11.0</ele><time>2026-04-26T14:28:12.077Z</time></trkpt><trkpt lat="37.8364908" lon="15.2735695"><ele>11.0</ele><time>2026-04-26T14:28:14.077Z</time></trkpt><trkpt lat="37.8365713" lon="15.2736809"><ele>11.0</ele><time>2026-04-26T14:28:16.081Z</time></trkpt><trkpt lat="37.8366524" lon="15.2737846"><ele>11.0</ele><time>2026-04-26T14:28:18.061Z</time></trkpt><trkpt lat="37.8367332" lon="15.2739005"><ele>11.0</ele><time>2026-04-26T14:28:20.08Z</time></trkpt><trkpt lat="37.8368131" lon="15.2740102"><ele>11.0</ele><time>2026-04-26T14:28:22.064Z</time></trkpt><trkpt lat="37.8368967" lon="15.2741181"><ele>11.0</ele><time>2026-04-26T14:28:24.063Z</time></trkpt><trkpt lat="37.8369694" lon="15.2742256"><ele>11.666666666666666</ele><time>2026-04-26T14:28:26.083Z</time></trkpt><trkpt lat="37.8370316" lon="15.274323"><ele>12.333333333333332</ele><time>2026-04-26T14:28:28.082Z</time></trkpt><trkpt lat="37.8370963" lon="15.2744068"><ele>13.0</ele><time>2026-04-26T14:28:30.077Z</time></trkpt><trkpt lat="37.8371522" lon="15.2744804"><ele>13.666666666666666</ele><time>2026-04-26T14:28:32.064Z</time></trkpt><trkpt lat="37.837216" lon="15.2745622"><ele>14.333333333333334</ele><time>2026-04-26T14:28:35.089Z</time></trkpt><trkpt lat="37.8372718" lon="15.2746449"><ele>15.0</ele><time>2026-04-26T14:28:38.065Z</time></trkpt><trkpt lat="37.8373244" lon="15.2747078"><ele>13.333333333333334</ele><time>2026-04-26T14:28:40.057Z</time></trkpt><trkpt lat="37.8373997" lon="15.274817"><ele>11.666666666666666</ele><time>2026-04-26T14:28:42.051Z</time></trkpt><trkpt lat="37.8374413" lon="15.2748795"><ele>10.0</ele><time>2026-04-26T14:28:43.091Z</time></trkpt><trkpt lat="37.8374877" lon="15.2749445"><ele>8.333333333333334</ele><time>2026-04-26T14:28:44.079Z</time></trkpt><trkpt lat="37.8375333" lon="15.275009"><ele>6.666666666666667</ele><time>2026-04-26T14:28:45.107Z</time></trkpt><trkpt lat="37.8375809" lon="15.2750735"><ele>5.0</ele><time>2026-04-26T14:28:46.081Z</time></trkpt><trkpt lat="37.8376296" lon="15.2751383"><ele>5.714285714285714</ele><time>2026-04-26T14:28:47.084Z</time></trkpt><trkpt lat="37.8376783" lon="15.2752046"><ele>6.428571428571429</ele><time>2026-04-26T14:28:48.06Z</time></trkpt><trkpt lat="37.8377263" lon="15.2752722"><ele>7.142857142857142</ele><time>2026-04-26T14:28:49.085Z</time></trkpt><trkpt lat="37.8377753" lon="15.2753424"><ele>7.857142857142858</ele><time>2026-04-26T14:28:50.076Z</time></trkpt><trkpt lat="37.8378276" lon="15.2754117"><ele>8.571428571428571</ele><time>2026-04-26T14:28:51.089Z</time></trkpt><trkpt lat="37.8378809" lon="15.2754808"><ele>9.285714285714285</ele><time>2026-04-26T14:28:52.088Z</time></trkpt><trkpt lat="37.8379366" lon="15.2755529"><ele>10.0</ele><time>2026-04-26T14:28:53.094Z</time></trkpt><trkpt lat="37.8379913" lon="15.2756266"><ele>10.0</ele><time>2026-04-26T14:28:54.048Z</time></trkpt><trkpt lat="37.8380464" lon="15.2756992"><ele>10.0</ele><time>2026-04-26T14:28:55.092Z</time></trkpt><trkpt lat="37.8380976" lon="15.2757719"><ele>10.0</ele><time>2026-04-26T14:28:56.073Z</time></trkpt><trkpt lat="37.8381493" lon="15.2758435"><ele>10.0</ele><time>2026-04-26T14:28:57.089Z</time></trkpt><trkpt lat="37.8381993" lon="15.2759157"><ele>10.0</ele><time>2026-04-26T14:28:58.089Z</time></trkpt><trkpt lat="37.838252" lon="15.2759806"><ele>10.0</ele><time>2026-04-26T14:28:59.084Z</time></trkpt><trkpt lat="37.8383045" lon="15.2760398"><ele>10.0</ele><time>2026-04-26T14:29:00.08Z</time></trkpt><trkpt lat="37.8383596" lon="15.2760922"><ele>10.0</ele><time>2026-04-26T14:29:01.094Z</time></trkpt><trkpt lat="37.8384151" lon="15.2761404"><ele>10.0</ele><time>2026-04-26T14:29:02.048Z</time></trkpt><trkpt lat="37.8384727" lon="15.2761779"><ele>10.0</ele><time>2026-04-26T14:29:03.067Z</time></trkpt><trkpt lat="37.8385782" lon="15.2762428"><ele>10.0</ele><time>2026-04-26T14:29:05.064Z</time></trkpt><trkpt lat="37.8386852" lon="15.2763073"><ele>10.0</ele><time>2026-04-26T14:29:07.081Z</time></trkpt><trkpt lat="37.8387839" lon="15.276379"><ele>9.75</ele><time>2026-04-26T14:29:09.097Z</time></trkpt><trkpt lat="37.8388897" lon="15.2764473"><ele>9.5</ele><time>2026-04-26T14:29:11.084Z</time></trkpt><trkpt lat="37.8389948" lon="15.2765153"><ele>9.25</ele><time>2026-04-26T14:29:13.068Z</time></trkpt><trkpt lat="37.8390933" lon="15.2765813"><ele>9.0</ele><time>2026-04-26T14:29:15.106Z</time></trkpt><trkpt lat="37.8391835" lon="15.276646"><ele>9.0</ele><time>2026-04-26T14:29:17.08Z</time></trkpt><trkpt lat="37.8392691" lon="15.2766994"><ele>9.0</ele><time>2026-04-26T14:29:19.085Z</time></trkpt><trkpt lat="37.8393479" lon="15.2767473"><ele>9.0</ele><time>2026-04-26T14:29:21.077Z</time></trkpt><trkpt lat="37.8394166" lon="15.2767938"><ele>9.0</ele><time>2026-04-26T14:29:23.082Z</time></trkpt><trkpt lat="37.839483" lon="15.2768331"><ele>9.0</ele><time>2026-04-26T14:29:25.076Z</time></trkpt><trkpt lat="37.8395392" lon="15.2768765"><ele>9.0</ele><time>2026-04-26T14:29:27.089Z</time></trkpt><trkpt lat="37.8395955" lon="15.2769145"><ele>10.0</ele><time>2026-04-26T14:29:29.081Z</time></trkpt><trkpt lat="37.8396602" lon="15.2769509"><ele>11.0</ele><time>2026-04-26T14:29:31.08Z</time></trkpt><trkpt lat="37.8397395" lon="15.2769967"><ele>12.0</ele><time>2026-04-26T14:29:33.082Z</time></trkpt><trkpt lat="37.8398189" lon="15.2770534"><ele>13.0</ele><time>2026-04-26T14:29:35.079Z</time></trkpt><trkpt lat="37.8398945" lon="15.2771148"><ele>14.0</ele><time>2026-04-26T14:29:37.081Z</time></trkpt><trkpt lat="37.8399564" lon="15.2771739"><ele>15.0</ele><time>2026-04-26T14:29:39.08Z</time></trkpt><trkpt lat="37.8400051" lon="15.2772286"><ele>15.0</ele><time>2026-04-26T14:29:41.059Z</time></trkpt><trkpt lat="37.8400686" lon="15.2772389"><ele>15.0</ele><time>2026-04-26T14:36:14.082Z</time></trkpt><trkpt lat="37.8401273" lon="15.2773054"><ele>15.0</ele><time>2026-04-26T14:36:17.051Z</time></trkpt><trkpt lat="37.8401999" lon="15.2773784"><ele>15.0</ele><time>2026-04-26T14:36:19.092Z</time></trkpt><trkpt lat="37.8402719" lon="15.2774635"><ele>15.0</ele><time>2026-04-26T14:36:21.091Z</time></trkpt><trkpt lat="37.8403528" lon="15.2775462"><ele>15.0</ele><time>2026-04-26T14:36:23.092Z</time></trkpt><trkpt lat="37.8404259" lon="15.2776406"><ele>15.5</ele><time>2026-04-26T14:36:25.081Z</time></trkpt><trkpt lat="37.8405015" lon="15.2777394"><ele>16.0</ele><time>2026-04-26T14:36:27.075Z</time></trkpt><trkpt lat="37.8405728" lon="15.277843"><ele>16.5</ele><time>2026-04-26T14:36:29.088Z</time></trkpt><trkpt lat="37.8406418" lon="15.2779581"><ele>17.0</ele><time>2026-04-26T14:36:31.067Z</time></trkpt><trkpt lat="37.8407174" lon="15.2780802"><ele>17.6</ele><time>2026-04-26T14:36:33.079Z</time></trkpt><trkpt lat="37.8407912" lon="15.278194"><ele>18.2</ele><time>2026-04-26T14:36:35.08Z</time></trkpt><trkpt lat="37.8408652" lon="15.2783031"><ele>18.8</ele><time>2026-04-26T14:36:37.064Z</time></trkpt><trkpt lat="37.840935" lon="15.2784083"><ele>19.4</ele><time>2026-04-26T14:36:39.099Z</time></trkpt><trkpt lat="37.8409934" lon="15.2785118"><ele>20.0</ele><time>2026-04-26T14:36:41.076Z</time></trkpt><trkpt lat="37.8410399" lon="15.2786008"><ele>20.0</ele><time>2026-04-26T14:36:43.089Z</time></trkpt><trkpt lat="37.8410884" lon="15.2786958"><ele>20.0</ele><time>2026-04-26T14:36:45.085Z</time></trkpt><trkpt lat="37.8411407" lon="15.2787983"><ele>20.0</ele><time>2026-04-26T14:36:47.081Z</time></trkpt><trkpt lat="37.8411818" lon="15.2789028"><ele>20.0</ele><time>2026-04-26T14:36:49.078Z</time></trkpt><trkpt lat="37.841209" lon="15.2790089"><ele>20.0</ele><time>2026-04-26T14:36:51.079Z</time></trkpt><trkpt lat="37.8412332" lon="15.2791071"><ele>20.0</ele><time>2026-04-26T14:36:53.079Z</time></trkpt><trkpt lat="37.8412599" lon="15.2792013"><ele>18.4</ele><time>2026-04-26T14:36:55.086Z</time></trkpt><trkpt lat="37.8412983" lon="15.2793085"><ele>16.8</ele><time>2026-04-26T14:36:57.067Z</time></trkpt><trkpt lat="37.8413531" lon="15.2794111"><ele>15.2</ele><time>2026-04-26T14:36:59.082Z</time></trkpt><trkpt lat="37.841422" lon="15.2795022"><ele>13.6</ele><time>2026-04-26T14:37:01.075Z</time></trkpt><trkpt lat="37.8415008" lon="15.27957"><ele>12.0</ele><time>2026-04-26T14:37:03.09Z</time></trkpt><trkpt lat="37.8415763" lon="15.2796253"><ele>12.0</ele><time>2026-04-26T14:37:05.091Z</time></trkpt><trkpt lat="37.8416533" lon="15.2796669"><ele>12.0</ele><time>2026-04-26T14:37:07.082Z</time></trkpt><trkpt lat="37.8417293" lon="15.2797194"><ele>12.0</ele><time>2026-04-26T14:37:09.083Z</time></trkpt><trkpt lat="37.8418049" lon="15.2797714"><ele>12.0</ele><time>2026-04-26T14:37:11.081Z</time></trkpt><trkpt lat="37.8418833" lon="15.2798199"><ele>12.0</ele><time>2026-04-26T14:37:13.08Z</time></trkpt><trkpt lat="37.841959" lon="15.2798722"><ele>12.0</ele><time>2026-04-26T14:37:15.093Z</time></trkpt><trkpt lat="37.842041" lon="15.2799171"><ele>11.666666666666666</ele><time>2026-04-26T14:37:17.084Z</time></trkpt><trkpt lat="37.8421197" lon="15.2799608"><ele>11.333333333333334</ele><time>2026-04-26T14:37:19.077Z</time></trkpt><trkpt lat="37.8421848" lon="15.2800003"><ele>11.0</ele><time>2026-04-26T14:37:21.079Z</time></trkpt><trkpt lat="37.8422556" lon="15.2800476"><ele>10.666666666666668</ele><time>2026-04-26T14:37:24.08Z</time></trkpt><trkpt lat="37.8423193" lon="15.2800931"><ele>10.333333333333334</ele><time>2026-04-26T14:37:28.083Z</time></trkpt><trkpt lat="37.8423831" lon="15.2801114"><ele>10.0</ele><time>2026-04-26T14:37:31.095Z</time></trkpt><trkpt lat="37.8424606" lon="15.2800927"><ele>10.0</ele><time>2026-04-26T14:37:34.08Z</time></trkpt><trkpt lat="37.8425308" lon="15.2800472"><ele>10.0</ele><time>2026-04-26T14:37:38.079Z</time></trkpt><trkpt lat="37.8424938" lon="15.2799778"><ele>10.0</ele><time>2026-04-26T14:39:21.058Z</time></trkpt><trkpt lat="37.8425279" lon="15.2800565"><ele>10.0</ele><time>2026-04-26T14:40:01.049Z</time></trkpt><trkpt lat="37.8425768" lon="15.2799673"><ele>10.0</ele><time>2026-04-26T14:41:14.134Z</time></trkpt><trkpt lat="37.8425294" lon="15.2798969"><ele>10.0</ele><time>2026-04-26T14:41:24.527Z</time></trkpt><trkpt lat="37.8424682" lon="15.2799314"><ele>10.0</ele><time>2026-04-26T14:41:44.039Z</time></trkpt><trkpt lat="37.8425217" lon="15.2799862"><ele>10.0</ele><time>2026-04-26T14:41:50.037Z</time></trkpt><trkpt lat="37.8425255" lon="15.2799057"><ele>10.0</ele><time>2026-04-26T14:42:53.046Z</time></trkpt><trkpt lat="37.8424684" lon="15.2799519"><ele>10.0</ele><time>2026-04-26T14:43:29.059Z</time></trkpt><trkpt lat="37.8425278" lon="15.2799997"><ele>10.0</ele><time>2026-04-26T14:43:54.069Z</time></trkpt><trkpt lat="37.8425518" lon="15.2800737"><ele>10.0</ele><time>2026-04-26T14:44:27.066Z</time></trkpt><trkpt lat="37.842504" lon="15.2800187"><ele>10.0</ele><time>2026-04-26T14:47:03.065Z</time></trkpt><trkpt lat="37.8424286" lon="15.2800417"><ele>10.0</ele><time>2026-04-26T14:47:10.069Z</time></trkpt><trkpt lat="37.842406" lon="15.2801387"><ele>10.0</ele><time>2026-04-26T14:47:16.081Z</time></trkpt><trkpt lat="37.8424389" lon="15.2802218"><ele>10.0</ele><time>2026-04-26T14:47:21.077Z</time></trkpt><trkpt lat="37.8424645" lon="15.2801418"><ele>10.0</ele><time>2026-04-26T14:56:32.07Z</time></trkpt><trkpt lat="37.8424938" lon="15.2800556"><ele>10.0</ele><time>2026-04-26T14:56:37.062Z</time></trkpt><trkpt lat="37.8424817" lon="15.2799762"><ele>10.0</ele><time>2026-04-26T14:56:53.065Z</time></trkpt><trkpt lat="37.8424626" lon="15.2800624"><ele>10.0</ele><time>2026-04-26T14:57:56.07Z</time></trkpt><trkpt lat="37.842434" lon="15.2801577"><ele>10.0</ele><time>2026-04-26T14:58:00.069Z</time></trkpt><trkpt lat="37.8424634" lon="15.2802284"><ele>10.0</ele><time>2026-04-26T14:58:07.05Z</time></trkpt><trkpt lat="37.8424778" lon="15.2801322"><ele>10.0</ele><time>2026-04-26T15:26:26.067Z</time></trkpt><trkpt lat="37.8424761" lon="15.2800423"><ele>10.0</ele><time>2026-04-26T15:26:32.064Z</time></trkpt><trkpt lat="37.8425188" lon="15.2799621"><ele>10.0</ele><time>2026-04-26T15:26:41.059Z</time></trkpt><trkpt lat="37.8425591" lon="15.280033"><ele>10.0</ele><time>2026-04-26T15:27:32.048Z</time></trkpt><trkpt lat="37.8425339" lon="15.279915"><ele>10.0</ele><time>2026-04-26T15:37:46.071Z</time></trkpt><trkpt lat="37.8424934" lon="15.2798181"><ele>10.666666666666668</ele><time>2026-04-26T15:37:53.061Z</time></trkpt><trkpt lat="37.8423932" lon="15.2797287"><ele>11.333333333333334</ele><time>2026-04-26T15:37:54.066Z</time></trkpt><trkpt lat="37.8423205" lon="15.2796727"><ele>12.0</ele><time>2026-04-26T15:37:57.078Z</time></trkpt><trkpt lat="37.8422544" lon="15.2796173"><ele>12.666666666666668</ele><time>2026-04-26T15:38:01.074Z</time></trkpt><trkpt lat="37.8422043" lon="15.2795575"><ele>13.333333333333334</ele><time>2026-04-26T15:38:06.078Z</time></trkpt><trkpt lat="37.842148" lon="15.2794842"><ele>14.0</ele><time>2026-04-26T15:38:26.08Z</time></trkpt><trkpt lat="37.8421237" lon="15.279397"><ele>14.000000000000002</ele><time>2026-04-26T15:38:29.075Z</time></trkpt><trkpt lat="37.842108" lon="15.2793186"><ele>14.0</ele><time>2026-04-26T15:38:31.082Z</time></trkpt><trkpt lat="37.8420793" lon="15.2792455"><ele>14.0</ele><time>2026-04-26T15:38:33.074Z</time></trkpt><trkpt lat="37.8420607" lon="15.2791629"><ele>14.0</ele><time>2026-04-26T15:38:35.073Z</time></trkpt><trkpt lat="37.8420213" lon="15.279054"><ele>14.000000000000002</ele><time>2026-04-26T15:38:38.053Z</time></trkpt><trkpt lat="37.8419816" lon="15.2789784"><ele>14.0</ele><time>2026-04-26T15:38:40.077Z</time></trkpt><trkpt lat="37.8419172" lon="15.2788923"><ele>15.2</ele><time>2026-04-26T15:38:42.072Z</time></trkpt><trkpt lat="37.8418508" lon="15.2788066"><ele>16.4</ele><time>2026-04-26T15:38:44.076Z</time></trkpt><trkpt lat="37.8417661" lon="15.2787302"><ele>17.6</ele><time>2026-04-26T15:38:46.041Z</time></trkpt><trkpt lat="37.8416697" lon="15.2786528"><ele>18.8</ele><time>2026-04-26T15:38:48.08Z</time></trkpt><trkpt lat="37.8415852" lon="15.2785433"><ele>20.0</ele><time>2026-04-26T15:38:50.076Z</time></trkpt><trkpt lat="37.8415413" lon="15.2784788"><ele>20.0</ele><time>2026-04-26T15:38:51.075Z</time></trkpt><trkpt lat="37.8414934" lon="15.2784124"><ele>20.0</ele><time>2026-04-26T15:38:52.075Z</time></trkpt><trkpt lat="37.841441" lon="15.2783437"><ele>20.0</ele><time>2026-04-26T15:38:53.075Z</time></trkpt><trkpt lat="37.8413924" lon="15.2782717"><ele>20.0</ele><time>2026-04-26T15:38:54.074Z</time></trkpt><trkpt lat="37.8413481" lon="15.2782019"><ele>20.0</ele><time>2026-04-26T15:38:55.077Z</time></trkpt><trkpt lat="37.8412742" lon="15.2780897"><ele>20.0</ele><time>2026-04-26T15:38:57.083Z</time></trkpt><trkpt lat="37.8412156" lon="15.2779957"><ele>19.4</ele><time>2026-04-26T15:38:59.074Z</time></trkpt><trkpt lat="37.8411564" lon="15.2779104"><ele>18.8</ele><time>2026-04-26T15:39:01.047Z</time></trkpt><trkpt lat="37.8410913" lon="15.2778007"><ele>18.2</ele><time>2026-04-26T15:39:03.077Z</time></trkpt><trkpt lat="37.841013" lon="15.2776786"><ele>17.6</ele><time>2026-04-26T15:39:05.08Z</time></trkpt><trkpt lat="37.8409399" lon="15.2775852"><ele>17.0</ele><time>2026-04-26T15:39:07.076Z</time></trkpt><trkpt lat="37.8408967" lon="15.2775246"><ele>17.0</ele><time>2026-04-26T15:39:09.072Z</time></trkpt><trkpt lat="37.8408387" lon="15.2774534"><ele>17.0</ele><time>2026-04-26T15:39:13.082Z</time></trkpt><trkpt lat="37.8407851" lon="15.2774"><ele>17.0</ele><time>2026-04-26T15:39:16.075Z</time></trkpt><trkpt lat="37.8407282" lon="15.2773425"><ele>17.0</ele><time>2026-04-26T15:39:20.078Z</time></trkpt><trkpt lat="37.8406654" lon="15.2773056"><ele>17.0</ele><time>2026-04-26T15:39:33.061Z</time></trkpt><trkpt lat="37.8406154" lon="15.2772369"><ele>17.0</ele><time>2026-04-26T15:39:35.086Z</time></trkpt><trkpt lat="37.8405547" lon="15.2771539"><ele>16.666666666666668</ele><time>2026-04-26T15:39:38.058Z</time></trkpt><trkpt lat="37.8404909" lon="15.2770798"><ele>16.333333333333336</ele><time>2026-04-26T15:39:41.076Z</time></trkpt><trkpt lat="37.8404257" lon="15.2770137"><ele>16.0</ele><time>2026-04-26T15:39:44.08Z</time></trkpt><trkpt lat="37.8403572" lon="15.2769412"><ele>15.666666666666668</ele><time>2026-04-26T15:39:47.066Z</time></trkpt><trkpt lat="37.8402794" lon="15.2768742"><ele>15.333333333333334</ele><time>2026-04-26T15:39:50.08Z</time></trkpt><trkpt lat="37.8401991" lon="15.276835"><ele>15.0</ele><time>2026-04-26T15:39:53.085Z</time></trkpt><trkpt lat="37.8401225" lon="15.2767885"><ele>15.0</ele><time>2026-04-26T15:39:56.079Z</time></trkpt><trkpt lat="37.8400651" lon="15.2767548"><ele>15.0</ele><time>2026-04-26T15:39:58.048Z</time></trkpt><trkpt lat="37.8399829" lon="15.2767306"><ele>15.0</ele><time>2026-04-26T15:40:01.088Z</time></trkpt><trkpt lat="37.8399054" lon="15.2766976"><ele>15.0</ele><time>2026-04-26T15:40:03.081Z</time></trkpt><trkpt lat="37.8398326" lon="15.2766496"><ele>15.0</ele><time>2026-04-26T15:40:05.081Z</time></trkpt><trkpt lat="37.8397695" lon="15.2766063"><ele>15.0</ele><time>2026-04-26T15:40:07.085Z</time></trkpt><trkpt lat="37.839697" lon="15.2765592"><ele>15.0</ele><time>2026-04-26T15:40:09.08Z</time></trkpt><trkpt lat="37.8396029" lon="15.276494"><ele>15.0</ele><time>2026-04-26T15:40:11.069Z</time></trkpt><trkpt lat="37.8395" lon="15.2764263"><ele>15.0</ele><time>2026-04-26T15:40:13.081Z</time></trkpt><trkpt lat="37.8393966" lon="15.2763664"><ele>15.0</ele><time>2026-04-26T15:40:15.088Z</time></trkpt><trkpt lat="37.8392963" lon="15.276308"><ele>15.0</ele><time>2026-04-26T15:40:17.077Z</time></trkpt><trkpt lat="37.8392129" lon="15.2762656"><ele>15.666666666666666</ele><time>2026-04-26T15:40:19.069Z</time></trkpt><trkpt lat="37.8391424" lon="15.2762259"><ele>16.333333333333332</ele><time>2026-04-26T15:40:21.08Z</time></trkpt><trkpt lat="37.8390857" lon="15.2761892"><ele>17.0</ele><time>2026-04-26T15:40:23.086Z</time></trkpt><trkpt lat="37.8390276" lon="15.276156"><ele>17.666666666666664</ele><time>2026-04-26T15:40:25.047Z</time></trkpt><trkpt lat="37.8389448" lon="15.2761072"><ele>18.333333333333332</ele><time>2026-04-26T15:40:28.076Z</time></trkpt><trkpt lat="37.8388666" lon="15.2760543"><ele>19.0</ele><time>2026-04-26T15:40:31.045Z</time></trkpt><trkpt lat="37.8388074" lon="15.2760184"><ele>19.0</ele><time>2026-04-26T15:40:33.066Z</time></trkpt><trkpt lat="37.8387364" lon="15.2759771"><ele>19.0</ele><time>2026-04-26T15:40:35.048Z</time></trkpt><trkpt lat="37.8386737" lon="15.2759351"><ele>19.0</ele><time>2026-04-26T15:40:37.077Z</time></trkpt><trkpt lat="37.8385884" lon="15.2758891"><ele>19.0</ele><time>2026-04-26T15:40:40.062Z</time></trkpt><trkpt lat="37.8385093" lon="15.2758329"><ele>19.0</ele><time>2026-04-26T15:40:43.085Z</time></trkpt><trkpt lat="37.8384256" lon="15.2757839"><ele>19.0</ele><time>2026-04-26T15:40:46.083Z</time></trkpt><trkpt lat="37.8383619" lon="15.2757356"><ele>18.833333333333332</ele><time>2026-04-26T15:40:48.075Z</time></trkpt><trkpt lat="37.8383112" lon="15.2756834"><ele>18.666666666666664</ele><time>2026-04-26T15:40:50.081Z</time></trkpt><trkpt lat="37.8382666" lon="15.2756148"><ele>18.5</ele><time>2026-04-26T15:40:52.076Z</time></trkpt><trkpt lat="37.838214" lon="15.2755361"><ele>18.333333333333332</ele><time>2026-04-26T15:40:54.042Z</time></trkpt><trkpt lat="37.8381602" lon="15.2754596"><ele>18.166666666666668</ele><time>2026-04-26T15:40:56.075Z</time></trkpt><trkpt lat="37.8381072" lon="15.2753837"><ele>18.0</ele><time>2026-04-26T15:40:58.053Z</time></trkpt><trkpt lat="37.838049" lon="15.2753039"><ele>18.0</ele><time>2026-04-26T15:41:00.062Z</time></trkpt><trkpt lat="37.8379597" lon="15.2751855"><ele>18.0</ele><time>2026-04-26T15:41:03.089Z</time></trkpt><trkpt lat="37.8378928" lon="15.2751073"><ele>18.0</ele><time>2026-04-26T15:41:05.08Z</time></trkpt><trkpt lat="37.8378251" lon="15.2750183"><ele>18.0</ele><time>2026-04-26T15:41:07.08Z</time></trkpt><trkpt lat="37.8377522" lon="15.2749285"><ele>18.0</ele><time>2026-04-26T15:41:09.084Z</time></trkpt><trkpt lat="37.837687" lon="15.2748306"><ele>17.5</ele><time>2026-04-26T15:41:11.079Z</time></trkpt><trkpt lat="37.8376209" lon="15.2747339"><ele>17.0</ele><time>2026-04-26T15:41:13.076Z</time></trkpt><trkpt lat="37.8375598" lon="15.2746409"><ele>16.5</ele><time>2026-04-26T15:41:15.095Z</time></trkpt><trkpt lat="37.8375227" lon="15.2745749"><ele>16.0</ele><time>2026-04-26T15:41:17.078Z</time></trkpt><trkpt lat="37.8374759" lon="15.2744978"><ele>15.5</ele><time>2026-04-26T15:41:20.078Z</time></trkpt><trkpt lat="37.8374192" lon="15.2744095"><ele>15.0</ele><time>2026-04-26T15:41:23.079Z</time></trkpt><trkpt lat="37.8373726" lon="15.2743475"><ele>15.0</ele><time>2026-04-26T15:41:25.08Z</time></trkpt><trkpt lat="37.8373272" lon="15.2742722"><ele>15.0</ele><time>2026-04-26T15:41:27.079Z</time></trkpt><trkpt lat="37.8372733" lon="15.2741921"><ele>15.0</ele><time>2026-04-26T15:41:29.042Z</time></trkpt><trkpt lat="37.8372167" lon="15.2741101"><ele>15.0</ele><time>2026-04-26T15:41:31.078Z</time></trkpt><trkpt lat="37.8371552" lon="15.2740304"><ele>15.0</ele><time>2026-04-26T15:41:33.079Z</time></trkpt><trkpt lat="37.837097" lon="15.2739498"><ele>15.0</ele><time>2026-04-26T15:41:35.076Z</time></trkpt><trkpt lat="37.8370438" lon="15.2738739"><ele>14.2</ele><time>2026-04-26T15:41:37.072Z</time></trkpt><trkpt lat="37.8369953" lon="15.2738005"><ele>13.4</ele><time>2026-04-26T15:41:39.076Z</time></trkpt><trkpt lat="37.8369387" lon="15.273726"><ele>12.600000000000001</ele><time>2026-04-26T15:41:41.081Z</time></trkpt><trkpt lat="37.8368655" lon="15.273626"><ele>11.8</ele><time>2026-04-26T15:41:43.082Z</time></trkpt><trkpt lat="37.8367806" lon="15.2735211"><ele>11.0</ele><time>2026-04-26T15:41:45.048Z</time></trkpt><trkpt lat="37.8367076" lon="15.2734215"><ele>11.0</ele><time>2026-04-26T15:41:47.08Z</time></trkpt><trkpt lat="37.8366535" lon="15.2733296"><ele>11.0</ele><time>2026-04-26T15:41:49.076Z</time></trkpt><trkpt lat="37.8365915" lon="15.2732452"><ele>11.0</ele><time>2026-04-26T15:41:51.072Z</time></trkpt><trkpt lat="37.8366158" lon="15.2731599"><ele>11.0</ele><time>2026-04-26T15:41:52.048Z</time></trkpt><trkpt lat="37.8365746" lon="15.2730637"><ele>11.0</ele><time>2026-04-26T15:41:54.075Z</time></trkpt><trkpt lat="37.8365279" lon="15.2729449"><ele>11.0</ele><time>2026-04-26T15:41:56.073Z</time></trkpt><trkpt lat="37.8364646" lon="15.272834"><ele>12.0</ele><time>2026-04-26T15:41:58.078Z</time></trkpt><trkpt lat="37.836397" lon="15.2727297"><ele>13.0</ele><time>2026-04-26T15:42:00.048Z</time></trkpt><trkpt lat="37.8363275" lon="15.2726231"><ele>14.000000000000002</ele><time>2026-04-26T15:42:02.073Z</time></trkpt><trkpt lat="37.8362678" lon="15.2725251"><ele>15.0</ele><time>2026-04-26T15:42:04.093Z</time></trkpt><trkpt lat="37.83621" lon="15.2724368"><ele>16.0</ele><time>2026-04-26T15:42:06.05Z</time></trkpt><trkpt lat="37.8361585" lon="15.2723783"><ele>15.999999999999998</ele><time>2026-04-26T15:42:09.041Z</time></trkpt><trkpt lat="37.8361036" lon="15.2722968"><ele>16.0</ele><time>2026-04-26T15:42:13.082Z</time></trkpt><trkpt lat="37.8360708" lon="15.2722264"><ele>16.0</ele><time>2026-04-26T15:42:15.082Z</time></trkpt><trkpt lat="37.8360262" lon="15.2721327"><ele>16.0</ele><time>2026-04-26T15:42:18.08Z</time></trkpt><trkpt lat="37.8359843" lon="15.2720446"><ele>15.999999999999998</ele><time>2026-04-26T15:42:21.078Z</time></trkpt><trkpt lat="37.8359436" lon="15.2719625"><ele>16.0</ele><time>2026-04-26T15:42:24.072Z</time></trkpt><trkpt lat="37.8358907" lon="15.2718681"><ele>15.499999999999998</ele><time>2026-04-26T15:42:27.078Z</time></trkpt><trkpt lat="37.8358499" lon="15.2717949"><ele>15.0</ele><time>2026-04-26T15:42:29.076Z</time></trkpt><trkpt lat="37.8357884" lon="15.2717122"><ele>14.5</ele><time>2026-04-26T15:42:32.061Z</time></trkpt><trkpt lat="37.8357413" lon="15.2716499"><ele>14.0</ele><time>2026-04-26T15:42:34.076Z</time></trkpt><trkpt lat="37.8356781" lon="15.2715719"><ele>13.499999999999998</ele><time>2026-04-26T15:42:37.08Z</time></trkpt><trkpt lat="37.8356265" lon="15.2715142"><ele>13.0</ele><time>2026-04-26T15:42:40.082Z</time></trkpt><trkpt lat="37.8354723" lon="15.271596"><ele>13.0</ele><time>2026-04-26T15:42:41.076Z</time></trkpt><trkpt lat="37.835422" lon="15.2715412"><ele>13.0</ele><time>2026-04-26T15:42:44.078Z</time></trkpt><trkpt lat="37.8353611" lon="15.2714846"><ele>13.0</ele><time>2026-04-26T15:42:46.065Z</time></trkpt><trkpt lat="37.8352957" lon="15.2714322"><ele>13.0</ele><time>2026-04-26T15:42:48.076Z</time></trkpt><trkpt lat="37.8352283" lon="15.2713791"><ele>13.0</ele><time>2026-04-26T15:42:50.082Z</time></trkpt><trkpt lat="37.8351598" lon="15.2713276"><ele>13.0</ele><time>2026-04-26T15:42:52.082Z</time></trkpt><trkpt lat="37.8351009" lon="15.271289"><ele>13.0</ele><time>2026-04-26T15:42:54.08Z</time></trkpt><trkpt lat="37.8350452" lon="15.2712483"><ele>14.4</ele><time>2026-04-26T15:42:56.084Z</time></trkpt><trkpt lat="37.8349731" lon="15.2711948"><ele>15.8</ele><time>2026-04-26T15:42:58.076Z</time></trkpt><trkpt lat="37.8348913" lon="15.2711329"><ele>17.2</ele><time>2026-04-26T15:43:00.079Z</time></trkpt><trkpt lat="37.8348036" lon="15.2710634"><ele>18.6</ele><time>2026-04-26T15:43:02.076Z</time></trkpt><trkpt lat="37.8347093" lon="15.2709965"><ele>20.0</ele><time>2026-04-26T15:43:04.08Z</time></trkpt><trkpt lat="37.8346092" lon="15.2709161"><ele>20.0</ele><time>2026-04-26T15:43:06.077Z</time></trkpt><trkpt lat="37.8344991" lon="15.2708336"><ele>20.0</ele><time>2026-04-26T15:43:08.041Z</time></trkpt><trkpt lat="37.8344399" lon="15.2707924"><ele>20.0</ele><time>2026-04-26T15:43:09.078Z</time></trkpt><trkpt lat="37.834381" lon="15.2707519"><ele>20.0</ele><time>2026-04-26T15:43:10.08Z</time></trkpt><trkpt lat="37.8343222" lon="15.2707123"><ele>20.0</ele><time>2026-04-26T15:43:11.079Z</time></trkpt><trkpt lat="37.8342614" lon="15.2706693"><ele>20.0</ele><time>2026-04-26T15:43:12.083Z</time></trkpt><trkpt lat="37.8341958" lon="15.2706274"><ele>20.714285714285715</ele><time>2026-04-26T15:43:13.079Z</time></trkpt><trkpt lat="37.8341286" lon="15.270584"><ele>21.42857142857143</ele><time>2026-04-26T15:43:14.068Z</time></trkpt><trkpt lat="37.8340617" lon="15.2705408"><ele>22.142857142857146</ele><time>2026-04-26T15:43:15.048Z</time></trkpt><trkpt lat="37.8339946" lon="15.2704947"><ele>22.857142857142858</ele><time>2026-04-26T15:43:16.048Z</time></trkpt><trkpt lat="37.8339276" lon="15.2704523"><ele>23.571428571428573</ele><time>2026-04-26T15:43:17.075Z</time></trkpt><trkpt lat="37.8338645" lon="15.2704124"><ele>24.28571428571429</ele><time>2026-04-26T15:43:18.076Z</time></trkpt><trkpt lat="37.8338059" lon="15.2703707"><ele>25.0</ele><time>2026-04-26T15:43:19.076Z</time></trkpt><trkpt lat="37.833751" lon="15.2703307"><ele>25.0</ele><time>2026-04-26T15:43:20.075Z</time></trkpt><trkpt lat="37.8336468" lon="15.2702652"><ele>25.0</ele><time>2026-04-26T15:43:22.082Z</time></trkpt><trkpt lat="37.8335489" lon="15.2701877"><ele>25.0</ele><time>2026-04-26T15:43:24.079Z</time></trkpt><trkpt lat="37.8334489" lon="15.2701186"><ele>25.0</ele><time>2026-04-26T15:43:26.074Z</time></trkpt><trkpt lat="37.8333494" lon="15.2700462"><ele>25.666666666666668</ele><time>2026-04-26T15:43:28.075Z</time></trkpt><trkpt lat="37.8332488" lon="15.2699645"><ele>26.333333333333336</ele><time>2026-04-26T15:43:30.075Z</time></trkpt><trkpt lat="37.8331917" lon="15.2699099"><ele>27.0</ele><time>2026-04-26T15:43:31.077Z</time></trkpt><trkpt lat="37.8331309" lon="15.2698502"><ele>27.666666666666664</ele><time>2026-04-26T15:43:32.08Z</time></trkpt><trkpt lat="37.8330688" lon="15.2697953"><ele>28.333333333333332</ele><time>2026-04-26T15:43:33.082Z</time></trkpt><trkpt lat="37.833009" lon="15.2697417"><ele>29.0</ele><time>2026-04-26T15:43:34.077Z</time></trkpt><trkpt lat="37.832951" lon="15.2696936"><ele>28.999999999999996</ele><time>2026-04-26T15:43:35.045Z</time></trkpt><trkpt lat="37.8328908" lon="15.2696466"><ele>29.0</ele><time>2026-04-26T15:43:36.062Z</time></trkpt><trkpt lat="37.8328206" lon="15.2695886"><ele>29.0</ele><time>2026-04-26T15:43:37.061Z</time></trkpt><trkpt lat="37.832741" lon="15.2695242"><ele>29.0</ele><time>2026-04-26T15:43:38.08Z</time></trkpt><trkpt lat="37.8326641" lon="15.2694553"><ele>28.999999999999996</ele><time>2026-04-26T15:43:39.081Z</time></trkpt><trkpt lat="37.8325896" lon="15.2693921"><ele>29.0</ele><time>2026-04-26T15:43:40.075Z</time></trkpt><trkpt lat="37.8325267" lon="15.2693313"><ele>26.833333333333332</ele><time>2026-04-26T15:43:41.078Z</time></trkpt><trkpt lat="37.8324614" lon="15.2692718"><ele>24.666666666666664</ele><time>2026-04-26T15:43:42.083Z</time></trkpt><trkpt lat="37.83239" lon="15.269217"><ele>22.5</ele><time>2026-04-26T15:43:43.068Z</time></trkpt><trkpt lat="37.8323111" lon="15.2691699"><ele>20.333333333333332</ele><time>2026-04-26T15:43:44.067Z</time></trkpt><trkpt lat="37.8322393" lon="15.2691173"><ele>18.166666666666664</ele><time>2026-04-26T15:43:45.063Z</time></trkpt><trkpt lat="37.8321704" lon="15.2690675"><ele>16.0</ele><time>2026-04-26T15:43:46.079Z</time></trkpt><trkpt lat="37.8321048" lon="15.2690208"><ele>15.999999999999998</ele><time>2026-04-26T15:43:47.071Z</time></trkpt><trkpt lat="37.8320411" lon="15.2689734"><ele>16.0</ele><time>2026-04-26T15:43:48.079Z</time></trkpt><trkpt lat="37.8319843" lon="15.2689263"><ele>16.0</ele><time>2026-04-26T15:43:49.063Z</time></trkpt><trkpt lat="37.8318817" lon="15.2688413"><ele>16.0</ele><time>2026-04-26T15:43:51.07Z</time></trkpt><trkpt lat="37.8318253" lon="15.2687994"><ele>15.999999999999998</ele><time>2026-04-26T15:43:52.077Z</time></trkpt><trkpt lat="37.8317635" lon="15.268755"><ele>16.0</ele><time>2026-04-26T15:43:53.096Z</time></trkpt><trkpt lat="37.8316977" lon="15.2687107"><ele>16.333333333333332</ele><time>2026-04-26T15:43:54.066Z</time></trkpt><trkpt lat="37.8316304" lon="15.2686684"><ele>16.666666666666664</ele><time>2026-04-26T15:43:55.058Z</time></trkpt><trkpt lat="37.8315629" lon="15.2686194"><ele>17.0</ele><time>2026-04-26T15:43:56.079Z</time></trkpt><trkpt lat="37.8314961" lon="15.2685751"><ele>17.333333333333332</ele><time>2026-04-26T15:43:57.089Z</time></trkpt><trkpt lat="37.8314309" lon="15.2685401"><ele>17.666666666666668</ele><time>2026-04-26T15:43:58.078Z</time></trkpt><trkpt lat="37.8313708" lon="15.2685138"><ele>18.0</ele><time>2026-04-26T15:43:59.065Z</time></trkpt><trkpt lat="37.8312558" lon="15.2684646"><ele>18.0</ele><time>2026-04-26T15:44:01.057Z</time></trkpt><trkpt lat="37.8311395" lon="15.268419"><ele>18.0</ele><time>2026-04-26T15:44:03.079Z</time></trkpt><trkpt lat="37.8310757" lon="15.2683979"><ele>18.0</ele><time>2026-04-26T15:44:04.076Z</time></trkpt><trkpt lat="37.8310105" lon="15.2683776"><ele>18.0</ele><time>2026-04-26T15:44:05.081Z</time></trkpt><trkpt lat="37.8309432" lon="15.2683565"><ele>18.0</ele><time>2026-04-26T15:44:06.065Z</time></trkpt><trkpt lat="37.8308729" lon="15.2683416"><ele>18.0</ele><time>2026-04-26T15:44:07.075Z</time></trkpt><trkpt lat="37.8308038" lon="15.2683255"><ele>17.833333333333332</ele><time>2026-04-26T15:44:08.078Z</time></trkpt><trkpt lat="37.8307308" lon="15.2683107"><ele>17.666666666666668</ele><time>2026-04-26T15:44:09.075Z</time></trkpt><trkpt lat="37.8306517" lon="15.2682948"><ele>17.5</ele><time>2026-04-26T15:44:10.075Z</time></trkpt><trkpt lat="37.8305711" lon="15.268277"><ele>17.333333333333336</ele><time>2026-04-26T15:44:11.077Z</time></trkpt><trkpt lat="37.8304942" lon="15.268259"><ele>17.166666666666668</ele><time>2026-04-26T15:44:12.078Z</time></trkpt><trkpt lat="37.830422" lon="15.2682414"><ele>17.0</ele><time>2026-04-26T15:44:13.078Z</time></trkpt><trkpt lat="37.8303536" lon="15.2682219"><ele>17.0</ele><time>2026-04-26T15:44:14.079Z</time></trkpt><trkpt lat="37.8302887" lon="15.2682051"><ele>17.0</ele><time>2026-04-26T15:44:15.059Z</time></trkpt><trkpt lat="37.8302277" lon="15.2681842"><ele>17.0</ele><time>2026-04-26T15:44:16.082Z</time></trkpt><trkpt lat="37.8301118" lon="15.2681467"><ele>17.0</ele><time>2026-04-26T15:44:18.071Z</time></trkpt><trkpt lat="37.8299895" lon="15.2681141"><ele>17.0</ele><time>2026-04-26T15:44:20.062Z</time></trkpt><trkpt lat="37.829923" lon="15.268096"><ele>17.0</ele><time>2026-04-26T15:44:21.071Z</time></trkpt><trkpt lat="37.829852" lon="15.2680764"><ele>19.333333333333336</ele><time>2026-04-26T15:44:22.08Z</time></trkpt><trkpt lat="37.8297789" lon="15.2680564"><ele>21.666666666666668</ele><time>2026-04-26T15:44:23.064Z</time></trkpt><trkpt lat="37.8297024" lon="15.268038"><ele>24.0</ele><time>2026-04-26T15:44:24.048Z</time></trkpt><trkpt lat="37.8296249" lon="15.2680148"><ele>26.333333333333336</ele><time>2026-04-26T15:44:25.059Z</time></trkpt><trkpt lat="37.829545" lon="15.2679921"><ele>28.666666666666668</ele><time>2026-04-26T15:44:26.065Z</time></trkpt><trkpt lat="37.8294647" lon="15.2679697"><ele>31.0</ele><time>2026-04-26T15:44:27.083Z</time></trkpt><trkpt lat="37.8293824" lon="15.2679504"><ele>30.200000000000003</ele><time>2026-04-26T15:44:28.09Z</time></trkpt><trkpt lat="37.8292944" lon="15.2679344"><ele>29.400000000000002</ele><time>2026-04-26T15:44:29.053Z</time></trkpt><trkpt lat="37.8291975" lon="15.2679216"><ele>28.6</ele><time>2026-04-26T15:44:30.078Z</time></trkpt><trkpt lat="37.8290895" lon="15.2679123"><ele>27.8</ele><time>2026-04-26T15:44:31.059Z</time></trkpt><trkpt lat="37.828974" lon="15.2679027"><ele>27.0</ele><time>2026-04-26T15:44:32.056Z</time></trkpt><trkpt lat="37.828853" lon="15.2678913"><ele>27.0</ele><time>2026-04-26T15:44:33.09Z</time></trkpt><trkpt lat="37.8287332" lon="15.2678749"><ele>27.0</ele><time>2026-04-26T15:44:34.085Z</time></trkpt><trkpt lat="37.8286176" lon="15.2678544"><ele>27.0</ele><time>2026-04-26T15:44:35.075Z</time></trkpt><trkpt lat="37.8285054" lon="15.2678351"><ele>27.0</ele><time>2026-04-26T15:44:36.064Z</time></trkpt><trkpt lat="37.8283979" lon="15.2678171"><ele>26.5</ele><time>2026-04-26T15:44:37.08Z</time></trkpt><trkpt lat="37.8282963" lon="15.2678006"><ele>26.0</ele><time>2026-04-26T15:44:38.077Z</time></trkpt><trkpt lat="37.8282017" lon="15.2677855"><ele>25.5</ele><time>2026-04-26T15:44:39.076Z</time></trkpt><trkpt lat="37.8281115" lon="15.2677707"><ele>25.0</ele><time>2026-04-26T15:44:40.089Z</time></trkpt><trkpt lat="37.8280288" lon="15.2677568"><ele>24.5</ele><time>2026-04-26T15:44:41.077Z</time></trkpt><trkpt lat="37.8279563" lon="15.26774"><ele>24.0</ele><time>2026-04-26T15:44:42.044Z</time></trkpt><trkpt lat="37.8278921" lon="15.2677204"><ele>24.0</ele><time>2026-04-26T15:44:43.05Z</time></trkpt><trkpt lat="37.8277751" lon="15.2676848"><ele>24.0</ele><time>2026-04-26T15:44:45.08Z</time></trkpt><trkpt lat="37.8276714" lon="15.2676417"><ele>24.0</ele><time>2026-04-26T15:44:47.095Z</time></trkpt><trkpt lat="37.8275816" lon="15.2675994"><ele>24.0</ele><time>2026-04-26T15:44:49.083Z</time></trkpt><trkpt lat="37.8275015" lon="15.2675557"><ele>24.0</ele><time>2026-04-26T15:44:51.09Z</time></trkpt><trkpt lat="37.8274218" lon="15.2675175"><ele>23.0</ele><time>2026-04-26T15:44:53.062Z</time></trkpt><trkpt lat="37.8273352" lon="15.267484"><ele>22.0</ele><time>2026-04-26T15:44:55.059Z</time></trkpt><trkpt lat="37.8272442" lon="15.2674411"><ele>21.0</ele><time>2026-04-26T15:44:57.088Z</time></trkpt><trkpt lat="37.8271384" lon="15.2673865"><ele>20.0</ele><time>2026-04-26T15:44:59.101Z</time></trkpt><trkpt lat="37.8270356" lon="15.2673312"><ele>19.0</ele><time>2026-04-26T15:45:01.07Z</time></trkpt><trkpt lat="37.826941" lon="15.2672796"><ele>19.5</ele><time>2026-04-26T15:45:03.091Z</time></trkpt><trkpt lat="37.8268553" lon="15.2672289"><ele>20.0</ele><time>2026-04-26T15:45:05.09Z</time></trkpt><trkpt lat="37.8267795" lon="15.2671882"><ele>20.5</ele><time>2026-04-26T15:45:07.058Z</time></trkpt><trkpt lat="37.8267103" lon="15.2671457"><ele>21.0</ele><time>2026-04-26T15:45:09.077Z</time></trkpt><trkpt lat="37.8266439" lon="15.2671083"><ele>21.5</ele><time>2026-04-26T15:45:11.09Z</time></trkpt><trkpt lat="37.8265766" lon="15.2670718"><ele>22.0</ele><time>2026-04-26T15:45:13.078Z</time></trkpt><trkpt lat="37.8265165" lon="15.2670357"><ele>22.0</ele><time>2026-04-26T15:45:15.084Z</time></trkpt><trkpt lat="37.8264477" lon="15.2669961"><ele>22.0</ele><time>2026-04-26T15:45:17.079Z</time></trkpt><trkpt lat="37.8263599" lon="15.2669436"><ele>22.0</ele><time>2026-04-26T15:45:19.075Z</time></trkpt><trkpt lat="37.8263006" lon="15.2669127"><ele>22.0</ele><time>2026-04-26T15:45:21.08Z</time></trkpt><trkpt lat="37.8262283" lon="15.2668859"><ele>22.0</ele><time>2026-04-26T15:45:26.079Z</time></trkpt><trkpt lat="37.8261411" lon="15.2668273"><ele>22.0</ele><time>2026-04-26T15:45:28.077Z</time></trkpt><trkpt lat="37.826075" lon="15.2667875"><ele>22.0</ele><time>2026-04-26T15:45:29.075Z</time></trkpt><trkpt lat="37.825995" lon="15.2667448"><ele>22.0</ele><time>2026-04-26T15:45:30.088Z</time></trkpt><trkpt lat="37.8259032" lon="15.2667051"><ele>22.0</ele><time>2026-04-26T15:45:31.088Z</time></trkpt><trkpt lat="37.825813" lon="15.2666592"><ele>22.0</ele><time>2026-04-26T15:45:32.06Z</time></trkpt><trkpt lat="37.8257245" lon="15.2666136"><ele>22.0</ele><time>2026-04-26T15:45:33.079Z</time></trkpt><trkpt lat="37.8256387" lon="15.2665627"><ele>21.75</ele><time>2026-04-26T15:45:34.042Z</time></trkpt><trkpt lat="37.8255516" lon="15.2665135"><ele>21.5</ele><time>2026-04-26T15:45:35.065Z</time></trkpt><trkpt lat="37.825457" lon="15.2664621"><ele>21.25</ele><time>2026-04-26T15:45:36.08Z</time></trkpt><trkpt lat="37.8253461" lon="15.2663994"><ele>21.0</ele><time>2026-04-26T15:45:37.077Z</time></trkpt><trkpt lat="37.825223" lon="15.2663353"><ele>21.0</ele><time>2026-04-26T15:45:38.052Z</time></trkpt><trkpt lat="37.8251086" lon="15.2662756"><ele>21.0</ele><time>2026-04-26T15:45:39.088Z</time></trkpt><trkpt lat="37.8249969" lon="15.2662274"><ele>21.0</ele><time>2026-04-26T15:45:40.079Z</time></trkpt><trkpt lat="37.8248873" lon="15.2661741"><ele>21.0</ele><time>2026-04-26T15:45:41.094Z</time></trkpt><trkpt lat="37.8247773" lon="15.2661176"><ele>21.0</ele><time>2026-04-26T15:45:42.044Z</time></trkpt><trkpt lat="37.8246675" lon="15.2660585"><ele>21.0</ele><time>2026-04-26T15:45:43.093Z</time></trkpt><trkpt lat="37.824558" lon="15.2659993"><ele>21.0</ele><time>2026-04-26T15:45:44.083Z</time></trkpt><trkpt lat="37.8244495" lon="15.2659399"><ele>21.0</ele><time>2026-04-26T15:45:45.1Z</time></trkpt><trkpt lat="37.8243377" lon="15.2658803"><ele>21.75</ele><time>2026-04-26T15:45:46.079Z</time></trkpt><trkpt lat="37.8242258" lon="15.2658201"><ele>22.5</ele><time>2026-04-26T15:45:47.08Z</time></trkpt><trkpt lat="37.8241131" lon="15.2657629"><ele>23.25</ele><time>2026-04-26T15:45:48.09Z</time></trkpt><trkpt lat="37.824" lon="15.2657078"><ele>24.0</ele><time>2026-04-26T15:45:49.045Z</time></trkpt><trkpt lat="37.8238909" lon="15.2656493"><ele>24.0</ele><time>2026-04-26T15:45:50.079Z</time></trkpt><trkpt lat="37.823788" lon="15.2655926"><ele>24.0</ele><time>2026-04-26T15:45:51.078Z</time></trkpt><trkpt lat="37.8236911" lon="15.2655437"><ele>24.0</ele><time>2026-04-26T15:45:52.08Z</time></trkpt><trkpt lat="37.8235925" lon="15.2654969"><ele>24.0</ele><time>2026-04-26T15:45:53.08Z</time></trkpt><trkpt lat="37.8234973" lon="15.2654449"><ele>24.0</ele><time>2026-04-26T15:45:54.092Z</time></trkpt><trkpt lat="37.8234058" lon="15.2653892"><ele>24.0</ele><time>2026-04-26T15:45:55.061Z</time></trkpt><trkpt lat="37.8233171" lon="15.2653304"><ele>24.0</ele><time>2026-04-26T15:45:56.081Z</time></trkpt><trkpt lat="37.8232284" lon="15.265266"><ele>24.0</ele><time>2026-04-26T15:45:57.064Z</time></trkpt><trkpt lat="37.8231412" lon="15.2651871"><ele>24.0</ele><time>2026-04-26T15:45:58.079Z</time></trkpt><trkpt lat="37.8230498" lon="15.2650944"><ele>24.0</ele><time>2026-04-26T15:45:59.083Z</time></trkpt><trkpt lat="37.8229576" lon="15.264992"><ele>24.0</ele><time>2026-04-26T15:46:00.07Z</time></trkpt><trkpt lat="37.8228716" lon="15.2648879"><ele>24.0</ele><time>2026-04-26T15:46:01.086Z</time></trkpt><trkpt lat="37.8227938" lon="15.2647859"><ele>24.0</ele><time>2026-04-26T15:46:02.092Z</time></trkpt><trkpt lat="37.8227196" lon="15.2646901"><ele>24.0</ele><time>2026-04-26T15:46:03.089Z</time></trkpt><trkpt lat="37.8226508" lon="15.2645985"><ele>24.0</ele><time>2026-04-26T15:46:04.089Z</time></trkpt><trkpt lat="37.8225851" lon="15.2645154"><ele>23.4</ele><time>2026-04-26T15:46:05.085Z</time></trkpt><trkpt lat="37.8225214" lon="15.2644375"><ele>22.799999999999997</ele><time>2026-04-26T15:46:06.077Z</time></trkpt><trkpt lat="37.8224571" lon="15.2643586"><ele>22.200000000000003</ele><time>2026-04-26T15:46:07.087Z</time></trkpt><trkpt lat="37.8223879" lon="15.2642722"><ele>21.6</ele><time>2026-04-26T15:46:08.08Z</time></trkpt><trkpt lat="37.8223124" lon="15.2641799"><ele>21.0</ele><time>2026-04-26T15:46:09.077Z</time></trkpt><trkpt lat="37.8222318" lon="15.2640831"><ele>21.0</ele><time>2026-04-26T15:46:10.08Z</time></trkpt><trkpt lat="37.8221483" lon="15.2639866"><ele>21.0</ele><time>2026-04-26T15:46:11.068Z</time></trkpt><trkpt lat="37.8220656" lon="15.2638879"><ele>21.0</ele><time>2026-04-26T15:46:12.078Z</time></trkpt><trkpt lat="37.8219859" lon="15.2637892"><ele>21.0</ele><time>2026-04-26T15:46:13.08Z</time></trkpt><trkpt lat="37.8219091" lon="15.263695"><ele>21.0</ele><time>2026-04-26T15:46:14.084Z</time></trkpt><trkpt lat="37.8218339" lon="15.2636002"><ele>21.200000000000003</ele><time>2026-04-26T15:46:15.079Z</time></trkpt><trkpt lat="37.8217559" lon="15.2635057"><ele>21.400000000000002</ele><time>2026-04-26T15:46:16.077Z</time></trkpt><trkpt lat="37.8216769" lon="15.2634101"><ele>21.6</ele><time>2026-04-26T15:46:17.081Z</time></trkpt><trkpt lat="37.821602" lon="15.2633178"><ele>21.8</ele><time>2026-04-26T15:46:18.09Z</time></trkpt><trkpt lat="37.8215316" lon="15.2632293"><ele>22.0</ele><time>2026-04-26T15:46:19.079Z</time></trkpt><trkpt lat="37.8214644" lon="15.263139"><ele>21.8</ele><time>2026-04-26T15:46:20.085Z</time></trkpt><trkpt lat="37.8214001" lon="15.263043"><ele>21.6</ele><time>2026-04-26T15:46:21.08Z</time></trkpt><trkpt lat="37.8213398" lon="15.2629445"><ele>21.400000000000002</ele><time>2026-04-26T15:46:22.078Z</time></trkpt><trkpt lat="37.8212822" lon="15.2628417"><ele>21.200000000000003</ele><time>2026-04-26T15:46:23.072Z</time></trkpt><trkpt lat="37.8212325" lon="15.2627311"><ele>21.0</ele><time>2026-04-26T15:46:24.075Z</time></trkpt><trkpt lat="37.8211888" lon="15.2626141"><ele>21.0</ele><time>2026-04-26T15:46:25.077Z</time></trkpt><trkpt lat="37.8211511" lon="15.2624932"><ele>21.0</ele><time>2026-04-26T15:46:26.09Z</time></trkpt><trkpt lat="37.8211153" lon="15.2623777"><ele>21.0</ele><time>2026-04-26T15:46:27.078Z</time></trkpt><trkpt lat="37.8210818" lon="15.262268"><ele>21.0</ele><time>2026-04-26T15:46:28.078Z</time></trkpt><trkpt lat="37.8210488" lon="15.262166"><ele>21.0</ele><time>2026-04-26T15:46:29.059Z</time></trkpt><trkpt lat="37.8210158" lon="15.2620654"><ele>21.0</ele><time>2026-04-26T15:46:30.08Z</time></trkpt><trkpt lat="37.8209839" lon="15.261962"><ele>21.0</ele><time>2026-04-26T15:46:31.078Z</time></trkpt><trkpt lat="37.8209531" lon="15.2618586"><ele>21.0</ele><time>2026-04-26T15:46:32.079Z</time></trkpt><trkpt lat="37.8209251" lon="15.2617592"><ele>21.0</ele><time>2026-04-26T15:46:33.08Z</time></trkpt><trkpt lat="37.8208989" lon="15.2616654"><ele>21.0</ele><time>2026-04-26T15:46:34.061Z</time></trkpt><trkpt lat="37.8208738" lon="15.2615773"><ele>21.0</ele><time>2026-04-26T15:46:35.062Z</time></trkpt><trkpt lat="37.8208488" lon="15.2614914"><ele>21.333333333333332</ele><time>2026-04-26T15:46:36.085Z</time></trkpt><trkpt lat="37.8208247" lon="15.2614032"><ele>21.666666666666668</ele><time>2026-04-26T15:46:37.08Z</time></trkpt><trkpt lat="37.8207991" lon="15.2613149"><ele>22.0</ele><time>2026-04-26T15:46:38.08Z</time></trkpt><trkpt lat="37.8207724" lon="15.2612265"><ele>22.333333333333336</ele><time>2026-04-26T15:46:39.092Z</time></trkpt><trkpt lat="37.8207443" lon="15.2611299"><ele>22.666666666666668</ele><time>2026-04-26T15:46:40.075Z</time></trkpt><trkpt lat="37.8207116" lon="15.2610265"><ele>23.0</ele><time>2026-04-26T15:46:41.093Z</time></trkpt><trkpt lat="37.8206772" lon="15.2609201"><ele>23.0</ele><time>2026-04-26T15:46:42.085Z</time></trkpt><trkpt lat="37.8206439" lon="15.2608123"><ele>23.0</ele><time>2026-04-26T15:46:43.08Z</time></trkpt><trkpt lat="37.8206107" lon="15.2607029"><ele>23.0</ele><time>2026-04-26T15:46:44.095Z</time></trkpt><trkpt lat="37.8205787" lon="15.2605924"><ele>23.0</ele><time>2026-04-26T15:46:45.103Z</time></trkpt><trkpt lat="37.8205476" lon="15.2604845"><ele>23.0</ele><time>2026-04-26T15:46:46.081Z</time></trkpt><trkpt lat="37.820519" lon="15.2603752"><ele>23.0</ele><time>2026-04-26T15:46:47.09Z</time></trkpt><trkpt lat="37.8204916" lon="15.260263"><ele>23.0</ele><time>2026-04-26T15:46:48.089Z</time></trkpt><trkpt lat="37.8204664" lon="15.2601485"><ele>23.0</ele><time>2026-04-26T15:46:49.079Z</time></trkpt><trkpt lat="37.8204423" lon="15.2600312"><ele>23.0</ele><time>2026-04-26T15:46:50.059Z</time></trkpt><trkpt lat="37.8204196" lon="15.2599116"><ele>23.0</ele><time>2026-04-26T15:46:51.079Z</time></trkpt><trkpt lat="37.8203977" lon="15.259799"><ele>23.333333333333336</ele><time>2026-04-26T15:46:52.084Z</time></trkpt><trkpt lat="37.8203792" lon="15.2596955"><ele>23.666666666666668</ele><time>2026-04-26T15:46:53.057Z</time></trkpt><trkpt lat="37.8203645" lon="15.2596013"><ele>24.0</ele><time>2026-04-26T15:46:54.093Z</time></trkpt><trkpt lat="37.8203538" lon="15.2595131"><ele>24.333333333333336</ele><time>2026-04-26T15:46:55.093Z</time></trkpt><trkpt lat="37.8203447" lon="15.2594247"><ele>24.666666666666668</ele><time>2026-04-26T15:46:56.096Z</time></trkpt><trkpt lat="37.820335" lon="15.2593299"><ele>25.0</ele><time>2026-04-26T15:46:57.058Z</time></trkpt><trkpt lat="37.8203253" lon="15.2592312"><ele>25.000000000000004</ele><time>2026-04-26T15:46:58.06Z</time></trkpt><trkpt lat="37.820316" lon="15.2591298"><ele>25.0</ele><time>2026-04-26T15:46:59.079Z</time></trkpt><trkpt lat="37.8203089" lon="15.2590278"><ele>25.0</ele><time>2026-04-26T15:47:00.074Z</time></trkpt><trkpt lat="37.8203034" lon="15.2589282"><ele>25.0</ele><time>2026-04-26T15:47:01.076Z</time></trkpt><trkpt lat="37.8202987" lon="15.2588271"><ele>25.000000000000004</ele><time>2026-04-26T15:47:02.076Z</time></trkpt><trkpt lat="37.820294" lon="15.2587243"><ele>25.0</ele><time>2026-04-26T15:47:03.084Z</time></trkpt><trkpt lat="37.8202905" lon="15.2586258"><ele>25.0</ele><time>2026-04-26T15:47:04.075Z</time></trkpt><trkpt lat="37.820288" lon="15.2585228"><ele>25.0</ele><time>2026-04-26T15:47:05.077Z</time></trkpt><trkpt lat="37.8202879" lon="15.2584078"><ele>25.0</ele><time>2026-04-26T15:47:06.062Z</time></trkpt><trkpt lat="37.8202865" lon="15.2582771"><ele>25.0</ele><time>2026-04-26T15:47:07.061Z</time></trkpt><trkpt lat="37.8202854" lon="15.2581298"><ele>25.0</ele><time>2026-04-26T15:47:08.08Z</time></trkpt><trkpt lat="37.8202898" lon="15.2579834"><ele>25.0</ele><time>2026-04-26T15:47:09.049Z</time></trkpt><trkpt lat="37.8202968" lon="15.2578493"><ele>25.0</ele><time>2026-04-26T15:47:10.06Z</time></trkpt><trkpt lat="37.8203041" lon="15.2577302"><ele>25.0</ele><time>2026-04-26T15:47:11.079Z</time></trkpt><trkpt lat="37.8203128" lon="15.2576287"><ele>25.0</ele><time>2026-04-26T15:47:12.08Z</time></trkpt><trkpt lat="37.8203209" lon="15.2575399"><ele>25.0</ele><time>2026-04-26T15:47:13.071Z</time></trkpt><trkpt lat="37.8203367" lon="15.2573867"><ele>24.833333333333336</ele><time>2026-04-26T15:47:15.093Z</time></trkpt><trkpt lat="37.8203541" lon="15.257259"><ele>24.666666666666668</ele><time>2026-04-26T15:47:17.081Z</time></trkpt><trkpt lat="37.8203671" lon="15.2571637"><ele>24.5</ele><time>2026-04-26T15:47:19.064Z</time></trkpt><trkpt lat="37.8203794" lon="15.2570779"><ele>24.333333333333336</ele><time>2026-04-26T15:47:21.086Z</time></trkpt><trkpt lat="37.8203974" lon="15.2569823"><ele>24.166666666666668</ele><time>2026-04-26T15:47:23.077Z</time></trkpt><trkpt lat="37.8204105" lon="15.2568795"><ele>24.0</ele><time>2026-04-26T15:47:25.08Z</time></trkpt><trkpt lat="37.8204237" lon="15.2567826"><ele>24.0</ele><time>2026-04-26T15:47:27.081Z</time></trkpt><trkpt lat="37.8204358" lon="15.2566952"><ele>24.0</ele><time>2026-04-26T15:47:29.077Z</time></trkpt><trkpt lat="37.8204469" lon="15.2566073"><ele>24.0</ele><time>2026-04-26T15:47:31.078Z</time></trkpt><trkpt lat="37.8204611" lon="15.2565103"><ele>24.0</ele><time>2026-04-26T15:47:33.077Z</time></trkpt><trkpt lat="37.8204746" lon="15.2564148"><ele>24.0</ele><time>2026-04-26T15:47:36.083Z</time></trkpt><trkpt lat="37.8204949" lon="15.2563096"><ele>24.0</ele><time>2026-04-26T15:47:43.067Z</time></trkpt><trkpt lat="37.8205129" lon="15.256198"><ele>24.333333333333332</ele><time>2026-04-26T15:47:45.078Z</time></trkpt><trkpt lat="37.8205268" lon="15.2560761"><ele>24.666666666666664</ele><time>2026-04-26T15:47:47.072Z</time></trkpt><trkpt lat="37.8205409" lon="15.2559592"><ele>25.0</ele><time>2026-04-26T15:47:49.078Z</time></trkpt><trkpt lat="37.8205668" lon="15.255817"><ele>25.333333333333332</ele><time>2026-04-26T15:47:51.06Z</time></trkpt><trkpt lat="37.8205804" lon="15.2557357"><ele>25.666666666666664</ele><time>2026-04-26T15:47:52.081Z</time></trkpt><trkpt lat="37.8205966" lon="15.255649"><ele>26.0</ele><time>2026-04-26T15:47:53.079Z</time></trkpt><trkpt lat="37.8206097" lon="15.2555651"><ele>26.0</ele><time>2026-04-26T15:47:54.086Z</time></trkpt><trkpt lat="37.8206219" lon="15.2554816"><ele>26.0</ele><time>2026-04-26T15:47:55.067Z</time></trkpt><trkpt lat="37.8206344" lon="15.2553968"><ele>26.0</ele><time>2026-04-26T15:47:56.064Z</time></trkpt><trkpt lat="37.8206476" lon="15.2553072"><ele>26.0</ele><time>2026-04-26T15:47:57.056Z</time></trkpt><trkpt lat="37.8206602" lon="15.2552161"><ele>26.0</ele><time>2026-04-26T15:47:58.076Z</time></trkpt><trkpt lat="37.8206717" lon="15.2551232"><ele>26.0</ele><time>2026-04-26T15:47:59.075Z</time></trkpt><trkpt lat="37.8206842" lon="15.2550283"><ele>26.0</ele><time>2026-04-26T15:48:00.083Z</time></trkpt><trkpt lat="37.8206989" lon="15.2549304"><ele>25.999999999999996</ele><time>2026-04-26T15:48:01.08Z</time></trkpt><trkpt lat="37.820715" lon="15.2548261"><ele>26.0</ele><time>2026-04-26T15:48:02.077Z</time></trkpt><trkpt lat="37.8207314" lon="15.2547198"><ele>26.0</ele><time>2026-04-26T15:48:03.091Z</time></trkpt><trkpt lat="37.8207504" lon="15.2546096"><ele>26.0</ele><time>2026-04-26T15:48:04.061Z</time></trkpt><trkpt lat="37.8207696" lon="15.2544979"><ele>25.999999999999996</ele><time>2026-04-26T15:48:05.078Z</time></trkpt><trkpt lat="37.8207876" lon="15.2543836"><ele>26.0</ele><time>2026-04-26T15:48:06.079Z</time></trkpt><trkpt lat="37.820802" lon="15.2542638"><ele>26.0</ele><time>2026-04-26T15:48:07.091Z</time></trkpt><trkpt lat="37.8208156" lon="15.2541398"><ele>26.0</ele><time>2026-04-26T15:48:08.059Z</time></trkpt><trkpt lat="37.8208305" lon="15.2540143"><ele>26.0</ele><time>2026-04-26T15:48:09.075Z</time></trkpt><trkpt lat="37.8208469" lon="15.2538907"><ele>26.0</ele><time>2026-04-26T15:48:10.077Z</time></trkpt><trkpt lat="37.8208597" lon="15.2537769"><ele>26.0</ele><time>2026-04-26T15:48:11.079Z</time></trkpt><trkpt lat="37.8208673" lon="15.2536787"><ele>25.999999999999996</ele><time>2026-04-26T15:48:12.08Z</time></trkpt><trkpt lat="37.8208754" lon="15.2535957"><ele>26.0</ele><time>2026-04-26T15:48:13.08Z</time></trkpt><trkpt lat="37.8208862" lon="15.2534597"><ele>26.0</ele><time>2026-04-26T15:48:15.088Z</time></trkpt><trkpt lat="37.8208845" lon="15.2533544"><ele>26.0</ele><time>2026-04-26T15:48:17.079Z</time></trkpt><trkpt lat="37.8208742" lon="15.2532343"><ele>25.999999999999996</ele><time>2026-04-26T15:48:20.078Z</time></trkpt><trkpt lat="37.8208602" lon="15.2531415"><ele>26.0</ele><time>2026-04-26T15:48:23.08Z</time></trkpt><trkpt lat="37.8208453" lon="15.2530529"><ele>26.333333333333332</ele><time>2026-04-26T15:48:27.08Z</time></trkpt><trkpt lat="37.8208328" lon="15.252972"><ele>26.666666666666664</ele><time>2026-04-26T15:48:29.067Z</time></trkpt><trkpt lat="37.8208076" lon="15.2528382"><ele>27.0</ele><time>2026-04-26T15:48:31.081Z</time></trkpt><trkpt lat="37.8207856" lon="15.2527562"><ele>27.333333333333336</ele><time>2026-04-26T15:48:32.079Z</time></trkpt><trkpt lat="37.8207633" lon="15.252667"><ele>27.666666666666668</ele><time>2026-04-26T15:48:33.081Z</time></trkpt><trkpt lat="37.8207352" lon="15.25257"><ele>28.0</ele><time>2026-04-26T15:48:34.08Z</time></trkpt><trkpt lat="37.8207007" lon="15.2524674"><ele>28.0</ele><time>2026-04-26T15:48:35.084Z</time></trkpt><trkpt lat="37.8206616" lon="15.2523605"><ele>27.999999999999996</ele><time>2026-04-26T15:48:36.078Z</time></trkpt><trkpt lat="37.8206143" lon="15.2522472"><ele>27.999999999999996</ele><time>2026-04-26T15:48:37.093Z</time></trkpt><trkpt lat="37.8205677" lon="15.2521294"><ele>28.0</ele><time>2026-04-26T15:48:38.082Z</time></trkpt><trkpt lat="37.8205196" lon="15.2520207"><ele>28.0</ele><time>2026-04-26T15:48:39.084Z</time></trkpt><trkpt lat="37.8204741" lon="15.2519247"><ele>28.666666666666668</ele><time>2026-04-26T15:48:40.087Z</time></trkpt><trkpt lat="37.8204307" lon="15.2518396"><ele>29.333333333333336</ele><time>2026-04-26T15:48:41.079Z</time></trkpt><trkpt lat="37.8203893" lon="15.2517636"><ele>30.0</ele><time>2026-04-26T15:48:42.08Z</time></trkpt><trkpt lat="37.8203518" lon="15.2516952"><ele>30.666666666666664</ele><time>2026-04-26T15:48:43.081Z</time></trkpt><trkpt lat="37.8202799" lon="15.2515623"><ele>31.333333333333332</ele><time>2026-04-26T15:48:45.086Z</time></trkpt><trkpt lat="37.8202384" lon="15.2514817"><ele>32.0</ele><time>2026-04-26T15:48:46.081Z</time></trkpt><trkpt lat="37.8202029" lon="15.2513901"><ele>32.0</ele><time>2026-04-26T15:48:47.08Z</time></trkpt><trkpt lat="37.820171" lon="15.251303"><ele>31.999999999999996</ele><time>2026-04-26T15:48:48.076Z</time></trkpt><trkpt lat="37.820137" lon="15.2512241"><ele>32.0</ele><time>2026-04-26T15:48:49.081Z</time></trkpt><trkpt lat="37.8201008" lon="15.2511472"><ele>32.0</ele><time>2026-04-26T15:48:50.057Z</time></trkpt><trkpt lat="37.8200642" lon="15.2510697"><ele>31.999999999999996</ele><time>2026-04-26T15:48:51.077Z</time></trkpt><trkpt lat="37.8200248" lon="15.250992"><ele>32.0</ele><time>2026-04-26T15:48:52.077Z</time></trkpt><trkpt lat="37.8199829" lon="15.2509091"><ele>32.0</ele><time>2026-04-26T15:48:53.089Z</time></trkpt><trkpt lat="37.8199396" lon="15.2508241"><ele>31.999999999999996</ele><time>2026-04-26T15:48:54.078Z</time></trkpt><trkpt lat="37.8198945" lon="15.2507358"><ele>32.0</ele><time>2026-04-26T15:48:55.08Z</time></trkpt><trkpt lat="37.819844" lon="15.2506437"><ele>32.0</ele><time>2026-04-26T15:48:56.058Z</time></trkpt><trkpt lat="37.8197938" lon="15.2505467"><ele>32.0</ele><time>2026-04-26T15:48:57.084Z</time></trkpt><trkpt lat="37.8197459" lon="15.2504521"><ele>31.999999999999996</ele><time>2026-04-26T15:48:58.08Z</time></trkpt><trkpt lat="37.8197017" lon="15.2503585"><ele>32.0</ele><time>2026-04-26T15:48:59.059Z</time></trkpt><trkpt lat="37.8196592" lon="15.2502692"><ele>31.999999999999996</ele><time>2026-04-26T15:49:00.067Z</time></trkpt><trkpt lat="37.8196162" lon="15.2501792"><ele>32.0</ele><time>2026-04-26T15:49:01.079Z</time></trkpt><trkpt lat="37.8195714" lon="15.2500917"><ele>32.0</ele><time>2026-04-26T15:49:02.079Z</time></trkpt><trkpt lat="37.8195291" lon="15.250009"><ele>32.0</ele><time>2026-04-26T15:49:03.079Z</time></trkpt><trkpt lat="37.8194917" lon="15.2499307"><ele>31.999999999999996</ele><time>2026-04-26T15:49:04.078Z</time></trkpt><trkpt lat="37.819454" lon="15.2498611"><ele>32.0</ele><time>2026-04-26T15:49:05.077Z</time></trkpt><trkpt lat="37.8193842" lon="15.2497372"><ele>31.833333333333332</ele><time>2026-04-26T15:49:07.068Z</time></trkpt><trkpt lat="37.8193183" lon="15.24961"><ele>31.666666666666664</ele><time>2026-04-26T15:49:09.084Z</time></trkpt><trkpt lat="37.819279" lon="15.2495407"><ele>31.5</ele><time>2026-04-26T15:49:10.066Z</time></trkpt><trkpt lat="37.8192365" lon="15.249462"><ele>31.333333333333336</ele><time>2026-04-26T15:49:11.08Z</time></trkpt><trkpt lat="37.8191914" lon="15.2493763"><ele>31.166666666666668</ele><time>2026-04-26T15:49:12.08Z</time></trkpt><trkpt lat="37.8191476" lon="15.2492895"><ele>31.0</ele><time>2026-04-26T15:49:13.078Z</time></trkpt><trkpt lat="37.8191051" lon="15.2492028"><ele>31.000000000000004</ele><time>2026-04-26T15:49:14.079Z</time></trkpt><trkpt lat="37.819062" lon="15.2491163"><ele>31.0</ele><time>2026-04-26T15:49:15.063Z</time></trkpt><trkpt lat="37.8190172" lon="15.2490295"><ele>31.0</ele><time>2026-04-26T15:49:16.077Z</time></trkpt><trkpt lat="37.8189639" lon="15.2489411"><ele>31.0</ele><time>2026-04-26T15:49:17.079Z</time></trkpt><trkpt lat="37.8189064" lon="15.248846"><ele>31.000000000000004</ele><time>2026-04-26T15:49:18.078Z</time></trkpt><trkpt lat="37.8188518" lon="15.2487477"><ele>31.0</ele><time>2026-04-26T15:49:19.079Z</time></trkpt><trkpt lat="37.8188041" lon="15.2486575"><ele>31.0</ele><time>2026-04-26T15:49:20.078Z</time></trkpt><trkpt lat="37.818765" lon="15.2485795"><ele>31.0</ele><time>2026-04-26T15:49:21.075Z</time></trkpt><trkpt lat="37.8187311" lon="15.2485093"><ele>31.0</ele><time>2026-04-26T15:49:22.059Z</time></trkpt><trkpt lat="37.8186708" lon="15.2483811"><ele>31.0</ele><time>2026-04-26T15:49:24.057Z</time></trkpt><trkpt lat="37.8186005" lon="15.2482426"><ele>31.0</ele><time>2026-04-26T15:49:26.079Z</time></trkpt><trkpt lat="37.8185626" lon="15.2481647"><ele>30.666666666666668</ele><time>2026-04-26T15:49:27.079Z</time></trkpt><trkpt lat="37.8185217" lon="15.2480814"><ele>30.333333333333336</ele><time>2026-04-26T15:49:28.079Z</time></trkpt><trkpt lat="37.8184782" lon="15.2479988"><ele>30.0</ele><time>2026-04-26T15:49:29.083Z</time></trkpt><trkpt lat="37.8184364" lon="15.2479185"><ele>29.666666666666664</ele><time>2026-04-26T15:49:30.079Z</time></trkpt><trkpt lat="37.8184018" lon="15.2478434"><ele>29.333333333333332</ele><time>2026-04-26T15:49:31.077Z</time></trkpt><trkpt lat="37.8183492" lon="15.2477113"><ele>29.0</ele><time>2026-04-26T15:49:33.08Z</time></trkpt><trkpt lat="37.8182926" lon="15.247578"><ele>28.6</ele><time>2026-04-26T15:49:35.048Z</time></trkpt><trkpt lat="37.8182606" lon="15.2474879"><ele>28.2</ele><time>2026-04-26T15:49:36.068Z</time></trkpt><trkpt lat="37.8182294" lon="15.2473681"><ele>27.800000000000004</ele><time>2026-04-26T15:49:37.049Z</time></trkpt><trkpt lat="37.8181931" lon="15.2472322"><ele>27.400000000000002</ele><time>2026-04-26T15:49:38.068Z</time></trkpt><trkpt lat="37.8181584" lon="15.2470817"><ele>27.0</ele><time>2026-04-26T15:49:39.061Z</time></trkpt><trkpt lat="37.8181236" lon="15.2469256"><ele>26.833333333333332</ele><time>2026-04-26T15:49:40.078Z</time></trkpt><trkpt lat="37.8180931" lon="15.2467853"><ele>26.666666666666664</ele><time>2026-04-26T15:49:41.062Z</time></trkpt><trkpt lat="37.8180655" lon="15.246667"><ele>26.5</ele><time>2026-04-26T15:49:42.078Z</time></trkpt><trkpt lat="37.8180396" lon="15.2465646"><ele>26.333333333333332</ele><time>2026-04-26T15:49:43.081Z</time></trkpt><trkpt lat="37.8180183" lon="15.2464705"><ele>26.166666666666664</ele><time>2026-04-26T15:49:44.078Z</time></trkpt><trkpt lat="37.8179992" lon="15.2463811"><ele>26.0</ele><time>2026-04-26T15:49:45.089Z</time></trkpt><trkpt lat="37.817982" lon="15.2462962"><ele>25.999999999999996</ele><time>2026-04-26T15:49:46.08Z</time></trkpt><trkpt lat="37.8179638" lon="15.2462084"><ele>26.0</ele><time>2026-04-26T15:49:47.08Z</time></trkpt><trkpt lat="37.8179421" lon="15.2461161"><ele>26.0</ele><time>2026-04-26T15:49:48.079Z</time></trkpt><trkpt lat="37.8179224" lon="15.2460183"><ele>26.0</ele><time>2026-04-26T15:49:49.079Z</time></trkpt><trkpt lat="37.8178956" lon="15.2459231"><ele>25.999999999999996</ele><time>2026-04-26T15:49:50.096Z</time></trkpt><trkpt lat="37.8178657" lon="15.2458216"><ele>26.0</ele><time>2026-04-26T15:49:51.059Z</time></trkpt><trkpt lat="37.8178308" lon="15.2457107"><ele>26.75</ele><time>2026-04-26T15:49:52.06Z</time></trkpt><trkpt lat="37.817791" lon="15.2455853"><ele>27.5</ele><time>2026-04-26T15:49:53.076Z</time></trkpt><trkpt lat="37.8177481" lon="15.2454484"><ele>28.25</ele><time>2026-04-26T15:49:54.058Z</time></trkpt><trkpt lat="37.8177037" lon="15.2453007"><ele>29.0</ele><time>2026-04-26T15:49:55.076Z</time></trkpt><trkpt lat="37.8176562" lon="15.2451534"><ele>28.5</ele><time>2026-04-26T15:49:56.076Z</time></trkpt><trkpt lat="37.8176044" lon="15.2450143"><ele>28.0</ele><time>2026-04-26T15:49:57.061Z</time></trkpt><trkpt lat="37.8175456" lon="15.2448878"><ele>27.5</ele><time>2026-04-26T15:49:58.079Z</time></trkpt><trkpt lat="37.8174777" lon="15.2447719"><ele>27.0</ele><time>2026-04-26T15:49:59.079Z</time></trkpt><trkpt lat="37.817405" lon="15.2446636"><ele>27.0</ele><time>2026-04-26T15:50:00.059Z</time></trkpt><trkpt lat="37.817337" lon="15.2445617"><ele>27.000000000000004</ele><time>2026-04-26T15:50:01.074Z</time></trkpt><trkpt lat="37.817276" lon="15.2444688"><ele>27.000000000000004</ele><time>2026-04-26T15:50:02.082Z</time></trkpt><trkpt lat="37.8172155" lon="15.2443844"><ele>27.0</ele><time>2026-04-26T15:50:03.081Z</time></trkpt><trkpt lat="37.8171544" lon="15.2443011"><ele>27.0</ele><time>2026-04-26T15:50:04.042Z</time></trkpt><trkpt lat="37.8170926" lon="15.244218"><ele>27.0</ele><time>2026-04-26T15:50:05.061Z</time></trkpt><trkpt lat="37.8170286" lon="15.2441318"><ele>27.000000000000004</ele><time>2026-04-26T15:50:06.08Z</time></trkpt><trkpt lat="37.8169629" lon="15.2440414"><ele>27.000000000000004</ele><time>2026-04-26T15:50:07.077Z</time></trkpt><trkpt lat="37.816892" lon="15.2439423"><ele>27.0</ele><time>2026-04-26T15:50:08.079Z</time></trkpt><trkpt lat="37.8168076" lon="15.2438284"><ele>27.0</ele><time>2026-04-26T15:50:09.08Z</time></trkpt><trkpt lat="37.8167101" lon="15.2436958"><ele>26.333333333333336</ele><time>2026-04-26T15:50:10.064Z</time></trkpt><trkpt lat="37.8166041" lon="15.2435475"><ele>25.666666666666668</ele><time>2026-04-26T15:50:11.083Z</time></trkpt><trkpt lat="37.8164878" lon="15.2433895"><ele>25.0</ele><time>2026-04-26T15:50:12.078Z</time></trkpt><trkpt lat="37.8163667" lon="15.2432263"><ele>25.0</ele><time>2026-04-26T15:50:13.078Z</time></trkpt><trkpt lat="37.8162397" lon="15.2430619"><ele>25.0</ele><time>2026-04-26T15:50:14.082Z</time></trkpt><trkpt lat="37.8161167" lon="15.2428897"><ele>25.0</ele><time>2026-04-26T15:50:15.09Z</time></trkpt><trkpt lat="37.8159941" lon="15.242713"><ele>25.0</ele><time>2026-04-26T15:50:16.062Z</time></trkpt><trkpt lat="37.8158719" lon="15.2425388"><ele>25.0</ele><time>2026-04-26T15:50:17.079Z</time></trkpt><trkpt lat="37.8157506" lon="15.2423668"><ele>25.0</ele><time>2026-04-26T15:50:18.077Z</time></trkpt><trkpt lat="37.8156296" lon="15.2421985"><ele>25.0</ele><time>2026-04-26T15:50:19.079Z</time></trkpt><trkpt lat="37.8155054" lon="15.2420281"><ele>25.0</ele><time>2026-04-26T15:50:20.089Z</time></trkpt><trkpt lat="37.8153752" lon="15.2418544"><ele>25.0</ele><time>2026-04-26T15:50:21.08Z</time></trkpt><trkpt lat="37.8152451" lon="15.2416785"><ele>25.666666666666668</ele><time>2026-04-26T15:50:22.082Z</time></trkpt><trkpt lat="37.8151205" lon="15.241504"><ele>26.333333333333336</ele><time>2026-04-26T15:50:23.082Z</time></trkpt><trkpt lat="37.8150046" lon="15.2413294"><ele>27.0</ele><time>2026-04-26T15:50:24.094Z</time></trkpt><trkpt lat="37.8148918" lon="15.241159"><ele>27.0</ele><time>2026-04-26T15:50:25.08Z</time></trkpt><trkpt lat="37.8147825" lon="15.2409924"><ele>27.0</ele><time>2026-04-26T15:50:26.081Z</time></trkpt><trkpt lat="37.8146758" lon="15.2408364"><ele>27.0</ele><time>2026-04-26T15:50:27.08Z</time></trkpt><trkpt lat="37.8145732" lon="15.2406863"><ele>27.666666666666664</ele><time>2026-04-26T15:50:28.084Z</time></trkpt><trkpt lat="37.8144692" lon="15.2405382"><ele>28.333333333333332</ele><time>2026-04-26T15:50:29.08Z</time></trkpt><trkpt lat="37.8143634" lon="15.2403901"><ele>29.0</ele><time>2026-04-26T15:50:30.061Z</time></trkpt><trkpt lat="37.8142617" lon="15.2402436"><ele>29.0</ele><time>2026-04-26T15:50:31.079Z</time></trkpt><trkpt lat="37.8141653" lon="15.2401034"><ele>29.0</ele><time>2026-04-26T15:50:32.095Z</time></trkpt><trkpt lat="37.8140786" lon="15.2399736"><ele>29.0</ele><time>2026-04-26T15:50:33.082Z</time></trkpt><trkpt lat="37.8140018" lon="15.2398491"><ele>29.0</ele><time>2026-04-26T15:50:34.072Z</time></trkpt><trkpt lat="37.8139336" lon="15.2397197"><ele>29.0</ele><time>2026-04-26T15:50:35.079Z</time></trkpt><trkpt lat="37.8138785" lon="15.2395818"><ele>29.0</ele><time>2026-04-26T15:50:36.079Z</time></trkpt><trkpt lat="37.8138331" lon="15.23944"><ele>29.0</ele><time>2026-04-26T15:50:37.081Z</time></trkpt><trkpt lat="37.8137934" lon="15.2392964"><ele>29.0</ele><time>2026-04-26T15:50:38.094Z</time></trkpt><trkpt lat="37.8137549" lon="15.2391518"><ele>29.0</ele><time>2026-04-26T15:50:39.07Z</time></trkpt><trkpt lat="37.8137158" lon="15.2390012"><ele>29.0</ele><time>2026-04-26T15:50:40.089Z</time></trkpt><trkpt lat="37.8136751" lon="15.2388432"><ele>29.0</ele><time>2026-04-26T15:50:41.08Z</time></trkpt><trkpt lat="37.8136316" lon="15.2386844"><ele>29.0</ele><time>2026-04-26T15:50:42.079Z</time></trkpt><trkpt lat="37.8135882" lon="15.2385172"><ele>29.333333333333332</ele><time>2026-04-26T15:50:43.064Z</time></trkpt><trkpt lat="37.8135421" lon="15.2383402"><ele>29.666666666666664</ele><time>2026-04-26T15:50:44.08Z</time></trkpt><trkpt lat="37.8134952" lon="15.2381548"><ele>30.0</ele><time>2026-04-26T15:50:45.097Z</time></trkpt><trkpt lat="37.8134484" lon="15.2379664"><ele>29.333333333333336</ele><time>2026-04-26T15:50:46.081Z</time></trkpt><trkpt lat="37.8134006" lon="15.2377801"><ele>28.666666666666668</ele><time>2026-04-26T15:50:47.081Z</time></trkpt><trkpt lat="37.8133493" lon="15.2375936"><ele>28.0</ele><time>2026-04-26T15:50:48.08Z</time></trkpt><trkpt lat="37.8132981" lon="15.2374028"><ele>29.333333333333336</ele><time>2026-04-26T15:50:49.05Z</time></trkpt><trkpt lat="37.8132481" lon="15.2372077"><ele>30.666666666666664</ele><time>2026-04-26T15:50:50.096Z</time></trkpt><trkpt lat="37.8131955" lon="15.2370138"><ele>32.0</ele><time>2026-04-26T15:50:51.079Z</time></trkpt><trkpt lat="37.8131389" lon="15.2368234"><ele>32.0</ele><time>2026-04-26T15:50:52.081Z</time></trkpt><trkpt lat="37.8130817" lon="15.2366406"><ele>32.0</ele><time>2026-04-26T15:50:53.048Z</time></trkpt><trkpt lat="37.8130276" lon="15.2364741"><ele>32.0</ele><time>2026-04-26T15:50:54.074Z</time></trkpt><trkpt lat="37.8129766" lon="15.236323"><ele>32.0</ele><time>2026-04-26T15:50:55.043Z</time></trkpt><trkpt lat="37.8129325" lon="15.2361799"><ele>32.800000000000004</ele><time>2026-04-26T15:50:56.09Z</time></trkpt><trkpt lat="37.812889" lon="15.2360516"><ele>33.6</ele><time>2026-04-26T15:50:57.098Z</time></trkpt><trkpt lat="37.8128455" lon="15.2359361"><ele>34.400000000000006</ele><time>2026-04-26T15:50:58.08Z</time></trkpt><trkpt lat="37.8128035" lon="15.235821"><ele>35.2</ele><time>2026-04-26T15:50:59.062Z</time></trkpt><trkpt lat="37.8127579" lon="15.2357063"><ele>36.0</ele><time>2026-04-26T15:51:00.079Z</time></trkpt><trkpt lat="37.8127082" lon="15.2355915"><ele>35.4</ele><time>2026-04-26T15:51:01.077Z</time></trkpt><trkpt lat="37.8126523" lon="15.2354747"><ele>34.8</ele><time>2026-04-26T15:51:02.065Z</time></trkpt><trkpt lat="37.8125911" lon="15.2353579"><ele>34.199999999999996</ele><time>2026-04-26T15:51:03.062Z</time></trkpt><trkpt lat="37.8125235" lon="15.2352421"><ele>33.6</ele><time>2026-04-26T15:51:04.076Z</time></trkpt><trkpt lat="37.8124513" lon="15.2351264"><ele>33.0</ele><time>2026-04-26T15:51:05.047Z</time></trkpt><trkpt lat="37.8123732" lon="15.2350042"><ele>33.0</ele><time>2026-04-26T15:51:06.077Z</time></trkpt><trkpt lat="37.8122938" lon="15.2348766"><ele>33.0</ele><time>2026-04-26T15:51:07.044Z</time></trkpt><trkpt lat="37.8122112" lon="15.2347448"><ele>33.0</ele><time>2026-04-26T15:51:08.078Z</time></trkpt><trkpt lat="37.8121273" lon="15.2346107"><ele>33.0</ele><time>2026-04-26T15:51:09.088Z</time></trkpt><trkpt lat="37.8120453" lon="15.2344793"><ele>33.0</ele><time>2026-04-26T15:51:10.068Z</time></trkpt><trkpt lat="37.8119669" lon="15.2343521"><ele>33.0</ele><time>2026-04-26T15:51:11.084Z</time></trkpt><trkpt lat="37.8118905" lon="15.2342277"><ele>33.0</ele><time>2026-04-26T15:51:12.065Z</time></trkpt><trkpt lat="37.8118152" lon="15.2341045"><ele>33.0</ele><time>2026-04-26T15:51:13.066Z</time></trkpt><trkpt lat="37.8117377" lon="15.233982"><ele>33.5</ele><time>2026-04-26T15:51:14.08Z</time></trkpt><trkpt lat="37.8116589" lon="15.2338567"><ele>34.0</ele><time>2026-04-26T15:51:15.112Z</time></trkpt><trkpt lat="37.8115788" lon="15.2337295"><ele>34.5</ele><time>2026-04-26T15:51:16.085Z</time></trkpt><trkpt lat="37.8114982" lon="15.2336017"><ele>35.0</ele><time>2026-04-26T15:51:17.065Z</time></trkpt><trkpt lat="37.8114158" lon="15.2334724"><ele>35.0</ele><time>2026-04-26T15:51:18.08Z</time></trkpt><trkpt lat="37.8113338" lon="15.2333455"><ele>35.0</ele><time>2026-04-26T15:51:19.067Z</time></trkpt><trkpt lat="37.8112535" lon="15.233219"><ele>35.0</ele><time>2026-04-26T15:51:20.086Z</time></trkpt><trkpt lat="37.8111754" lon="15.2330963"><ele>35.0</ele><time>2026-04-26T15:51:21.065Z</time></trkpt><trkpt lat="37.8110995" lon="15.2329775"><ele>35.0</ele><time>2026-04-26T15:51:22.076Z</time></trkpt><trkpt lat="37.8110238" lon="15.2328524"><ele>35.0</ele><time>2026-04-26T15:51:23.063Z</time></trkpt><trkpt lat="37.8109433" lon="15.2327231"><ele>35.0</ele><time>2026-04-26T15:51:24.063Z</time></trkpt><trkpt lat="37.810861" lon="15.2325907"><ele>35.0</ele><time>2026-04-26T15:51:25.093Z</time></trkpt><trkpt lat="37.8107809" lon="15.232459"><ele>35.2</ele><time>2026-04-26T15:51:26.096Z</time></trkpt><trkpt lat="37.8107043" lon="15.2323333"><ele>35.4</ele><time>2026-04-26T15:51:27.065Z</time></trkpt><trkpt lat="37.8106324" lon="15.2322182"><ele>35.6</ele><time>2026-04-26T15:51:28.076Z</time></trkpt><trkpt lat="37.8105669" lon="15.2321129"><ele>35.8</ele><time>2026-04-26T15:51:29.088Z</time></trkpt><trkpt lat="37.8105056" lon="15.2320145"><ele>36.0</ele><time>2026-04-26T15:51:30.077Z</time></trkpt><trkpt lat="37.8104487" lon="15.2319208"><ele>36.0</ele><time>2026-04-26T15:51:31.082Z</time></trkpt><trkpt lat="37.8103952" lon="15.2318326"><ele>36.0</ele><time>2026-04-26T15:51:32.091Z</time></trkpt><trkpt lat="37.810344" lon="15.2317495"><ele>36.0</ele><time>2026-04-26T15:51:33.098Z</time></trkpt><trkpt lat="37.8102947" lon="15.2316714"><ele>36.0</ele><time>2026-04-26T15:51:34.096Z</time></trkpt><trkpt lat="37.8102455" lon="15.2315981"><ele>36.0</ele><time>2026-04-26T15:51:35.062Z</time></trkpt><trkpt lat="37.8101963" lon="15.2315252"><ele>36.0</ele><time>2026-04-26T15:51:36.079Z</time></trkpt><trkpt lat="37.8101454" lon="15.231446"><ele>36.4</ele><time>2026-04-26T15:51:37.094Z</time></trkpt><trkpt lat="37.8100883" lon="15.2313604"><ele>36.8</ele><time>2026-04-26T15:51:38.091Z</time></trkpt><trkpt lat="37.810029" lon="15.2312667"><ele>37.199999999999996</ele><time>2026-04-26T15:51:39.086Z</time></trkpt><trkpt lat="37.8099668" lon="15.2311695"><ele>37.6</ele><time>2026-04-26T15:51:40.061Z</time></trkpt><trkpt lat="37.8098992" lon="15.2310691"><ele>38.0</ele><time>2026-04-26T15:51:41.079Z</time></trkpt><trkpt lat="37.8098316" lon="15.230964"><ele>38.0</ele><time>2026-04-26T15:51:42.08Z</time></trkpt><trkpt lat="37.809766" lon="15.230858"><ele>38.0</ele><time>2026-04-26T15:51:43.053Z</time></trkpt><trkpt lat="37.8097023" lon="15.2307561"><ele>38.0</ele><time>2026-04-26T15:51:44.08Z</time></trkpt><trkpt lat="37.809644" lon="15.2306625"><ele>38.0</ele><time>2026-04-26T15:51:45.078Z</time></trkpt><trkpt lat="37.8095874" lon="15.2305756"><ele>38.0</ele><time>2026-04-26T15:51:46.055Z</time></trkpt><trkpt lat="37.8095327" lon="15.2304908"><ele>38.166666666666664</ele><time>2026-04-26T15:51:47.078Z</time></trkpt><trkpt lat="37.8094791" lon="15.230407"><ele>38.33333333333333</ele><time>2026-04-26T15:51:48.082Z</time></trkpt><trkpt lat="37.8094239" lon="15.230321"><ele>38.5</ele><time>2026-04-26T15:51:49.061Z</time></trkpt><trkpt lat="37.8093661" lon="15.2302318"><ele>38.666666666666664</ele><time>2026-04-26T15:51:50.045Z</time></trkpt><trkpt lat="37.809309" lon="15.2301423"><ele>38.833333333333336</ele><time>2026-04-26T15:51:51.083Z</time></trkpt><trkpt lat="37.8092521" lon="15.2300542"><ele>39.0</ele><time>2026-04-26T15:51:52.084Z</time></trkpt><trkpt lat="37.8091945" lon="15.2299643"><ele>39.0</ele><time>2026-04-26T15:51:53.083Z</time></trkpt><trkpt lat="37.8091375" lon="15.2298746"><ele>39.0</ele><time>2026-04-26T15:51:54.066Z</time></trkpt><trkpt lat="37.8090834" lon="15.2297907"><ele>39.0</ele><time>2026-04-26T15:51:55.08Z</time></trkpt><trkpt lat="37.8090346" lon="15.2297124"><ele>39.0</ele><time>2026-04-26T15:51:56.092Z</time></trkpt><trkpt lat="37.8089858" lon="15.2296374"><ele>39.0</ele><time>2026-04-26T15:51:57.095Z</time></trkpt><trkpt lat="37.8089339" lon="15.2295549"><ele>39.0</ele><time>2026-04-26T15:51:58.048Z</time></trkpt><trkpt lat="37.8088788" lon="15.2294711"><ele>39.0</ele><time>2026-04-26T15:51:59.058Z</time></trkpt><trkpt lat="37.8088208" lon="15.2293857"><ele>39.0</ele><time>2026-04-26T15:52:00.079Z</time></trkpt><trkpt lat="37.8087621" lon="15.2292974"><ele>39.0</ele><time>2026-04-26T15:52:01.084Z</time></trkpt><trkpt lat="37.8087006" lon="15.2292055"><ele>39.0</ele><time>2026-04-26T15:52:02.077Z</time></trkpt><trkpt lat="37.8086391" lon="15.22911"><ele>39.0</ele><time>2026-04-26T15:52:03.079Z</time></trkpt><trkpt lat="37.8085793" lon="15.2290118"><ele>39.0</ele><time>2026-04-26T15:52:04.046Z</time></trkpt><trkpt lat="37.8085209" lon="15.2289166"><ele>39.0</ele><time>2026-04-26T15:52:05.081Z</time></trkpt><trkpt lat="37.8084672" lon="15.2288285"><ele>39.0</ele><time>2026-04-26T15:52:06.056Z</time></trkpt><trkpt lat="37.8084163" lon="15.2287412"><ele>39.0</ele><time>2026-04-26T15:52:07.086Z</time></trkpt><trkpt lat="37.8083627" lon="15.2286523"><ele>39.0</ele><time>2026-04-26T15:52:08.083Z</time></trkpt><trkpt lat="37.8083039" lon="15.2285623"><ele>39.0</ele><time>2026-04-26T15:52:09.074Z</time></trkpt><trkpt lat="37.8082433" lon="15.2284662"><ele>39.6</ele><time>2026-04-26T15:52:10.084Z</time></trkpt><trkpt lat="37.8081818" lon="15.2283683"><ele>40.2</ele><time>2026-04-26T15:52:11.09Z</time></trkpt><trkpt lat="37.8081199" lon="15.2282706"><ele>40.800000000000004</ele><time>2026-04-26T15:52:12.083Z</time></trkpt><trkpt lat="37.8080584" lon="15.228176"><ele>41.4</ele><time>2026-04-26T15:52:13.093Z</time></trkpt><trkpt lat="37.8080003" lon="15.2280821"><ele>42.0</ele><time>2026-04-26T15:52:14.084Z</time></trkpt><trkpt lat="37.8079458" lon="15.2279858"><ele>42.166666666666664</ele><time>2026-04-26T15:52:15.049Z</time></trkpt><trkpt lat="37.8078906" lon="15.2278908"><ele>42.333333333333336</ele><time>2026-04-26T15:52:16.09Z</time></trkpt><trkpt lat="37.807836" lon="15.227801"><ele>42.5</ele><time>2026-04-26T15:52:17.079Z</time></trkpt><trkpt lat="37.8077787" lon="15.2277156"><ele>42.66666666666667</ele><time>2026-04-26T15:52:18.075Z</time></trkpt><trkpt lat="37.807721" lon="15.2276328"><ele>42.833333333333336</ele><time>2026-04-26T15:52:19.061Z</time></trkpt><trkpt lat="37.8076633" lon="15.2275508"><ele>43.0</ele><time>2026-04-26T15:52:20.074Z</time></trkpt><trkpt lat="37.8076018" lon="15.2274721"><ele>43.0</ele><time>2026-04-26T15:52:21.072Z</time></trkpt><trkpt lat="37.8075346" lon="15.2274"><ele>43.0</ele><time>2026-04-26T15:52:22.082Z</time></trkpt><trkpt lat="37.8074651" lon="15.2273367"><ele>43.0</ele><time>2026-04-26T15:52:23.065Z</time></trkpt><trkpt lat="37.8073915" lon="15.2272816"><ele>43.0</ele><time>2026-04-26T15:52:24.078Z</time></trkpt><trkpt lat="37.8073083" lon="15.2272361"><ele>43.0</ele><time>2026-04-26T15:52:25.044Z</time></trkpt><trkpt lat="37.8072266" lon="15.227193"><ele>43.0</ele><time>2026-04-26T15:52:26.076Z</time></trkpt><trkpt lat="37.807146" lon="15.227151"><ele>42.833333333333336</ele><time>2026-04-26T15:52:27.084Z</time></trkpt><trkpt lat="37.8070649" lon="15.2271119"><ele>42.66666666666667</ele><time>2026-04-26T15:52:28.06Z</time></trkpt><trkpt lat="37.8069833" lon="15.2270804"><ele>42.5</ele><time>2026-04-26T15:52:29.074Z</time></trkpt><trkpt lat="37.8069031" lon="15.2270505"><ele>42.333333333333336</ele><time>2026-04-26T15:52:30.065Z</time></trkpt><trkpt lat="37.8068227" lon="15.227022"><ele>42.166666666666664</ele><time>2026-04-26T15:52:31.065Z</time></trkpt><trkpt lat="37.8067436" lon="15.2269906"><ele>42.0</ele><time>2026-04-26T15:52:32.075Z</time></trkpt><trkpt lat="37.8066638" lon="15.2269585"><ele>42.0</ele><time>2026-04-26T15:52:33.049Z</time></trkpt><trkpt lat="37.8065916" lon="15.2269162"><ele>42.0</ele><time>2026-04-26T15:52:34.077Z</time></trkpt><trkpt lat="37.8065357" lon="15.2268575"><ele>42.0</ele><time>2026-04-26T15:52:35.08Z</time></trkpt><trkpt lat="37.8064973" lon="15.2267865"><ele>42.0</ele><time>2026-04-26T15:52:36.079Z</time></trkpt><trkpt lat="37.8064663" lon="15.2267016"><ele>42.0</ele><time>2026-04-26T15:52:37.079Z</time></trkpt><trkpt lat="37.8064416" lon="15.2265999"><ele>42.0</ele><time>2026-04-26T15:52:38.079Z</time></trkpt><trkpt lat="37.8064207" lon="15.2264788"><ele>43.5</ele><time>2026-04-26T15:52:39.043Z</time></trkpt><trkpt lat="37.8063946" lon="15.2263394"><ele>45.0</ele><time>2026-04-26T15:52:40.06Z</time></trkpt><trkpt lat="37.806366" lon="15.2261882"><ele>46.5</ele><time>2026-04-26T15:52:41.095Z</time></trkpt><trkpt lat="37.8063439" lon="15.2260275"><ele>48.0</ele><time>2026-04-26T15:52:42.084Z</time></trkpt><trkpt lat="37.8063231" lon="15.2258708"><ele>48.0</ele><time>2026-04-26T15:52:43.064Z</time></trkpt><trkpt lat="37.8063079" lon="15.2257233"><ele>48.0</ele><time>2026-04-26T15:52:44.08Z</time></trkpt><trkpt lat="37.8062992" lon="15.2255863"><ele>48.0</ele><time>2026-04-26T15:52:45.095Z</time></trkpt><trkpt lat="37.8062979" lon="15.2254567"><ele>48.0</ele><time>2026-04-26T15:52:46.076Z</time></trkpt><trkpt lat="37.8063016" lon="15.2253303"><ele>48.0</ele><time>2026-04-26T15:52:47.058Z</time></trkpt><trkpt lat="37.8063089" lon="15.2251983"><ele>49.25</ele><time>2026-04-26T15:52:48.081Z</time></trkpt><trkpt lat="37.8063125" lon="15.2250579"><ele>50.5</ele><time>2026-04-26T15:52:49.091Z</time></trkpt><trkpt lat="37.8063098" lon="15.2249076"><ele>51.75</ele><time>2026-04-26T15:52:50.059Z</time></trkpt><trkpt lat="37.8062989" lon="15.2247564"><ele>53.0</ele><time>2026-04-26T15:52:51.061Z</time></trkpt><trkpt lat="37.8062793" lon="15.2246135"><ele>53.4</ele><time>2026-04-26T15:52:52.079Z</time></trkpt><trkpt lat="37.8062531" lon="15.2244767"><ele>53.8</ele><time>2026-04-26T15:52:53.078Z</time></trkpt><trkpt lat="37.8062218" lon="15.2243443"><ele>54.2</ele><time>2026-04-26T15:52:54.081Z</time></trkpt><trkpt lat="37.8061928" lon="15.2242161"><ele>54.6</ele><time>2026-04-26T15:52:55.086Z</time></trkpt><trkpt lat="37.8061614" lon="15.2240903"><ele>55.0</ele><time>2026-04-26T15:52:56.08Z</time></trkpt><trkpt lat="37.8061279" lon="15.2239668"><ele>55.2</ele><time>2026-04-26T15:52:57.087Z</time></trkpt><trkpt lat="37.8060939" lon="15.2238421"><ele>55.4</ele><time>2026-04-26T15:52:58.084Z</time></trkpt><trkpt lat="37.806056" lon="15.2237193"><ele>55.599999999999994</ele><time>2026-04-26T15:52:59.059Z</time></trkpt><trkpt lat="37.8060181" lon="15.2235968"><ele>55.8</ele><time>2026-04-26T15:53:00.068Z</time></trkpt><trkpt lat="37.8059818" lon="15.2234804"><ele>56.0</ele><time>2026-04-26T15:53:01.081Z</time></trkpt><trkpt lat="37.8059512" lon="15.2233757"><ele>56.16666666666667</ele><time>2026-04-26T15:53:02.078Z</time></trkpt><trkpt lat="37.8059359" lon="15.2232884"><ele>56.333333333333336</ele><time>2026-04-26T15:53:03.085Z</time></trkpt><trkpt lat="37.8059436" lon="15.2231152"><ele>56.5</ele><time>2026-04-26T15:53:05.081Z</time></trkpt><trkpt lat="37.8059542" lon="15.2230148"><ele>56.66666666666667</ele><time>2026-04-26T15:53:06.077Z</time></trkpt><trkpt lat="37.8059704" lon="15.2229188"><ele>56.833333333333336</ele><time>2026-04-26T15:53:07.042Z</time></trkpt><trkpt lat="37.8059855" lon="15.222828"><ele>57.0</ele><time>2026-04-26T15:53:08.081Z</time></trkpt><trkpt lat="37.8059958" lon="15.2227443"><ele>57.0</ele><time>2026-04-26T15:53:09.078Z</time></trkpt><trkpt lat="37.8060126" lon="15.2226486"><ele>57.0</ele><time>2026-04-26T15:53:10.071Z</time></trkpt><trkpt lat="37.8060308" lon="15.2225437"><ele>57.0</ele><time>2026-04-26T15:53:11.08Z</time></trkpt><trkpt lat="37.8060487" lon="15.2224294"><ele>57.0</ele><time>2026-04-26T15:53:12.076Z</time></trkpt><trkpt lat="37.8060667" lon="15.2223153"><ele>57.0</ele><time>2026-04-26T15:53:13.08Z</time></trkpt><trkpt lat="37.8060828" lon="15.2222013"><ele>57.0</ele><time>2026-04-26T15:53:14.079Z</time></trkpt><trkpt lat="37.8060977" lon="15.2220909"><ele>57.166666666666664</ele><time>2026-04-26T15:53:15.081Z</time></trkpt><trkpt lat="37.8061153" lon="15.2219846"><ele>57.33333333333333</ele><time>2026-04-26T15:53:16.059Z</time></trkpt><trkpt lat="37.8061319" lon="15.2218824"><ele>57.5</ele><time>2026-04-26T15:53:17.059Z</time></trkpt><trkpt lat="37.8061463" lon="15.2217811"><ele>57.666666666666664</ele><time>2026-04-26T15:53:18.088Z</time></trkpt><trkpt lat="37.8061582" lon="15.221687"><ele>57.83333333333333</ele><time>2026-04-26T15:53:19.045Z</time></trkpt><trkpt lat="37.8061706" lon="15.2215976"><ele>58.0</ele><time>2026-04-26T15:53:20.082Z</time></trkpt><trkpt lat="37.8061836" lon="15.2215147"><ele>58.33333333333333</ele><time>2026-04-26T15:53:21.075Z</time></trkpt><trkpt lat="37.8061978" lon="15.2214302"><ele>58.666666666666664</ele><time>2026-04-26T15:53:22.075Z</time></trkpt><trkpt lat="37.8062144" lon="15.2213296"><ele>59.0</ele><time>2026-04-26T15:53:23.046Z</time></trkpt><trkpt lat="37.8062327" lon="15.2212134"><ele>59.33333333333333</ele><time>2026-04-26T15:53:24.08Z</time></trkpt><trkpt lat="37.8062497" lon="15.2210895"><ele>59.666666666666664</ele><time>2026-04-26T15:53:25.079Z</time></trkpt><trkpt lat="37.8062644" lon="15.2209773"><ele>60.0</ele><time>2026-04-26T15:53:26.083Z</time></trkpt><trkpt lat="37.8062722" lon="15.2208789"><ele>60.0</ele><time>2026-04-26T15:53:27.044Z</time></trkpt><trkpt lat="37.806268" lon="15.220784"><ele>60.0</ele><time>2026-04-26T15:53:28.079Z</time></trkpt><trkpt lat="37.806241" lon="15.220696"><ele>60.0</ele><time>2026-04-26T15:53:29.057Z</time></trkpt><trkpt lat="37.8061932" lon="15.2206303"><ele>60.0</ele><time>2026-04-26T15:53:30.076Z</time></trkpt><trkpt lat="37.8061348" lon="15.220563"><ele>60.0</ele><time>2026-04-26T15:53:31.076Z</time></trkpt><trkpt lat="37.8060735" lon="15.220499"><ele>60.0</ele><time>2026-04-26T15:53:32.079Z</time></trkpt><trkpt lat="37.8060104" lon="15.2204397"><ele>59.666666666666664</ele><time>2026-04-26T15:53:33.095Z</time></trkpt><trkpt lat="37.8059525" lon="15.2203772"><ele>59.33333333333333</ele><time>2026-04-26T15:53:34.081Z</time></trkpt><trkpt lat="37.8058947" lon="15.220313"><ele>59.0</ele><time>2026-04-26T15:53:35.082Z</time></trkpt><trkpt lat="37.8058375" lon="15.2202471"><ele>58.666666666666664</ele><time>2026-04-26T15:53:36.082Z</time></trkpt><trkpt lat="37.8057786" lon="15.2201769"><ele>58.33333333333333</ele><time>2026-04-26T15:53:37.079Z</time></trkpt><trkpt lat="37.8057207" lon="15.2201016"><ele>58.0</ele><time>2026-04-26T15:53:38.084Z</time></trkpt><trkpt lat="37.8056587" lon="15.2200284"><ele>58.0</ele><time>2026-04-26T15:53:39.066Z</time></trkpt><trkpt lat="37.8055946" lon="15.21995"><ele>58.0</ele><time>2026-04-26T15:53:40.061Z</time></trkpt><trkpt lat="37.8055268" lon="15.219867"><ele>58.0</ele><time>2026-04-26T15:53:41.076Z</time></trkpt><trkpt lat="37.8054601" lon="15.2197735"><ele>58.0</ele><time>2026-04-26T15:53:42.079Z</time></trkpt><trkpt lat="37.8053891" lon="15.2196706"><ele>58.0</ele><time>2026-04-26T15:53:43.089Z</time></trkpt><trkpt lat="37.8053142" lon="15.2195521"><ele>58.5</ele><time>2026-04-26T15:53:44.077Z</time></trkpt><trkpt lat="37.8052357" lon="15.2194189"><ele>59.0</ele><time>2026-04-26T15:53:45.063Z</time></trkpt><trkpt lat="37.8051622" lon="15.2192717"><ele>59.5</ele><time>2026-04-26T15:53:46.081Z</time></trkpt><trkpt lat="37.8050869" lon="15.2191257"><ele>60.0</ele><time>2026-04-26T15:53:47.089Z</time></trkpt><trkpt lat="37.805008" lon="15.2189832"><ele>60.25</ele><time>2026-04-26T15:53:48.08Z</time></trkpt><trkpt lat="37.8049282" lon="15.2188392"><ele>60.5</ele><time>2026-04-26T15:53:49.044Z</time></trkpt><trkpt lat="37.8048507" lon="15.2186866"><ele>60.75</ele><time>2026-04-26T15:53:50.08Z</time></trkpt><trkpt lat="37.8047724" lon="15.2185382"><ele>61.0</ele><time>2026-04-26T15:53:51.08Z</time></trkpt><trkpt lat="37.8046928" lon="15.2183883"><ele>61.0</ele><time>2026-04-26T15:53:52.084Z</time></trkpt><trkpt lat="37.8046137" lon="15.2182383"><ele>61.0</ele><time>2026-04-26T15:53:53.082Z</time></trkpt><trkpt lat="37.8045353" lon="15.2180848"><ele>61.0</ele><time>2026-04-26T15:53:54.096Z</time></trkpt><trkpt lat="37.8044539" lon="15.2179292"><ele>61.0</ele><time>2026-04-26T15:53:55.078Z</time></trkpt><trkpt lat="37.804363" lon="15.2177773"><ele>60.33333333333333</ele><time>2026-04-26T15:53:56.091Z</time></trkpt><trkpt lat="37.8042613" lon="15.2176273"><ele>59.66666666666667</ele><time>2026-04-26T15:53:57.078Z</time></trkpt><trkpt lat="37.8041509" lon="15.2174776"><ele>59.0</ele><time>2026-04-26T15:53:58.087Z</time></trkpt><trkpt lat="37.8040345" lon="15.2173349"><ele>62.0</ele><time>2026-04-26T15:53:59.063Z</time></trkpt><trkpt lat="37.8039107" lon="15.2171907"><ele>65.0</ele><time>2026-04-26T15:54:00.082Z</time></trkpt><trkpt lat="37.8037862" lon="15.2170459"><ele>68.0</ele><time>2026-04-26T15:54:01.086Z</time></trkpt><trkpt lat="37.8036604" lon="15.216899"><ele>68.0</ele><time>2026-04-26T15:54:02.079Z</time></trkpt><trkpt lat="37.8035313" lon="15.2167506"><ele>68.0</ele><time>2026-04-26T15:54:03.081Z</time></trkpt><trkpt lat="37.803398" lon="15.2166001"><ele>68.0</ele><time>2026-04-26T15:54:04.078Z</time></trkpt><trkpt lat="37.8032668" lon="15.2164471"><ele>64.0</ele><time>2026-04-26T15:54:05.081Z</time></trkpt><trkpt lat="37.8031395" lon="15.2162959"><ele>60.0</ele><time>2026-04-26T15:54:06.079Z</time></trkpt><trkpt lat="37.8030171" lon="15.2161517"><ele>56.0</ele><time>2026-04-26T15:54:07.083Z</time></trkpt><trkpt lat="37.8028992" lon="15.2160123"><ele>56.0</ele><time>2026-04-26T15:54:08.051Z</time></trkpt><trkpt lat="37.8027847" lon="15.2158756"><ele>56.0</ele><time>2026-04-26T15:54:09.08Z</time></trkpt><trkpt lat="37.8026723" lon="15.2157414"><ele>56.0</ele><time>2026-04-26T15:54:10.079Z</time></trkpt><trkpt lat="37.802561" lon="15.2156048"><ele>57.333333333333336</ele><time>2026-04-26T15:54:11.078Z</time></trkpt><trkpt lat="37.8024499" lon="15.2154621"><ele>58.66666666666667</ele><time>2026-04-26T15:54:12.08Z</time></trkpt><trkpt lat="37.8023369" lon="15.2153151"><ele>60.0</ele><time>2026-04-26T15:54:13.091Z</time></trkpt><trkpt lat="37.802228" lon="15.215163"><ele>60.0</ele><time>2026-04-26T15:54:14.081Z</time></trkpt><trkpt lat="37.802127" lon="15.2150049"><ele>60.0</ele><time>2026-04-26T15:54:15.084Z</time></trkpt><trkpt lat="37.8020331" lon="15.214844"><ele>60.0</ele><time>2026-04-26T15:54:16.08Z</time></trkpt><trkpt lat="37.801946" lon="15.2146797"><ele>59.33333333333333</ele><time>2026-04-26T15:54:17.061Z</time></trkpt><trkpt lat="37.8018578" lon="15.2145178"><ele>58.666666666666664</ele><time>2026-04-26T15:54:18.064Z</time></trkpt><trkpt lat="37.8017675" lon="15.2143511"><ele>58.0</ele><time>2026-04-26T15:54:19.078Z</time></trkpt><trkpt lat="37.8016744" lon="15.214185"><ele>60.0</ele><time>2026-04-26T15:54:20.078Z</time></trkpt><trkpt lat="37.8015746" lon="15.214024"><ele>62.0</ele><time>2026-04-26T15:54:21.079Z</time></trkpt><trkpt lat="37.8014665" lon="15.2138725"><ele>64.0</ele><time>2026-04-26T15:54:22.064Z</time></trkpt><trkpt lat="37.8013572" lon="15.213727"><ele>64.0</ele><time>2026-04-26T15:54:23.043Z</time></trkpt><trkpt lat="37.8011331" lon="15.2134669"><ele>64.0</ele><time>2026-04-26T15:54:25.034Z</time></trkpt><trkpt lat="37.8010124" lon="15.2133571"><ele>66.25</ele><time>2026-04-26T15:54:26.032Z</time></trkpt><trkpt lat="37.8008928" lon="15.2132548"><ele>68.5</ele><time>2026-04-26T15:54:27.036Z</time></trkpt><trkpt lat="37.8007745" lon="15.2131551"><ele>70.75</ele><time>2026-04-26T15:54:28.036Z</time></trkpt><trkpt lat="37.8006535" lon="15.2130597"><ele>73.0</ele><time>2026-04-26T15:54:29.034Z</time></trkpt><trkpt lat="37.8005283" lon="15.2129662"><ele>73.0</ele><time>2026-04-26T15:54:30.078Z</time></trkpt><trkpt lat="37.8004002" lon="15.2128678"><ele>73.0</ele><time>2026-04-26T15:54:31.076Z</time></trkpt><trkpt lat="37.800269" lon="15.2127632"><ele>73.0</ele><time>2026-04-26T15:54:32.044Z</time></trkpt><trkpt lat="37.8001383" lon="15.2126546"><ele>72.75</ele><time>2026-04-26T15:54:33.054Z</time></trkpt><trkpt lat="37.8000188" lon="15.2125382"><ele>72.5</ele><time>2026-04-26T15:54:34.077Z</time></trkpt><trkpt lat="37.7999086" lon="15.2124207"><ele>72.25</ele><time>2026-04-26T15:54:35.043Z</time></trkpt><trkpt lat="37.7998087" lon="15.2123039"><ele>72.0</ele><time>2026-04-26T15:54:36.065Z</time></trkpt><trkpt lat="37.7997213" lon="15.2121897"><ele>72.0</ele><time>2026-04-26T15:54:37.066Z</time></trkpt><trkpt lat="37.7996403" lon="15.2120818"><ele>72.0</ele><time>2026-04-26T15:54:38.044Z</time></trkpt><trkpt lat="37.7995623" lon="15.2119767"><ele>72.0</ele><time>2026-04-26T15:54:39.05Z</time></trkpt><trkpt lat="37.7994876" lon="15.2118764"><ele>72.0</ele><time>2026-04-26T15:54:40.036Z</time></trkpt><trkpt lat="37.7994155" lon="15.2117829"><ele>72.0</ele><time>2026-04-26T15:54:41.051Z</time></trkpt></trkseg></trk></gpx>